<?xml version='1.0' encoding='UTF-8'?><gpx version="1.1" creator="JPX - https://github.com/jenetics/jpx" xmlns="http://www.topografix.com/GPX/1/1"><trk><trkseg><trkpt lat="43.72117243077012" lon="10.95368295821064"><ele>29.0</ele><time>2026-04-26T12:52:22Z</time></trkpt><trkpt lat="43.7212915834196" lon="10.95372375723366"><ele>29.0</ele><time>2026-04-26T12:57:52.001Z</time></trkpt><trkpt lat="43.72130570539214" lon="10.953600544467724"><ele>29.0</ele><time>2026-04-26T12:57:56.001Z</time></trkpt><trkpt lat="43.72129766385495" lon="10.95347635873937"><ele>29.0</ele><time>2026-04-26T12:58:00.001Z</time></trkpt><trkpt lat="43.72127546093891" lon="10.953346112526212"><ele>29.0</ele><time>2026-04-26T12:58:02.001Z</time></trkpt><trkpt lat="43.72126726903716" lon="10.95325466281585"><ele>29.0</ele><time>2026-04-26T12:58:03.001Z</time></trkpt><trkpt lat="43.721239609614734" lon="10.953110751686602"><ele>29.0</ele><time>2026-04-26T12:58:04.999Z</time></trkpt><trkpt lat="43.72123467425727" lon="10.953013745682151"><ele>29.0</ele><time>2026-04-26T12:58:08.999Z</time></trkpt><trkpt lat="43.72110771737777" lon="10.953032429530364"><ele>29.0</ele><time>2026-04-26T12:58:09.999Z</time></trkpt><trkpt lat="43.72104416332102" lon="10.953056130241414"><ele>29.0</ele><time>2026-04-26T12:58:10.999Z</time></trkpt><trkpt lat="43.720922390179226" lon="10.953094165495498"><ele>29.0</ele><time>2026-04-26T12:58:12.999Z</time></trkpt><trkpt lat="43.72085741789732" lon="10.95310814130314"><ele>29.0</ele><time>2026-04-26T12:58:13.999Z</time></trkpt><trkpt lat="43.720765365939755" lon="10.95310059070097"><ele>29.0</ele><time>2026-04-26T12:58:15.999Z</time></trkpt><trkpt lat="43.72073893440022" lon="10.953312348258889"><ele>29.0</ele><time>2026-04-26T12:58:18.999Z</time></trkpt><trkpt lat="43.72077549461535" lon="10.953469302009653"><ele>29.0</ele><time>2026-04-26T12:58:20.999Z</time></trkpt><trkpt lat="43.72079318074665" lon="10.953626879800352"><ele>28.666666666666664</ele><time>2026-04-26T12:58:22.999Z</time></trkpt><trkpt lat="43.72080256423336" lon="10.953722240978525"><ele>28.333333333333332</ele><time>2026-04-26T12:58:23.999Z</time></trkpt><trkpt lat="43.720824737927096" lon="10.953846690536384"><ele>28.0</ele><time>2026-04-26T12:58:24.999Z</time></trkpt><trkpt lat="43.72084629777923" lon="10.95395175725722"><ele>27.666666666666664</ele><time>2026-04-26T12:58:25.999Z</time></trkpt><trkpt lat="43.7208676168611" lon="10.954073386609211"><ele>27.333333333333332</ele><time>2026-04-26T12:58:27.999Z</time></trkpt><trkpt lat="43.72093297190621" lon="10.954145253828132"><ele>27.0</ele><time>2026-04-26T12:58:32Z</time></trkpt><trkpt lat="43.72100775919248" lon="10.954138045965147"><ele>27.5</ele><time>2026-04-26T12:58:33Z</time></trkpt><trkpt lat="43.721120633677494" lon="10.954098376480705"><ele>28.0</ele><time>2026-04-26T12:58:34Z</time></trkpt><trkpt lat="43.72125494655839" lon="10.954050459550995"><ele>28.5</ele><time>2026-04-26T12:58:35Z</time></trkpt><trkpt lat="43.72138887014664" lon="10.954012495266054"><ele>29.0</ele><time>2026-04-26T12:58:36Z</time></trkpt><trkpt lat="43.72152633439358" lon="10.953982076357535"><ele>29.0</ele><time>2026-04-26T12:58:37Z</time></trkpt><trkpt lat="43.72165787539513" lon="10.953949113585379"><ele>29.0</ele><time>2026-04-26T12:58:38Z</time></trkpt><trkpt lat="43.72177723403644" lon="10.953912929077458"><ele>29.0</ele><time>2026-04-26T12:58:39Z</time></trkpt><trkpt lat="43.721886979551854" lon="10.95388622694662"><ele>29.0</ele><time>2026-04-26T12:58:40Z</time></trkpt><trkpt lat="43.72200109986323" lon="10.953857410045757"><ele>29.2</ele><time>2026-04-26T12:58:41Z</time></trkpt><trkpt lat="43.72212245905436" lon="10.953876926042456"><ele>29.4</ele><time>2026-04-26T12:58:42Z</time></trkpt><trkpt lat="43.7222269314284" lon="10.953849714136332"><ele>29.6</ele><time>2026-04-26T12:58:43Z</time></trkpt><trkpt lat="43.72231823816733" lon="10.953825931483545"><ele>29.8</ele><time>2026-04-26T12:58:44Z</time></trkpt><trkpt lat="43.72240104065602" lon="10.953796479236873"><ele>30.0</ele><time>2026-04-26T12:58:45Z</time></trkpt><trkpt lat="43.722475862654605" lon="10.953770276254183"><ele>30.0</ele><time>2026-04-26T12:58:46Z</time></trkpt><trkpt lat="43.7225916599291" lon="10.953786154164515"><ele>30.0</ele><time>2026-04-26T12:58:48Z</time></trkpt><trkpt lat="43.72263383697505" lon="10.954038510730038"><ele>30.0</ele><time>2026-04-26T12:58:51Z</time></trkpt><trkpt lat="43.72265801992364" lon="10.954142183022077"><ele>30.0</ele><time>2026-04-26T12:58:52Z</time></trkpt><trkpt lat="43.72266361140102" lon="10.954278592863048"><ele>29.8</ele><time>2026-04-26T12:58:53Z</time></trkpt><trkpt lat="43.72268084938337" lon="10.954430192166093"><ele>29.6</ele><time>2026-04-26T12:58:54Z</time></trkpt><trkpt lat="43.722694284192144" lon="10.954554387202014"><ele>29.4</ele><time>2026-04-26T12:58:55Z</time></trkpt><trkpt lat="43.72270471751181" lon="10.954660603729868"><ele>29.2</ele><time>2026-04-26T12:58:56Z</time></trkpt><trkpt lat="43.722701366729126" lon="10.954778430993274"><ele>29.0</ele><time>2026-04-26T12:58:58Z</time></trkpt><trkpt lat="43.72255682951033" lon="10.954857608492862"><ele>29.0</ele><time>2026-04-26T12:59:01Z</time></trkpt><trkpt lat="43.72246697750578" lon="10.954884012123793"><ele>29.0</ele><time>2026-04-26T12:59:02Z</time></trkpt><trkpt lat="43.72236217141951" lon="10.954932269584539"><ele>29.0</ele><time>2026-04-26T12:59:03Z</time></trkpt><trkpt lat="43.72226602893713" lon="10.95494626755456"><ele>29.0</ele><time>2026-04-26T12:59:04Z</time></trkpt><trkpt lat="43.72218767914522" lon="10.954960367244638"><ele>29.0</ele><time>2026-04-26T12:59:05Z</time></trkpt><trkpt lat="43.722103722137916" lon="10.954989732787837"><ele>29.0</ele><time>2026-04-26T12:59:07Z</time></trkpt><trkpt lat="43.72202860182077" lon="10.95501585049645"><ele>29.0</ele><time>2026-04-26T12:59:10Z</time></trkpt><trkpt lat="43.72195569531314" lon="10.955042587256985"><ele>29.0</ele><time>2026-04-26T12:59:11Z</time></trkpt><trkpt lat="43.721862111628305" lon="10.95507428175664"><ele>29.0</ele><time>2026-04-26T12:59:12Z</time></trkpt><trkpt lat="43.721759896340174" lon="10.955104002699972"><ele>29.0</ele><time>2026-04-26T12:59:13Z</time></trkpt><trkpt lat="43.72165739242527" lon="10.955132397670438"><ele>29.0</ele><time>2026-04-26T12:59:14Z</time></trkpt><trkpt lat="43.72156009318825" lon="10.955158153666357"><ele>29.0</ele><time>2026-04-26T12:59:15Z</time></trkpt><trkpt lat="43.721463900906265" lon="10.95518267738093"><ele>29.0</ele><time>2026-04-26T12:59:16Z</time></trkpt><trkpt lat="43.721371776952076" lon="10.955209394450314"><ele>29.0</ele><time>2026-04-26T12:59:17Z</time></trkpt><trkpt lat="43.72128910824058" lon="10.955233046810147"><ele>29.0</ele><time>2026-04-26T12:59:18Z</time></trkpt><trkpt lat="43.721215526538366" lon="10.955248365368691"><ele>28.999999999999996</ele><time>2026-04-26T12:59:19Z</time></trkpt><trkpt lat="43.721147051941934" lon="10.95526660001995"><ele>29.0</ele><time>2026-04-26T12:59:20Z</time></trkpt><trkpt lat="43.721062510962355" lon="10.955294716074517"><ele>29.0</ele><time>2026-04-26T12:59:22Z</time></trkpt><trkpt lat="43.72099942440997" lon="10.955315651139573"><ele>29.0</ele><time>2026-04-26T12:59:25.001Z</time></trkpt><trkpt lat="43.72091681927048" lon="10.955346322049593"><ele>28.999999999999996</ele><time>2026-04-26T12:59:28.001Z</time></trkpt><trkpt lat="43.720849298059775" lon="10.955371203021604"><ele>29.0</ele><time>2026-04-26T12:59:30.001Z</time></trkpt><trkpt lat="43.72077675063559" lon="10.955422418585403"><ele>28.833333333333332</ele><time>2026-04-26T13:00:35.999Z</time></trkpt><trkpt lat="43.7206689581946" lon="10.955449110181217"><ele>28.666666666666664</ele><time>2026-04-26T13:01:10Z</time></trkpt><trkpt lat="43.72057195118195" lon="10.955495402459185"><ele>28.5</ele><time>2026-04-26T13:01:12Z</time></trkpt><trkpt lat="43.720503374652004" lon="10.955505823643028"><ele>28.333333333333336</ele><time>2026-04-26T13:01:15Z</time></trkpt><trkpt lat="43.72041046248953" lon="10.955534604836165"><ele>28.166666666666668</ele><time>2026-04-26T13:01:17Z</time></trkpt><trkpt lat="43.72034760076752" lon="10.955565541270714"><ele>28.0</ele><time>2026-04-26T13:01:18Z</time></trkpt><trkpt lat="43.72026604766547" lon="10.955595867752567"><ele>28.0</ele><time>2026-04-26T13:01:19Z</time></trkpt><trkpt lat="43.720155634639994" lon="10.955604595229573"><ele>28.0</ele><time>2026-04-26T13:01:20Z</time></trkpt><trkpt lat="43.720034622147715" lon="10.955657031756278"><ele>28.0</ele><time>2026-04-26T13:01:21Z</time></trkpt><trkpt lat="43.71990076858924" lon="10.955689890160041"><ele>28.0</ele><time>2026-04-26T13:01:22Z</time></trkpt><trkpt lat="43.719775751137846" lon="10.955718461829038"><ele>28.0</ele><time>2026-04-26T13:01:23Z</time></trkpt><trkpt lat="43.71966013090187" lon="10.955747435762714"><ele>27.999999999999996</ele><time>2026-04-26T13:01:24Z</time></trkpt><trkpt lat="43.71955115619289" lon="10.95577625512489"><ele>27.999999999999996</ele><time>2026-04-26T13:01:25Z</time></trkpt><trkpt lat="43.71944849583753" lon="10.955805678653185"><ele>28.0</ele><time>2026-04-26T13:01:26Z</time></trkpt><trkpt lat="43.71935605771115" lon="10.955831740382724"><ele>28.0</ele><time>2026-04-26T13:01:27Z</time></trkpt><trkpt lat="43.719258961899904" lon="10.95585542378328"><ele>28.25</ele><time>2026-04-26T13:01:28Z</time></trkpt><trkpt lat="43.71914578370204" lon="10.955883795354223"><ele>28.5</ele><time>2026-04-26T13:01:29Z</time></trkpt><trkpt lat="43.719025178034386" lon="10.955911515561619"><ele>28.75</ele><time>2026-04-26T13:01:30Z</time></trkpt><trkpt lat="43.71890729891452" lon="10.955945010745317"><ele>29.0</ele><time>2026-04-26T13:01:31Z</time></trkpt><trkpt lat="43.71879825891096" lon="10.95597705815104"><ele>28.999999999999996</ele><time>2026-04-26T13:01:32.001Z</time></trkpt><trkpt lat="43.71869534340875" lon="10.95600466890433"><ele>29.0</ele><time>2026-04-26T13:01:33.001Z</time></trkpt><trkpt lat="43.71859772790693" lon="10.956031327084613"><ele>29.0</ele><time>2026-04-26T13:01:34.001Z</time></trkpt><trkpt lat="43.718511072149006" lon="10.956058216488781"><ele>29.0</ele><time>2026-04-26T13:01:35.001Z</time></trkpt><trkpt lat="43.71843834194476" lon="10.956075165756763"><ele>28.999999999999996</ele><time>2026-04-26T13:01:36.001Z</time></trkpt><trkpt lat="43.71835659408862" lon="10.956082842217912"><ele>29.0</ele><time>2026-04-26T13:01:38.001Z</time></trkpt><trkpt lat="43.7182868952054" lon="10.956082297145576"><ele>28.999999999999996</ele><time>2026-04-26T13:01:41.001Z</time></trkpt><trkpt lat="43.71825563739163" lon="10.955953216095283"><ele>29.0</ele><time>2026-04-26T13:01:42.001Z</time></trkpt><trkpt lat="43.71824387550141" lon="10.955866138290064"><ele>29.0</ele><time>2026-04-26T13:01:43.001Z</time></trkpt><trkpt lat="43.71823757160786" lon="10.955777351583594"><ele>29.0</ele><time>2026-04-26T13:01:44.001Z</time></trkpt><trkpt lat="43.71823263787003" lon="10.955616909337998"><ele>28.999999999999996</ele><time>2026-04-26T13:01:46.001Z</time></trkpt><trkpt lat="43.718219316143305" lon="10.955471774257337"><ele>29.0</ele><time>2026-04-26T13:01:48.001Z</time></trkpt><trkpt lat="43.718211706668754" lon="10.955325005115077"><ele>29.0</ele><time>2026-04-26T13:01:50.001Z</time></trkpt><trkpt lat="43.718214752899726" lon="10.955198763477703"><ele>29.0</ele><time>2026-04-26T13:01:52.001Z</time></trkpt><trkpt lat="43.718209343172525" lon="10.955093763739427"><ele>29.0</ele><time>2026-04-26T13:01:54.001Z</time></trkpt><trkpt lat="43.71821516289984" lon="10.954991378372176"><ele>29.0</ele><time>2026-04-26T13:01:57.001Z</time></trkpt><trkpt lat="43.71819968813494" lon="10.954845167326365"><ele>29.0</ele><time>2026-04-26T13:02:08.001Z</time></trkpt><trkpt lat="43.718203938931474" lon="10.954634149017723"><ele>29.0</ele><time>2026-04-26T13:02:10.001Z</time></trkpt><trkpt lat="43.7181933196103" lon="10.954485433965987"><ele>29.0</ele><time>2026-04-26T13:02:11.001Z</time></trkpt><trkpt lat="43.718185403978836" lon="10.954326405304315"><ele>29.0</ele><time>2026-04-26T13:02:12.001Z</time></trkpt><trkpt lat="43.71817406230636" lon="10.954155237329648"><ele>29.0</ele><time>2026-04-26T13:02:13.001Z</time></trkpt><trkpt lat="43.718161897616056" lon="10.953987112295087"><ele>28.5</ele><time>2026-04-26T13:02:14.001Z</time></trkpt><trkpt lat="43.718152642805826" lon="10.953825965021005"><ele>28.0</ele><time>2026-04-26T13:02:15.001Z</time></trkpt><trkpt lat="43.71813947300446" lon="10.95366382481515"><ele>27.5</ele><time>2026-04-26T13:02:16.001Z</time></trkpt><trkpt lat="43.71812975355013" lon="10.953502085036996"><ele>27.0</ele><time>2026-04-26T13:02:16.998Z</time></trkpt><trkpt lat="43.718120103446" lon="10.953343217873643"><ele>26.75</ele><time>2026-04-26T13:02:17.998Z</time></trkpt><trkpt lat="43.7181113917438" lon="10.953181016523379"><ele>26.5</ele><time>2026-04-26T13:02:18.998Z</time></trkpt><trkpt lat="43.718097855126864" lon="10.953014076513643"><ele>26.25</ele><time>2026-04-26T13:02:19.998Z</time></trkpt><trkpt lat="43.71808738918666" lon="10.952831047256801"><ele>26.0</ele><time>2026-04-26T13:02:20.998Z</time></trkpt><trkpt lat="43.718076542935925" lon="10.952639397955963"><ele>26.666666666666664</ele><time>2026-04-26T13:02:21.998Z</time></trkpt><trkpt lat="43.71806733159678" lon="10.952431109122006"><ele>27.333333333333336</ele><time>2026-04-26T13:02:22.998Z</time></trkpt><trkpt lat="43.71805409229329" lon="10.952195654423189"><ele>28.0</ele><time>2026-04-26T13:02:23.998Z</time></trkpt><trkpt lat="43.71803966837848" lon="10.951974101430228"><ele>28.0</ele><time>2026-04-26T13:02:24.998Z</time></trkpt><trkpt lat="43.71802785428395" lon="10.951764172065385"><ele>28.0</ele><time>2026-04-26T13:02:25.998Z</time></trkpt><trkpt lat="43.71801844772351" lon="10.951568080926894"><ele>28.0</ele><time>2026-04-26T13:02:26.998Z</time></trkpt><trkpt lat="43.71800753201307" lon="10.951376766632103"><ele>28.0</ele><time>2026-04-26T13:02:27.998Z</time></trkpt><trkpt lat="43.71799510147995" lon="10.951195748060357"><ele>28.2</ele><time>2026-04-26T13:02:28.998Z</time></trkpt><trkpt lat="43.71798032121457" lon="10.951024806091047"><ele>28.4</ele><time>2026-04-26T13:02:29.998Z</time></trkpt><trkpt lat="43.717971826853514" lon="10.950864056303635"><ele>28.599999999999998</ele><time>2026-04-26T13:02:30.998Z</time></trkpt><trkpt lat="43.7179670319481" lon="10.950728173379847"><ele>28.799999999999997</ele><time>2026-04-26T13:02:31.998Z</time></trkpt><trkpt lat="43.71796189963126" lon="10.9506206361994"><ele>29.0</ele><time>2026-04-26T13:02:32.998Z</time></trkpt><trkpt lat="43.71795609369509" lon="10.95049109794032"><ele>29.2</ele><time>2026-04-26T13:02:34.999Z</time></trkpt><trkpt lat="43.71794847887416" lon="10.950391715927449"><ele>29.4</ele><time>2026-04-26T13:02:38.999Z</time></trkpt><trkpt lat="43.71793882225148" lon="10.950258649338148"><ele>29.6</ele><time>2026-04-26T13:03:03Z</time></trkpt><trkpt lat="43.71793432788" lon="10.950101478719636"><ele>29.8</ele><time>2026-04-26T13:03:05Z</time></trkpt><trkpt lat="43.71792501936181" lon="10.949983419448436"><ele>30.0</ele><time>2026-04-26T13:03:06Z</time></trkpt><trkpt lat="43.71792006983554" lon="10.949852751073202"><ele>30.0</ele><time>2026-04-26T13:03:07Z</time></trkpt><trkpt lat="43.71791462950435" lon="10.949723508224002"><ele>30.0</ele><time>2026-04-26T13:03:08Z</time></trkpt><trkpt lat="43.717910176084736" lon="10.949580502938037"><ele>30.0</ele><time>2026-04-26T13:03:09Z</time></trkpt><trkpt lat="43.71790440141624" lon="10.949434242780008"><ele>30.0</ele><time>2026-04-26T13:03:10Z</time></trkpt><trkpt lat="43.71789791517292" lon="10.949291453804221"><ele>30.0</ele><time>2026-04-26T13:03:11Z</time></trkpt><trkpt lat="43.71788797498462" lon="10.949162546805002"><ele>30.0</ele><time>2026-04-26T13:03:12Z</time></trkpt><trkpt lat="43.71788067740168" lon="10.949040254237321"><ele>30.0</ele><time>2026-04-26T13:03:13Z</time></trkpt><trkpt lat="43.717871621613554" lon="10.948920789587975"><ele>30.0</ele><time>2026-04-26T13:03:14Z</time></trkpt><trkpt lat="43.71786284961627" lon="10.948777390479494"><ele>30.0</ele><time>2026-04-26T13:03:15Z</time></trkpt><trkpt lat="43.71785583000359" lon="10.94861364065697"><ele>30.0</ele><time>2026-04-26T13:03:16Z</time></trkpt><trkpt lat="43.717832376647664" lon="10.948466481742718"><ele>30.0</ele><time>2026-04-26T13:03:17Z</time></trkpt><trkpt lat="43.71782659195305" lon="10.948329497159005"><ele>30.0</ele><time>2026-04-26T13:03:18Z</time></trkpt><trkpt lat="43.71782411238421" lon="10.94820449267788"><ele>30.0</ele><time>2026-04-26T13:03:19Z</time></trkpt><trkpt lat="43.7178396722574" lon="10.948090603863395"><ele>30.0</ele><time>2026-04-26T13:03:20Z</time></trkpt><trkpt lat="43.71783871854386" lon="10.948003452371838"><ele>30.0</ele><time>2026-04-26T13:03:21Z</time></trkpt><trkpt lat="43.717719325203625" lon="10.94786041644368"><ele>30.0</ele><time>2026-04-26T13:03:24.001Z</time></trkpt><trkpt lat="43.71763735582614" lon="10.94784281543119"><ele>30.0</ele><time>2026-04-26T13:03:25.001Z</time></trkpt><trkpt lat="43.717552117959904" lon="10.947849992666175"><ele>30.0</ele><time>2026-04-26T13:03:26.001Z</time></trkpt><trkpt lat="43.71744849414253" lon="10.947846229524819"><ele>30.0</ele><time>2026-04-26T13:03:27.001Z</time></trkpt><trkpt lat="43.71732872676872" lon="10.94783576534032"><ele>30.0</ele><time>2026-04-26T13:03:28.001Z</time></trkpt><trkpt lat="43.71723241319998" lon="10.947818002160655"><ele>30.0</ele><time>2026-04-26T13:03:29.001Z</time></trkpt><trkpt lat="43.71716389307228" lon="10.947807865610544"><ele>30.0</ele><time>2026-04-26T13:03:30.001Z</time></trkpt><trkpt lat="43.71704962515377" lon="10.947782107220652"><ele>30.0</ele><time>2026-04-26T13:03:32.001Z</time></trkpt><trkpt lat="43.716967902430234" lon="10.947759293366937"><ele>30.0</ele><time>2026-04-26T13:03:34.001Z</time></trkpt><trkpt lat="43.716873559656655" lon="10.947730639585135"><ele>30.0</ele><time>2026-04-26T13:04:24.998Z</time></trkpt><trkpt lat="43.716801370870755" lon="10.947707371977922"><ele>30.0</ele><time>2026-04-26T13:04:25.998Z</time></trkpt><trkpt lat="43.716718214707825" lon="10.947680464629483"><ele>29.75</ele><time>2026-04-26T13:04:26.998Z</time></trkpt><trkpt lat="43.71660847757449" lon="10.947629665846534"><ele>29.5</ele><time>2026-04-26T13:04:27.998Z</time></trkpt><trkpt lat="43.716492575295156" lon="10.947576966203158"><ele>29.25</ele><time>2026-04-26T13:04:28.998Z</time></trkpt><trkpt lat="43.7163705994174" lon="10.947534034364724"><ele>29.0</ele><time>2026-04-26T13:04:29.998Z</time></trkpt><trkpt lat="43.71625819044081" lon="10.9475061319292"><ele>28.799999999999997</ele><time>2026-04-26T13:04:30.998Z</time></trkpt><trkpt lat="43.71614908700833" lon="10.947484942708659"><ele>28.599999999999998</ele><time>2026-04-26T13:04:31.998Z</time></trkpt><trkpt lat="43.716044142738035" lon="10.947471917098712"><ele>28.4</ele><time>2026-04-26T13:04:32.998Z</time></trkpt><trkpt lat="43.71594166135562" lon="10.947460012201125"><ele>28.2</ele><time>2026-04-26T13:04:33.999Z</time></trkpt><trkpt lat="43.71583683846653" lon="10.947458493785488"><ele>28.0</ele><time>2026-04-26T13:04:34.999Z</time></trkpt><trkpt lat="43.715717607457705" lon="10.947465517932311"><ele>27.75</ele><time>2026-04-26T13:04:35.999Z</time></trkpt><trkpt lat="43.7155984585988" lon="10.947482397108281"><ele>27.5</ele><time>2026-04-26T13:04:36.999Z</time></trkpt><trkpt lat="43.71547139455379" lon="10.947505829876972"><ele>27.25</ele><time>2026-04-26T13:04:37.999Z</time></trkpt><trkpt lat="43.71532606055071" lon="10.947528310558079"><ele>27.0</ele><time>2026-04-26T13:04:38.999Z</time></trkpt><trkpt lat="43.71517442633206" lon="10.947548767143562"><ele>27.5</ele><time>2026-04-26T13:04:39.999Z</time></trkpt><trkpt lat="43.71502480034706" lon="10.947572476707466"><ele>28.0</ele><time>2026-04-26T13:04:40.999Z</time></trkpt><trkpt lat="43.714888542218084" lon="10.947604295981384"><ele>28.5</ele><time>2026-04-26T13:04:41.999Z</time></trkpt><trkpt lat="43.71475719456598" lon="10.947638447655653"><ele>29.0</ele><time>2026-04-26T13:04:42.999Z</time></trkpt><trkpt lat="43.71463431274862" lon="10.947661524143365"><ele>29.0</ele><time>2026-04-26T13:04:43.999Z</time></trkpt><trkpt lat="43.714519883854564" lon="10.94767432429295"><ele>29.0</ele><time>2026-04-26T13:04:44.999Z</time></trkpt><trkpt lat="43.71441572487056" lon="10.947691836783415"><ele>29.0</ele><time>2026-04-26T13:04:45.999Z</time></trkpt><trkpt lat="43.7143246821007" lon="10.947708742236358"><ele>29.0</ele><time>2026-04-26T13:04:46.999Z</time></trkpt><trkpt lat="43.71424402406428" lon="10.947719811249664"><ele>29.0</ele><time>2026-04-26T13:04:47.999Z</time></trkpt><trkpt lat="43.71417031508925" lon="10.947725973191115"><ele>28.999999999999996</ele><time>2026-04-26T13:04:48.999Z</time></trkpt><trkpt lat="43.71410270429019" lon="10.947728941527851"><ele>29.0</ele><time>2026-04-26T13:04:49.999Z</time></trkpt><trkpt lat="43.71403959856086" lon="10.947735432920554"><ele>29.0</ele><time>2026-04-26T13:04:51Z</time></trkpt><trkpt lat="43.71393498565514" lon="10.947746419436864"><ele>29.0</ele><time>2026-04-26T13:04:53Z</time></trkpt><trkpt lat="43.7138553128636" lon="10.94774984780881"><ele>28.999999999999996</ele><time>2026-04-26T13:04:55Z</time></trkpt><trkpt lat="43.71376581930018" lon="10.947759762135707"><ele>29.0</ele><time>2026-04-26T13:05:13Z</time></trkpt><trkpt lat="43.71364376144448" lon="10.94778188709976"><ele>29.0</ele><time>2026-04-26T13:05:15Z</time></trkpt><trkpt lat="43.71357232243228" lon="10.947794135836562"><ele>29.0</ele><time>2026-04-26T13:05:16.001Z</time></trkpt><trkpt lat="43.71348375864908" lon="10.947801168111896"><ele>29.0</ele><time>2026-04-26T13:05:17.001Z</time></trkpt><trkpt lat="43.713390458771954" lon="10.947811338327044"><ele>29.0</ele><time>2026-04-26T13:05:18.001Z</time></trkpt><trkpt lat="43.71328824256168" lon="10.947821771790675"><ele>29.0</ele><time>2026-04-26T13:05:19.001Z</time></trkpt><trkpt lat="43.71319243153332" lon="10.947831928587055"><ele>28.75</ele><time>2026-04-26T13:05:20.001Z</time></trkpt><trkpt lat="43.713087092390055" lon="10.947846620736014"><ele>28.5</ele><time>2026-04-26T13:05:21.001Z</time></trkpt><trkpt lat="43.712973512153525" lon="10.94786034468352"><ele>28.25</ele><time>2026-04-26T13:05:22.001Z</time></trkpt><trkpt lat="43.71284294404222" lon="10.94787860136579"><ele>28.0</ele><time>2026-04-26T13:05:23.001Z</time></trkpt><trkpt lat="43.71269936570227" lon="10.947898508214466"><ele>28.0</ele><time>2026-04-26T13:05:24.001Z</time></trkpt><trkpt lat="43.71255562805803" lon="10.947916804027258"><ele>28.0</ele><time>2026-04-26T13:05:25.001Z</time></trkpt><trkpt lat="43.71241832431673" lon="10.947932297048597"><ele>28.0</ele><time>2026-04-26T13:05:26.001Z</time></trkpt><trkpt lat="43.71228327922812" lon="10.947945869525427"><ele>28.0</ele><time>2026-04-26T13:05:27.001Z</time></trkpt><trkpt lat="43.71214742801422" lon="10.94795788846597"><ele>28.0</ele><time>2026-04-26T13:05:28.001Z</time></trkpt><trkpt lat="43.71201492525957" lon="10.947969802166627"><ele>28.0</ele><time>2026-04-26T13:05:29.001Z</time></trkpt><trkpt lat="43.71188350052636" lon="10.947981504661009"><ele>28.0</ele><time>2026-04-26T13:05:30.001Z</time></trkpt><trkpt lat="43.711743578062936" lon="10.947992226169545"><ele>28.0</ele><time>2026-04-26T13:05:31.001Z</time></trkpt><trkpt lat="43.71160050791362" lon="10.948004490930128"><ele>28.25</ele><time>2026-04-26T13:05:32.001Z</time></trkpt><trkpt lat="43.711466455051664" lon="10.94801023864992"><ele>28.5</ele><time>2026-04-26T13:05:33.001Z</time></trkpt><trkpt lat="43.7113362054391" lon="10.948006364586844"><ele>28.75</ele><time>2026-04-26T13:05:34.001Z</time></trkpt><trkpt lat="43.711190646151024" lon="10.948002407652986"><ele>29.0</ele><time>2026-04-26T13:05:35.001Z</time></trkpt><trkpt lat="43.71104190743037" lon="10.948002839402301"><ele>28.333333333333332</ele><time>2026-04-26T13:05:36.001Z</time></trkpt><trkpt lat="43.7108755402477" lon="10.94800277553764"><ele>27.666666666666664</ele><time>2026-04-26T13:05:37.001Z</time></trkpt><trkpt lat="43.710720044450355" lon="10.94799597047178"><ele>27.0</ele><time>2026-04-26T13:05:38.001Z</time></trkpt><trkpt lat="43.71057363927203" lon="10.947975800911083"><ele>27.0</ele><time>2026-04-26T13:05:39.001Z</time></trkpt><trkpt lat="43.71043904328028" lon="10.947937738058345"><ele>27.0</ele><time>2026-04-26T13:05:40.001Z</time></trkpt><trkpt lat="43.71031556800732" lon="10.947897839340818"><ele>27.0</ele><time>2026-04-26T13:05:41.001Z</time></trkpt><trkpt lat="43.71020647603758" lon="10.947846475889204"><ele>27.0</ele><time>2026-04-26T13:05:42.001Z</time></trkpt><trkpt lat="43.710110695231755" lon="10.947785576594333"><ele>27.0</ele><time>2026-04-26T13:05:43.001Z</time></trkpt><trkpt lat="43.710028871888994" lon="10.947713585058544"><ele>27.0</ele><time>2026-04-26T13:05:44.001Z</time></trkpt><trkpt lat="43.70997328534602" lon="10.947600945794148"><ele>27.0</ele><time>2026-04-26T13:05:45.001Z</time></trkpt><trkpt lat="43.70991480662962" lon="10.947537483762472"><ele>27.0</ele><time>2026-04-26T13:05:46.001Z</time></trkpt><trkpt lat="43.70982573288914" lon="10.947539949813093"><ele>27.0</ele><time>2026-04-26T13:05:47.001Z</time></trkpt><trkpt lat="43.70975037102185" lon="10.947566313511341"><ele>27.0</ele><time>2026-04-26T13:05:48.002Z</time></trkpt><trkpt lat="43.70969261897676" lon="10.94766790753258"><ele>27.0</ele><time>2026-04-26T13:05:49.002Z</time></trkpt><trkpt lat="43.70964560402013" lon="10.947764731666004"><ele>27.0</ele><time>2026-04-26T13:05:50.002Z</time></trkpt><trkpt lat="43.70960433824867" lon="10.947888814729252"><ele>27.0</ele><time>2026-04-26T13:05:51.002Z</time></trkpt><trkpt lat="43.709558134703414" lon="10.94800078006066"><ele>27.0</ele><time>2026-04-26T13:05:52.002Z</time></trkpt><trkpt lat="43.7094931263406" lon="10.9480667227297"><ele>27.0</ele><time>2026-04-26T13:05:53.002Z</time></trkpt><trkpt lat="43.70942848749547" lon="10.94814742928683"><ele>27.0</ele><time>2026-04-26T13:05:54.002Z</time></trkpt><trkpt lat="43.70930122942613" lon="10.948110775953214"><ele>27.0</ele><time>2026-04-26T13:05:55.002Z</time></trkpt><trkpt lat="43.709162594574366" lon="10.948179514547734"><ele>27.0</ele><time>2026-04-26T13:05:56.002Z</time></trkpt><trkpt lat="43.709001729180976" lon="10.94818832888578"><ele>27.0</ele><time>2026-04-26T13:05:57.002Z</time></trkpt><trkpt lat="43.70880490057562" lon="10.948202485144053"><ele>27.0</ele><time>2026-04-26T13:05:58.002Z</time></trkpt><trkpt lat="43.708588919514895" lon="10.948224981737225"><ele>27.0</ele><time>2026-04-26T13:05:59.002Z</time></trkpt><trkpt lat="43.708371235964776" lon="10.948252106092388"><ele>27.0</ele><time>2026-04-26T13:06:00.002Z</time></trkpt><trkpt lat="43.70815487950892" lon="10.948284637420269"><ele>27.0</ele><time>2026-04-26T13:06:01.002Z</time></trkpt><trkpt lat="43.70793792129029" lon="10.948320942652206"><ele>27.0</ele><time>2026-04-26T13:06:02.002Z</time></trkpt><trkpt lat="43.70772946853508" lon="10.948354664574651"><ele>27.0</ele><time>2026-04-26T13:06:03.002Z</time></trkpt><trkpt lat="43.70751466164485" lon="10.948386604785464"><ele>26.666666666666664</ele><time>2026-04-26T13:06:04.002Z</time></trkpt><trkpt lat="43.70730216016171" lon="10.948432485005068"><ele>26.333333333333332</ele><time>2026-04-26T13:06:05.002Z</time></trkpt><trkpt lat="43.7070976037646" lon="10.94848526343873"><ele>26.0</ele><time>2026-04-26T13:06:06.002Z</time></trkpt><trkpt lat="43.7068959021481" lon="10.948546850687352"><ele>25.666666666666664</ele><time>2026-04-26T13:06:07.002Z</time></trkpt><trkpt lat="43.70669252338866" lon="10.948619558189282"><ele>25.333333333333336</ele><time>2026-04-26T13:06:08.002Z</time></trkpt><trkpt lat="43.70649081769551" lon="10.948709137252694"><ele>25.0</ele><time>2026-04-26T13:06:09.002Z</time></trkpt><trkpt lat="43.70630023989929" lon="10.948800144791553"><ele>25.0</ele><time>2026-04-26T13:06:10.002Z</time></trkpt><trkpt lat="43.70611700173073" lon="10.948891730096694"><ele>25.0</ele><time>2026-04-26T13:06:11.002Z</time></trkpt><trkpt lat="43.7059362346569" lon="10.94898601129995"><ele>25.0</ele><time>2026-04-26T13:06:12.002Z</time></trkpt><trkpt lat="43.70574850121623" lon="10.949112358387136"><ele>25.5</ele><time>2026-04-26T13:06:13.002Z</time></trkpt><trkpt lat="43.705549414201315" lon="10.949264235167469"><ele>26.0</ele><time>2026-04-26T13:06:14.002Z</time></trkpt><trkpt lat="43.70534161930933" lon="10.949442192088798"><ele>26.666666666666664</ele><time>2026-04-26T13:06:15.002Z</time></trkpt><trkpt lat="43.70515968318994" lon="10.9496108174396"><ele>27.333333333333336</ele><time>2026-04-26T13:06:16.002Z</time></trkpt><trkpt lat="43.70499991290665" lon="10.94977344470062"><ele>28.0</ele><time>2026-04-26T13:06:17.002Z</time></trkpt><trkpt lat="43.704854153431164" lon="10.94992909944652"><ele>28.0</ele><time>2026-04-26T13:06:18.002Z</time></trkpt><trkpt lat="43.704721904217756" lon="10.950066447242449"><ele>28.0</ele><time>2026-04-26T13:06:19.002Z</time></trkpt><trkpt lat="43.70461474511013" lon="10.95016850677267"><ele>28.0</ele><time>2026-04-26T13:06:20.002Z</time></trkpt><trkpt lat="43.704538950837765" lon="10.950223159496874"><ele>28.0</ele><time>2026-04-26T13:06:21.003Z</time></trkpt><trkpt lat="43.70441392280897" lon="10.950219041396219"><ele>28.0</ele><time>2026-04-26T13:06:23.003Z</time></trkpt><trkpt lat="43.70433824856917" lon="10.950186859229834"><ele>27.999999999999996</ele><time>2026-04-26T13:06:24.003Z</time></trkpt><trkpt lat="43.70427046279919" lon="10.950183330335742"><ele>27.999999999999996</ele><time>2026-04-26T13:06:25.003Z</time></trkpt><trkpt lat="43.70421549322126" lon="10.950228622500186"><ele>28.0</ele><time>2026-04-26T13:06:26.003Z</time></trkpt><trkpt lat="43.70417038644715" lon="10.95042149515464"><ele>28.0</ele><time>2026-04-26T13:06:28.003Z</time></trkpt><trkpt lat="43.70419538657416" lon="10.950553977436098"><ele>28.0</ele><time>2026-04-26T13:06:28.999Z</time></trkpt><trkpt lat="43.70417371438342" lon="10.950725449377455"><ele>28.0</ele><time>2026-04-26T13:06:29.999Z</time></trkpt><trkpt lat="43.70415822561716" lon="10.95087640850131"><ele>28.0</ele><time>2026-04-26T13:06:30.999Z</time></trkpt><trkpt lat="43.70407756615086" lon="10.951018434701192"><ele>28.0</ele><time>2026-04-26T13:06:31.999Z</time></trkpt><trkpt lat="43.70398979014621" lon="10.95117363292294"><ele>28.333333333333336</ele><time>2026-04-26T13:06:32.999Z</time></trkpt><trkpt lat="43.703878283675415" lon="10.951351263290437"><ele>28.666666666666664</ele><time>2026-04-26T13:06:33.999Z</time></trkpt><trkpt lat="43.703766464075166" lon="10.951534751293838"><ele>29.0</ele><time>2026-04-26T13:06:34.999Z</time></trkpt><trkpt lat="43.70364462720053" lon="10.951734407849662"><ele>28.0</ele><time>2026-04-26T13:06:35.999Z</time></trkpt><trkpt lat="43.70352313215167" lon="10.951936009335382"><ele>27.0</ele><time>2026-04-26T13:06:36.999Z</time></trkpt><trkpt lat="43.70339805312541" lon="10.952144066722576"><ele>26.0</ele><time>2026-04-26T13:06:37.999Z</time></trkpt><trkpt lat="43.70326952721371" lon="10.952359338643044"><ele>26.666666666666664</ele><time>2026-04-26T13:06:38.999Z</time></trkpt><trkpt lat="43.703140075702386" lon="10.952586563799935"><ele>27.333333333333336</ele><time>2026-04-26T13:06:39.999Z</time></trkpt><trkpt lat="43.702999083680446" lon="10.952835152116174"><ele>28.0</ele><time>2026-04-26T13:06:40.999Z</time></trkpt><trkpt lat="43.702845782736205" lon="10.953100296894515"><ele>27.5</ele><time>2026-04-26T13:06:41.999Z</time></trkpt><trkpt lat="43.70268209309068" lon="10.953376283167383"><ele>27.0</ele><time>2026-04-26T13:06:42.999Z</time></trkpt><trkpt lat="43.702506351387854" lon="10.953663862399175"><ele>27.0</ele><time>2026-04-26T13:06:43.999Z</time></trkpt><trkpt lat="43.702316213551086" lon="10.953972948636812"><ele>27.0</ele><time>2026-04-26T13:06:44.999Z</time></trkpt><trkpt lat="43.702122937795494" lon="10.954288763533274"><ele>28.0</ele><time>2026-04-26T13:06:46Z</time></trkpt><trkpt lat="43.701945798549424" lon="10.954586950941637"><ele>29.0</ele><time>2026-04-26T13:06:47Z</time></trkpt><trkpt lat="43.70177459292688" lon="10.95487395120364"><ele>29.5</ele><time>2026-04-26T13:06:48Z</time></trkpt><trkpt lat="43.70161593434801" lon="10.955140561342384"><ele>30.0</ele><time>2026-04-26T13:06:49Z</time></trkpt><trkpt lat="43.70146625276474" lon="10.955399959100998"><ele>30.0</ele><time>2026-04-26T13:06:50Z</time></trkpt><trkpt lat="43.70132731815712" lon="10.955643078823401"><ele>30.0</ele><time>2026-04-26T13:06:51Z</time></trkpt><trkpt lat="43.701190883959285" lon="10.9558782239169"><ele>30.0</ele><time>2026-04-26T13:06:52Z</time></trkpt><trkpt lat="43.70105425014824" lon="10.956105525318167"><ele>31.0</ele><time>2026-04-26T13:06:53Z</time></trkpt><trkpt lat="43.70092033894033" lon="10.956315020956945"><ele>32.0</ele><time>2026-04-26T13:06:54Z</time></trkpt><trkpt lat="43.7007886421584" lon="10.956506004617351"><ele>33.0</ele><time>2026-04-26T13:06:55Z</time></trkpt><trkpt lat="43.70065894086575" lon="10.956680206395955"><ele>33.333333333333336</ele><time>2026-04-26T13:06:56Z</time></trkpt><trkpt lat="43.70052564099461" lon="10.956831349773777"><ele>33.66666666666667</ele><time>2026-04-26T13:06:57Z</time></trkpt><trkpt lat="43.70037358550532" lon="10.95696510395049"><ele>34.0</ele><time>2026-04-26T13:06:58Z</time></trkpt><trkpt lat="43.70020827475311" lon="10.957081185957232"><ele>34.333333333333336</ele><time>2026-04-26T13:06:59Z</time></trkpt><trkpt lat="43.70004255816965" lon="10.957187632246107"><ele>34.666666666666664</ele><time>2026-04-26T13:07:00Z</time></trkpt><trkpt lat="43.69988035729432" lon="10.957270968914909"><ele>35.0</ele><time>2026-04-26T13:07:01Z</time></trkpt><trkpt lat="43.69971760572495" lon="10.957339228450131"><ele>35.0</ele><time>2026-04-26T13:07:02Z</time></trkpt><trkpt lat="43.69954795607896" lon="10.957388056778772"><ele>35.0</ele><time>2026-04-26T13:07:03Z</time></trkpt><trkpt lat="43.69936932014947" lon="10.957428157589787"><ele>35.0</ele><time>2026-04-26T13:07:04Z</time></trkpt><trkpt lat="43.69919166165651" lon="10.957466969022265"><ele>34.666666666666664</ele><time>2026-04-26T13:07:05.001Z</time></trkpt><trkpt lat="43.69901276077556" lon="10.957508533895673"><ele>34.333333333333336</ele><time>2026-04-26T13:07:06.001Z</time></trkpt><trkpt lat="43.69883704102218" lon="10.957554691482517"><ele>34.0</ele><time>2026-04-26T13:07:07.001Z</time></trkpt><trkpt lat="43.69865943228124" lon="10.957603248007008"><ele>34.0</ele><time>2026-04-26T13:07:08.001Z</time></trkpt><trkpt lat="43.69848283820526" lon="10.95765170390623"><ele>34.0</ele><time>2026-04-26T13:07:09.001Z</time></trkpt><trkpt lat="43.698305169445526" lon="10.957698709609746"><ele>34.0</ele><time>2026-04-26T13:07:10.001Z</time></trkpt><trkpt lat="43.69811936618944" lon="10.957742046172283"><ele>34.0</ele><time>2026-04-26T13:07:11.001Z</time></trkpt><trkpt lat="43.697923674037774" lon="10.957789103250104"><ele>34.0</ele><time>2026-04-26T13:07:12.001Z</time></trkpt><trkpt lat="43.697723814880476" lon="10.957836811132935"><ele>34.0</ele><time>2026-04-26T13:07:13.001Z</time></trkpt><trkpt lat="43.69752599950697" lon="10.957884994275926"><ele>33.66666666666667</ele><time>2026-04-26T13:07:14.001Z</time></trkpt><trkpt lat="43.69732864413045" lon="10.957931240954869"><ele>33.333333333333336</ele><time>2026-04-26T13:07:15.001Z</time></trkpt><trkpt lat="43.69713589456305" lon="10.957978016253"><ele>33.0</ele><time>2026-04-26T13:07:16.001Z</time></trkpt><trkpt lat="43.696953116500644" lon="10.958022230006906"><ele>33.333333333333336</ele><time>2026-04-26T13:07:17.001Z</time></trkpt><trkpt lat="43.69677750615897" lon="10.958065849647575"><ele>33.66666666666667</ele><time>2026-04-26T13:07:18.001Z</time></trkpt><trkpt lat="43.69660505877055" lon="10.958117475659844"><ele>34.0</ele><time>2026-04-26T13:07:19.001Z</time></trkpt><trkpt lat="43.696432132887345" lon="10.958182107343966"><ele>34.0</ele><time>2026-04-26T13:07:20.001Z</time></trkpt><trkpt lat="43.69626854704881" lon="10.958266302037812"><ele>34.0</ele><time>2026-04-26T13:07:21.001Z</time></trkpt><trkpt lat="43.69610532403483" lon="10.958364387713752"><ele>34.0</ele><time>2026-04-26T13:07:22.001Z</time></trkpt><trkpt lat="43.69593786671825" lon="10.958474058330289"><ele>34.333333333333336</ele><time>2026-04-26T13:07:23.001Z</time></trkpt><trkpt lat="43.69576837926596" lon="10.958592138871328"><ele>34.666666666666664</ele><time>2026-04-26T13:07:24.001Z</time></trkpt><trkpt lat="43.69559762753879" lon="10.958713100805685"><ele>35.0</ele><time>2026-04-26T13:07:25.001Z</time></trkpt><trkpt lat="43.69542530002223" lon="10.958836289710712"><ele>35.33333333333333</ele><time>2026-04-26T13:07:26.001Z</time></trkpt><trkpt lat="43.69524815190278" lon="10.958961861386632"><ele>35.666666666666664</ele><time>2026-04-26T13:07:27.001Z</time></trkpt><trkpt lat="43.69506429205077" lon="10.959089277496638"><ele>36.0</ele><time>2026-04-26T13:07:28.001Z</time></trkpt><trkpt lat="43.6948868070314" lon="10.959203816078823"><ele>36.0</ele><time>2026-04-26T13:07:29.001Z</time></trkpt><trkpt lat="43.69471947909686" lon="10.959321309971873"><ele>36.0</ele><time>2026-04-26T13:07:30.001Z</time></trkpt><trkpt lat="43.694555869668235" lon="10.9594316207288"><ele>36.0</ele><time>2026-04-26T13:07:31.001Z</time></trkpt><trkpt lat="43.694396502180325" lon="10.959537535136683"><ele>36.333333333333336</ele><time>2026-04-26T13:07:32.001Z</time></trkpt><trkpt lat="43.694244390102135" lon="10.959643428257907"><ele>36.66666666666667</ele><time>2026-04-26T13:07:33.001Z</time></trkpt><trkpt lat="43.694094566651" lon="10.959746375828963"><ele>37.0</ele><time>2026-04-26T13:07:34.002Z</time></trkpt><trkpt lat="43.693949363603465" lon="10.95984876268058"><ele>37.0</ele><time>2026-04-26T13:07:35.002Z</time></trkpt><trkpt lat="43.69380927306424" lon="10.959948747716444"><ele>37.0</ele><time>2026-04-26T13:07:36.002Z</time></trkpt><trkpt lat="43.69367324918518" lon="10.960046438662339"><ele>37.0</ele><time>2026-04-26T13:07:37.002Z</time></trkpt><trkpt lat="43.69354111588108" lon="10.960137785501473"><ele>37.25</ele><time>2026-04-26T13:07:38.002Z</time></trkpt><trkpt lat="43.69341227046262" lon="10.960223550555773"><ele>37.5</ele><time>2026-04-26T13:07:39.002Z</time></trkpt><trkpt lat="43.69327832876299" lon="10.960312792836437"><ele>37.75</ele><time>2026-04-26T13:07:40.002Z</time></trkpt><trkpt lat="43.693148203070365" lon="10.960401262575864"><ele>38.0</ele><time>2026-04-26T13:07:41.002Z</time></trkpt><trkpt lat="43.693012680660196" lon="10.960489710499678"><ele>38.0</ele><time>2026-04-26T13:07:42.002Z</time></trkpt><trkpt lat="43.692887175002575" lon="10.960576425901106"><ele>38.0</ele><time>2026-04-26T13:07:43.002Z</time></trkpt><trkpt lat="43.69276746580521" lon="10.960662316731641"><ele>38.0</ele><time>2026-04-26T13:07:44.002Z</time></trkpt><trkpt lat="43.69265061020392" lon="10.960745300002932"><ele>38.0</ele><time>2026-04-26T13:07:45.002Z</time></trkpt><trkpt lat="43.69253564807298" lon="10.960820526452489"><ele>38.0</ele><time>2026-04-26T13:07:46.002Z</time></trkpt><trkpt lat="43.69242532005698" lon="10.960890561729984"><ele>38.0</ele><time>2026-04-26T13:07:47.002Z</time></trkpt><trkpt lat="43.692323841992845" lon="10.960956427345801"><ele>38.0</ele><time>2026-04-26T13:07:48.002Z</time></trkpt><trkpt lat="43.69222693802734" lon="10.961018876537393"><ele>38.0</ele><time>2026-04-26T13:07:49.002Z</time></trkpt><trkpt lat="43.692136444313306" lon="10.961070680802626"><ele>38.0</ele><time>2026-04-26T13:07:50.002Z</time></trkpt><trkpt lat="43.69206803401748" lon="10.961097253558314"><ele>38.0</ele><time>2026-04-26T13:07:51.002Z</time></trkpt><trkpt lat="43.69197482761803" lon="10.961094637735103"><ele>38.0</ele><time>2026-04-26T13:07:53.002Z</time></trkpt><trkpt lat="43.691892967426746" lon="10.961052368481496"><ele>38.0</ele><time>2026-04-26T13:07:55.002Z</time></trkpt><trkpt lat="43.69182538771849" lon="10.961016433064946"><ele>38.0</ele><time>2026-04-26T13:07:57.002Z</time></trkpt><trkpt lat="43.69179097756715" lon="10.960916675031015"><ele>38.0</ele><time>2026-04-26T13:07:59.002Z</time></trkpt><trkpt lat="43.69173307405358" lon="10.961036406545624"><ele>38.0</ele><time>2026-04-26T13:08:01.002Z</time></trkpt><trkpt lat="43.69157306475859" lon="10.96119777392001"><ele>38.166666666666664</ele><time>2026-04-26T13:20:41.002Z</time></trkpt><trkpt lat="43.69156729113677" lon="10.961292466645741"><ele>38.33333333333333</ele><time>2026-04-26T13:20:42.002Z</time></trkpt><trkpt lat="43.691516465353104" lon="10.961428440792838"><ele>38.5</ele><time>2026-04-26T13:20:44.002Z</time></trkpt><trkpt lat="43.69147210022631" lon="10.961491863241875"><ele>38.666666666666664</ele><time>2026-04-26T13:20:45.002Z</time></trkpt><trkpt lat="43.691402078018605" lon="10.96156135548599"><ele>38.833333333333336</ele><time>2026-04-26T13:20:46.002Z</time></trkpt><trkpt lat="43.69130474738568" lon="10.961632659564712"><ele>39.0</ele><time>2026-04-26T13:20:47.002Z</time></trkpt><trkpt lat="43.69117149832124" lon="10.961719372776209"><ele>38.0</ele><time>2026-04-26T13:20:48.002Z</time></trkpt><trkpt lat="43.69103893767309" lon="10.961810239020354"><ele>37.0</ele><time>2026-04-26T13:20:49.002Z</time></trkpt><trkpt lat="43.69088909088527" lon="10.961915686693189"><ele>36.0</ele><time>2026-04-26T13:20:50.002Z</time></trkpt><trkpt lat="43.690741734945284" lon="10.962022088744131"><ele>36.0</ele><time>2026-04-26T13:20:51.002Z</time></trkpt><trkpt lat="43.690607914120456" lon="10.962116295470278"><ele>36.0</ele><time>2026-04-26T13:20:52.002Z</time></trkpt><trkpt lat="43.69045922753866" lon="10.9622183806802"><ele>36.0</ele><time>2026-04-26T13:20:53.002Z</time></trkpt><trkpt lat="43.690295593758314" lon="10.962329672567119"><ele>36.666666666666664</ele><time>2026-04-26T13:20:54.002Z</time></trkpt><trkpt lat="43.690129719222746" lon="10.962447058653728"><ele>37.33333333333333</ele><time>2026-04-26T13:20:55.002Z</time></trkpt><trkpt lat="43.68995339388163" lon="10.962573162429763"><ele>38.0</ele><time>2026-04-26T13:20:56.002Z</time></trkpt><trkpt lat="43.68976861764217" lon="10.962696626490834"><ele>38.33333333333333</ele><time>2026-04-26T13:20:57.002Z</time></trkpt><trkpt lat="43.68958234756008" lon="10.96282768940402"><ele>38.666666666666664</ele><time>2026-04-26T13:20:58.002Z</time></trkpt><trkpt lat="43.68940966847797" lon="10.962944584354078"><ele>39.0</ele><time>2026-04-26T13:20:59.002Z</time></trkpt><trkpt lat="43.68924952981031" lon="10.9630506826698"><ele>40.333333333333336</ele><time>2026-04-26T13:21:00.002Z</time></trkpt><trkpt lat="43.689100772006356" lon="10.96315981531988"><ele>41.66666666666667</ele><time>2026-04-26T13:21:01.002Z</time></trkpt><trkpt lat="43.68896541768752" lon="10.963297945580926"><ele>43.0</ele><time>2026-04-26T13:21:02.002Z</time></trkpt><trkpt lat="43.688840889795756" lon="10.963457758017018"><ele>43.333333333333336</ele><time>2026-04-26T13:21:03.002Z</time></trkpt><trkpt lat="43.688723223179785" lon="10.96364310145723"><ele>43.666666666666664</ele><time>2026-04-26T13:21:04.002Z</time></trkpt><trkpt lat="43.68861974585023" lon="10.963845937925132"><ele>44.0</ele><time>2026-04-26T13:21:05.002Z</time></trkpt><trkpt lat="43.68852816668834" lon="10.964066262098502"><ele>44.0</ele><time>2026-04-26T13:21:06.002Z</time></trkpt><trkpt lat="43.688441517025794" lon="10.964327366278892"><ele>44.0</ele><time>2026-04-26T13:21:07.002Z</time></trkpt><trkpt lat="43.6883550027339" lon="10.964622497931243"><ele>44.0</ele><time>2026-04-26T13:21:08.002Z</time></trkpt><trkpt lat="43.68826641406748" lon="10.9649341523039"><ele>45.666666666666664</ele><time>2026-04-26T13:21:09.002Z</time></trkpt><trkpt lat="43.68817743003465" lon="10.96522540719891"><ele>47.33333333333333</ele><time>2026-04-26T13:21:10.002Z</time></trkpt><trkpt lat="43.688093845109066" lon="10.965492100765495"><ele>49.0</ele><time>2026-04-26T13:21:11Z</time></trkpt><trkpt lat="43.68801479673777" lon="10.96573904418587"><ele>50.666666666666664</ele><time>2026-04-26T13:21:12Z</time></trkpt><trkpt lat="43.68793935941137" lon="10.965992951916448"><ele>52.33333333333333</ele><time>2026-04-26T13:21:13Z</time></trkpt><trkpt lat="43.68786534102109" lon="10.966240018744822"><ele>54.0</ele><time>2026-04-26T13:21:14Z</time></trkpt><trkpt lat="43.68778793240666" lon="10.966497597096925"><ele>50.333333333333336</ele><time>2026-04-26T13:21:15Z</time></trkpt><trkpt lat="43.68772027783675" lon="10.966751142413845"><ele>46.66666666666667</ele><time>2026-04-26T13:21:16Z</time></trkpt><trkpt lat="43.687660994111226" lon="10.967007356942283"><ele>43.0</ele><time>2026-04-26T13:21:17Z</time></trkpt><trkpt lat="43.68761510286055" lon="10.967269682230139"><ele>44.0</ele><time>2026-04-26T13:21:18Z</time></trkpt><trkpt lat="43.68757234227002" lon="10.967528042475275"><ele>45.0</ele><time>2026-04-26T13:21:19Z</time></trkpt><trkpt lat="43.68752599784628" lon="10.967785748351139"><ele>46.0</ele><time>2026-04-26T13:21:20Z</time></trkpt><trkpt lat="43.687475360572016" lon="10.968051987211766"><ele>46.0</ele><time>2026-04-26T13:21:21Z</time></trkpt><trkpt lat="43.68741788398989" lon="10.968330876922867"><ele>46.0</ele><time>2026-04-26T13:21:22Z</time></trkpt><trkpt lat="43.68735439515769" lon="10.96859590717861"><ele>46.0</ele><time>2026-04-26T13:21:23Z</time></trkpt><trkpt lat="43.687284288831435" lon="10.96884492518157"><ele>47.0</ele><time>2026-04-26T13:21:24Z</time></trkpt><trkpt lat="43.687194866083594" lon="10.969095364657408"><ele>48.0</ele><time>2026-04-26T13:21:25Z</time></trkpt><trkpt lat="43.6870914758689" lon="10.969340997241938"><ele>49.0</ele><time>2026-04-26T13:21:26Z</time></trkpt><trkpt lat="43.686983697208184" lon="10.969586145573237"><ele>47.5</ele><time>2026-04-26T13:21:27Z</time></trkpt><trkpt lat="43.686871176024724" lon="10.969855691761957"><ele>46.0</ele><time>2026-04-26T13:21:28Z</time></trkpt><trkpt lat="43.68675635444125" lon="10.970138974416857"><ele>46.0</ele><time>2026-04-26T13:21:29Z</time></trkpt><trkpt lat="43.6866430496121" lon="10.970412316416787"><ele>46.0</ele><time>2026-04-26T13:21:30Z</time></trkpt><trkpt lat="43.68653212253391" lon="10.970681333164862"><ele>46.0</ele><time>2026-04-26T13:21:31Z</time></trkpt><trkpt lat="43.68642375820704" lon="10.970936303395156"><ele>46.0</ele><time>2026-04-26T13:21:32Z</time></trkpt><trkpt lat="43.686311045612264" lon="10.971196310483517"><ele>46.0</ele><time>2026-04-26T13:21:33Z</time></trkpt><trkpt lat="43.68619939166567" lon="10.971458174091511"><ele>46.66666666666667</ele><time>2026-04-26T13:21:34Z</time></trkpt><trkpt lat="43.686086568406125" lon="10.971718551928856"><ele>47.333333333333336</ele><time>2026-04-26T13:21:35Z</time></trkpt><trkpt lat="43.68597745796867" lon="10.971956142531091"><ele>48.0</ele><time>2026-04-26T13:21:36Z</time></trkpt><trkpt lat="43.685860397987746" lon="10.972173115462216"><ele>48.0</ele><time>2026-04-26T13:21:37Z</time></trkpt><trkpt lat="43.68572705940466" lon="10.972386397495063"><ele>48.0</ele><time>2026-04-26T13:21:38Z</time></trkpt><trkpt lat="43.68558132842627" lon="10.97258735601122"><ele>48.0</ele><time>2026-04-26T13:21:39Z</time></trkpt><trkpt lat="43.68544167991172" lon="10.972783828651993"><ele>48.0</ele><time>2026-04-26T13:21:40Z</time></trkpt><trkpt lat="43.685308020803376" lon="10.972987701870526"><ele>48.0</ele><time>2026-04-26T13:21:41Z</time></trkpt><trkpt lat="43.68517439323379" lon="10.973193485402676"><ele>48.0</ele><time>2026-04-26T13:21:42Z</time></trkpt><trkpt lat="43.685038550137165" lon="10.97339840512203"><ele>49.33333333333333</ele><time>2026-04-26T13:21:43Z</time></trkpt><trkpt lat="43.68489849963964" lon="10.973613077975942"><ele>50.666666666666664</ele><time>2026-04-26T13:21:44Z</time></trkpt><trkpt lat="43.684750706352055" lon="10.973838908791553"><ele>52.0</ele><time>2026-04-26T13:21:45Z</time></trkpt><trkpt lat="43.68459807136348" lon="10.974063852481477"><ele>53.0</ele><time>2026-04-26T13:21:46Z</time></trkpt><trkpt lat="43.68444074030706" lon="10.974294130408444"><ele>54.0</ele><time>2026-04-26T13:21:47.001Z</time></trkpt><trkpt lat="43.68428792575129" lon="10.974515403665876"><ele>55.0</ele><time>2026-04-26T13:21:48.001Z</time></trkpt><trkpt lat="43.68413810715789" lon="10.974734045574493"><ele>56.0</ele><time>2026-04-26T13:21:49.001Z</time></trkpt><trkpt lat="43.68399794049417" lon="10.974951735458554"><ele>57.0</ele><time>2026-04-26T13:21:50.001Z</time></trkpt><trkpt lat="43.68386067604692" lon="10.975153921611655"><ele>57.0</ele><time>2026-04-26T13:21:51.001Z</time></trkpt><trkpt lat="43.68372388601279" lon="10.97536118596784"><ele>57.0</ele><time>2026-04-26T13:21:52.001Z</time></trkpt><trkpt lat="43.68358392872832" lon="10.97557015014863"><ele>57.0</ele><time>2026-04-26T13:21:53.001Z</time></trkpt><trkpt lat="43.68345023532077" lon="10.975774331530541"><ele>57.0</ele><time>2026-04-26T13:21:54.001Z</time></trkpt><trkpt lat="43.683312568817946" lon="10.975981320648893"><ele>57.0</ele><time>2026-04-26T13:21:55.001Z</time></trkpt><trkpt lat="43.68317496979242" lon="10.976189704303135"><ele>57.0</ele><time>2026-04-26T13:21:56.001Z</time></trkpt><trkpt lat="43.68303983249571" lon="10.976401097018758"><ele>57.0</ele><time>2026-04-26T13:21:57.001Z</time></trkpt><trkpt lat="43.68290440170077" lon="10.976622385123427"><ele>57.0</ele><time>2026-04-26T13:21:58.001Z</time></trkpt><trkpt lat="43.682777268665916" lon="10.976848702919687"><ele>57.0</ele><time>2026-04-26T13:21:59.001Z</time></trkpt><trkpt lat="43.682651983137355" lon="10.977085097278023"><ele>56.66666666666667</ele><time>2026-04-26T13:22:00.001Z</time></trkpt><trkpt lat="43.68252358981083" lon="10.977329723345536"><ele>56.333333333333336</ele><time>2026-04-26T13:22:01.001Z</time></trkpt><trkpt lat="43.68239318580442" lon="10.977579141126254"><ele>56.0</ele><time>2026-04-26T13:22:02.001Z</time></trkpt><trkpt lat="43.682254662796254" lon="10.977829337242154"><ele>56.0</ele><time>2026-04-26T13:22:03.001Z</time></trkpt><trkpt lat="43.68211498985385" lon="10.978085577613408"><ele>56.0</ele><time>2026-04-26T13:22:04.001Z</time></trkpt><trkpt lat="43.68197557143384" lon="10.978344443816177"><ele>55.0</ele><time>2026-04-26T13:22:05.001Z</time></trkpt><trkpt lat="43.681844285780194" lon="10.978599951139817"><ele>54.0</ele><time>2026-04-26T13:22:06.001Z</time></trkpt><trkpt lat="43.68171873698125" lon="10.978836480643436"><ele>53.0</ele><time>2026-04-26T13:22:07.001Z</time></trkpt><trkpt lat="43.6816052592808" lon="10.979069531441608"><ele>53.333333333333336</ele><time>2026-04-26T13:22:08.001Z</time></trkpt><trkpt lat="43.68150659510509" lon="10.979331090527763"><ele>53.66666666666667</ele><time>2026-04-26T13:22:09.001Z</time></trkpt><trkpt lat="43.68141958187964" lon="10.97960859047134"><ele>54.0</ele><time>2026-04-26T13:22:10.001Z</time></trkpt><trkpt lat="43.68133159238453" lon="10.97989409217551"><ele>54.0</ele><time>2026-04-26T13:22:11.001Z</time></trkpt><trkpt lat="43.681252127234615" lon="10.980153604512731"><ele>54.0</ele><time>2026-04-26T13:22:12.001Z</time></trkpt><trkpt lat="43.68116712158341" lon="10.980395775457998"><ele>54.0</ele><time>2026-04-26T13:22:13.001Z</time></trkpt><trkpt lat="43.68107216002539" lon="10.980626116823123"><ele>54.0</ele><time>2026-04-26T13:22:14.001Z</time></trkpt><trkpt lat="43.68095961971468" lon="10.980847119359781"><ele>54.0</ele><time>2026-04-26T13:22:15.001Z</time></trkpt><trkpt lat="43.68083127049385" lon="10.981050025253232"><ele>54.0</ele><time>2026-04-26T13:22:16.001Z</time></trkpt><trkpt lat="43.68068678485453" lon="10.981227400925375"><ele>55.66666666666667</ele><time>2026-04-26T13:22:17.001Z</time></trkpt><trkpt lat="43.68052832650595" lon="10.981387809769268"><ele>57.333333333333336</ele><time>2026-04-26T13:22:18.001Z</time></trkpt><trkpt lat="43.680346074873846" lon="10.98153805711836"><ele>59.0</ele><time>2026-04-26T13:22:19.001Z</time></trkpt><trkpt lat="43.68014503160346" lon="10.98169690973687"><ele>61.5</ele><time>2026-04-26T13:22:20.001Z</time></trkpt><trkpt lat="43.67992769798644" lon="10.98186133728282"><ele>64.0</ele><time>2026-04-26T13:22:21.001Z</time></trkpt><trkpt lat="43.67971921960262" lon="10.982026440326054"><ele>64.0</ele><time>2026-04-26T13:22:22.001Z</time></trkpt><trkpt lat="43.67953081546171" lon="10.982177114917446"><ele>64.0</ele><time>2026-04-26T13:22:23.001Z</time></trkpt><trkpt lat="43.679352714144144" lon="10.982321722387832"><ele>64.0</ele><time>2026-04-26T13:22:24.001Z</time></trkpt><trkpt lat="43.67919147679068" lon="10.982473402547532"><ele>65.0</ele><time>2026-04-26T13:22:25.001Z</time></trkpt><trkpt lat="43.67903383427013" lon="10.98264144552335"><ele>66.0</ele><time>2026-04-26T13:22:26.001Z</time></trkpt><trkpt lat="43.678896523294966" lon="10.982819357306083"><ele>67.0</ele><time>2026-04-26T13:22:27.001Z</time></trkpt><trkpt lat="43.67877469428613" lon="10.98299815948518"><ele>67.0</ele><time>2026-04-26T13:22:28.001Z</time></trkpt><trkpt lat="43.678667388944895" lon="10.983168067102804"><ele>67.0</ele><time>2026-04-26T13:22:29.001Z</time></trkpt><trkpt lat="43.67856879018153" lon="10.98332690307626"><ele>67.0</ele><time>2026-04-26T13:22:30.001Z</time></trkpt><trkpt lat="43.678464092025685" lon="10.983482522446984"><ele>65.33333333333333</ele><time>2026-04-26T13:22:31.001Z</time></trkpt><trkpt lat="43.67835860352567" lon="10.983666799829194"><ele>63.66666666666667</ele><time>2026-04-26T13:22:32.001Z</time></trkpt><trkpt lat="43.678244516764586" lon="10.983871728490024"><ele>62.0</ele><time>2026-04-26T13:22:33.001Z</time></trkpt><trkpt lat="43.67813181734131" lon="10.98408187285989"><ele>62.0</ele><time>2026-04-26T13:22:34.001Z</time></trkpt><trkpt lat="43.678027301293014" lon="10.98432039812754"><ele>62.0</ele><time>2026-04-26T13:22:35.001Z</time></trkpt><trkpt lat="43.67792645728862" lon="10.984579023720917"><ele>62.0</ele><time>2026-04-26T13:22:36.001Z</time></trkpt><trkpt lat="43.67783168884161" lon="10.984843097164738"><ele>61.66666666666667</ele><time>2026-04-26T13:22:37.001Z</time></trkpt><trkpt lat="43.677738622314436" lon="10.985095356428689"><ele>61.33333333333333</ele><time>2026-04-26T13:22:38.001Z</time></trkpt><trkpt lat="43.677643144798594" lon="10.98534406093837"><ele>61.0</ele><time>2026-04-26T13:22:39.001Z</time></trkpt><trkpt lat="43.67755276446989" lon="10.9855818677001"><ele>61.0</ele><time>2026-04-26T13:22:40.001Z</time></trkpt><trkpt lat="43.67746186591775" lon="10.985814572075151"><ele>61.0</ele><time>2026-04-26T13:22:41.002Z</time></trkpt><trkpt lat="43.677365525009456" lon="10.986056219083414"><ele>61.0</ele><time>2026-04-26T13:22:42.002Z</time></trkpt><trkpt lat="43.677261951123256" lon="10.986311299603562"><ele>61.33333333333333</ele><time>2026-04-26T13:22:43.002Z</time></trkpt><trkpt lat="43.67715978192541" lon="10.986565160335365"><ele>61.66666666666667</ele><time>2026-04-26T13:22:44.002Z</time></trkpt><trkpt lat="43.67706569143418" lon="10.986807140095033"><ele>62.0</ele><time>2026-04-26T13:22:45.002Z</time></trkpt><trkpt lat="43.67697540523172" lon="10.987040564354935"><ele>62.0</ele><time>2026-04-26T13:22:46.002Z</time></trkpt><trkpt lat="43.67688861358713" lon="10.987273901464706"><ele>62.0</ele><time>2026-04-26T13:22:47.002Z</time></trkpt><trkpt lat="43.676796546599185" lon="10.987510382544759"><ele>62.0</ele><time>2026-04-26T13:22:48.002Z</time></trkpt><trkpt lat="43.6767018923617" lon="10.987745919571442"><ele>62.0</ele><time>2026-04-26T13:22:49.002Z</time></trkpt><trkpt lat="43.67660239867194" lon="10.987963617275637"><ele>62.0</ele><time>2026-04-26T13:22:50.002Z</time></trkpt><trkpt lat="43.67649229933726" lon="10.988164053965166"><ele>62.0</ele><time>2026-04-26T13:22:51.002Z</time></trkpt><trkpt lat="43.67636747391596" lon="10.988344029772122"><ele>63.0</ele><time>2026-04-26T13:22:52.002Z</time></trkpt><trkpt lat="43.67622485327563" lon="10.988522556535477"><ele>64.0</ele><time>2026-04-26T13:22:53.002Z</time></trkpt><trkpt lat="43.67607677645544" lon="10.988697673217459"><ele>65.0</ele><time>2026-04-26T13:22:54.002Z</time></trkpt><trkpt lat="43.67593224025538" lon="10.988850528862015"><ele>65.0</ele><time>2026-04-26T13:22:55.002Z</time></trkpt><trkpt lat="43.67578711985409" lon="10.9889763267472"><ele>65.0</ele><time>2026-04-26T13:22:56.002Z</time></trkpt><trkpt lat="43.675640538143305" lon="10.989067003768463"><ele>65.0</ele><time>2026-04-26T13:22:57.002Z</time></trkpt><trkpt lat="43.67549752016731" lon="10.989150951049364"><ele>65.33333333333334</ele><time>2026-04-26T13:22:58.002Z</time></trkpt><trkpt lat="43.675354021354394" lon="10.989245142456932"><ele>65.66666666666667</ele><time>2026-04-26T13:22:59.002Z</time></trkpt><trkpt lat="43.6752169170155" lon="10.989374616081514"><ele>66.0</ele><time>2026-04-26T13:23:00.002Z</time></trkpt><trkpt lat="43.67508192660625" lon="10.989533624706521"><ele>66.0</ele><time>2026-04-26T13:23:01.002Z</time></trkpt><trkpt lat="43.67495842054419" lon="10.989712241254944"><ele>66.0</ele><time>2026-04-26T13:23:02.002Z</time></trkpt><trkpt lat="43.67485558620727" lon="10.989878475646774"><ele>66.0</ele><time>2026-04-26T13:23:03.002Z</time></trkpt><trkpt lat="43.67475714712962" lon="10.990028344944283"><ele>66.33333333333333</ele><time>2026-04-26T13:23:04.002Z</time></trkpt><trkpt lat="43.67464281190371" lon="10.99019530225603"><ele>66.66666666666666</ele><time>2026-04-26T13:23:05.002Z</time></trkpt><trkpt lat="43.67451419605785" lon="10.990379412057795"><ele>67.0</ele><time>2026-04-26T13:23:06.002Z</time></trkpt><trkpt lat="43.674380974149166" lon="10.990581766480474"><ele>67.0</ele><time>2026-04-26T13:23:07.002Z</time></trkpt><trkpt lat="43.67424865778757" lon="10.990781252419607"><ele>67.0</ele><time>2026-04-26T13:23:08.002Z</time></trkpt><trkpt lat="43.674113685606606" lon="10.99098070549244"><ele>67.0</ele><time>2026-04-26T13:23:09.002Z</time></trkpt><trkpt lat="43.67396860717545" lon="10.991189333798632"><ele>67.66666666666666</ele><time>2026-04-26T13:23:10.002Z</time></trkpt><trkpt lat="43.67384006438353" lon="10.991380336594402"><ele>68.33333333333333</ele><time>2026-04-26T13:23:11.002Z</time></trkpt><trkpt lat="43.67371384654712" lon="10.991550718533368"><ele>69.0</ele><time>2026-04-26T13:23:12.002Z</time></trkpt><trkpt lat="43.673587691227" lon="10.991722264742869"><ele>70.0</ele><time>2026-04-26T13:23:13.002Z</time></trkpt><trkpt lat="43.67345171639408" lon="10.991880843476782"><ele>71.0</ele><time>2026-04-26T13:23:14.002Z</time></trkpt><trkpt lat="43.673308008375024" lon="10.992033671606901"><ele>72.0</ele><time>2026-04-26T13:23:15.002Z</time></trkpt><trkpt lat="43.67315332696501" lon="10.992175208819758"><ele>72.0</ele><time>2026-04-26T13:23:16.002Z</time></trkpt><trkpt lat="43.67300340061126" lon="10.992300137524051"><ele>72.0</ele><time>2026-04-26T13:23:16.998Z</time></trkpt><trkpt lat="43.672840507742706" lon="10.992435516744122"><ele>72.0</ele><time>2026-04-26T13:23:17.998Z</time></trkpt><trkpt lat="43.672679112781005" lon="10.99257906125746"><ele>72.0</ele><time>2026-04-26T13:23:18.998Z</time></trkpt><trkpt lat="43.67252602940089" lon="10.992732730240187"><ele>72.0</ele><time>2026-04-26T13:23:19.998Z</time></trkpt><trkpt lat="43.67238732360905" lon="10.992892720033653"><ele>72.0</ele><time>2026-04-26T13:23:20.998Z</time></trkpt><trkpt lat="43.67224890041651" lon="10.993052182458392"><ele>72.0</ele><time>2026-04-26T13:23:21.998Z</time></trkpt><trkpt lat="43.67212119659151" lon="10.993217360249458"><ele>72.0</ele><time>2026-04-26T13:23:22.998Z</time></trkpt><trkpt lat="43.672000457331144" lon="10.99336976801126"><ele>72.0</ele><time>2026-04-26T13:23:23.998Z</time></trkpt><trkpt lat="43.671880455015334" lon="10.993508854904933"><ele>71.66666666666667</ele><time>2026-04-26T13:23:24.998Z</time></trkpt><trkpt lat="43.671754597734456" lon="10.993666868698245"><ele>71.33333333333334</ele><time>2026-04-26T13:23:25.998Z</time></trkpt><trkpt lat="43.67161569420979" lon="10.993845574289969"><ele>71.0</ele><time>2026-04-26T13:23:26.998Z</time></trkpt><trkpt lat="43.67148728607172" lon="10.994039085958606"><ele>72.33333333333334</ele><time>2026-04-26T13:23:27.998Z</time></trkpt><trkpt lat="43.671358871756254" lon="10.994218372347907"><ele>73.66666666666667</ele><time>2026-04-26T13:23:28.998Z</time></trkpt><trkpt lat="43.67122287592579" lon="10.994391604623022"><ele>75.0</ele><time>2026-04-26T13:23:29.998Z</time></trkpt><trkpt lat="43.67107877403298" lon="10.994556118731673"><ele>75.0</ele><time>2026-04-26T13:23:30.998Z</time></trkpt><trkpt lat="43.670923359612814" lon="10.994698701622793"><ele>75.0</ele><time>2026-04-26T13:23:31.998Z</time></trkpt><trkpt lat="43.67075928085182" lon="10.994822135091121"><ele>75.0</ele><time>2026-04-26T13:23:32.998Z</time></trkpt><trkpt lat="43.67057687341523" lon="10.994928748549006"><ele>75.66666666666667</ele><time>2026-04-26T13:23:33.998Z</time></trkpt><trkpt lat="43.67038461298716" lon="10.995031738023721"><ele>76.33333333333334</ele><time>2026-04-26T13:23:34.998Z</time></trkpt><trkpt lat="43.67018891823385" lon="10.995142463328587"><ele>77.0</ele><time>2026-04-26T13:23:35.999Z</time></trkpt><trkpt lat="43.67000699635347" lon="10.995255058814596"><ele>77.0</ele><time>2026-04-26T13:23:36.999Z</time></trkpt><trkpt lat="43.66984336872501" lon="10.995384160032074"><ele>77.0</ele><time>2026-04-26T13:23:37.999Z</time></trkpt><trkpt lat="43.66969467765631" lon="10.9955302917996"><ele>77.0</ele><time>2026-04-26T13:23:38.999Z</time></trkpt><trkpt lat="43.6695565639363" lon="10.995706347731414"><ele>76.33333333333334</ele><time>2026-04-26T13:23:39.999Z</time></trkpt><trkpt lat="43.66943218279444" lon="10.995912457009508"><ele>75.66666666666667</ele><time>2026-04-26T13:23:40.999Z</time></trkpt><trkpt lat="43.66931314040706" lon="10.99613729812472"><ele>75.0</ele><time>2026-04-26T13:23:41.999Z</time></trkpt><trkpt lat="43.66919615825791" lon="10.996377727427305"><ele>75.0</ele><time>2026-04-26T13:23:42.999Z</time></trkpt><trkpt lat="43.66907187679065" lon="10.99662400415456"><ele>75.0</ele><time>2026-04-26T13:23:43.999Z</time></trkpt><trkpt lat="43.66894330947418" lon="10.996869515141128"><ele>75.0</ele><time>2026-04-26T13:23:44.999Z</time></trkpt><trkpt lat="43.66881260121037" lon="10.99710610954844"><ele>75.66666666666667</ele><time>2026-04-26T13:23:45.999Z</time></trkpt><trkpt lat="43.668675349332254" lon="10.997331952018934"><ele>76.33333333333334</ele><time>2026-04-26T13:23:46.999Z</time></trkpt><trkpt lat="43.66852799358883" lon="10.997553610373094"><ele>77.0</ele><time>2026-04-26T13:23:47.999Z</time></trkpt><trkpt lat="43.66837222858096" lon="10.997778296154266"><ele>77.0</ele><time>2026-04-26T13:23:48.999Z</time></trkpt><trkpt lat="43.66822021065184" lon="10.998000852653409"><ele>77.0</ele><time>2026-04-26T13:23:49.999Z</time></trkpt><trkpt lat="43.66807632737057" lon="10.998215119079063"><ele>77.0</ele><time>2026-04-26T13:23:50.999Z</time></trkpt><trkpt lat="43.6679340500067" lon="10.998427033732373"><ele>76.66666666666667</ele><time>2026-04-26T13:23:51.999Z</time></trkpt><trkpt lat="43.66779805916881" lon="10.998626973096039"><ele>76.33333333333333</ele><time>2026-04-26T13:23:52.999Z</time></trkpt><trkpt lat="43.66766977801351" lon="10.998815819494611"><ele>76.0</ele><time>2026-04-26T13:23:53.999Z</time></trkpt><trkpt lat="43.66754797085157" lon="10.998994156254254"><ele>76.0</ele><time>2026-04-26T13:23:54.999Z</time></trkpt><trkpt lat="43.6674313506134" lon="10.999165004547095"><ele>76.0</ele><time>2026-04-26T13:23:55.999Z</time></trkpt><trkpt lat="43.6673195017443" lon="10.999320435357674"><ele>76.0</ele><time>2026-04-26T13:23:57Z</time></trkpt><trkpt lat="43.66720766148383" lon="10.999463034432214"><ele>76.75</ele><time>2026-04-26T13:23:58Z</time></trkpt><trkpt lat="43.66709762218823" lon="10.999581261141214"><ele>77.5</ele><time>2026-04-26T13:23:59Z</time></trkpt><trkpt lat="43.666995319880556" lon="10.999663613269416"><ele>78.25</ele><time>2026-04-26T13:24:00Z</time></trkpt><trkpt lat="43.66690962429162" lon="10.999723120781855"><ele>79.0</ele><time>2026-04-26T13:24:01Z</time></trkpt><trkpt lat="43.66682649906587" lon="10.999816608809711"><ele>79.0</ele><time>2026-04-26T13:24:02Z</time></trkpt><trkpt lat="43.66671486467928" lon="10.999911494936068"><ele>79.0</ele><time>2026-04-26T13:24:03Z</time></trkpt><trkpt lat="43.66658535844937" lon="10.999983823769586"><ele>79.0</ele><time>2026-04-26T13:24:04Z</time></trkpt><trkpt lat="43.66643516577841" lon="11.00004628919204"><ele>79.0</ele><time>2026-04-26T13:24:05Z</time></trkpt><trkpt lat="43.66626929168579" lon="11.000120245255891"><ele>78.0</ele><time>2026-04-26T13:24:06Z</time></trkpt><trkpt lat="43.666085944433384" lon="11.000204048619391"><ele>77.0</ele><time>2026-04-26T13:24:07Z</time></trkpt><trkpt lat="43.66590697442063" lon="11.000290761930055"><ele>76.0</ele><time>2026-04-26T13:24:08Z</time></trkpt><trkpt lat="43.6657452513418" lon="11.000367867399452"><ele>76.0</ele><time>2026-04-26T13:24:09Z</time></trkpt><trkpt lat="43.66561550454661" lon="11.000426574414014"><ele>76.0</ele><time>2026-04-26T13:24:10Z</time></trkpt><trkpt lat="43.66552374002278" lon="11.000456077029684"><ele>76.0</ele><time>2026-04-26T13:24:11Z</time></trkpt><trkpt lat="43.665440681282305" lon="11.000454079600196"><ele>76.0</ele><time>2026-04-26T13:24:12Z</time></trkpt><trkpt lat="43.66536390516332" lon="11.00043222426304"><ele>76.0</ele><time>2026-04-26T13:24:13Z</time></trkpt><trkpt lat="43.66529622990477" lon="11.000436063233701"><ele>75.75</ele><time>2026-04-26T13:24:14Z</time></trkpt><trkpt lat="43.66523933238806" lon="11.000504802316698"><ele>75.5</ele><time>2026-04-26T13:24:15Z</time></trkpt><trkpt lat="43.665176938447374" lon="11.00062117096683"><ele>75.25</ele><time>2026-04-26T13:24:16Z</time></trkpt><trkpt lat="43.665071938830195" lon="11.000720003886633"><ele>75.0</ele><time>2026-04-26T13:24:17Z</time></trkpt><trkpt lat="43.66493891436001" lon="11.000814765754438"><ele>76.0</ele><time>2026-04-26T13:24:18Z</time></trkpt><trkpt lat="43.66478788289158" lon="11.000948353742798"><ele>77.0</ele><time>2026-04-26T13:24:19Z</time></trkpt><trkpt lat="43.66463376925024" lon="11.001127171747669"><ele>78.0</ele><time>2026-04-26T13:24:20Z</time></trkpt><trkpt lat="43.66447230209599" lon="11.001340889119465"><ele>77.0</ele><time>2026-04-26T13:24:21Z</time></trkpt><trkpt lat="43.66431127592562" lon="11.001558562935156"><ele>76.0</ele><time>2026-04-26T13:24:22Z</time></trkpt><trkpt lat="43.66413776919283" lon="11.001790382151057"><ele>78.0</ele><time>2026-04-26T13:24:23Z</time></trkpt><trkpt lat="43.66394189827173" lon="11.0020471361343"><ele>80.0</ele><time>2026-04-26T13:24:24Z</time></trkpt><trkpt lat="43.663761615220544" lon="11.002282320150387"><ele>80.0</ele><time>2026-04-26T13:24:25Z</time></trkpt><trkpt lat="43.66360020638272" lon="11.002494177347817"><ele>80.0</ele><time>2026-04-26T13:24:26Z</time></trkpt><trkpt lat="43.663447594832334" lon="11.002696508539497"><ele>80.0</ele><time>2026-04-26T13:24:27Z</time></trkpt><trkpt lat="43.66330410289749" lon="11.002886198449112"><ele>80.0</ele><time>2026-04-26T13:24:28Z</time></trkpt><trkpt lat="43.66316126553572" lon="11.003073693253233"><ele>80.0</ele><time>2026-04-26T13:24:29Z</time></trkpt><trkpt lat="43.66303251800168" lon="11.003245264422599"><ele>80.0</ele><time>2026-04-26T13:24:30Z</time></trkpt><trkpt lat="43.66292160661141" lon="11.003397535024973"><ele>80.2</ele><time>2026-04-26T13:24:31Z</time></trkpt><trkpt lat="43.662828367049535" lon="11.003524017355769"><ele>80.4</ele><time>2026-04-26T13:24:32.001Z</time></trkpt><trkpt lat="43.66272868421595" lon="11.003598955508547"><ele>80.6</ele><time>2026-04-26T13:24:33.001Z</time></trkpt><trkpt lat="43.662678211450995" lon="11.003688060405702"><ele>80.8</ele><time>2026-04-26T13:24:34.001Z</time></trkpt><trkpt lat="43.6626331590374" lon="11.003755716335894"><ele>81.0</ele><time>2026-04-26T13:24:35.001Z</time></trkpt><trkpt lat="43.66260835533744" lon="11.00386098471019"><ele>81.0</ele><time>2026-04-26T13:24:36.001Z</time></trkpt><trkpt lat="43.66257571222184" lon="11.004019614695817"><ele>81.0</ele><time>2026-04-26T13:24:37.001Z</time></trkpt><trkpt lat="43.662505912412776" lon="11.004151505392858"><ele>81.0</ele><time>2026-04-26T13:24:38.001Z</time></trkpt><trkpt lat="43.66241572336915" lon="11.004307668795533"><ele>81.0</ele><time>2026-04-26T13:24:39.001Z</time></trkpt><trkpt lat="43.66230917615029" lon="11.004487397043516"><ele>82.0</ele><time>2026-04-26T13:24:40.001Z</time></trkpt><trkpt lat="43.66219169320098" lon="11.004689285665284"><ele>83.0</ele><time>2026-04-26T13:24:41.001Z</time></trkpt><trkpt lat="43.66207818069638" lon="11.00488805186442"><ele>84.0</ele><time>2026-04-26T13:24:42.001Z</time></trkpt><trkpt lat="43.66197238109034" lon="11.005059580447186"><ele>83.33333333333333</ele><time>2026-04-26T13:24:43.001Z</time></trkpt><trkpt lat="43.661871577119705" lon="11.005240994718392"><ele>82.66666666666666</ele><time>2026-04-26T13:24:44.001Z</time></trkpt><trkpt lat="43.66176934125947" lon="11.00542015657433"><ele>82.0</ele><time>2026-04-26T13:24:45.001Z</time></trkpt><trkpt lat="43.661655996850754" lon="11.005610473540937"><ele>82.0</ele><time>2026-04-26T13:24:46.001Z</time></trkpt><trkpt lat="43.661538480717944" lon="11.005797987019994"><ele>82.0</ele><time>2026-04-26T13:24:47.001Z</time></trkpt><trkpt lat="43.66141757025444" lon="11.005961198144757"><ele>82.0</ele><time>2026-04-26T13:24:48.001Z</time></trkpt><trkpt lat="43.6612772171269" lon="11.006116270753102"><ele>81.66666666666666</ele><time>2026-04-26T13:24:49.001Z</time></trkpt><trkpt lat="43.66111134127783" lon="11.00627089020668"><ele>81.33333333333333</ele><time>2026-04-26T13:24:50.001Z</time></trkpt><trkpt lat="43.660940597137675" lon="11.00642242866556"><ele>81.0</ele><time>2026-04-26T13:24:51.001Z</time></trkpt><trkpt lat="43.66076554873993" lon="11.006576458316179"><ele>82.0</ele><time>2026-04-26T13:24:52.001Z</time></trkpt><trkpt lat="43.66059647169644" lon="11.006725711256092"><ele>83.0</ele><time>2026-04-26T13:24:53.001Z</time></trkpt><trkpt lat="43.66043334255734" lon="11.006867112228441"><ele>84.0</ele><time>2026-04-26T13:24:54.001Z</time></trkpt><trkpt lat="43.6602693404272" lon="11.00700612768257"><ele>84.0</ele><time>2026-04-26T13:24:55.001Z</time></trkpt><trkpt lat="43.660101640664884" lon="11.007152455185087"><ele>84.0</ele><time>2026-04-26T13:24:56.001Z</time></trkpt><trkpt lat="43.659932964846156" lon="11.00730140704135"><ele>84.0</ele><time>2026-04-26T13:24:57.001Z</time></trkpt><trkpt lat="43.65976596438946" lon="11.00745325719758"><ele>84.66666666666667</ele><time>2026-04-26T13:24:58.001Z</time></trkpt><trkpt lat="43.65960352603073" lon="11.007595744445707"><ele>85.33333333333334</ele><time>2026-04-26T13:24:59.001Z</time></trkpt><trkpt lat="43.65944309672897" lon="11.007740072235716"><ele>86.0</ele><time>2026-04-26T13:25:00.001Z</time></trkpt><trkpt lat="43.65928290224191" lon="11.007883259098811"><ele>86.0</ele><time>2026-04-26T13:25:01.001Z</time></trkpt><trkpt lat="43.659122778271936" lon="11.008018453585933"><ele>86.0</ele><time>2026-04-26T13:25:02.001Z</time></trkpt><trkpt lat="43.65896113085686" lon="11.008144768613665"><ele>86.0</ele><time>2026-04-26T13:25:03.001Z</time></trkpt><trkpt lat="43.65879425354786" lon="11.008242948372374"><ele>86.0</ele><time>2026-04-26T13:25:04.001Z</time></trkpt><trkpt lat="43.65861483534054" lon="11.008326677555749"><ele>86.0</ele><time>2026-04-26T13:25:05.001Z</time></trkpt><trkpt lat="43.658433689410025" lon="11.00839686906973"><ele>86.0</ele><time>2026-04-26T13:25:06.001Z</time></trkpt><trkpt lat="43.65826635830467" lon="11.008449614155325"><ele>86.0</ele><time>2026-04-26T13:25:07.001Z</time></trkpt><trkpt lat="43.65809612295775" lon="11.008492842574068"><ele>86.0</ele><time>2026-04-26T13:25:08.001Z</time></trkpt><trkpt lat="43.65792998345799" lon="11.008517977298125"><ele>86.0</ele><time>2026-04-26T13:25:09.001Z</time></trkpt><trkpt lat="43.657773175354286" lon="11.008509562286193"><ele>87.33333333333334</ele><time>2026-04-26T13:25:10.001Z</time></trkpt><trkpt lat="43.657614932910505" lon="11.008477598981369"><ele>88.66666666666667</ele><time>2026-04-26T13:25:11.002Z</time></trkpt><trkpt lat="43.65746573034544" lon="11.008430793066998"><ele>90.0</ele><time>2026-04-26T13:25:12.002Z</time></trkpt><trkpt lat="43.65732278944073" lon="11.00837600925313"><ele>89.0</ele><time>2026-04-26T13:25:13.002Z</time></trkpt><trkpt lat="43.65718091881002" lon="11.008321807753626"><ele>88.0</ele><time>2026-04-26T13:25:14.002Z</time></trkpt><trkpt lat="43.65704069404839" lon="11.00826692140081"><ele>87.0</ele><time>2026-04-26T13:25:15.002Z</time></trkpt><trkpt lat="43.656907589187036" lon="11.008195761856513"><ele>86.0</ele><time>2026-04-26T13:25:16.002Z</time></trkpt><trkpt lat="43.65676392135302" lon="11.008155899388907"><ele>86.0</ele><time>2026-04-26T13:25:17.002Z</time></trkpt><trkpt lat="43.65661217335033" lon="11.008165195134337"><ele>86.0</ele><time>2026-04-26T13:25:18.002Z</time></trkpt><trkpt lat="43.65646144321231" lon="11.00816765773744"><ele>86.0</ele><time>2026-04-26T13:25:19.002Z</time></trkpt><trkpt lat="43.65630591501884" lon="11.008186208342972"><ele>86.0</ele><time>2026-04-26T13:25:20.002Z</time></trkpt><trkpt lat="43.65614788891259" lon="11.008225330178396"><ele>86.0</ele><time>2026-04-26T13:25:21.002Z</time></trkpt><trkpt lat="43.6559859474184" lon="11.008271137237324"><ele>86.0</ele><time>2026-04-26T13:25:22.002Z</time></trkpt><trkpt lat="43.655816681286154" lon="11.008322556896024"><ele>86.66666666666667</ele><time>2026-04-26T13:25:22.997Z</time></trkpt><trkpt lat="43.65564200937001" lon="11.008375561125609"><ele>87.33333333333333</ele><time>2026-04-26T13:25:23.997Z</time></trkpt><trkpt lat="43.655460172582835" lon="11.008427847739362"><ele>88.0</ele><time>2026-04-26T13:25:24.997Z</time></trkpt><trkpt lat="43.65527415075795" lon="11.008483354815294"><ele>88.0</ele><time>2026-04-26T13:25:25.997Z</time></trkpt><trkpt lat="43.6550989308053" lon="11.008537998213752"><ele>88.0</ele><time>2026-04-26T13:25:26.997Z</time></trkpt><trkpt lat="43.654934378292815" lon="11.008590858623693"><ele>88.0</ele><time>2026-04-26T13:25:27.997Z</time></trkpt><trkpt lat="43.65479367774346" lon="11.008650088239055"><ele>88.0</ele><time>2026-04-26T13:25:28.997Z</time></trkpt><trkpt lat="43.65467949841602" lon="11.00874961184401"><ele>88.0</ele><time>2026-04-26T13:25:29.997Z</time></trkpt><trkpt lat="43.654558466695846" lon="11.008893132380445"><ele>88.0</ele><time>2026-04-26T13:25:30.997Z</time></trkpt><trkpt lat="43.65443656349934" lon="11.009079489769528"><ele>89.33333333333333</ele><time>2026-04-26T13:25:31.997Z</time></trkpt><trkpt lat="43.654302562473944" lon="11.009291560949666"><ele>90.66666666666667</ele><time>2026-04-26T13:25:32.997Z</time></trkpt><trkpt lat="43.65417477890893" lon="11.009498161377051"><ele>92.0</ele><time>2026-04-26T13:25:33.997Z</time></trkpt><trkpt lat="43.654059130199904" lon="11.009691925520533"><ele>92.0</ele><time>2026-04-26T13:25:34.998Z</time></trkpt><trkpt lat="43.65394972094305" lon="11.009886088386365"><ele>92.0</ele><time>2026-04-26T13:25:35.998Z</time></trkpt><trkpt lat="43.653850410322384" lon="11.010085211042947"><ele>92.0</ele><time>2026-04-26T13:25:36.998Z</time></trkpt><trkpt lat="43.653760716647376" lon="11.010294793059277"><ele>92.33333333333334</ele><time>2026-04-26T13:25:37.998Z</time></trkpt><trkpt lat="43.653668224693014" lon="11.01051747452047"><ele>92.66666666666667</ele><time>2026-04-26T13:25:38.998Z</time></trkpt><trkpt lat="43.65357472590954" lon="11.0107405300769"><ele>93.0</ele><time>2026-04-26T13:25:39.998Z</time></trkpt><trkpt lat="43.65347871789815" lon="11.010971207184497"><ele>94.0</ele><time>2026-04-26T13:25:40.998Z</time></trkpt><trkpt lat="43.653378596426755" lon="11.0112143169121"><ele>95.0</ele><time>2026-04-26T13:25:41.998Z</time></trkpt><trkpt lat="43.653271634480696" lon="11.011471475517265"><ele>96.0</ele><time>2026-04-26T13:25:42.998Z</time></trkpt><trkpt lat="43.65315224817358" lon="11.011765695362863"><ele>98.5</ele><time>2026-04-26T13:25:43.998Z</time></trkpt><trkpt lat="43.65303248472204" lon="11.01206376529972"><ele>101.0</ele><time>2026-04-26T13:25:44.998Z</time></trkpt><trkpt lat="43.65292561331824" lon="11.012325193755046"><ele>102.66666666666666</ele><time>2026-04-26T13:25:45.998Z</time></trkpt><trkpt lat="43.65282012927822" lon="11.012573144170895"><ele>104.33333333333334</ele><time>2026-04-26T13:25:46.999Z</time></trkpt><trkpt lat="43.652715595252644" lon="11.01281566658019"><ele>106.0</ele><time>2026-04-26T13:25:47.999Z</time></trkpt><trkpt lat="43.65261166621546" lon="11.013043408793264"><ele>103.0</ele><time>2026-04-26T13:25:48.999Z</time></trkpt><trkpt lat="43.65250359294719" lon="11.013250604548709"><ele>100.0</ele><time>2026-04-26T13:25:49.999Z</time></trkpt><trkpt lat="43.652379864615966" lon="11.013449382464112"><ele>97.0</ele><time>2026-04-26T13:25:50.999Z</time></trkpt><trkpt lat="43.65222838709241" lon="11.01363793753461"><ele>97.0</ele><time>2026-04-26T13:25:51.999Z</time></trkpt><trkpt lat="43.65205338713033" lon="11.0138447160919"><ele>97.0</ele><time>2026-04-26T13:25:52.999Z</time></trkpt><trkpt lat="43.65186261051241" lon="11.014062899882825"><ele>98.0</ele><time>2026-04-26T13:25:53.999Z</time></trkpt><trkpt lat="43.65167776772652" lon="11.014282543262878"><ele>99.0</ele><time>2026-04-26T13:25:54.999Z</time></trkpt><trkpt lat="43.65151401779112" lon="11.014478098863101"><ele>99.0</ele><time>2026-04-26T13:25:55.999Z</time></trkpt><trkpt lat="43.65137073528915" lon="11.014650451512214"><ele>99.0</ele><time>2026-04-26T13:25:56.999Z</time></trkpt><trkpt lat="43.65123531980502" lon="11.014807148182786"><ele>99.0</ele><time>2026-04-26T13:25:57.999Z</time></trkpt><trkpt lat="43.651102927060606" lon="11.014959746690476"><ele>98.33333333333334</ele><time>2026-04-26T13:25:58.999Z</time></trkpt><trkpt lat="43.65097520296715" lon="11.015111319557452"><ele>97.66666666666667</ele><time>2026-04-26T13:25:59.999Z</time></trkpt><trkpt lat="43.65085398027682" lon="11.01525618784298"><ele>97.0</ele><time>2026-04-26T13:26:00.999Z</time></trkpt><trkpt lat="43.65073423970455" lon="11.015399897011699"><ele>97.0</ele><time>2026-04-26T13:26:01.999Z</time></trkpt><trkpt lat="43.650612941955536" lon="11.015532442205116"><ele>97.0</ele><time>2026-04-26T13:26:02.999Z</time></trkpt><trkpt lat="43.6504938070612" lon="11.015651557859075"><ele>97.0</ele><time>2026-04-26T13:26:04Z</time></trkpt><trkpt lat="43.65038087550683" lon="11.015739200701747"><ele>97.0</ele><time>2026-04-26T13:26:05Z</time></trkpt><trkpt lat="43.65027029786985" lon="11.01581442738728"><ele>97.0</ele><time>2026-04-26T13:26:06Z</time></trkpt><trkpt lat="43.6501436955693" lon="11.015874908762935"><ele>97.0</ele><time>2026-04-26T13:26:07Z</time></trkpt><trkpt lat="43.65002379139328" lon="11.015924611992254"><ele>97.0</ele><time>2026-04-26T13:26:08Z</time></trkpt><trkpt lat="43.649876507037376" lon="11.01596033428422"><ele>97.0</ele><time>2026-04-26T13:26:09Z</time></trkpt><trkpt lat="43.64971616888284" lon="11.01599308794071"><ele>97.0</ele><time>2026-04-26T13:26:10Z</time></trkpt><trkpt lat="43.64954760470622" lon="11.016022777047999"><ele>97.0</ele><time>2026-04-26T13:26:11Z</time></trkpt><trkpt lat="43.649369483017956" lon="11.016052227485998"><ele>97.0</ele><time>2026-04-26T13:26:12Z</time></trkpt><trkpt lat="43.649184496146894" lon="11.016082382581752"><ele>97.33333333333334</ele><time>2026-04-26T13:26:13Z</time></trkpt><trkpt lat="43.64899951604917" lon="11.016113738765085"><ele>97.66666666666666</ele><time>2026-04-26T13:26:14Z</time></trkpt><trkpt lat="43.64881163769203" lon="11.016149235058705"><ele>98.0</ele><time>2026-04-26T13:26:15Z</time></trkpt><trkpt lat="43.64861517775154" lon="11.016184383761107"><ele>98.0</ele><time>2026-04-26T13:26:16Z</time></trkpt><trkpt lat="43.648417831880906" lon="11.01622011928418"><ele>98.0</ele><time>2026-04-26T13:26:17Z</time></trkpt><trkpt lat="43.64821635914246" lon="11.016253647492203"><ele>98.0</ele><time>2026-04-26T13:26:18Z</time></trkpt><trkpt lat="43.64800757897668" lon="11.016292578980341"><ele>99.0</ele><time>2026-04-26T13:26:19Z</time></trkpt><trkpt lat="43.64779201167152" lon="11.016334087862278"><ele>100.0</ele><time>2026-04-26T13:26:20Z</time></trkpt><trkpt lat="43.647574708523315" lon="11.01637288261942"><ele>101.0</ele><time>2026-04-26T13:26:21Z</time></trkpt><trkpt lat="43.64736769449867" lon="11.016412947753265"><ele>101.0</ele><time>2026-04-26T13:26:22Z</time></trkpt><trkpt lat="43.64715408362308" lon="11.016452115670623"><ele>101.0</ele><time>2026-04-26T13:26:23Z</time></trkpt><trkpt lat="43.646955314518145" lon="11.016485358537864"><ele>101.0</ele><time>2026-04-26T13:26:24Z</time></trkpt><trkpt lat="43.64676641882975" lon="11.016522759981056"><ele>101.0</ele><time>2026-04-26T13:26:25Z</time></trkpt><trkpt lat="43.64658964796794" lon="11.016567237726996"><ele>101.0</ele><time>2026-04-26T13:26:26Z</time></trkpt><trkpt lat="43.64642396877889" lon="11.016626654433699"><ele>101.0</ele><time>2026-04-26T13:26:27Z</time></trkpt><trkpt lat="43.64626599498309" lon="11.016708332545692"><ele>101.0</ele><time>2026-04-26T13:26:28Z</time></trkpt><trkpt lat="43.64611124826589" lon="11.016824627930324"><ele>101.0</ele><time>2026-04-26T13:26:29Z</time></trkpt><trkpt lat="43.64595053064721" lon="11.016963405529342"><ele>101.0</ele><time>2026-04-26T13:26:30Z</time></trkpt><trkpt lat="43.645788574449966" lon="11.017151707240881"><ele>101.0</ele><time>2026-04-26T13:26:31Z</time></trkpt><trkpt lat="43.64562424717855" lon="11.017359516049014"><ele>101.0</ele><time>2026-04-26T13:26:32.001Z</time></trkpt><trkpt lat="43.64544875941684" lon="11.017593315454125"><ele>101.66666666666666</ele><time>2026-04-26T13:26:33.001Z</time></trkpt><trkpt lat="43.645280132835865" lon="11.017810866563886"><ele>102.33333333333334</ele><time>2026-04-26T13:26:34.001Z</time></trkpt><trkpt lat="43.64512643228145" lon="11.018009069126068"><ele>103.0</ele><time>2026-04-26T13:26:35.001Z</time></trkpt><trkpt lat="43.644978504144625" lon="11.018202697110757"><ele>104.0</ele><time>2026-04-26T13:26:36.001Z</time></trkpt><trkpt lat="43.644825569142874" lon="11.01840491836957"><ele>105.0</ele><time>2026-04-26T13:26:37.001Z</time></trkpt><trkpt lat="43.6446740656242" lon="11.018606120515873"><ele>106.0</ele><time>2026-04-26T13:26:38.001Z</time></trkpt><trkpt lat="43.64451994910088" lon="11.01880747424288"><ele>105.66666666666667</ele><time>2026-04-26T13:26:39.001Z</time></trkpt><trkpt lat="43.64435845466082" lon="11.019013357076089"><ele>105.33333333333334</ele><time>2026-04-26T13:26:40.001Z</time></trkpt><trkpt lat="43.64419788725685" lon="11.01922039123397"><ele>105.0</ele><time>2026-04-26T13:26:41.001Z</time></trkpt><trkpt lat="43.64403897550795" lon="11.019426574172472"><ele>105.0</ele><time>2026-04-26T13:26:42.001Z</time></trkpt><trkpt lat="43.64388606279156" lon="11.019623855855112"><ele>105.0</ele><time>2026-04-26T13:26:43.001Z</time></trkpt><trkpt lat="43.64373815710921" lon="11.019805376574643"><ele>105.0</ele><time>2026-04-26T13:26:44.001Z</time></trkpt><trkpt lat="43.64358332779683" lon="11.01998077628034"><ele>105.33333333333334</ele><time>2026-04-26T13:26:45.001Z</time></trkpt><trkpt lat="43.64342476222759" lon="11.020135279944109"><ele>105.66666666666667</ele><time>2026-04-26T13:26:46.001Z</time></trkpt><trkpt lat="43.6432541287376" lon="11.020261159464816"><ele>106.0</ele><time>2026-04-26T13:26:47.001Z</time></trkpt><trkpt lat="43.643071611399506" lon="11.020360681245354"><ele>106.0</ele><time>2026-04-26T13:26:48.001Z</time></trkpt><trkpt lat="43.642877939005274" lon="11.020437140785837"><ele>106.0</ele><time>2026-04-26T13:26:49.001Z</time></trkpt><trkpt lat="43.642674627446226" lon="11.020500215138883"><ele>106.0</ele><time>2026-04-26T13:26:50.001Z</time></trkpt><trkpt lat="43.64245810595801" lon="11.020571050109513"><ele>107.0</ele><time>2026-04-26T13:26:51.001Z</time></trkpt><trkpt lat="43.64221478484263" lon="11.020657137999866"><ele>108.0</ele><time>2026-04-26T13:26:52.001Z</time></trkpt><trkpt lat="43.64195280489237" lon="11.02075382705441"><ele>109.0</ele><time>2026-04-26T13:26:53.001Z</time></trkpt><trkpt lat="43.64167930916202" lon="11.020855457846631"><ele>110.0</ele><time>2026-04-26T13:26:54.001Z</time></trkpt><trkpt lat="43.641419113378134" lon="11.020946611142792"><ele>110.0</ele><time>2026-04-26T13:26:55.001Z</time></trkpt><trkpt lat="43.64118639239776" lon="11.021027656757632"><ele>110.0</ele><time>2026-04-26T13:26:56.001Z</time></trkpt><trkpt lat="43.640972365217344" lon="11.02109912963063"><ele>111.0</ele><time>2026-04-26T13:26:57.001Z</time></trkpt><trkpt lat="43.6407802727785" lon="11.021160463871869"><ele>112.0</ele><time>2026-04-26T13:26:58.001Z</time></trkpt><trkpt lat="43.64060656963995" lon="11.021218180682812"><ele>113.0</ele><time>2026-04-26T13:26:59.001Z</time></trkpt><trkpt lat="43.64045356705338" lon="11.021276365955762"><ele>113.0</ele><time>2026-04-26T13:27:00.001Z</time></trkpt><trkpt lat="43.640308333731056" lon="11.021347495456796"><ele>113.0</ele><time>2026-04-26T13:27:01.001Z</time></trkpt><trkpt lat="43.64017911000294" lon="11.021453381913703"><ele>113.0</ele><time>2026-04-26T13:27:02.001Z</time></trkpt><trkpt lat="43.64006575624377" lon="11.021603937950081"><ele>115.33333333333333</ele><time>2026-04-26T13:27:03.001Z</time></trkpt><trkpt lat="43.639970174512555" lon="11.021786777744966"><ele>117.66666666666666</ele><time>2026-04-26T13:27:04.002Z</time></trkpt><trkpt lat="43.63989749467338" lon="11.021996445309918"><ele>120.0</ele><time>2026-04-26T13:27:05.002Z</time></trkpt><trkpt lat="43.63984639958389" lon="11.022226490842321"><ele>120.0</ele><time>2026-04-26T13:27:06.002Z</time></trkpt><trkpt lat="43.639827680287986" lon="11.022468950639464"><ele>120.0</ele><time>2026-04-26T13:27:07.002Z</time></trkpt><trkpt lat="43.63984129306499" lon="11.022699305202277"><ele>120.0</ele><time>2026-04-26T13:27:08.002Z</time></trkpt><trkpt lat="43.63989616629112" lon="11.022910913358134"><ele>122.66666666666666</ele><time>2026-04-26T13:27:09.002Z</time></trkpt><trkpt lat="43.63997227246492" lon="11.02314782171421"><ele>125.33333333333333</ele><time>2026-04-26T13:27:10.002Z</time></trkpt><trkpt lat="43.64006179717851" lon="11.023405877375415"><ele>128.0</ele><time>2026-04-26T13:27:11.002Z</time></trkpt><trkpt lat="43.64015848948934" lon="11.023698374442127"><ele>129.0</ele><time>2026-04-26T13:27:12.002Z</time></trkpt><trkpt lat="43.64025085165044" lon="11.023994369218599"><ele>130.0</ele><time>2026-04-26T13:27:13.002Z</time></trkpt><trkpt lat="43.64033173368839" lon="11.024273081703406"><ele>132.33333333333334</ele><time>2026-04-26T13:27:14.002Z</time></trkpt><trkpt lat="43.640400611240665" lon="11.02452166409389"><ele>134.66666666666666</ele><time>2026-04-26T13:27:15.002Z</time></trkpt><trkpt lat="43.64046733024383" lon="11.02475294842586"><ele>137.0</ele><time>2026-04-26T13:27:16.002Z</time></trkpt><trkpt lat="43.640535395541264" lon="11.02497938210004"><ele>137.66666666666666</ele><time>2026-04-26T13:27:17.002Z</time></trkpt><trkpt lat="43.64059689057903" lon="11.025199092680433"><ele>138.33333333333334</ele><time>2026-04-26T13:27:18.002Z</time></trkpt><trkpt lat="43.64064478845572" lon="11.02540464465187"><ele>139.0</ele><time>2026-04-26T13:27:19.002Z</time></trkpt><trkpt lat="43.64067336849683" lon="11.025606202747099"><ele>139.0</ele><time>2026-04-26T13:27:20.002Z</time></trkpt><trkpt lat="43.64067364212701" lon="11.025807307979196"><ele>139.0</ele><time>2026-04-26T13:27:21.002Z</time></trkpt><trkpt lat="43.640646075268116" lon="11.026010379810666"><ele>139.0</ele><time>2026-04-26T13:27:22.002Z</time></trkpt><trkpt lat="43.64059933025232" lon="11.026200827119451"><ele>139.0</ele><time>2026-04-26T13:27:23.002Z</time></trkpt><trkpt lat="43.640531435720526" lon="11.026377660187203"><ele>139.0</ele><time>2026-04-26T13:27:24.002Z</time></trkpt><trkpt lat="43.6404393248297" lon="11.026537149797008"><ele>139.0</ele><time>2026-04-26T13:27:25.002Z</time></trkpt><trkpt lat="43.64033082641556" lon="11.026684704429481"><ele>139.0</ele><time>2026-04-26T13:27:26.002Z</time></trkpt><trkpt lat="43.64019837491742" lon="11.026817855971137"><ele>139.0</ele><time>2026-04-26T13:27:27.002Z</time></trkpt><trkpt lat="43.64003634920296" lon="11.026959771749674"><ele>139.0</ele><time>2026-04-26T13:27:28.002Z</time></trkpt><trkpt lat="43.63984631480826" lon="11.027110849655921"><ele>139.0</ele><time>2026-04-26T13:27:28.997Z</time></trkpt><trkpt lat="43.63965912374863" lon="11.027261397481636"><ele>139.0</ele><time>2026-04-26T13:27:29.997Z</time></trkpt><trkpt lat="43.639504469907685" lon="11.027386069355886"><ele>139.0</ele><time>2026-04-26T13:27:30.997Z</time></trkpt><trkpt lat="43.6393780401834" lon="11.02748153763652"><ele>139.0</ele><time>2026-04-26T13:27:31.997Z</time></trkpt><trkpt lat="43.63927419275037" lon="11.027543834075773"><ele>139.0</ele><time>2026-04-26T13:27:32.997Z</time></trkpt><trkpt lat="43.6391728734833" lon="11.02758629605907"><ele>139.25</ele><time>2026-04-26T13:27:33.997Z</time></trkpt><trkpt lat="43.63907261703334" lon="11.02759359068593"><ele>139.5</ele><time>2026-04-26T13:27:34.998Z</time></trkpt><trkpt lat="43.63895815929814" lon="11.027565178991924"><ele>139.75</ele><time>2026-04-26T13:27:35.998Z</time></trkpt><trkpt lat="43.63884995332104" lon="11.027489295683178"><ele>140.0</ele><time>2026-04-26T13:27:36.998Z</time></trkpt><trkpt lat="43.638759561258624" lon="11.027366244393267"><ele>140.0</ele><time>2026-04-26T13:27:37.998Z</time></trkpt><trkpt lat="43.63866874829803" lon="11.027202993527938"><ele>140.0</ele><time>2026-04-26T13:27:38.998Z</time></trkpt><trkpt lat="43.63857361193291" lon="11.027004463697827"><ele>140.0</ele><time>2026-04-26T13:27:39.998Z</time></trkpt><trkpt lat="43.638474379406745" lon="11.026788883833005"><ele>140.66666666666666</ele><time>2026-04-26T13:27:40.998Z</time></trkpt><trkpt lat="43.63836436359582" lon="11.026574526230302"><ele>141.33333333333334</ele><time>2026-04-26T13:27:41.998Z</time></trkpt><trkpt lat="43.63825521064419" lon="11.026366136881448"><ele>142.0</ele><time>2026-04-26T13:27:42.998Z</time></trkpt><trkpt lat="43.6381548201692" lon="11.0261663661456"><ele>142.0</ele><time>2026-04-26T13:27:43.999Z</time></trkpt><trkpt lat="43.63805705572837" lon="11.025965999079373"><ele>142.0</ele><time>2026-04-26T13:27:44.999Z</time></trkpt><trkpt lat="43.63796070617804" lon="11.025767810345256"><ele>142.0</ele><time>2026-04-26T13:27:45.999Z</time></trkpt><trkpt lat="43.637857458345685" lon="11.025558104330033"><ele>143.0</ele><time>2026-04-26T13:27:46.999Z</time></trkpt><trkpt lat="43.637760140249846" lon="11.025353845039799"><ele>144.0</ele><time>2026-04-26T13:27:47.999Z</time></trkpt><trkpt lat="43.63767241586566" lon="11.02516243941358"><ele>145.0</ele><time>2026-04-26T13:27:48.999Z</time></trkpt><trkpt lat="43.63757622981622" lon="11.02497258200541"><ele>145.33333333333334</ele><time>2026-04-26T13:27:49.999Z</time></trkpt><trkpt lat="43.63747812745079" lon="11.024796117901428"><ele>145.66666666666666</ele><time>2026-04-26T13:27:50.999Z</time></trkpt><trkpt lat="43.637369230360605" lon="11.024625625955625"><ele>146.0</ele><time>2026-04-26T13:27:51.999Z</time></trkpt><trkpt lat="43.63723735309834" lon="11.024465252582102"><ele>146.0</ele><time>2026-04-26T13:27:53Z</time></trkpt><trkpt lat="43.63708421614161" lon="11.024333340401915"><ele>146.0</ele><time>2026-04-26T13:27:54Z</time></trkpt><trkpt lat="43.63691743579554" lon="11.024226591236836"><ele>146.0</ele><time>2026-04-26T13:27:55Z</time></trkpt><trkpt lat="43.63674100777723" lon="11.024141436237977"><ele>145.33333333333331</ele><time>2026-04-26T13:27:56Z</time></trkpt><trkpt lat="43.63655849693598" lon="11.02406318675561"><ele>144.66666666666666</ele><time>2026-04-26T13:27:57Z</time></trkpt><trkpt lat="43.63642000699388" lon="11.023963600691271"><ele>144.0</ele><time>2026-04-26T13:27:58Z</time></trkpt><trkpt lat="43.63628099278696" lon="11.023836803360027"><ele>144.0</ele><time>2026-04-26T13:27:59Z</time></trkpt><trkpt lat="43.63615586004468" lon="11.02369049302592"><ele>144.0</ele><time>2026-04-26T13:28:00Z</time></trkpt><trkpt lat="43.63600806738593" lon="11.023520052771952"><ele>144.0</ele><time>2026-04-26T13:28:01Z</time></trkpt><trkpt lat="43.63588070756669" lon="11.02335768000052"><ele>144.0</ele><time>2026-04-26T13:28:02Z</time></trkpt><trkpt lat="43.635759568468025" lon="11.023194139875276"><ele>144.0</ele><time>2026-04-26T13:28:03Z</time></trkpt><trkpt lat="43.63564806274917" lon="11.023014643268754"><ele>144.0</ele><time>2026-04-26T13:28:04Z</time></trkpt><trkpt lat="43.63554253375932" lon="11.022813306705748"><ele>144.0</ele><time>2026-04-26T13:28:05Z</time></trkpt><trkpt lat="43.63544941131784" lon="11.022609912448189"><ele>144.0</ele><time>2026-04-26T13:28:06Z</time></trkpt><trkpt lat="43.63536127000531" lon="11.02241753957656"><ele>144.0</ele><time>2026-04-26T13:28:07Z</time></trkpt><trkpt lat="43.63527507427165" lon="11.02221834770303"><ele>146.0</ele><time>2026-04-26T13:28:08Z</time></trkpt><trkpt lat="43.63520630842412" lon="11.022016237922408"><ele>148.0</ele><time>2026-04-26T13:28:09.001Z</time></trkpt><trkpt lat="43.63516519386444" lon="11.021812406936302"><ele>150.0</ele><time>2026-04-26T13:28:10.001Z</time></trkpt><trkpt lat="43.635141141448536" lon="11.021599705523625"><ele>152.0</ele><time>2026-04-26T13:28:11.001Z</time></trkpt><trkpt lat="43.635132073978944" lon="11.02136221266804"><ele>154.0</ele><time>2026-04-26T13:28:12.001Z</time></trkpt><trkpt lat="43.63512718165819" lon="11.02110348156196"><ele>156.0</ele><time>2026-04-26T13:28:13.001Z</time></trkpt><trkpt lat="43.635122479818115" lon="11.020850009779169"><ele>157.66666666666666</ele><time>2026-04-26T13:28:14.001Z</time></trkpt><trkpt lat="43.63512137089064" lon="11.020627673322133"><ele>159.33333333333331</ele><time>2026-04-26T13:28:15.001Z</time></trkpt><trkpt lat="43.635117139571484" lon="11.020411969687474"><ele>161.0</ele><time>2026-04-26T13:28:16.001Z</time></trkpt><trkpt lat="43.63511218539943" lon="11.020189108700114"><ele>161.66666666666666</ele><time>2026-04-26T13:28:17.001Z</time></trkpt><trkpt lat="43.63510957746203" lon="11.019967592163207"><ele>162.33333333333334</ele><time>2026-04-26T13:28:18.001Z</time></trkpt><trkpt lat="43.635104369051454" lon="11.019745630127648"><ele>163.0</ele><time>2026-04-26T13:28:19.001Z</time></trkpt><trkpt lat="43.635095065968045" lon="11.019523372397572"><ele>163.0</ele><time>2026-04-26T13:28:20.001Z</time></trkpt><trkpt lat="43.635080299369235" lon="11.019296877951428"><ele>163.0</ele><time>2026-04-26T13:28:21.001Z</time></trkpt><trkpt lat="43.63507548062066" lon="11.019082759246595"><ele>163.0</ele><time>2026-04-26T13:28:22.001Z</time></trkpt><trkpt lat="43.635090696833174" lon="11.018853239544693"><ele>162.66666666666669</ele><time>2026-04-26T13:28:23.001Z</time></trkpt><trkpt lat="43.635111220245605" lon="11.018629550067436"><ele>162.33333333333334</ele><time>2026-04-26T13:28:24.001Z</time></trkpt><trkpt lat="43.63513166988814" lon="11.018402593597646"><ele>162.0</ele><time>2026-04-26T13:28:25.001Z</time></trkpt><trkpt lat="43.63515505390549" lon="11.01819411092807"><ele>161.33333333333334</ele><time>2026-04-26T13:28:26.001Z</time></trkpt><trkpt lat="43.635168311694656" lon="11.017958543819091"><ele>160.66666666666669</ele><time>2026-04-26T13:28:27.001Z</time></trkpt><trkpt lat="43.635177022605035" lon="11.017729271355977"><ele>160.0</ele><time>2026-04-26T13:28:28.001Z</time></trkpt><trkpt lat="43.63518029912219" lon="11.01751427499605"><ele>159.75</ele><time>2026-04-26T13:28:29.001Z</time></trkpt><trkpt lat="43.63518951337785" lon="11.017310725128882"><ele>159.5</ele><time>2026-04-26T13:28:30.001Z</time></trkpt><trkpt lat="43.635229272156934" lon="11.01710945711881"><ele>159.25</ele><time>2026-04-26T13:28:31.001Z</time></trkpt><trkpt lat="43.63529475702875" lon="11.016940541976625"><ele>159.0</ele><time>2026-04-26T13:28:32.001Z</time></trkpt><trkpt lat="43.63538366408272" lon="11.016770498816156"><ele>160.33333333333334</ele><time>2026-04-26T13:28:33.001Z</time></trkpt><trkpt lat="43.63549361927797" lon="11.016605030636775"><ele>161.66666666666669</ele><time>2026-04-26T13:28:34.002Z</time></trkpt><trkpt lat="43.63562107284606" lon="11.016445555841937"><ele>163.0</ele><time>2026-04-26T13:28:35.002Z</time></trkpt><trkpt lat="43.635758686847744" lon="11.016312410846146"><ele>163.0</ele><time>2026-04-26T13:28:36.002Z</time></trkpt><trkpt lat="43.635911687471804" lon="11.01619435145185"><ele>163.0</ele><time>2026-04-26T13:28:37.002Z</time></trkpt><trkpt lat="43.63606083782096" lon="11.016087491487006"><ele>163.0</ele><time>2026-04-26T13:28:38.002Z</time></trkpt><trkpt lat="43.636194906669054" lon="11.015987299492796"><ele>161.25</ele><time>2026-04-26T13:28:39.002Z</time></trkpt><trkpt lat="43.63630144639566" lon="11.015883131833975"><ele>159.5</ele><time>2026-04-26T13:28:40.002Z</time></trkpt><trkpt lat="43.636392592731134" lon="11.015744786853196"><ele>157.75</ele><time>2026-04-26T13:28:41.002Z</time></trkpt><trkpt lat="43.636468938636014" lon="11.015557772890002"><ele>156.0</ele><time>2026-04-26T13:28:42.002Z</time></trkpt><trkpt lat="43.63654304992123" lon="11.015333735593618"><ele>155.33333333333334</ele><time>2026-04-26T13:28:43.002Z</time></trkpt><trkpt lat="43.63662107064653" lon="11.01511246334924"><ele>154.66666666666669</ele><time>2026-04-26T13:28:44.002Z</time></trkpt><trkpt lat="43.63671212839147" lon="11.01492638134605"><ele>154.0</ele><time>2026-04-26T13:28:45.002Z</time></trkpt><trkpt lat="43.63682621543109" lon="11.014777129317507"><ele>152.33333333333334</ele><time>2026-04-26T13:28:46.002Z</time></trkpt><trkpt lat="43.63695721987883" lon="11.014653939261436"><ele>150.66666666666666</ele><time>2026-04-26T13:28:47.002Z</time></trkpt><trkpt lat="43.637102536487404" lon="11.014559565167376"><ele>149.0</ele><time>2026-04-26T13:28:48.002Z</time></trkpt><trkpt lat="43.63727884395424" lon="11.014471617000401"><ele>148.66666666666666</ele><time>2026-04-26T13:28:49.002Z</time></trkpt><trkpt lat="43.6374873017115" lon="11.014407782083433"><ele>148.33333333333334</ele><time>2026-04-26T13:28:50.002Z</time></trkpt><trkpt lat="43.637704520584016" lon="11.014351601071006"><ele>148.0</ele><time>2026-04-26T13:28:51.002Z</time></trkpt><trkpt lat="43.637914180925996" lon="11.014295578846372"><ele>149.66666666666669</ele><time>2026-04-26T13:28:52.002Z</time></trkpt><trkpt lat="43.638101082937794" lon="11.014236055238543"><ele>151.33333333333334</ele><time>2026-04-26T13:28:53.002Z</time></trkpt><trkpt lat="43.63826964486154" lon="11.014151162849332"><ele>153.0</ele><time>2026-04-26T13:28:54.002Z</time></trkpt><trkpt lat="43.63842133110639" lon="11.014032222119045"><ele>153.0</ele><time>2026-04-26T13:28:55.002Z</time></trkpt><trkpt lat="43.63854840133878" lon="11.013871175970108"><ele>153.0</ele><time>2026-04-26T13:28:56.002Z</time></trkpt><trkpt lat="43.63865290719781" lon="11.01368612850753"><ele>153.0</ele><time>2026-04-26T13:28:57.002Z</time></trkpt><trkpt lat="43.63873745201287" lon="11.013483234263509"><ele>158.0</ele><time>2026-04-26T13:28:58.002Z</time></trkpt><trkpt lat="43.6387951927049" lon="11.0132641200683"><ele>163.0</ele><time>2026-04-26T13:28:59.002Z</time></trkpt><trkpt lat="43.63882594869233" lon="11.013034198701169"><ele>168.0</ele><time>2026-04-26T13:29:00.002Z</time></trkpt><trkpt lat="43.63883581920986" lon="11.012795865558827"><ele>168.0</ele><time>2026-04-26T13:29:01.002Z</time></trkpt><trkpt lat="43.63882406120545" lon="11.012520607520514"><ele>168.0</ele><time>2026-04-26T13:29:02.002Z</time></trkpt><trkpt lat="43.63880118631455" lon="11.012206353318927"><ele>168.0</ele><time>2026-04-26T13:29:03.002Z</time></trkpt><trkpt lat="43.638784098521754" lon="11.011893734708256"><ele>167.33333333333334</ele><time>2026-04-26T13:29:04.002Z</time></trkpt><trkpt lat="43.63877663174386" lon="11.011616732733637"><ele>166.66666666666669</ele><time>2026-04-26T13:29:05.003Z</time></trkpt><trkpt lat="43.63876963343579" lon="11.011359259730318"><ele>166.0</ele><time>2026-04-26T13:29:06.003Z</time></trkpt><trkpt lat="43.63875536240101" lon="11.011121078816037"><ele>166.0</ele><time>2026-04-26T13:29:07.003Z</time></trkpt><trkpt lat="43.638731859011294" lon="11.010907963516026"><ele>166.0</ele><time>2026-04-26T13:29:08.003Z</time></trkpt><trkpt lat="43.63869646337224" lon="11.010704702978535"><ele>166.0</ele><time>2026-04-26T13:29:09.003Z</time></trkpt><trkpt lat="43.638648024768514" lon="11.010511479408883"><ele>162.33333333333334</ele><time>2026-04-26T13:29:10.003Z</time></trkpt><trkpt lat="43.63858517131094" lon="11.010325541842393"><ele>158.66666666666666</ele><time>2026-04-26T13:29:11.003Z</time></trkpt><trkpt lat="43.63850815695718" lon="11.0101535899586"><ele>155.0</ele><time>2026-04-26T13:29:12.003Z</time></trkpt><trkpt lat="43.63841082982304" lon="11.009984322546604"><ele>155.0</ele><time>2026-04-26T13:29:13.003Z</time></trkpt><trkpt lat="43.63830388953972" lon="11.009832695184025"><ele>155.0</ele><time>2026-04-26T13:29:14.003Z</time></trkpt><trkpt lat="43.638182086612744" lon="11.009692601733365"><ele>155.0</ele><time>2026-04-26T13:29:15.003Z</time></trkpt><trkpt lat="43.63803838476134" lon="11.009547709259978"><ele>155.0</ele><time>2026-04-26T13:29:16.003Z</time></trkpt><trkpt lat="43.63787617953048" lon="11.009385630002761"><ele>155.0</ele><time>2026-04-26T13:29:17.003Z</time></trkpt><trkpt lat="43.63771325655506" lon="11.009213323967744"><ele>155.0</ele><time>2026-04-26T13:29:18.003Z</time></trkpt><trkpt lat="43.63753950076515" lon="11.009033577960041"><ele>147.5</ele><time>2026-04-26T13:29:19.003Z</time></trkpt><trkpt lat="43.63736695020059" lon="11.00884986226837"><ele>140.0</ele><time>2026-04-26T13:29:20.003Z</time></trkpt><trkpt lat="43.637180719231004" lon="11.008648739180819"><ele>140.0</ele><time>2026-04-26T13:29:21.003Z</time></trkpt><trkpt lat="43.63699651811772" lon="11.008443592531828"><ele>140.0</ele><time>2026-04-26T13:29:22.003Z</time></trkpt><trkpt lat="43.636825845329064" lon="11.00822802474855"><ele>140.33333333333331</ele><time>2026-04-26T13:29:23.003Z</time></trkpt><trkpt lat="43.636664820288125" lon="11.008012722577506"><ele>140.66666666666666</ele><time>2026-04-26T13:29:24.003Z</time></trkpt><trkpt lat="43.63651406754616" lon="11.007786094547685"><ele>141.0</ele><time>2026-04-26T13:29:25.003Z</time></trkpt><trkpt lat="43.636371657672484" lon="11.007555398671373"><ele>140.0</ele><time>2026-04-26T13:29:26.003Z</time></trkpt><trkpt lat="43.636234819780384" lon="11.007326244998207"><ele>139.0</ele><time>2026-04-26T13:29:27.003Z</time></trkpt><trkpt lat="43.636111577161174" lon="11.007114239496865"><ele>138.0</ele><time>2026-04-26T13:29:28.003Z</time></trkpt><trkpt lat="43.635995067648814" lon="11.006908229795048"><ele>141.66666666666666</ele><time>2026-04-26T13:29:29.003Z</time></trkpt><trkpt lat="43.63588242140439" lon="11.006715716112163"><ele>145.33333333333331</ele><time>2026-04-26T13:29:30.003Z</time></trkpt><trkpt lat="43.63575047674656" lon="11.006520538069106"><ele>149.0</ele><time>2026-04-26T13:29:31.003Z</time></trkpt><trkpt lat="43.6356123586668" lon="11.006343803682768"><ele>149.33333333333331</ele><time>2026-04-26T13:29:32.003Z</time></trkpt><trkpt lat="43.63546273724632" lon="11.006191102519178"><ele>149.66666666666666</ele><time>2026-04-26T13:29:33.003Z</time></trkpt><trkpt lat="43.635302563417355" lon="11.006065052535984"><ele>150.0</ele><time>2026-04-26T13:29:34.003Z</time></trkpt><trkpt lat="43.635131650425826" lon="11.005958926672557"><ele>152.66666666666666</ele><time>2026-04-26T13:29:34.998Z</time></trkpt><trkpt lat="43.634950327317895" lon="11.005881676493951"><ele>155.33333333333331</ele><time>2026-04-26T13:29:35.998Z</time></trkpt><trkpt lat="43.634770507995356" lon="11.005819597492332"><ele>158.0</ele><time>2026-04-26T13:29:36.998Z</time></trkpt><trkpt lat="43.63459063430592" lon="11.005783167927785"><ele>162.0</ele><time>2026-04-26T13:29:37.998Z</time></trkpt><trkpt lat="43.63441485522742" lon="11.005762467759318"><ele>166.0</ele><time>2026-04-26T13:29:38.998Z</time></trkpt><trkpt lat="43.63425387523675" lon="11.005728071025864"><ele>170.0</ele><time>2026-04-26T13:29:39.999Z</time></trkpt><trkpt lat="43.63409813052401" lon="11.005658644093932"><ele>170.0</ele><time>2026-04-26T13:29:40.999Z</time></trkpt><trkpt lat="43.63394865820721" lon="11.00555612050258"><ele>170.0</ele><time>2026-04-26T13:29:41.999Z</time></trkpt><trkpt lat="43.63382598831662" lon="11.005422295560335"><ele>170.0</ele><time>2026-04-26T13:29:42.999Z</time></trkpt><trkpt lat="43.633721058931435" lon="11.005265736481235"><ele>168.66666666666666</ele><time>2026-04-26T13:29:43.999Z</time></trkpt><trkpt lat="43.6336359328805" lon="11.005074141940076"><ele>167.33333333333334</ele><time>2026-04-26T13:29:44.999Z</time></trkpt><trkpt lat="43.63355764259259" lon="11.004866300723435"><ele>166.0</ele><time>2026-04-26T13:29:45.999Z</time></trkpt><trkpt lat="43.633504638041835" lon="11.004669512935878"><ele>166.0</ele><time>2026-04-26T13:29:46.999Z</time></trkpt><trkpt lat="43.63347346714216" lon="11.004471177251176"><ele>166.0</ele><time>2026-04-26T13:29:47.999Z</time></trkpt><trkpt lat="43.633473527764096" lon="11.004270768350274"><ele>166.0</ele><time>2026-04-26T13:29:48.999Z</time></trkpt><trkpt lat="43.633496080529135" lon="11.004039435076983"><ele>165.33333333333334</ele><time>2026-04-26T13:29:49.999Z</time></trkpt><trkpt lat="43.63351923318122" lon="11.00379944115245"><ele>164.66666666666666</ele><time>2026-04-26T13:29:50.999Z</time></trkpt><trkpt lat="43.63352084226641" lon="11.003573836216457"><ele>164.0</ele><time>2026-04-26T13:29:51.999Z</time></trkpt><trkpt lat="43.633504209159355" lon="11.003343501107672"><ele>163.66666666666666</ele><time>2026-04-26T13:29:52.999Z</time></trkpt><trkpt lat="43.63345923220655" lon="11.003117131325634"><ele>163.33333333333334</ele><time>2026-04-26T13:29:53.999Z</time></trkpt><trkpt lat="43.63337882671117" lon="11.002876165605622"><ele>163.0</ele><time>2026-04-26T13:29:55Z</time></trkpt><trkpt lat="43.633273641638155" lon="11.002627970383784"><ele>164.5</ele><time>2026-04-26T13:29:56Z</time></trkpt><trkpt lat="43.63312709635975" lon="11.002356980599894"><ele>166.0</ele><time>2026-04-26T13:29:57Z</time></trkpt><trkpt lat="43.63295940379811" lon="11.002071349734576"><ele>160.5</ele><time>2026-04-26T13:29:58Z</time></trkpt><trkpt lat="43.6327828512552" lon="11.001760568965825"><ele>155.0</ele><time>2026-04-26T13:29:59Z</time></trkpt><trkpt lat="43.63260604611763" lon="11.001449692634202"><ele>155.0</ele><time>2026-04-26T13:30:00Z</time></trkpt><trkpt lat="43.63244711630038" lon="11.00115993838873"><ele>155.0</ele><time>2026-04-26T13:30:01Z</time></trkpt><trkpt lat="43.63229867404293" lon="11.000892290936227"><ele>153.0</ele><time>2026-04-26T13:30:02Z</time></trkpt><trkpt lat="43.63215270783329" lon="11.000631717914517"><ele>151.0</ele><time>2026-04-26T13:30:03Z</time></trkpt><trkpt lat="43.632006441689185" lon="11.000386437079092"><ele>149.0</ele><time>2026-04-26T13:30:04Z</time></trkpt><trkpt lat="43.6318664793596" lon="11.00013249593584"><ele>147.0</ele><time>2026-04-26T13:30:05Z</time></trkpt><trkpt lat="43.63172598640183" lon="10.999881502305024"><ele>147.0</ele><time>2026-04-26T13:30:06Z</time></trkpt><trkpt lat="43.63159633134889" lon="10.999633699894874"><ele>147.0</ele><time>2026-04-26T13:30:07Z</time></trkpt><trkpt lat="43.63147708771195" lon="10.999380549032088"><ele>147.0</ele><time>2026-04-26T13:30:08Z</time></trkpt><trkpt lat="43.63136929750868" lon="10.99911204734285"><ele>148.0</ele><time>2026-04-26T13:30:09Z</time></trkpt><trkpt lat="43.63126196468827" lon="10.998812756707272"><ele>149.0</ele><time>2026-04-26T13:30:10Z</time></trkpt><trkpt lat="43.63115229417887" lon="10.998471858403045"><ele>146.5</ele><time>2026-04-26T13:30:11Z</time></trkpt><trkpt lat="43.63105065554273" lon="10.998153001480329"><ele>144.0</ele><time>2026-04-26T13:30:12Z</time></trkpt><trkpt lat="43.63095803197121" lon="10.997870787032037"><ele>144.0</ele><time>2026-04-26T13:30:13.001Z</time></trkpt><trkpt lat="43.63086883917364" lon="10.997604538148515"><ele>144.0</ele><time>2026-04-26T13:30:14.001Z</time></trkpt><trkpt lat="43.6307773295986" lon="10.997358014088647"><ele>144.0</ele><time>2026-04-26T13:30:15.001Z</time></trkpt><trkpt lat="43.63066740715932" lon="10.99712691801337"><ele>143.66666666666666</ele><time>2026-04-26T13:30:16.001Z</time></trkpt><trkpt lat="43.630525417982454" lon="10.996910532618212"><ele>143.33333333333331</ele><time>2026-04-26T13:30:17.001Z</time></trkpt><trkpt lat="43.63037303148442" lon="10.996700605313782"><ele>143.0</ele><time>2026-04-26T13:30:18.001Z</time></trkpt><trkpt lat="43.63020971032453" lon="10.996489111521969"><ele>142.0</ele><time>2026-04-26T13:30:19.001Z</time></trkpt><trkpt lat="43.63004190236115" lon="10.99626983642524"><ele>141.0</ele><time>2026-04-26T13:30:20.001Z</time></trkpt><trkpt lat="43.62987125981339" lon="10.996049769242946"><ele>141.0</ele><time>2026-04-26T13:30:21.001Z</time></trkpt><trkpt lat="43.62971551012839" lon="10.995849771290223"><ele>141.0</ele><time>2026-04-26T13:30:22.001Z</time></trkpt><trkpt lat="43.62957114102979" lon="10.99566096893715"><ele>141.0</ele><time>2026-04-26T13:30:23.001Z</time></trkpt><trkpt lat="43.62943524206091" lon="10.995483570590874"><ele>142.0</ele><time>2026-04-26T13:30:24.001Z</time></trkpt><trkpt lat="43.62930946870676" lon="10.99530586843457"><ele>143.0</ele><time>2026-04-26T13:30:25.001Z</time></trkpt><trkpt lat="43.6291876820498" lon="10.995117569456262"><ele>144.0</ele><time>2026-04-26T13:30:26.001Z</time></trkpt><trkpt lat="43.62907428443737" lon="10.994908190154819"><ele>144.33333333333334</ele><time>2026-04-26T13:30:27.001Z</time></trkpt><trkpt lat="43.62896230010314" lon="10.994687365924904"><ele>144.66666666666669</ele><time>2026-04-26T13:30:28.001Z</time></trkpt><trkpt lat="43.628852913404145" lon="10.994460737767787"><ele>145.0</ele><time>2026-04-26T13:30:29.001Z</time></trkpt><trkpt lat="43.62874318735665" lon="10.994253469386775"><ele>140.66666666666669</ele><time>2026-04-26T13:30:30.001Z</time></trkpt><trkpt lat="43.6286374233736" lon="10.994047018470766"><ele>136.33333333333334</ele><time>2026-04-26T13:30:31.001Z</time></trkpt><trkpt lat="43.62854394896641" lon="10.993831823244482"><ele>132.0</ele><time>2026-04-26T13:30:32.001Z</time></trkpt><trkpt lat="43.628459435930445" lon="10.993590262927821"><ele>134.66666666666666</ele><time>2026-04-26T13:30:33.001Z</time></trkpt><trkpt lat="43.62838773237207" lon="10.993320496531966"><ele>137.33333333333331</ele><time>2026-04-26T13:30:34.001Z</time></trkpt><trkpt lat="43.628323649206294" lon="10.993035078051092"><ele>140.0</ele><time>2026-04-26T13:30:35.001Z</time></trkpt><trkpt lat="43.62826844159526" lon="10.992754041379222"><ele>139.33333333333331</ele><time>2026-04-26T13:30:36.001Z</time></trkpt><trkpt lat="43.6282239019216" lon="10.992485007873231"><ele>138.66666666666666</ele><time>2026-04-26T13:30:37.001Z</time></trkpt><trkpt lat="43.62817347009328" lon="10.992209789095678"><ele>138.0</ele><time>2026-04-26T13:30:38.001Z</time></trkpt><trkpt lat="43.628126789306464" lon="10.991942891700596"><ele>138.0</ele><time>2026-04-26T13:30:39.001Z</time></trkpt><trkpt lat="43.62808341668868" lon="10.991687132158619"><ele>138.0</ele><time>2026-04-26T13:30:40.001Z</time></trkpt><trkpt lat="43.62803950488284" lon="10.991441421912947"><ele>138.0</ele><time>2026-04-26T13:30:41.002Z</time></trkpt><trkpt lat="43.627985723286" lon="10.991204866900427"><ele>137.0</ele><time>2026-04-26T13:30:42.002Z</time></trkpt><trkpt lat="43.627906741394334" lon="10.99099765385805"><ele>136.0</ele><time>2026-04-26T13:30:43.002Z</time></trkpt><trkpt lat="43.627564810445314" lon="10.990444351909938"><ele>122.0</ele><time>2026-04-26T13:30:53.673Z</time></trkpt><trkpt lat="43.62519245934638" lon="10.989928398938082"><ele>122.0</ele><time>2026-04-26T13:31:00.021Z</time></trkpt><trkpt lat="43.62492535733024" lon="10.989713994796379"><ele>122.0</ele><time>2026-04-26T13:31:00.4Z</time></trkpt><trkpt lat="43.62469841730187" lon="10.989609891558986"><ele>122.0</ele><time>2026-04-26T13:31:01.612Z</time></trkpt><trkpt lat="43.624556427862146" lon="10.989547781656485"><ele>122.0</ele><time>2026-04-26T13:31:02.63Z</time></trkpt><trkpt lat="43.62439180728386" lon="10.989432362849813"><ele>122.0</ele><time>2026-04-26T13:31:03.63Z</time></trkpt><trkpt lat="43.62427236516366" lon="10.989288110296231"><ele>119.66666666666666</ele><time>2026-04-26T13:31:04.627Z</time></trkpt><trkpt lat="43.62412882507185" lon="10.989109324301582"><ele>117.33333333333334</ele><time>2026-04-26T13:31:05.629Z</time></trkpt><trkpt lat="43.62398071684281" lon="10.988924168060523"><ele>115.0</ele><time>2026-04-26T13:31:06.63Z</time></trkpt><trkpt lat="43.62385628749023" lon="10.9887578711016"><ele>115.0</ele><time>2026-04-26T13:31:07.629Z</time></trkpt><trkpt lat="43.623793171759345" lon="10.9887198172612"><ele>115.0</ele><time>2026-04-26T13:31:08.002Z</time></trkpt><trkpt lat="43.623529728542664" lon="10.98851068877707"><ele>115.0</ele><time>2026-04-26T13:31:10.002Z</time></trkpt><trkpt lat="43.62335563641379" lon="10.988465091223818"><ele>114.66666666666667</ele><time>2026-04-26T13:31:11.002Z</time></trkpt><trkpt lat="43.623163565102615" lon="10.98843441345821"><ele>114.33333333333334</ele><time>2026-04-26T13:31:12.002Z</time></trkpt><trkpt lat="43.62298009793116" lon="10.988415784068563"><ele>114.0</ele><time>2026-04-26T13:31:13.002Z</time></trkpt><trkpt lat="43.62273763340814" lon="10.988385274579068"><ele>117.0</ele><time>2026-04-26T13:31:14.003Z</time></trkpt><trkpt lat="43.62250486823125" lon="10.988356413945786"><ele>120.0</ele><time>2026-04-26T13:31:15.003Z</time></trkpt><trkpt lat="43.622272063423736" lon="10.988336311321685"><ele>120.0</ele><time>2026-04-26T13:31:16.003Z</time></trkpt><trkpt lat="43.62204943448852" lon="10.988320738034835"><ele>120.0</ele><time>2026-04-26T13:31:17.003Z</time></trkpt><trkpt lat="43.6218610005696" lon="10.988305131298608"><ele>120.0</ele><time>2026-04-26T13:31:18.003Z</time></trkpt><trkpt lat="43.621657558070986" lon="10.988274545944309"><ele>120.0</ele><time>2026-04-26T13:31:19.003Z</time></trkpt><trkpt lat="43.62147285705883" lon="10.988239789097713"><ele>120.0</ele><time>2026-04-26T13:31:20.003Z</time></trkpt><trkpt lat="43.62130454467536" lon="10.988175063628157"><ele>120.0</ele><time>2026-04-26T13:31:21.003Z</time></trkpt><trkpt lat="43.6211354243405" lon="10.988080600492058"><ele>121.66666666666666</ele><time>2026-04-26T13:31:22.003Z</time></trkpt><trkpt lat="43.62097781812642" lon="10.987952132986367"><ele>123.33333333333333</ele><time>2026-04-26T13:31:23.003Z</time></trkpt><trkpt lat="43.62083070449463" lon="10.98779435608346"><ele>125.0</ele><time>2026-04-26T13:31:24.003Z</time></trkpt><trkpt lat="43.620694268966304" lon="10.98760227002638"><ele>123.5</ele><time>2026-04-26T13:31:25.003Z</time></trkpt><trkpt lat="43.62054385065433" lon="10.987364066656365"><ele>122.0</ele><time>2026-04-26T13:31:26.003Z</time></trkpt><trkpt lat="43.620389795625634" lon="10.987113804478833"><ele>122.5</ele><time>2026-04-26T13:31:27.003Z</time></trkpt><trkpt lat="43.620235464662464" lon="10.986866633120234"><ele>123.0</ele><time>2026-04-26T13:31:28.003Z</time></trkpt><trkpt lat="43.620059787533094" lon="10.986592687051061"><ele>122.0</ele><time>2026-04-26T13:31:29.003Z</time></trkpt><trkpt lat="43.619912418018586" lon="10.986366305871275"><ele>121.0</ele><time>2026-04-26T13:31:30.003Z</time></trkpt><trkpt lat="43.61976164345621" lon="10.986140429932234"><ele>120.0</ele><time>2026-04-26T13:31:31.003Z</time></trkpt><trkpt lat="43.6196152717374" lon="10.985949800682786"><ele>119.0</ele><time>2026-04-26T13:31:32.003Z</time></trkpt><trkpt lat="43.61942275735529" lon="10.985744010590981"><ele>118.0</ele><time>2026-04-26T13:31:33.003Z</time></trkpt><trkpt lat="43.61924286535634" lon="10.985570151126026"><ele>118.0</ele><time>2026-04-26T13:31:34.003Z</time></trkpt><trkpt lat="43.61904555634926" lon="10.985405804121758"><ele>118.0</ele><time>2026-04-26T13:31:35.003Z</time></trkpt><trkpt lat="43.618832074478455" lon="10.985254433436198"><ele>119.66666666666667</ele><time>2026-04-26T13:31:36.003Z</time></trkpt><trkpt lat="43.61864815744755" lon="10.985103921979714"><ele>121.33333333333334</ele><time>2026-04-26T13:31:37.003Z</time></trkpt><trkpt lat="43.61847028214134" lon="10.984959729860716"><ele>123.0</ele><time>2026-04-26T13:31:38.003Z</time></trkpt><trkpt lat="43.61827490700359" lon="10.984832182939995"><ele>123.0</ele><time>2026-04-26T13:31:39.003Z</time></trkpt><trkpt lat="43.61807712860769" lon="10.984733111418826"><ele>123.0</ele><time>2026-04-26T13:31:40.003Z</time></trkpt><trkpt lat="43.617884570547595" lon="10.984665534539673"><ele>123.0</ele><time>2026-04-26T13:31:41.003Z</time></trkpt><trkpt lat="43.61768275449352" lon="10.984603945323611"><ele>123.33333333333334</ele><time>2026-04-26T13:31:42.003Z</time></trkpt><trkpt lat="43.61749840058292" lon="10.984543023428806"><ele>123.66666666666667</ele><time>2026-04-26T13:31:43.003Z</time></trkpt><trkpt lat="43.61733469113212" lon="10.984480233154805"><ele>124.0</ele><time>2026-04-26T13:31:44.003Z</time></trkpt><trkpt lat="43.61717654325473" lon="10.98441778716943"><ele>124.0</ele><time>2026-04-26T13:31:45.003Z</time></trkpt><trkpt lat="43.61702534180108" lon="10.984341460316703"><ele>124.0</ele><time>2026-04-26T13:31:46.003Z</time></trkpt><trkpt lat="43.61687945823602" lon="10.98425313974848"><ele>124.0</ele><time>2026-04-26T13:31:47.004Z</time></trkpt><trkpt lat="43.61673242065928" lon="10.984151368693851"><ele>127.33333333333334</ele><time>2026-04-26T13:31:48.004Z</time></trkpt><trkpt lat="43.616577668330436" lon="10.984047860040938"><ele>130.66666666666666</ele><time>2026-04-26T13:31:49.004Z</time></trkpt><trkpt lat="43.61640904559719" lon="10.983934089471965"><ele>134.0</ele><time>2026-04-26T13:31:50.004Z</time></trkpt><trkpt lat="43.61623344140689" lon="10.98380666535345"><ele>133.33333333333331</ele><time>2026-04-26T13:31:51.004Z</time></trkpt><trkpt lat="43.61606782909953" lon="10.983689377090247"><ele>132.66666666666666</ele><time>2026-04-26T13:31:52.004Z</time></trkpt><trkpt lat="43.61591541019101" lon="10.983583734890347"><ele>132.0</ele><time>2026-04-26T13:31:53.004Z</time></trkpt><trkpt lat="43.61577779931237" lon="10.983477545100111"><ele>132.0</ele><time>2026-04-26T13:31:54.004Z</time></trkpt><trkpt lat="43.6156543753622" lon="10.983357696677121"><ele>132.0</ele><time>2026-04-26T13:31:55.004Z</time></trkpt><trkpt lat="43.61553552597414" lon="10.983211681751431"><ele>132.0</ele><time>2026-04-26T13:31:56.004Z</time></trkpt><trkpt lat="43.61543051706916" lon="10.983041799796371"><ele>133.0</ele><time>2026-04-26T13:31:57.004Z</time></trkpt><trkpt lat="43.61535086792007" lon="10.982854949172342"><ele>134.0</ele><time>2026-04-26T13:31:58.004Z</time></trkpt><trkpt lat="43.615284289804826" lon="10.982650368115692"><ele>135.0</ele><time>2026-04-26T13:31:59.004Z</time></trkpt><trkpt lat="43.615233996153506" lon="10.982422647181405"><ele>135.33333333333334</ele><time>2026-04-26T13:32:00.004Z</time></trkpt><trkpt lat="43.61520169282567" lon="10.982183825752399"><ele>135.66666666666669</ele><time>2026-04-26T13:32:01.004Z</time></trkpt><trkpt lat="43.61518252163079" lon="10.981943492777315"><ele>136.0</ele><time>2026-04-26T13:32:02.004Z</time></trkpt><trkpt lat="43.61517026513089" lon="10.981713891144677"><ele>135.33333333333334</ele><time>2026-04-26T13:32:03.004Z</time></trkpt><trkpt lat="43.61515392689524" lon="10.98149159365"><ele>134.66666666666666</ele><time>2026-04-26T13:32:04.004Z</time></trkpt><trkpt lat="43.61512312946013" lon="10.981269538489476"><ele>134.0</ele><time>2026-04-26T13:32:05.004Z</time></trkpt><trkpt lat="43.61506847393042" lon="10.981052493536032"><ele>131.66666666666666</ele><time>2026-04-26T13:32:06.004Z</time></trkpt><trkpt lat="43.61499313161359" lon="10.980841804160088"><ele>129.33333333333334</ele><time>2026-04-26T13:32:07.004Z</time></trkpt><trkpt lat="43.61489193595204" lon="10.980639812125927"><ele>127.0</ele><time>2026-04-26T13:32:08.004Z</time></trkpt><trkpt lat="43.614762176473086" lon="10.98044446757487"><ele>127.0</ele><time>2026-04-26T13:32:09.004Z</time></trkpt><trkpt lat="43.61460979274881" lon="10.980262316509943"><ele>127.0</ele><time>2026-04-26T13:32:10.004Z</time></trkpt><trkpt lat="43.61444273324253" lon="10.980084202163631"><ele>127.0</ele><time>2026-04-26T13:32:11.004Z</time></trkpt><trkpt lat="43.614265154215644" lon="10.97990189583166"><ele>123.0</ele><time>2026-04-26T13:32:12.004Z</time></trkpt><trkpt lat="43.61408562992537" lon="10.979710498846192"><ele>119.0</ele><time>2026-04-26T13:32:13.004Z</time></trkpt><trkpt lat="43.613907668679005" lon="10.979514998952705"><ele>119.0</ele><time>2026-04-26T13:32:14.004Z</time></trkpt><trkpt lat="43.61374242243566" lon="10.979329163336951"><ele>119.0</ele><time>2026-04-26T13:32:15.004Z</time></trkpt><trkpt lat="43.61358509804348" lon="10.979157713640415"><ele>119.0</ele><time>2026-04-26T13:32:16.004Z</time></trkpt><trkpt lat="43.61344591794045" lon="10.978987111249351"><ele>118.66666666666666</ele><time>2026-04-26T13:32:17.004Z</time></trkpt><trkpt lat="43.61332340350463" lon="10.978818617053971"><ele>118.33333333333334</ele><time>2026-04-26T13:32:18.004Z</time></trkpt><trkpt lat="43.61321676539425" lon="10.978640504255669"><ele>118.0</ele><time>2026-04-26T13:32:19.004Z</time></trkpt><trkpt lat="43.61311875064254" lon="10.978440760038234"><ele>117.0</ele><time>2026-04-26T13:32:20.004Z</time></trkpt><trkpt lat="43.61301795461208" lon="10.978202872792394"><ele>116.0</ele><time>2026-04-26T13:32:21.005Z</time></trkpt><trkpt lat="43.61291535955421" lon="10.977934263289917"><ele>115.0</ele><time>2026-04-26T13:32:22.005Z</time></trkpt><trkpt lat="43.612812958749764" lon="10.977658107490559"><ele>117.0</ele><time>2026-04-26T13:32:23.005Z</time></trkpt><trkpt lat="43.612710878114" lon="10.977398518959324"><ele>119.0</ele><time>2026-04-26T13:32:24.005Z</time></trkpt><trkpt lat="43.61261305233377" lon="10.977166412176976"><ele>121.0</ele><time>2026-04-26T13:32:25.005Z</time></trkpt><trkpt lat="43.612511208566566" lon="10.976943108779341"><ele>121.0</ele><time>2026-04-26T13:32:26.005Z</time></trkpt><trkpt lat="43.61239665569088" lon="10.97671515912141"><ele>121.0</ele><time>2026-04-26T13:32:27.005Z</time></trkpt><trkpt lat="43.61226957837532" lon="10.976508581593695"><ele>121.0</ele><time>2026-04-26T13:32:28.005Z</time></trkpt><trkpt lat="43.61213800492768" lon="10.976323555226342"><ele>120.33333333333334</ele><time>2026-04-26T13:32:29.005Z</time></trkpt><trkpt lat="43.61199425922378" lon="10.976154411194171"><ele>119.66666666666666</ele><time>2026-04-26T13:32:30.005Z</time></trkpt><trkpt lat="43.611835260551636" lon="10.975992305930967"><ele>119.0</ele><time>2026-04-26T13:32:31.005Z</time></trkpt><trkpt lat="43.61166376460549" lon="10.975837825118486"><ele>117.33333333333333</ele><time>2026-04-26T13:32:32.005Z</time></trkpt><trkpt lat="43.61148961706651" lon="10.975694596186562"><ele>115.66666666666666</ele><time>2026-04-26T13:32:33.005Z</time></trkpt><trkpt lat="43.611312727131036" lon="10.975571240727739"><ele>114.0</ele><time>2026-04-26T13:32:34.005Z</time></trkpt><trkpt lat="43.61114760247928" lon="10.975459669914436"><ele>111.66666666666666</ele><time>2026-04-26T13:32:35.005Z</time></trkpt><trkpt lat="43.610994318072954" lon="10.975349643106565"><ele>109.33333333333333</ele><time>2026-04-26T13:32:36.005Z</time></trkpt><trkpt lat="43.61085438868994" lon="10.975231520162112"><ele>107.0</ele><time>2026-04-26T13:32:37.005Z</time></trkpt><trkpt lat="43.610723699527064" lon="10.975090285604693"><ele>108.66666666666666</ele><time>2026-04-26T13:32:38.005Z</time></trkpt><trkpt lat="43.61058502540356" lon="10.974904974532688"><ele>110.33333333333334</ele><time>2026-04-26T13:32:39.005Z</time></trkpt><trkpt lat="43.61045067603665" lon="10.974708055663584"><ele>112.0</ele><time>2026-04-26T13:32:40.005Z</time></trkpt><trkpt lat="43.61032600703261" lon="10.974523518545983"><ele>111.0</ele><time>2026-04-26T13:32:41.005Z</time></trkpt><trkpt lat="43.61019576100189" lon="10.97435339027489"><ele>110.0</ele><time>2026-04-26T13:32:42.005Z</time></trkpt><trkpt lat="43.61003419925681" lon="10.97418645554803"><ele>109.0</ele><time>2026-04-26T13:32:43.005Z</time></trkpt><trkpt lat="43.609854847862856" lon="10.974034660846867"><ele>109.0</ele><time>2026-04-26T13:32:44.005Z</time></trkpt><trkpt lat="43.609683685048886" lon="10.973898476489016"><ele>109.0</ele><time>2026-04-26T13:32:45.005Z</time></trkpt><trkpt lat="43.60953140284426" lon="10.973772196030964"><ele>109.0</ele><time>2026-04-26T13:32:46.005Z</time></trkpt><trkpt lat="43.60939316996154" lon="10.973665917843853"><ele>106.6</ele><time>2026-04-26T13:32:47.005Z</time></trkpt><trkpt lat="43.6092760939628" lon="10.973569585952871"><ele>104.2</ele><time>2026-04-26T13:32:48.005Z</time></trkpt><trkpt lat="43.60918684339476" lon="10.973490620191175"><ele>101.8</ele><time>2026-04-26T13:32:49.005Z</time></trkpt><trkpt lat="43.60911998438403" lon="10.973404443763162"><ele>99.39999999999999</ele><time>2026-04-26T13:32:50.005Z</time></trkpt><trkpt lat="43.609070664963404" lon="10.973310595552636"><ele>97.0</ele><time>2026-04-26T13:32:51.005Z</time></trkpt><trkpt lat="43.60903969821149" lon="10.973227471634354"><ele>97.0</ele><time>2026-04-26T13:32:52.005Z</time></trkpt><trkpt lat="43.608941546159826" lon="10.973111898561276"><ele>97.0</ele><time>2026-04-26T13:32:54.006Z</time></trkpt><trkpt lat="43.608831035280616" lon="10.973063177914753"><ele>97.0</ele><time>2026-04-26T13:32:55.006Z</time></trkpt><trkpt lat="43.60868010672679" lon="10.973040677249125"><ele>97.0</ele><time>2026-04-26T13:32:56.006Z</time></trkpt><trkpt lat="43.60852357657769" lon="10.973003548158498"><ele>95.33333333333334</ele><time>2026-04-26T13:32:57.006Z</time></trkpt><trkpt lat="43.60833534307606" lon="10.972941676685846"><ele>93.66666666666667</ele><time>2026-04-26T13:32:58.006Z</time></trkpt><trkpt lat="43.60816798746641" lon="10.972869190569687"><ele>92.0</ele><time>2026-04-26T13:32:59.006Z</time></trkpt><trkpt lat="43.60802313897551" lon="10.972806798666541"><ele>92.0</ele><time>2026-04-26T13:33:00.006Z</time></trkpt><trkpt lat="43.60788302120634" lon="10.972773808661861"><ele>92.0</ele><time>2026-04-26T13:33:01.006Z</time></trkpt><trkpt lat="43.607753969607266" lon="10.972781731429892"><ele>92.0</ele><time>2026-04-26T13:33:02.006Z</time></trkpt><trkpt lat="43.60763914600376" lon="10.972826621493018"><ele>92.0</ele><time>2026-04-26T13:33:03.006Z</time></trkpt><trkpt lat="43.60753072839054" lon="10.972914209021898"><ele>92.0</ele><time>2026-04-26T13:33:04.006Z</time></trkpt><trkpt lat="43.607415941892704" lon="10.973046644140089"><ele>92.0</ele><time>2026-04-26T13:33:05.006Z</time></trkpt><trkpt lat="43.60730788805558" lon="10.97322837879517"><ele>92.0</ele><time>2026-04-26T13:33:06.006Z</time></trkpt><trkpt lat="43.60719118293718" lon="10.97346248250364"><ele>88.0</ele><time>2026-04-26T13:33:07.006Z</time></trkpt><trkpt lat="43.60705816298366" lon="10.973740862153786"><ele>84.0</ele><time>2026-04-26T13:33:08.006Z</time></trkpt><trkpt lat="43.6069284456522" lon="10.974030393671267"><ele>78.33333333333333</ele><time>2026-04-26T13:33:09.006Z</time></trkpt><trkpt lat="43.60682702919001" lon="10.974302371896336"><ele>72.66666666666666</ele><time>2026-04-26T13:33:10.006Z</time></trkpt><trkpt lat="43.60674251226" lon="10.974557379087177"><ele>67.0</ele><time>2026-04-26T13:33:11.006Z</time></trkpt><trkpt lat="43.60666449377504" lon="10.974793337014164"><ele>67.0</ele><time>2026-04-26T13:33:12.006Z</time></trkpt><trkpt lat="43.606589245486795" lon="10.975013736473267"><ele>67.0</ele><time>2026-04-26T13:33:12.997Z</time></trkpt><trkpt lat="43.60651014471514" lon="10.975220467341762"><ele>67.0</ele><time>2026-04-26T13:33:13.997Z</time></trkpt><trkpt lat="43.60642251390124" lon="10.975414356409773"><ele>64.0</ele><time>2026-04-26T13:33:14.997Z</time></trkpt><trkpt lat="43.60632246335948" lon="10.975590707303889"><ele>61.0</ele><time>2026-04-26T13:33:15.997Z</time></trkpt><trkpt lat="43.60621107004754" lon="10.975736521204212"><ele>58.0</ele><time>2026-04-26T13:33:16.997Z</time></trkpt><trkpt lat="43.60608341833123" lon="10.97585286430015"><ele>56.5</ele><time>2026-04-26T13:33:17.998Z</time></trkpt><trkpt lat="43.60594855126593" lon="10.975937258225908"><ele>55.0</ele><time>2026-04-26T13:33:18.998Z</time></trkpt><trkpt lat="43.605809132525614" lon="10.975997727522874"><ele>53.5</ele><time>2026-04-26T13:33:19.998Z</time></trkpt><trkpt lat="43.6056602643756" lon="10.976025856503101"><ele>52.0</ele><time>2026-04-26T13:33:20.998Z</time></trkpt><trkpt lat="43.605496367388405" lon="10.976039021066018"><ele>51.666666666666664</ele><time>2026-04-26T13:33:21.998Z</time></trkpt><trkpt lat="43.60531515157954" lon="10.976036325531283"><ele>51.33333333333333</ele><time>2026-04-26T13:33:22.998Z</time></trkpt><trkpt lat="43.60513462931495" lon="10.9760121732044"><ele>51.0</ele><time>2026-04-26T13:33:23.998Z</time></trkpt><trkpt lat="43.60495143780252" lon="10.975971375827255"><ele>51.0</ele><time>2026-04-26T13:33:24.998Z</time></trkpt><trkpt lat="43.604768467599335" lon="10.975927457031887"><ele>51.0</ele><time>2026-04-26T13:33:25.998Z</time></trkpt><trkpt lat="43.6045967669824" lon="10.9758814578167"><ele>51.0</ele><time>2026-04-26T13:33:26.999Z</time></trkpt><trkpt lat="43.604441866983706" lon="10.975832312656532"><ele>51.199999999999996</ele><time>2026-04-26T13:33:27.999Z</time></trkpt><trkpt lat="43.604309189559665" lon="10.975795335098946"><ele>51.4</ele><time>2026-04-26T13:33:28.999Z</time></trkpt><trkpt lat="43.604205075274194" lon="10.975767530701326"><ele>51.6</ele><time>2026-04-26T13:33:29.999Z</time></trkpt><trkpt lat="43.604118125066876" lon="10.975744606209592"><ele>51.8</ele><time>2026-04-26T13:33:30.999Z</time></trkpt><trkpt lat="43.604044208430714" lon="10.975724588994"><ele>52.0</ele><time>2026-04-26T13:33:31.999Z</time></trkpt><trkpt lat="43.60398320065372" lon="10.975703052391196"><ele>51.99999999999999</ele><time>2026-04-26T13:33:32.999Z</time></trkpt><trkpt lat="43.60390568424342" lon="10.975680287342477"><ele>52.0</ele><time>2026-04-26T13:33:34.999Z</time></trkpt><trkpt lat="43.60384384906064" lon="10.975660720288502"><ele>52.0</ele><time>2026-04-26T13:33:38Z</time></trkpt><trkpt lat="43.603776827553055" lon="10.97564227478739"><ele>52.0</ele><time>2026-04-26T13:34:25.002Z</time></trkpt><trkpt lat="43.60371140812593" lon="10.975622865485011"><ele>51.99999999999999</ele><time>2026-04-26T13:34:26.002Z</time></trkpt><trkpt lat="43.6036074382251" lon="10.975597196771968"><ele>52.0</ele><time>2026-04-26T13:34:27.002Z</time></trkpt><trkpt lat="43.603482186737445" lon="10.975570395511824"><ele>52.0</ele><time>2026-04-26T13:34:28.002Z</time></trkpt><trkpt lat="43.603333738457906" lon="10.975535496044948"><ele>52.0</ele><time>2026-04-26T13:34:29.002Z</time></trkpt><trkpt lat="43.603193684087394" lon="10.975500328729435"><ele>52.0</ele><time>2026-04-26T13:34:30.002Z</time></trkpt><trkpt lat="43.60305276747535" lon="10.97546344588621"><ele>52.0</ele><time>2026-04-26T13:34:31.002Z</time></trkpt><trkpt lat="43.602882894299654" lon="10.975417691086937"><ele>53.0</ele><time>2026-04-26T13:34:32.002Z</time></trkpt><trkpt lat="43.60271367388667" lon="10.975367039607821"><ele>54.0</ele><time>2026-04-26T13:34:33.002Z</time></trkpt><trkpt lat="43.60255357331432" lon="10.975311340513114"><ele>55.0</ele><time>2026-04-26T13:34:34.002Z</time></trkpt><trkpt lat="43.60239063510503" lon="10.975262000839653"><ele>55.0</ele><time>2026-04-26T13:34:35.002Z</time></trkpt><trkpt lat="43.602204000068106" lon="10.975212513634988"><ele>55.0</ele><time>2026-04-26T13:34:36.002Z</time></trkpt><trkpt lat="43.602014560566424" lon="10.975160500009531"><ele>55.0</ele><time>2026-04-26T13:34:37.002Z</time></trkpt><trkpt lat="43.60183041326097" lon="10.975106538841873"><ele>54.0</ele><time>2026-04-26T13:34:38.002Z</time></trkpt><trkpt lat="43.601641963877256" lon="10.975050656532932"><ele>53.0</ele><time>2026-04-26T13:34:39.002Z</time></trkpt><trkpt lat="43.6014525673707" lon="10.975001201558975"><ele>52.0</ele><time>2026-04-26T13:34:40.002Z</time></trkpt><trkpt lat="43.60126963132604" lon="10.974956902288708"><ele>52.666666666666664</ele><time>2026-04-26T13:34:41.002Z</time></trkpt><trkpt lat="43.601097448237695" lon="10.974915123411556"><ele>53.33333333333333</ele><time>2026-04-26T13:34:42.002Z</time></trkpt><trkpt lat="43.600923303479505" lon="10.97487612738482"><ele>54.0</ele><time>2026-04-26T13:34:43.002Z</time></trkpt><trkpt lat="43.60074127917253" lon="10.974840529537246"><ele>54.0</ele><time>2026-04-26T13:34:44.002Z</time></trkpt><trkpt lat="43.60055395222674" lon="10.974811077575138"><ele>54.0</ele><time>2026-04-26T13:34:45.002Z</time></trkpt><trkpt lat="43.600373330628265" lon="10.97478906866848"><ele>54.0</ele><time>2026-04-26T13:34:46.002Z</time></trkpt><trkpt lat="43.60020360635179" lon="10.974770311658348"><ele>56.33333333333333</ele><time>2026-04-26T13:34:47.002Z</time></trkpt><trkpt lat="43.6000390187206" lon="10.97475645008256"><ele>58.666666666666664</ele><time>2026-04-26T13:34:48.002Z</time></trkpt><trkpt lat="43.59988511592253" lon="10.97474262138708"><ele>61.0</ele><time>2026-04-26T13:34:49.003Z</time></trkpt><trkpt lat="43.59974329361465" lon="10.974723164580732"><ele>61.0</ele><time>2026-04-26T13:34:50.003Z</time></trkpt><trkpt lat="43.59960911282585" lon="10.974700824317605"><ele>61.0</ele><time>2026-04-26T13:34:51.003Z</time></trkpt><trkpt lat="43.599483217787835" lon="10.97467395065043"><ele>61.0</ele><time>2026-04-26T13:34:52.003Z</time></trkpt><trkpt lat="43.59936557227365" lon="10.974644398426767"><ele>61.0</ele><time>2026-04-26T13:34:53.003Z</time></trkpt><trkpt lat="43.59927147181797" lon="10.974618130152109"><ele>60.599999999999994</ele><time>2026-04-26T13:34:54.003Z</time></trkpt><trkpt lat="43.599197637360554" lon="10.974595237649831"><ele>60.199999999999996</ele><time>2026-04-26T13:34:55.003Z</time></trkpt><trkpt lat="43.599118073102304" lon="10.974565405341934"><ele>59.800000000000004</ele><time>2026-04-26T13:34:57.003Z</time></trkpt><trkpt lat="43.598957101988475" lon="10.974546960668054"><ele>59.400000000000006</ele><time>2026-04-26T13:34:59.003Z</time></trkpt><trkpt lat="43.598838005874256" lon="10.974523974023368"><ele>59.0</ele><time>2026-04-26T13:35:00.003Z</time></trkpt><trkpt lat="43.59867314803202" lon="10.974460358212324"><ele>59.333333333333336</ele><time>2026-04-26T13:35:01.003Z</time></trkpt><trkpt lat="43.59848556887032" lon="10.974372888355353"><ele>59.66666666666667</ele><time>2026-04-26T13:35:02.003Z</time></trkpt><trkpt lat="43.59831576844248" lon="10.974268349350526"><ele>60.0</ele><time>2026-04-26T13:35:03.003Z</time></trkpt><trkpt lat="43.59816461318203" lon="10.974146028652155"><ele>59.0</ele><time>2026-04-26T13:35:04.003Z</time></trkpt><trkpt lat="43.59800642580553" lon="10.974009172267083"><ele>58.0</ele><time>2026-04-26T13:35:05.003Z</time></trkpt><trkpt lat="43.5978532391026" lon="10.973867386588946"><ele>57.0</ele><time>2026-04-26T13:35:06.003Z</time></trkpt><trkpt lat="43.59769839023427" lon="10.97371434946086"><ele>56.0</ele><time>2026-04-26T13:35:07.003Z</time></trkpt><trkpt lat="43.59753966701412" lon="10.973542391049085"><ele>55.0</ele><time>2026-04-26T13:35:08.003Z</time></trkpt><trkpt lat="43.59737880666119" lon="10.973368906108432"><ele>54.0</ele><time>2026-04-26T13:35:09.003Z</time></trkpt><trkpt lat="43.597201772085185" lon="10.973188102386832"><ele>53.33333333333333</ele><time>2026-04-26T13:35:10.003Z</time></trkpt><trkpt lat="43.5970375304501" lon="10.973027115490334"><ele>52.666666666666664</ele><time>2026-04-26T13:35:11.003Z</time></trkpt><trkpt lat="43.59688443703522" lon="10.972876132693328"><ele>52.0</ele><time>2026-04-26T13:35:12.003Z</time></trkpt><trkpt lat="43.59671371403336" lon="10.972721730379336"><ele>52.0</ele><time>2026-04-26T13:35:13.003Z</time></trkpt><trkpt lat="43.5965276116913" lon="10.972579071535911"><ele>52.0</ele><time>2026-04-26T13:35:14.003Z</time></trkpt><trkpt lat="43.59634400329052" lon="10.972457672123904"><ele>52.0</ele><time>2026-04-26T13:35:15.003Z</time></trkpt><trkpt lat="43.59615688201125" lon="10.97236353981576"><ele>52.0</ele><time>2026-04-26T13:35:16.003Z</time></trkpt><trkpt lat="43.59596480613793" lon="10.97229093745437"><ele>52.0</ele><time>2026-04-26T13:35:17.003Z</time></trkpt><trkpt lat="43.59575755074704" lon="10.972242784155625"><ele>52.0</ele><time>2026-04-26T13:35:18.003Z</time></trkpt><trkpt lat="43.59553706080505" lon="10.972215408721606"><ele>52.0</ele><time>2026-04-26T13:35:18.998Z</time></trkpt><trkpt lat="43.59530936772785" lon="10.97220166138106"><ele>52.0</ele><time>2026-04-26T13:35:19.999Z</time></trkpt><trkpt lat="43.595076085508005" lon="10.972204956028987"><ele>52.0</ele><time>2026-04-26T13:35:20.999Z</time></trkpt><trkpt lat="43.59483730905703" lon="10.972215660673019"><ele>52.0</ele><time>2026-04-26T13:35:21.999Z</time></trkpt><trkpt lat="43.594601417297774" lon="10.972224881889938"><ele>51.666666666666664</ele><time>2026-04-26T13:35:22.999Z</time></trkpt><trkpt lat="43.59437713871904" lon="10.972232517734891"><ele>51.33333333333333</ele><time>2026-04-26T13:35:23.999Z</time></trkpt><trkpt lat="43.594169369952596" lon="10.97224133289002"><ele>51.0</ele><time>2026-04-26T13:35:24.999Z</time></trkpt><trkpt lat="43.5939746816426" lon="10.97224708423458"><ele>51.0</ele><time>2026-04-26T13:35:25.999Z</time></trkpt><trkpt lat="43.59379067301515" lon="10.9722521067065"><ele>51.0</ele><time>2026-04-26T13:35:26.999Z</time></trkpt><trkpt lat="43.5936176892187" lon="10.972257724394765"><ele>51.0</ele><time>2026-04-26T13:35:27.999Z</time></trkpt><trkpt lat="43.59345533506115" lon="10.972262342589554"><ele>50.75</ele><time>2026-04-26T13:35:28.999Z</time></trkpt><trkpt lat="43.59331661279761" lon="10.972258542673819"><ele>50.5</ele><time>2026-04-26T13:35:29.999Z</time></trkpt><trkpt lat="43.59318954517409" lon="10.972245533245536"><ele>50.25</ele><time>2026-04-26T13:35:30.999Z</time></trkpt><trkpt lat="43.59308582129575" lon="10.972207491110938"><ele>50.0</ele><time>2026-04-26T13:35:31.999Z</time></trkpt><trkpt lat="43.592982331645665" lon="10.972151681502028"><ele>50.0</ele><time>2026-04-26T13:35:32.999Z</time></trkpt><trkpt lat="43.592878175703426" lon="10.97209642525978"><ele>50.0</ele><time>2026-04-26T13:35:33.999Z</time></trkpt><trkpt lat="43.592776179808865" lon="10.972071057138784"><ele>50.0</ele><time>2026-04-26T13:35:34.999Z</time></trkpt><trkpt lat="43.592679077161385" lon="10.972091025094857"><ele>50.0</ele><time>2026-04-26T13:35:35.999Z</time></trkpt><trkpt lat="43.59260687810673" lon="10.972153205526517"><ele>50.0</ele><time>2026-04-26T13:35:37Z</time></trkpt><trkpt lat="43.592558491819" lon="10.972247366025789"><ele>50.2</ele><time>2026-04-26T13:35:38Z</time></trkpt><trkpt lat="43.592553434670215" lon="10.972348532887546"><ele>50.4</ele><time>2026-04-26T13:35:39Z</time></trkpt><trkpt lat="43.59257826681975" lon="10.97247020381368"><ele>50.599999999999994</ele><time>2026-04-26T13:35:40Z</time></trkpt><trkpt lat="43.592630450692056" lon="10.972587690175171"><ele>50.8</ele><time>2026-04-26T13:35:41Z</time></trkpt><trkpt lat="43.59266960058032" lon="10.97272110372415"><ele>51.0</ele><time>2026-04-26T13:35:42Z</time></trkpt><trkpt lat="43.59267345434424" lon="10.972889506943403"><ele>51.0</ele><time>2026-04-26T13:35:43Z</time></trkpt><trkpt lat="43.59264958738395" lon="10.973101352126898"><ele>51.0</ele><time>2026-04-26T13:35:44Z</time></trkpt><trkpt lat="43.592607443182565" lon="10.973341519318504"><ele>51.0</ele><time>2026-04-26T13:35:45Z</time></trkpt><trkpt lat="43.59256104098686" lon="10.97359499677246"><ele>51.0</ele><time>2026-04-26T13:35:46Z</time></trkpt><trkpt lat="43.59251656007607" lon="10.973857802219557"><ele>51.0</ele><time>2026-04-26T13:35:47Z</time></trkpt><trkpt lat="43.59247656434305" lon="10.974097730722592"><ele>51.0</ele><time>2026-04-26T13:35:48Z</time></trkpt><trkpt lat="43.59244072658323" lon="10.974321867930607"><ele>51.0</ele><time>2026-04-26T13:35:49Z</time></trkpt><trkpt lat="43.59240431004973" lon="10.974529505277701"><ele>51.0</ele><time>2026-04-26T13:35:50Z</time></trkpt><trkpt lat="43.59237207235903" lon="10.974710997550838"><ele>51.0</ele><time>2026-04-26T13:35:51Z</time></trkpt><trkpt lat="43.5923476903077" lon="10.974885793133888"><ele>51.0</ele><time>2026-04-26T13:35:52Z</time></trkpt><trkpt lat="43.59232514646178" lon="10.975055225791209"><ele>51.0</ele><time>2026-04-26T13:35:53Z</time></trkpt><trkpt lat="43.592304630883646" lon="10.97521265621347"><ele>51.0</ele><time>2026-04-26T13:35:54Z</time></trkpt><trkpt lat="43.592272030785985" lon="10.975345332521266"><ele>51.0</ele><time>2026-04-26T13:35:55Z</time></trkpt><trkpt lat="43.59222353428638" lon="10.97544425694958"><ele>51.0</ele><time>2026-04-26T13:35:56.001Z</time></trkpt><trkpt lat="43.5921615362839" lon="10.9755217455521"><ele>51.0</ele><time>2026-04-26T13:35:57.001Z</time></trkpt><trkpt lat="43.59207029273979" lon="10.975600233874601"><ele>51.0</ele><time>2026-04-26T13:35:58.001Z</time></trkpt><trkpt lat="43.59196357010865" lon="10.975698311872543"><ele>51.0</ele><time>2026-04-26T13:35:59.001Z</time></trkpt><trkpt lat="43.591848614684515" lon="10.975821150682396"><ele>51.0</ele><time>2026-04-26T13:36:00.001Z</time></trkpt><trkpt lat="43.59174187210644" lon="10.975934301266186"><ele>51.0</ele><time>2026-04-26T13:36:01.001Z</time></trkpt><trkpt lat="43.59163015102581" lon="10.976051052742486"><ele>51.33333333333333</ele><time>2026-04-26T13:36:02.001Z</time></trkpt><trkpt lat="43.59151663055804" lon="10.97616863932662"><ele>51.666666666666664</ele><time>2026-04-26T13:36:03.001Z</time></trkpt><trkpt lat="43.5913928823184" lon="10.976297271565796"><ele>52.0</ele><time>2026-04-26T13:36:04.001Z</time></trkpt><trkpt lat="43.591255819741704" lon="10.976438080684071"><ele>52.0</ele><time>2026-04-26T13:36:05.001Z</time></trkpt><trkpt lat="43.59111456615918" lon="10.976594884589717"><ele>52.0</ele><time>2026-04-26T13:36:06.001Z</time></trkpt><trkpt lat="43.590977473308065" lon="10.976733820278326"><ele>52.0</ele><time>2026-04-26T13:36:07.001Z</time></trkpt><trkpt lat="43.59083231591335" lon="10.976879192129909"><ele>52.0</ele><time>2026-04-26T13:36:08.001Z</time></trkpt><trkpt lat="43.59069304964747" lon="10.977019600091328"><ele>52.0</ele><time>2026-04-26T13:36:09.001Z</time></trkpt><trkpt lat="43.59055943494846" lon="10.977158061801543"><ele>52.0</ele><time>2026-04-26T13:36:10.001Z</time></trkpt><trkpt lat="43.59040773291377" lon="10.977309960701543"><ele>52.0</ele><time>2026-04-26T13:36:11.001Z</time></trkpt><trkpt lat="43.5902482589439" lon="10.97746609880459"><ele>52.0</ele><time>2026-04-26T13:36:12.001Z</time></trkpt><trkpt lat="43.59008692258135" lon="10.977626739040458"><ele>52.0</ele><time>2026-04-26T13:36:13.001Z</time></trkpt><trkpt lat="43.589918570046784" lon="10.977797072217607"><ele>52.0</ele><time>2026-04-26T13:36:14.001Z</time></trkpt><trkpt lat="43.58976143875833" lon="10.977954151670069"><ele>52.0</ele><time>2026-04-26T13:36:15.001Z</time></trkpt><trkpt lat="43.58960481859269" lon="10.978110938579444"><ele>52.0</ele><time>2026-04-26T13:36:16.001Z</time></trkpt><trkpt lat="43.58944994897152" lon="10.97826739225744"><ele>51.666666666666664</ele><time>2026-04-26T13:36:17.001Z</time></trkpt><trkpt lat="43.58930654833839" lon="10.978410719514834"><ele>51.33333333333333</ele><time>2026-04-26T13:36:18.001Z</time></trkpt><trkpt lat="43.58916338653172" lon="10.978551279338687"><ele>51.0</ele><time>2026-04-26T13:36:19.001Z</time></trkpt><trkpt lat="43.58902143977438" lon="10.978691078574652"><ele>51.0</ele><time>2026-04-26T13:36:20.001Z</time></trkpt><trkpt lat="43.588873652932854" lon="10.97883730937673"><ele>51.0</ele><time>2026-04-26T13:36:21.001Z</time></trkpt><trkpt lat="43.588730133664455" lon="10.97898142196297"><ele>51.0</ele><time>2026-04-26T13:36:22.001Z</time></trkpt><trkpt lat="43.58857677021205" lon="10.979130582941583"><ele>51.0</ele><time>2026-04-26T13:36:23.001Z</time></trkpt><trkpt lat="43.588428360707795" lon="10.979277474501657"><ele>51.0</ele><time>2026-04-26T13:36:24.002Z</time></trkpt><trkpt lat="43.58829948548546" lon="10.97941025812015"><ele>51.0</ele><time>2026-04-26T13:36:25.002Z</time></trkpt><trkpt lat="43.58817191716018" lon="10.979535861637428"><ele>51.0</ele><time>2026-04-26T13:36:26.002Z</time></trkpt><trkpt lat="43.588055235848124" lon="10.979649277703556"><ele>51.0</ele><time>2026-04-26T13:36:27.002Z</time></trkpt><trkpt lat="43.58794350375224" lon="10.979757563704151"><ele>51.0</ele><time>2026-04-26T13:36:28.002Z</time></trkpt><trkpt lat="43.58782911402479" lon="10.979876795925792"><ele>51.0</ele><time>2026-04-26T13:36:29.002Z</time></trkpt><trkpt lat="43.58771821757609" lon="10.979995218107751"><ele>51.5</ele><time>2026-04-26T13:36:30.002Z</time></trkpt><trkpt lat="43.58761783254314" lon="10.980104419876614"><ele>52.0</ele><time>2026-04-26T13:36:31.002Z</time></trkpt><trkpt lat="43.587527075098166" lon="10.980210768990368"><ele>52.5</ele><time>2026-04-26T13:36:32.002Z</time></trkpt><trkpt lat="43.58744285215043" lon="10.980310159102178"><ele>53.0</ele><time>2026-04-26T13:36:33.002Z</time></trkpt><trkpt lat="43.5873652759824" lon="10.980405129788195"><ele>53.0</ele><time>2026-04-26T13:36:34.002Z</time></trkpt><trkpt lat="43.587288178918634" lon="10.980493210655517"><ele>53.0</ele><time>2026-04-26T13:36:35.002Z</time></trkpt><trkpt lat="43.58721600348119" lon="10.980578729314788"><ele>53.0</ele><time>2026-04-26T13:36:36.002Z</time></trkpt><trkpt lat="43.58714979148173" lon="10.98065208058245"><ele>53.0</ele><time>2026-04-26T13:36:37.002Z</time></trkpt><trkpt lat="43.58708684401503" lon="10.980716931255246"><ele>53.0</ele><time>2026-04-26T13:36:38.002Z</time></trkpt><trkpt lat="43.587011060467475" lon="10.980790134894042"><ele>52.599999999999994</ele><time>2026-04-26T13:36:39.002Z</time></trkpt><trkpt lat="43.586934625383556" lon="10.980852870602401"><ele>52.199999999999996</ele><time>2026-04-26T13:36:40.002Z</time></trkpt><trkpt lat="43.586857368892574" lon="10.980924415953233"><ele>51.8</ele><time>2026-04-26T13:36:41.002Z</time></trkpt><trkpt lat="43.58677398604083" lon="10.981010108375694"><ele>51.4</ele><time>2026-04-26T13:36:42.002Z</time></trkpt><trkpt lat="43.58667990282083" lon="10.981105282312008"><ele>51.0</ele><time>2026-04-26T13:36:43.002Z</time></trkpt><trkpt lat="43.58657787841788" lon="10.981209240540778"><ele>51.0</ele><time>2026-04-26T13:36:44.002Z</time></trkpt><trkpt lat="43.586479211349456" lon="10.981309800631157"><ele>51.0</ele><time>2026-04-26T13:36:45.002Z</time></trkpt><trkpt lat="43.58638073535876" lon="10.981405959475556"><ele>51.0</ele><time>2026-04-26T13:36:46.002Z</time></trkpt><trkpt lat="43.586266425299684" lon="10.98152089769216"><ele>51.0</ele><time>2026-04-26T13:36:47.002Z</time></trkpt><trkpt lat="43.58614033490781" lon="10.98165288146657"><ele>51.0</ele><time>2026-04-26T13:36:48.002Z</time></trkpt><trkpt lat="43.5859985478255" lon="10.98180023109232"><ele>51.0</ele><time>2026-04-26T13:36:49.002Z</time></trkpt><trkpt lat="43.585861651228804" lon="10.981941404920502"><ele>51.0</ele><time>2026-04-26T13:36:50.002Z</time></trkpt><trkpt lat="43.58572373419241" lon="10.982083447066051"><ele>51.0</ele><time>2026-04-26T13:36:51.002Z</time></trkpt><trkpt lat="43.58558574031424" lon="10.98222749002616"><ele>51.0</ele><time>2026-04-26T13:36:52.002Z</time></trkpt><trkpt lat="43.585452191639156" lon="10.982371305727463"><ele>51.0</ele><time>2026-04-26T13:36:53.002Z</time></trkpt><trkpt lat="43.585332438820636" lon="10.982495351964"><ele>50.8</ele><time>2026-04-26T13:36:54.002Z</time></trkpt><trkpt lat="43.58522592983783" lon="10.982608911494495"><ele>50.599999999999994</ele><time>2026-04-26T13:36:55.002Z</time></trkpt><trkpt lat="43.58514013488449" lon="10.982698426271163"><ele>50.4</ele><time>2026-04-26T13:36:56.003Z</time></trkpt><trkpt lat="43.58506847186218" lon="10.982763988841764"><ele>50.2</ele><time>2026-04-26T13:36:57.003Z</time></trkpt><trkpt lat="43.584990846866" lon="10.98280938799598"><ele>50.0</ele><time>2026-04-26T13:36:58.003Z</time></trkpt><trkpt lat="43.584882524895406" lon="10.982830619114596"><ele>50.0</ele><time>2026-04-26T13:36:59.003Z</time></trkpt><trkpt lat="43.58476486454723" lon="10.982839385660995"><ele>50.0</ele><time>2026-04-26T13:37:00.003Z</time></trkpt><trkpt lat="43.58465148369592" lon="10.9828349491649"><ele>50.0</ele><time>2026-04-26T13:37:01.003Z</time></trkpt><trkpt lat="43.58456422297782" lon="10.982815209387214"><ele>50.0</ele><time>2026-04-26T13:37:02.003Z</time></trkpt><trkpt lat="43.58448315099576" lon="10.982771490022355"><ele>50.0</ele><time>2026-04-26T13:37:03.003Z</time></trkpt><trkpt lat="43.5843921584608" lon="10.982687112198645"><ele>50.6</ele><time>2026-04-26T13:37:04.003Z</time></trkpt><trkpt lat="43.584287935301276" lon="10.982580684176465"><ele>51.2</ele><time>2026-04-26T13:37:05.003Z</time></trkpt><trkpt lat="43.58418117599819" lon="10.98249154121532"><ele>51.8</ele><time>2026-04-26T13:37:06.003Z</time></trkpt><trkpt lat="43.58408935588312" lon="10.982433804803748"><ele>52.4</ele><time>2026-04-26T13:37:07.003Z</time></trkpt><trkpt lat="43.58400113333311" lon="10.982399482124839"><ele>53.0</ele><time>2026-04-26T13:37:08.003Z</time></trkpt><trkpt lat="43.583911873867066" lon="10.982399204201188"><ele>53.0</ele><time>2026-04-26T13:37:09.003Z</time></trkpt><trkpt lat="43.58381955297679" lon="10.982436201443502"><ele>53.0</ele><time>2026-04-26T13:37:10.003Z</time></trkpt><trkpt lat="43.58372561234526" lon="10.982509597582867"><ele>53.0</ele><time>2026-04-26T13:37:11.003Z</time></trkpt><trkpt lat="43.583623914900784" lon="10.982577858352144"><ele>53.0</ele><time>2026-04-26T13:37:12.003Z</time></trkpt><trkpt lat="43.58351918763847" lon="10.982647814177835"><ele>53.0</ele><time>2026-04-26T13:37:13.003Z</time></trkpt><trkpt lat="43.583413278603864" lon="10.982693393280414"><ele>53.00000000000001</ele><time>2026-04-26T13:37:14.003Z</time></trkpt><trkpt lat="43.583312669557195" lon="10.982702641390567"><ele>53.0</ele><time>2026-04-26T13:37:15.003Z</time></trkpt><trkpt lat="43.58321776755977" lon="10.982692897236351"><ele>53.0</ele><time>2026-04-26T13:37:16.003Z</time></trkpt><trkpt lat="43.583132571191555" lon="10.982688214469995"><ele>53.0</ele><time>2026-04-26T13:37:17.003Z</time></trkpt><trkpt lat="43.5830501991701" lon="10.982685597801636"><ele>53.00000000000001</ele><time>2026-04-26T13:37:18.003Z</time></trkpt><trkpt lat="43.582976573918685" lon="10.982684656223594"><ele>53.0</ele><time>2026-04-26T13:37:19.003Z</time></trkpt><trkpt lat="43.58290495814317" lon="10.982688831828186"><ele>53.42857142857143</ele><time>2026-04-26T13:37:20.003Z</time></trkpt><trkpt lat="43.582837056791156" lon="10.982693134427032"><ele>53.857142857142854</ele><time>2026-04-26T13:37:21.003Z</time></trkpt><trkpt lat="43.58277330725382" lon="10.982703859002642"><ele>54.285714285714285</ele><time>2026-04-26T13:37:22.003Z</time></trkpt><trkpt lat="43.58271126804505" lon="10.982733450552004"><ele>54.714285714285715</ele><time>2026-04-26T13:37:23.003Z</time></trkpt><trkpt lat="43.582655439008505" lon="10.982774991685792"><ele>55.14285714285714</ele><time>2026-04-26T13:37:24.003Z</time></trkpt><trkpt lat="43.58260394113683" lon="10.982829553996455"><ele>55.57142857142857</ele><time>2026-04-26T13:37:24.998Z</time></trkpt><trkpt lat="43.58255296543354" lon="10.982911204672009"><ele>56.0</ele><time>2026-04-26T13:37:25.998Z</time></trkpt><trkpt lat="43.582502311183674" lon="10.983026984402091"><ele>56.0</ele><time>2026-04-26T13:37:26.999Z</time></trkpt><trkpt lat="43.58245795325006" lon="10.983185292486667"><ele>56.0</ele><time>2026-04-26T13:37:27.999Z</time></trkpt><trkpt lat="43.58241531526023" lon="10.983364053763802"><ele>56.0</ele><time>2026-04-26T13:37:28.999Z</time></trkpt><trkpt lat="43.58236992011236" lon="10.98353464875872"><ele>56.0</ele><time>2026-04-26T13:37:29.999Z</time></trkpt><trkpt lat="43.582337064910426" lon="10.983653376418964"><ele>55.833333333333336</ele><time>2026-04-26T13:37:30.999Z</time></trkpt><trkpt lat="43.58228203018742" lon="10.983768688456175"><ele>55.66666666666667</ele><time>2026-04-26T13:37:32.999Z</time></trkpt><trkpt lat="43.582192499189425" lon="10.983758195619618"><ele>55.5</ele><time>2026-04-26T13:37:34.999Z</time></trkpt><trkpt lat="43.582134739498585" lon="10.98372054858607"><ele>55.33333333333333</ele><time>2026-04-26T13:37:35.999Z</time></trkpt><trkpt lat="43.58207777032863" lon="10.983654777282835"><ele>55.166666666666664</ele><time>2026-04-26T13:37:36.999Z</time></trkpt><trkpt lat="43.582018601581744" lon="10.983575405659222"><ele>55.0</ele><time>2026-04-26T13:37:37.999Z</time></trkpt><trkpt lat="43.581953151349914" lon="10.98351312212885"><ele>55.0</ele><time>2026-04-26T13:37:38.999Z</time></trkpt><trkpt lat="43.58182476934978" lon="10.983529544801955"><ele>55.0</ele><time>2026-04-26T13:37:40.999Z</time></trkpt><trkpt lat="43.58176460603763" lon="10.983589412007435"><ele>55.0</ele><time>2026-04-26T13:37:41.999Z</time></trkpt><trkpt lat="43.58170671245643" lon="10.98367677293693"><ele>55.0</ele><time>2026-04-26T13:37:43Z</time></trkpt><trkpt lat="43.58164288052112" lon="10.98379679857554"><ele>55.0</ele><time>2026-04-26T13:37:44Z</time></trkpt><trkpt lat="43.58157028602021" lon="10.983932573612583"><ele>55.0</ele><time>2026-04-26T13:37:45Z</time></trkpt><trkpt lat="43.58148675353585" lon="10.984085358730889"><ele>55.0</ele><time>2026-04-26T13:37:46Z</time></trkpt><trkpt lat="43.5814004112168" lon="10.984233634435723"><ele>55.0</ele><time>2026-04-26T13:37:47Z</time></trkpt><trkpt lat="43.58132211640127" lon="10.984368726987656"><ele>55.0</ele><time>2026-04-26T13:37:48Z</time></trkpt><trkpt lat="43.581252692528906" lon="10.984482847752187"><ele>55.0</ele><time>2026-04-26T13:37:49Z</time></trkpt><trkpt lat="43.581183571308685" lon="10.984590240711537"><ele>55.0</ele><time>2026-04-26T13:37:50Z</time></trkpt><trkpt lat="43.581113634629915" lon="10.984706883534896"><ele>55.0</ele><time>2026-04-26T13:37:51Z</time></trkpt><trkpt lat="43.58103639772287" lon="10.984831283293307"><ele>55.0</ele><time>2026-04-26T13:37:52Z</time></trkpt><trkpt lat="43.5809498120176" lon="10.984964034675565"><ele>55.75</ele><time>2026-04-26T13:37:53Z</time></trkpt><trkpt lat="43.58085685550887" lon="10.985111423134029"><ele>56.5</ele><time>2026-04-26T13:37:54Z</time></trkpt><trkpt lat="43.58077149525317" lon="10.985253665745404"><ele>57.25</ele><time>2026-04-26T13:37:55Z</time></trkpt><trkpt lat="43.580694961339084" lon="10.985376222692494"><ele>58.0</ele><time>2026-04-26T13:37:56Z</time></trkpt><trkpt lat="43.58062490986847" lon="10.985489182112572"><ele>58.0</ele><time>2026-04-26T13:37:57Z</time></trkpt><trkpt lat="43.58057500353168" lon="10.985588961080001"><ele>58.0</ele><time>2026-04-26T13:37:58Z</time></trkpt><trkpt lat="43.58055393580105" lon="10.985690823450177"><ele>58.0</ele><time>2026-04-26T13:37:59Z</time></trkpt><trkpt lat="43.58056088412628" lon="10.985809602081607"><ele>58.0</ele><time>2026-04-26T13:38:00Z</time></trkpt><trkpt lat="43.58059423233551" lon="10.985940021547739"><ele>58.0</ele><time>2026-04-26T13:38:01Z</time></trkpt><trkpt lat="43.58064608694345" lon="10.986087683377908"><ele>57.666666666666664</ele><time>2026-04-26T13:38:02.001Z</time></trkpt><trkpt lat="43.5807083178043" lon="10.986271663685434"><ele>57.33333333333333</ele><time>2026-04-26T13:38:03.001Z</time></trkpt><trkpt lat="43.58077314783502" lon="10.986496342329733"><ele>57.0</ele><time>2026-04-26T13:38:04.001Z</time></trkpt><trkpt lat="43.580833586741235" lon="10.986733027200584"><ele>56.5</ele><time>2026-04-26T13:38:05.001Z</time></trkpt><trkpt lat="43.58088426769063" lon="10.986954192137574"><ele>56.0</ele><time>2026-04-26T13:38:06.001Z</time></trkpt><trkpt lat="43.58093143414022" lon="10.98714629508861"><ele>55.5</ele><time>2026-04-26T13:38:07.001Z</time></trkpt><trkpt lat="43.58098743799948" lon="10.987310348957411"><ele>55.0</ele><time>2026-04-26T13:38:08.001Z</time></trkpt><trkpt lat="43.58105962208882" lon="10.98746132684687"><ele>55.666666666666664</ele><time>2026-04-26T13:38:09.001Z</time></trkpt><trkpt lat="43.58115734193612" lon="10.987628724794954"><ele>56.33333333333333</ele><time>2026-04-26T13:38:10.001Z</time></trkpt><trkpt lat="43.58126840711232" lon="10.987796050703933"><ele>57.0</ele><time>2026-04-26T13:38:11.001Z</time></trkpt><trkpt lat="43.58138187528885" lon="10.987964410774222"><ele>56.2</ele><time>2026-04-26T13:38:12.001Z</time></trkpt><trkpt lat="43.581473391302346" lon="10.988101976757093"><ele>55.400000000000006</ele><time>2026-04-26T13:38:13.001Z</time></trkpt><trkpt lat="43.58154369168409" lon="10.988214241425865"><ele>54.599999999999994</ele><time>2026-04-26T13:38:14.001Z</time></trkpt><trkpt lat="43.581593219250585" lon="10.988311614026903"><ele>53.8</ele><time>2026-04-26T13:38:15.001Z</time></trkpt><trkpt lat="43.58163175367267" lon="10.988408890628495"><ele>53.0</ele><time>2026-04-26T13:38:16.001Z</time></trkpt><trkpt lat="43.581646949324856" lon="10.98850912272166"><ele>53.0</ele><time>2026-04-26T13:38:17.001Z</time></trkpt><trkpt lat="43.581636926714005" lon="10.988612711352104"><ele>53.0</ele><time>2026-04-26T13:38:18.001Z</time></trkpt><trkpt lat="43.581599840924156" lon="10.988702208887059"><ele>53.0</ele><time>2026-04-26T13:38:19.001Z</time></trkpt><trkpt lat="43.58154271358988" lon="10.98879791821588"><ele>53.0</ele><time>2026-04-26T13:38:20.001Z</time></trkpt><trkpt lat="43.58145976017979" lon="10.988924777363497"><ele>53.0</ele><time>2026-04-26T13:38:21.001Z</time></trkpt><trkpt lat="43.58136123660792" lon="10.989086041514044"><ele>53.0</ele><time>2026-04-26T13:38:22.001Z</time></trkpt><trkpt lat="43.58126008580883" lon="10.98925688749216"><ele>53.0</ele><time>2026-04-26T13:38:23.001Z</time></trkpt><trkpt lat="43.58115731284249" lon="10.989440509588409"><ele>53.0</ele><time>2026-04-26T13:38:24.001Z</time></trkpt><trkpt lat="43.581064338283056" lon="10.989641052544938"><ele>53.25</ele><time>2026-04-26T13:38:25.001Z</time></trkpt><trkpt lat="43.58099367166045" lon="10.989815943684054"><ele>53.5</ele><time>2026-04-26T13:38:26.001Z</time></trkpt><trkpt lat="43.58093668203552" lon="10.989974962023123"><ele>53.75</ele><time>2026-04-26T13:38:27.001Z</time></trkpt><trkpt lat="43.58088306195357" lon="10.990126319917515"><ele>54.0</ele><time>2026-04-26T13:38:28.001Z</time></trkpt><trkpt lat="43.58083112049921" lon="10.990256972097628"><ele>54.2</ele><time>2026-04-26T13:38:29.001Z</time></trkpt><trkpt lat="43.58078207734231" lon="10.990375129527145"><ele>54.400000000000006</ele><time>2026-04-26T13:38:30.001Z</time></trkpt><trkpt lat="43.58073945236193" lon="10.99047250216475"><ele>54.6</ele><time>2026-04-26T13:38:31.002Z</time></trkpt><trkpt lat="43.58068112143188" lon="10.990575107712813"><ele>54.8</ele><time>2026-04-26T13:38:33.002Z</time></trkpt><trkpt lat="43.580605421209306" lon="10.990609355993262"><ele>55.0</ele><time>2026-04-26T13:38:35.002Z</time></trkpt><trkpt lat="43.58049485699435" lon="10.990569420079769"><ele>55.0</ele><time>2026-04-26T13:38:37.002Z</time></trkpt><trkpt lat="43.58042537597717" lon="10.990507300903207"><ele>55.0</ele><time>2026-04-26T13:38:38.002Z</time></trkpt><trkpt lat="43.58034731820993" lon="10.990413271248768"><ele>55.0</ele><time>2026-04-26T13:38:39.002Z</time></trkpt><trkpt lat="43.58026639940466" lon="10.990306713734944"><ele>55.0</ele><time>2026-04-26T13:38:40.002Z</time></trkpt><trkpt lat="43.58016720052253" lon="10.990194898057577"><ele>55.0</ele><time>2026-04-26T13:38:41.002Z</time></trkpt><trkpt lat="43.58005509175233" lon="10.990068019135729"><ele>55.0</ele><time>2026-04-26T13:38:42.002Z</time></trkpt><trkpt lat="43.57994424278561" lon="10.989941651099072"><ele>55.0</ele><time>2026-04-26T13:38:43.002Z</time></trkpt><trkpt lat="43.579852850836225" lon="10.989834531018221"><ele>55.0</ele><time>2026-04-26T13:38:44.002Z</time></trkpt><trkpt lat="43.57977936828056" lon="10.989746587708781"><ele>55.0</ele><time>2026-04-26T13:38:45.002Z</time></trkpt><trkpt lat="43.5797128085369" lon="10.989688229784536"><ele>55.0</ele><time>2026-04-26T13:38:46.002Z</time></trkpt><trkpt lat="43.579635435656066" lon="10.989666356486483"><ele>54.99999999999999</ele><time>2026-04-26T13:38:47.002Z</time></trkpt><trkpt lat="43.579544805123966" lon="10.989673333117228"><ele>55.0</ele><time>2026-04-26T13:38:48.002Z</time></trkpt><trkpt lat="43.57945534549209" lon="10.989711901959877"><ele>55.0</ele><time>2026-04-26T13:38:49.002Z</time></trkpt><trkpt lat="43.57937632730553" lon="10.989773926910892"><ele>55.0</ele><time>2026-04-26T13:38:50.002Z</time></trkpt><trkpt lat="43.57932362777527" lon="10.989850627902516"><ele>54.99999999999999</ele><time>2026-04-26T13:38:51.002Z</time></trkpt><trkpt lat="43.57929165101427" lon="10.989956007261371"><ele>55.0</ele><time>2026-04-26T13:38:52.002Z</time></trkpt><trkpt lat="43.57927979282412" lon="10.990097525629162"><ele>55.2</ele><time>2026-04-26T13:38:53.002Z</time></trkpt><trkpt lat="43.57927046431445" lon="10.990237052707815"><ele>55.4</ele><time>2026-04-26T13:38:54.002Z</time></trkpt><trkpt lat="43.57920875521486" lon="10.990344745774474"><ele>55.599999999999994</ele><time>2026-04-26T13:38:56.002Z</time></trkpt><trkpt lat="43.57914876960706" lon="10.990373561771127"><ele>55.8</ele><time>2026-04-26T13:38:57.002Z</time></trkpt><trkpt lat="43.57906119809312" lon="10.99040586514368"><ele>56.0</ele><time>2026-04-26T13:38:58.002Z</time></trkpt><trkpt lat="43.578945553892524" lon="10.99043872678811"><ele>56.0</ele><time>2026-04-26T13:38:59.002Z</time></trkpt><trkpt lat="43.57881092744279" lon="10.990490856822623"><ele>56.0</ele><time>2026-04-26T13:39:00.002Z</time></trkpt><trkpt lat="43.57866971151847" lon="10.990562124030557"><ele>56.0</ele><time>2026-04-26T13:39:01.002Z</time></trkpt><trkpt lat="43.57853519975335" lon="10.990613178747841"><ele>56.0</ele><time>2026-04-26T13:39:02.002Z</time></trkpt><trkpt lat="43.5784002202634" lon="10.990637672506292"><ele>56.333333333333336</ele><time>2026-04-26T13:39:03.003Z</time></trkpt><trkpt lat="43.57823458455392" lon="10.990653720969748"><ele>56.66666666666667</ele><time>2026-04-26T13:39:04.003Z</time></trkpt><trkpt lat="43.57807009152662" lon="10.990667456955043"><ele>57.0</ele><time>2026-04-26T13:39:05.003Z</time></trkpt><trkpt lat="43.57792198203456" lon="10.990691712390804"><ele>56.5</ele><time>2026-04-26T13:39:06.003Z</time></trkpt><trkpt lat="43.577788757470074" lon="10.990728109956947"><ele>56.0</ele><time>2026-04-26T13:39:07.003Z</time></trkpt><trkpt lat="43.577658296395654" lon="10.990793675985882"><ele>55.5</ele><time>2026-04-26T13:39:08.003Z</time></trkpt><trkpt lat="43.577513764660715" lon="10.9908891805918"><ele>55.0</ele><time>2026-04-26T13:39:09.003Z</time></trkpt><trkpt lat="43.5773691171828" lon="10.991002389387935"><ele>55.0</ele><time>2026-04-26T13:39:10.003Z</time></trkpt><trkpt lat="43.57724332766312" lon="10.991105404045197"><ele>55.0</ele><time>2026-04-26T13:39:11.003Z</time></trkpt><trkpt lat="43.57714101912155" lon="10.991183768168089"><ele>55.0</ele><time>2026-04-26T13:39:12.003Z</time></trkpt><trkpt lat="43.57704754380021" lon="10.991241284911322"><ele>55.0</ele><time>2026-04-26T13:39:13.003Z</time></trkpt><trkpt lat="43.57695814163849" lon="10.991280147743176"><ele>55.0</ele><time>2026-04-26T13:39:14.003Z</time></trkpt><trkpt lat="43.57685779418654" lon="10.991285926662265"><ele>55.0</ele><time>2026-04-26T13:39:15.003Z</time></trkpt><trkpt lat="43.57674193035122" lon="10.991249661847613"><ele>55.0</ele><time>2026-04-26T13:39:16.003Z</time></trkpt><trkpt lat="43.57660754521395" lon="10.991187341463485"><ele>55.0</ele><time>2026-04-26T13:39:17.003Z</time></trkpt><trkpt lat="43.57644427177071" lon="10.99111288830197"><ele>55.0</ele><time>2026-04-26T13:39:18.003Z</time></trkpt><trkpt lat="43.5762574258538" lon="10.991038306321798"><ele>55.0</ele><time>2026-04-26T13:39:19.003Z</time></trkpt><trkpt lat="43.57609527946314" lon="10.990973610582424"><ele>55.0</ele><time>2026-04-26T13:39:20.003Z</time></trkpt><trkpt lat="43.575961407244456" lon="10.99091313357255"><ele>55.2</ele><time>2026-04-26T13:39:21.003Z</time></trkpt><trkpt lat="43.57584961821466" lon="10.9908448286067"><ele>55.4</ele><time>2026-04-26T13:39:22.003Z</time></trkpt><trkpt lat="43.57575325365844" lon="10.990772038260879"><ele>55.599999999999994</ele><time>2026-04-26T13:39:23.003Z</time></trkpt><trkpt lat="43.57568213081522" lon="10.990720514558845"><ele>55.8</ele><time>2026-04-26T13:39:24.003Z</time></trkpt><trkpt lat="43.57558825157111" lon="10.990735026280934"><ele>56.0</ele><time>2026-04-26T13:39:26.003Z</time></trkpt><trkpt lat="43.57551793016188" lon="10.99075823352793"><ele>56.75</ele><time>2026-04-26T13:39:27.003Z</time></trkpt><trkpt lat="43.57543525625865" lon="10.990726139583106"><ele>57.5</ele><time>2026-04-26T13:39:28.003Z</time></trkpt><trkpt lat="43.57534909319587" lon="10.990656792720316"><ele>58.25</ele><time>2026-04-26T13:39:29.003Z</time></trkpt><trkpt lat="43.57524206147172" lon="10.99056854196532"><ele>59.0</ele><time>2026-04-26T13:39:30.003Z</time></trkpt><trkpt lat="43.57510606086617" lon="10.990472850416847"><ele>59.0</ele><time>2026-04-26T13:39:30.999Z</time></trkpt><trkpt lat="43.574938718297645" lon="10.990359117509358"><ele>59.0</ele><time>2026-04-26T13:39:31.999Z</time></trkpt><trkpt lat="43.574775963434185" lon="10.990246538311904"><ele>59.0</ele><time>2026-04-26T13:39:32.999Z</time></trkpt><trkpt lat="43.57463094872997" lon="10.990143661508313"><ele>59.0</ele><time>2026-04-26T13:39:33.999Z</time></trkpt><trkpt lat="43.57450518088927" lon="10.990048498465672"><ele>59.0</ele><time>2026-04-26T13:39:34.999Z</time></trkpt><trkpt lat="43.574386813797844" lon="10.989953915813633"><ele>59.0</ele><time>2026-04-26T13:39:35.999Z</time></trkpt><trkpt lat="43.574280283687685" lon="10.989845042684708"><ele>59.0</ele><time>2026-04-26T13:39:36.999Z</time></trkpt><trkpt lat="43.574171252503575" lon="10.989708285737104"><ele>59.0</ele><time>2026-04-26T13:39:37.999Z</time></trkpt><trkpt lat="43.574052640589905" lon="10.989565686408664"><ele>59.0</ele><time>2026-04-26T13:39:38.999Z</time></trkpt><trkpt lat="43.57393316579205" lon="10.98944214713137"><ele>59.0</ele><time>2026-04-26T13:39:39.999Z</time></trkpt><trkpt lat="43.57380265185398" lon="10.989344070598184"><ele>59.25</ele><time>2026-04-26T13:39:40.999Z</time></trkpt><trkpt lat="43.57365860275216" lon="10.989261492159525"><ele>59.5</ele><time>2026-04-26T13:39:41.999Z</time></trkpt><trkpt lat="43.57352095174473" lon="10.989190766404917"><ele>59.75</ele><time>2026-04-26T13:39:42.999Z</time></trkpt><trkpt lat="43.57339218183678" lon="10.989108422212073"><ele>60.0</ele><time>2026-04-26T13:39:43.999Z</time></trkpt><trkpt lat="43.573277429228355" lon="10.989006749454973"><ele>60.4</ele><time>2026-04-26T13:39:44.999Z</time></trkpt><trkpt lat="43.573185648174096" lon="10.988886949247298"><ele>60.8</ele><time>2026-04-26T13:39:45.999Z</time></trkpt><trkpt lat="43.573103660685724" lon="10.988745346262855"><ele>61.2</ele><time>2026-04-26T13:39:46.999Z</time></trkpt><trkpt lat="43.57303921009715" lon="10.98862857984829"><ele>61.6</ele><time>2026-04-26T13:39:48Z</time></trkpt><trkpt lat="43.57297980564788" lon="10.988549154709391"><ele>62.0</ele><time>2026-04-26T13:39:49Z</time></trkpt><trkpt lat="43.57292158648" lon="10.9884986474537"><ele>62.2</ele><time>2026-04-26T13:39:50Z</time></trkpt><trkpt lat="43.572844102142206" lon="10.98847697357649"><ele>62.400000000000006</ele><time>2026-04-26T13:39:51Z</time></trkpt><trkpt lat="43.572764228535505" lon="10.988499704729353"><ele>62.599999999999994</ele><time>2026-04-26T13:39:52Z</time></trkpt><trkpt lat="43.572686870111795" lon="10.988549429905971"><ele>62.8</ele><time>2026-04-26T13:39:53Z</time></trkpt><trkpt lat="43.57259261530193" lon="10.988612634313963"><ele>63.0</ele><time>2026-04-26T13:39:54Z</time></trkpt><trkpt lat="43.57247770784721" lon="10.988646421246775"><ele>63.0</ele><time>2026-04-26T13:39:55Z</time></trkpt><trkpt lat="43.57235299495809" lon="10.988651789093879"><ele>63.0</ele><time>2026-04-26T13:39:56Z</time></trkpt><trkpt lat="43.572220751882845" lon="10.988657822639423"><ele>63.0</ele><time>2026-04-26T13:39:57Z</time></trkpt><trkpt lat="43.57206905700045" lon="10.988660653067818"><ele>63.0</ele><time>2026-04-26T13:39:58Z</time></trkpt><trkpt lat="43.57192041928253" lon="10.988663456716337"><ele>63.75</ele><time>2026-04-26T13:39:59Z</time></trkpt><trkpt lat="43.571790833451416" lon="10.988680151224974"><ele>64.5</ele><time>2026-04-26T13:40:00Z</time></trkpt><trkpt lat="43.57166848840198" lon="10.988703885760634"><ele>65.25</ele><time>2026-04-26T13:40:01Z</time></trkpt><trkpt lat="43.571544576900365" lon="10.988753212416123"><ele>66.0</ele><time>2026-04-26T13:40:02Z</time></trkpt><trkpt lat="43.57140579303495" lon="10.988809858929914"><ele>66.0</ele><time>2026-04-26T13:40:03Z</time></trkpt><trkpt lat="43.57128725152074" lon="10.988875963810953"><ele>66.0</ele><time>2026-04-26T13:40:04Z</time></trkpt><trkpt lat="43.57117563369256" lon="10.988929058727464"><ele>66.0</ele><time>2026-04-26T13:40:05Z</time></trkpt><trkpt lat="43.57107114146716" lon="10.98897921851838"><ele>66.0</ele><time>2026-04-26T13:40:06Z</time></trkpt><trkpt lat="43.570986139425266" lon="10.9890355752212"><ele>66.6</ele><time>2026-04-26T13:40:07Z</time></trkpt><trkpt lat="43.57089614697724" lon="10.989086844320301"><ele>67.19999999999999</ele><time>2026-04-26T13:40:08.001Z</time></trkpt><trkpt lat="43.5708054346148" lon="10.989122983279238"><ele>67.80000000000001</ele><time>2026-04-26T13:40:09.001Z</time></trkpt><trkpt lat="43.57070375044117" lon="10.989127111877794"><ele>68.4</ele><time>2026-04-26T13:40:10.001Z</time></trkpt><trkpt lat="43.570583710675606" lon="10.98909630883416"><ele>69.0</ele><time>2026-04-26T13:40:11.001Z</time></trkpt><trkpt lat="43.57043401683102" lon="10.989048250765064"><ele>69.66666666666667</ele><time>2026-04-26T13:40:12.001Z</time></trkpt><trkpt lat="43.5702533257948" lon="10.988981736678248"><ele>70.33333333333334</ele><time>2026-04-26T13:40:13.001Z</time></trkpt><trkpt lat="43.57007097822033" lon="10.98891077640862"><ele>71.0</ele><time>2026-04-26T13:40:14.001Z</time></trkpt><trkpt lat="43.56992374240028" lon="10.988842710562308"><ele>71.0</ele><time>2026-04-26T13:40:15.001Z</time></trkpt><trkpt lat="43.56979587345246" lon="10.98878365035396"><ele>71.0</ele><time>2026-04-26T13:40:16.001Z</time></trkpt><trkpt lat="43.56967412495127" lon="10.988721692704678"><ele>71.0</ele><time>2026-04-26T13:40:17.001Z</time></trkpt><trkpt lat="43.56956214124497" lon="10.988659977993562"><ele>71.0</ele><time>2026-04-26T13:40:18.001Z</time></trkpt><trkpt lat="43.56945152028601" lon="10.988596874447962"><ele>71.0</ele><time>2026-04-26T13:40:19.001Z</time></trkpt><trkpt lat="43.56934957353367" lon="10.988531195674014"><ele>71.0</ele><time>2026-04-26T13:40:20.001Z</time></trkpt><trkpt lat="43.5692534257811" lon="10.988462436180493"><ele>71.0</ele><time>2026-04-26T13:40:21.001Z</time></trkpt><trkpt lat="43.569160760820566" lon="10.988391250468046"><ele>71.0</ele><time>2026-04-26T13:40:22.001Z</time></trkpt><trkpt lat="43.569071931134225" lon="10.988319114578632"><ele>71.0</ele><time>2026-04-26T13:40:23.001Z</time></trkpt><trkpt lat="43.568985799050964" lon="10.988248527086148"><ele>71.0</ele><time>2026-04-26T13:40:24.001Z</time></trkpt><trkpt lat="43.56889798285674" lon="10.98817623058052"><ele>71.0</ele><time>2026-04-26T13:40:25.001Z</time></trkpt><trkpt lat="43.568801027762916" lon="10.98808939024041"><ele>71.0</ele><time>2026-04-26T13:40:26.001Z</time></trkpt><trkpt lat="43.568703899582815" lon="10.987992213114929"><ele>71.0</ele><time>2026-04-26T13:40:27.001Z</time></trkpt><trkpt lat="43.56861048165949" lon="10.987881911491321"><ele>70.8</ele><time>2026-04-26T13:40:28.001Z</time></trkpt><trkpt lat="43.568532310435515" lon="10.98779493310741"><ele>70.6</ele><time>2026-04-26T13:40:29.001Z</time></trkpt><trkpt lat="43.568475617185705" lon="10.987722144131792"><ele>70.4</ele><time>2026-04-26T13:40:30.001Z</time></trkpt><trkpt lat="43.56842482963109" lon="10.987570184167474"><ele>70.2</ele><time>2026-04-26T13:40:32.001Z</time></trkpt><trkpt lat="43.56842021134432" lon="10.987459388329729"><ele>70.0</ele><time>2026-04-26T13:40:33.001Z</time></trkpt><trkpt lat="43.568414989692315" lon="10.987325683100156"><ele>70.83333333333333</ele><time>2026-04-26T13:40:34.001Z</time></trkpt><trkpt lat="43.5684012666064" lon="10.98719635022722"><ele>71.66666666666666</ele><time>2026-04-26T13:40:35.001Z</time></trkpt><trkpt lat="43.56838304455108" lon="10.987063492376185"><ele>72.5</ele><time>2026-04-26T13:40:36.001Z</time></trkpt><trkpt lat="43.56836810916654" lon="10.986949822007153"><ele>73.33333333333333</ele><time>2026-04-26T13:40:37.002Z</time></trkpt><trkpt lat="43.56835624933863" lon="10.986850908072471"><ele>74.16666666666667</ele><time>2026-04-26T13:40:38.002Z</time></trkpt><trkpt lat="43.56833699241138" lon="10.9867624111611"><ele>75.0</ele><time>2026-04-26T13:40:39.002Z</time></trkpt><trkpt lat="43.56830023735218" lon="10.98668034682666"><ele>76.4</ele><time>2026-04-26T13:40:40.002Z</time></trkpt><trkpt lat="43.56824026010491" lon="10.986570320829086"><ele>77.8</ele><time>2026-04-26T13:40:41.002Z</time></trkpt><trkpt lat="43.56817655984606" lon="10.98646514991326"><ele>79.19999999999999</ele><time>2026-04-26T13:40:42.002Z</time></trkpt><trkpt lat="43.56811660056966" lon="10.986365262019003"><ele>80.6</ele><time>2026-04-26T13:40:43.002Z</time></trkpt><trkpt lat="43.5680515224539" lon="10.986264363164802"><ele>82.0</ele><time>2026-04-26T13:40:44.002Z</time></trkpt><trkpt lat="43.56799644915246" lon="10.986168239500227"><ele>82.0</ele><time>2026-04-26T13:40:45.002Z</time></trkpt><trkpt lat="43.56794026844711" lon="10.986047117481553"><ele>82.0</ele><time>2026-04-26T13:40:46.002Z</time></trkpt><trkpt lat="43.56791344192207" lon="10.98591767051655"><ele>82.0</ele><time>2026-04-26T13:40:47.002Z</time></trkpt><trkpt lat="43.567911037375836" lon="10.985788908220965"><ele>82.0</ele><time>2026-04-26T13:40:48.002Z</time></trkpt><trkpt lat="43.567901452385165" lon="10.985643995463853"><ele>82.0</ele><time>2026-04-26T13:40:49.002Z</time></trkpt><trkpt lat="43.56787285437063" lon="10.985506657770758"><ele>85.6</ele><time>2026-04-26T13:40:50.002Z</time></trkpt><trkpt lat="43.56782848209301" lon="10.985383843266254"><ele>89.19999999999999</ele><time>2026-04-26T13:40:51.002Z</time></trkpt><trkpt lat="43.567773338992914" lon="10.985263322502572"><ele>92.8</ele><time>2026-04-26T13:40:52.002Z</time></trkpt><trkpt lat="43.567707345147234" lon="10.985165781856047"><ele>96.4</ele><time>2026-04-26T13:40:53.002Z</time></trkpt><trkpt lat="43.56762143027923" lon="10.985082766400092"><ele>100.0</ele><time>2026-04-26T13:40:54.002Z</time></trkpt><trkpt lat="43.56751510553699" lon="10.985011765452589"><ele>100.5</ele><time>2026-04-26T13:40:55.002Z</time></trkpt><trkpt lat="43.56738837959722" lon="10.9849179168142"><ele>101.0</ele><time>2026-04-26T13:40:56.002Z</time></trkpt><trkpt lat="43.56726732749659" lon="10.98481586353133"><ele>101.5</ele><time>2026-04-26T13:40:57.002Z</time></trkpt><trkpt lat="43.56714821221251" lon="10.984704237108705"><ele>102.0</ele><time>2026-04-26T13:40:58.002Z</time></trkpt><trkpt lat="43.567029026320036" lon="10.984581777702884"><ele>103.5</ele><time>2026-04-26T13:40:59.002Z</time></trkpt><trkpt lat="43.56692877828479" lon="10.98446399325225"><ele>105.0</ele><time>2026-04-26T13:41:00.002Z</time></trkpt><trkpt lat="43.566843795606594" lon="10.98436872578182"><ele>106.5</ele><time>2026-04-26T13:41:01.002Z</time></trkpt><trkpt lat="43.56677706238558" lon="10.984288298510918"><ele>108.0</ele><time>2026-04-26T13:41:02.002Z</time></trkpt><trkpt lat="43.56669683189581" lon="10.984039781499353"><ele>110.25</ele><time>2026-04-26T13:41:05.002Z</time></trkpt><trkpt lat="43.56672206698652" lon="10.98393866878229"><ele>112.5</ele><time>2026-04-26T13:41:06.002Z</time></trkpt><trkpt lat="43.566756057396795" lon="10.983797944636198"><ele>114.75</ele><time>2026-04-26T13:41:07.002Z</time></trkpt><trkpt lat="43.56679341812064" lon="10.983628300814937"><ele>117.0</ele><time>2026-04-26T13:41:08.002Z</time></trkpt><trkpt lat="43.566822442945295" lon="10.9834348278263"><ele>118.8</ele><time>2026-04-26T13:41:09.003Z</time></trkpt><trkpt lat="43.566843766974664" lon="10.983248910297"><ele>120.6</ele><time>2026-04-26T13:41:10.003Z</time></trkpt><trkpt lat="43.566857728840745" lon="10.983098276882888"><ele>122.39999999999999</ele><time>2026-04-26T13:41:11.003Z</time></trkpt><trkpt lat="43.56686157257983" lon="10.982977358186181"><ele>124.19999999999999</ele><time>2026-04-26T13:41:12.003Z</time></trkpt><trkpt lat="43.5668521635064" lon="10.982869522069386"><ele>126.0</ele><time>2026-04-26T13:41:13.003Z</time></trkpt><trkpt lat="43.56683631663118" lon="10.982740004087681"><ele>126.0</ele><time>2026-04-26T13:41:14.003Z</time></trkpt><trkpt lat="43.56681624184631" lon="10.982630359848955"><ele>126.0</ele><time>2026-04-26T13:41:15.003Z</time></trkpt><trkpt lat="43.5667945940064" lon="10.982511263879347"><ele>126.0</ele><time>2026-04-26T13:41:16.003Z</time></trkpt><trkpt lat="43.56676453004647" lon="10.982390696160365"><ele>126.0</ele><time>2026-04-26T13:41:17.003Z</time></trkpt><trkpt lat="43.56670474403351" lon="10.982285749735981"><ele>126.0</ele><time>2026-04-26T13:41:18.003Z</time></trkpt><trkpt lat="43.566617603344596" lon="10.98218622508844"><ele>126.75</ele><time>2026-04-26T13:41:19.003Z</time></trkpt><trkpt lat="43.566522755480655" lon="10.98206885969505"><ele>127.5</ele><time>2026-04-26T13:41:20.003Z</time></trkpt><trkpt lat="43.56643160103114" lon="10.981934319375819"><ele>128.25</ele><time>2026-04-26T13:41:21.003Z</time></trkpt><trkpt lat="43.56634281279642" lon="10.981782490112451"><ele>129.0</ele><time>2026-04-26T13:41:22.003Z</time></trkpt><trkpt lat="43.56625408856693" lon="10.9816138559362"><ele>130.25</ele><time>2026-04-26T13:41:23.003Z</time></trkpt><trkpt lat="43.56617166588786" lon="10.98145189893852"><ele>131.5</ele><time>2026-04-26T13:41:24.003Z</time></trkpt><trkpt lat="43.56608499613675" lon="10.98130005253432"><ele>132.75</ele><time>2026-04-26T13:41:25.003Z</time></trkpt><trkpt lat="43.56598132564907" lon="10.981150856844133"><ele>134.0</ele><time>2026-04-26T13:41:26.003Z</time></trkpt><trkpt lat="43.56588119471872" lon="10.981004369847417"><ele>136.33333333333331</ele><time>2026-04-26T13:41:27.003Z</time></trkpt><trkpt lat="43.56578554563357" lon="10.98084614492847"><ele>138.66666666666666</ele><time>2026-04-26T13:41:28.003Z</time></trkpt><trkpt lat="43.56569336729682" lon="10.980674879558935"><ele>141.0</ele><time>2026-04-26T13:41:29.003Z</time></trkpt><trkpt lat="43.56560523826626" lon="10.980500927945892"><ele>141.0</ele><time>2026-04-26T13:41:30.003Z</time></trkpt><trkpt lat="43.565515722424145" lon="10.980340782382868"><ele>141.0</ele><time>2026-04-26T13:41:31.003Z</time></trkpt><trkpt lat="43.56543355808628" lon="10.980194289781187"><ele>141.0</ele><time>2026-04-26T13:41:32.003Z</time></trkpt><trkpt lat="43.565357774400084" lon="10.980053483592439"><ele>141.0</ele><time>2026-04-26T13:41:33.003Z</time></trkpt><trkpt lat="43.565285693610676" lon="10.97991123524415"><ele>145.25</ele><time>2026-04-26T13:41:34.003Z</time></trkpt><trkpt lat="43.56520947983023" lon="10.979756768735188"><ele>149.5</ele><time>2026-04-26T13:41:35.003Z</time></trkpt><trkpt lat="43.56512432801549" lon="10.979595937790151"><ele>153.75</ele><time>2026-04-26T13:41:36.003Z</time></trkpt><trkpt lat="43.56505159508828" lon="10.979436275069018"><ele>158.0</ele><time>2026-04-26T13:41:36.999Z</time></trkpt><trkpt lat="43.56496829979561" lon="10.97928705477674"><ele>160.60000000000002</ele><time>2026-04-26T13:41:37.999Z</time></trkpt><trkpt lat="43.564888847356" lon="10.9791515387971"><ele>163.20000000000002</ele><time>2026-04-26T13:41:38.999Z</time></trkpt><trkpt lat="43.564841906212195" lon="10.979036942791591"><ele>165.8</ele><time>2026-04-26T13:41:39.999Z</time></trkpt><trkpt lat="43.56480605234663" lon="10.97894373192636"><ele>168.4</ele><time>2026-04-26T13:41:40.999Z</time></trkpt><trkpt lat="43.564767828435215" lon="10.978845175316158"><ele>171.0</ele><time>2026-04-26T13:41:42.999Z</time></trkpt><trkpt lat="43.564664695186636" lon="10.978826595872416"><ele>171.0</ele><time>2026-04-26T13:41:46.999Z</time></trkpt><trkpt lat="43.564594942474116" lon="10.978886297161091"><ele>171.0</ele><time>2026-04-26T13:41:47.999Z</time></trkpt><trkpt lat="43.564507708801465" lon="10.978974366293253"><ele>171.0</ele><time>2026-04-26T13:41:48.999Z</time></trkpt><trkpt lat="43.56443051449023" lon="10.979061781534632"><ele>171.0</ele><time>2026-04-26T13:41:49.999Z</time></trkpt><trkpt lat="43.5643367549633" lon="10.979162257243052"><ele>171.0</ele><time>2026-04-26T13:41:50.999Z</time></trkpt><trkpt lat="43.564215125045884" lon="10.97929144148611"><ele>169.66666666666666</ele><time>2026-04-26T13:41:51.999Z</time></trkpt><trkpt lat="43.564087149110506" lon="10.979418739430848"><ele>168.33333333333331</ele><time>2026-04-26T13:41:53Z</time></trkpt><trkpt lat="43.56394292699975" lon="10.979567379214613"><ele>167.0</ele><time>2026-04-26T13:41:54Z</time></trkpt><trkpt lat="43.56379516017744" lon="10.979723650884827"><ele>166.66666666666666</ele><time>2026-04-26T13:41:55Z</time></trkpt><trkpt lat="43.56366317519195" lon="10.979867089880903"><ele>166.33333333333334</ele><time>2026-04-26T13:41:56Z</time></trkpt><trkpt lat="43.563544328949675" lon="10.980000431227765"><ele>166.0</ele><time>2026-04-26T13:41:57Z</time></trkpt><trkpt lat="43.56342925873598" lon="10.980120788738146"><ele>166.0</ele><time>2026-04-26T13:41:58Z</time></trkpt><trkpt lat="43.56330951012693" lon="10.9802308696378"><ele>166.0</ele><time>2026-04-26T13:41:59Z</time></trkpt><trkpt lat="43.56317366200842" lon="10.980342423932914"><ele>166.0</ele><time>2026-04-26T13:42:00Z</time></trkpt><trkpt lat="43.56301064555583" lon="10.980449372743001"><ele>166.0</ele><time>2026-04-26T13:42:01Z</time></trkpt><trkpt lat="43.56282644684812" lon="10.980550870456593"><ele>166.0</ele><time>2026-04-26T13:42:02Z</time></trkpt><trkpt lat="43.562656320283516" lon="10.980627913675903"><ele>166.0</ele><time>2026-04-26T13:42:03Z</time></trkpt><trkpt lat="43.56249709953544" lon="10.980704620363428"><ele>166.0</ele><time>2026-04-26T13:42:04Z</time></trkpt><trkpt lat="43.5623412392811" lon="10.980786144446842"><ele>166.0</ele><time>2026-04-26T13:42:05Z</time></trkpt><trkpt lat="43.56218615372759" lon="10.980858030469449"><ele>166.0</ele><time>2026-04-26T13:42:06Z</time></trkpt><trkpt lat="43.56203705427109" lon="10.98091443008201"><ele>164.0</ele><time>2026-04-26T13:42:07Z</time></trkpt><trkpt lat="43.56187956703565" lon="10.98094943146309"><ele>162.0</ele><time>2026-04-26T13:42:08Z</time></trkpt><trkpt lat="43.56171585744218" lon="10.980965618929396"><ele>160.0</ele><time>2026-04-26T13:42:09Z</time></trkpt><trkpt lat="43.56154996984215" lon="10.980959454122903"><ele>160.0</ele><time>2026-04-26T13:42:10Z</time></trkpt><trkpt lat="43.56137498170752" lon="10.980942460047912"><ele>160.0</ele><time>2026-04-26T13:42:11Z</time></trkpt><trkpt lat="43.56120299231134" lon="10.980902618593552"><ele>160.0</ele><time>2026-04-26T13:42:12Z</time></trkpt><trkpt lat="43.56102547101434" lon="10.98083663772928"><ele>165.66666666666669</ele><time>2026-04-26T13:42:13Z</time></trkpt><trkpt lat="43.56082761610397" lon="10.980765386438588"><ele>171.33333333333334</ele><time>2026-04-26T13:42:14.001Z</time></trkpt><trkpt lat="43.56062791924877" lon="10.980697040530934"><ele>177.0</ele><time>2026-04-26T13:42:15.001Z</time></trkpt><trkpt lat="43.56044207222904" lon="10.98062298122006"><ele>181.33333333333334</ele><time>2026-04-26T13:42:16.001Z</time></trkpt><trkpt lat="43.56027324236462" lon="10.98056158377104"><ele>185.66666666666669</ele><time>2026-04-26T13:42:17.001Z</time></trkpt><trkpt lat="43.56011592861402" lon="10.98049381317441"><ele>190.0</ele><time>2026-04-26T13:42:18.001Z</time></trkpt><trkpt lat="43.559962322250705" lon="10.980404387487747"><ele>190.0</ele><time>2026-04-26T13:42:19.001Z</time></trkpt><trkpt lat="43.559820643359245" lon="10.980297015883297"><ele>190.0</ele><time>2026-04-26T13:42:20.001Z</time></trkpt><trkpt lat="43.55967942410078" lon="10.980154112016526"><ele>190.0</ele><time>2026-04-26T13:42:21.001Z</time></trkpt><trkpt lat="43.55954277309114" lon="10.979997389173512"><ele>192.0</ele><time>2026-04-26T13:42:22.001Z</time></trkpt><trkpt lat="43.559416869284824" lon="10.979847276802287"><ele>194.0</ele><time>2026-04-26T13:42:23.001Z</time></trkpt><trkpt lat="43.55930571047393" lon="10.979713410514089"><ele>196.0</ele><time>2026-04-26T13:42:24.001Z</time></trkpt><trkpt lat="43.559202619599375" lon="10.979595785048867"><ele>198.0</ele><time>2026-04-26T13:42:25.001Z</time></trkpt><trkpt lat="43.55908530840285" lon="10.979485116883604"><ele>198.0</ele><time>2026-04-26T13:42:26.001Z</time></trkpt><trkpt lat="43.5589511064866" lon="10.979384088929468"><ele>198.0</ele><time>2026-04-26T13:42:27.001Z</time></trkpt><trkpt lat="43.55880437571921" lon="10.979299248347024"><ele>198.0</ele><time>2026-04-26T13:42:28.001Z</time></trkpt><trkpt lat="43.558639932882755" lon="10.979231607943934"><ele>195.0</ele><time>2026-04-26T13:42:29.001Z</time></trkpt><trkpt lat="43.558442588688266" lon="10.979188862160257"><ele>192.0</ele><time>2026-04-26T13:42:30.001Z</time></trkpt><trkpt lat="43.558215631966085" lon="10.97914758178365"><ele>189.0</ele><time>2026-04-26T13:42:31.001Z</time></trkpt><trkpt lat="43.55795446929444" lon="10.979091406435572"><ele>188.5</ele><time>2026-04-26T13:42:32.001Z</time></trkpt><trkpt lat="43.5576807598956" lon="10.979031110509803"><ele>188.0</ele><time>2026-04-26T13:42:33.001Z</time></trkpt><trkpt lat="43.55742896361422" lon="10.978978432853005"><ele>188.0</ele><time>2026-04-26T13:42:34.001Z</time></trkpt><trkpt lat="43.55718380025707" lon="10.978925817767891"><ele>188.0</ele><time>2026-04-26T13:42:35.001Z</time></trkpt><trkpt lat="43.55694119304569" lon="10.978875556154373"><ele>189.0</ele><time>2026-04-26T13:42:36.001Z</time></trkpt><trkpt lat="43.556703483075346" lon="10.978819255818266"><ele>190.0</ele><time>2026-04-26T13:42:37.001Z</time></trkpt><trkpt lat="43.55647989821721" lon="10.9787661369913"><ele>190.0</ele><time>2026-04-26T13:42:38.001Z</time></trkpt><trkpt lat="43.556276300674966" lon="10.978717021289752"><ele>190.0</ele><time>2026-04-26T13:42:39.001Z</time></trkpt><trkpt lat="43.556091605185166" lon="10.978677236978985"><ele>190.0</ele><time>2026-04-26T13:42:40.001Z</time></trkpt><trkpt lat="43.55591277826477" lon="10.978639994970692"><ele>190.0</ele><time>2026-04-26T13:42:41.001Z</time></trkpt><trkpt lat="43.55572998035795" lon="10.978620671401693"><ele>190.0</ele><time>2026-04-26T13:42:42.001Z</time></trkpt><trkpt lat="43.555537066183504" lon="10.978635050397015"><ele>190.0</ele><time>2026-04-26T13:42:43.002Z</time></trkpt><trkpt lat="43.55534245171213" lon="10.978676954857317"><ele>191.66666666666669</ele><time>2026-04-26T13:42:44.002Z</time></trkpt><trkpt lat="43.555142712494394" lon="10.978735990900486"><ele>193.33333333333334</ele><time>2026-04-26T13:42:45.002Z</time></trkpt><trkpt lat="43.5549531263325" lon="10.978836048409718"><ele>195.0</ele><time>2026-04-26T13:42:46.002Z</time></trkpt><trkpt lat="43.55476780667734" lon="10.978924529072803"><ele>195.0</ele><time>2026-04-26T13:42:47.002Z</time></trkpt><trkpt lat="43.554587006328674" lon="10.979011651790133"><ele>195.0</ele><time>2026-04-26T13:42:48.002Z</time></trkpt><trkpt lat="43.55440299857625" lon="10.979109449977921"><ele>195.0</ele><time>2026-04-26T13:42:49.002Z</time></trkpt><trkpt lat="43.55421884181206" lon="10.979225505154615"><ele>197.66666666666669</ele><time>2026-04-26T13:42:50.002Z</time></trkpt><trkpt lat="43.55405077959044" lon="10.979351569549939"><ele>200.33333333333334</ele><time>2026-04-26T13:42:51.002Z</time></trkpt><trkpt lat="43.55389703903665" lon="10.97947737648379"><ele>203.0</ele><time>2026-04-26T13:42:52.002Z</time></trkpt><trkpt lat="43.55374384687828" lon="10.979588217374014"><ele>206.33333333333334</ele><time>2026-04-26T13:42:53.002Z</time></trkpt><trkpt lat="43.55359589589652" lon="10.97966655461347"><ele>209.66666666666669</ele><time>2026-04-26T13:42:54.002Z</time></trkpt><trkpt lat="43.55343550053987" lon="10.979724733476258"><ele>213.0</ele><time>2026-04-26T13:42:55.002Z</time></trkpt><trkpt lat="43.55327309771398" lon="10.979748478968435"><ele>213.0</ele><time>2026-04-26T13:42:56.002Z</time></trkpt><trkpt lat="43.5531150761096" lon="10.97974971617054"><ele>213.0</ele><time>2026-04-26T13:42:57.002Z</time></trkpt><trkpt lat="43.55295820232012" lon="10.979723575463872"><ele>213.0</ele><time>2026-04-26T13:42:58.002Z</time></trkpt><trkpt lat="43.5528036668579" lon="10.979671202160533"><ele>213.33333333333331</ele><time>2026-04-26T13:42:59.002Z</time></trkpt><trkpt lat="43.55263805782883" lon="10.97959657506175"><ele>213.66666666666666</ele><time>2026-04-26T13:43:00.002Z</time></trkpt><trkpt lat="43.55246451822181" lon="10.979512793384957"><ele>214.0</ele><time>2026-04-26T13:43:01.002Z</time></trkpt><trkpt lat="43.55226996520892" lon="10.979428605144859"><ele>214.0</ele><time>2026-04-26T13:43:02.002Z</time></trkpt><trkpt lat="43.552075287057995" lon="10.979349461512907"><ele>214.0</ele><time>2026-04-26T13:43:03.002Z</time></trkpt><trkpt lat="43.55189377948133" lon="10.979269103417181"><ele>214.0</ele><time>2026-04-26T13:43:04.002Z</time></trkpt><trkpt lat="43.55170118227081" lon="10.97918667901666"><ele>213.0</ele><time>2026-04-26T13:43:05.002Z</time></trkpt><trkpt lat="43.55151285936608" lon="10.979115883194906"><ele>212.0</ele><time>2026-04-26T13:43:06.002Z</time></trkpt><trkpt lat="43.551324945594445" lon="10.979054788593178"><ele>211.0</ele><time>2026-04-26T13:43:07.002Z</time></trkpt><trkpt lat="43.55113813772616" lon="10.979015723367754"><ele>209.66666666666666</ele><time>2026-04-26T13:43:08.002Z</time></trkpt><trkpt lat="43.55096109252412" lon="10.978985299274987"><ele>208.33333333333331</ele><time>2026-04-26T13:43:09.002Z</time></trkpt><trkpt lat="43.55080413076256" lon="10.978956780538804"><ele>207.0</ele><time>2026-04-26T13:43:10.002Z</time></trkpt><trkpt lat="43.55064995232862" lon="10.978936997697064"><ele>207.0</ele><time>2026-04-26T13:43:11.002Z</time></trkpt><trkpt lat="43.55048153537829" lon="10.978948355413904"><ele>207.0</ele><time>2026-04-26T13:43:12.002Z</time></trkpt><trkpt lat="43.5503006444589" lon="10.978982650318377"><ele>207.0</ele><time>2026-04-26T13:43:13.002Z</time></trkpt><trkpt lat="43.550097036086825" lon="10.97903569765165"><ele>206.0</ele><time>2026-04-26T13:43:14.002Z</time></trkpt><trkpt lat="43.54989087086294" lon="10.979095052504633"><ele>205.0</ele><time>2026-04-26T13:43:15.002Z</time></trkpt><trkpt lat="43.549691395247685" lon="10.979147996350573"><ele>204.0</ele><time>2026-04-26T13:43:16.003Z</time></trkpt><trkpt lat="43.54949944071553" lon="10.979196144285044"><ele>202.33333333333331</ele><time>2026-04-26T13:43:17.003Z</time></trkpt><trkpt lat="43.54931763412436" lon="10.979237815360268"><ele>200.66666666666666</ele><time>2026-04-26T13:43:18.003Z</time></trkpt><trkpt lat="43.54913797114118" lon="10.979283873658357"><ele>199.0</ele><time>2026-04-26T13:43:19.003Z</time></trkpt><trkpt lat="43.54897505392604" lon="10.9793384059102"><ele>199.0</ele><time>2026-04-26T13:43:20.003Z</time></trkpt><trkpt lat="43.54882326019487" lon="10.979400540305488"><ele>199.0</ele><time>2026-04-26T13:43:21.003Z</time></trkpt><trkpt lat="43.54869109609664" lon="10.979485790766756"><ele>199.0</ele><time>2026-04-26T13:43:22.003Z</time></trkpt><trkpt lat="43.5485665798237" lon="10.979606964448534"><ele>201.0</ele><time>2026-04-26T13:43:23.003Z</time></trkpt><trkpt lat="43.5484337116973" lon="10.979748043512066"><ele>203.0</ele><time>2026-04-26T13:43:24.003Z</time></trkpt><trkpt lat="43.548307975804576" lon="10.979860878893545"><ele>205.0</ele><time>2026-04-26T13:43:25.003Z</time></trkpt><trkpt lat="43.548175892635" lon="10.979964988776702"><ele>204.33333333333331</ele><time>2026-04-26T13:43:26.003Z</time></trkpt><trkpt lat="43.548039488640654" lon="10.980034448335289"><ele>203.66666666666669</ele><time>2026-04-26T13:43:27.003Z</time></trkpt><trkpt lat="43.54788950502295" lon="10.980080578397104"><ele>203.0</ele><time>2026-04-26T13:43:28.003Z</time></trkpt><trkpt lat="43.54773598588237" lon="10.980090053794559"><ele>203.0</ele><time>2026-04-26T13:43:29.003Z</time></trkpt><trkpt lat="43.54757307393574" lon="10.980076123467477"><ele>203.0</ele><time>2026-04-26T13:43:30.003Z</time></trkpt><trkpt lat="43.54740080294511" lon="10.98004454182801"><ele>203.0</ele><time>2026-04-26T13:43:31.003Z</time></trkpt><trkpt lat="43.547214427992294" lon="10.980005967579187"><ele>205.0</ele><time>2026-04-26T13:43:32.003Z</time></trkpt><trkpt lat="43.54702911523483" lon="10.979971149091956"><ele>207.0</ele><time>2026-04-26T13:43:33.003Z</time></trkpt><trkpt lat="43.54686053570876" lon="10.979952895267022"><ele>209.0</ele><time>2026-04-26T13:43:34.003Z</time></trkpt><trkpt lat="43.546673771626814" lon="10.979951999706667"><ele>209.0</ele><time>2026-04-26T13:43:35.003Z</time></trkpt><trkpt lat="43.54648936017657" lon="10.979986662233786"><ele>209.0</ele><time>2026-04-26T13:43:36.003Z</time></trkpt><trkpt lat="43.546333280857866" lon="10.980023590219117"><ele>209.0</ele><time>2026-04-26T13:43:37.003Z</time></trkpt><trkpt lat="43.54619540741375" lon="10.980027222971778"><ele>210.0</ele><time>2026-04-26T13:43:38.003Z</time></trkpt><trkpt lat="43.54608420163276" lon="10.97999296520415"><ele>211.0</ele><time>2026-04-26T13:43:39.003Z</time></trkpt><trkpt lat="43.545995607327946" lon="10.979934025968381"><ele>211.99999999999997</ele><time>2026-04-26T13:43:40.003Z</time></trkpt><trkpt lat="43.54592772259102" lon="10.979847594200345"><ele>213.0</ele><time>2026-04-26T13:43:41.003Z</time></trkpt><trkpt lat="43.54587827626292" lon="10.979739195237778"><ele>214.0</ele><time>2026-04-26T13:43:42.003Z</time></trkpt><trkpt lat="43.54583979050165" lon="10.979599636739946"><ele>214.0</ele><time>2026-04-26T13:43:42.999Z</time></trkpt><trkpt lat="43.54580262206446" lon="10.979429177096645"><ele>214.0</ele><time>2026-04-26T13:43:43.999Z</time></trkpt><trkpt lat="43.545748847747454" lon="10.97923989398812"><ele>214.0</ele><time>2026-04-26T13:43:44.999Z</time></trkpt><trkpt lat="43.545673899432735" lon="10.97904203965715"><ele>214.0</ele><time>2026-04-26T13:43:45.999Z</time></trkpt><trkpt lat="43.54558019307657" lon="10.97882819346863"><ele>215.0</ele><time>2026-04-26T13:43:46.999Z</time></trkpt><trkpt lat="43.545478267047315" lon="10.978590520433032"><ele>216.0</ele><time>2026-04-26T13:43:47.999Z</time></trkpt><trkpt lat="43.54537543904995" lon="10.978336207871319"><ele>217.0</ele><time>2026-04-26T13:43:48.999Z</time></trkpt><trkpt lat="43.545274658076906" lon="10.978050628779492"><ele>220.5</ele><time>2026-04-26T13:43:49.999Z</time></trkpt><trkpt lat="43.54517530402557" lon="10.977741969960888"><ele>224.0</ele><time>2026-04-26T13:43:50.999Z</time></trkpt><trkpt lat="43.54508948080585" lon="10.977465761667837"><ele>224.33333333333334</ele><time>2026-04-26T13:43:51.999Z</time></trkpt><trkpt lat="43.54500892867561" lon="10.977200814519668"><ele>224.66666666666669</ele><time>2026-04-26T13:43:52.999Z</time></trkpt><trkpt lat="43.54493233849784" lon="10.976946854162803"><ele>225.0</ele><time>2026-04-26T13:43:53.999Z</time></trkpt><trkpt lat="43.544857784391624" lon="10.976701577824853"><ele>225.0</ele><time>2026-04-26T13:43:54.999Z</time></trkpt><trkpt lat="43.544787440102226" lon="10.976466920182384"><ele>225.0</ele><time>2026-04-26T13:43:55.999Z</time></trkpt><trkpt lat="43.544728255855624" lon="10.976241016282318"><ele>225.0</ele><time>2026-04-26T13:43:56.999Z</time></trkpt><trkpt lat="43.54468014810082" lon="10.976013820252051"><ele>224.0</ele><time>2026-04-26T13:43:58Z</time></trkpt><trkpt lat="43.544650011993184" lon="10.975782755189138"><ele>223.0</ele><time>2026-04-26T13:43:59Z</time></trkpt><trkpt lat="43.544632947671495" lon="10.97554360138924"><ele>222.0</ele><time>2026-04-26T13:44:00Z</time></trkpt><trkpt lat="43.54463574417657" lon="10.975292084605673"><ele>222.0</ele><time>2026-04-26T13:44:01Z</time></trkpt><trkpt lat="43.54465313428868" lon="10.97503738434016"><ele>222.0</ele><time>2026-04-26T13:44:02Z</time></trkpt><trkpt lat="43.54467717433906" lon="10.974810191296877"><ele>222.0</ele><time>2026-04-26T13:44:03Z</time></trkpt><trkpt lat="43.544723561950995" lon="10.9745949406735"><ele>222.66666666666669</ele><time>2026-04-26T13:44:04Z</time></trkpt><trkpt lat="43.544799002225744" lon="10.974383131918612"><ele>223.33333333333334</ele><time>2026-04-26T13:44:05Z</time></trkpt><trkpt lat="43.54489336904107" lon="10.974171405266125"><ele>224.0</ele><time>2026-04-26T13:44:06Z</time></trkpt><trkpt lat="43.54498768027605" lon="10.973988949983012"><ele>225.5</ele><time>2026-04-26T13:44:07Z</time></trkpt><trkpt lat="43.54507107538214" lon="10.973810827257855"><ele>227.0</ele><time>2026-04-26T13:44:08Z</time></trkpt><trkpt lat="43.545137815465715" lon="10.973631701128479"><ele>228.5</ele><time>2026-04-26T13:44:09Z</time></trkpt><trkpt lat="43.545180740665494" lon="10.97343903994217"><ele>230.0</ele><time>2026-04-26T13:44:10Z</time></trkpt><trkpt lat="43.54520611003168" lon="10.9732175313946"><ele>230.33333333333334</ele><time>2026-04-26T13:44:11Z</time></trkpt><trkpt lat="43.54521130926909" lon="10.97295715305758"><ele>230.66666666666669</ele><time>2026-04-26T13:44:12Z</time></trkpt><trkpt lat="43.54520310232371" lon="10.972676546763337"><ele>231.0</ele><time>2026-04-26T13:44:13Z</time></trkpt><trkpt lat="43.54518974333099" lon="10.97237202132179"><ele>228.33333333333331</ele><time>2026-04-26T13:44:14Z</time></trkpt><trkpt lat="43.5451825766376" lon="10.972075396103127"><ele>225.66666666666666</ele><time>2026-04-26T13:44:15Z</time></trkpt><trkpt lat="43.54517604785668" lon="10.971790133733611"><ele>223.0</ele><time>2026-04-26T13:44:16Z</time></trkpt><trkpt lat="43.545162385450816" lon="10.97152240404724"><ele>222.33333333333331</ele><time>2026-04-26T13:44:17Z</time></trkpt><trkpt lat="43.54513818079104" lon="10.971269891989122"><ele>221.66666666666669</ele><time>2026-04-26T13:44:18.001Z</time></trkpt><trkpt lat="43.54509180659796" lon="10.971020508344212"><ele>221.0</ele><time>2026-04-26T13:44:19.001Z</time></trkpt><trkpt lat="43.54501928616891" lon="10.970775186117734"><ele>221.0</ele><time>2026-04-26T13:44:20.001Z</time></trkpt><trkpt lat="43.54492424838152" lon="10.97052408480198"><ele>221.0</ele><time>2026-04-26T13:44:21.001Z</time></trkpt><trkpt lat="43.544809686763145" lon="10.97025456553048"><ele>221.0</ele><time>2026-04-26T13:44:22.001Z</time></trkpt><trkpt lat="43.54469857828295" lon="10.969991738949988"><ele>221.0</ele><time>2026-04-26T13:44:23.001Z</time></trkpt><trkpt lat="43.544598393165735" lon="10.969726229042939"><ele>221.0</ele><time>2026-04-26T13:44:24.001Z</time></trkpt><trkpt lat="43.54451178297074" lon="10.969436061617664"><ele>221.0</ele><time>2026-04-26T13:44:25.001Z</time></trkpt><trkpt lat="43.54444286279187" lon="10.969144120551247"><ele>223.33333333333334</ele><time>2026-04-26T13:44:26.001Z</time></trkpt><trkpt lat="43.54438831728769" lon="10.968861264294533"><ele>225.66666666666669</ele><time>2026-04-26T13:44:27.001Z</time></trkpt><trkpt lat="43.54434123269132" lon="10.968557638721258"><ele>228.0</ele><time>2026-04-26T13:44:28.001Z</time></trkpt><trkpt lat="43.54430983203" lon="10.968244857442427"><ele>228.0</ele><time>2026-04-26T13:44:29.001Z</time></trkpt><trkpt lat="43.544289509117135" lon="10.96792371110301"><ele>228.0</ele><time>2026-04-26T13:44:30.001Z</time></trkpt><trkpt lat="43.54427369894157" lon="10.967625212148043"><ele>228.33333333333331</ele><time>2026-04-26T13:44:31.001Z</time></trkpt><trkpt lat="43.54425881774431" lon="10.967344037384473"><ele>228.66666666666666</ele><time>2026-04-26T13:44:32.001Z</time></trkpt><trkpt lat="43.54424234776634" lon="10.9670767673135"><ele>229.0</ele><time>2026-04-26T13:44:33.001Z</time></trkpt><trkpt lat="43.54422732772041" lon="10.96681748398783"><ele>229.66666666666666</ele><time>2026-04-26T13:44:34.001Z</time></trkpt><trkpt lat="43.544214525355734" lon="10.966563760762158"><ele>230.33333333333331</ele><time>2026-04-26T13:44:35.001Z</time></trkpt><trkpt lat="43.54420200271428" lon="10.966322277507478"><ele>231.0</ele><time>2026-04-26T13:44:36.001Z</time></trkpt><trkpt lat="43.54418414801049" lon="10.966090131069917"><ele>231.0</ele><time>2026-04-26T13:44:37.001Z</time></trkpt><trkpt lat="43.544153018602124" lon="10.965878110604997"><ele>231.0</ele><time>2026-04-26T13:44:38.001Z</time></trkpt><trkpt lat="43.5441083018411" lon="10.96567638763578"><ele>231.0</ele><time>2026-04-26T13:44:39.001Z</time></trkpt><trkpt lat="43.544041522081805" lon="10.965461737294692"><ele>233.0</ele><time>2026-04-26T13:44:40.001Z</time></trkpt><trkpt lat="43.543950788206" lon="10.965237005984392"><ele>235.0</ele><time>2026-04-26T13:44:41.001Z</time></trkpt><trkpt lat="43.543838062410074" lon="10.965009026332824"><ele>237.0</ele><time>2026-04-26T13:44:42.001Z</time></trkpt><trkpt lat="43.543707748001495" lon="10.964780727995748"><ele>237.0</ele><time>2026-04-26T13:44:43.001Z</time></trkpt><trkpt lat="43.54358374583247" lon="10.964571786785612"><ele>237.0</ele><time>2026-04-26T13:44:44.001Z</time></trkpt><trkpt lat="43.54346275803101" lon="10.964355640862806"><ele>237.0</ele><time>2026-04-26T13:44:45.001Z</time></trkpt><trkpt lat="43.54333047286197" lon="10.964119279470761"><ele>239.0</ele><time>2026-04-26T13:44:46.001Z</time></trkpt><trkpt lat="43.54319982455747" lon="10.963888670150865"><ele>241.0</ele><time>2026-04-26T13:44:47.002Z</time></trkpt><trkpt lat="43.54305607501679" lon="10.963635085067233"><ele>243.0</ele><time>2026-04-26T13:44:48.002Z</time></trkpt><trkpt lat="43.54292337025135" lon="10.96339800865365"><ele>244.0</ele><time>2026-04-26T13:44:49.002Z</time></trkpt><trkpt lat="43.54280390008539" lon="10.96318521880997"><ele>245.0</ele><time>2026-04-26T13:44:50.002Z</time></trkpt><trkpt lat="43.542685998392955" lon="10.962971795753273"><ele>246.0</ele><time>2026-04-26T13:44:51.002Z</time></trkpt><trkpt lat="43.542579990296716" lon="10.962765972331653"><ele>246.0</ele><time>2026-04-26T13:44:52.002Z</time></trkpt><trkpt lat="43.54248099249802" lon="10.962568885972955"><ele>246.0</ele><time>2026-04-26T13:44:53.002Z</time></trkpt><trkpt lat="43.542376066115665" lon="10.962403112632467"><ele>246.0</ele><time>2026-04-26T13:44:54.002Z</time></trkpt><trkpt lat="43.54226051672899" lon="10.96227305254288"><ele>248.33333333333331</ele><time>2026-04-26T13:44:55.002Z</time></trkpt><trkpt lat="43.542129801191955" lon="10.962179445272488"><ele>250.66666666666666</ele><time>2026-04-26T13:44:56.002Z</time></trkpt><trkpt lat="43.541979423395794" lon="10.962115235649653"><ele>253.0</ele><time>2026-04-26T13:44:57.002Z</time></trkpt><trkpt lat="43.54180677717639" lon="10.962071765523095"><ele>253.0</ele><time>2026-04-26T13:44:58.002Z</time></trkpt><trkpt lat="43.541617279008335" lon="10.962032364918988"><ele>253.0</ele><time>2026-04-26T13:44:59.002Z</time></trkpt><trkpt lat="43.54142446860745" lon="10.961986987497212"><ele>253.0</ele><time>2026-04-26T13:45:00.002Z</time></trkpt><trkpt lat="43.54123587227375" lon="10.961941646933179"><ele>253.66666666666666</ele><time>2026-04-26T13:45:01.002Z</time></trkpt><trkpt lat="43.54105513733566" lon="10.96191741580083"><ele>254.33333333333331</ele><time>2026-04-26T13:45:02.002Z</time></trkpt><trkpt lat="43.54087380272547" lon="10.961915550402736"><ele>255.0</ele><time>2026-04-26T13:45:03.002Z</time></trkpt><trkpt lat="43.540702020515354" lon="10.961935708914636"><ele>255.0</ele><time>2026-04-26T13:45:04.002Z</time></trkpt><trkpt lat="43.54053014879301" lon="10.96197936671359"><ele>255.0</ele><time>2026-04-26T13:45:05.002Z</time></trkpt><trkpt lat="43.540355355317416" lon="10.962049979555042"><ele>255.0</ele><time>2026-04-26T13:45:06.002Z</time></trkpt><trkpt lat="43.54018553361649" lon="10.962144523231656"><ele>259.3333333333333</ele><time>2026-04-26T13:45:07.002Z</time></trkpt><trkpt lat="43.54003795532796" lon="10.962246895538879"><ele>263.66666666666663</ele><time>2026-04-26T13:45:08.002Z</time></trkpt><trkpt lat="43.53990988098846" lon="10.96235692725822"><ele>268.0</ele><time>2026-04-26T13:45:09.002Z</time></trkpt><trkpt lat="43.53979788624916" lon="10.962467796924312"><ele>268.0</ele><time>2026-04-26T13:45:10.002Z</time></trkpt><trkpt lat="43.53970976538408" lon="10.962563706846773"><ele>268.0</ele><time>2026-04-26T13:45:11.002Z</time></trkpt><trkpt lat="43.539642563779175" lon="10.962630486771909"><ele>268.0</ele><time>2026-04-26T13:45:12.002Z</time></trkpt><trkpt lat="43.539548674138956" lon="10.962654321528804"><ele>268.0</ele><time>2026-04-26T13:45:14.002Z</time></trkpt><trkpt lat="43.53949264124399" lon="10.962525170449867"><ele>268.0</ele><time>2026-04-26T13:45:16.002Z</time></trkpt><trkpt lat="43.539559986963305" lon="10.962356255605153"><ele>268.0</ele><time>2026-04-26T13:45:18.002Z</time></trkpt><trkpt lat="43.53963260641953" lon="10.96224984700436"><ele>268.0</ele><time>2026-04-26T13:45:19.003Z</time></trkpt><trkpt lat="43.539722809284214" lon="10.962101525999435"><ele>268.0</ele><time>2026-04-26T13:45:20.003Z</time></trkpt><trkpt lat="43.539826829144005" lon="10.96190514697922"><ele>268.0</ele><time>2026-04-26T13:45:21.003Z</time></trkpt><trkpt lat="43.53993927671866" lon="10.961662716345602"><ele>271.0</ele><time>2026-04-26T13:45:22.003Z</time></trkpt><trkpt lat="43.54005930730905" lon="10.96141274161666"><ele>274.0</ele><time>2026-04-26T13:45:23.003Z</time></trkpt><trkpt lat="43.540190029788526" lon="10.961158839477976"><ele>277.0</ele><time>2026-04-26T13:45:24.003Z</time></trkpt><trkpt lat="43.540343091453636" lon="10.960879264841495"><ele>280.5</ele><time>2026-04-26T13:45:25.003Z</time></trkpt><trkpt lat="43.54048498144187" lon="10.960609686523036"><ele>284.0</ele><time>2026-04-26T13:45:26.003Z</time></trkpt><trkpt lat="43.54060992909341" lon="10.960373793985804"><ele>284.0</ele><time>2026-04-26T13:45:27.003Z</time></trkpt><trkpt lat="43.54071602163349" lon="10.960163851755668"><ele>284.0</ele><time>2026-04-26T13:45:28.003Z</time></trkpt><trkpt lat="43.5407995157245" lon="10.95998569683635"><ele>284.0</ele><time>2026-04-26T13:45:29.003Z</time></trkpt><trkpt lat="43.540856098115405" lon="10.959819201916105"><ele>284.25</ele><time>2026-04-26T13:45:30.003Z</time></trkpt><trkpt lat="43.5408784328434" lon="10.959659969903614"><ele>284.5</ele><time>2026-04-26T13:45:31.003Z</time></trkpt><trkpt lat="43.54087601445195" lon="10.959485594111113"><ele>284.75</ele><time>2026-04-26T13:45:32.003Z</time></trkpt><trkpt lat="43.5408545378442" lon="10.959328024458975"><ele>285.0</ele><time>2026-04-26T13:45:33.003Z</time></trkpt><trkpt lat="43.54080365001936" lon="10.959193979363096"><ele>285.75</ele><time>2026-04-26T13:45:34.003Z</time></trkpt><trkpt lat="43.54071778917406" lon="10.9590580696175"><ele>286.5</ele><time>2026-04-26T13:45:35.003Z</time></trkpt><trkpt lat="43.54063368993629" lon="10.95892554622843"><ele>287.25</ele><time>2026-04-26T13:45:36.003Z</time></trkpt><trkpt lat="43.54058379712237" lon="10.958798195061405"><ele>288.0</ele><time>2026-04-26T13:45:37.003Z</time></trkpt><trkpt lat="43.54057807526438" lon="10.958668626096804"><ele>288.0</ele><time>2026-04-26T13:45:38.003Z</time></trkpt><trkpt lat="43.54060251456751" lon="10.958544934794457"><ele>288.0</ele><time>2026-04-26T13:45:39.003Z</time></trkpt><trkpt lat="43.54065939309003" lon="10.958426301283524"><ele>288.0</ele><time>2026-04-26T13:45:40.003Z</time></trkpt><trkpt lat="43.540744743589855" lon="10.958288269524928"><ele>288.0</ele><time>2026-04-26T13:45:41.003Z</time></trkpt><trkpt lat="43.5408431669351" lon="10.958119691870854"><ele>289.75</ele><time>2026-04-26T13:45:42.003Z</time></trkpt><trkpt lat="43.54094113761805" lon="10.957940550549086"><ele>291.5</ele><time>2026-04-26T13:45:43.003Z</time></trkpt><trkpt lat="43.54102224289666" lon="10.957784311624703"><ele>293.25</ele><time>2026-04-26T13:45:44.003Z</time></trkpt><trkpt lat="43.54108294315423" lon="10.957617584221168"><ele>295.0</ele><time>2026-04-26T13:45:45.003Z</time></trkpt><trkpt lat="43.54112549960878" lon="10.957436510448316"><ele>299.0</ele><time>2026-04-26T13:45:46.003Z</time></trkpt><trkpt lat="43.541147066267364" lon="10.957238615270539"><ele>303.0</ele><time>2026-04-26T13:45:47.003Z</time></trkpt><trkpt lat="43.54112605176027" lon="10.957018041181247"><ele>307.0</ele><time>2026-04-26T13:45:48.003Z</time></trkpt><trkpt lat="43.54108889736118" lon="10.956780347623292"><ele>308.66666666666663</ele><time>2026-04-26T13:45:48.999Z</time></trkpt><trkpt lat="43.541037177038085" lon="10.956531022545542"><ele>310.3333333333333</ele><time>2026-04-26T13:45:49.999Z</time></trkpt><trkpt lat="43.540989556057504" lon="10.956288556688296"><ele>312.0</ele><time>2026-04-26T13:45:50.999Z</time></trkpt><trkpt lat="43.540941217996945" lon="10.956079429937597"><ele>312.0</ele><time>2026-04-26T13:45:51.999Z</time></trkpt><trkpt lat="43.540891190842565" lon="10.955892780187497"><ele>312.0</ele><time>2026-04-26T13:45:52.999Z</time></trkpt><trkpt lat="43.540841626487094" lon="10.9557242847613"><ele>312.0</ele><time>2026-04-26T13:45:53.999Z</time></trkpt><trkpt lat="43.54078802453939" lon="10.955564981944963"><ele>312.0</ele><time>2026-04-26T13:45:54.999Z</time></trkpt><trkpt lat="43.540756284359155" lon="10.95540367124888"><ele>312.6</ele><time>2026-04-26T13:45:55.999Z</time></trkpt><trkpt lat="43.540737211283485" lon="10.9552317534554"><ele>313.2</ele><time>2026-04-26T13:45:56.999Z</time></trkpt><trkpt lat="43.54071561465518" lon="10.955080279462491"><ele>313.8</ele><time>2026-04-26T13:45:57.999Z</time></trkpt><trkpt lat="43.54068292192453" lon="10.954966338517856"><ele>314.4</ele><time>2026-04-26T13:45:58.999Z</time></trkpt><trkpt lat="43.54066181581545" lon="10.954882392437828"><ele>315.0</ele><time>2026-04-26T13:46:00Z</time></trkpt><trkpt lat="43.54070825984864" lon="10.954790679679896"><ele>315.0</ele><time>2026-04-26T13:46:03Z</time></trkpt><trkpt lat="43.540856638399916" lon="10.9547764188352"><ele>315.0</ele><time>2026-04-26T13:46:05Z</time></trkpt><trkpt lat="43.540932920423" lon="10.954813918739468"><ele>315.0</ele><time>2026-04-26T13:46:06Z</time></trkpt><trkpt lat="43.540990417887826" lon="10.954882677462997"><ele>315.0</ele><time>2026-04-26T13:46:07Z</time></trkpt><trkpt lat="43.541025958087175" lon="10.955002208585602"><ele>315.0</ele><time>2026-04-26T13:46:08Z</time></trkpt><trkpt lat="43.54105007853536" lon="10.955156115298676"><ele>315.0</ele><time>2026-04-26T13:46:09Z</time></trkpt><trkpt lat="43.54106476266081" lon="10.955293866165949"><ele>315.0</ele><time>2026-04-26T13:46:10Z</time></trkpt><trkpt lat="43.541096184724886" lon="10.95540770813984"><ele>315.0</ele><time>2026-04-26T13:46:11Z</time></trkpt><trkpt lat="43.54114395722804" lon="10.955497019164453"><ele>315.0</ele><time>2026-04-26T13:46:12Z</time></trkpt><trkpt lat="43.54121840719169" lon="10.955546804266563"><ele>315.0</ele><time>2026-04-26T13:46:13Z</time></trkpt><trkpt lat="43.54131367492999" lon="10.955548531910358"><ele>315.0</ele><time>2026-04-26T13:46:14Z</time></trkpt><trkpt lat="43.541429983608204" lon="10.955524668256205"><ele>311.0</ele><time>2026-04-26T13:46:15Z</time></trkpt><trkpt lat="43.541561318516145" lon="10.955487912145532"><ele>307.0</ele><time>2026-04-26T13:46:16Z</time></trkpt><trkpt lat="43.54169766438346" lon="10.955441706160162"><ele>303.0</ele><time>2026-04-26T13:46:17Z</time></trkpt><trkpt lat="43.541823560615626" lon="10.955382349827993"><ele>299.0</ele><time>2026-04-26T13:46:18Z</time></trkpt><trkpt lat="43.5419320998829" lon="10.955313436910098"><ele>299.0</ele><time>2026-04-26T13:46:19Z</time></trkpt><trkpt lat="43.542019017113866" lon="10.955250641383373"><ele>299.0</ele><time>2026-04-26T13:46:20Z</time></trkpt><trkpt lat="43.54208526233403" lon="10.95520723643871"><ele>299.0</ele><time>2026-04-26T13:46:21Z</time></trkpt><trkpt lat="43.54217586460309" lon="10.95514886050446"><ele>299.0</ele><time>2026-04-26T13:46:23.001Z</time></trkpt><trkpt lat="43.54221837005183" lon="10.955072578338426"><ele>299.0</ele><time>2026-04-26T13:46:25.001Z</time></trkpt><trkpt lat="43.542188670413594" lon="10.954915075632396"><ele>298.4</ele><time>2026-04-26T13:46:27.001Z</time></trkpt><trkpt lat="43.5421291534914" lon="10.954838062342642"><ele>297.79999999999995</ele><time>2026-04-26T13:46:28.001Z</time></trkpt><trkpt lat="43.542061145865794" lon="10.954746123682106"><ele>297.20000000000005</ele><time>2026-04-26T13:46:29.001Z</time></trkpt><trkpt lat="43.541984857169375" lon="10.954624770680468"><ele>296.6</ele><time>2026-04-26T13:46:30.001Z</time></trkpt><trkpt lat="43.54189318997013" lon="10.954473785547762"><ele>296.0</ele><time>2026-04-26T13:46:31.001Z</time></trkpt><trkpt lat="43.541785392113475" lon="10.954306727707817"><ele>297.33333333333337</ele><time>2026-04-26T13:46:32.001Z</time></trkpt><trkpt lat="43.54167216358204" lon="10.954142719971848"><ele>298.6666666666667</ele><time>2026-04-26T13:46:33.001Z</time></trkpt><trkpt lat="43.54156052283878" lon="10.954011137306246"><ele>300.0</ele><time>2026-04-26T13:46:34.001Z</time></trkpt><trkpt lat="43.541425937401954" lon="10.9538929199851"><ele>300.0</ele><time>2026-04-26T13:46:35.001Z</time></trkpt><trkpt lat="43.541248488158566" lon="10.953785086855225"><ele>300.0</ele><time>2026-04-26T13:46:36.001Z</time></trkpt><trkpt lat="43.54103855419623" lon="10.953670636740027"><ele>300.0</ele><time>2026-04-26T13:46:37.001Z</time></trkpt><trkpt lat="43.54085761863442" lon="10.953561072179175"><ele>300.3333333333333</ele><time>2026-04-26T13:46:38.001Z</time></trkpt><trkpt lat="43.540702562168164" lon="10.95346399320983"><ele>300.66666666666663</ele><time>2026-04-26T13:46:39.001Z</time></trkpt><trkpt lat="43.54056363566376" lon="10.953364356352525"><ele>301.0</ele><time>2026-04-26T13:46:40.001Z</time></trkpt><trkpt lat="43.540439098369724" lon="10.953245843138463"><ele>304.5</ele><time>2026-04-26T13:46:41.001Z</time></trkpt><trkpt lat="43.54032750515538" lon="10.953113060465414"><ele>308.0</ele><time>2026-04-26T13:46:42.001Z</time></trkpt><trkpt lat="43.54024815107967" lon="10.952963883823745"><ele>311.5</ele><time>2026-04-26T13:46:43.001Z</time></trkpt><trkpt lat="43.54019563373979" lon="10.952791878978989"><ele>315.0</ele><time>2026-04-26T13:46:44.001Z</time></trkpt><trkpt lat="43.540156036617354" lon="10.95258523069746"><ele>314.0</ele><time>2026-04-26T13:46:45.001Z</time></trkpt><trkpt lat="43.54012644258496" lon="10.952333822496048"><ele>313.0</ele><time>2026-04-26T13:46:46.001Z</time></trkpt><trkpt lat="43.54009940393577" lon="10.95208574643542"><ele>312.0</ele><time>2026-04-26T13:46:47.001Z</time></trkpt><trkpt lat="43.540074239425344" lon="10.951846546367836"><ele>312.6666666666667</ele><time>2026-04-26T13:46:48.001Z</time></trkpt><trkpt lat="43.54003689337255" lon="10.951577998492828"><ele>313.33333333333337</ele><time>2026-04-26T13:46:49.001Z</time></trkpt><trkpt lat="43.54001145770946" lon="10.95130504359796"><ele>314.0</ele><time>2026-04-26T13:46:50.001Z</time></trkpt><trkpt lat="43.539998427826426" lon="10.951038105268355"><ele>314.33333333333337</ele><time>2026-04-26T13:46:51.001Z</time></trkpt><trkpt lat="43.53999341203031" lon="10.950765340461313"><ele>314.6666666666667</ele><time>2026-04-26T13:46:52.002Z</time></trkpt><trkpt lat="43.53999150374292" lon="10.950519295968578"><ele>315.0</ele><time>2026-04-26T13:46:53.002Z</time></trkpt><trkpt lat="43.539975677380546" lon="10.950294632842187"><ele>315.0</ele><time>2026-04-26T13:46:54.002Z</time></trkpt><trkpt lat="43.539944307861326" lon="10.950082987047278"><ele>315.0</ele><time>2026-04-26T13:46:55.002Z</time></trkpt><trkpt lat="43.53988767864796" lon="10.949897852935642"><ele>315.0</ele><time>2026-04-26T13:46:56.002Z</time></trkpt><trkpt lat="43.53981445780009" lon="10.949752528883627"><ele>315.0</ele><time>2026-04-26T13:46:57.002Z</time></trkpt><trkpt lat="43.53971334500924" lon="10.94963447333981"><ele>314.5</ele><time>2026-04-26T13:46:58.002Z</time></trkpt><trkpt lat="43.53959224681146" lon="10.94955533913796"><ele>314.0</ele><time>2026-04-26T13:46:59.002Z</time></trkpt><trkpt lat="43.53945172536065" lon="10.949519110660626"><ele>313.5</ele><time>2026-04-26T13:47:00.002Z</time></trkpt><trkpt lat="43.53929439482262" lon="10.949519117598765"><ele>313.0</ele><time>2026-04-26T13:47:01.002Z</time></trkpt><trkpt lat="43.539112257728235" lon="10.949542302381607"><ele>320.0</ele><time>2026-04-26T13:47:02.002Z</time></trkpt><trkpt lat="43.53892607602139" lon="10.949572197378977"><ele>327.0</ele><time>2026-04-26T13:47:03.002Z</time></trkpt><trkpt lat="43.538760465362756" lon="10.949594664948123"><ele>334.0</ele><time>2026-04-26T13:47:04.002Z</time></trkpt><trkpt lat="43.53859338546071" lon="10.949614053478427"><ele>334.66666666666663</ele><time>2026-04-26T13:47:05.002Z</time></trkpt><trkpt lat="43.53843108878645" lon="10.94966751455246"><ele>335.3333333333333</ele><time>2026-04-26T13:47:06.002Z</time></trkpt><trkpt lat="43.53827844003938" lon="10.949765910213427"><ele>336.0</ele><time>2026-04-26T13:47:07.002Z</time></trkpt><trkpt lat="43.53813868817444" lon="10.94988888016452"><ele>336.0</ele><time>2026-04-26T13:47:08.002Z</time></trkpt><trkpt lat="43.53799656073128" lon="10.950015973921195"><ele>336.0</ele><time>2026-04-26T13:47:09.002Z</time></trkpt><trkpt lat="43.537854635062885" lon="10.950126696860046"><ele>336.0</ele><time>2026-04-26T13:47:10.002Z</time></trkpt><trkpt lat="43.53769294035465" lon="10.950213392051362"><ele>340.0</ele><time>2026-04-26T13:47:11.002Z</time></trkpt><trkpt lat="43.537502515668216" lon="10.950281696549142"><ele>344.0</ele><time>2026-04-26T13:47:12.002Z</time></trkpt><trkpt lat="43.537291917595915" lon="10.950333674290702"><ele>348.0</ele><time>2026-04-26T13:47:13.002Z</time></trkpt><trkpt lat="43.5370657448988" lon="10.950386337362863"><ele>348.6666666666667</ele><time>2026-04-26T13:47:14.002Z</time></trkpt><trkpt lat="43.53685126308516" lon="10.950465361420056"><ele>349.33333333333337</ele><time>2026-04-26T13:47:15.002Z</time></trkpt><trkpt lat="43.53665826696629" lon="10.950548744989998"><ele>350.0</ele><time>2026-04-26T13:47:16.002Z</time></trkpt><trkpt lat="43.53647833289924" lon="10.950616508952518"><ele>350.0</ele><time>2026-04-26T13:47:17.002Z</time></trkpt><trkpt lat="43.53631426436889" lon="10.95064333319324"><ele>350.0</ele><time>2026-04-26T13:47:18.002Z</time></trkpt><trkpt lat="43.536146917659025" lon="10.9506317368506"><ele>350.0</ele><time>2026-04-26T13:47:19.002Z</time></trkpt><trkpt lat="43.53597723434122" lon="10.950584567436307"><ele>352.6666666666667</ele><time>2026-04-26T13:47:20.002Z</time></trkpt><trkpt lat="43.535813741747546" lon="10.950509101109558"><ele>355.3333333333333</ele><time>2026-04-26T13:47:21.002Z</time></trkpt><trkpt lat="43.53565634928547" lon="10.950396308361306"><ele>358.0</ele><time>2026-04-26T13:47:22.002Z</time></trkpt><trkpt lat="43.535500708545854" lon="10.950257438870253"><ele>361.3333333333333</ele><time>2026-04-26T13:47:23.002Z</time></trkpt><trkpt lat="43.535339040763134" lon="10.950114050515957"><ele>364.6666666666667</ele><time>2026-04-26T13:47:24.002Z</time></trkpt><trkpt lat="43.535169857854214" lon="10.95000303946134"><ele>368.0</ele><time>2026-04-26T13:47:25.003Z</time></trkpt><trkpt lat="43.53499407464826" lon="10.949917370863952"><ele>368.0</ele><time>2026-04-26T13:47:26.003Z</time></trkpt><trkpt lat="43.53482385021729" lon="10.949850468689238"><ele>368.0</ele><time>2026-04-26T13:47:27.003Z</time></trkpt><trkpt lat="43.534665051576894" lon="10.94979000070152"><ele>368.0</ele><time>2026-04-26T13:47:28.003Z</time></trkpt><trkpt lat="43.53452888297582" lon="10.949709406048573"><ele>371.75</ele><time>2026-04-26T13:47:29.003Z</time></trkpt><trkpt lat="43.534417890478295" lon="10.949600775915718"><ele>375.5</ele><time>2026-04-26T13:47:30.003Z</time></trkpt><trkpt lat="43.53433444476117" lon="10.94947754339102"><ele>379.25</ele><time>2026-04-26T13:47:31.003Z</time></trkpt><trkpt lat="43.53427367989108" lon="10.949327363266201"><ele>383.0</ele><time>2026-04-26T13:47:32.003Z</time></trkpt><trkpt lat="43.53420890076172" lon="10.9491596993555"><ele>384.33333333333337</ele><time>2026-04-26T13:47:33.003Z</time></trkpt><trkpt lat="43.534113884135685" lon="10.94902001094757"><ele>385.6666666666667</ele><time>2026-04-26T13:47:34.003Z</time></trkpt><trkpt lat="43.53398502349982" lon="10.9489096641233"><ele>387.0</ele><time>2026-04-26T13:47:35.003Z</time></trkpt><trkpt lat="43.53383960275002" lon="10.948802330490654"><ele>390.0</ele><time>2026-04-26T13:47:36.003Z</time></trkpt><trkpt lat="43.533712548385346" lon="10.948696486213695"><ele>393.0</ele><time>2026-04-26T13:47:37.003Z</time></trkpt><trkpt lat="43.53360340049268" lon="10.948548308172533"><ele>396.0</ele><time>2026-04-26T13:47:38.003Z</time></trkpt><trkpt lat="43.53349914836094" lon="10.948386252012728"><ele>396.25</ele><time>2026-04-26T13:47:39.003Z</time></trkpt><trkpt lat="43.53341736732595" lon="10.948248247178832"><ele>396.5</ele><time>2026-04-26T13:47:40.003Z</time></trkpt><trkpt lat="43.533362357068256" lon="10.948120180675343"><ele>396.75</ele><time>2026-04-26T13:47:41.003Z</time></trkpt><trkpt lat="43.53334207652941" lon="10.947977316019461"><ele>397.0</ele><time>2026-04-26T13:47:42.003Z</time></trkpt><trkpt lat="43.53334996761432" lon="10.94780101331395"><ele>397.0</ele><time>2026-04-26T13:47:43.003Z</time></trkpt><trkpt lat="43.533378345269426" lon="10.94760374392064"><ele>397.0</ele><time>2026-04-26T13:47:44.003Z</time></trkpt><trkpt lat="43.533399844579066" lon="10.947421416608591"><ele>397.0</ele><time>2026-04-26T13:47:45.003Z</time></trkpt><trkpt lat="43.53339772427918" lon="10.947248661642346"><ele>397.0</ele><time>2026-04-26T13:47:46.003Z</time></trkpt><trkpt lat="43.533367453785644" lon="10.947075570006703"><ele>397.33333333333337</ele><time>2026-04-26T13:47:47.003Z</time></trkpt><trkpt lat="43.533303105264565" lon="10.946893319154842"><ele>397.66666666666663</ele><time>2026-04-26T13:47:48.003Z</time></trkpt><trkpt lat="43.53321852072951" lon="10.946698166571709"><ele>398.0</ele><time>2026-04-26T13:47:49.003Z</time></trkpt><trkpt lat="43.533132619553534" lon="10.94649584679045"><ele>398.66666666666663</ele><time>2026-04-26T13:47:50.003Z</time></trkpt><trkpt lat="43.53305187466514" lon="10.946288524825352"><ele>399.33333333333337</ele><time>2026-04-26T13:47:51.003Z</time></trkpt><trkpt lat="43.5329698681594" lon="10.946087054412855"><ele>400.0</ele><time>2026-04-26T13:47:52.003Z</time></trkpt><trkpt lat="43.532907511502685" lon="10.945896893641244"><ele>401.6666666666667</ele><time>2026-04-26T13:47:53.003Z</time></trkpt><trkpt lat="43.532848383249686" lon="10.945711041622278"><ele>403.33333333333337</ele><time>2026-04-26T13:47:54.003Z</time></trkpt><trkpt lat="43.53281057153693" lon="10.945500666311125"><ele>405.0</ele><time>2026-04-26T13:47:54.999Z</time></trkpt><trkpt lat="43.53279033454296" lon="10.945269929179831"><ele>405.33333333333337</ele><time>2026-04-26T13:47:55.999Z</time></trkpt><trkpt lat="43.5327928628557" lon="10.945017373478516"><ele>405.6666666666667</ele><time>2026-04-26T13:47:56.999Z</time></trkpt><trkpt lat="43.532796742474424" lon="10.944761377394185"><ele>406.0</ele><time>2026-04-26T13:47:58Z</time></trkpt><trkpt lat="43.5327989786876" lon="10.94451121493219"><ele>406.0</ele><time>2026-04-26T13:47:59Z</time></trkpt><trkpt lat="43.53279664167488" lon="10.944255864704909"><ele>406.0</ele><time>2026-04-26T13:48:00Z</time></trkpt><trkpt lat="43.53279713200133" lon="10.943976549490786"><ele>406.0</ele><time>2026-04-26T13:48:01Z</time></trkpt><trkpt lat="43.53279541782122" lon="10.94366806977674"><ele>405.33333333333337</ele><time>2026-04-26T13:48:02Z</time></trkpt><trkpt lat="43.53279222443857" lon="10.94337034095359"><ele>404.66666666666663</ele><time>2026-04-26T13:48:03Z</time></trkpt><trkpt lat="43.53279407526559" lon="10.943087607778141"><ele>404.0</ele><time>2026-04-26T13:48:04Z</time></trkpt><trkpt lat="43.5327904560693" lon="10.9428049392728"><ele>405.3333333333333</ele><time>2026-04-26T13:48:05Z</time></trkpt><trkpt lat="43.532776029842225" lon="10.942513779880006"><ele>406.66666666666663</ele><time>2026-04-26T13:48:06Z</time></trkpt><trkpt lat="43.53275851285" lon="10.942226207706423"><ele>408.0</ele><time>2026-04-26T13:48:07Z</time></trkpt><trkpt lat="43.53273283626291" lon="10.9419424332883"><ele>409.33333333333337</ele><time>2026-04-26T13:48:08Z</time></trkpt><trkpt lat="43.53270180318183" lon="10.941651610219939"><ele>410.6666666666667</ele><time>2026-04-26T13:48:09Z</time></trkpt><trkpt lat="43.53267876518902" lon="10.941375761098953"><ele>412.0</ele><time>2026-04-26T13:48:10Z</time></trkpt><trkpt lat="43.53265091712888" lon="10.941104052590978"><ele>411.0</ele><time>2026-04-26T13:48:11Z</time></trkpt><trkpt lat="43.53262927404431" lon="10.940837742215235"><ele>410.0</ele><time>2026-04-26T13:48:12Z</time></trkpt><trkpt lat="43.532606893713975" lon="10.94057519912744"><ele>409.0</ele><time>2026-04-26T13:48:13Z</time></trkpt><trkpt lat="43.53258274644997" lon="10.940318123589263"><ele>409.0</ele><time>2026-04-26T13:48:14Z</time></trkpt><trkpt lat="43.532559646473594" lon="10.940071835561303"><ele>409.0</ele><time>2026-04-26T13:48:15Z</time></trkpt><trkpt lat="43.53253790324777" lon="10.939837738882614"><ele>409.0</ele><time>2026-04-26T13:48:16Z</time></trkpt><trkpt lat="43.53252288106207" lon="10.939617081936614"><ele>409.0</ele><time>2026-04-26T13:48:17Z</time></trkpt><trkpt lat="43.532505353190665" lon="10.939401769291148"><ele>409.0</ele><time>2026-04-26T13:48:18Z</time></trkpt><trkpt lat="43.53247263159008" lon="10.939179499464943"><ele>409.0</ele><time>2026-04-26T13:48:19Z</time></trkpt><trkpt lat="43.532417520514684" lon="10.938958962349407"><ele>409.0</ele><time>2026-04-26T13:48:20Z</time></trkpt><trkpt lat="43.532348922164445" lon="10.938742273197512"><ele>409.0</ele><time>2026-04-26T13:48:21Z</time></trkpt><trkpt lat="43.5322531924541" lon="10.93852785163823"><ele>409.0</ele><time>2026-04-26T13:48:22Z</time></trkpt><trkpt lat="43.53213989762343" lon="10.938299232153566"><ele>409.0</ele><time>2026-04-26T13:48:23Z</time></trkpt><trkpt lat="43.53202705964495" lon="10.938054870468669"><ele>409.0</ele><time>2026-04-26T13:48:24Z</time></trkpt><trkpt lat="43.53191029793514" lon="10.937818192371147"><ele>409.0</ele><time>2026-04-26T13:48:25Z</time></trkpt><trkpt lat="43.531807879991774" lon="10.937580657435072"><ele>409.6666666666667</ele><time>2026-04-26T13:48:26.001Z</time></trkpt><trkpt lat="43.53170415785813" lon="10.937351157352634"><ele>410.33333333333337</ele><time>2026-04-26T13:48:27.001Z</time></trkpt><trkpt lat="43.53160299344367" lon="10.937134949955826"><ele>411.0</ele><time>2026-04-26T13:48:28.001Z</time></trkpt><trkpt lat="43.53150719001743" lon="10.936911949357864"><ele>410.66666666666663</ele><time>2026-04-26T13:48:29.001Z</time></trkpt><trkpt lat="43.53141295627624" lon="10.93669189172434"><ele>410.3333333333333</ele><time>2026-04-26T13:48:30.001Z</time></trkpt><trkpt lat="43.531333395043184" lon="10.936456411490616"><ele>410.0</ele><time>2026-04-26T13:48:31.001Z</time></trkpt><trkpt lat="43.53126869722147" lon="10.936211845989439"><ele>410.0</ele><time>2026-04-26T13:48:32.001Z</time></trkpt><trkpt lat="43.53122997349179" lon="10.935954331166982"><ele>410.0</ele><time>2026-04-26T13:48:33.001Z</time></trkpt><trkpt lat="43.53120028588552" lon="10.9356896460638"><ele>410.0</ele><time>2026-04-26T13:48:34.001Z</time></trkpt><trkpt lat="43.53116691356304" lon="10.935422116564057"><ele>411.3333333333333</ele><time>2026-04-26T13:48:35.001Z</time></trkpt><trkpt lat="43.5311256811791" lon="10.93515632638012"><ele>412.66666666666663</ele><time>2026-04-26T13:48:36.001Z</time></trkpt><trkpt lat="43.53108898827402" lon="10.934902227268292"><ele>414.0</ele><time>2026-04-26T13:48:37.001Z</time></trkpt><trkpt lat="43.53105566603582" lon="10.934656623856332"><ele>414.66666666666663</ele><time>2026-04-26T13:48:38.001Z</time></trkpt><trkpt lat="43.53101829201383" lon="10.934403903804846"><ele>415.3333333333333</ele><time>2026-04-26T13:48:39.001Z</time></trkpt><trkpt lat="43.53098323459023" lon="10.934141480504783"><ele>416.0</ele><time>2026-04-26T13:48:40.001Z</time></trkpt><trkpt lat="43.53094535663435" lon="10.9338781212024"><ele>416.66666666666663</ele><time>2026-04-26T13:48:41.001Z</time></trkpt><trkpt lat="43.53090716632821" lon="10.933607693496477"><ele>417.33333333333337</ele><time>2026-04-26T13:48:42.001Z</time></trkpt><trkpt lat="43.530870156111156" lon="10.933338230442516"><ele>418.0</ele><time>2026-04-26T13:48:43.001Z</time></trkpt><trkpt lat="43.53083209917353" lon="10.93306638011644"><ele>418.6666666666667</ele><time>2026-04-26T13:48:44.001Z</time></trkpt><trkpt lat="43.530790696857686" lon="10.932794967822552"><ele>419.33333333333337</ele><time>2026-04-26T13:48:45.001Z</time></trkpt><trkpt lat="43.530750149541355" lon="10.932520075947728"><ele>420.0</ele><time>2026-04-26T13:48:46.001Z</time></trkpt><trkpt lat="43.53070897597043" lon="10.932252282722875"><ele>420.33333333333337</ele><time>2026-04-26T13:48:47.001Z</time></trkpt><trkpt lat="43.53066351657183" lon="10.931994127516806"><ele>420.6666666666667</ele><time>2026-04-26T13:48:48.001Z</time></trkpt><trkpt lat="43.53060300326996" lon="10.93173922075932"><ele>421.0</ele><time>2026-04-26T13:48:49.001Z</time></trkpt><trkpt lat="43.53052695360998" lon="10.931491753439268"><ele>421.33333333333337</ele><time>2026-04-26T13:48:50.001Z</time></trkpt><trkpt lat="43.53043769670291" lon="10.931242012488248"><ele>421.66666666666663</ele><time>2026-04-26T13:48:51.001Z</time></trkpt><trkpt lat="43.530341645848054" lon="10.93098660798683"><ele>422.0</ele><time>2026-04-26T13:48:52.001Z</time></trkpt><trkpt lat="43.53024896844771" lon="10.930723426032566"><ele>424.0</ele><time>2026-04-26T13:48:53.001Z</time></trkpt><trkpt lat="43.53015985139316" lon="10.930460461840829"><ele>426.0</ele><time>2026-04-26T13:48:54.001Z</time></trkpt><trkpt lat="43.53007776614997" lon="10.93021287517278"><ele>428.0</ele><time>2026-04-26T13:48:55.001Z</time></trkpt><trkpt lat="43.53000473528826" lon="10.929984289344707"><ele>429.66666666666663</ele><time>2026-04-26T13:48:56.001Z</time></trkpt><trkpt lat="43.52993634424223" lon="10.92977542537826"><ele>431.33333333333337</ele><time>2026-04-26T13:48:57.002Z</time></trkpt><trkpt lat="43.529860828737874" lon="10.929579754679065"><ele>433.0</ele><time>2026-04-26T13:48:58.002Z</time></trkpt><trkpt lat="43.52977984759274" lon="10.929406750776863"><ele>433.0</ele><time>2026-04-26T13:48:59.002Z</time></trkpt><trkpt lat="43.52968956461342" lon="10.929268347857006"><ele>433.0</ele><time>2026-04-26T13:49:00.002Z</time></trkpt><trkpt lat="43.52957922175649" lon="10.929145093532433"><ele>433.0</ele><time>2026-04-26T13:49:01.002Z</time></trkpt><trkpt lat="43.52944155271368" lon="10.92902942480165"><ele>433.0</ele><time>2026-04-26T13:49:02.002Z</time></trkpt><trkpt lat="43.52928276739629" lon="10.928913508595986"><ele>433.0</ele><time>2026-04-26T13:49:03.002Z</time></trkpt><trkpt lat="43.529125469741366" lon="10.928800266890587"><ele>433.0</ele><time>2026-04-26T13:49:04.002Z</time></trkpt><trkpt lat="43.52897968906033" lon="10.928691469462041"><ele>433.0</ele><time>2026-04-26T13:49:05.002Z</time></trkpt><trkpt lat="43.5288209855135" lon="10.928592744296012"><ele>432.0</ele><time>2026-04-26T13:49:06.002Z</time></trkpt><trkpt lat="43.528645277374714" lon="10.928519866906694"><ele>431.0</ele><time>2026-04-26T13:49:07.002Z</time></trkpt><trkpt lat="43.52846395483446" lon="10.928488728825249"><ele>430.0</ele><time>2026-04-26T13:49:08.002Z</time></trkpt><trkpt lat="43.5282778743625" lon="10.92847925235492"><ele>430.0</ele><time>2026-04-26T13:49:09.002Z</time></trkpt><trkpt lat="43.52808302396459" lon="10.928491715663787"><ele>430.0</ele><time>2026-04-26T13:49:10.002Z</time></trkpt><trkpt lat="43.52787168321182" lon="10.928510585754617"><ele>430.0</ele><time>2026-04-26T13:49:11.002Z</time></trkpt><trkpt lat="43.52765508702087" lon="10.928520037775813"><ele>429.5</ele><time>2026-04-26T13:49:12.002Z</time></trkpt><trkpt lat="43.527425624704414" lon="10.928526954843345"><ele>429.0</ele><time>2026-04-26T13:49:13.002Z</time></trkpt><trkpt lat="43.527188082927616" lon="10.928555633996996"><ele>428.66666666666663</ele><time>2026-04-26T13:49:14.002Z</time></trkpt><trkpt lat="43.52696109035083" lon="10.928586092483203"><ele>428.3333333333333</ele><time>2026-04-26T13:49:15.002Z</time></trkpt><trkpt lat="43.526753071296234" lon="10.92861896046107"><ele>428.0</ele><time>2026-04-26T13:49:16.002Z</time></trkpt><trkpt lat="43.52655256253074" lon="10.928655171235285"><ele>428.0</ele><time>2026-04-26T13:49:17.002Z</time></trkpt><trkpt lat="43.52636082883136" lon="10.928682264738017"><ele>428.0</ele><time>2026-04-26T13:49:18.002Z</time></trkpt><trkpt lat="43.526170164812484" lon="10.928705440961107"><ele>428.0</ele><time>2026-04-26T13:49:19.002Z</time></trkpt><trkpt lat="43.52598044461274" lon="10.92872964955353"><ele>427.3333333333333</ele><time>2026-04-26T13:49:20.002Z</time></trkpt><trkpt lat="43.52579582596304" lon="10.92875259457144"><ele>426.66666666666663</ele><time>2026-04-26T13:49:21.002Z</time></trkpt><trkpt lat="43.525615567134835" lon="10.928777979969224"><ele>426.0</ele><time>2026-04-26T13:49:22.002Z</time></trkpt><trkpt lat="43.52543977052825" lon="10.928804475302538"><ele>424.0</ele><time>2026-04-26T13:49:23.002Z</time></trkpt><trkpt lat="43.52526564553713" lon="10.928831415958856"><ele>422.0</ele><time>2026-04-26T13:49:24.002Z</time></trkpt><trkpt lat="43.52509180053714" lon="10.928851939984153"><ele>420.0</ele><time>2026-04-26T13:49:25.002Z</time></trkpt><trkpt lat="43.524918978162546" lon="10.928857997298211"><ele>420.0</ele><time>2026-04-26T13:49:26.002Z</time></trkpt><trkpt lat="43.52473262401099" lon="10.928839491003824"><ele>420.0</ele><time>2026-04-26T13:49:27.002Z</time></trkpt><trkpt lat="43.52454194865425" lon="10.928801158703802"><ele>420.0</ele><time>2026-04-26T13:49:28.002Z</time></trkpt><trkpt lat="43.52434682475916" lon="10.928762041101836"><ele>420.33333333333337</ele><time>2026-04-26T13:49:29.002Z</time></trkpt><trkpt lat="43.524148909405355" lon="10.928723186672245"><ele>420.6666666666667</ele><time>2026-04-26T13:49:30.003Z</time></trkpt><trkpt lat="43.52395331366746" lon="10.928685362856157"><ele>421.0</ele><time>2026-04-26T13:49:31.003Z</time></trkpt><trkpt lat="43.523777139085084" lon="10.928649428825215"><ele>421.6666666666667</ele><time>2026-04-26T13:49:32.003Z</time></trkpt><trkpt lat="43.52360449735909" lon="10.928602660091034"><ele>422.33333333333337</ele><time>2026-04-26T13:49:33.003Z</time></trkpt><trkpt lat="43.52343579434212" lon="10.928561445418623"><ele>423.0</ele><time>2026-04-26T13:49:34.003Z</time></trkpt><trkpt lat="43.52326229646256" lon="10.92850345803819"><ele>423.0</ele><time>2026-04-26T13:49:35.003Z</time></trkpt><trkpt lat="43.52308071484948" lon="10.928411152526024"><ele>423.0</ele><time>2026-04-26T13:49:36.003Z</time></trkpt><trkpt lat="43.52288270692161" lon="10.928296990642348"><ele>423.0</ele><time>2026-04-26T13:49:37.003Z</time></trkpt><trkpt lat="43.52268204616965" lon="10.928185853642619"><ele>426.0</ele><time>2026-04-26T13:49:38.003Z</time></trkpt><trkpt lat="43.522488767465106" lon="10.928083631432548"><ele>429.0</ele><time>2026-04-26T13:49:39.003Z</time></trkpt><trkpt lat="43.52229854824056" lon="10.92798077946194"><ele>432.0</ele><time>2026-04-26T13:49:40.003Z</time></trkpt><trkpt lat="43.522107700161555" lon="10.927887673804252"><ele>431.33333333333337</ele><time>2026-04-26T13:49:41.003Z</time></trkpt><trkpt lat="43.52190590679849" lon="10.927809607850113"><ele>430.6666666666667</ele><time>2026-04-26T13:49:42.003Z</time></trkpt><trkpt lat="43.52169908262029" lon="10.927745726777786"><ele>430.0</ele><time>2026-04-26T13:49:43.003Z</time></trkpt><trkpt lat="43.521489198065105" lon="10.927696424660526"><ele>430.0</ele><time>2026-04-26T13:49:44.003Z</time></trkpt><trkpt lat="43.521280437180806" lon="10.927647706866448"><ele>430.0</ele><time>2026-04-26T13:49:45.003Z</time></trkpt><trkpt lat="43.52107814417321" lon="10.927596606757794"><ele>430.0</ele><time>2026-04-26T13:49:46.003Z</time></trkpt><trkpt lat="43.520883617922344" lon="10.927543170914667"><ele>432.33333333333337</ele><time>2026-04-26T13:49:47.003Z</time></trkpt><trkpt lat="43.520702198563015" lon="10.927486609070723"><ele>434.66666666666663</ele><time>2026-04-26T13:49:48.003Z</time></trkpt><trkpt lat="43.52052695395476" lon="10.927438497350888"><ele>437.0</ele><time>2026-04-26T13:49:49.003Z</time></trkpt><trkpt lat="43.52035911337572" lon="10.927391873181918"><ele>438.0</ele><time>2026-04-26T13:49:50.003Z</time></trkpt><trkpt lat="43.52018409664357" lon="10.927345648369013"><ele>439.0</ele><time>2026-04-26T13:49:51.003Z</time></trkpt><trkpt lat="43.520014904295735" lon="10.927300281460198"><ele>440.0</ele><time>2026-04-26T13:49:52.003Z</time></trkpt><trkpt lat="43.51984120886252" lon="10.927251188510883"><ele>440.0</ele><time>2026-04-26T13:49:53.003Z</time></trkpt><trkpt lat="43.519662137021754" lon="10.927197668406448"><ele>440.0</ele><time>2026-04-26T13:49:54.003Z</time></trkpt><trkpt lat="43.519479040921034" lon="10.92715469607247"><ele>440.0</ele><time>2026-04-26T13:49:55.003Z</time></trkpt><trkpt lat="43.519292761855844" lon="10.92712400647439"><ele>440.3333333333333</ele><time>2026-04-26T13:49:56.003Z</time></trkpt><trkpt lat="43.51909798116406" lon="10.92710187020276"><ele>440.66666666666663</ele><time>2026-04-26T13:49:57.003Z</time></trkpt><trkpt lat="43.51889629122039" lon="10.927081333234709"><ele>441.0</ele><time>2026-04-26T13:49:58.003Z</time></trkpt><trkpt lat="43.51868970758677" lon="10.927067086718203"><ele>440.0</ele><time>2026-04-26T13:49:59.003Z</time></trkpt><trkpt lat="43.51846948725017" lon="10.927056950558896"><ele>439.0</ele><time>2026-04-26T13:50:00.003Z</time></trkpt><trkpt lat="43.518237704121994" lon="10.927027368781971"><ele>439.0</ele><time>2026-04-26T13:50:01Z</time></trkpt><trkpt lat="43.51800043055863" lon="10.927008127268808"><ele>439.0</ele><time>2026-04-26T13:50:02Z</time></trkpt><trkpt lat="43.51777927268571" lon="10.92699088409964"><ele>438.6666666666667</ele><time>2026-04-26T13:50:03Z</time></trkpt><trkpt lat="43.51757217002272" lon="10.926974274507657"><ele>438.33333333333337</ele><time>2026-04-26T13:50:04Z</time></trkpt><trkpt lat="43.51737192197434" lon="10.926956621436183"><ele>438.0</ele><time>2026-04-26T13:50:05Z</time></trkpt><trkpt lat="43.51717796752623" lon="10.926944516823154"><ele>439.0</ele><time>2026-04-26T13:50:06Z</time></trkpt><trkpt lat="43.51698714144127" lon="10.92692120045407"><ele>440.0</ele><time>2026-04-26T13:50:07Z</time></trkpt><trkpt lat="43.516808830386005" lon="10.926908784181043"><ele>441.0</ele><time>2026-04-26T13:50:08Z</time></trkpt><trkpt lat="43.51663886119743" lon="10.926895168238486"><ele>441.0</ele><time>2026-04-26T13:50:09Z</time></trkpt><trkpt lat="43.51648043576774" lon="10.926880644150236"><ele>441.0</ele><time>2026-04-26T13:50:10Z</time></trkpt><trkpt lat="43.51633016170641" lon="10.926874474776406"><ele>441.0</ele><time>2026-04-26T13:50:11Z</time></trkpt><trkpt lat="43.51619373738414" lon="10.926903546641173"><ele>441.0</ele><time>2026-04-26T13:50:12Z</time></trkpt><trkpt lat="43.51607634004349" lon="10.926983225119251"><ele>443.75</ele><time>2026-04-26T13:50:13Z</time></trkpt><trkpt lat="43.515978084723166" lon="10.927106342337382"><ele>446.5</ele><time>2026-04-26T13:50:14Z</time></trkpt><trkpt lat="43.51590726966375" lon="10.927276161680505"><ele>449.25</ele><time>2026-04-26T13:50:15Z</time></trkpt><trkpt lat="43.51582914212109" lon="10.92744394640455"><ele>452.0</ele><time>2026-04-26T13:50:16Z</time></trkpt><trkpt lat="43.515741902892444" lon="10.927617402916"><ele>452.0</ele><time>2026-04-26T13:50:17Z</time></trkpt><trkpt lat="43.51562334629121" lon="10.927787990393847"><ele>452.0</ele><time>2026-04-26T13:50:18Z</time></trkpt><trkpt lat="43.515491441150694" lon="10.92794503946768"><ele>452.0</ele><time>2026-04-26T13:50:19Z</time></trkpt><trkpt lat="43.51533941194303" lon="10.928081578770659"><ele>455.66666666666663</ele><time>2026-04-26T13:50:20Z</time></trkpt><trkpt lat="43.515180774424586" lon="10.928216373171928"><ele>459.33333333333337</ele><time>2026-04-26T13:50:21Z</time></trkpt><trkpt lat="43.51504257232008" lon="10.92835250985619"><ele>463.0</ele><time>2026-04-26T13:50:22Z</time></trkpt><trkpt lat="43.51490482262168" lon="10.928474384222525"><ele>463.6666666666667</ele><time>2026-04-26T13:50:23Z</time></trkpt><trkpt lat="43.514753756540195" lon="10.92856185156564"><ele>464.33333333333337</ele><time>2026-04-26T13:50:24Z</time></trkpt><trkpt lat="43.51458839416182" lon="10.928580763329968"><ele>465.0</ele><time>2026-04-26T13:50:25Z</time></trkpt><trkpt lat="43.51442959401828" lon="10.928616279797826"><ele>467.75</ele><time>2026-04-26T13:50:26Z</time></trkpt><trkpt lat="43.51428905826891" lon="10.928619550347088"><ele>470.5</ele><time>2026-04-26T13:50:27Z</time></trkpt><trkpt lat="43.51415606741516" lon="10.928648284161598"><ele>473.25</ele><time>2026-04-26T13:50:28Z</time></trkpt><trkpt lat="43.51401904726872" lon="10.928720322953696"><ele>476.0</ele><time>2026-04-26T13:50:29Z</time></trkpt><trkpt lat="43.51388576749545" lon="10.928827979441373"><ele>476.0</ele><time>2026-04-26T13:50:30Z</time></trkpt><trkpt lat="43.51376375382731" lon="10.92896798679166"><ele>476.0</ele><time>2026-04-26T13:50:31Z</time></trkpt><trkpt lat="43.51364403949418" lon="10.929135808697431"><ele>476.0</ele><time>2026-04-26T13:50:32.001Z</time></trkpt><trkpt lat="43.513535800233036" lon="10.929316726212633"><ele>477.66666666666663</ele><time>2026-04-26T13:50:33.001Z</time></trkpt><trkpt lat="43.51343116152656" lon="10.929531418727642"><ele>479.33333333333337</ele><time>2026-04-26T13:50:34.001Z</time></trkpt><trkpt lat="43.51334174512996" lon="10.929729483612382"><ele>481.0</ele><time>2026-04-26T13:50:35.001Z</time></trkpt><trkpt lat="43.51325564408411" lon="10.929901350679414"><ele>481.0</ele><time>2026-04-26T13:50:36.001Z</time></trkpt><trkpt lat="43.513149625033165" lon="10.930033321210786"><ele>481.0</ele><time>2026-04-26T13:50:37.001Z</time></trkpt><trkpt lat="43.513030118245176" lon="10.930124264511788"><ele>481.0</ele><time>2026-04-26T13:50:38.001Z</time></trkpt><trkpt lat="43.51288882160897" lon="10.930183224908731"><ele>481.0</ele><time>2026-04-26T13:50:39.001Z</time></trkpt><trkpt lat="43.51272633000342" lon="10.930215529637897"><ele>482.0</ele><time>2026-04-26T13:50:40.001Z</time></trkpt><trkpt lat="43.51256018530731" lon="10.930220677194486"><ele>483.0</ele><time>2026-04-26T13:50:41.001Z</time></trkpt><trkpt lat="43.51238654560083" lon="10.93018396167009"><ele>484.0</ele><time>2026-04-26T13:50:42.001Z</time></trkpt><trkpt lat="43.512205657150815" lon="10.930135761687376"><ele>484.6666666666667</ele><time>2026-04-26T13:50:43.001Z</time></trkpt><trkpt lat="43.51202143265379" lon="10.930084709162985"><ele>485.33333333333337</ele><time>2026-04-26T13:50:44.001Z</time></trkpt><trkpt lat="43.51184360564914" lon="10.930030445925484"><ele>486.0</ele><time>2026-04-26T13:50:45.001Z</time></trkpt><trkpt lat="43.51166062083997" lon="10.929956908996552"><ele>486.0</ele><time>2026-04-26T13:50:46.001Z</time></trkpt><trkpt lat="43.51147740506793" lon="10.929868080214254"><ele>486.0</ele><time>2026-04-26T13:50:47.001Z</time></trkpt><trkpt lat="43.51128762004234" lon="10.929747563286922"><ele>486.0</ele><time>2026-04-26T13:50:48.001Z</time></trkpt><trkpt lat="43.511100913750035" lon="10.92961196012565"><ele>488.33333333333337</ele><time>2026-04-26T13:50:49.001Z</time></trkpt><trkpt lat="43.51092273124164" lon="10.929480654085133"><ele>490.6666666666667</ele><time>2026-04-26T13:50:50.001Z</time></trkpt><trkpt lat="43.510750630832014" lon="10.92935573396453"><ele>493.0</ele><time>2026-04-26T13:50:51.001Z</time></trkpt><trkpt lat="43.51058790026145" lon="10.929243611416082"><ele>492.33333333333337</ele><time>2026-04-26T13:50:52.001Z</time></trkpt><trkpt lat="43.51043744616882" lon="10.929146107029812"><ele>491.66666666666663</ele><time>2026-04-26T13:50:53.001Z</time></trkpt><trkpt lat="43.51027970404564" lon="10.929058778003625"><ele>491.0</ele><time>2026-04-26T13:50:54.001Z</time></trkpt><trkpt lat="43.5101025527151" lon="10.92896291328895"><ele>491.0</ele><time>2026-04-26T13:50:55.001Z</time></trkpt><trkpt lat="43.509928704081055" lon="10.928880106201218"><ele>491.0</ele><time>2026-04-26T13:50:56.001Z</time></trkpt><trkpt lat="43.50976346370871" lon="10.928790074161894"><ele>491.0</ele><time>2026-04-26T13:50:57.001Z</time></trkpt><trkpt lat="43.50960476745086" lon="10.928704059427034"><ele>488.66666666666663</ele><time>2026-04-26T13:50:58.001Z</time></trkpt><trkpt lat="43.509433073154185" lon="10.92862753441736"><ele>486.33333333333337</ele><time>2026-04-26T13:50:59.001Z</time></trkpt><trkpt lat="43.509249721393694" lon="10.928572792335652"><ele>484.0</ele><time>2026-04-26T13:51:00.001Z</time></trkpt><trkpt lat="43.50906279245169" lon="10.928544074780563"><ele>484.0</ele><time>2026-04-26T13:51:01.001Z</time></trkpt><trkpt lat="43.508863553263616" lon="10.928553512443926"><ele>484.0</ele><time>2026-04-26T13:51:02.001Z</time></trkpt><trkpt lat="43.50865887849419" lon="10.928579375753523"><ele>484.0</ele><time>2026-04-26T13:51:03.001Z</time></trkpt><trkpt lat="43.50843769123143" lon="10.928599132644575"><ele>486.0</ele><time>2026-04-26T13:51:04.002Z</time></trkpt><trkpt lat="43.50821766964739" lon="10.928626394987452"><ele>488.0</ele><time>2026-04-26T13:51:05.002Z</time></trkpt><trkpt lat="43.50801181147248" lon="10.928643038352357"><ele>490.0</ele><time>2026-04-26T13:51:06.002Z</time></trkpt><trkpt lat="43.50782394077611" lon="10.928658724817938"><ele>491.33333333333337</ele><time>2026-04-26T13:51:07.002Z</time></trkpt><trkpt lat="43.50764200132605" lon="10.928661686058883"><ele>492.66666666666663</ele><time>2026-04-26T13:51:08.002Z</time></trkpt><trkpt lat="43.507463646334294" lon="10.928678671082439"><ele>494.0</ele><time>2026-04-26T13:51:09.002Z</time></trkpt><trkpt lat="43.50728337694456" lon="10.928694848488332"><ele>494.0</ele><time>2026-04-26T13:51:10.002Z</time></trkpt><trkpt lat="43.50711339400691" lon="10.928720100620785"><ele>494.0</ele><time>2026-04-26T13:51:11.002Z</time></trkpt><trkpt lat="43.50695487503978" lon="10.928759320326096"><ele>494.0</ele><time>2026-04-26T13:51:12.002Z</time></trkpt><trkpt lat="43.50680448041175" lon="10.928816850165177"><ele>494.75</ele><time>2026-04-26T13:51:13.002Z</time></trkpt><trkpt lat="43.50667331593085" lon="10.928883003498312"><ele>495.5</ele><time>2026-04-26T13:51:14.002Z</time></trkpt><trkpt lat="43.506567329253926" lon="10.92896992122289"><ele>496.25</ele><time>2026-04-26T13:51:15.002Z</time></trkpt><trkpt lat="43.506496717763746" lon="10.929100696703518"><ele>497.0</ele><time>2026-04-26T13:51:16.002Z</time></trkpt><trkpt lat="43.50644938058838" lon="10.929263590480158"><ele>497.0</ele><time>2026-04-26T13:51:17.002Z</time></trkpt><trkpt lat="43.50639273970228" lon="10.929396179059703"><ele>497.00000000000006</ele><time>2026-04-26T13:51:18.002Z</time></trkpt><trkpt lat="43.50631389072902" lon="10.929499315547192"><ele>497.00000000000006</ele><time>2026-04-26T13:51:19.002Z</time></trkpt><trkpt lat="43.506213036817144" lon="10.929562630599793"><ele>497.0</ele><time>2026-04-26T13:51:20.002Z</time></trkpt><trkpt lat="43.50609778651983" lon="10.929589874525107"><ele>497.0</ele><time>2026-04-26T13:51:21.002Z</time></trkpt><trkpt lat="43.505967123475216" lon="10.92958081573558"><ele>499.0</ele><time>2026-04-26T13:51:22.002Z</time></trkpt><trkpt lat="43.505824763731574" lon="10.929577178700994"><ele>501.0</ele><time>2026-04-26T13:51:23.002Z</time></trkpt><trkpt lat="43.50566967106549" lon="10.92956636587184"><ele>503.0</ele><time>2026-04-26T13:51:24.002Z</time></trkpt><trkpt lat="43.505510287861675" lon="10.929561121373196"><ele>506.0</ele><time>2026-04-26T13:51:25.002Z</time></trkpt><trkpt lat="43.50533593816897" lon="10.929553645362894"><ele>509.0</ele><time>2026-04-26T13:51:26.002Z</time></trkpt><trkpt lat="43.50515408530797" lon="10.929541840247776"><ele>512.0</ele><time>2026-04-26T13:51:27.002Z</time></trkpt><trkpt lat="43.5049757980074" lon="10.929527278343077"><ele>512.0</ele><time>2026-04-26T13:51:28.002Z</time></trkpt><trkpt lat="43.50480853250297" lon="10.929508160194363"><ele>512.0</ele><time>2026-04-26T13:51:29.002Z</time></trkpt><trkpt lat="43.50464257922756" lon="10.929468374544731"><ele>512.0</ele><time>2026-04-26T13:51:30.002Z</time></trkpt><trkpt lat="43.50447286760789" lon="10.92942224280446"><ele>515.3333333333333</ele><time>2026-04-26T13:51:31.002Z</time></trkpt><trkpt lat="43.50430929550945" lon="10.929374744941837"><ele>518.6666666666666</ele><time>2026-04-26T13:51:32.002Z</time></trkpt><trkpt lat="43.50413774230968" lon="10.92932213183877"><ele>522.0</ele><time>2026-04-26T13:51:33.002Z</time></trkpt><trkpt lat="43.50397220993103" lon="10.929257263739785"><ele>522.3333333333334</ele><time>2026-04-26T13:51:34.002Z</time></trkpt><trkpt lat="43.50378883407267" lon="10.929186588591717"><ele>522.6666666666667</ele><time>2026-04-26T13:51:35.002Z</time></trkpt><trkpt lat="43.50358119076402" lon="10.929116958537547"><ele>523.0</ele><time>2026-04-26T13:51:36.002Z</time></trkpt><trkpt lat="43.50335835906407" lon="10.929030797703676"><ele>521.0</ele><time>2026-04-26T13:51:37.003Z</time></trkpt><trkpt lat="43.503128162881076" lon="10.92893960148894"><ele>519.0</ele><time>2026-04-26T13:51:38.003Z</time></trkpt><trkpt lat="43.502898516892394" lon="10.928854150907098"><ele>517.0</ele><time>2026-04-26T13:51:39.003Z</time></trkpt><trkpt lat="43.502670553458714" lon="10.92877172481061"><ele>515.0</ele><time>2026-04-26T13:51:40.003Z</time></trkpt><trkpt lat="43.50244315282254" lon="10.928682907573778"><ele>515.0</ele><time>2026-04-26T13:51:41.003Z</time></trkpt><trkpt lat="43.50220851314442" lon="10.928582963588093"><ele>515.0</ele><time>2026-04-26T13:51:42.003Z</time></trkpt><trkpt lat="43.50197956523528" lon="10.928495206296434"><ele>514.5</ele><time>2026-04-26T13:51:43.003Z</time></trkpt><trkpt lat="43.501750300434026" lon="10.92841594703821"><ele>514.0</ele><time>2026-04-26T13:51:44.003Z</time></trkpt><trkpt lat="43.501505907695844" lon="10.928320021632697"><ele>514.0</ele><time>2026-04-26T13:51:45.003Z</time></trkpt><trkpt lat="43.501251920950345" lon="10.928223949565512"><ele>514.0</ele><time>2026-04-26T13:51:46.003Z</time></trkpt><trkpt lat="43.50100055448552" lon="10.928127876288016"><ele>512.0</ele><time>2026-04-26T13:51:47.003Z</time></trkpt><trkpt lat="43.50073794613222" lon="10.928031916721704"><ele>510.0</ele><time>2026-04-26T13:51:48.003Z</time></trkpt><trkpt lat="43.50047968174008" lon="10.927943622285296"><ele>509.5</ele><time>2026-04-26T13:51:49.003Z</time></trkpt><trkpt lat="43.50023101516888" lon="10.927876899710038"><ele>509.0</ele><time>2026-04-26T13:51:50.003Z</time></trkpt><trkpt lat="43.49998881247036" lon="10.927815781001494"><ele>509.0</ele><time>2026-04-26T13:51:51.003Z</time></trkpt><trkpt lat="43.499756175647256" lon="10.92776301090703"><ele>509.0</ele><time>2026-04-26T13:51:52.003Z</time></trkpt><trkpt lat="43.49953109041868" lon="10.927710680676883"><ele>509.0</ele><time>2026-04-26T13:51:53.003Z</time></trkpt><trkpt lat="43.499319800759025" lon="10.927658869852632"><ele>509.0</ele><time>2026-04-26T13:51:54.003Z</time></trkpt><trkpt lat="43.4991063603627" lon="10.927604245500708"><ele>509.0</ele><time>2026-04-26T13:51:55.003Z</time></trkpt><trkpt lat="43.498882587001255" lon="10.927539792309206"><ele>510.66666666666663</ele><time>2026-04-26T13:51:56.003Z</time></trkpt><trkpt lat="43.49866890566907" lon="10.927466574419741"><ele>512.3333333333334</ele><time>2026-04-26T13:51:57.003Z</time></trkpt><trkpt lat="43.49846237710505" lon="10.927394478749473"><ele>514.0</ele><time>2026-04-26T13:51:58.003Z</time></trkpt><trkpt lat="43.49827630355166" lon="10.927327553425663"><ele>514.0</ele><time>2026-04-26T13:51:59.003Z</time></trkpt><trkpt lat="43.498097051534394" lon="10.927275179246365"><ele>514.0</ele><time>2026-04-26T13:52:00.003Z</time></trkpt><trkpt lat="43.49790596576194" lon="10.927230506320063"><ele>514.0</ele><time>2026-04-26T13:52:01.003Z</time></trkpt><trkpt lat="43.49770167270654" lon="10.92719388521724"><ele>512.6666666666667</ele><time>2026-04-26T13:52:02.003Z</time></trkpt><trkpt lat="43.49749719322562" lon="10.927160932490905"><ele>511.33333333333337</ele><time>2026-04-26T13:52:03.003Z</time></trkpt><trkpt lat="43.49731393625577" lon="10.927123657639305"><ele>510.0</ele><time>2026-04-26T13:52:04.003Z</time></trkpt><trkpt lat="43.49713071297986" lon="10.927079067339877"><ele>510.33333333333337</ele><time>2026-04-26T13:52:05.003Z</time></trkpt><trkpt lat="43.49696213000473" lon="10.927048213975473"><ele>510.6666666666667</ele><time>2026-04-26T13:52:06.003Z</time></trkpt><trkpt lat="43.49680051523507" lon="10.927015985120462"><ele>511.0</ele><time>2026-04-26T13:52:07Z</time></trkpt><trkpt lat="43.49666186048496" lon="10.926975171565337"><ele>511.0</ele><time>2026-04-26T13:52:08Z</time></trkpt><trkpt lat="43.4965627460956" lon="10.926932517988115"><ele>511.0</ele><time>2026-04-26T13:52:09Z</time></trkpt><trkpt lat="43.496461173403965" lon="10.926852557526717"><ele>511.0</ele><time>2026-04-26T13:52:10Z</time></trkpt><trkpt lat="43.4963590477417" lon="10.926726276275813"><ele>511.0</ele><time>2026-04-26T13:52:11Z</time></trkpt><trkpt lat="43.49625917680989" lon="10.926555088018103"><ele>509.5</ele><time>2026-04-26T13:52:12Z</time></trkpt><trkpt lat="43.49615935426587" lon="10.926382658585707"><ele>508.0</ele><time>2026-04-26T13:52:13Z</time></trkpt><trkpt lat="43.49607003721159" lon="10.926231755521183"><ele>506.5</ele><time>2026-04-26T13:52:14Z</time></trkpt><trkpt lat="43.495973428081385" lon="10.926117775689784"><ele>505.0</ele><time>2026-04-26T13:52:15Z</time></trkpt><trkpt lat="43.495871721016755" lon="10.926039564701767"><ele>505.0</ele><time>2026-04-26T13:52:16Z</time></trkpt><trkpt lat="43.49576322748783" lon="10.925989489936956"><ele>505.0</ele><time>2026-04-26T13:52:17Z</time></trkpt><trkpt lat="43.49563485980585" lon="10.92599548297644"><ele>505.0</ele><time>2026-04-26T13:52:18Z</time></trkpt><trkpt lat="43.49551429091436" lon="10.926044972937442"><ele>505.0</ele><time>2026-04-26T13:52:19Z</time></trkpt><trkpt lat="43.49539939635679" lon="10.92610292097676"><ele>502.75</ele><time>2026-04-26T13:52:20Z</time></trkpt><trkpt lat="43.495278283481646" lon="10.926113088173691"><ele>500.5</ele><time>2026-04-26T13:52:21Z</time></trkpt><trkpt lat="43.49517241679182" lon="10.926034569802049"><ele>498.25</ele><time>2026-04-26T13:52:22Z</time></trkpt><trkpt lat="43.49505898807522" lon="10.92601113844101"><ele>496.0</ele><time>2026-04-26T13:52:23Z</time></trkpt><trkpt lat="43.49494284020307" lon="10.926005249127963"><ele>496.0</ele><time>2026-04-26T13:52:24Z</time></trkpt><trkpt lat="43.49481187123752" lon="10.926042274902537"><ele>496.0</ele><time>2026-04-26T13:52:25Z</time></trkpt><trkpt lat="43.49466761646866" lon="10.926132306212743"><ele>496.0</ele><time>2026-04-26T13:52:26Z</time></trkpt><trkpt lat="43.49450984453393" lon="10.926256967881871"><ele>496.6666666666667</ele><time>2026-04-26T13:52:27Z</time></trkpt><trkpt lat="43.49434753866536" lon="10.926390483029504"><ele>497.33333333333337</ele><time>2026-04-26T13:52:28Z</time></trkpt><trkpt lat="43.494192755311346" lon="10.92649552373845"><ele>498.0</ele><time>2026-04-26T13:52:29Z</time></trkpt><trkpt lat="43.494049508286274" lon="10.92660289696299"><ele>498.0</ele><time>2026-04-26T13:52:30Z</time></trkpt><trkpt lat="43.493903240062586" lon="10.926702188725073"><ele>498.0</ele><time>2026-04-26T13:52:31Z</time></trkpt><trkpt lat="43.49376765847431" lon="10.926804541573517"><ele>498.0</ele><time>2026-04-26T13:52:32Z</time></trkpt><trkpt lat="43.49362695341913" lon="10.926917908464105"><ele>498.0</ele><time>2026-04-26T13:52:33Z</time></trkpt><trkpt lat="43.493478014084246" lon="10.927037909761324"><ele>498.0</ele><time>2026-04-26T13:52:34Z</time></trkpt><trkpt lat="43.493377566303586" lon="10.92732174837303"><ele>498.0</ele><time>2026-04-26T13:52:35Z</time></trkpt><trkpt lat="43.49325254779622" lon="10.92751688572911"><ele>496.66666666666663</ele><time>2026-04-26T13:52:36Z</time></trkpt><trkpt lat="43.49312932136304" lon="10.927698340423326"><ele>495.3333333333333</ele><time>2026-04-26T13:52:37Z</time></trkpt><trkpt lat="43.49301657456631" lon="10.927892907145102"><ele>494.0</ele><time>2026-04-26T13:52:38.001Z</time></trkpt><trkpt lat="43.49289758131513" lon="10.928075999767774"><ele>491.0</ele><time>2026-04-26T13:52:39.001Z</time></trkpt><trkpt lat="43.492775525322934" lon="10.928249178047661"><ele>488.0</ele><time>2026-04-26T13:52:40.001Z</time></trkpt><trkpt lat="43.492653148031096" lon="10.928416896960346"><ele>485.0</ele><time>2026-04-26T13:52:41.001Z</time></trkpt><trkpt lat="43.492531474094626" lon="10.928556600396888"><ele>484.75</ele><time>2026-04-26T13:52:42.001Z</time></trkpt><trkpt lat="43.492414138054016" lon="10.928663434868175"><ele>484.5</ele><time>2026-04-26T13:52:43.001Z</time></trkpt><trkpt lat="43.492303082329585" lon="10.928730091756332"><ele>484.25</ele><time>2026-04-26T13:52:44.001Z</time></trkpt><trkpt lat="43.49218301781519" lon="10.9287770920547"><ele>484.0</ele><time>2026-04-26T13:52:45.001Z</time></trkpt><trkpt lat="43.492056841492456" lon="10.928788838485806"><ele>484.5</ele><time>2026-04-26T13:52:46.001Z</time></trkpt><trkpt lat="43.491927292231246" lon="10.928764199385757"><ele>485.0</ele><time>2026-04-26T13:52:47.001Z</time></trkpt><trkpt lat="43.49179414363577" lon="10.928705676869438"><ele>485.5</ele><time>2026-04-26T13:52:48.001Z</time></trkpt><trkpt lat="43.49165821372888" lon="10.928619293726982"><ele>486.0</ele><time>2026-04-26T13:52:49.001Z</time></trkpt><trkpt lat="43.49154482465805" lon="10.928539854808237"><ele>486.0</ele><time>2026-04-26T13:52:50.001Z</time></trkpt><trkpt lat="43.49143803338771" lon="10.92849579434206"><ele>486.0</ele><time>2026-04-26T13:52:51.001Z</time></trkpt><trkpt lat="43.491327957267366" lon="10.928492164151058"><ele>486.0</ele><time>2026-04-26T13:52:52.001Z</time></trkpt><trkpt lat="43.49121958796923" lon="10.928532832670568"><ele>486.0</ele><time>2026-04-26T13:52:53.001Z</time></trkpt><trkpt lat="43.49111655910109" lon="10.928612789239365"><ele>482.33333333333337</ele><time>2026-04-26T13:52:54.001Z</time></trkpt><trkpt lat="43.49102019364472" lon="10.928731180814088"><ele>478.6666666666667</ele><time>2026-04-26T13:52:55.001Z</time></trkpt><trkpt lat="43.49092922428701" lon="10.928904801722553"><ele>475.0</ele><time>2026-04-26T13:52:56.001Z</time></trkpt><trkpt lat="43.49083857786652" lon="10.92912228327439"><ele>476.6666666666667</ele><time>2026-04-26T13:52:57.001Z</time></trkpt><trkpt lat="43.49074088611866" lon="10.92937023539554"><ele>478.33333333333337</ele><time>2026-04-26T13:52:58.001Z</time></trkpt><trkpt lat="43.49063783123217" lon="10.929633128443438"><ele>480.0</ele><time>2026-04-26T13:52:59.001Z</time></trkpt><trkpt lat="43.490541081718774" lon="10.929873246314418"><ele>483.0</ele><time>2026-04-26T13:53:00.001Z</time></trkpt><trkpt lat="43.49043639316532" lon="10.930107747670311"><ele>486.0</ele><time>2026-04-26T13:53:01.001Z</time></trkpt><trkpt lat="43.490344150466775" lon="10.93033384582289"><ele>489.0</ele><time>2026-04-26T13:53:02.001Z</time></trkpt><trkpt lat="43.4902642580144" lon="10.930534844388443"><ele>482.25</ele><time>2026-04-26T13:53:03.001Z</time></trkpt><trkpt lat="43.49019834895265" lon="10.930702685763539"><ele>475.5</ele><time>2026-04-26T13:53:04.001Z</time></trkpt><trkpt lat="43.49014327811676" lon="10.930866202663072"><ele>468.75</ele><time>2026-04-26T13:53:05.001Z</time></trkpt><trkpt lat="43.49010163913951" lon="10.931061016491523"><ele>462.0</ele><time>2026-04-26T13:53:06.001Z</time></trkpt><trkpt lat="43.49008232770246" lon="10.931271233689948"><ele>461.66666666666663</ele><time>2026-04-26T13:53:07.001Z</time></trkpt><trkpt lat="43.49008242885465" lon="10.93151926068432"><ele>461.3333333333333</ele><time>2026-04-26T13:53:08.001Z</time></trkpt><trkpt lat="43.49008011291035" lon="10.931775664415976"><ele>461.0</ele><time>2026-04-26T13:53:09.002Z</time></trkpt><trkpt lat="43.49007923815512" lon="10.931998861735138"><ele>460.49999999999994</ele><time>2026-04-26T13:53:10.002Z</time></trkpt><trkpt lat="43.49007948458184" lon="10.932176999778443"><ele>460.0</ele><time>2026-04-26T13:53:11.002Z</time></trkpt><trkpt lat="43.49007961321364" lon="10.932310277072334"><ele>459.5</ele><time>2026-04-26T13:53:12.002Z</time></trkpt><trkpt lat="43.49006769544735" lon="10.932413449547884"><ele>459.0</ele><time>2026-04-26T13:53:13.002Z</time></trkpt><trkpt lat="43.490026383392085" lon="10.932482553760492"><ele>458.49999999999994</ele><time>2026-04-26T13:53:14.002Z</time></trkpt><trkpt lat="43.489957987528825" lon="10.932511578760998"><ele>458.0</ele><time>2026-04-26T13:53:15.002Z</time></trkpt><trkpt lat="43.489878660447346" lon="10.932496517791048"><ele>458.0</ele><time>2026-04-26T13:53:16.002Z</time></trkpt><trkpt lat="43.48980514047536" lon="10.932399653993434"><ele>458.0</ele><time>2026-04-26T13:53:17.002Z</time></trkpt><trkpt lat="43.48976415987972" lon="10.932276106211733"><ele>458.0</ele><time>2026-04-26T13:53:18.002Z</time></trkpt><trkpt lat="43.489751948801" lon="10.932128194257542"><ele>458.0</ele><time>2026-04-26T13:53:19.002Z</time></trkpt><trkpt lat="43.489747495239925" lon="10.931923728059472"><ele>459.0</ele><time>2026-04-26T13:53:20.002Z</time></trkpt><trkpt lat="43.48973440942853" lon="10.931695251558496"><ele>460.0</ele><time>2026-04-26T13:53:21.002Z</time></trkpt><trkpt lat="43.48971029330666" lon="10.931430629767389"><ele>461.0</ele><time>2026-04-26T13:53:22.002Z</time></trkpt><trkpt lat="43.48968233722625" lon="10.93114440739599"><ele>461.3333333333333</ele><time>2026-04-26T13:53:23.002Z</time></trkpt><trkpt lat="43.489656157900654" lon="10.930853718650106"><ele>461.66666666666663</ele><time>2026-04-26T13:53:24.002Z</time></trkpt><trkpt lat="43.48962632091916" lon="10.93057928942168"><ele>462.0</ele><time>2026-04-26T13:53:25.002Z</time></trkpt><trkpt lat="43.48959017200854" lon="10.930327528725737"><ele>454.0</ele><time>2026-04-26T13:53:26.002Z</time></trkpt><trkpt lat="43.4895406249785" lon="10.93007442502601"><ele>446.0</ele><time>2026-04-26T13:53:27.002Z</time></trkpt><trkpt lat="43.489470090556146" lon="10.929836774928374"><ele>438.0</ele><time>2026-04-26T13:53:28.002Z</time></trkpt><trkpt lat="43.48940018616988" lon="10.929614981371152"><ele>437.66666666666663</ele><time>2026-04-26T13:53:29.002Z</time></trkpt><trkpt lat="43.48933338946713" lon="10.929399211922115"><ele>437.3333333333333</ele><time>2026-04-26T13:53:30.002Z</time></trkpt><trkpt lat="43.48927519112306" lon="10.929192763173084"><ele>437.0</ele><time>2026-04-26T13:53:31.002Z</time></trkpt><trkpt lat="43.48923954677509" lon="10.929004687218542"><ele>436.66666666666663</ele><time>2026-04-26T13:53:32.002Z</time></trkpt><trkpt lat="43.48922547479604" lon="10.928813037097331"><ele>436.33333333333337</ele><time>2026-04-26T13:53:33.002Z</time></trkpt><trkpt lat="43.48923540388794" lon="10.928591627374372"><ele>436.0</ele><time>2026-04-26T13:53:34.002Z</time></trkpt><trkpt lat="43.489255038332495" lon="10.92835463506745"><ele>435.33333333333337</ele><time>2026-04-26T13:53:35.002Z</time></trkpt><trkpt lat="43.489275307576555" lon="10.928105562140297"><ele>434.66666666666663</ele><time>2026-04-26T13:53:36.002Z</time></trkpt><trkpt lat="43.48929611612742" lon="10.92787729555622"><ele>434.0</ele><time>2026-04-26T13:53:37.002Z</time></trkpt><trkpt lat="43.489312132136" lon="10.927657229918614"><ele>433.3333333333333</ele><time>2026-04-26T13:53:38.002Z</time></trkpt><trkpt lat="43.48932845728368" lon="10.927439460968552"><ele>432.66666666666663</ele><time>2026-04-26T13:53:39.002Z</time></trkpt><trkpt lat="43.4893488634822" lon="10.9272284536903"><ele>432.0</ele><time>2026-04-26T13:53:40.002Z</time></trkpt><trkpt lat="43.48937027238669" lon="10.92701530448821"><ele>432.0</ele><time>2026-04-26T13:53:41.002Z</time></trkpt><trkpt lat="43.489394613834904" lon="10.926807632465655"><ele>432.0</ele><time>2026-04-26T13:53:42.003Z</time></trkpt><trkpt lat="43.489427053168185" lon="10.926584001760231"><ele>432.0</ele><time>2026-04-26T13:53:43.003Z</time></trkpt><trkpt lat="43.48946328709848" lon="10.926346076590281"><ele>429.66666666666663</ele><time>2026-04-26T13:53:44.003Z</time></trkpt><trkpt lat="43.48949730667874" lon="10.926124587351394"><ele>427.3333333333333</ele><time>2026-04-26T13:53:45.003Z</time></trkpt><trkpt lat="43.4895259977092" lon="10.925916117992282"><ele>425.0</ele><time>2026-04-26T13:53:46.003Z</time></trkpt><trkpt lat="43.489550042418635" lon="10.925727022799128"><ele>425.0</ele><time>2026-04-26T13:53:47.003Z</time></trkpt><trkpt lat="43.489569367887356" lon="10.92555807033127"><ele>425.0</ele><time>2026-04-26T13:53:48.003Z</time></trkpt><trkpt lat="43.48958947600263" lon="10.925406699328665"><ele>425.0</ele><time>2026-04-26T13:53:49.003Z</time></trkpt><trkpt lat="43.48960507361502" lon="10.925268728522916"><ele>425.0</ele><time>2026-04-26T13:53:50.003Z</time></trkpt><trkpt lat="43.4896199074854" lon="10.92515065306063"><ele>425.0</ele><time>2026-04-26T13:53:51.003Z</time></trkpt><trkpt lat="43.489636851474955" lon="10.92506077072929"><ele>425.0</ele><time>2026-04-26T13:53:52.003Z</time></trkpt><trkpt lat="43.489661935122584" lon="10.924960054244895"><ele>425.0</ele><time>2026-04-26T13:53:54.003Z</time></trkpt><trkpt lat="43.48950457047575" lon="10.924887609817969"><ele>425.0</ele><time>2026-04-26T13:53:56.003Z</time></trkpt><trkpt lat="43.48937234877375" lon="10.924905736208267"><ele>425.0</ele><time>2026-04-26T13:53:58.003Z</time></trkpt><trkpt lat="43.489308827986406" lon="10.9249432141345"><ele>425.0</ele><time>2026-04-26T13:53:59.003Z</time></trkpt><trkpt lat="43.489251799114456" lon="10.924998701535044"><ele>423.4</ele><time>2026-04-26T13:54:00.003Z</time></trkpt><trkpt lat="43.48919004559747" lon="10.925062278796956"><ele>421.8</ele><time>2026-04-26T13:54:01.003Z</time></trkpt><trkpt lat="43.48916089239291" lon="10.925163330989607"><ele>420.20000000000005</ele><time>2026-04-26T13:54:02.003Z</time></trkpt><trkpt lat="43.48911982008064" lon="10.925257407173499"><ele>418.6</ele><time>2026-04-26T13:54:03.003Z</time></trkpt><trkpt lat="43.48909958258361" lon="10.92538652523567"><ele>417.0</ele><time>2026-04-26T13:54:04.003Z</time></trkpt><trkpt lat="43.48909842092812" lon="10.925561081558913"><ele>417.0</ele><time>2026-04-26T13:54:05.003Z</time></trkpt><trkpt lat="43.48909840978035" lon="10.92571739624799"><ele>417.0</ele><time>2026-04-26T13:54:06.003Z</time></trkpt><trkpt lat="43.489110287910655" lon="10.925844140438082"><ele>417.0</ele><time>2026-04-26T13:54:07.003Z</time></trkpt><trkpt lat="43.48908482466481" lon="10.925960277741423"><ele>417.0</ele><time>2026-04-26T13:54:08.003Z</time></trkpt><trkpt lat="43.4890496305931" lon="10.926068290078092"><ele>417.0</ele><time>2026-04-26T13:54:09.003Z</time></trkpt><trkpt lat="43.48899261320528" lon="10.926172673156826"><ele>419.0</ele><time>2026-04-26T13:54:10.003Z</time></trkpt><trkpt lat="43.48892434573255" lon="10.926260410012208"><ele>421.0</ele><time>2026-04-26T13:54:11.003Z</time></trkpt><trkpt lat="43.4888372071525" lon="10.926333170620044"><ele>423.0</ele><time>2026-04-26T13:54:12.003Z</time></trkpt><trkpt lat="43.48872109837945" lon="10.926399242041553"><ele>425.0</ele><time>2026-04-26T13:54:12.999Z</time></trkpt><trkpt lat="43.48859334233704" lon="10.926449835581845"><ele>421.4</ele><time>2026-04-26T13:54:13.999Z</time></trkpt><trkpt lat="43.488464152581166" lon="10.926492261218923"><ele>417.8</ele><time>2026-04-26T13:54:14.999Z</time></trkpt><trkpt lat="43.488351871427625" lon="10.92653139997485"><ele>414.20000000000005</ele><time>2026-04-26T13:54:15.999Z</time></trkpt><trkpt lat="43.4882650725962" lon="10.926565338330692"><ele>410.6</ele><time>2026-04-26T13:54:16.999Z</time></trkpt><trkpt lat="43.488191745960094" lon="10.926584364537083"><ele>407.0</ele><time>2026-04-26T13:54:18Z</time></trkpt><trkpt lat="43.48811796493979" lon="10.926644221462697"><ele>407.0</ele><time>2026-04-26T13:54:19Z</time></trkpt><trkpt lat="43.48804376437535" lon="10.926695578012998"><ele>407.0</ele><time>2026-04-26T13:54:20Z</time></trkpt><trkpt lat="43.48796765380078" lon="10.926810505028536"><ele>407.0</ele><time>2026-04-26T13:54:21Z</time></trkpt><trkpt lat="43.48792144018564" lon="10.92695881857037"><ele>407.0</ele><time>2026-04-26T13:54:22Z</time></trkpt><trkpt lat="43.48788209037096" lon="10.92705205479946"><ele>407.0</ele><time>2026-04-26T13:54:23Z</time></trkpt><trkpt lat="43.48779248605632" lon="10.927164992396554"><ele>405.42857142857144</ele><time>2026-04-26T13:54:25Z</time></trkpt><trkpt lat="43.487730757725544" lon="10.927186940459984"><ele>403.8571428571429</ele><time>2026-04-26T13:54:26Z</time></trkpt><trkpt lat="43.48765833967887" lon="10.927181714572912"><ele>402.28571428571433</ele><time>2026-04-26T13:54:27Z</time></trkpt><trkpt lat="43.487595040617755" lon="10.927130622493966"><ele>400.7142857142857</ele><time>2026-04-26T13:54:28Z</time></trkpt><trkpt lat="43.48754550187257" lon="10.92704567732263"><ele>399.1428571428571</ele><time>2026-04-26T13:54:29Z</time></trkpt><trkpt lat="43.4875322721853" lon="10.926943361159347"><ele>397.5714285714286</ele><time>2026-04-26T13:54:30Z</time></trkpt><trkpt lat="43.48754185486505" lon="10.926834107371285"><ele>396.0</ele><time>2026-04-26T13:54:31Z</time></trkpt><trkpt lat="43.48756513639744" lon="10.92671122862309"><ele>395.3333333333333</ele><time>2026-04-26T13:54:32Z</time></trkpt><trkpt lat="43.48756805624385" lon="10.926610883767735"><ele>394.66666666666663</ele><time>2026-04-26T13:54:33Z</time></trkpt><trkpt lat="43.48753671569431" lon="10.926517742382305"><ele>394.0</ele><time>2026-04-26T13:54:34Z</time></trkpt><trkpt lat="43.48747248517401" lon="10.926435607141702"><ele>393.3333333333333</ele><time>2026-04-26T13:54:35Z</time></trkpt><trkpt lat="43.48739280485135" lon="10.926384559456041"><ele>392.66666666666663</ele><time>2026-04-26T13:54:36Z</time></trkpt><trkpt lat="43.487299117405534" lon="10.926358516152549"><ele>392.0</ele><time>2026-04-26T13:54:37Z</time></trkpt><trkpt lat="43.487171852754685" lon="10.926337171494664"><ele>388.5</ele><time>2026-04-26T13:54:38Z</time></trkpt><trkpt lat="43.487040037460304" lon="10.926329209013943"><ele>385.0</ele><time>2026-04-26T13:54:39Z</time></trkpt><trkpt lat="43.48689179673108" lon="10.926316270545248"><ele>381.5</ele><time>2026-04-26T13:54:40Z</time></trkpt><trkpt lat="43.48674683307165" lon="10.926297755475495"><ele>378.0</ele><time>2026-04-26T13:54:41Z</time></trkpt><trkpt lat="43.48659758219303" lon="10.926278320142371"><ele>378.0</ele><time>2026-04-26T13:54:42Z</time></trkpt><trkpt lat="43.486459094536556" lon="10.92625376519798"><ele>378.0</ele><time>2026-04-26T13:54:43Z</time></trkpt><trkpt lat="43.4863257572503" lon="10.926231203892643"><ele>378.0</ele><time>2026-04-26T13:54:44Z</time></trkpt><trkpt lat="43.48619865268141" lon="10.92622313986095"><ele>378.0</ele><time>2026-04-26T13:54:45Z</time></trkpt><trkpt lat="43.48606466694714" lon="10.926227707472957"><ele>377.5</ele><time>2026-04-26T13:54:46Z</time></trkpt><trkpt lat="43.48592253272957" lon="10.92623877312574"><ele>377.0</ele><time>2026-04-26T13:54:47.001Z</time></trkpt><trkpt lat="43.48577768046427" lon="10.926262114482272"><ele>376.5</ele><time>2026-04-26T13:54:48.001Z</time></trkpt><trkpt lat="43.485640631304584" lon="10.926268333537227"><ele>376.0</ele><time>2026-04-26T13:54:49.001Z</time></trkpt><trkpt lat="43.485508590012266" lon="10.926282289731686"><ele>374.0</ele><time>2026-04-26T13:54:50.001Z</time></trkpt><trkpt lat="43.48538119409828" lon="10.926281937987493"><ele>372.0</ele><time>2026-04-26T13:54:51.001Z</time></trkpt><trkpt lat="43.48526607667558" lon="10.926274821199849"><ele>370.0</ele><time>2026-04-26T13:54:52.001Z</time></trkpt><trkpt lat="43.48516926483365" lon="10.926251431195906"><ele>368.0</ele><time>2026-04-26T13:54:53.001Z</time></trkpt><trkpt lat="43.48506694547192" lon="10.926195682505771"><ele>368.0</ele><time>2026-04-26T13:54:54.001Z</time></trkpt><trkpt lat="43.48496714994513" lon="10.92610630609805"><ele>368.0</ele><time>2026-04-26T13:54:55.001Z</time></trkpt><trkpt lat="43.484865211300374" lon="10.925981836662666"><ele>368.0</ele><time>2026-04-26T13:54:56.001Z</time></trkpt><trkpt lat="43.48476111478004" lon="10.925837486712695"><ele>368.0</ele><time>2026-04-26T13:54:57.001Z</time></trkpt><trkpt lat="43.48467177206317" lon="10.925707700655936"><ele>367.0</ele><time>2026-04-26T13:54:58.001Z</time></trkpt><trkpt lat="43.4845936667288" lon="10.925613463347917"><ele>366.0</ele><time>2026-04-26T13:54:59.001Z</time></trkpt><trkpt lat="43.48452163293294" lon="10.925549875650514"><ele>365.0</ele><time>2026-04-26T13:55:00.001Z</time></trkpt><trkpt lat="43.484434906498095" lon="10.925513679248501"><ele>364.0</ele><time>2026-04-26T13:55:01.001Z</time></trkpt><trkpt lat="43.48433158144115" lon="10.925498716354817"><ele>363.0</ele><time>2026-04-26T13:55:02.001Z</time></trkpt><trkpt lat="43.484217446064214" lon="10.925509517395351"><ele>363.0</ele><time>2026-04-26T13:55:03.001Z</time></trkpt><trkpt lat="43.484101510986875" lon="10.925548745640993"><ele>363.0</ele><time>2026-04-26T13:55:04.001Z</time></trkpt><trkpt lat="43.48399854772545" lon="10.92559607151931"><ele>363.0</ele><time>2026-04-26T13:55:05.001Z</time></trkpt><trkpt lat="43.48389234248766" lon="10.925677515561718"><ele>363.0</ele><time>2026-04-26T13:55:06.001Z</time></trkpt><trkpt lat="43.48377020698055" lon="10.92577289960904"><ele>360.5</ele><time>2026-04-26T13:55:07.001Z</time></trkpt><trkpt lat="43.483660680036344" lon="10.925910712769062"><ele>358.0</ele><time>2026-04-26T13:55:08.001Z</time></trkpt><trkpt lat="43.4835538503279" lon="10.926033686431694"><ele>355.5</ele><time>2026-04-26T13:55:09.001Z</time></trkpt><trkpt lat="43.48344914569898" lon="10.926147837039188"><ele>353.0</ele><time>2026-04-26T13:55:10.001Z</time></trkpt><trkpt lat="43.48334281364689" lon="10.92624544095165"><ele>353.0</ele><time>2026-04-26T13:55:11.001Z</time></trkpt><trkpt lat="43.483218891723844" lon="10.926324842459756"><ele>353.0</ele><time>2026-04-26T13:55:12.001Z</time></trkpt><trkpt lat="43.483074084062174" lon="10.926392556074328"><ele>353.0</ele><time>2026-04-26T13:55:13.001Z</time></trkpt><trkpt lat="43.4829225492625" lon="10.926456953893556"><ele>353.0</ele><time>2026-04-26T13:55:14.001Z</time></trkpt><trkpt lat="43.48278572766159" lon="10.926508949574414"><ele>352.75</ele><time>2026-04-26T13:55:15.001Z</time></trkpt><trkpt lat="43.48264922717162" lon="10.926553365131122"><ele>352.5</ele><time>2026-04-26T13:55:16.001Z</time></trkpt><trkpt lat="43.482527501785654" lon="10.926598750913373"><ele>352.25</ele><time>2026-04-26T13:55:17.001Z</time></trkpt><trkpt lat="43.48242420800461" lon="10.926654523833884"><ele>352.0</ele><time>2026-04-26T13:55:18.002Z</time></trkpt><trkpt lat="43.48232683154568" lon="10.926723896963798"><ele>351.75</ele><time>2026-04-26T13:55:19.002Z</time></trkpt><trkpt lat="43.48223714591081" lon="10.926808969618822"><ele>351.5</ele><time>2026-04-26T13:55:20.002Z</time></trkpt><trkpt lat="43.48213131848313" lon="10.926908634638833"><ele>351.25</ele><time>2026-04-26T13:55:21.002Z</time></trkpt><trkpt lat="43.482047288851426" lon="10.927064704630409"><ele>351.0</ele><time>2026-04-26T13:55:22.002Z</time></trkpt><trkpt lat="43.481959980512286" lon="10.927180011902985"><ele>350.20000000000005</ele><time>2026-04-26T13:55:23.002Z</time></trkpt><trkpt lat="43.48187905208003" lon="10.927268855293214"><ele>349.40000000000003</ele><time>2026-04-26T13:55:24.002Z</time></trkpt><trkpt lat="43.481785349995796" lon="10.927343684005097"><ele>348.6</ele><time>2026-04-26T13:55:25.002Z</time></trkpt><trkpt lat="43.48168152630922" lon="10.927380893391089"><ele>347.8</ele><time>2026-04-26T13:55:26.002Z</time></trkpt><trkpt lat="43.481575832258855" lon="10.927393595602984"><ele>347.0</ele><time>2026-04-26T13:55:27.002Z</time></trkpt><trkpt lat="43.48144643139732" lon="10.927380608832056"><ele>347.0</ele><time>2026-04-26T13:55:28.002Z</time></trkpt><trkpt lat="43.48130329388033" lon="10.927360506639488"><ele>347.0</ele><time>2026-04-26T13:55:29.002Z</time></trkpt><trkpt lat="43.48113376651623" lon="10.927322902951543"><ele>347.0</ele><time>2026-04-26T13:55:30.002Z</time></trkpt><trkpt lat="43.480957910838704" lon="10.927286745011115"><ele>346.25</ele><time>2026-04-26T13:55:31.002Z</time></trkpt><trkpt lat="43.48080134717888" lon="10.927239226873054"><ele>345.5</ele><time>2026-04-26T13:55:32.002Z</time></trkpt><trkpt lat="43.480654459927926" lon="10.927218956878093"><ele>344.75</ele><time>2026-04-26T13:55:33.002Z</time></trkpt><trkpt lat="43.48052439166539" lon="10.927205216160594"><ele>344.0</ele><time>2026-04-26T13:55:34.002Z</time></trkpt><trkpt lat="43.480388842326704" lon="10.927194108809442"><ele>343.5</ele><time>2026-04-26T13:55:35.002Z</time></trkpt><trkpt lat="43.480251436152656" lon="10.927179305396463"><ele>343.0</ele><time>2026-04-26T13:55:36.002Z</time></trkpt><trkpt lat="43.48011334432285" lon="10.92717214087025"><ele>342.5</ele><time>2026-04-26T13:55:37.002Z</time></trkpt><trkpt lat="43.47996360114144" lon="10.92716986372171"><ele>342.0</ele><time>2026-04-26T13:55:38.002Z</time></trkpt><trkpt lat="43.47982031394404" lon="10.927173112235957"><ele>342.0</ele><time>2026-04-26T13:55:39.002Z</time></trkpt><trkpt lat="43.47968391422222" lon="10.927183634256796"><ele>342.0</ele><time>2026-04-26T13:55:40.002Z</time></trkpt><trkpt lat="43.47955703916918" lon="10.927189326492794"><ele>342.0</ele><time>2026-04-26T13:55:41.002Z</time></trkpt><trkpt lat="43.47943100673923" lon="10.927191559119201"><ele>342.0</ele><time>2026-04-26T13:55:42.002Z</time></trkpt><trkpt lat="43.479312960600716" lon="10.927188852682702"><ele>341.25</ele><time>2026-04-26T13:55:43.002Z</time></trkpt><trkpt lat="43.47919711255201" lon="10.927189889847257"><ele>340.5</ele><time>2026-04-26T13:55:44.002Z</time></trkpt><trkpt lat="43.479080093087326" lon="10.927192328130142"><ele>339.75</ele><time>2026-04-26T13:55:45.002Z</time></trkpt><trkpt lat="43.47896706361485" lon="10.92719361254089"><ele>339.0</ele><time>2026-04-26T13:55:46.002Z</time></trkpt><trkpt lat="43.478850577104105" lon="10.927186396807484"><ele>337.5</ele><time>2026-04-26T13:55:47.002Z</time></trkpt><trkpt lat="43.47873831908335" lon="10.92716558380629"><ele>336.0</ele><time>2026-04-26T13:55:48.002Z</time></trkpt><trkpt lat="43.47860499107554" lon="10.927124631859472"><ele>334.5</ele><time>2026-04-26T13:55:49.002Z</time></trkpt><trkpt lat="43.47845386142925" lon="10.927056733354334"><ele>333.0</ele><time>2026-04-26T13:55:50.002Z</time></trkpt><trkpt lat="43.4783043744923" lon="10.92699295167242"><ele>333.0</ele><time>2026-04-26T13:55:51.003Z</time></trkpt><trkpt lat="43.47816442700273" lon="10.926921549167867"><ele>333.0</ele><time>2026-04-26T13:55:52.003Z</time></trkpt><trkpt lat="43.4780200908909" lon="10.926863309497671"><ele>333.0</ele><time>2026-04-26T13:55:53.003Z</time></trkpt><trkpt lat="43.47788658049548" lon="10.92680015254213"><ele>333.0</ele><time>2026-04-26T13:55:54.003Z</time></trkpt><trkpt lat="43.477757296586965" lon="10.92674436728136"><ele>334.0</ele><time>2026-04-26T13:55:55.003Z</time></trkpt><trkpt lat="43.477624300747536" lon="10.926692230104415"><ele>335.0</ele><time>2026-04-26T13:55:56.003Z</time></trkpt><trkpt lat="43.47748832698953" lon="10.926625971363585"><ele>336.0</ele><time>2026-04-26T13:55:57.003Z</time></trkpt><trkpt lat="43.477344559953494" lon="10.926539266004657"><ele>337.0</ele><time>2026-04-26T13:55:58.003Z</time></trkpt><trkpt lat="43.47719304484403" lon="10.926438689844836"><ele>333.0</ele><time>2026-04-26T13:55:59.003Z</time></trkpt><trkpt lat="43.477036460834995" lon="10.926333534160111"><ele>329.0</ele><time>2026-04-26T13:56:00.003Z</time></trkpt><trkpt lat="43.47689362206727" lon="10.926235966105"><ele>325.0</ele><time>2026-04-26T13:56:01.003Z</time></trkpt><trkpt lat="43.47675973720462" lon="10.926142526568775"><ele>325.0</ele><time>2026-04-26T13:56:02.003Z</time></trkpt><trkpt lat="43.47662944359871" lon="10.926054275486914"><ele>325.0</ele><time>2026-04-26T13:56:03.003Z</time></trkpt><trkpt lat="43.47649904087409" lon="10.925968334687388"><ele>325.0</ele><time>2026-04-26T13:56:04.003Z</time></trkpt><trkpt lat="43.47638000440717" lon="10.92588703024938"><ele>325.0</ele><time>2026-04-26T13:56:05.003Z</time></trkpt><trkpt lat="43.476266340916645" lon="10.925812146403251"><ele>325.0</ele><time>2026-04-26T13:56:06.003Z</time></trkpt><trkpt lat="43.47614081546056" lon="10.925758919240904"><ele>325.0</ele><time>2026-04-26T13:56:07.003Z</time></trkpt><trkpt lat="43.47602255190027" lon="10.925729777041104"><ele>325.0</ele><time>2026-04-26T13:56:08.003Z</time></trkpt><trkpt lat="43.475909721299345" lon="10.925726573104065"><ele>325.0</ele><time>2026-04-26T13:56:09.003Z</time></trkpt><trkpt lat="43.4757768418126" lon="10.925750005051157"><ele>325.0</ele><time>2026-04-26T13:56:10.003Z</time></trkpt><trkpt lat="43.47564522647803" lon="10.925789567643344"><ele>325.0</ele><time>2026-04-26T13:56:11.003Z</time></trkpt><trkpt lat="43.47551500130261" lon="10.925831521021777"><ele>325.0</ele><time>2026-04-26T13:56:12.003Z</time></trkpt><trkpt lat="43.47538705982994" lon="10.925863977313432"><ele>325.0</ele><time>2026-04-26T13:56:13.003Z</time></trkpt><trkpt lat="43.475250687443676" lon="10.925898514164196"><ele>318.75</ele><time>2026-04-26T13:56:14.003Z</time></trkpt><trkpt lat="43.47511193589645" lon="10.92593293632489"><ele>312.5</ele><time>2026-04-26T13:56:15.003Z</time></trkpt><trkpt lat="43.47498174590235" lon="10.925966372220971"><ele>306.25</ele><time>2026-04-26T13:56:16.003Z</time></trkpt><trkpt lat="43.47485447002166" lon="10.925998047200759"><ele>300.0</ele><time>2026-04-26T13:56:17.003Z</time></trkpt><trkpt lat="43.474731494366786" lon="10.926023792400123"><ele>300.0</ele><time>2026-04-26T13:56:18.003Z</time></trkpt><trkpt lat="43.474610421350555" lon="10.926035151765879"><ele>300.0</ele><time>2026-04-26T13:56:18.999Z</time></trkpt><trkpt lat="43.47449666317158" lon="10.926034857384877"><ele>300.0</ele><time>2026-04-26T13:56:19.999Z</time></trkpt><trkpt lat="43.47439919885361" lon="10.926018135796271"><ele>300.0</ele><time>2026-04-26T13:56:20.999Z</time></trkpt><trkpt lat="43.47430232337254" lon="10.925971900662839"><ele>300.0</ele><time>2026-04-26T13:56:21.999Z</time></trkpt><trkpt lat="43.474202007158915" lon="10.925900747245782"><ele>301.75</ele><time>2026-04-26T13:56:22.999Z</time></trkpt><trkpt lat="43.47409997115424" lon="10.925798762894846"><ele>303.5</ele><time>2026-04-26T13:56:24Z</time></trkpt><trkpt lat="43.47400002438374" lon="10.925674965329486"><ele>305.25</ele><time>2026-04-26T13:56:25Z</time></trkpt><trkpt lat="43.47390773697055" lon="10.925545453852276"><ele>307.0</ele><time>2026-04-26T13:56:26Z</time></trkpt><trkpt lat="43.4738187417478" lon="10.925422669519305"><ele>305.0</ele><time>2026-04-26T13:56:27Z</time></trkpt><trkpt lat="43.47372833230444" lon="10.925293989766137"><ele>303.0</ele><time>2026-04-26T13:56:28Z</time></trkpt><trkpt lat="43.473639964069356" lon="10.92514360216476"><ele>301.0</ele><time>2026-04-26T13:56:29Z</time></trkpt><trkpt lat="43.47355562227149" lon="10.924974708667879"><ele>299.0</ele><time>2026-04-26T13:56:30Z</time></trkpt><trkpt lat="43.473480817725175" lon="10.924800546209939"><ele>299.0</ele><time>2026-04-26T13:56:31Z</time></trkpt><trkpt lat="43.47341265244367" lon="10.924647972298017"><ele>299.0</ele><time>2026-04-26T13:56:32Z</time></trkpt><trkpt lat="43.4733433620506" lon="10.924521047922855"><ele>299.0</ele><time>2026-04-26T13:56:33Z</time></trkpt><trkpt lat="43.47327028096611" lon="10.924412174675846"><ele>299.0</ele><time>2026-04-26T13:56:34Z</time></trkpt><trkpt lat="43.47318164972293" lon="10.9243164702758"><ele>301.0</ele><time>2026-04-26T13:56:35Z</time></trkpt><trkpt lat="43.473069033833035" lon="10.924215117439811"><ele>303.0</ele><time>2026-04-26T13:56:36Z</time></trkpt><trkpt lat="43.47294168534447" lon="10.924124990970023"><ele>305.0</ele><time>2026-04-26T13:56:37Z</time></trkpt><trkpt lat="43.47281145292752" lon="10.924024908554376"><ele>307.0</ele><time>2026-04-26T13:56:38Z</time></trkpt><trkpt lat="43.472687402926596" lon="10.923925400250448"><ele>303.4</ele><time>2026-04-26T13:56:39Z</time></trkpt><trkpt lat="43.472573158616854" lon="10.923836145790105"><ele>299.79999999999995</ele><time>2026-04-26T13:56:40Z</time></trkpt><trkpt lat="43.47247183160776" lon="10.923754165513868"><ele>296.2</ele><time>2026-04-26T13:56:41Z</time></trkpt><trkpt lat="43.47238965579887" lon="10.923687098901784"><ele>292.59999999999997</ele><time>2026-04-26T13:56:42Z</time></trkpt><trkpt lat="43.47231071031033" lon="10.9236132556235"><ele>289.0</ele><time>2026-04-26T13:56:43Z</time></trkpt><trkpt lat="43.472243325792796" lon="10.923541126192367"><ele>289.0</ele><time>2026-04-26T13:56:44Z</time></trkpt><trkpt lat="43.47218352877716" lon="10.92345841542119"><ele>289.0</ele><time>2026-04-26T13:56:45Z</time></trkpt><trkpt lat="43.47213673223522" lon="10.923357755381392"><ele>289.0</ele><time>2026-04-26T13:56:46Z</time></trkpt><trkpt lat="43.47210838258103" lon="10.92325518855268"><ele>289.0</ele><time>2026-04-26T13:56:47Z</time></trkpt><trkpt lat="43.47210712169422" lon="10.923125080950202"><ele>289.0</ele><time>2026-04-26T13:56:48Z</time></trkpt><trkpt lat="43.47213321657872" lon="10.923005489671615"><ele>289.0</ele><time>2026-04-26T13:56:49Z</time></trkpt><trkpt lat="43.47218680648207" lon="10.922883771570929"><ele>290.0</ele><time>2026-04-26T13:56:50Z</time></trkpt><trkpt lat="43.47226683087816" lon="10.922759770560237"><ele>291.0</ele><time>2026-04-26T13:56:51Z</time></trkpt><trkpt lat="43.472368143784536" lon="10.922632511918719"><ele>292.0</ele><time>2026-04-26T13:56:52Z</time></trkpt><trkpt lat="43.47249296715601" lon="10.922495727291988"><ele>293.0</ele><time>2026-04-26T13:56:53.001Z</time></trkpt><trkpt lat="43.47262641626652" lon="10.922359949472135"><ele>293.6666666666667</ele><time>2026-04-26T13:56:54.001Z</time></trkpt><trkpt lat="43.4727477118507" lon="10.922226419846567"><ele>294.3333333333333</ele><time>2026-04-26T13:56:55.001Z</time></trkpt><trkpt lat="43.47285791426157" lon="10.922080565822887"><ele>295.0</ele><time>2026-04-26T13:56:56.001Z</time></trkpt><trkpt lat="43.47296230348539" lon="10.921924055389345"><ele>295.0</ele><time>2026-04-26T13:56:57.001Z</time></trkpt><trkpt lat="43.473058114563926" lon="10.921766992393533"><ele>295.0</ele><time>2026-04-26T13:56:58.001Z</time></trkpt><trkpt lat="43.47313651998456" lon="10.921636740188765"><ele>295.0</ele><time>2026-04-26T13:56:59.001Z</time></trkpt><trkpt lat="43.47320797865689" lon="10.921513728935452"><ele>295.0</ele><time>2026-04-26T13:57:00.001Z</time></trkpt><trkpt lat="43.473261580811766" lon="10.921380952084645"><ele>291.25</ele><time>2026-04-26T13:57:01.001Z</time></trkpt><trkpt lat="43.47331437940656" lon="10.921221904121525"><ele>287.5</ele><time>2026-04-26T13:57:02.001Z</time></trkpt><trkpt lat="43.473352977095956" lon="10.921053857264823"><ele>283.75</ele><time>2026-04-26T13:57:03.001Z</time></trkpt><trkpt lat="43.47337993589625" lon="10.920857663412995"><ele>280.0</ele><time>2026-04-26T13:57:04.001Z</time></trkpt><trkpt lat="43.4733966513006" lon="10.920680364178516"><ele>278.0</ele><time>2026-04-26T13:57:05.001Z</time></trkpt><trkpt lat="43.47341446532583" lon="10.920539638066899"><ele>276.0</ele><time>2026-04-26T13:57:06.001Z</time></trkpt><trkpt lat="43.47341731795858" lon="10.920412701136826"><ele>274.0</ele><time>2026-04-26T13:57:07.001Z</time></trkpt><trkpt lat="43.473404311645446" lon="10.920281419561324"><ele>272.0</ele><time>2026-04-26T13:57:08.001Z</time></trkpt><trkpt lat="43.473379005067414" lon="10.92016483668582"><ele>270.0</ele><time>2026-04-26T13:57:09.001Z</time></trkpt><trkpt lat="43.473335144970754" lon="10.920059219379723"><ele>268.6</ele><time>2026-04-26T13:57:10.001Z</time></trkpt><trkpt lat="43.47326835855846" lon="10.919951456460662"><ele>267.2</ele><time>2026-04-26T13:57:11.001Z</time></trkpt><trkpt lat="43.47318305069719" lon="10.919857726940986"><ele>265.8</ele><time>2026-04-26T13:57:12.001Z</time></trkpt><trkpt lat="43.473093686340796" lon="10.919764363146287"><ele>264.4</ele><time>2026-04-26T13:57:13.001Z</time></trkpt><trkpt lat="43.473018749237" lon="10.919667142059351"><ele>263.0</ele><time>2026-04-26T13:57:14.001Z</time></trkpt><trkpt lat="43.472960597604796" lon="10.919548511738682"><ele>262.25</ele><time>2026-04-26T13:57:15.001Z</time></trkpt><trkpt lat="43.47292076834336" lon="10.919411954688666"><ele>261.5</ele><time>2026-04-26T13:57:16.001Z</time></trkpt><trkpt lat="43.472897088169184" lon="10.91924891573222"><ele>260.75</ele><time>2026-04-26T13:57:17.001Z</time></trkpt><trkpt lat="43.472884496464026" lon="10.919059421003281"><ele>260.0</ele><time>2026-04-26T13:57:18.001Z</time></trkpt><trkpt lat="43.47287392520348" lon="10.918886051759136"><ele>258.5</ele><time>2026-04-26T13:57:19.001Z</time></trkpt><trkpt lat="43.47285003719377" lon="10.918740390501661"><ele>257.0</ele><time>2026-04-26T13:57:20.001Z</time></trkpt><trkpt lat="43.472809775296305" lon="10.918595792794093"><ele>255.5</ele><time>2026-04-26T13:57:21.001Z</time></trkpt><trkpt lat="43.472741223922796" lon="10.918448434751415"><ele>254.0</ele><time>2026-04-26T13:57:22.001Z</time></trkpt><trkpt lat="43.4726537125015" lon="10.918279435987198"><ele>252.0</ele><time>2026-04-26T13:57:23.001Z</time></trkpt><trkpt lat="43.47255690803546" lon="10.918097921585911"><ele>250.0</ele><time>2026-04-26T13:57:24.002Z</time></trkpt><trkpt lat="43.47246654634024" lon="10.917920168271255"><ele>248.0</ele><time>2026-04-26T13:57:25.002Z</time></trkpt><trkpt lat="43.472378393132985" lon="10.91774956571564"><ele>248.0</ele><time>2026-04-26T13:57:26.002Z</time></trkpt><trkpt lat="43.472301404387714" lon="10.917595376413901"><ele>248.0</ele><time>2026-04-26T13:57:27.002Z</time></trkpt><trkpt lat="43.47223603491157" lon="10.917474029289048"><ele>248.0</ele><time>2026-04-26T13:57:28.002Z</time></trkpt><trkpt lat="43.472172715460324" lon="10.91737595354615"><ele>248.0</ele><time>2026-04-26T13:57:29.002Z</time></trkpt><trkpt lat="43.472088448472064" lon="10.917295104703623"><ele>248.0</ele><time>2026-04-26T13:57:30.002Z</time></trkpt><trkpt lat="43.471989992724104" lon="10.917221341130556"><ele>246.4</ele><time>2026-04-26T13:57:31.002Z</time></trkpt><trkpt lat="43.471887167679824" lon="10.917168506871402"><ele>244.8</ele><time>2026-04-26T13:57:32.002Z</time></trkpt><trkpt lat="43.47178269965221" lon="10.917138616276231"><ele>243.2</ele><time>2026-04-26T13:57:33.002Z</time></trkpt><trkpt lat="43.471682041489515" lon="10.917137449677371"><ele>241.6</ele><time>2026-04-26T13:57:34.002Z</time></trkpt><trkpt lat="43.471582230427686" lon="10.917161883228522"><ele>240.0</ele><time>2026-04-26T13:57:35.002Z</time></trkpt><trkpt lat="43.47147892496846" lon="10.917221590363205"><ele>240.0</ele><time>2026-04-26T13:57:36.002Z</time></trkpt><trkpt lat="43.47137023334618" lon="10.917314618190057"><ele>240.0</ele><time>2026-04-26T13:57:37.002Z</time></trkpt><trkpt lat="43.47125455684983" lon="10.917435117473095"><ele>240.0</ele><time>2026-04-26T13:57:38.002Z</time></trkpt><trkpt lat="43.47113070662189" lon="10.91756478501189"><ele>240.0</ele><time>2026-04-26T13:57:39.002Z</time></trkpt><trkpt lat="43.471008063321854" lon="10.917701541409393"><ele>239.33333333333331</ele><time>2026-04-26T13:57:40.002Z</time></trkpt><trkpt lat="43.470866773046694" lon="10.917852785197262"><ele>238.66666666666666</ele><time>2026-04-26T13:57:41.002Z</time></trkpt><trkpt lat="43.470738872909976" lon="10.917981424549975"><ele>238.0</ele><time>2026-04-26T13:57:42.002Z</time></trkpt><trkpt lat="43.47063208336008" lon="10.918095542659845"><ele>238.0</ele><time>2026-04-26T13:57:43.002Z</time></trkpt><trkpt lat="43.47051797453282" lon="10.918212714703467"><ele>238.0</ele><time>2026-04-26T13:57:44.002Z</time></trkpt><trkpt lat="43.4704127487506" lon="10.918321805962599"><ele>238.0</ele><time>2026-04-26T13:57:45.002Z</time></trkpt><trkpt lat="43.4703332574854" lon="10.918400223812247"><ele>238.0</ele><time>2026-04-26T13:57:46.002Z</time></trkpt><trkpt lat="43.470265189126884" lon="10.918465136938352"><ele>236.99999999999997</ele><time>2026-04-26T13:57:47.002Z</time></trkpt><trkpt lat="43.470209547175266" lon="10.918510655083807"><ele>236.0</ele><time>2026-04-26T13:57:48.002Z</time></trkpt><trkpt lat="43.47008075512922" lon="10.918539010738955"><ele>235.0</ele><time>2026-04-26T13:57:50.002Z</time></trkpt><trkpt lat="43.47000390314976" lon="10.918503732604385"><ele>234.0</ele><time>2026-04-26T13:57:51.002Z</time></trkpt><trkpt lat="43.469947880813216" lon="10.918410662676878"><ele>232.99999999999997</ele><time>2026-04-26T13:57:52.002Z</time></trkpt><trkpt lat="43.46989965116664" lon="10.918331142067062"><ele>232.0</ele><time>2026-04-26T13:57:53.002Z</time></trkpt><trkpt lat="43.46988265837385" lon="10.918203501991718"><ele>230.8</ele><time>2026-04-26T13:57:54.002Z</time></trkpt><trkpt lat="43.469910279911076" lon="10.918069601857642"><ele>229.6</ele><time>2026-04-26T13:57:55.002Z</time></trkpt><trkpt lat="43.469942111411676" lon="10.917912104025943"><ele>228.40000000000003</ele><time>2026-04-26T13:57:56.002Z</time></trkpt><trkpt lat="43.469959832795254" lon="10.91774100004917"><ele>227.20000000000002</ele><time>2026-04-26T13:57:57.003Z</time></trkpt><trkpt lat="43.46997633528654" lon="10.917612424107727"><ele>226.0</ele><time>2026-04-26T13:57:58.003Z</time></trkpt><trkpt lat="43.46997248483178" lon="10.917498329546023"><ele>224.8</ele><time>2026-04-26T13:57:59.003Z</time></trkpt><trkpt lat="43.469962636581826" lon="10.917376849078806"><ele>223.60000000000002</ele><time>2026-04-26T13:58:00.003Z</time></trkpt><trkpt lat="43.469900815645964" lon="10.917301158784527"><ele>222.4</ele><time>2026-04-26T13:58:01.003Z</time></trkpt><trkpt lat="43.469828646046516" lon="10.917241154274063"><ele>221.2</ele><time>2026-04-26T13:58:02.003Z</time></trkpt><trkpt lat="43.46973135818" lon="10.917203082844013"><ele>220.0</ele><time>2026-04-26T13:58:03.003Z</time></trkpt><trkpt lat="43.46961329442461" lon="10.91719285156252"><ele>216.66666666666666</ele><time>2026-04-26T13:58:04.003Z</time></trkpt><trkpt lat="43.46946534373095" lon="10.917204618525867"><ele>213.33333333333331</ele><time>2026-04-26T13:58:05.003Z</time></trkpt><trkpt lat="43.46929505135545" lon="10.917217410891046"><ele>210.0</ele><time>2026-04-26T13:58:06.003Z</time></trkpt><trkpt lat="43.469111818440275" lon="10.917221236999813"><ele>210.0</ele><time>2026-04-26T13:58:07.003Z</time></trkpt><trkpt lat="43.46894361471027" lon="10.917221545324567"><ele>210.0</ele><time>2026-04-26T13:58:08.003Z</time></trkpt><trkpt lat="43.468785075276756" lon="10.917224389877532"><ele>210.0</ele><time>2026-04-26T13:58:09.003Z</time></trkpt><trkpt lat="43.468651596377605" lon="10.917218145804053"><ele>208.25</ele><time>2026-04-26T13:58:10.003Z</time></trkpt><trkpt lat="43.468532730559325" lon="10.91720068121977"><ele>206.5</ele><time>2026-04-26T13:58:11.003Z</time></trkpt><trkpt lat="43.46841800613765" lon="10.91720796157922"><ele>204.75</ele><time>2026-04-26T13:58:12.003Z</time></trkpt><trkpt lat="43.46829418397334" lon="10.91716952399175"><ele>203.0</ele><time>2026-04-26T13:58:13.003Z</time></trkpt><trkpt lat="43.46817260719807" lon="10.917112174112441"><ele>203.0</ele><time>2026-04-26T13:58:14.003Z</time></trkpt><trkpt lat="43.46805042627969" lon="10.917033860206491"><ele>203.0</ele><time>2026-04-26T13:58:15.003Z</time></trkpt><trkpt lat="43.46793551544544" lon="10.91694247490153"><ele>203.0</ele><time>2026-04-26T13:58:16.003Z</time></trkpt><trkpt lat="43.46786065146451" lon="10.916842872631651"><ele>203.0</ele><time>2026-04-26T13:58:17.003Z</time></trkpt><trkpt lat="43.467798179990986" lon="10.91676763150826"><ele>201.60000000000002</ele><time>2026-04-26T13:58:18.003Z</time></trkpt><trkpt lat="43.46774339105298" lon="10.91667156309031"><ele>200.20000000000002</ele><time>2026-04-26T13:58:19.003Z</time></trkpt><trkpt lat="43.467708796807635" lon="10.91655258482232"><ele>198.8</ele><time>2026-04-26T13:58:20.003Z</time></trkpt><trkpt lat="43.46769253016624" lon="10.916412058173961"><ele>197.4</ele><time>2026-04-26T13:58:21.003Z</time></trkpt><trkpt lat="43.46770198156763" lon="10.91625927525178"><ele>196.0</ele><time>2026-04-26T13:58:22.003Z</time></trkpt><trkpt lat="43.467733273667776" lon="10.916086269742452"><ele>194.5</ele><time>2026-04-26T13:58:23.003Z</time></trkpt><trkpt lat="43.46777183684978" lon="10.91589210609941"><ele>193.0</ele><time>2026-04-26T13:58:24.003Z</time></trkpt><trkpt lat="43.467796991128175" lon="10.915691752205056"><ele>191.5</ele><time>2026-04-26T13:58:25Z</time></trkpt><trkpt lat="43.4678359632874" lon="10.91551274160514"><ele>190.0</ele><time>2026-04-26T13:58:26Z</time></trkpt><trkpt lat="43.467867220720066" lon="10.915339060873423"><ele>190.0</ele><time>2026-04-26T13:58:27Z</time></trkpt><trkpt lat="43.46787215204827" lon="10.915166989039772"><ele>190.0</ele><time>2026-04-26T13:58:28Z</time></trkpt><trkpt lat="43.46786513555112" lon="10.9149860653477"><ele>190.0</ele><time>2026-04-26T13:58:29Z</time></trkpt><trkpt lat="43.46783999370957" lon="10.914775852573717"><ele>190.0</ele><time>2026-04-26T13:58:30Z</time></trkpt><trkpt lat="43.46780923522814" lon="10.914547661704287"><ele>189.0</ele><time>2026-04-26T13:58:31Z</time></trkpt><trkpt lat="43.46778622119537" lon="10.914313240475401"><ele>188.0</ele><time>2026-04-26T13:58:32Z</time></trkpt><trkpt lat="43.4677621645386" lon="10.91408886269037"><ele>187.0</ele><time>2026-04-26T13:58:33Z</time></trkpt><trkpt lat="43.467741504575095" lon="10.91387406171488"><ele>186.75</ele><time>2026-04-26T13:58:34Z</time></trkpt><trkpt lat="43.46772376848509" lon="10.913692130677095"><ele>186.5</ele><time>2026-04-26T13:58:35Z</time></trkpt><trkpt lat="43.46771375535583" lon="10.91351999808368"><ele>186.25</ele><time>2026-04-26T13:58:36Z</time></trkpt><trkpt lat="43.467686798426826" lon="10.913375823903372"><ele>186.0</ele><time>2026-04-26T13:58:37Z</time></trkpt><trkpt lat="43.46765357820506" lon="10.91326317451357"><ele>185.60000000000002</ele><time>2026-04-26T13:58:38Z</time></trkpt><trkpt lat="43.46759904722581" lon="10.913180271362249"><ele>185.2</ele><time>2026-04-26T13:58:39Z</time></trkpt><trkpt lat="43.46756989059352" lon="10.913101289035186"><ele>184.8</ele><time>2026-04-26T13:58:40Z</time></trkpt><trkpt lat="43.46752039305071" lon="10.913044776432129"><ele>184.39999999999998</ele><time>2026-04-26T13:58:41Z</time></trkpt><trkpt lat="43.46740445605724" lon="10.91301746462002"><ele>184.0</ele><time>2026-04-26T13:58:43Z</time></trkpt><trkpt lat="43.46727198275595" lon="10.913044586065379"><ele>184.0</ele><time>2026-04-26T13:58:45Z</time></trkpt><trkpt lat="43.46718157892344" lon="10.9130594577082"><ele>184.0</ele><time>2026-04-26T13:58:46Z</time></trkpt><trkpt lat="43.46710506040887" lon="10.91309032647425"><ele>184.0</ele><time>2026-04-26T13:58:47Z</time></trkpt><trkpt lat="43.467032869712654" lon="10.913119525430126"><ele>184.0</ele><time>2026-04-26T13:58:48Z</time></trkpt><trkpt lat="43.46694383364344" lon="10.913151897220503"><ele>184.0</ele><time>2026-04-26T13:58:50Z</time></trkpt><trkpt lat="43.46688112470464" lon="10.913192396352244"><ele>184.0</ele><time>2026-04-26T13:58:53Z</time></trkpt><trkpt lat="43.46681522668726" lon="10.91318632210796"><ele>184.66666666666669</ele><time>2026-04-26T13:58:55Z</time></trkpt><trkpt lat="43.46669098752138" lon="10.913175363664141"><ele>185.33333333333334</ele><time>2026-04-26T13:58:57.001Z</time></trkpt><trkpt lat="43.46662062910208" lon="10.913165436858323"><ele>186.0</ele><time>2026-04-26T13:58:58.001Z</time></trkpt><trkpt lat="43.46655670597971" lon="10.913177142579979"><ele>186.66666666666666</ele><time>2026-04-26T13:58:59.001Z</time></trkpt><trkpt lat="43.46649402490896" lon="10.913152623840471"><ele>187.33333333333331</ele><time>2026-04-26T13:59:00.001Z</time></trkpt><trkpt lat="43.46642343480348" lon="10.913134836170583"><ele>188.0</ele><time>2026-04-26T13:59:01.001Z</time></trkpt><trkpt lat="43.46635481603394" lon="10.91311093726587"><ele>188.0</ele><time>2026-04-26T13:59:02.001Z</time></trkpt><trkpt lat="43.46628104808309" lon="10.913097118567253"><ele>188.0</ele><time>2026-04-26T13:59:03.001Z</time></trkpt><trkpt lat="43.466203133969465" lon="10.913087202589402"><ele>188.0</ele><time>2026-04-26T13:59:04.001Z</time></trkpt><trkpt lat="43.46611421468387" lon="10.91307775577125"><ele>188.0</ele><time>2026-04-26T13:59:05.001Z</time></trkpt><trkpt lat="43.466017788350506" lon="10.913066896866509"><ele>188.0</ele><time>2026-04-26T13:59:06.001Z</time></trkpt><trkpt lat="43.46589325592218" lon="10.913047309610405"><ele>187.75</ele><time>2026-04-26T13:59:07.001Z</time></trkpt><trkpt lat="43.46573871443675" lon="10.913026253732482"><ele>187.5</ele><time>2026-04-26T13:59:08.001Z</time></trkpt><trkpt lat="43.46561668932354" lon="10.913009604729073"><ele>187.25</ele><time>2026-04-26T13:59:09.001Z</time></trkpt><trkpt lat="43.46551162024403" lon="10.913025454144357"><ele>187.0</ele><time>2026-04-26T13:59:10.001Z</time></trkpt><trkpt lat="43.46540530182553" lon="10.913067195249155"><ele>187.0</ele><time>2026-04-26T13:59:11.001Z</time></trkpt><trkpt lat="43.46530118187154" lon="10.913134455981824"><ele>187.0</ele><time>2026-04-26T13:59:12.001Z</time></trkpt><trkpt lat="43.46518098909082" lon="10.913242392950481"><ele>187.0</ele><time>2026-04-26T13:59:13.001Z</time></trkpt><trkpt lat="43.465045878861254" lon="10.913388158055609"><ele>187.0</ele><time>2026-04-26T13:59:14.001Z</time></trkpt><trkpt lat="43.46490401495677" lon="10.913543754868096"><ele>188.0</ele><time>2026-04-26T13:59:15.001Z</time></trkpt><trkpt lat="43.46478826448769" lon="10.913675685585133"><ele>189.0</ele><time>2026-04-26T13:59:16.001Z</time></trkpt><trkpt lat="43.4646930564609" lon="10.91378603242155"><ele>190.0</ele><time>2026-04-26T13:59:17.001Z</time></trkpt><trkpt lat="43.46460640396087" lon="10.913873954125918"><ele>191.0</ele><time>2026-04-26T13:59:18.001Z</time></trkpt><trkpt lat="43.464518561668804" lon="10.913945997643072"><ele>191.0</ele><time>2026-04-26T13:59:19.001Z</time></trkpt><trkpt lat="43.4644281090922" lon="10.913989727785275"><ele>191.0</ele><time>2026-04-26T13:59:20.001Z</time></trkpt><trkpt lat="43.46433348581471" lon="10.91400506589083"><ele>191.0</ele><time>2026-04-26T13:59:21.001Z</time></trkpt><trkpt lat="43.46424058587953" lon="10.913985238920711"><ele>191.0</ele><time>2026-04-26T13:59:22.001Z</time></trkpt><trkpt lat="43.46413715177881" lon="10.91390834545911"><ele>191.0</ele><time>2026-04-26T13:59:23.001Z</time></trkpt><trkpt lat="43.46402229338234" lon="10.913840299995751"><ele>191.0</ele><time>2026-04-26T13:59:24.001Z</time></trkpt><trkpt lat="43.463926910881916" lon="10.913829255134738"><ele>191.0</ele><time>2026-04-26T13:59:25.001Z</time></trkpt><trkpt lat="43.46384658681547" lon="10.913803705173143"><ele>191.0</ele><time>2026-04-26T13:59:26.001Z</time></trkpt><trkpt lat="43.46375838647897" lon="10.913879694748912"><ele>191.0</ele><time>2026-04-26T13:59:27.001Z</time></trkpt><trkpt lat="43.463677113326504" lon="10.913962590645914"><ele>191.0</ele><time>2026-04-26T13:59:28.001Z</time></trkpt><trkpt lat="43.46360514872774" lon="10.91406674327425"><ele>192.5</ele><time>2026-04-26T13:59:29.002Z</time></trkpt><trkpt lat="43.46353534820577" lon="10.914215019185399"><ele>194.0</ele><time>2026-04-26T13:59:30.002Z</time></trkpt><trkpt lat="43.46345543092716" lon="10.914386671581275"><ele>195.5</ele><time>2026-04-26T13:59:31.002Z</time></trkpt><trkpt lat="43.463361047677715" lon="10.914572910011186"><ele>197.0</ele><time>2026-04-26T13:59:32.002Z</time></trkpt><trkpt lat="43.46325912725053" lon="10.914761015253418"><ele>197.0</ele><time>2026-04-26T13:59:33.002Z</time></trkpt><trkpt lat="43.46315804945363" lon="10.914932566625316"><ele>197.0</ele><time>2026-04-26T13:59:34.002Z</time></trkpt><trkpt lat="43.46307206908815" lon="10.915080702580402"><ele>197.0</ele><time>2026-04-26T13:59:35.002Z</time></trkpt><trkpt lat="43.46299115582094" lon="10.915189604028097"><ele>197.0</ele><time>2026-04-26T13:59:36.002Z</time></trkpt><trkpt lat="43.462913183606936" lon="10.915286614425789"><ele>198.16666666666669</ele><time>2026-04-26T13:59:37.002Z</time></trkpt><trkpt lat="43.46283153740142" lon="10.915357444181039"><ele>199.33333333333334</ele><time>2026-04-26T13:59:38.002Z</time></trkpt><trkpt lat="43.46274771652584" lon="10.915387931541476"><ele>200.5</ele><time>2026-04-26T13:59:39.002Z</time></trkpt><trkpt lat="43.46266787273665" lon="10.915434785928674"><ele>201.66666666666669</ele><time>2026-04-26T13:59:40.002Z</time></trkpt><trkpt lat="43.46260791386306" lon="10.915493257548256"><ele>202.83333333333334</ele><time>2026-04-26T13:59:41.002Z</time></trkpt><trkpt lat="43.46253800450561" lon="10.915528983141998"><ele>204.0</ele><time>2026-04-26T13:59:42.002Z</time></trkpt><trkpt lat="43.462469242962236" lon="10.915564748511425"><ele>204.0</ele><time>2026-04-26T13:59:43.002Z</time></trkpt><trkpt lat="43.4623694271509" lon="10.915582965304454"><ele>204.0</ele><time>2026-04-26T13:59:44.002Z</time></trkpt><trkpt lat="43.462243526805416" lon="10.915620271732749"><ele>204.0</ele><time>2026-04-26T13:59:45.002Z</time></trkpt><trkpt lat="43.46209488109399" lon="10.915653226173935"><ele>204.0</ele><time>2026-04-26T13:59:46.002Z</time></trkpt><trkpt lat="43.46194380425634" lon="10.915679048339456"><ele>207.66666666666669</ele><time>2026-04-26T13:59:47.002Z</time></trkpt><trkpt lat="43.4617792487012" lon="10.915735714696066"><ele>211.33333333333334</ele><time>2026-04-26T13:59:48.002Z</time></trkpt><trkpt lat="43.46161074162075" lon="10.91576354293724"><ele>215.0</ele><time>2026-04-26T13:59:49.002Z</time></trkpt><trkpt lat="43.461472392748526" lon="10.915796678776731"><ele>215.0</ele><time>2026-04-26T13:59:50.002Z</time></trkpt><trkpt lat="43.46135054982783" lon="10.915821971418715"><ele>215.0</ele><time>2026-04-26T13:59:51.002Z</time></trkpt><trkpt lat="43.461223242217706" lon="10.915844089610735"><ele>215.0</ele><time>2026-04-26T13:59:52.002Z</time></trkpt><trkpt lat="43.461107375149176" lon="10.915847928850155"><ele>215.0</ele><time>2026-04-26T13:59:53.002Z</time></trkpt><trkpt lat="43.46100710987092" lon="10.91580752091778"><ele>216.00000000000003</ele><time>2026-04-26T13:59:54.002Z</time></trkpt><trkpt lat="43.46091442955344" lon="10.915734551358657"><ele>217.0</ele><time>2026-04-26T13:59:55.002Z</time></trkpt><trkpt lat="43.46082529558416" lon="10.915646331947485"><ele>218.0</ele><time>2026-04-26T13:59:56.002Z</time></trkpt><trkpt lat="43.4607495292537" lon="10.915578943251857"><ele>219.0</ele><time>2026-04-26T13:59:57.002Z</time></trkpt><trkpt lat="43.46068676682558" lon="10.915523120593082"><ele>220.00000000000003</ele><time>2026-04-26T13:59:58.002Z</time></trkpt><trkpt lat="43.460633446645275" lon="10.915475696135086"><ele>221.0</ele><time>2026-04-26T13:59:59.002Z</time></trkpt><trkpt lat="43.46040327112136" lon="10.915750514584843"><ele>222.20000000000002</ele><time>2026-04-26T14:00:01.002Z</time></trkpt><trkpt lat="43.46032547781127" lon="10.915844576068226"><ele>223.40000000000003</ele><time>2026-04-26T14:00:02.002Z</time></trkpt><trkpt lat="43.46022027616927" lon="10.91590757980662"><ele>224.6</ele><time>2026-04-26T14:00:03.003Z</time></trkpt><trkpt lat="43.46011076048378" lon="10.915923881984181"><ele>225.8</ele><time>2026-04-26T14:00:04.003Z</time></trkpt><trkpt lat="43.46000086306876" lon="10.91589700661729"><ele>227.0</ele><time>2026-04-26T14:00:05.003Z</time></trkpt><trkpt lat="43.45990203914029" lon="10.915844495610177"><ele>227.0</ele><time>2026-04-26T14:00:06.003Z</time></trkpt><trkpt lat="43.45981578640013" lon="10.915778894800098"><ele>227.0</ele><time>2026-04-26T14:00:07.003Z</time></trkpt><trkpt lat="43.459732348408444" lon="10.915684205383384"><ele>227.0</ele><time>2026-04-26T14:00:08.003Z</time></trkpt><trkpt lat="43.45966183039072" lon="10.915572071690358"><ele>227.0</ele><time>2026-04-26T14:00:09.003Z</time></trkpt><trkpt lat="43.459590619814186" lon="10.915430594878943"><ele>227.0</ele><time>2026-04-26T14:00:10.003Z</time></trkpt><trkpt lat="43.4595220927584" lon="10.915298058741547"><ele>227.6</ele><time>2026-04-26T14:00:11.003Z</time></trkpt><trkpt lat="43.45943739782032" lon="10.915218644748748"><ele>228.2</ele><time>2026-04-26T14:00:12.003Z</time></trkpt><trkpt lat="43.45934869151639" lon="10.915178069278468"><ele>228.8</ele><time>2026-04-26T14:00:13.003Z</time></trkpt><trkpt lat="43.4592624861656" lon="10.915173597462019"><ele>229.4</ele><time>2026-04-26T14:00:14.003Z</time></trkpt><trkpt lat="43.45918276910009" lon="10.915210420374933"><ele>230.0</ele><time>2026-04-26T14:00:15.003Z</time></trkpt><trkpt lat="43.459103748908404" lon="10.915283908488629"><ele>230.0</ele><time>2026-04-26T14:00:16.003Z</time></trkpt><trkpt lat="43.45901589668353" lon="10.915343282338968"><ele>230.0</ele><time>2026-04-26T14:00:17.003Z</time></trkpt><trkpt lat="43.45893366447234" lon="10.915350547078976"><ele>230.0</ele><time>2026-04-26T14:00:18.003Z</time></trkpt><trkpt lat="43.45884612881999" lon="10.915314336438817"><ele>230.0</ele><time>2026-04-26T14:00:19.003Z</time></trkpt><trkpt lat="43.45875827815662" lon="10.915249049100535"><ele>230.0</ele><time>2026-04-26T14:00:20.003Z</time></trkpt><trkpt lat="43.458679305176155" lon="10.915150617871753"><ele>231.0</ele><time>2026-04-26T14:00:21.003Z</time></trkpt><trkpt lat="43.45861027026982" lon="10.91503364435378"><ele>232.0</ele><time>2026-04-26T14:00:22.003Z</time></trkpt><trkpt lat="43.45857243647782" lon="10.914909768013407"><ele>233.0</ele><time>2026-04-26T14:00:23.003Z</time></trkpt><trkpt lat="43.458556978334514" lon="10.914768773364372"><ele>234.0</ele><time>2026-04-26T14:00:24.003Z</time></trkpt><trkpt lat="43.458552843433516" lon="10.91460322055708"><ele>235.0</ele><time>2026-04-26T14:00:25.003Z</time></trkpt><trkpt lat="43.45855852251831" lon="10.914423720312353"><ele>237.66666666666666</ele><time>2026-04-26T14:00:26.003Z</time></trkpt><trkpt lat="43.45855793580748" lon="10.914220100892795"><ele>240.33333333333331</ele><time>2026-04-26T14:00:27.003Z</time></trkpt><trkpt lat="43.45855698744849" lon="10.913985575622535"><ele>243.0</ele><time>2026-04-26T14:00:28.003Z</time></trkpt><trkpt lat="43.45855747832351" lon="10.913738597246882"><ele>243.0</ele><time>2026-04-26T14:00:29.003Z</time></trkpt><trkpt lat="43.458560820713615" lon="10.91351183150094"><ele>243.0</ele><time>2026-04-26T14:00:30.003Z</time></trkpt><trkpt lat="43.458563033712736" lon="10.913330024863148"><ele>243.0</ele><time>2026-04-26T14:00:31Z</time></trkpt><trkpt lat="43.45855389622639" lon="10.913189633733307"><ele>243.0</ele><time>2026-04-26T14:00:32Z</time></trkpt><trkpt lat="43.45853025338701" lon="10.913063021043621"><ele>244.4</ele><time>2026-04-26T14:00:33Z</time></trkpt><trkpt lat="43.45847428622809" lon="10.912955521330119"><ele>245.8</ele><time>2026-04-26T14:00:34Z</time></trkpt><trkpt lat="43.45839784577258" lon="10.912862912149858"><ele>247.2</ele><time>2026-04-26T14:00:35Z</time></trkpt><trkpt lat="43.45830360538661" lon="10.91278532663695"><ele>248.6</ele><time>2026-04-26T14:00:36Z</time></trkpt><trkpt lat="43.45818616969565" lon="10.912709035505763"><ele>250.0</ele><time>2026-04-26T14:00:37Z</time></trkpt><trkpt lat="43.45804107344957" lon="10.91261774525662"><ele>253.0</ele><time>2026-04-26T14:00:38Z</time></trkpt><trkpt lat="43.45787220293305" lon="10.912503223565565"><ele>256.0</ele><time>2026-04-26T14:00:39Z</time></trkpt><trkpt lat="43.45768229568207" lon="10.912376298990623"><ele>259.0</ele><time>2026-04-26T14:00:40Z</time></trkpt><trkpt lat="43.457479530005244" lon="10.91223689053331"><ele>259.0</ele><time>2026-04-26T14:00:41Z</time></trkpt><trkpt lat="43.457281891873755" lon="10.91210386605592"><ele>259.0</ele><time>2026-04-26T14:00:42Z</time></trkpt><trkpt lat="43.45710675011051" lon="10.911976149233311"><ele>259.0</ele><time>2026-04-26T14:00:43Z</time></trkpt><trkpt lat="43.45694238290483" lon="10.9118625946037"><ele>260.0</ele><time>2026-04-26T14:00:44Z</time></trkpt><trkpt lat="43.45679918493987" lon="10.91176046230242"><ele>261.0</ele><time>2026-04-26T14:00:45Z</time></trkpt><trkpt lat="43.45667888417434" lon="10.911671865278493"><ele>262.0</ele><time>2026-04-26T14:00:46Z</time></trkpt><trkpt lat="43.45657839097621" lon="10.911597451655407"><ele>263.0</ele><time>2026-04-26T14:00:47Z</time></trkpt><trkpt lat="43.45648863428643" lon="10.911543665910159"><ele>263.2</ele><time>2026-04-26T14:00:48Z</time></trkpt><trkpt lat="43.456406585614786" lon="10.911514985299664"><ele>263.4</ele><time>2026-04-26T14:00:49Z</time></trkpt><trkpt lat="43.456332195252216" lon="10.91151951477916"><ele>263.59999999999997</ele><time>2026-04-26T14:00:50Z</time></trkpt><trkpt lat="43.45625383210207" lon="10.911557379315164"><ele>263.8</ele><time>2026-04-26T14:00:51Z</time></trkpt><trkpt lat="43.456166851473455" lon="10.911613014915392"><ele>264.0</ele><time>2026-04-26T14:00:52Z</time></trkpt><trkpt lat="43.45605962327918" lon="10.911673492881498"><ele>266.0</ele><time>2026-04-26T14:00:53Z</time></trkpt><trkpt lat="43.45593462313924" lon="10.911736607288669"><ele>268.0</ele><time>2026-04-26T14:00:54Z</time></trkpt><trkpt lat="43.45579923171942" lon="10.911796887045826"><ele>270.0</ele><time>2026-04-26T14:00:55Z</time></trkpt><trkpt lat="43.45564697149555" lon="10.911856259830042"><ele>272.0</ele><time>2026-04-26T14:00:56Z</time></trkpt><trkpt lat="43.45548743903895" lon="10.911916572126797"><ele>275.33333333333337</ele><time>2026-04-26T14:00:57Z</time></trkpt><trkpt lat="43.45533404283229" lon="10.911948283156901"><ele>278.6666666666667</ele><time>2026-04-26T14:00:58Z</time></trkpt><trkpt lat="43.4551653154847" lon="10.911982769946059"><ele>282.0</ele><time>2026-04-26T14:00:59.001Z</time></trkpt><trkpt lat="43.45502353137715" lon="10.912008164503769"><ele>282.0</ele><time>2026-04-26T14:01:00.001Z</time></trkpt><trkpt lat="43.4548867465809" lon="10.912050291302844"><ele>282.0</ele><time>2026-04-26T14:01:01.001Z</time></trkpt><trkpt lat="43.45476884492872" lon="10.912114306399468"><ele>282.0</ele><time>2026-04-26T14:01:02.001Z</time></trkpt><trkpt lat="43.45465089270117" lon="10.91219920549399"><ele>282.0</ele><time>2026-04-26T14:01:03.001Z</time></trkpt><trkpt lat="43.45453166664656" lon="10.91226059756384"><ele>284.5</ele><time>2026-04-26T14:01:04.001Z</time></trkpt><trkpt lat="43.45440817984125" lon="10.912289534976734"><ele>287.0</ele><time>2026-04-26T14:01:05.001Z</time></trkpt><trkpt lat="43.454285511138146" lon="10.912292443050525"><ele>289.5</ele><time>2026-04-26T14:01:06.001Z</time></trkpt><trkpt lat="43.4541582075555" lon="10.912276248251809"><ele>292.0</ele><time>2026-04-26T14:01:07.001Z</time></trkpt><trkpt lat="43.45402130132504" lon="10.912239156744192"><ele>292.0</ele><time>2026-04-26T14:01:08.001Z</time></trkpt><trkpt lat="43.45390074681128" lon="10.91219508989398"><ele>292.0</ele><time>2026-04-26T14:01:09.001Z</time></trkpt><trkpt lat="43.45379630552837" lon="10.912154182949083"><ele>292.0</ele><time>2026-04-26T14:01:10.001Z</time></trkpt><trkpt lat="43.453691040298274" lon="10.912133676226986"><ele>292.0</ele><time>2026-04-26T14:01:11.001Z</time></trkpt><trkpt lat="43.453577242075184" lon="10.91213514062191"><ele>292.66666666666663</ele><time>2026-04-26T14:01:12.001Z</time></trkpt><trkpt lat="43.4534387617237" lon="10.912161957334012"><ele>293.3333333333333</ele><time>2026-04-26T14:01:13.001Z</time></trkpt><trkpt lat="43.45327890840631" lon="10.912207025082242"><ele>294.0</ele><time>2026-04-26T14:01:14.001Z</time></trkpt><trkpt lat="43.45311645004744" lon="10.912256414476028"><ele>294.0</ele><time>2026-04-26T14:01:15.001Z</time></trkpt><trkpt lat="43.45297317606022" lon="10.912298111130795"><ele>294.0</ele><time>2026-04-26T14:01:16.001Z</time></trkpt><trkpt lat="43.452839533947554" lon="10.912326619268544"><ele>294.0</ele><time>2026-04-26T14:01:17.001Z</time></trkpt><trkpt lat="43.452732728147126" lon="10.912339337288865"><ele>294.0</ele><time>2026-04-26T14:01:18.001Z</time></trkpt><trkpt lat="43.45262726572733" lon="10.9123316454313"><ele>293.5</ele><time>2026-04-26T14:01:19.001Z</time></trkpt><trkpt lat="43.4525181533106" lon="10.912284175546922"><ele>293.0</ele><time>2026-04-26T14:01:20.001Z</time></trkpt><trkpt lat="43.45239639815938" lon="10.912204342532966"><ele>292.5</ele><time>2026-04-26T14:01:21.001Z</time></trkpt><trkpt lat="43.452282511855984" lon="10.912144242966054"><ele>292.0</ele><time>2026-04-26T14:01:22.001Z</time></trkpt><trkpt lat="43.45215879292153" lon="10.912109378680622"><ele>290.75</ele><time>2026-04-26T14:01:23.001Z</time></trkpt><trkpt lat="43.45201473864435" lon="10.912096380981207"><ele>289.5</ele><time>2026-04-26T14:01:24.001Z</time></trkpt><trkpt lat="43.45185449114738" lon="10.912091956266808"><ele>288.25</ele><time>2026-04-26T14:01:25.001Z</time></trkpt><trkpt lat="43.45171546341737" lon="10.912092514784293"><ele>287.0</ele><time>2026-04-26T14:01:26.001Z</time></trkpt><trkpt lat="43.45159461762439" lon="10.912084071474405"><ele>287.0</ele><time>2026-04-26T14:01:27.001Z</time></trkpt><trkpt lat="43.45148276439639" lon="10.912063126674315"><ele>287.0</ele><time>2026-04-26T14:01:28.001Z</time></trkpt><trkpt lat="43.45136466283188" lon="10.912021756509432"><ele>287.0</ele><time>2026-04-26T14:01:29.001Z</time></trkpt><trkpt lat="43.45125562389292" lon="10.91197300403159"><ele>287.0</ele><time>2026-04-26T14:01:30.001Z</time></trkpt><trkpt lat="43.45116608558647" lon="10.911936963146252"><ele>287.0</ele><time>2026-04-26T14:01:31.001Z</time></trkpt><trkpt lat="43.45107716224607" lon="10.911917418543764"><ele>286.33333333333337</ele><time>2026-04-26T14:01:32.001Z</time></trkpt><trkpt lat="43.45098996137287" lon="10.911933987589133"><ele>285.6666666666667</ele><time>2026-04-26T14:01:33.001Z</time></trkpt><trkpt lat="43.450896297284004" lon="10.911966258685906"><ele>285.0</ele><time>2026-04-26T14:01:34.001Z</time></trkpt><trkpt lat="43.45081177602226" lon="10.911973174144753"><ele>284.3333333333333</ele><time>2026-04-26T14:01:35.002Z</time></trkpt><trkpt lat="43.45073862488807" lon="10.911933379085237"><ele>283.66666666666663</ele><time>2026-04-26T14:01:36.002Z</time></trkpt><trkpt lat="43.45066428436884" lon="10.911844002012815"><ele>283.0</ele><time>2026-04-26T14:01:37.002Z</time></trkpt><trkpt lat="43.450606027792844" lon="10.911721061261916"><ele>282.25</ele><time>2026-04-26T14:01:38.002Z</time></trkpt><trkpt lat="43.450537094096994" lon="10.911619078486824"><ele>281.5</ele><time>2026-04-26T14:01:39.002Z</time></trkpt><trkpt lat="43.45044078467622" lon="10.911539631693596"><ele>280.75</ele><time>2026-04-26T14:01:40.002Z</time></trkpt><trkpt lat="43.45031438135817" lon="10.911458334237775"><ele>280.0</ele><time>2026-04-26T14:01:41.002Z</time></trkpt><trkpt lat="43.45019859725122" lon="10.911386117575606"><ele>279.6</ele><time>2026-04-26T14:01:42.002Z</time></trkpt><trkpt lat="43.45008930370674" lon="10.911323677304177"><ele>279.2</ele><time>2026-04-26T14:01:43.002Z</time></trkpt><trkpt lat="43.44998119273018" lon="10.91126984045061"><ele>278.8</ele><time>2026-04-26T14:01:44.002Z</time></trkpt><trkpt lat="43.44988041296107" lon="10.911217990678887"><ele>278.4</ele><time>2026-04-26T14:01:45.002Z</time></trkpt><trkpt lat="43.44978554911672" lon="10.911160140578948"><ele>278.0</ele><time>2026-04-26T14:01:46.002Z</time></trkpt><trkpt lat="43.449695271960536" lon="10.911110245355767"><ele>277.1666666666667</ele><time>2026-04-26T14:01:47.002Z</time></trkpt><trkpt lat="43.44960802448038" lon="10.91106269394956"><ele>276.33333333333337</ele><time>2026-04-26T14:01:48.002Z</time></trkpt><trkpt lat="43.44952476282731" lon="10.911018895988414"><ele>275.5</ele><time>2026-04-26T14:01:49.002Z</time></trkpt><trkpt lat="43.4494455662944" lon="10.91097815348441"><ele>274.6666666666667</ele><time>2026-04-26T14:01:50.002Z</time></trkpt><trkpt lat="43.449369755913345" lon="10.910941005279776"><ele>273.8333333333333</ele><time>2026-04-26T14:01:51.002Z</time></trkpt><trkpt lat="43.449288712266146" lon="10.910905085461273"><ele>273.0</ele><time>2026-04-26T14:01:52.002Z</time></trkpt><trkpt lat="43.44920639891583" lon="10.91087166406874"><ele>273.0</ele><time>2026-04-26T14:01:53.002Z</time></trkpt><trkpt lat="43.44913140101326" lon="10.910840412383651"><ele>273.0</ele><time>2026-04-26T14:01:54.002Z</time></trkpt><trkpt lat="43.44905786451471" lon="10.910812195957734"><ele>273.0</ele><time>2026-04-26T14:01:55.002Z</time></trkpt><trkpt lat="43.448978732291515" lon="10.910786387119874"><ele>273.0</ele><time>2026-04-26T14:01:56.002Z</time></trkpt><trkpt lat="43.4488984712536" lon="10.910764216510971"><ele>273.0</ele><time>2026-04-26T14:01:57.002Z</time></trkpt><trkpt lat="43.44881298921223" lon="10.910733845339571"><ele>273.0</ele><time>2026-04-26T14:01:58.002Z</time></trkpt><trkpt lat="43.44872443770538" lon="10.91069065001496"><ele>272.8</ele><time>2026-04-26T14:01:59.002Z</time></trkpt><trkpt lat="43.44863601293268" lon="10.91062983877869"><ele>272.6</ele><time>2026-04-26T14:02:00.002Z</time></trkpt><trkpt lat="43.448552283401234" lon="10.910539424900072"><ele>272.4</ele><time>2026-04-26T14:02:01.002Z</time></trkpt><trkpt lat="43.44845934885715" lon="10.910460228892163"><ele>272.2</ele><time>2026-04-26T14:02:02.002Z</time></trkpt><trkpt lat="43.448368030859584" lon="10.910401829540566"><ele>272.0</ele><time>2026-04-26T14:02:03.002Z</time></trkpt><trkpt lat="43.44828959810142" lon="10.910327007391226"><ele>272.0</ele><time>2026-04-26T14:02:04.002Z</time></trkpt><trkpt lat="43.44820349963541" lon="10.910267945204192"><ele>272.0</ele><time>2026-04-26T14:02:05.002Z</time></trkpt><trkpt lat="43.44811656882467" lon="10.910210092225528"><ele>272.0</ele><time>2026-04-26T14:02:06.002Z</time></trkpt><trkpt lat="43.44803356114697" lon="10.910165225583699"><ele>272.0</ele><time>2026-04-26T14:02:07.002Z</time></trkpt><trkpt lat="43.44796331286613" lon="10.910120325461545"><ele>272.0</ele><time>2026-04-26T14:02:08.002Z</time></trkpt><trkpt lat="43.447896400292855" lon="10.910081131015994"><ele>272.0</ele><time>2026-04-26T14:02:09.002Z</time></trkpt><trkpt lat="43.44782387424896" lon="10.910034366649011"><ele>271.1666666666667</ele><time>2026-04-26T14:02:10.002Z</time></trkpt><trkpt lat="43.44775344506799" lon="10.909993609723083"><ele>270.33333333333337</ele><time>2026-04-26T14:02:11.003Z</time></trkpt><trkpt lat="43.447684765995994" lon="10.90996149828491"><ele>269.5</ele><time>2026-04-26T14:02:12.003Z</time></trkpt><trkpt lat="43.44761794301774" lon="10.909927347029425"><ele>268.6666666666667</ele><time>2026-04-26T14:02:13.003Z</time></trkpt><trkpt lat="43.447547186345474" lon="10.909888485057298"><ele>267.8333333333333</ele><time>2026-04-26T14:02:14.003Z</time></trkpt><trkpt lat="43.447489265005956" lon="10.909854489000098"><ele>267.0</ele><time>2026-04-26T14:02:15.003Z</time></trkpt><trkpt lat="43.4473717538375" lon="10.909778557853715"><ele>267.00000000000006</ele><time>2026-04-26T14:02:17.003Z</time></trkpt><trkpt lat="43.447312496669895" lon="10.909733191465218"><ele>267.0</ele><time>2026-04-26T14:02:18.003Z</time></trkpt><trkpt lat="43.44723711337711" lon="10.909679729132531"><ele>267.0</ele><time>2026-04-26T14:02:19.003Z</time></trkpt><trkpt lat="43.44716545167135" lon="10.90964493775189"><ele>267.0</ele><time>2026-04-26T14:02:20.003Z</time></trkpt><trkpt lat="43.44709068620434" lon="10.909616663371175"><ele>267.0</ele><time>2026-04-26T14:02:21.003Z</time></trkpt><trkpt lat="43.44702603247695" lon="10.909576794178925"><ele>267.00000000000006</ele><time>2026-04-26T14:02:22.003Z</time></trkpt><trkpt lat="43.44695717553925" lon="10.909548823569907"><ele>267.0</ele><time>2026-04-26T14:02:23.003Z</time></trkpt><trkpt lat="43.446884829942995" lon="10.909526650158059"><ele>266.0</ele><time>2026-04-26T14:02:24.003Z</time></trkpt><trkpt lat="43.446802284756224" lon="10.909495498050655"><ele>265.0</ele><time>2026-04-26T14:02:25.003Z</time></trkpt><trkpt lat="43.4467310325401" lon="10.909462163684749"><ele>264.0</ele><time>2026-04-26T14:02:26.003Z</time></trkpt><trkpt lat="43.446663767620336" lon="10.909434107778402"><ele>263.0</ele><time>2026-04-26T14:02:27.003Z</time></trkpt><trkpt lat="43.44659659775219" lon="10.909411708394023"><ele>262.0</ele><time>2026-04-26T14:02:28.003Z</time></trkpt><trkpt lat="43.446525367068936" lon="10.90936046571221"><ele>261.0</ele><time>2026-04-26T14:02:29.003Z</time></trkpt><trkpt lat="43.446469578567935" lon="10.909297845789803"><ele>260.40000000000003</ele><time>2026-04-26T14:02:30.003Z</time></trkpt><trkpt lat="43.44642644314547" lon="10.90923149090204"><ele>259.8</ele><time>2026-04-26T14:02:31.003Z</time></trkpt><trkpt lat="43.44637061928522" lon="10.90910740618751"><ele>259.20000000000005</ele><time>2026-04-26T14:02:33.003Z</time></trkpt><trkpt lat="43.446310539658164" lon="10.908979240451792"><ele>258.6</ele><time>2026-04-26T14:02:35.003Z</time></trkpt><trkpt lat="43.44626108283679" lon="10.908855777508888"><ele>258.0</ele><time>2026-04-26T14:02:37Z</time></trkpt><trkpt lat="43.44622896921311" lon="10.908720145308221"><ele>257.8333333333333</ele><time>2026-04-26T14:02:39Z</time></trkpt><trkpt lat="43.44618957020823" lon="10.908585934155639"><ele>257.6666666666667</ele><time>2026-04-26T14:02:41Z</time></trkpt><trkpt lat="43.44615098561169" lon="10.908439866055597"><ele>257.5</ele><time>2026-04-26T14:02:43Z</time></trkpt><trkpt lat="43.446116182483884" lon="10.908362097957014"><ele>257.33333333333337</ele><time>2026-04-26T14:02:44Z</time></trkpt><trkpt lat="43.44609606337572" lon="10.90826647492765"><ele>257.1666666666667</ele><time>2026-04-26T14:02:45Z</time></trkpt><trkpt lat="43.44607231483085" lon="10.908176362328044"><ele>257.0</ele><time>2026-04-26T14:02:46Z</time></trkpt><trkpt lat="43.446042364405216" lon="10.90807469845313"><ele>257.0</ele><time>2026-04-26T14:02:47Z</time></trkpt><trkpt lat="43.445987764660885" lon="10.90792264168653"><ele>257.0</ele><time>2026-04-26T14:02:48Z</time></trkpt><trkpt lat="43.44592337326074" lon="10.907774581550756"><ele>257.0</ele><time>2026-04-26T14:02:49Z</time></trkpt><trkpt lat="43.44584692385473" lon="10.907633102482098"><ele>257.0</ele><time>2026-04-26T14:02:50Z</time></trkpt><trkpt lat="43.44575875164061" lon="10.90748445809284"><ele>256.5</ele><time>2026-04-26T14:02:51Z</time></trkpt><trkpt lat="43.44566849699744" lon="10.90734092730712"><ele>256.0</ele><time>2026-04-26T14:02:52Z</time></trkpt><trkpt lat="43.445581894420016" lon="10.907202727955488"><ele>255.5</ele><time>2026-04-26T14:02:53Z</time></trkpt><trkpt lat="43.445489744286334" lon="10.907048878579324"><ele>255.0</ele><time>2026-04-26T14:02:54Z</time></trkpt><trkpt lat="43.44541130879327" lon="10.90691096321319"><ele>254.4</ele><time>2026-04-26T14:02:55Z</time></trkpt><trkpt lat="43.44534379549095" lon="10.906779288821744"><ele>253.8</ele><time>2026-04-26T14:02:56Z</time></trkpt><trkpt lat="43.445276207215116" lon="10.906668800498007"><ele>253.2</ele><time>2026-04-26T14:02:57Z</time></trkpt><trkpt lat="43.44521393352036" lon="10.906565251411005"><ele>252.6</ele><time>2026-04-26T14:02:58Z</time></trkpt><trkpt lat="43.44514384365628" lon="10.906446026240058"><ele>252.0</ele><time>2026-04-26T14:02:59Z</time></trkpt><trkpt lat="43.4450583851337" lon="10.906331572024543"><ele>252.0</ele><time>2026-04-26T14:03:00Z</time></trkpt><trkpt lat="43.44495840988653" lon="10.906199146667783"><ele>252.0</ele><time>2026-04-26T14:03:01Z</time></trkpt><trkpt lat="43.444848487920446" lon="10.906055437858118"><ele>252.0</ele><time>2026-04-26T14:03:02Z</time></trkpt><trkpt lat="43.444747939955434" lon="10.905922627842184"><ele>252.0</ele><time>2026-04-26T14:03:03Z</time></trkpt><trkpt lat="43.44465873054283" lon="10.905804228568426"><ele>251.0</ele><time>2026-04-26T14:03:04Z</time></trkpt><trkpt lat="43.44458375328204" lon="10.905681681313991"><ele>250.0</ele><time>2026-04-26T14:03:05Z</time></trkpt><trkpt lat="43.44451064218873" lon="10.905532632429525"><ele>249.0</ele><time>2026-04-26T14:03:06Z</time></trkpt><trkpt lat="43.44444111412488" lon="10.905376186862489"><ele>248.0</ele><time>2026-04-26T14:03:07Z</time></trkpt><trkpt lat="43.44437680287477" lon="10.905233358779554"><ele>248.0</ele><time>2026-04-26T14:03:08Z</time></trkpt><trkpt lat="43.44431230860362" lon="10.905117668104229"><ele>248.0</ele><time>2026-04-26T14:03:09Z</time></trkpt><trkpt lat="43.444233734954494" lon="10.905007883136369"><ele>248.0</ele><time>2026-04-26T14:03:10.001Z</time></trkpt><trkpt lat="43.44413198574755" lon="10.904881667011708"><ele>248.0</ele><time>2026-04-26T14:03:11.001Z</time></trkpt><trkpt lat="43.4440003645943" lon="10.904757720013126"><ele>249.0</ele><time>2026-04-26T14:03:12.001Z</time></trkpt><trkpt lat="43.443865856471795" lon="10.904606125143466"><ele>250.0</ele><time>2026-04-26T14:03:13.001Z</time></trkpt><trkpt lat="43.443732901284115" lon="10.904482497140851"><ele>251.0</ele><time>2026-04-26T14:03:14.001Z</time></trkpt><trkpt lat="43.4436018537615" lon="10.904361337128947"><ele>249.0</ele><time>2026-04-26T14:03:15.001Z</time></trkpt><trkpt lat="43.443475137068255" lon="10.90424354216516"><ele>247.0</ele><time>2026-04-26T14:03:16.001Z</time></trkpt><trkpt lat="43.4433509959975" lon="10.904128141582294"><ele>245.0</ele><time>2026-04-26T14:03:17.001Z</time></trkpt><trkpt lat="43.44321906211647" lon="10.90401015263853"><ele>245.0</ele><time>2026-04-26T14:03:18.001Z</time></trkpt><trkpt lat="43.44307280231367" lon="10.903910524451572"><ele>245.0</ele><time>2026-04-26T14:03:19.001Z</time></trkpt><trkpt lat="43.44293506188588" lon="10.903795726186333"><ele>245.0</ele><time>2026-04-26T14:03:20.001Z</time></trkpt><trkpt lat="43.44280215519088" lon="10.903658847153636"><ele>245.25</ele><time>2026-04-26T14:03:21.001Z</time></trkpt><trkpt lat="43.44266876006859" lon="10.903540442943335"><ele>245.5</ele><time>2026-04-26T14:03:22.001Z</time></trkpt><trkpt lat="43.442548796184944" lon="10.903426157384377"><ele>245.75</ele><time>2026-04-26T14:03:23.001Z</time></trkpt><trkpt lat="43.4424333043249" lon="10.9033105320323"><ele>246.0</ele><time>2026-04-26T14:03:24.001Z</time></trkpt><trkpt lat="43.4423177209411" lon="10.903193040948459"><ele>246.0</ele><time>2026-04-26T14:03:25.001Z</time></trkpt><trkpt lat="43.44220421926373" lon="10.903090820094247"><ele>246.0</ele><time>2026-04-26T14:03:26.001Z</time></trkpt><trkpt lat="43.442085336527924" lon="10.902992682316572"><ele>246.0</ele><time>2026-04-26T14:03:27.001Z</time></trkpt><trkpt lat="43.44196872333396" lon="10.902899588396586"><ele>246.0</ele><time>2026-04-26T14:03:28.001Z</time></trkpt><trkpt lat="43.4418456635147" lon="10.902816474635902"><ele>245.5</ele><time>2026-04-26T14:03:29.001Z</time></trkpt><trkpt lat="43.44172272694038" lon="10.90275319625173"><ele>245.0</ele><time>2026-04-26T14:03:30.001Z</time></trkpt><trkpt lat="43.44159028046454" lon="10.902705673104842"><ele>244.5</ele><time>2026-04-26T14:03:31.001Z</time></trkpt><trkpt lat="43.44144728383687" lon="10.902678154115776"><ele>244.0</ele><time>2026-04-26T14:03:32.001Z</time></trkpt><trkpt lat="43.44130792492215" lon="10.90268826288589"><ele>243.5</ele><time>2026-04-26T14:03:33.001Z</time></trkpt><trkpt lat="43.441187156899126" lon="10.902681913315877"><ele>243.0</ele><time>2026-04-26T14:03:34.001Z</time></trkpt><trkpt lat="43.441069959518195" lon="10.902671220773342"><ele>242.5</ele><time>2026-04-26T14:03:35.001Z</time></trkpt><trkpt lat="43.44095601604264" lon="10.902651382427225"><ele>242.0</ele><time>2026-04-26T14:03:36.001Z</time></trkpt><trkpt lat="43.44083221291866" lon="10.902620813738682"><ele>243.0</ele><time>2026-04-26T14:03:37.001Z</time></trkpt><trkpt lat="43.44070414709484" lon="10.902569933598748"><ele>244.0</ele><time>2026-04-26T14:03:38.001Z</time></trkpt><trkpt lat="43.44058105703726" lon="10.902508192085376"><ele>245.0</ele><time>2026-04-26T14:03:39.001Z</time></trkpt><trkpt lat="43.440471862683815" lon="10.902432673641632"><ele>246.0</ele><time>2026-04-26T14:03:40.001Z</time></trkpt><trkpt lat="43.44035922135486" lon="10.902338454671376"><ele>248.0</ele><time>2026-04-26T14:03:41.001Z</time></trkpt><trkpt lat="43.440251055812084" lon="10.902231384907045"><ele>250.0</ele><time>2026-04-26T14:03:42.001Z</time></trkpt><trkpt lat="43.4401465892625" lon="10.902107542078843"><ele>252.0</ele><time>2026-04-26T14:03:43.001Z</time></trkpt><trkpt lat="43.44005769825798" lon="10.90196777190204"><ele>254.0</ele><time>2026-04-26T14:03:44.001Z</time></trkpt><trkpt lat="43.43998026879046" lon="10.901826945596179"><ele>253.33333333333334</ele><time>2026-04-26T14:03:45.001Z</time></trkpt><trkpt lat="43.43992635170245" lon="10.901709853051635"><ele>252.66666666666669</ele><time>2026-04-26T14:03:46.002Z</time></trkpt><trkpt lat="43.43988881501174" lon="10.901631449306448"><ele>252.0</ele><time>2026-04-26T14:03:47.002Z</time></trkpt><trkpt lat="43.43982678082353" lon="10.901508566478046"><ele>251.33333333333331</ele><time>2026-04-26T14:03:49.002Z</time></trkpt><trkpt lat="43.439787990143" lon="10.901437432534541"><ele>250.66666666666666</ele><time>2026-04-26T14:03:50.002Z</time></trkpt><trkpt lat="43.439745030862426" lon="10.901363325788388"><ele>250.0</ele><time>2026-04-26T14:03:51.002Z</time></trkpt><trkpt lat="43.43970714562205" lon="10.901287508596395"><ele>249.99999999999997</ele><time>2026-04-26T14:03:52.002Z</time></trkpt><trkpt lat="43.43967726989154" lon="10.901208179217988"><ele>250.0</ele><time>2026-04-26T14:03:53.002Z</time></trkpt><trkpt lat="43.43967199589953" lon="10.901104422229528"><ele>250.0</ele><time>2026-04-26T14:03:54.002Z</time></trkpt><trkpt lat="43.43965560281095" lon="10.90099919798942"><ele>250.0</ele><time>2026-04-26T14:03:55.002Z</time></trkpt><trkpt lat="43.43963035752958" lon="10.90088520676527"><ele>249.99999999999997</ele><time>2026-04-26T14:03:56.002Z</time></trkpt><trkpt lat="43.43965175540393" lon="10.900776379857998"><ele>250.0</ele><time>2026-04-26T14:03:57.002Z</time></trkpt><trkpt lat="43.43964200678197" lon="10.90065586184758"><ele>249.4</ele><time>2026-04-26T14:03:58.002Z</time></trkpt><trkpt lat="43.4396563857677" lon="10.900526263087869"><ele>248.8</ele><time>2026-04-26T14:03:59.002Z</time></trkpt><trkpt lat="43.43967021793554" lon="10.900391231520054"><ele>248.2</ele><time>2026-04-26T14:04:00.002Z</time></trkpt><trkpt lat="43.43968384005313" lon="10.900248950685938"><ele>247.6</ele><time>2026-04-26T14:04:01.002Z</time></trkpt><trkpt lat="43.43969540807374" lon="10.900117794638142"><ele>247.0</ele><time>2026-04-26T14:04:02.002Z</time></trkpt><trkpt lat="43.43970043752068" lon="10.899999335040809"><ele>246.99999999999997</ele><time>2026-04-26T14:04:03.002Z</time></trkpt><trkpt lat="43.4396918948903" lon="10.899875836828754"><ele>247.0</ele><time>2026-04-26T14:04:04.002Z</time></trkpt><trkpt lat="43.43966672727298" lon="10.89975219169226"><ele>247.0</ele><time>2026-04-26T14:04:05.002Z</time></trkpt><trkpt lat="43.439630330185416" lon="10.899641151465758"><ele>247.0</ele><time>2026-04-26T14:04:06.002Z</time></trkpt><trkpt lat="43.43959091067566" lon="10.899548088799262"><ele>246.99999999999997</ele><time>2026-04-26T14:04:07.002Z</time></trkpt><trkpt lat="43.43952950749967" lon="10.899452144053106"><ele>247.0</ele><time>2026-04-26T14:04:08.002Z</time></trkpt><trkpt lat="43.43943837792234" lon="10.899353072065203"><ele>248.0</ele><time>2026-04-26T14:04:09.002Z</time></trkpt><trkpt lat="43.43932657961399" lon="10.899251560614838"><ele>249.0</ele><time>2026-04-26T14:04:10.002Z</time></trkpt><trkpt lat="43.439216087359355" lon="10.899133395629127"><ele>250.0</ele><time>2026-04-26T14:04:11.002Z</time></trkpt><trkpt lat="43.4391154281562" lon="10.899009152706698"><ele>251.0</ele><time>2026-04-26T14:04:12.002Z</time></trkpt><trkpt lat="43.43902669352439" lon="10.898897605799164"><ele>251.0</ele><time>2026-04-26T14:04:13.002Z</time></trkpt><trkpt lat="43.43894056582409" lon="10.898791209602438"><ele>251.0</ele><time>2026-04-26T14:04:14.002Z</time></trkpt><trkpt lat="43.43886062097185" lon="10.898679656474135"><ele>251.0</ele><time>2026-04-26T14:04:15.002Z</time></trkpt><trkpt lat="43.43879675844405" lon="10.898552975554841"><ele>251.0</ele><time>2026-04-26T14:04:16.002Z</time></trkpt><trkpt lat="43.43875366108683" lon="10.898414596710625"><ele>250.0</ele><time>2026-04-26T14:04:17.002Z</time></trkpt><trkpt lat="43.43873893722328" lon="10.898259699458492"><ele>249.0</ele><time>2026-04-26T14:04:18.002Z</time></trkpt><trkpt lat="43.43869393974397" lon="10.898099823358235"><ele>248.0</ele><time>2026-04-26T14:04:19.002Z</time></trkpt><trkpt lat="43.438611148452075" lon="10.897961133783458"><ele>247.0</ele><time>2026-04-26T14:04:20.002Z</time></trkpt><trkpt lat="43.43853724157659" lon="10.897834573272982"><ele>247.0</ele><time>2026-04-26T14:04:21.003Z</time></trkpt><trkpt lat="43.43846826582901" lon="10.897715652707435"><ele>247.0</ele><time>2026-04-26T14:04:22.003Z</time></trkpt><trkpt lat="43.43841530719127" lon="10.897583233013442"><ele>247.0</ele><time>2026-04-26T14:04:23.003Z</time></trkpt><trkpt lat="43.43837971577713" lon="10.897422637632104"><ele>247.0</ele><time>2026-04-26T14:04:24.003Z</time></trkpt><trkpt lat="43.43835991075934" lon="10.897240968985928"><ele>245.0</ele><time>2026-04-26T14:04:25.003Z</time></trkpt><trkpt lat="43.43836034982347" lon="10.897029831486932"><ele>243.0</ele><time>2026-04-26T14:04:26.003Z</time></trkpt><trkpt lat="43.438317432581655" lon="10.896830090867171"><ele>241.0</ele><time>2026-04-26T14:04:27.003Z</time></trkpt><trkpt lat="43.43827121173374" lon="10.896649318697197"><ele>239.0</ele><time>2026-04-26T14:04:28.003Z</time></trkpt><trkpt lat="43.43822390107473" lon="10.896488085863226"><ele>237.6</ele><time>2026-04-26T14:04:29.003Z</time></trkpt><trkpt lat="43.43819016972969" lon="10.896330775706721"><ele>236.2</ele><time>2026-04-26T14:04:30.003Z</time></trkpt><trkpt lat="43.43818181700159" lon="10.896180012782526"><ele>234.79999999999998</ele><time>2026-04-26T14:04:31.003Z</time></trkpt><trkpt lat="43.43819473734245" lon="10.896047615446049"><ele>233.39999999999998</ele><time>2026-04-26T14:04:32.003Z</time></trkpt><trkpt lat="43.43820294673188" lon="10.895936487582977"><ele>232.0</ele><time>2026-04-26T14:04:33.003Z</time></trkpt><trkpt lat="43.43819298511378" lon="10.895848203255731"><ele>231.8</ele><time>2026-04-26T14:04:34.003Z</time></trkpt><trkpt lat="43.43815662703439" lon="10.89574648233781"><ele>231.6</ele><time>2026-04-26T14:04:35.003Z</time></trkpt><trkpt lat="43.438085897962345" lon="10.895655981615072"><ele>231.40000000000003</ele><time>2026-04-26T14:04:36.003Z</time></trkpt><trkpt lat="43.43798851225372" lon="10.895563727731341"><ele>231.20000000000002</ele><time>2026-04-26T14:04:37.003Z</time></trkpt><trkpt lat="43.437890278692706" lon="10.895463877143813"><ele>231.0</ele><time>2026-04-26T14:04:38.003Z</time></trkpt><trkpt lat="43.4378265673907" lon="10.895311844064523"><ele>230.5</ele><time>2026-04-26T14:04:39.003Z</time></trkpt><trkpt lat="43.43776354363715" lon="10.895145414935946"><ele>230.0</ele><time>2026-04-26T14:04:40.003Z</time></trkpt><trkpt lat="43.437703160398776" lon="10.894967467924296"><ele>229.5</ele><time>2026-04-26T14:04:41.003Z</time></trkpt><trkpt lat="43.43764364389052" lon="10.894799080146646"><ele>229.0</ele><time>2026-04-26T14:04:42.003Z</time></trkpt><trkpt lat="43.43758320220365" lon="10.894646921571397"><ele>228.5</ele><time>2026-04-26T14:04:43Z</time></trkpt><trkpt lat="43.43751445480276" lon="10.89451290646507"><ele>228.0</ele><time>2026-04-26T14:04:44Z</time></trkpt><trkpt lat="43.43741344228837" lon="10.894402599067506"><ele>227.5</ele><time>2026-04-26T14:04:45Z</time></trkpt><trkpt lat="43.437305235847376" lon="10.894278443350457"><ele>227.0</ele><time>2026-04-26T14:04:46Z</time></trkpt><trkpt lat="43.4371772716206" lon="10.894155897460884"><ele>224.0</ele><time>2026-04-26T14:04:47Z</time></trkpt><trkpt lat="43.437039428908435" lon="10.894050788869453"><ele>221.0</ele><time>2026-04-26T14:04:48Z</time></trkpt><trkpt lat="43.436902772813546" lon="10.893967858834738"><ele>218.0</ele><time>2026-04-26T14:04:49Z</time></trkpt><trkpt lat="43.43676022819415" lon="10.893909999847251"><ele>218.0</ele><time>2026-04-26T14:04:50Z</time></trkpt><trkpt lat="43.43661229099676" lon="10.893871958870545"><ele>218.0</ele><time>2026-04-26T14:04:51Z</time></trkpt><trkpt lat="43.436477749106196" lon="10.893846669082992"><ele>218.0</ele><time>2026-04-26T14:04:52Z</time></trkpt><trkpt lat="43.43636258347262" lon="10.893813539854078"><ele>218.0</ele><time>2026-04-26T14:04:53Z</time></trkpt><trkpt lat="43.43625419938968" lon="10.89376741618586"><ele>218.0</ele><time>2026-04-26T14:04:54Z</time></trkpt><trkpt lat="43.436148119788555" lon="10.893710979946585"><ele>218.0</ele><time>2026-04-26T14:04:55Z</time></trkpt><trkpt lat="43.43604986389469" lon="10.893634866811295"><ele>218.0</ele><time>2026-04-26T14:04:56Z</time></trkpt><trkpt lat="43.43595806319752" lon="10.893531801571244"><ele>218.0</ele><time>2026-04-26T14:04:57Z</time></trkpt><trkpt lat="43.43585903608137" lon="10.893386013509248"><ele>218.0</ele><time>2026-04-26T14:04:58Z</time></trkpt><trkpt lat="43.435743091277985" lon="10.893211050566503"><ele>218.0</ele><time>2026-04-26T14:04:59Z</time></trkpt><trkpt lat="43.435613736110945" lon="10.893019011268422"><ele>218.0</ele><time>2026-04-26T14:05:00Z</time></trkpt><trkpt lat="43.435493030324224" lon="10.892835592201205"><ele>215.66666666666669</ele><time>2026-04-26T14:05:01Z</time></trkpt><trkpt lat="43.43537634343438" lon="10.892681590258825"><ele>213.33333333333331</ele><time>2026-04-26T14:05:02Z</time></trkpt><trkpt lat="43.43526504562335" lon="10.89254313793883"><ele>211.0</ele><time>2026-04-26T14:05:03Z</time></trkpt><trkpt lat="43.43515815317012" lon="10.892418377418295"><ele>211.0</ele><time>2026-04-26T14:05:04Z</time></trkpt><trkpt lat="43.43506020578575" lon="10.892308546759446"><ele>211.0</ele><time>2026-04-26T14:05:05Z</time></trkpt><trkpt lat="43.4349827858969" lon="10.892209775412958"><ele>211.0</ele><time>2026-04-26T14:05:06Z</time></trkpt><trkpt lat="43.43491732331404" lon="10.892113620377302"><ele>211.0</ele><time>2026-04-26T14:05:07Z</time></trkpt><trkpt lat="43.43486218498182" lon="10.89199370495547"><ele>211.0</ele><time>2026-04-26T14:05:08Z</time></trkpt><trkpt lat="43.43481090079509" lon="10.89184666898869"><ele>211.49999999999997</ele><time>2026-04-26T14:05:09Z</time></trkpt><trkpt lat="43.4347767780736" lon="10.891712076267119"><ele>212.0</ele><time>2026-04-26T14:05:10Z</time></trkpt><trkpt lat="43.43475072043166" lon="10.891615996561159"><ele>212.5</ele><time>2026-04-26T14:05:11Z</time></trkpt><trkpt lat="43.434679714510935" lon="10.89150218675583"><ele>213.0</ele><time>2026-04-26T14:05:13Z</time></trkpt><trkpt lat="43.43460732388202" lon="10.89151037382322"><ele>213.49999999999997</ele><time>2026-04-26T14:05:14.001Z</time></trkpt><trkpt lat="43.434540114838555" lon="10.8915564516143"><ele>214.0</ele><time>2026-04-26T14:05:15.001Z</time></trkpt><trkpt lat="43.43450104480019" lon="10.891647274282649"><ele>211.83333333333331</ele><time>2026-04-26T14:05:16.001Z</time></trkpt><trkpt lat="43.434461020199635" lon="10.89172941743094"><ele>209.66666666666666</ele><time>2026-04-26T14:05:17.001Z</time></trkpt><trkpt lat="43.434432201675854" lon="10.891824238942508"><ele>207.5</ele><time>2026-04-26T14:05:18.001Z</time></trkpt><trkpt lat="43.434414671575674" lon="10.891937153600363"><ele>205.33333333333331</ele><time>2026-04-26T14:05:19.001Z</time></trkpt><trkpt lat="43.43438384160684" lon="10.892054740162587"><ele>203.16666666666666</ele><time>2026-04-26T14:05:20.001Z</time></trkpt><trkpt lat="43.43438857575378" lon="10.892177368512854"><ele>201.0</ele><time>2026-04-26T14:05:21.001Z</time></trkpt><trkpt lat="43.434432021656484" lon="10.892339954264843"><ele>200.0</ele><time>2026-04-26T14:05:22.001Z</time></trkpt><trkpt lat="43.43449469721862" lon="10.892514718521179"><ele>199.0</ele><time>2026-04-26T14:05:23.001Z</time></trkpt><trkpt lat="43.43456056694237" lon="10.892672107390798"><ele>198.0</ele><time>2026-04-26T14:05:24.001Z</time></trkpt><trkpt lat="43.434615692463595" lon="10.892811613956516"><ele>197.0</ele><time>2026-04-26T14:05:25.001Z</time></trkpt><trkpt lat="43.43465287216099" lon="10.892960098444101"><ele>196.5</ele><time>2026-04-26T14:05:26.001Z</time></trkpt><trkpt lat="43.43465598897206" lon="10.893111898522157"><ele>196.0</ele><time>2026-04-26T14:05:27.001Z</time></trkpt><trkpt lat="43.43465718104129" lon="10.89327929112795"><ele>195.5</ele><time>2026-04-26T14:05:28.001Z</time></trkpt><trkpt lat="43.43465882419426" lon="10.893446679174476"><ele>195.0</ele><time>2026-04-26T14:05:29.001Z</time></trkpt><trkpt lat="43.434668550178365" lon="10.893604621157387"><ele>195.0</ele><time>2026-04-26T14:05:30.001Z</time></trkpt><trkpt lat="43.43469794131694" lon="10.893717623776592"><ele>195.0</ele><time>2026-04-26T14:05:31.001Z</time></trkpt><trkpt lat="43.434703003877765" lon="10.893810463136635"><ele>195.0</ele><time>2026-04-26T14:05:32.001Z</time></trkpt><trkpt lat="43.434687424649866" lon="10.89393773536842"><ele>195.0</ele><time>2026-04-26T14:05:34.001Z</time></trkpt><trkpt lat="43.434595912800546" lon="10.89396400976485"><ele>195.0</ele><time>2026-04-26T14:05:36.001Z</time></trkpt><trkpt lat="43.43450239777837" lon="10.89385083346731"><ele>194.0</ele><time>2026-04-26T14:05:38.001Z</time></trkpt><trkpt lat="43.4344625860054" lon="10.893769126448987"><ele>193.0</ele><time>2026-04-26T14:05:39.001Z</time></trkpt><trkpt lat="43.43439542765339" lon="10.893668037007213"><ele>192.0</ele><time>2026-04-26T14:05:40.001Z</time></trkpt><trkpt lat="43.43429747286899" lon="10.893571173222885"><ele>191.0</ele><time>2026-04-26T14:05:41.001Z</time></trkpt><trkpt lat="43.43418584969948" lon="10.893450675840997"><ele>190.0</ele><time>2026-04-26T14:05:42.001Z</time></trkpt><trkpt lat="43.43405528987118" lon="10.89334605098329"><ele>190.0</ele><time>2026-04-26T14:05:43.001Z</time></trkpt><trkpt lat="43.43391094495988" lon="10.893248425208768"><ele>190.0</ele><time>2026-04-26T14:05:44.001Z</time></trkpt><trkpt lat="43.433778828644236" lon="10.893161108196809"><ele>190.0</ele><time>2026-04-26T14:05:45.001Z</time></trkpt><trkpt lat="43.433651287977845" lon="10.893063168617841"><ele>187.0</ele><time>2026-04-26T14:05:46.001Z</time></trkpt><trkpt lat="43.43354835107427" lon="10.892929953028789"><ele>184.0</ele><time>2026-04-26T14:05:47.001Z</time></trkpt><trkpt lat="43.43344713797959" lon="10.892825001107507"><ele>181.0</ele><time>2026-04-26T14:05:48.001Z</time></trkpt><trkpt lat="43.43336161454269" lon="10.892740372808591"><ele>178.0</ele><time>2026-04-26T14:05:49.001Z</time></trkpt><trkpt lat="43.43327383486328" lon="10.892693776456051"><ele>178.0</ele><time>2026-04-26T14:05:50.002Z</time></trkpt><trkpt lat="43.433205100155604" lon="10.892652241884672"><ele>178.0</ele><time>2026-04-26T14:05:51.002Z</time></trkpt><trkpt lat="43.433114439538336" lon="10.892640247655835"><ele>178.0</ele><time>2026-04-26T14:05:52.002Z</time></trkpt><trkpt lat="43.433006506050056" lon="10.892652268823596"><ele>178.0</ele><time>2026-04-26T14:05:53.002Z</time></trkpt><trkpt lat="43.43288667218345" lon="10.892686894379077"><ele>178.0</ele><time>2026-04-26T14:05:54.002Z</time></trkpt><trkpt lat="43.432754037642844" lon="10.89273179136217"><ele>176.75</ele><time>2026-04-26T14:05:55.002Z</time></trkpt><trkpt lat="43.4326152728085" lon="10.892776748145156"><ele>175.5</ele><time>2026-04-26T14:05:56.002Z</time></trkpt><trkpt lat="43.43247323791102" lon="10.892825130957226"><ele>174.25</ele><time>2026-04-26T14:05:57.002Z</time></trkpt><trkpt lat="43.43233836619438" lon="10.892860652016486"><ele>173.0</ele><time>2026-04-26T14:05:58.002Z</time></trkpt><trkpt lat="43.43221114049757" lon="10.89286837738799"><ele>173.83333333333331</ele><time>2026-04-26T14:05:59.002Z</time></trkpt><trkpt lat="43.432117825039235" lon="10.892914999133215"><ele>174.66666666666666</ele><time>2026-04-26T14:06:00.002Z</time></trkpt><trkpt lat="43.432038146840014" lon="10.892924739346618"><ele>175.5</ele><time>2026-04-26T14:06:01.002Z</time></trkpt><trkpt lat="43.431971175422404" lon="10.892943916775732"><ele>176.33333333333334</ele><time>2026-04-26T14:06:02.002Z</time></trkpt><trkpt lat="43.4318904895476" lon="10.892923346755035"><ele>177.16666666666669</ele><time>2026-04-26T14:06:04.002Z</time></trkpt><trkpt lat="43.43183277279364" lon="10.892811362930539"><ele>178.0</ele><time>2026-04-26T14:06:06.002Z</time></trkpt><trkpt lat="43.43180184768474" lon="10.89270462054523"><ele>177.75</ele><time>2026-04-26T14:06:07.002Z</time></trkpt><trkpt lat="43.43177610442048" lon="10.892539586999138"><ele>177.5</ele><time>2026-04-26T14:06:08.002Z</time></trkpt><trkpt lat="43.431756728230425" lon="10.89233928154935"><ele>177.25</ele><time>2026-04-26T14:06:09.002Z</time></trkpt><trkpt lat="43.43174885827882" lon="10.89212602638673"><ele>177.0</ele><time>2026-04-26T14:06:10.002Z</time></trkpt><trkpt lat="43.4317613422549" lon="10.891908614771483"><ele>176.5</ele><time>2026-04-26T14:06:11.002Z</time></trkpt><trkpt lat="43.43177804783987" lon="10.891709599628543"><ele>176.0</ele><time>2026-04-26T14:06:12.002Z</time></trkpt><trkpt lat="43.43179568601918" lon="10.891524218523234"><ele>175.5</ele><time>2026-04-26T14:06:13.002Z</time></trkpt><trkpt lat="43.43181495142398" lon="10.891355016074504"><ele>175.0</ele><time>2026-04-26T14:06:14.002Z</time></trkpt><trkpt lat="43.43182321934297" lon="10.891196205329878"><ele>175.0</ele><time>2026-04-26T14:06:15.002Z</time></trkpt><trkpt lat="43.4318217357991" lon="10.891027897909371"><ele>175.0</ele><time>2026-04-26T14:06:16.002Z</time></trkpt><trkpt lat="43.43180394351418" lon="10.890822131178934"><ele>175.0</ele><time>2026-04-26T14:06:17.002Z</time></trkpt><trkpt lat="43.43177409555626" lon="10.890587985752994"><ele>175.0</ele><time>2026-04-26T14:06:18.002Z</time></trkpt><trkpt lat="43.43174087301879" lon="10.89033062992246"><ele>173.33333333333334</ele><time>2026-04-26T14:06:19.002Z</time></trkpt><trkpt lat="43.431704591125055" lon="10.890090277449103"><ele>171.66666666666666</ele><time>2026-04-26T14:06:20.002Z</time></trkpt><trkpt lat="43.431662850313614" lon="10.889873982228341"><ele>170.0</ele><time>2026-04-26T14:06:21.002Z</time></trkpt><trkpt lat="43.43162194141685" lon="10.889687203032935"><ele>170.0</ele><time>2026-04-26T14:06:22.002Z</time></trkpt><trkpt lat="43.431582685228555" lon="10.889502724063282"><ele>170.0</ele><time>2026-04-26T14:06:23.002Z</time></trkpt><trkpt lat="43.431525419808096" lon="10.88934424593722"><ele>170.0</ele><time>2026-04-26T14:06:24.002Z</time></trkpt><trkpt lat="43.43143721975865" lon="10.889186399652301"><ele>170.0</ele><time>2026-04-26T14:06:25.002Z</time></trkpt><trkpt lat="43.431331983621185" lon="10.889038592394327"><ele>170.0</ele><time>2026-04-26T14:06:26.003Z</time></trkpt><trkpt lat="43.43120228963599" lon="10.888893838061161"><ele>170.0</ele><time>2026-04-26T14:06:27.003Z</time></trkpt><trkpt lat="43.4310361620671" lon="10.88875059235302"><ele>170.0</ele><time>2026-04-26T14:06:28.003Z</time></trkpt><trkpt lat="43.43086037908588" lon="10.888611629987446"><ele>170.0</ele><time>2026-04-26T14:06:29.003Z</time></trkpt><trkpt lat="43.430684048708045" lon="10.888466939533862"><ele>170.0</ele><time>2026-04-26T14:06:30.003Z</time></trkpt><trkpt lat="43.43051803507768" lon="10.88833341376599"><ele>170.0</ele><time>2026-04-26T14:06:31.003Z</time></trkpt><trkpt lat="43.43036856202899" lon="10.888208633692573"><ele>170.66666666666666</ele><time>2026-04-26T14:06:32.003Z</time></trkpt><trkpt lat="43.43022485367024" lon="10.888093727891237"><ele>171.33333333333334</ele><time>2026-04-26T14:06:33.003Z</time></trkpt><trkpt lat="43.43009525628704" lon="10.887989742655288"><ele>172.0</ele><time>2026-04-26T14:06:34.003Z</time></trkpt><trkpt lat="43.42996604589238" lon="10.887878682121313"><ele>172.0</ele><time>2026-04-26T14:06:35.003Z</time></trkpt><trkpt lat="43.429858196023794" lon="10.887773978326607"><ele>172.0</ele><time>2026-04-26T14:06:36.003Z</time></trkpt><trkpt lat="43.42977086044172" lon="10.887679051869279"><ele>172.0</ele><time>2026-04-26T14:06:37.003Z</time></trkpt><trkpt lat="43.42970023276661" lon="10.887584288830421"><ele>172.0</ele><time>2026-04-26T14:06:38.003Z</time></trkpt><trkpt lat="43.42966134789004" lon="10.887459980553587"><ele>172.0</ele><time>2026-04-26T14:06:39.003Z</time></trkpt><trkpt lat="43.42961140423512" lon="10.887357936708952"><ele>172.75</ele><time>2026-04-26T14:06:40.003Z</time></trkpt><trkpt lat="43.4295961305526" lon="10.887228245869208"><ele>173.5</ele><time>2026-04-26T14:06:41.003Z</time></trkpt><trkpt lat="43.429595229103526" lon="10.88708386710315"><ele>174.25</ele><time>2026-04-26T14:06:42.003Z</time></trkpt><trkpt lat="43.42961510187533" lon="10.886884930452798"><ele>175.0</ele><time>2026-04-26T14:06:43.003Z</time></trkpt><trkpt lat="43.42964864725211" lon="10.88665225203263"><ele>171.75</ele><time>2026-04-26T14:06:44.003Z</time></trkpt><trkpt lat="43.42968947359703" lon="10.886440931060612"><ele>168.5</ele><time>2026-04-26T14:06:45.003Z</time></trkpt><trkpt lat="43.42972584464323" lon="10.886252956789876"><ele>165.25</ele><time>2026-04-26T14:06:46.003Z</time></trkpt><trkpt lat="43.429761732969936" lon="10.886074793134018"><ele>162.0</ele><time>2026-04-26T14:06:47.003Z</time></trkpt><trkpt lat="43.429796614619306" lon="10.88589347814113"><ele>161.75</ele><time>2026-04-26T14:06:48.003Z</time></trkpt><trkpt lat="43.42981721352926" lon="10.885718474363486"><ele>161.5</ele><time>2026-04-26T14:06:49Z</time></trkpt><trkpt lat="43.42981859346328" lon="10.885535953830331"><ele>161.25</ele><time>2026-04-26T14:06:50Z</time></trkpt><trkpt lat="43.42979923841581" lon="10.885358047177283"><ele>161.0</ele><time>2026-04-26T14:06:51Z</time></trkpt><trkpt lat="43.42975325914505" lon="10.885151744639"><ele>160.33333333333331</ele><time>2026-04-26T14:06:52Z</time></trkpt><trkpt lat="43.429692489978514" lon="10.884919508184206"><ele>159.66666666666666</ele><time>2026-04-26T14:06:53Z</time></trkpt><trkpt lat="43.42962580522068" lon="10.884687626867441"><ele>159.0</ele><time>2026-04-26T14:06:54Z</time></trkpt><trkpt lat="43.42956460662777" lon="10.884468830896347"><ele>161.0</ele><time>2026-04-26T14:06:55Z</time></trkpt><trkpt lat="43.42949609685022" lon="10.884228948440649"><ele>163.0</ele><time>2026-04-26T14:06:56Z</time></trkpt><trkpt lat="43.429423296807855" lon="10.883971890765032"><ele>165.0</ele><time>2026-04-26T14:06:57Z</time></trkpt><trkpt lat="43.42934790919257" lon="10.883702391114895"><ele>163.0</ele><time>2026-04-26T14:06:58Z</time></trkpt><trkpt lat="43.42926942839379" lon="10.883430404687262"><ele>161.0</ele><time>2026-04-26T14:06:59Z</time></trkpt><trkpt lat="43.42919390014762" lon="10.88316391654333"><ele>159.0</ele><time>2026-04-26T14:07:00Z</time></trkpt><trkpt lat="43.42912026017325" lon="10.882907208603891"><ele>159.0</ele><time>2026-04-26T14:07:01Z</time></trkpt><trkpt lat="43.429045403335046" lon="10.8826506833541"><ele>159.0</ele><time>2026-04-26T14:07:02Z</time></trkpt><trkpt lat="43.428974033996376" lon="10.882399062567636"><ele>159.0</ele><time>2026-04-26T14:07:03Z</time></trkpt><trkpt lat="43.42890278635428" lon="10.882142056276061"><ele>158.0</ele><time>2026-04-26T14:07:04Z</time></trkpt><trkpt lat="43.42883681002391" lon="10.881886663181009"><ele>157.0</ele><time>2026-04-26T14:07:05Z</time></trkpt><trkpt lat="43.42877057706526" lon="10.881634501083708"><ele>156.0</ele><time>2026-04-26T14:07:06Z</time></trkpt><trkpt lat="43.428702401836844" lon="10.881388490108874"><ele>157.0</ele><time>2026-04-26T14:07:07Z</time></trkpt><trkpt lat="43.42863734225592" lon="10.881151340596553"><ele>158.0</ele><time>2026-04-26T14:07:08Z</time></trkpt><trkpt lat="43.42857151920798" lon="10.880913411098907"><ele>159.0</ele><time>2026-04-26T14:07:09Z</time></trkpt><trkpt lat="43.428502585215945" lon="10.880662856509382"><ele>159.0</ele><time>2026-04-26T14:07:10Z</time></trkpt><trkpt lat="43.42843392032268" lon="10.880419676721145"><ele>159.0</ele><time>2026-04-26T14:07:11Z</time></trkpt><trkpt lat="43.42836312436189" lon="10.88016665339478"><ele>159.0</ele><time>2026-04-26T14:07:12Z</time></trkpt><trkpt lat="43.428291048018785" lon="10.879912900887161"><ele>157.0</ele><time>2026-04-26T14:07:13.001Z</time></trkpt><trkpt lat="43.4282153663566" lon="10.879654336228946"><ele>155.0</ele><time>2026-04-26T14:07:14.001Z</time></trkpt><trkpt lat="43.42813975371019" lon="10.879398282480047"><ele>153.0</ele><time>2026-04-26T14:07:15.001Z</time></trkpt><trkpt lat="43.42806400774932" lon="10.879155972475958"><ele>153.33333333333334</ele><time>2026-04-26T14:07:16.001Z</time></trkpt><trkpt lat="43.42799155662421" lon="10.878930025564594"><ele>153.66666666666669</ele><time>2026-04-26T14:07:17.001Z</time></trkpt><trkpt lat="43.427927880195455" lon="10.87872704212259"><ele>154.0</ele><time>2026-04-26T14:07:18.001Z</time></trkpt><trkpt lat="43.42787096268911" lon="10.878535230432718"><ele>153.0</ele><time>2026-04-26T14:07:19.001Z</time></trkpt><trkpt lat="43.427823104724155" lon="10.87837152932721"><ele>152.0</ele><time>2026-04-26T14:07:20.001Z</time></trkpt><trkpt lat="43.42777335119572" lon="10.878231920314093"><ele>151.0</ele><time>2026-04-26T14:07:21.001Z</time></trkpt><trkpt lat="43.42771219893514" lon="10.878123100963263"><ele>150.0</ele><time>2026-04-26T14:07:22.001Z</time></trkpt><trkpt lat="43.42762078090364" lon="10.878021866148353"><ele>150.0</ele><time>2026-04-26T14:07:23.001Z</time></trkpt><trkpt lat="43.4274981196982" lon="10.877927877477138"><ele>150.0</ele><time>2026-04-26T14:07:24.001Z</time></trkpt><trkpt lat="43.42734701173343" lon="10.877835083087948"><ele>150.0</ele><time>2026-04-26T14:07:25.001Z</time></trkpt><trkpt lat="43.42720216474496" lon="10.87773158210315"><ele>150.0</ele><time>2026-04-26T14:07:26.001Z</time></trkpt><trkpt lat="43.42703900103064" lon="10.877602992743864"><ele>150.0</ele><time>2026-04-26T14:07:27.001Z</time></trkpt><trkpt lat="43.42687467402107" lon="10.877472332547159"><ele>150.0</ele><time>2026-04-26T14:07:28.001Z</time></trkpt><trkpt lat="43.4267108485338" lon="10.877346484706374"><ele>150.0</ele><time>2026-04-26T14:07:29.001Z</time></trkpt><trkpt lat="43.42655045170368" lon="10.877227284216263"><ele>150.0</ele><time>2026-04-26T14:07:30.001Z</time></trkpt><trkpt lat="43.42637403760829" lon="10.877098247460397"><ele>150.0</ele><time>2026-04-26T14:07:31.001Z</time></trkpt><trkpt lat="43.426189676652236" lon="10.876969770008197"><ele>151.66666666666666</ele><time>2026-04-26T14:07:32.001Z</time></trkpt><trkpt lat="43.4260205992391" lon="10.876856894490688"><ele>153.33333333333331</ele><time>2026-04-26T14:07:33.001Z</time></trkpt><trkpt lat="43.425867510897625" lon="10.87676446463162"><ele>155.0</ele><time>2026-04-26T14:07:34.001Z</time></trkpt><trkpt lat="43.42572416932187" lon="10.876677175952649"><ele>155.0</ele><time>2026-04-26T14:07:35.001Z</time></trkpt><trkpt lat="43.425591289351495" lon="10.876598132307253"><ele>155.0</ele><time>2026-04-26T14:07:36.001Z</time></trkpt><trkpt lat="43.42547471213567" lon="10.876521653678331"><ele>155.0</ele><time>2026-04-26T14:07:37.001Z</time></trkpt><trkpt lat="43.42537859285357" lon="10.876467154152175"><ele>155.0</ele><time>2026-04-26T14:07:38.001Z</time></trkpt><trkpt lat="43.42530620657201" lon="10.876411774234466"><ele>155.6</ele><time>2026-04-26T14:07:39.001Z</time></trkpt><trkpt lat="43.42522860764334" lon="10.876356932281935"><ele>156.2</ele><time>2026-04-26T14:07:41.001Z</time></trkpt><trkpt lat="43.42516434830069" lon="10.87631702931943"><ele>156.8</ele><time>2026-04-26T14:07:44.001Z</time></trkpt><trkpt lat="43.42511359077755" lon="10.876263263107928"><ele>157.4</ele><time>2026-04-26T14:07:46.001Z</time></trkpt><trkpt lat="43.424999060948295" lon="10.8763791690176"><ele>158.0</ele><time>2026-04-26T14:07:48.001Z</time></trkpt><trkpt lat="43.424940285184384" lon="10.8764878092865"><ele>158.0</ele><time>2026-04-26T14:07:49.001Z</time></trkpt><trkpt lat="43.42487118341411" lon="10.876609299185082"><ele>158.0</ele><time>2026-04-26T14:07:50.001Z</time></trkpt><trkpt lat="43.42479412628708" lon="10.87669414109929"><ele>158.0</ele><time>2026-04-26T14:07:51.001Z</time></trkpt><trkpt lat="43.424697217898284" lon="10.87675611269574"><ele>158.0</ele><time>2026-04-26T14:07:52.002Z</time></trkpt><trkpt lat="43.42457310568695" lon="10.876804542814543"><ele>158.0</ele><time>2026-04-26T14:07:53.002Z</time></trkpt><trkpt lat="43.424421757423445" lon="10.876837182551103"><ele>158.0</ele><time>2026-04-26T14:07:54.002Z</time></trkpt><trkpt lat="43.424262639000254" lon="10.876873914052227"><ele>158.0</ele><time>2026-04-26T14:07:55.002Z</time></trkpt><trkpt lat="43.42409840011648" lon="10.876917557224075"><ele>158.0</ele><time>2026-04-26T14:07:56.002Z</time></trkpt><trkpt lat="43.42392600730044" lon="10.876958289021458"><ele>158.0</ele><time>2026-04-26T14:07:57.002Z</time></trkpt><trkpt lat="43.42374057713782" lon="10.877006263579982"><ele>158.0</ele><time>2026-04-26T14:07:58.002Z</time></trkpt><trkpt lat="43.423546860282634" lon="10.877062410999713"><ele>158.0</ele><time>2026-04-26T14:07:59.002Z</time></trkpt><trkpt lat="43.42334802256046" lon="10.877115412903267"><ele>158.0</ele><time>2026-04-26T14:08:00.002Z</time></trkpt><trkpt lat="43.42315385989466" lon="10.877164246197"><ele>158.0</ele><time>2026-04-26T14:08:01.002Z</time></trkpt><trkpt lat="43.4229584567231" lon="10.877208884895124"><ele>158.0</ele><time>2026-04-26T14:08:02.002Z</time></trkpt><trkpt lat="43.42277507934528" lon="10.877253481824434"><ele>158.33333333333331</ele><time>2026-04-26T14:08:03.002Z</time></trkpt><trkpt lat="43.42259439507022" lon="10.877310614426808"><ele>158.66666666666666</ele><time>2026-04-26T14:08:04.002Z</time></trkpt><trkpt lat="43.42239483186445" lon="10.87736193408339"><ele>159.0</ele><time>2026-04-26T14:08:05.002Z</time></trkpt><trkpt lat="43.42219632652259" lon="10.877480111774137"><ele>159.5</ele><time>2026-04-26T14:08:06.002Z</time></trkpt><trkpt lat="43.42200212121767" lon="10.877612532501642"><ele>160.0</ele><time>2026-04-26T14:08:07.002Z</time></trkpt><trkpt lat="43.42179351314267" lon="10.877755177117379"><ele>160.0</ele><time>2026-04-26T14:08:08.002Z</time></trkpt><trkpt lat="43.42158873327688" lon="10.877895758198637"><ele>160.0</ele><time>2026-04-26T14:08:09.002Z</time></trkpt><trkpt lat="43.42138948627918" lon="10.878035080210285"><ele>160.33333333333334</ele><time>2026-04-26T14:08:10.002Z</time></trkpt><trkpt lat="43.421208992353684" lon="10.878186530875963"><ele>160.66666666666666</ele><time>2026-04-26T14:08:11.002Z</time></trkpt><trkpt lat="43.421023891176226" lon="10.878317115488125"><ele>161.0</ele><time>2026-04-26T14:08:12.002Z</time></trkpt><trkpt lat="43.420831923323995" lon="10.878426368017205"><ele>160.33333333333331</ele><time>2026-04-26T14:08:13.002Z</time></trkpt><trkpt lat="43.420663240613166" lon="10.878567205405295"><ele>159.66666666666666</ele><time>2026-04-26T14:08:14.002Z</time></trkpt><trkpt lat="43.42049214897985" lon="10.878683927580797"><ele>159.0</ele><time>2026-04-26T14:08:15.002Z</time></trkpt><trkpt lat="43.42032620890318" lon="10.8787967662925"><ele>160.33333333333334</ele><time>2026-04-26T14:08:16.002Z</time></trkpt><trkpt lat="43.42016900441034" lon="10.87890360925256"><ele>161.66666666666669</ele><time>2026-04-26T14:08:17.002Z</time></trkpt><trkpt lat="43.42001502987587" lon="10.879004957131668"><ele>163.0</ele><time>2026-04-26T14:08:18.002Z</time></trkpt><trkpt lat="43.41986305803609" lon="10.879103350345993"><ele>163.0</ele><time>2026-04-26T14:08:19.002Z</time></trkpt><trkpt lat="43.419709118391935" lon="10.879207064199234"><ele>163.0</ele><time>2026-04-26T14:08:20.002Z</time></trkpt><trkpt lat="43.419551231586055" lon="10.879318211063794"><ele>163.0</ele><time>2026-04-26T14:08:21.002Z</time></trkpt><trkpt lat="43.41938886148626" lon="10.879430091087247"><ele>163.66666666666669</ele><time>2026-04-26T14:08:22.002Z</time></trkpt><trkpt lat="43.41922289039813" lon="10.879548137412675"><ele>164.33333333333334</ele><time>2026-04-26T14:08:23.002Z</time></trkpt><trkpt lat="43.41905073908549" lon="10.87967073723306"><ele>165.0</ele><time>2026-04-26T14:08:24.002Z</time></trkpt><trkpt lat="43.418877520804905" lon="10.87979078082662"><ele>165.0</ele><time>2026-04-26T14:08:25.002Z</time></trkpt><trkpt lat="43.41870410145686" lon="10.879910481319301"><ele>165.0</ele><time>2026-04-26T14:08:26.002Z</time></trkpt><trkpt lat="43.418529191390604" lon="10.880031870017309"><ele>165.0</ele><time>2026-04-26T14:08:27.002Z</time></trkpt><trkpt lat="43.4183554914893" lon="10.880153878358895"><ele>165.0</ele><time>2026-04-26T14:08:28.002Z</time></trkpt><trkpt lat="43.418177777362345" lon="10.880278229569807"><ele>165.0</ele><time>2026-04-26T14:08:29.003Z</time></trkpt><trkpt lat="43.417995960787934" lon="10.880401041191073"><ele>165.0</ele><time>2026-04-26T14:08:30.003Z</time></trkpt><trkpt lat="43.41781308963672" lon="10.880527168178288"><ele>165.33333333333334</ele><time>2026-04-26T14:08:31.003Z</time></trkpt><trkpt lat="43.41763001556477" lon="10.880658093359942"><ele>165.66666666666669</ele><time>2026-04-26T14:08:32.003Z</time></trkpt><trkpt lat="43.41744598664162" lon="10.880787021286048"><ele>166.0</ele><time>2026-04-26T14:08:33.003Z</time></trkpt><trkpt lat="43.41725904524124" lon="10.880911341758107"><ele>166.0</ele><time>2026-04-26T14:08:34.003Z</time></trkpt><trkpt lat="43.41706919637903" lon="10.881023922795363"><ele>166.0</ele><time>2026-04-26T14:08:35.003Z</time></trkpt><trkpt lat="43.41687016452524" lon="10.881117878448896"><ele>166.0</ele><time>2026-04-26T14:08:36.003Z</time></trkpt><trkpt lat="43.4166610653026" lon="10.881191424468616"><ele>166.0</ele><time>2026-04-26T14:08:37.003Z</time></trkpt><trkpt lat="43.41645014820357" lon="10.881255312534211"><ele>166.0</ele><time>2026-04-26T14:08:38.003Z</time></trkpt><trkpt lat="43.41624105070127" lon="10.881323257518432"><ele>166.0</ele><time>2026-04-26T14:08:39.003Z</time></trkpt><trkpt lat="43.416032705660555" lon="10.881388462288683"><ele>167.0</ele><time>2026-04-26T14:08:40.003Z</time></trkpt><trkpt lat="43.41582628281457" lon="10.881452218160026"><ele>168.0</ele><time>2026-04-26T14:08:41.003Z</time></trkpt><trkpt lat="43.41562416834011" lon="10.881517768702844"><ele>169.0</ele><time>2026-04-26T14:08:42.003Z</time></trkpt><trkpt lat="43.41541699901554" lon="10.881587901001163"><ele>169.33333333333334</ele><time>2026-04-26T14:08:43.003Z</time></trkpt><trkpt lat="43.41520697727274" lon="10.881660006754968"><ele>169.66666666666666</ele><time>2026-04-26T14:08:44.003Z</time></trkpt><trkpt lat="43.41500216932471" lon="10.881729188315708"><ele>170.0</ele><time>2026-04-26T14:08:45.003Z</time></trkpt><trkpt lat="43.41480110748435" lon="10.881794900894986"><ele>170.66666666666666</ele><time>2026-04-26T14:08:46.003Z</time></trkpt><trkpt lat="43.41460165053691" lon="10.88186068245382"><ele>171.33333333333334</ele><time>2026-04-26T14:08:47.003Z</time></trkpt><trkpt lat="43.41440740516683" lon="10.881922350627073"><ele>172.0</ele><time>2026-04-26T14:08:48.003Z</time></trkpt><trkpt lat="43.41421842443056" lon="10.881981543137755"><ele>172.0</ele><time>2026-04-26T14:08:49.003Z</time></trkpt><trkpt lat="43.41403217439285" lon="10.882037660892268"><ele>172.0</ele><time>2026-04-26T14:08:50.003Z</time></trkpt><trkpt lat="43.41385166773587" lon="10.88208746002314"><ele>172.0</ele><time>2026-04-26T14:08:51.003Z</time></trkpt><trkpt lat="43.41366909774765" lon="10.88212645986947"><ele>173.66666666666669</ele><time>2026-04-26T14:08:52.003Z</time></trkpt><trkpt lat="43.41349790523533" lon="10.882142150040078"><ele>175.33333333333334</ele><time>2026-04-26T14:08:53.003Z</time></trkpt><trkpt lat="43.41333605594454" lon="10.88213665153275"><ele>177.0</ele><time>2026-04-26T14:08:54.003Z</time></trkpt><trkpt lat="43.41318010157073" lon="10.882135039387288"><ele>177.0</ele><time>2026-04-26T14:08:55.001Z</time></trkpt><trkpt lat="43.41302074262182" lon="10.8821570852991"><ele>177.0</ele><time>2026-04-26T14:08:56.001Z</time></trkpt><trkpt lat="43.412860110680164" lon="10.88221078148945"><ele>177.0</ele><time>2026-04-26T14:08:57.001Z</time></trkpt><trkpt lat="43.41270543776574" lon="10.882289451182938"><ele>177.66666666666666</ele><time>2026-04-26T14:08:58.001Z</time></trkpt><trkpt lat="43.41256383366796" lon="10.882396473150191"><ele>178.33333333333331</ele><time>2026-04-26T14:08:59.001Z</time></trkpt><trkpt lat="43.412439846825514" lon="10.88252415813083"><ele>179.0</ele><time>2026-04-26T14:09:00.001Z</time></trkpt><trkpt lat="43.41233880713453" lon="10.882675434205087"><ele>178.66666666666666</ele><time>2026-04-26T14:09:01.001Z</time></trkpt><trkpt lat="43.412254166811756" lon="10.882854441789224"><ele>178.33333333333334</ele><time>2026-04-26T14:09:02.001Z</time></trkpt><trkpt lat="43.41218706971237" lon="10.883067119831468"><ele>178.0</ele><time>2026-04-26T14:09:03.001Z</time></trkpt><trkpt lat="43.41212853654536" lon="10.883316083178824"><ele>178.66666666666669</ele><time>2026-04-26T14:09:04.001Z</time></trkpt><trkpt lat="43.41206612526806" lon="10.883578092224278"><ele>179.33333333333334</ele><time>2026-04-26T14:09:05.001Z</time></trkpt><trkpt lat="43.4120137863841" lon="10.883812571476446"><ele>180.0</ele><time>2026-04-26T14:09:06.001Z</time></trkpt><trkpt lat="43.41194579124049" lon="10.884048632193009"><ele>179.0</ele><time>2026-04-26T14:09:07.001Z</time></trkpt><trkpt lat="43.41185183745922" lon="10.8842717251671"><ele>178.0</ele><time>2026-04-26T14:09:08.001Z</time></trkpt><trkpt lat="43.411731878647515" lon="10.884479425568125"><ele>177.0</ele><time>2026-04-26T14:09:09.001Z</time></trkpt><trkpt lat="43.411600043596614" lon="10.884693326193318"><ele>177.0</ele><time>2026-04-26T14:09:10.001Z</time></trkpt><trkpt lat="43.41148026105707" lon="10.884884828478919"><ele>177.0</ele><time>2026-04-26T14:09:11.001Z</time></trkpt><trkpt lat="43.41136146806232" lon="10.885060593475757"><ele>177.0</ele><time>2026-04-26T14:09:12.001Z</time></trkpt><trkpt lat="43.411240790020315" lon="10.885202884046247"><ele>178.33333333333334</ele><time>2026-04-26T14:09:13.001Z</time></trkpt><trkpt lat="43.411107670105736" lon="10.885303442854779"><ele>179.66666666666669</ele><time>2026-04-26T14:09:14.001Z</time></trkpt><trkpt lat="43.410950562274216" lon="10.885389684486173"><ele>181.0</ele><time>2026-04-26T14:09:15.001Z</time></trkpt><trkpt lat="43.41079998246706" lon="10.885458749654362"><ele>181.0</ele><time>2026-04-26T14:09:16.001Z</time></trkpt><trkpt lat="43.41066964155033" lon="10.885548045501471"><ele>181.0</ele><time>2026-04-26T14:09:17.001Z</time></trkpt><trkpt lat="43.41055977571276" lon="10.885667740288568"><ele>181.0</ele><time>2026-04-26T14:09:18.001Z</time></trkpt><trkpt lat="43.410459692152116" lon="10.885815011185533"><ele>181.0</ele><time>2026-04-26T14:09:19.001Z</time></trkpt><trkpt lat="43.41037559094196" lon="10.885975736517775"><ele>182.75</ele><time>2026-04-26T14:09:20.001Z</time></trkpt><trkpt lat="43.410292824624605" lon="10.886120774420421"><ele>184.5</ele><time>2026-04-26T14:09:21.001Z</time></trkpt><trkpt lat="43.41018481880597" lon="10.88623711870487"><ele>186.25</ele><time>2026-04-26T14:09:22.001Z</time></trkpt><trkpt lat="43.410055387482736" lon="10.886335254772307"><ele>188.0</ele><time>2026-04-26T14:09:23.001Z</time></trkpt><trkpt lat="43.40994295098291" lon="10.886443553121055"><ele>188.0</ele><time>2026-04-26T14:09:24.001Z</time></trkpt><trkpt lat="43.40985350135561" lon="10.886599266103685"><ele>188.0</ele><time>2026-04-26T14:09:25.001Z</time></trkpt><trkpt lat="43.409771956130484" lon="10.886800366070435"><ele>188.0</ele><time>2026-04-26T14:09:26.001Z</time></trkpt><trkpt lat="43.40968566683341" lon="10.887022077704065"><ele>191.33333333333331</ele><time>2026-04-26T14:09:27.001Z</time></trkpt><trkpt lat="43.409595298305284" lon="10.887250003733074"><ele>194.66666666666666</ele><time>2026-04-26T14:09:28.001Z</time></trkpt><trkpt lat="43.4094996030734" lon="10.887488759167944"><ele>198.0</ele><time>2026-04-26T14:09:29.001Z</time></trkpt><trkpt lat="43.40940950948308" lon="10.88772395409504"><ele>198.0</ele><time>2026-04-26T14:09:30.001Z</time></trkpt><trkpt lat="43.40932934875493" lon="10.88793060944577"><ele>198.0</ele><time>2026-04-26T14:09:31.001Z</time></trkpt><trkpt lat="43.409253139917794" lon="10.888098793895038"><ele>198.0</ele><time>2026-04-26T14:09:32.001Z</time></trkpt><trkpt lat="43.409253139917794" lon="10.888098793895038"><ele>198.0</ele><time>2026-04-26T14:09:32.001Z</time></trkpt><trkpt lat="43.406882653663025" lon="10.890594595729892"><ele>203.75</ele><time>2026-04-26T14:09:55.002Z</time></trkpt><trkpt lat="43.406846072677176" lon="10.890752563110537"><ele>209.5</ele><time>2026-04-26T14:09:56.002Z</time></trkpt><trkpt lat="43.40681003758773" lon="10.89090739105312"><ele>215.25</ele><time>2026-04-26T14:09:57.002Z</time></trkpt><trkpt lat="43.4067552857976" lon="10.891072215289046"><ele>221.0</ele><time>2026-04-26T14:09:58.002Z</time></trkpt><trkpt lat="43.40667952306148" lon="10.89124484484263"><ele>221.0</ele><time>2026-04-26T14:09:59.002Z</time></trkpt><trkpt lat="43.40658334416352" lon="10.891422080153177"><ele>221.0</ele><time>2026-04-26T14:10:00.002Z</time></trkpt><trkpt lat="43.40646866240813" lon="10.891593811019055"><ele>221.0</ele><time>2026-04-26T14:10:01.002Z</time></trkpt><trkpt lat="43.40636784772805" lon="10.891741219862643"><ele>222.75</ele><time>2026-04-26T14:10:02.002Z</time></trkpt><trkpt lat="43.40628085965047" lon="10.891867914727655"><ele>224.5</ele><time>2026-04-26T14:10:03.002Z</time></trkpt><trkpt lat="43.40618299334021" lon="10.891990226775128"><ele>226.25</ele><time>2026-04-26T14:10:04.002Z</time></trkpt><trkpt lat="43.406066967841305" lon="10.892096846259193"><ele>228.0</ele><time>2026-04-26T14:10:05.002Z</time></trkpt><trkpt lat="43.40591978769588" lon="10.892195179906745"><ele>228.0</ele><time>2026-04-26T14:10:06.002Z</time></trkpt><trkpt lat="43.40577085160678" lon="10.892289261800762"><ele>228.0</ele><time>2026-04-26T14:10:07.002Z</time></trkpt><trkpt lat="43.4056389933765" lon="10.892357335817342"><ele>228.0</ele><time>2026-04-26T14:10:08.002Z</time></trkpt><trkpt lat="43.40551452175451" lon="10.892413774132857"><ele>228.0</ele><time>2026-04-26T14:10:09.002Z</time></trkpt><trkpt lat="43.40538532548536" lon="10.892449163741853"><ele>233.0</ele><time>2026-04-26T14:10:10.002Z</time></trkpt><trkpt lat="43.40524215005775" lon="10.892467154104594"><ele>238.0</ele><time>2026-04-26T14:10:11.002Z</time></trkpt><trkpt lat="43.40507579538124" lon="10.89246164976114"><ele>243.0</ele><time>2026-04-26T14:10:12.002Z</time></trkpt><trkpt lat="43.40490580491845" lon="10.892449015896268"><ele>243.0</ele><time>2026-04-26T14:10:13.002Z</time></trkpt><trkpt lat="43.404731314443396" lon="10.892425846006999"><ele>243.0</ele><time>2026-04-26T14:10:14.002Z</time></trkpt><trkpt lat="43.40455997413503" lon="10.89239923028327"><ele>243.0</ele><time>2026-04-26T14:10:15.002Z</time></trkpt><trkpt lat="43.40438137247929" lon="10.892364954336587"><ele>243.33333333333331</ele><time>2026-04-26T14:10:16.002Z</time></trkpt><trkpt lat="43.40420250489699" lon="10.892297557245403"><ele>243.66666666666666</ele><time>2026-04-26T14:10:17.002Z</time></trkpt><trkpt lat="43.404021031218" lon="10.892197789031702"><ele>244.0</ele><time>2026-04-26T14:10:18.002Z</time></trkpt><trkpt lat="43.40383665539673" lon="10.892095461417705"><ele>246.66666666666666</ele><time>2026-04-26T14:10:19.002Z</time></trkpt><trkpt lat="43.40367286988521" lon="10.892010288448377"><ele>249.33333333333331</ele><time>2026-04-26T14:10:20.002Z</time></trkpt><trkpt lat="43.403526394980325" lon="10.891935525640019"><ele>252.0</ele><time>2026-04-26T14:10:21.002Z</time></trkpt><trkpt lat="43.40339362845746" lon="10.891863945572613"><ele>252.0</ele><time>2026-04-26T14:10:22.002Z</time></trkpt><trkpt lat="43.40326631741176" lon="10.891807896077747"><ele>252.0</ele><time>2026-04-26T14:10:23.002Z</time></trkpt><trkpt lat="43.40315048195155" lon="10.891788016944606"><ele>252.0</ele><time>2026-04-26T14:10:24.002Z</time></trkpt><trkpt lat="43.40304342353094" lon="10.891808866099307"><ele>252.0</ele><time>2026-04-26T14:10:25.002Z</time></trkpt><trkpt lat="43.40295614011677" lon="10.891924013990822"><ele>255.0</ele><time>2026-04-26T14:10:26.002Z</time></trkpt><trkpt lat="43.40287646539595" lon="10.89205557531283"><ele>258.0</ele><time>2026-04-26T14:10:27.002Z</time></trkpt><trkpt lat="43.40281248194774" lon="10.892223655603694"><ele>261.0</ele><time>2026-04-26T14:10:28.002Z</time></trkpt><trkpt lat="43.4027539410773" lon="10.892399552602438"><ele>264.0</ele><time>2026-04-26T14:10:29.002Z</time></trkpt><trkpt lat="43.40269410039779" lon="10.892551042004385"><ele>261.4</ele><time>2026-04-26T14:10:30.002Z</time></trkpt><trkpt lat="43.40262511759637" lon="10.892670104502493"><ele>258.79999999999995</ele><time>2026-04-26T14:10:31.002Z</time></trkpt><trkpt lat="43.402541108854706" lon="10.892736926880119"><ele>256.20000000000005</ele><time>2026-04-26T14:10:32.002Z</time></trkpt><trkpt lat="43.40244860446947" lon="10.892758281876754"><ele>253.60000000000002</ele><time>2026-04-26T14:10:33.002Z</time></trkpt><trkpt lat="43.40234634689956" lon="10.892721644691031"><ele>251.0</ele><time>2026-04-26T14:10:34.003Z</time></trkpt><trkpt lat="43.402239873625234" lon="10.892649823980124"><ele>255.0</ele><time>2026-04-26T14:10:35.003Z</time></trkpt><trkpt lat="43.4021221689209" lon="10.892536596016893"><ele>259.0</ele><time>2026-04-26T14:10:36.003Z</time></trkpt><trkpt lat="43.401982954360854" lon="10.8924286009405"><ele>263.0</ele><time>2026-04-26T14:10:37.003Z</time></trkpt><trkpt lat="43.4018165584587" lon="10.89232759379925"><ele>263.0</ele><time>2026-04-26T14:10:38.003Z</time></trkpt><trkpt lat="43.401636659076665" lon="10.89224062435412"><ele>263.0</ele><time>2026-04-26T14:10:39.003Z</time></trkpt><trkpt lat="43.401453095365476" lon="10.892132098272882"><ele>263.0</ele><time>2026-04-26T14:10:40.003Z</time></trkpt><trkpt lat="43.401297976411456" lon="10.892020915458149"><ele>263.33333333333337</ele><time>2026-04-26T14:10:41.003Z</time></trkpt><trkpt lat="43.4011616472382" lon="10.891926086413665"><ele>263.6666666666667</ele><time>2026-04-26T14:10:42.003Z</time></trkpt><trkpt lat="43.401021883201345" lon="10.891854114918624"><ele>264.0</ele><time>2026-04-26T14:10:43.003Z</time></trkpt><trkpt lat="43.40087723281104" lon="10.89181034176789"><ele>264.0</ele><time>2026-04-26T14:10:44.003Z</time></trkpt><trkpt lat="43.40073545339288" lon="10.891804964156274"><ele>264.0</ele><time>2026-04-26T14:10:45.003Z</time></trkpt><trkpt lat="43.40058581438606" lon="10.891837302066913"><ele>264.0</ele><time>2026-04-26T14:10:46.003Z</time></trkpt><trkpt lat="43.40043953036693" lon="10.891902814754122"><ele>264.0</ele><time>2026-04-26T14:10:47.003Z</time></trkpt><trkpt lat="43.40030138541126" lon="10.892001167967095"><ele>270.0</ele><time>2026-04-26T14:10:48.003Z</time></trkpt><trkpt lat="43.40017093896309" lon="10.892140068845304"><ele>276.0</ele><time>2026-04-26T14:10:49.003Z</time></trkpt><trkpt lat="43.40003147761208" lon="10.892298894215536"><ele>282.0</ele><time>2026-04-26T14:10:50.003Z</time></trkpt><trkpt lat="43.399908073256945" lon="10.892463768336778"><ele>281.5</ele><time>2026-04-26T14:10:51.003Z</time></trkpt><trkpt lat="43.399786169942665" lon="10.892603697817606"><ele>281.0</ele><time>2026-04-26T14:10:52.003Z</time></trkpt><trkpt lat="43.399670086296815" lon="10.89272314804494"><ele>280.5</ele><time>2026-04-26T14:10:53.003Z</time></trkpt><trkpt lat="43.399573764275175" lon="10.89284307212817"><ele>280.0</ele><time>2026-04-26T14:10:54.003Z</time></trkpt><trkpt lat="43.399481580111" lon="10.892940477128983"><ele>280.0</ele><time>2026-04-26T14:10:55.003Z</time></trkpt><trkpt lat="43.39938150323405" lon="10.892983641323822"><ele>280.0</ele><time>2026-04-26T14:10:56.003Z</time></trkpt><trkpt lat="43.39924895738689" lon="10.892993406922812"><ele>280.0</ele><time>2026-04-26T14:10:57.003Z</time></trkpt><trkpt lat="43.39909229499203" lon="10.89299297787115"><ele>280.0</ele><time>2026-04-26T14:10:58.003Z</time></trkpt><trkpt lat="43.39893498435591" lon="10.892999316494745"><ele>284.66666666666663</ele><time>2026-04-26T14:10:59.003Z</time></trkpt><trkpt lat="43.398758879819304" lon="10.893020816031116"><ele>289.3333333333333</ele><time>2026-04-26T14:11:00.003Z</time></trkpt><trkpt lat="43.39858988178741" lon="10.893059518908656"><ele>294.0</ele><time>2026-04-26T14:11:01.001Z</time></trkpt><trkpt lat="43.39842345227381" lon="10.893138068166206"><ele>294.0</ele><time>2026-04-26T14:11:02.001Z</time></trkpt><trkpt lat="43.398256035956614" lon="10.893217439237741"><ele>294.0</ele><time>2026-04-26T14:11:03.001Z</time></trkpt><trkpt lat="43.398102815573935" lon="10.893268895444045"><ele>294.0</ele><time>2026-04-26T14:11:04.001Z</time></trkpt><trkpt lat="43.39796319449084" lon="10.893299621159166"><ele>297.0</ele><time>2026-04-26T14:11:05.001Z</time></trkpt><trkpt lat="43.397794258671865" lon="10.89331532158294"><ele>300.0</ele><time>2026-04-26T14:11:06.001Z</time></trkpt><trkpt lat="43.39762282430962" lon="10.89331596363772"><ele>303.0</ele><time>2026-04-26T14:11:07.001Z</time></trkpt><trkpt lat="43.397452947682225" lon="10.89331073875848"><ele>303.0</ele><time>2026-04-26T14:11:08.001Z</time></trkpt><trkpt lat="43.39729158963192" lon="10.893305774142492"><ele>303.0</ele><time>2026-04-26T14:11:09.001Z</time></trkpt><trkpt lat="43.39714187290487" lon="10.893292242656502"><ele>303.0</ele><time>2026-04-26T14:11:10.001Z</time></trkpt><trkpt lat="43.39698105064763" lon="10.893328062270434"><ele>301.0</ele><time>2026-04-26T14:11:11.001Z</time></trkpt><trkpt lat="43.39680783510014" lon="10.89340473046608"><ele>299.0</ele><time>2026-04-26T14:11:12.001Z</time></trkpt><trkpt lat="43.39662214516868" lon="10.893507094045635"><ele>297.0</ele><time>2026-04-26T14:11:13Z</time></trkpt><trkpt lat="43.39643233837469" lon="10.893655608856374"><ele>301.6666666666667</ele><time>2026-04-26T14:11:14Z</time></trkpt><trkpt lat="43.396226978648386" lon="10.89377865196357"><ele>306.33333333333337</ele><time>2026-04-26T14:11:15Z</time></trkpt><trkpt lat="43.39602050054918" lon="10.8939014363762"><ele>311.0</ele><time>2026-04-26T14:11:16Z</time></trkpt><trkpt lat="43.395823989587306" lon="10.894019749178534"><ele>311.0</ele><time>2026-04-26T14:11:17Z</time></trkpt><trkpt lat="43.39565216513926" lon="10.894121704050608"><ele>311.0</ele><time>2026-04-26T14:11:18Z</time></trkpt><trkpt lat="43.39548440727484" lon="10.894219983549194"><ele>311.0</ele><time>2026-04-26T14:11:19Z</time></trkpt><trkpt lat="43.395307729219155" lon="10.8943320730284"><ele>312.6666666666667</ele><time>2026-04-26T14:11:20Z</time></trkpt><trkpt lat="43.395137349439416" lon="10.894460203820508"><ele>314.3333333333333</ele><time>2026-04-26T14:11:21Z</time></trkpt><trkpt lat="43.39496225144019" lon="10.894578290292095"><ele>316.0</ele><time>2026-04-26T14:11:22Z</time></trkpt><trkpt lat="43.39480776734584" lon="10.8947338553972"><ele>316.0</ele><time>2026-04-26T14:11:23Z</time></trkpt><trkpt lat="43.39467464570734" lon="10.894881293569643"><ele>316.0</ele><time>2026-04-26T14:11:24Z</time></trkpt><trkpt lat="43.39455632795188" lon="10.895022799590766"><ele>316.0</ele><time>2026-04-26T14:11:25Z</time></trkpt><trkpt lat="43.394429598809026" lon="10.89515357235432"><ele>318.0</ele><time>2026-04-26T14:11:26Z</time></trkpt><trkpt lat="43.394309773428844" lon="10.895285767060894"><ele>320.0</ele><time>2026-04-26T14:11:27Z</time></trkpt><trkpt lat="43.394183393095226" lon="10.89539018490304"><ele>322.0</ele><time>2026-04-26T14:11:28Z</time></trkpt><trkpt lat="43.394056401273374" lon="10.895488036849915"><ele>324.0</ele><time>2026-04-26T14:11:29Z</time></trkpt><trkpt lat="43.393924956348336" lon="10.89558060438569"><ele>327.0</ele><time>2026-04-26T14:11:30Z</time></trkpt><trkpt lat="43.39377698233893" lon="10.895670253397972"><ele>330.0</ele><time>2026-04-26T14:11:31Z</time></trkpt><trkpt lat="43.39360739402238" lon="10.895743356632407"><ele>333.0</ele><time>2026-04-26T14:11:32.001Z</time></trkpt><trkpt lat="43.39344325148787" lon="10.895802521288012"><ele>333.0</ele><time>2026-04-26T14:11:33.001Z</time></trkpt><trkpt lat="43.39328365643782" lon="10.895847128175546"><ele>333.0</ele><time>2026-04-26T14:11:34.001Z</time></trkpt><trkpt lat="43.39313911858305" lon="10.895868990523189"><ele>333.0</ele><time>2026-04-26T14:11:35.001Z</time></trkpt><trkpt lat="43.3930038249596" lon="10.895880175508891"><ele>333.0</ele><time>2026-04-26T14:11:36.001Z</time></trkpt><trkpt lat="43.392878145252475" lon="10.895880787912647"><ele>333.0</ele><time>2026-04-26T14:11:37.001Z</time></trkpt><trkpt lat="43.392757777457824" lon="10.895866665453562"><ele>333.0</ele><time>2026-04-26T14:11:38.001Z</time></trkpt><trkpt lat="43.39266203644526" lon="10.895845450332413"><ele>333.0</ele><time>2026-04-26T14:11:39.001Z</time></trkpt><trkpt lat="43.392594741113186" lon="10.895814231190098"><ele>333.0</ele><time>2026-04-26T14:11:40.001Z</time></trkpt><trkpt lat="43.39251874353712" lon="10.89573132619629"><ele>333.0</ele><time>2026-04-26T14:11:42.001Z</time></trkpt><trkpt lat="43.39251252514601" lon="10.895634939059308"><ele>333.0</ele><time>2026-04-26T14:11:43.001Z</time></trkpt><trkpt lat="43.39251588825084" lon="10.895540495509644"><ele>333.0</ele><time>2026-04-26T14:11:44.001Z</time></trkpt><trkpt lat="43.392523786935854" lon="10.895424661321066"><ele>333.0</ele><time>2026-04-26T14:11:45.001Z</time></trkpt><trkpt lat="43.39253044253485" lon="10.895301389645756"><ele>333.0</ele><time>2026-04-26T14:11:46.001Z</time></trkpt><trkpt lat="43.392480258729215" lon="10.895172948850785"><ele>333.0</ele><time>2026-04-26T14:11:47.001Z</time></trkpt><trkpt lat="43.39252815293072" lon="10.895021810452882"><ele>333.79999999999995</ele><time>2026-04-26T14:11:48.001Z</time></trkpt><trkpt lat="43.3925272214593" lon="10.894880548551596"><ele>334.6</ele><time>2026-04-26T14:11:49.001Z</time></trkpt><trkpt lat="43.39254295476832" lon="10.89474282115686"><ele>335.4</ele><time>2026-04-26T14:11:50.001Z</time></trkpt><trkpt lat="43.392578725979185" lon="10.894611008024013"><ele>336.20000000000005</ele><time>2026-04-26T14:11:51.001Z</time></trkpt><trkpt lat="43.39263326666668" lon="10.894489573422184"><ele>337.0</ele><time>2026-04-26T14:11:52.001Z</time></trkpt><trkpt lat="43.392710478918154" lon="10.894392082257388"><ele>337.0</ele><time>2026-04-26T14:11:53.001Z</time></trkpt><trkpt lat="43.39279420002006" lon="10.894293604683881"><ele>337.0</ele><time>2026-04-26T14:11:54.001Z</time></trkpt><trkpt lat="43.39288290587442" lon="10.894182633233397"><ele>337.0</ele><time>2026-04-26T14:11:55.001Z</time></trkpt><trkpt lat="43.39299203211474" lon="10.894060052718276"><ele>337.0</ele><time>2026-04-26T14:11:56.001Z</time></trkpt><trkpt lat="43.39312398079543" lon="10.893943492555"><ele>339.75</ele><time>2026-04-26T14:11:57.001Z</time></trkpt><trkpt lat="43.39325304474159" lon="10.893846017836506"><ele>342.5</ele><time>2026-04-26T14:11:58.001Z</time></trkpt><trkpt lat="43.393377090125426" lon="10.893757824288189"><ele>345.25</ele><time>2026-04-26T14:11:59.001Z</time></trkpt><trkpt lat="43.393493533112796" lon="10.893666820526281"><ele>348.0</ele><time>2026-04-26T14:12:00.001Z</time></trkpt><trkpt lat="43.39359937583066" lon="10.893548987643934"><ele>346.25</ele><time>2026-04-26T14:12:01.001Z</time></trkpt><trkpt lat="43.39368882104973" lon="10.89339866664106"><ele>344.5</ele><time>2026-04-26T14:12:02.001Z</time></trkpt><trkpt lat="43.39377396001545" lon="10.893230428593471"><ele>342.75</ele><time>2026-04-26T14:12:03.001Z</time></trkpt><trkpt lat="43.3938435251757" lon="10.893082377439631"><ele>341.0</ele><time>2026-04-26T14:12:04.001Z</time></trkpt><trkpt lat="43.393897949531016" lon="10.892941709104871"><ele>341.0</ele><time>2026-04-26T14:12:05.001Z</time></trkpt><trkpt lat="43.39393070036452" lon="10.892798205589012"><ele>341.0</ele><time>2026-04-26T14:12:06.001Z</time></trkpt><trkpt lat="43.393941991329726" lon="10.89265492460043"><ele>341.0</ele><time>2026-04-26T14:12:07.001Z</time></trkpt><trkpt lat="43.393926297466166" lon="10.892505160005586"><ele>341.0</ele><time>2026-04-26T14:12:08.001Z</time></trkpt><trkpt lat="43.393880203171825" lon="10.892350325260635"><ele>341.0</ele><time>2026-04-26T14:12:09.001Z</time></trkpt><trkpt lat="43.393803320677556" lon="10.892208470090868"><ele>340.5</ele><time>2026-04-26T14:12:10.001Z</time></trkpt><trkpt lat="43.393698293554856" lon="10.892072650045982"><ele>340.0</ele><time>2026-04-26T14:12:11.001Z</time></trkpt><trkpt lat="43.393579345519285" lon="10.89193291891578"><ele>339.5</ele><time>2026-04-26T14:12:12.001Z</time></trkpt><trkpt lat="43.393480717773095" lon="10.89179888433092"><ele>339.0</ele><time>2026-04-26T14:12:13.001Z</time></trkpt><trkpt lat="43.39339423610522" lon="10.891648647194216"><ele>342.5</ele><time>2026-04-26T14:12:14.001Z</time></trkpt><trkpt lat="43.39332218332334" lon="10.891495260675548"><ele>346.0</ele><time>2026-04-26T14:12:15.001Z</time></trkpt><trkpt lat="43.39325764360067" lon="10.891348708573961"><ele>349.5</ele><time>2026-04-26T14:12:16.001Z</time></trkpt><trkpt lat="43.393197882227504" lon="10.89120897385941"><ele>353.0</ele><time>2026-04-26T14:12:17.001Z</time></trkpt><trkpt lat="43.39314158695168" lon="10.89107708020131"><ele>353.0</ele><time>2026-04-26T14:12:18.001Z</time></trkpt><trkpt lat="43.39310005968809" lon="10.890959424001743"><ele>353.0</ele><time>2026-04-26T14:12:19.001Z</time></trkpt><trkpt lat="43.39307165737922" lon="10.890843239480594"><ele>353.0</ele><time>2026-04-26T14:12:20.001Z</time></trkpt><trkpt lat="43.39306902784968" lon="10.890719975558957"><ele>353.0</ele><time>2026-04-26T14:12:21.002Z</time></trkpt><trkpt lat="43.39308992108989" lon="10.89059179708759"><ele>353.0</ele><time>2026-04-26T14:12:22.002Z</time></trkpt><trkpt lat="43.393143585793204" lon="10.890437336058268"><ele>356.0</ele><time>2026-04-26T14:12:23.002Z</time></trkpt><trkpt lat="43.393212345605875" lon="10.89026824208045"><ele>359.0</ele><time>2026-04-26T14:12:24.002Z</time></trkpt><trkpt lat="43.3932778330398" lon="10.890105913594287"><ele>362.0</ele><time>2026-04-26T14:12:25.002Z</time></trkpt><trkpt lat="43.39335110795271" lon="10.889916223953787"><ele>365.0</ele><time>2026-04-26T14:12:26.002Z</time></trkpt><trkpt lat="43.39344188210917" lon="10.8897138843447"><ele>365.0</ele><time>2026-04-26T14:12:27.002Z</time></trkpt><trkpt lat="43.39351568242508" lon="10.889542250315392"><ele>365.0</ele><time>2026-04-26T14:12:28.002Z</time></trkpt><trkpt lat="43.39359938649201" lon="10.889396200214707"><ele>365.0</ele><time>2026-04-26T14:12:29.002Z</time></trkpt><trkpt lat="43.39371485102026" lon="10.889264950375617"><ele>365.0</ele><time>2026-04-26T14:12:30.002Z</time></trkpt><trkpt lat="43.39386556686522" lon="10.889139227288473"><ele>368.6666666666667</ele><time>2026-04-26T14:12:31.002Z</time></trkpt><trkpt lat="43.394023282389824" lon="10.889033609345418"><ele>372.3333333333333</ele><time>2026-04-26T14:12:32.002Z</time></trkpt><trkpt lat="43.394173435027575" lon="10.88893326103508"><ele>376.0</ele><time>2026-04-26T14:12:33.002Z</time></trkpt><trkpt lat="43.39430104868106" lon="10.888837241454983"><ele>376.0</ele><time>2026-04-26T14:12:34.002Z</time></trkpt><trkpt lat="43.39441673370612" lon="10.888719763630471"><ele>376.0</ele><time>2026-04-26T14:12:35.002Z</time></trkpt><trkpt lat="43.394484765136546" lon="10.88855964252224"><ele>376.0</ele><time>2026-04-26T14:12:36.002Z</time></trkpt><trkpt lat="43.39453145078597" lon="10.888399795789512"><ele>376.0</ele><time>2026-04-26T14:12:37.002Z</time></trkpt><trkpt lat="43.39456374560157" lon="10.88825899262404"><ele>376.8333333333333</ele><time>2026-04-26T14:12:38.002Z</time></trkpt><trkpt lat="43.39461763369353" lon="10.888164189483296"><ele>377.66666666666663</ele><time>2026-04-26T14:12:39.002Z</time></trkpt><trkpt lat="43.3946897464124" lon="10.888114276835038"><ele>378.5</ele><time>2026-04-26T14:12:40.002Z</time></trkpt><trkpt lat="43.39476488445576" lon="10.88811706678791"><ele>379.3333333333333</ele><time>2026-04-26T14:12:41.002Z</time></trkpt><trkpt lat="43.39483050687013" lon="10.888172214321386"><ele>380.1666666666667</ele><time>2026-04-26T14:12:42.002Z</time></trkpt><trkpt lat="43.39485688302598" lon="10.888291923074695"><ele>381.0</ele><time>2026-04-26T14:12:43.002Z</time></trkpt><trkpt lat="43.39486367195277" lon="10.888419871936689"><ele>381.75</ele><time>2026-04-26T14:12:44.002Z</time></trkpt><trkpt lat="43.3948608452811" lon="10.888567719849766"><ele>382.5</ele><time>2026-04-26T14:12:45.002Z</time></trkpt><trkpt lat="43.39483761498519" lon="10.888742799440376"><ele>383.25</ele><time>2026-04-26T14:12:46.002Z</time></trkpt><trkpt lat="43.39482649908634" lon="10.88892850635792"><ele>384.0</ele><time>2026-04-26T14:12:47.002Z</time></trkpt><trkpt lat="43.39483093137312" lon="10.889087445129572"><ele>384.0</ele><time>2026-04-26T14:12:48.002Z</time></trkpt><trkpt lat="43.39483846729178" lon="10.889233759894593"><ele>384.0</ele><time>2026-04-26T14:12:49.002Z</time></trkpt><trkpt lat="43.39489173591567" lon="10.889351893092691"><ele>384.0</ele><time>2026-04-26T14:12:50.002Z</time></trkpt><trkpt lat="43.39498621708686" lon="10.889408838570501"><ele>384.0</ele><time>2026-04-26T14:12:51.002Z</time></trkpt><trkpt lat="43.39508375787758" lon="10.889365433125034"><ele>384.0</ele><time>2026-04-26T14:12:52.002Z</time></trkpt><trkpt lat="43.39515947351777" lon="10.889298874080652"><ele>384.0</ele><time>2026-04-26T14:12:53.002Z</time></trkpt><trkpt lat="43.39522889832391" lon="10.889171440541714"><ele>384.0</ele><time>2026-04-26T14:12:54.002Z</time></trkpt><trkpt lat="43.395291053275535" lon="10.889015903459569"><ele>384.0</ele><time>2026-04-26T14:12:55.002Z</time></trkpt><trkpt lat="43.395358224331254" lon="10.888828380388786"><ele>384.0</ele><time>2026-04-26T14:12:56.002Z</time></trkpt><trkpt lat="43.39544077650431" lon="10.888625748483062"><ele>386.33333333333337</ele><time>2026-04-26T14:12:57.002Z</time></trkpt><trkpt lat="43.395529600347324" lon="10.88841313607098"><ele>388.6666666666667</ele><time>2026-04-26T14:12:58.002Z</time></trkpt><trkpt lat="43.39562106346912" lon="10.888220751705143"><ele>391.0</ele><time>2026-04-26T14:12:59.002Z</time></trkpt><trkpt lat="43.39572501456985" lon="10.888062082223776"><ele>391.0</ele><time>2026-04-26T14:13:00.002Z</time></trkpt><trkpt lat="43.395837924206454" lon="10.887951801312807"><ele>391.0</ele><time>2026-04-26T14:13:01.002Z</time></trkpt><trkpt lat="43.39594641006346" lon="10.887876364415112"><ele>391.0</ele><time>2026-04-26T14:13:02.002Z</time></trkpt><trkpt lat="43.39602412661662" lon="10.887773930282961"><ele>391.0</ele><time>2026-04-26T14:13:03.003Z</time></trkpt><trkpt lat="43.39606401950286" lon="10.88762862322714"><ele>392.5</ele><time>2026-04-26T14:13:04.003Z</time></trkpt><trkpt lat="43.39606080451897" lon="10.887461083774435"><ele>394.0</ele><time>2026-04-26T14:13:05.003Z</time></trkpt><trkpt lat="43.396027405955806" lon="10.887288492184885"><ele>395.5</ele><time>2026-04-26T14:13:06.003Z</time></trkpt><trkpt lat="43.39597406799471" lon="10.887086596940398"><ele>397.0</ele><time>2026-04-26T14:13:06.999Z</time></trkpt><trkpt lat="43.39593998460371" lon="10.886906669992248"><ele>397.75</ele><time>2026-04-26T14:13:07.999Z</time></trkpt><trkpt lat="43.39593187648669" lon="10.88672539109927"><ele>398.5</ele><time>2026-04-26T14:13:08.999Z</time></trkpt><trkpt lat="43.39594828308102" lon="10.886532480861579"><ele>399.25</ele><time>2026-04-26T14:13:09.999Z</time></trkpt><trkpt lat="43.39598736615895" lon="10.886353354908078"><ele>400.0</ele><time>2026-04-26T14:13:10.999Z</time></trkpt><trkpt lat="43.396064342562106" lon="10.886167914256482"><ele>400.0</ele><time>2026-04-26T14:13:11.999Z</time></trkpt><trkpt lat="43.39618137799644" lon="10.885955465198531"><ele>400.0</ele><time>2026-04-26T14:13:12.999Z</time></trkpt><trkpt lat="43.3963218209091" lon="10.885729733192056"><ele>400.0</ele><time>2026-04-26T14:13:13.999Z</time></trkpt><trkpt lat="43.396451819441175" lon="10.885513352726289"><ele>402.0</ele><time>2026-04-26T14:13:14.999Z</time></trkpt><trkpt lat="43.39657535467675" lon="10.885303961281583"><ele>404.0</ele><time>2026-04-26T14:13:15.999Z</time></trkpt><trkpt lat="43.39668968548554" lon="10.88511064261629"><ele>406.0</ele><time>2026-04-26T14:13:16.999Z</time></trkpt><trkpt lat="43.39679637701386" lon="10.884929376119588"><ele>406.0</ele><time>2026-04-26T14:13:17.999Z</time></trkpt><trkpt lat="43.39688203191631" lon="10.884779736276393"><ele>406.0</ele><time>2026-04-26T14:13:18.999Z</time></trkpt><trkpt lat="43.39694374238396" lon="10.884676882677509"><ele>406.0</ele><time>2026-04-26T14:13:19.999Z</time></trkpt><trkpt lat="43.396983040075185" lon="10.884600367961001"><ele>406.0</ele><time>2026-04-26T14:13:21Z</time></trkpt><trkpt lat="43.397033643635545" lon="10.884530436953366"><ele>406.0</ele><time>2026-04-26T14:13:23Z</time></trkpt><trkpt lat="43.39691605870142" lon="10.884346075045084"><ele>404.25</ele><time>2026-04-26T14:13:24Z</time></trkpt><trkpt lat="43.39686346188781" lon="10.884216369181411"><ele>402.5</ele><time>2026-04-26T14:13:25Z</time></trkpt><trkpt lat="43.39684610535912" lon="10.884078049759449"><ele>400.75</ele><time>2026-04-26T14:13:26Z</time></trkpt><trkpt lat="43.39684134335073" lon="10.883899754099573"><ele>399.0</ele><time>2026-04-26T14:13:27Z</time></trkpt><trkpt lat="43.39685309969243" lon="10.88371827032413"><ele>399.0</ele><time>2026-04-26T14:13:28Z</time></trkpt><trkpt lat="43.39686358836628" lon="10.883557776834444"><ele>399.0</ele><time>2026-04-26T14:13:29Z</time></trkpt><trkpt lat="43.396874855843464" lon="10.883427820674338"><ele>399.0</ele><time>2026-04-26T14:13:30Z</time></trkpt><trkpt lat="43.39687911481132" lon="10.883317888511128"><ele>399.0</ele><time>2026-04-26T14:13:31Z</time></trkpt><trkpt lat="43.39686727901798" lon="10.88321529620472"><ele>399.0</ele><time>2026-04-26T14:13:32Z</time></trkpt><trkpt lat="43.39683924369529" lon="10.883100650714574"><ele>398.4</ele><time>2026-04-26T14:13:33Z</time></trkpt><trkpt lat="43.39679898086975" lon="10.882999389614442"><ele>397.79999999999995</ele><time>2026-04-26T14:13:34Z</time></trkpt><trkpt lat="43.39673715337381" lon="10.882899550285893"><ele>397.20000000000005</ele><time>2026-04-26T14:13:35Z</time></trkpt><trkpt lat="43.39666095206187" lon="10.882812706193521"><ele>396.6</ele><time>2026-04-26T14:13:36Z</time></trkpt><trkpt lat="43.39656142672282" lon="10.882726194926763"><ele>396.0</ele><time>2026-04-26T14:13:37Z</time></trkpt><trkpt lat="43.39647207632243" lon="10.882647035466414"><ele>397.20000000000005</ele><time>2026-04-26T14:13:38Z</time></trkpt><trkpt lat="43.39639278192821" lon="10.882565679176905"><ele>398.40000000000003</ele><time>2026-04-26T14:13:39Z</time></trkpt><trkpt lat="43.3963131323755" lon="10.882461483234831"><ele>399.6</ele><time>2026-04-26T14:13:40Z</time></trkpt><trkpt lat="43.396236687056636" lon="10.882349970502048"><ele>400.8</ele><time>2026-04-26T14:13:41Z</time></trkpt><trkpt lat="43.39617520190946" lon="10.882253018349482"><ele>402.0</ele><time>2026-04-26T14:13:42Z</time></trkpt><trkpt lat="43.396111231046206" lon="10.882145815105154"><ele>398.6666666666667</ele><time>2026-04-26T14:13:43Z</time></trkpt><trkpt lat="43.39605456528609" lon="10.882051052889654"><ele>395.3333333333333</ele><time>2026-04-26T14:13:44Z</time></trkpt><trkpt lat="43.39598948781468" lon="10.881964493770171"><ele>392.0</ele><time>2026-04-26T14:13:45Z</time></trkpt><trkpt lat="43.395936831319254" lon="10.881883735197714"><ele>388.66666666666663</ele><time>2026-04-26T14:13:46Z</time></trkpt><trkpt lat="43.39585208448551" lon="10.881862006619091"><ele>385.3333333333333</ele><time>2026-04-26T14:13:47Z</time></trkpt><trkpt lat="43.39575925547298" lon="10.881843254725412"><ele>382.0</ele><time>2026-04-26T14:13:48Z</time></trkpt><trkpt lat="43.39564854634778" lon="10.881829040023538"><ele>382.0</ele><time>2026-04-26T14:13:49Z</time></trkpt><trkpt lat="43.39554572008328" lon="10.881815180831113"><ele>382.0</ele><time>2026-04-26T14:13:50.001Z</time></trkpt><trkpt lat="43.395459496082225" lon="10.881801903018214"><ele>382.0</ele><time>2026-04-26T14:13:51.001Z</time></trkpt><trkpt lat="43.39537649440457" lon="10.881780046940055"><ele>382.0</ele><time>2026-04-26T14:13:52.001Z</time></trkpt><trkpt lat="43.39530215633822" lon="10.8817506344861"><ele>382.0</ele><time>2026-04-26T14:13:53.001Z</time></trkpt><trkpt lat="43.39522737708931" lon="10.881705133739278"><ele>382.0</ele><time>2026-04-26T14:13:54.001Z</time></trkpt><trkpt lat="43.395151412823616" lon="10.881640211166776"><ele>380.6</ele><time>2026-04-26T14:13:55.001Z</time></trkpt><trkpt lat="43.395068885940255" lon="10.881557115279586"><ele>379.20000000000005</ele><time>2026-04-26T14:13:56.001Z</time></trkpt><trkpt lat="43.39500076395281" lon="10.881479262091505"><ele>377.8</ele><time>2026-04-26T14:13:57.001Z</time></trkpt><trkpt lat="43.39491801765589" lon="10.881418712233693"><ele>376.4</ele><time>2026-04-26T14:13:58.001Z</time></trkpt><trkpt lat="43.39483019481491" lon="10.881388650904485"><ele>375.0</ele><time>2026-04-26T14:13:59.001Z</time></trkpt><trkpt lat="43.39473964685903" lon="10.881375487159412"><ele>372.4</ele><time>2026-04-26T14:14:00.001Z</time></trkpt><trkpt lat="43.39464591068143" lon="10.881356706570132"><ele>369.8</ele><time>2026-04-26T14:14:01.001Z</time></trkpt><trkpt lat="43.394551811356074" lon="10.881336562240744"><ele>367.20000000000005</ele><time>2026-04-26T14:14:02.001Z</time></trkpt><trkpt lat="43.394463336201" lon="10.881333379798875"><ele>364.6</ele><time>2026-04-26T14:14:03.001Z</time></trkpt><trkpt lat="43.39437695049296" lon="10.881351499286557"><ele>362.0</ele><time>2026-04-26T14:14:04.001Z</time></trkpt><trkpt lat="43.39428454104418" lon="10.881393425825676"><ele>362.0</ele><time>2026-04-26T14:14:05.001Z</time></trkpt><trkpt lat="43.39419437506201" lon="10.881456234702311"><ele>362.0</ele><time>2026-04-26T14:14:06.001Z</time></trkpt><trkpt lat="43.39409424154723" lon="10.881521741211731"><ele>362.0</ele><time>2026-04-26T14:14:07.001Z</time></trkpt><trkpt lat="43.39400186338281" lon="10.881567462962977"><ele>362.0</ele><time>2026-04-26T14:14:08.001Z</time></trkpt><trkpt lat="43.39390969952078" lon="10.881609655727818"><ele>362.0</ele><time>2026-04-26T14:14:09.001Z</time></trkpt><trkpt lat="43.393822627798166" lon="10.881644951133847"><ele>360.8</ele><time>2026-04-26T14:14:10.001Z</time></trkpt><trkpt lat="43.39372401050764" lon="10.88167947158799"><ele>359.6</ele><time>2026-04-26T14:14:11.001Z</time></trkpt><trkpt lat="43.393624842993646" lon="10.881710410433291"><ele>358.40000000000003</ele><time>2026-04-26T14:14:12.001Z</time></trkpt><trkpt lat="43.3935176864701" lon="10.881734020552955"><ele>357.20000000000005</ele><time>2026-04-26T14:14:13.001Z</time></trkpt><trkpt lat="43.39340765213833" lon="10.881743130548003"><ele>356.0</ele><time>2026-04-26T14:14:14.001Z</time></trkpt><trkpt lat="43.393292298412625" lon="10.881752600682823"><ele>356.0</ele><time>2026-04-26T14:14:15.001Z</time></trkpt><trkpt lat="43.393164473682475" lon="10.8817553791902"><ele>356.0</ele><time>2026-04-26T14:14:16.001Z</time></trkpt><trkpt lat="43.393047386393214" lon="10.881739169818928"><ele>356.0</ele><time>2026-04-26T14:14:17.001Z</time></trkpt><trkpt lat="43.39293384179836" lon="10.881723034295781"><ele>356.0</ele><time>2026-04-26T14:14:18.001Z</time></trkpt><trkpt lat="43.392822309114095" lon="10.88171903716997"><ele>354.0</ele><time>2026-04-26T14:14:19.001Z</time></trkpt><trkpt lat="43.39271014028109" lon="10.88171312100907"><ele>352.0</ele><time>2026-04-26T14:14:20.001Z</time></trkpt><trkpt lat="43.39260285773347" lon="10.881719062099297"><ele>350.0</ele><time>2026-04-26T14:14:21.001Z</time></trkpt><trkpt lat="43.39250529650141" lon="10.881748646826681"><ele>348.0</ele><time>2026-04-26T14:14:22.001Z</time></trkpt><trkpt lat="43.392410540384496" lon="10.881794922491364"><ele>346.0</ele><time>2026-04-26T14:14:23.001Z</time></trkpt><trkpt lat="43.392322357035304" lon="10.88186419299735"><ele>343.75</ele><time>2026-04-26T14:14:24.001Z</time></trkpt><trkpt lat="43.392214979940384" lon="10.88195286052497"><ele>341.5</ele><time>2026-04-26T14:14:25.001Z</time></trkpt><trkpt lat="43.39211170262223" lon="10.882045507280038"><ele>339.25</ele><time>2026-04-26T14:14:26.001Z</time></trkpt><trkpt lat="43.39201003631272" lon="10.882103787888724"><ele>337.0</ele><time>2026-04-26T14:14:27.001Z</time></trkpt><trkpt lat="43.39191716774128" lon="10.882170643130713"><ele>337.0</ele><time>2026-04-26T14:14:28.001Z</time></trkpt><trkpt lat="43.391834279072214" lon="10.882224002561937"><ele>337.0</ele><time>2026-04-26T14:14:29.002Z</time></trkpt><trkpt lat="43.391761660504535" lon="10.882284029256253"><ele>337.0</ele><time>2026-04-26T14:14:30.002Z</time></trkpt><trkpt lat="43.39169406591027" lon="10.88230121468988"><ele>337.0</ele><time>2026-04-26T14:14:31.002Z</time></trkpt><trkpt lat="43.39161296553102" lon="10.882306309641466"><ele>337.0</ele><time>2026-04-26T14:14:32.002Z</time></trkpt><trkpt lat="43.39152663353472" lon="10.882300051994894"><ele>337.0</ele><time>2026-04-26T14:14:33.002Z</time></trkpt><trkpt lat="43.39143016316346" lon="10.88229256787276"><ele>334.6</ele><time>2026-04-26T14:14:34.002Z</time></trkpt><trkpt lat="43.39133852684729" lon="10.88227244254946"><ele>332.20000000000005</ele><time>2026-04-26T14:14:35.002Z</time></trkpt><trkpt lat="43.391244093033855" lon="10.882235046641231"><ele>329.8</ele><time>2026-04-26T14:14:36.002Z</time></trkpt><trkpt lat="43.39113583797308" lon="10.88218752644807"><ele>327.4</ele><time>2026-04-26T14:14:37.002Z</time></trkpt><trkpt lat="43.3910166589809" lon="10.88213053473718"><ele>325.0</ele><time>2026-04-26T14:14:38.002Z</time></trkpt><trkpt lat="43.390902259774265" lon="10.882070955409588"><ele>325.0</ele><time>2026-04-26T14:14:39.002Z</time></trkpt><trkpt lat="43.3907944145097" lon="10.882017661816784"><ele>325.0</ele><time>2026-04-26T14:14:40.002Z</time></trkpt><trkpt lat="43.390683291846884" lon="10.881974920304337"><ele>325.0</ele><time>2026-04-26T14:14:41.002Z</time></trkpt><trkpt lat="43.39056408452712" lon="10.881935110370945"><ele>325.0</ele><time>2026-04-26T14:14:42.002Z</time></trkpt><trkpt lat="43.390452504464896" lon="10.881906013851243"><ele>322.6</ele><time>2026-04-26T14:14:43.002Z</time></trkpt><trkpt lat="43.390348335667134" lon="10.881872088118614"><ele>320.2</ele><time>2026-04-26T14:14:44.002Z</time></trkpt><trkpt lat="43.39024517550621" lon="10.881861327823346"><ele>317.8</ele><time>2026-04-26T14:14:45.002Z</time></trkpt><trkpt lat="43.39014945641828" lon="10.881851175452882"><ele>315.4</ele><time>2026-04-26T14:14:46.002Z</time></trkpt><trkpt lat="43.390065069367736" lon="10.881841218582716"><ele>313.0</ele><time>2026-04-26T14:14:47.002Z</time></trkpt><trkpt lat="43.389988981520546" lon="10.881827873343225"><ele>313.0</ele><time>2026-04-26T14:14:48.002Z</time></trkpt><trkpt lat="43.38991709889211" lon="10.881800404922677"><ele>313.0</ele><time>2026-04-26T14:14:49.002Z</time></trkpt><trkpt lat="43.38984143213585" lon="10.88176168829171"><ele>313.0</ele><time>2026-04-26T14:14:50.002Z</time></trkpt><trkpt lat="43.38977757561883" lon="10.881712329846575"><ele>313.0</ele><time>2026-04-26T14:14:51.002Z</time></trkpt><trkpt lat="43.38972066164123" lon="10.881641046085473"><ele>313.0</ele><time>2026-04-26T14:14:52.002Z</time></trkpt><trkpt lat="43.38967837502711" lon="10.881553419300644"><ele>313.0</ele><time>2026-04-26T14:14:53.002Z</time></trkpt><trkpt lat="43.389669226422235" lon="10.881451395231997"><ele>313.16666666666663</ele><time>2026-04-26T14:14:54.002Z</time></trkpt><trkpt lat="43.38964143374642" lon="10.881359388415655"><ele>313.3333333333333</ele><time>2026-04-26T14:14:55.002Z</time></trkpt><trkpt lat="43.389596335324875" lon="10.881298913813394"><ele>313.5</ele><time>2026-04-26T14:14:56.002Z</time></trkpt><trkpt lat="43.389486914722646" lon="10.881215283729476"><ele>313.6666666666667</ele><time>2026-04-26T14:14:58.002Z</time></trkpt><trkpt lat="43.389413258123035" lon="10.881216444808356"><ele>313.83333333333337</ele><time>2026-04-26T14:14:59.002Z</time></trkpt><trkpt lat="43.38932872017531" lon="10.88124611362927"><ele>314.0</ele><time>2026-04-26T14:15:00.002Z</time></trkpt><trkpt lat="43.38923778835722" lon="10.88130465184583"><ele>314.0</ele><time>2026-04-26T14:15:01.002Z</time></trkpt><trkpt lat="43.389142856819284" lon="10.881322574132996"><ele>314.0</ele><time>2026-04-26T14:15:02.002Z</time></trkpt><trkpt lat="43.38905318170812" lon="10.88134052483197"><ele>314.0</ele><time>2026-04-26T14:15:03.002Z</time></trkpt><trkpt lat="43.3889640078844" lon="10.88135918373326"><ele>314.0</ele><time>2026-04-26T14:15:04.002Z</time></trkpt><trkpt lat="43.38886111925104" lon="10.88133469113853"><ele>314.0</ele><time>2026-04-26T14:15:05.002Z</time></trkpt><trkpt lat="43.38874836588603" lon="10.881305920464031"><ele>312.59999999999997</ele><time>2026-04-26T14:15:06.002Z</time></trkpt><trkpt lat="43.38863939172226" lon="10.8812759952612"><ele>311.2</ele><time>2026-04-26T14:15:07.002Z</time></trkpt><trkpt lat="43.3885436712451" lon="10.8812643150066"><ele>309.79999999999995</ele><time>2026-04-26T14:15:08.002Z</time></trkpt><trkpt lat="43.388443688576814" lon="10.881259315842673"><ele>308.4</ele><time>2026-04-26T14:15:09.003Z</time></trkpt><trkpt lat="43.38835109958639" lon="10.881284187118709"><ele>307.0</ele><time>2026-04-26T14:15:10.003Z</time></trkpt><trkpt lat="43.38826646282322" lon="10.881324318500925"><ele>307.0</ele><time>2026-04-26T14:15:11.003Z</time></trkpt><trkpt lat="43.38818330731605" lon="10.88138378587774"><ele>307.0</ele><time>2026-04-26T14:15:12.003Z</time></trkpt><trkpt lat="43.38808606759521" lon="10.881442675941917"><ele>307.0</ele><time>2026-04-26T14:15:12.999Z</time></trkpt><trkpt lat="43.38800543367405" lon="10.881537490589075"><ele>307.0</ele><time>2026-04-26T14:15:13.999Z</time></trkpt><trkpt lat="43.38794165721395" lon="10.881635183628973"><ele>307.0</ele><time>2026-04-26T14:15:14.999Z</time></trkpt><trkpt lat="43.38788881081841" lon="10.881732502040858"><ele>304.8</ele><time>2026-04-26T14:15:15.999Z</time></trkpt><trkpt lat="43.387840599986085" lon="10.881834616698992"><ele>302.6</ele><time>2026-04-26T14:15:16.999Z</time></trkpt><trkpt lat="43.38778568642085" lon="10.881971472488384"><ele>300.40000000000003</ele><time>2026-04-26T14:15:17.999Z</time></trkpt><trkpt lat="43.38773185407151" lon="10.882125371716356"><ele>298.2</ele><time>2026-04-26T14:15:18.999Z</time></trkpt><trkpt lat="43.387678725497324" lon="10.882276249447006"><ele>296.0</ele><time>2026-04-26T14:15:19.999Z</time></trkpt><trkpt lat="43.38763119243951" lon="10.882404321770682"><ele>296.0</ele><time>2026-04-26T14:15:20.999Z</time></trkpt><trkpt lat="43.387590399937345" lon="10.88251447246429"><ele>296.0</ele><time>2026-04-26T14:15:21.999Z</time></trkpt><trkpt lat="43.3875602688091" lon="10.882604639283082"><ele>296.0</ele><time>2026-04-26T14:15:22.999Z</time></trkpt><trkpt lat="43.3875490321256" lon="10.882696963001901"><ele>296.0</ele><time>2026-04-26T14:15:23.999Z</time></trkpt><trkpt lat="43.3874834753826" lon="10.882828630734403"><ele>296.0</ele><time>2026-04-26T14:15:25.999Z</time></trkpt><trkpt lat="43.38739177558075" lon="10.882874849981475"><ele>296.0</ele><time>2026-04-26T14:15:26.999Z</time></trkpt><trkpt lat="43.38732377258716" lon="10.882932168781775"><ele>295.5</ele><time>2026-04-26T14:15:27.999Z</time></trkpt><trkpt lat="43.38725329585652" lon="10.88296485909586"><ele>295.0</ele><time>2026-04-26T14:15:28.999Z</time></trkpt><trkpt lat="43.3871800463857" lon="10.88298364988172"><ele>294.5</ele><time>2026-04-26T14:15:29.999Z</time></trkpt><trkpt lat="43.38709669648283" lon="10.882992614219031"><ele>294.0</ele><time>2026-04-26T14:15:30.999Z</time></trkpt><trkpt lat="43.3870086591516" lon="10.883001937353804"><ele>293.5</ele><time>2026-04-26T14:15:31.999Z</time></trkpt><trkpt lat="43.38693216349026" lon="10.883028308375941"><ele>293.0</ele><time>2026-04-26T14:15:33Z</time></trkpt><trkpt lat="43.38685476499698" lon="10.88303406334925"><ele>291.4</ele><time>2026-04-26T14:15:34Z</time></trkpt><trkpt lat="43.386774805253786" lon="10.883043503752555"><ele>289.8</ele><time>2026-04-26T14:15:35Z</time></trkpt><trkpt lat="43.38668013236572" lon="10.88305069251976"><ele>288.2</ele><time>2026-04-26T14:15:36Z</time></trkpt><trkpt lat="43.38657260709138" lon="10.883036966568882"><ele>286.6</ele><time>2026-04-26T14:15:37Z</time></trkpt><trkpt lat="43.38645489972124" lon="10.883039792512607"><ele>285.0</ele><time>2026-04-26T14:15:38Z</time></trkpt><trkpt lat="43.386339603092416" lon="10.883042098442816"><ele>283.6666666666667</ele><time>2026-04-26T14:15:39Z</time></trkpt><trkpt lat="43.38623059241576" lon="10.88306536987117"><ele>282.3333333333333</ele><time>2026-04-26T14:15:40Z</time></trkpt><trkpt lat="43.38613764193038" lon="10.883050296276489"><ele>281.0</ele><time>2026-04-26T14:15:41Z</time></trkpt><trkpt lat="43.38607335856012" lon="10.88307654898356"><ele>279.66666666666663</ele><time>2026-04-26T14:15:42Z</time></trkpt><trkpt lat="43.38601021716204" lon="10.883060486827205"><ele>278.3333333333333</ele><time>2026-04-26T14:15:43Z</time></trkpt><trkpt lat="43.38594122767067" lon="10.883061140755602"><ele>277.0</ele><time>2026-04-26T14:15:44Z</time></trkpt><trkpt lat="43.3858661349471" lon="10.882912629481226"><ele>277.0</ele><time>2026-04-26T14:15:45Z</time></trkpt><trkpt lat="43.38574174135791" lon="10.88284561923644"><ele>277.0</ele><time>2026-04-26T14:15:46Z</time></trkpt><trkpt lat="43.38561899521904" lon="10.882760314036103"><ele>277.0</ele><time>2026-04-26T14:15:47Z</time></trkpt><trkpt lat="43.38550056245834" lon="10.882702478143406"><ele>277.0</ele><time>2026-04-26T14:15:48Z</time></trkpt><trkpt lat="43.38538104608238" lon="10.882672521008606"><ele>276.5</ele><time>2026-04-26T14:15:49Z</time></trkpt><trkpt lat="43.385260659729276" lon="10.88264806891624"><ele>276.0</ele><time>2026-04-26T14:15:50Z</time></trkpt><trkpt lat="43.385136963817985" lon="10.882658106047456"><ele>275.5</ele><time>2026-04-26T14:15:51Z</time></trkpt><trkpt lat="43.38501648049399" lon="10.88270444462461"><ele>275.0</ele><time>2026-04-26T14:15:52Z</time></trkpt><trkpt lat="43.38489247113765" lon="10.882738024674484"><ele>275.0</ele><time>2026-04-26T14:15:53Z</time></trkpt><trkpt lat="43.38475547490364" lon="10.882791478838172"><ele>275.0</ele><time>2026-04-26T14:15:54Z</time></trkpt><trkpt lat="43.3846272332662" lon="10.882856474835817"><ele>275.0</ele><time>2026-04-26T14:15:55Z</time></trkpt><trkpt lat="43.38449059118878" lon="10.882927890457887"><ele>275.0</ele><time>2026-04-26T14:15:56Z</time></trkpt><trkpt lat="43.384364951138515" lon="10.88300755378673"><ele>274.8</ele><time>2026-04-26T14:15:57Z</time></trkpt><trkpt lat="43.38425041240926" lon="10.88308300100947"><ele>274.6</ele><time>2026-04-26T14:15:58Z</time></trkpt><trkpt lat="43.384148978596464" lon="10.88313975820217"><ele>274.4</ele><time>2026-04-26T14:15:59Z</time></trkpt><trkpt lat="43.38406099283574" lon="10.883183657474447"><ele>274.2</ele><time>2026-04-26T14:16:00Z</time></trkpt><trkpt lat="43.38396334197939" lon="10.883201371612188"><ele>274.0</ele><time>2026-04-26T14:16:01Z</time></trkpt><trkpt lat="43.383861467683595" lon="10.883197103379674"><ele>274.2</ele><time>2026-04-26T14:16:02.001Z</time></trkpt><trkpt lat="43.383783512430696" lon="10.883186551023085"><ele>274.4</ele><time>2026-04-26T14:16:03.001Z</time></trkpt><trkpt lat="43.383683514271766" lon="10.883145720350488"><ele>274.6</ele><time>2026-04-26T14:16:05.001Z</time></trkpt><trkpt lat="43.38365347256733" lon="10.882986045638104"><ele>274.8</ele><time>2026-04-26T14:16:07.001Z</time></trkpt><trkpt lat="43.38364696853212" lon="10.8828522593458"><ele>275.0</ele><time>2026-04-26T14:16:08.001Z</time></trkpt><trkpt lat="43.38364275384142" lon="10.882687083553279"><ele>274.0</ele><time>2026-04-26T14:16:09.001Z</time></trkpt><trkpt lat="43.38363529369916" lon="10.882550436608557"><ele>273.0</ele><time>2026-04-26T14:16:10.001Z</time></trkpt><trkpt lat="43.38364327979131" lon="10.88242782984538"><ele>272.0</ele><time>2026-04-26T14:16:11.001Z</time></trkpt><trkpt lat="43.383641606506046" lon="10.882313822695181"><ele>271.0</ele><time>2026-04-26T14:16:12.001Z</time></trkpt><trkpt lat="43.38363519432638" lon="10.8822123111666"><ele>270.0</ele><time>2026-04-26T14:16:13.001Z</time></trkpt><trkpt lat="43.38361900017989" lon="10.882097487280506"><ele>269.0</ele><time>2026-04-26T14:16:14.001Z</time></trkpt><trkpt lat="43.383588698889625" lon="10.88198432518791"><ele>269.0</ele><time>2026-04-26T14:16:15.001Z</time></trkpt><trkpt lat="43.38354738242384" lon="10.88187582829666"><ele>269.0</ele><time>2026-04-26T14:16:16.001Z</time></trkpt><trkpt lat="43.3834977438291" lon="10.88176569537753"><ele>269.0</ele><time>2026-04-26T14:16:17.001Z</time></trkpt><trkpt lat="43.38343439230502" lon="10.8816454665318"><ele>269.0</ele><time>2026-04-26T14:16:18.001Z</time></trkpt><trkpt lat="43.38336582857761" lon="10.881527726506315"><ele>269.0</ele><time>2026-04-26T14:16:19.001Z</time></trkpt><trkpt lat="43.38329288046872" lon="10.88142163750224"><ele>268.75</ele><time>2026-04-26T14:16:20.001Z</time></trkpt><trkpt lat="43.38322023201677" lon="10.881313830167612"><ele>268.5</ele><time>2026-04-26T14:16:21.001Z</time></trkpt><trkpt lat="43.38314447690973" lon="10.881199679072608"><ele>268.25</ele><time>2026-04-26T14:16:22.001Z</time></trkpt><trkpt lat="43.383053686024354" lon="10.881070733251102"><ele>268.0</ele><time>2026-04-26T14:16:23.001Z</time></trkpt><trkpt lat="43.38295725840643" lon="10.880934183178278"><ele>265.6</ele><time>2026-04-26T14:16:24.001Z</time></trkpt><trkpt lat="43.382876695041155" lon="10.880826230843976"><ele>263.20000000000005</ele><time>2026-04-26T14:16:25.001Z</time></trkpt><trkpt lat="43.3828168094178" lon="10.880735916957901"><ele>260.8</ele><time>2026-04-26T14:16:26.001Z</time></trkpt><trkpt lat="43.382758123883875" lon="10.88064935462526"><ele>258.40000000000003</ele><time>2026-04-26T14:16:27.001Z</time></trkpt><trkpt lat="43.38268377678362" lon="10.880582239762424"><ele>256.0</ele><time>2026-04-26T14:16:28.001Z</time></trkpt><trkpt lat="43.38259552020633" lon="10.880532541497294"><ele>256.0</ele><time>2026-04-26T14:16:29.001Z</time></trkpt><trkpt lat="43.38251103903623" lon="10.880500231343156"><ele>256.0</ele><time>2026-04-26T14:16:30.001Z</time></trkpt><trkpt lat="43.382441373570806" lon="10.880458823364663"><ele>256.0</ele><time>2026-04-26T14:16:31.001Z</time></trkpt><trkpt lat="43.38239844833384" lon="10.880359289592086"><ele>256.0</ele><time>2026-04-26T14:16:32.001Z</time></trkpt><trkpt lat="43.382323064110444" lon="10.880244638744951"><ele>256.0</ele><time>2026-04-26T14:16:33.001Z</time></trkpt><trkpt lat="43.38226963065632" lon="10.880053233244826"><ele>254.0</ele><time>2026-04-26T14:16:34.001Z</time></trkpt><trkpt lat="43.382181847054206" lon="10.87990374545098"><ele>252.0</ele><time>2026-04-26T14:16:35.001Z</time></trkpt><trkpt lat="43.3820936054175" lon="10.879758049582215"><ele>250.0</ele><time>2026-04-26T14:16:36.001Z</time></trkpt><trkpt lat="43.38199770394046" lon="10.879625344716983"><ele>248.0</ele><time>2026-04-26T14:16:37.002Z</time></trkpt><trkpt lat="43.38190650172475" lon="10.879503085567249"><ele>248.0</ele><time>2026-04-26T14:16:38.002Z</time></trkpt><trkpt lat="43.38181537352082" lon="10.879377776806479"><ele>248.0</ele><time>2026-04-26T14:16:39.002Z</time></trkpt><trkpt lat="43.38172930655151" lon="10.87925796619497"><ele>248.0</ele><time>2026-04-26T14:16:40.002Z</time></trkpt><trkpt lat="43.38165239811155" lon="10.879156739884577"><ele>248.0</ele><time>2026-04-26T14:16:41.002Z</time></trkpt><trkpt lat="43.381585047773285" lon="10.879058878610348"><ele>246.2</ele><time>2026-04-26T14:16:42.002Z</time></trkpt><trkpt lat="43.38153091279254" lon="10.878962916387357"><ele>244.4</ele><time>2026-04-26T14:16:43.002Z</time></trkpt><trkpt lat="43.38148692820062" lon="10.87885995260279"><ele>242.59999999999997</ele><time>2026-04-26T14:16:44.002Z</time></trkpt><trkpt lat="43.381459643882025" lon="10.878748283754314"><ele>240.79999999999998</ele><time>2026-04-26T14:16:45.002Z</time></trkpt><trkpt lat="43.3814461423288" lon="10.878620294398129"><ele>239.0</ele><time>2026-04-26T14:16:46.002Z</time></trkpt><trkpt lat="43.381442743767685" lon="10.878479947396944"><ele>237.66666666666669</ele><time>2026-04-26T14:16:47.002Z</time></trkpt><trkpt lat="43.381437069231346" lon="10.878337228611535"><ele>236.33333333333334</ele><time>2026-04-26T14:16:48.002Z</time></trkpt><trkpt lat="43.38142968832196" lon="10.878210816904565"><ele>235.0</ele><time>2026-04-26T14:16:49.002Z</time></trkpt><trkpt lat="43.381412015388825" lon="10.87811149598951"><ele>233.66666666666669</ele><time>2026-04-26T14:16:50.002Z</time></trkpt><trkpt lat="43.381386001229764" lon="10.878023486991871"><ele>232.33333333333334</ele><time>2026-04-26T14:16:51.002Z</time></trkpt><trkpt lat="43.381348846521014" lon="10.877940735946908"><ele>231.0</ele><time>2026-04-26T14:16:52.002Z</time></trkpt><trkpt lat="43.381294195236755" lon="10.877865719512076"><ele>231.0</ele><time>2026-04-26T14:16:53.002Z</time></trkpt><trkpt lat="43.38122116381723" lon="10.877791223435876"><ele>231.0</ele><time>2026-04-26T14:16:54.002Z</time></trkpt><trkpt lat="43.38115748657854" lon="10.877725171297724"><ele>231.0</ele><time>2026-04-26T14:16:55.002Z</time></trkpt><trkpt lat="43.38111777479839" lon="10.877651449722043"><ele>231.0</ele><time>2026-04-26T14:16:56.002Z</time></trkpt><trkpt lat="43.38110024699817" lon="10.877562486555814"><ele>231.0</ele><time>2026-04-26T14:16:57.002Z</time></trkpt><trkpt lat="43.38110024064795" lon="10.877446780150612"><ele>231.0</ele><time>2026-04-26T14:16:58.002Z</time></trkpt><trkpt lat="43.381109495255416" lon="10.877298337947952"><ele>229.8</ele><time>2026-04-26T14:16:59.002Z</time></trkpt><trkpt lat="43.38111876338724" lon="10.877143523556825"><ele>228.60000000000002</ele><time>2026-04-26T14:17:00.002Z</time></trkpt><trkpt lat="43.38111159975643" lon="10.87700596198629"><ele>227.4</ele><time>2026-04-26T14:17:01.002Z</time></trkpt><trkpt lat="43.38107526501946" lon="10.876873986070068"><ele>226.2</ele><time>2026-04-26T14:17:02.002Z</time></trkpt><trkpt lat="43.38102259839518" lon="10.87675902383038"><ele>225.0</ele><time>2026-04-26T14:17:03.002Z</time></trkpt><trkpt lat="43.380959566608475" lon="10.876647835736856"><ele>225.0</ele><time>2026-04-26T14:17:04.002Z</time></trkpt><trkpt lat="43.3808857905628" lon="10.876553600668883"><ele>225.0</ele><time>2026-04-26T14:17:05.002Z</time></trkpt><trkpt lat="43.38080222003631" lon="10.876457504220268"><ele>225.0</ele><time>2026-04-26T14:17:06.002Z</time></trkpt><trkpt lat="43.380721854623005" lon="10.876346289060631"><ele>225.0</ele><time>2026-04-26T14:17:07.002Z</time></trkpt><trkpt lat="43.380628003499" lon="10.876273402154286"><ele>225.0</ele><time>2026-04-26T14:17:08.002Z</time></trkpt><trkpt lat="43.38053579376706" lon="10.87625232455093"><ele>224.2</ele><time>2026-04-26T14:17:09.002Z</time></trkpt><trkpt lat="43.38043759866371" lon="10.87621821073655"><ele>223.4</ele><time>2026-04-26T14:17:10.002Z</time></trkpt><trkpt lat="43.380341739498576" lon="10.87619793131015"><ele>222.60000000000002</ele><time>2026-04-26T14:17:11.002Z</time></trkpt><trkpt lat="43.38024447783549" lon="10.876142964843186"><ele>221.8</ele><time>2026-04-26T14:17:12.002Z</time></trkpt><trkpt lat="43.38013992678719" lon="10.876097446577266"><ele>221.0</ele><time>2026-04-26T14:17:13.003Z</time></trkpt><trkpt lat="43.38003250560359" lon="10.87608822497242"><ele>221.0</ele><time>2026-04-26T14:17:14.003Z</time></trkpt><trkpt lat="43.37993719344027" lon="10.876060464538623"><ele>221.00000000000003</ele><time>2026-04-26T14:17:15.003Z</time></trkpt><trkpt lat="43.37985522970946" lon="10.876035282215943"><ele>221.00000000000003</ele><time>2026-04-26T14:17:16.003Z</time></trkpt><trkpt lat="43.37976650872961" lon="10.876005891937496"><ele>221.0</ele><time>2026-04-26T14:17:17.003Z</time></trkpt><trkpt lat="43.379672154440094" lon="10.875966053999093"><ele>221.0</ele><time>2026-04-26T14:17:18.003Z</time></trkpt><trkpt lat="43.37957633783392" lon="10.875934074653344"><ele>224.20000000000002</ele><time>2026-04-26T14:17:18.999Z</time></trkpt><trkpt lat="43.379481445979145" lon="10.875894144111065"><ele>227.40000000000003</ele><time>2026-04-26T14:17:19.999Z</time></trkpt><trkpt lat="43.37939583611555" lon="10.875854153468108"><ele>230.6</ele><time>2026-04-26T14:17:20.999Z</time></trkpt><trkpt lat="43.379305935161376" lon="10.875807401641591"><ele>233.8</ele><time>2026-04-26T14:17:21.999Z</time></trkpt><trkpt lat="43.37919894679611" lon="10.875741251587696"><ele>237.0</ele><time>2026-04-26T14:17:22.999Z</time></trkpt><trkpt lat="43.379078846966486" lon="10.875669264651496"><ele>237.0</ele><time>2026-04-26T14:17:23.999Z</time></trkpt><trkpt lat="43.37897773828551" lon="10.875613548170817"><ele>237.0</ele><time>2026-04-26T14:17:24.999Z</time></trkpt><trkpt lat="43.378907500459675" lon="10.875569581005813"><ele>237.0</ele><time>2026-04-26T14:17:25.999Z</time></trkpt><trkpt lat="43.378851675914234" lon="10.875469956086349"><ele>237.0</ele><time>2026-04-26T14:17:27.999Z</time></trkpt><trkpt lat="43.37873725912339" lon="10.87536260009038"><ele>237.0</ele><time>2026-04-26T14:17:29.999Z</time></trkpt><trkpt lat="43.37869452003004" lon="10.875237906733418"><ele>237.0</ele><time>2026-04-26T14:17:30.999Z</time></trkpt><trkpt lat="43.37859862009894" lon="10.87517001087455"><ele>237.0</ele><time>2026-04-26T14:17:31.999Z</time></trkpt><trkpt lat="43.37849089291946" lon="10.875070321097454"><ele>237.0</ele><time>2026-04-26T14:17:32.999Z</time></trkpt><trkpt lat="43.3783738722105" lon="10.874938830324611"><ele>237.0</ele><time>2026-04-26T14:17:33.999Z</time></trkpt><trkpt lat="43.37827375603487" lon="10.874809247564258"><ele>237.0</ele><time>2026-04-26T14:17:34.999Z</time></trkpt><trkpt lat="43.378189550605306" lon="10.87468602981876"><ele>237.0</ele><time>2026-04-26T14:17:35.999Z</time></trkpt><trkpt lat="43.3781371537095" lon="10.87453182039421"><ele>237.0</ele><time>2026-04-26T14:17:36.999Z</time></trkpt><trkpt lat="43.37806569617261" lon="10.874365038072638"><ele>237.0</ele><time>2026-04-26T14:17:37.999Z</time></trkpt><trkpt lat="43.37799414638351" lon="10.874188275005919"><ele>237.0</ele><time>2026-04-26T14:17:39Z</time></trkpt><trkpt lat="43.37791102256617" lon="10.874036514850353"><ele>237.0</ele><time>2026-04-26T14:17:40Z</time></trkpt><trkpt lat="43.377830355998" lon="10.873885480037023"><ele>237.0</ele><time>2026-04-26T14:17:41Z</time></trkpt><trkpt lat="43.377727751655364" lon="10.873740631795112"><ele>237.0</ele><time>2026-04-26T14:17:42Z</time></trkpt><trkpt lat="43.377616061997394" lon="10.873593710695948"><ele>237.0</ele><time>2026-04-26T14:17:43Z</time></trkpt><trkpt lat="43.37750156784624" lon="10.87344031368795"><ele>237.0</ele><time>2026-04-26T14:17:44Z</time></trkpt><trkpt lat="43.37738162178046" lon="10.873277211760755"><ele>237.0</ele><time>2026-04-26T14:17:45Z</time></trkpt><trkpt lat="43.37725351684448" lon="10.87309578517149"><ele>235.0</ele><time>2026-04-26T14:17:46Z</time></trkpt><trkpt lat="43.37712507448994" lon="10.872916301314484"><ele>233.0</ele><time>2026-04-26T14:17:47Z</time></trkpt><trkpt lat="43.377002392718374" lon="10.87274944892581"><ele>231.0</ele><time>2026-04-26T14:17:48Z</time></trkpt><trkpt lat="43.376876599451" lon="10.872570378326655"><ele>229.0</ele><time>2026-04-26T14:17:49Z</time></trkpt><trkpt lat="43.37675442660732" lon="10.87239007246167"><ele>227.0</ele><time>2026-04-26T14:17:50Z</time></trkpt><trkpt lat="43.37663325820225" lon="10.872211580348784"><ele>225.0</ele><time>2026-04-26T14:17:51Z</time></trkpt><trkpt lat="43.37652531364966" lon="10.872050040201884"><ele>225.0</ele><time>2026-04-26T14:17:52Z</time></trkpt><trkpt lat="43.37641476602607" lon="10.871881785968823"><ele>225.0</ele><time>2026-04-26T14:17:53Z</time></trkpt><trkpt lat="43.376295589565736" lon="10.871709495775086"><ele>225.0</ele><time>2026-04-26T14:17:54Z</time></trkpt><trkpt lat="43.3761764572626" lon="10.871549191478154"><ele>225.0</ele><time>2026-04-26T14:17:55Z</time></trkpt><trkpt lat="43.37606051112841" lon="10.871384927213235"><ele>225.0</ele><time>2026-04-26T14:17:56Z</time></trkpt><trkpt lat="43.37596063114941" lon="10.871212164251498"><ele>225.0</ele><time>2026-04-26T14:17:57Z</time></trkpt><trkpt lat="43.375846872714334" lon="10.871052882018551"><ele>223.0</ele><time>2026-04-26T14:17:58Z</time></trkpt><trkpt lat="43.37573754339946" lon="10.870899971044011"><ele>221.0</ele><time>2026-04-26T14:17:59Z</time></trkpt><trkpt lat="43.37563268836114" lon="10.87075331727877"><ele>219.0</ele><time>2026-04-26T14:18:00Z</time></trkpt><trkpt lat="43.37552470768877" lon="10.870602615805204"><ele>220.0</ele><time>2026-04-26T14:18:01Z</time></trkpt><trkpt lat="43.37541540433178" lon="10.870449996568905"><ele>221.0</ele><time>2026-04-26T14:18:02Z</time></trkpt><trkpt lat="43.375306541733984" lon="10.870292617840878"><ele>222.0</ele><time>2026-04-26T14:18:03Z</time></trkpt><trkpt lat="43.375200823722196" lon="10.87014112562584"><ele>220.5</ele><time>2026-04-26T14:18:04.001Z</time></trkpt><trkpt lat="43.37510111005107" lon="10.870007487161159"><ele>219.0</ele><time>2026-04-26T14:18:05.001Z</time></trkpt><trkpt lat="43.37499542923828" lon="10.869900116717254"><ele>217.5</ele><time>2026-04-26T14:18:06.001Z</time></trkpt><trkpt lat="43.37490721859418" lon="10.869786415069738"><ele>216.0</ele><time>2026-04-26T14:18:07.001Z</time></trkpt><trkpt lat="43.37481242600808" lon="10.86968614682177"><ele>216.0</ele><time>2026-04-26T14:18:08.001Z</time></trkpt><trkpt lat="43.37470548473217" lon="10.869600785815672"><ele>216.0</ele><time>2026-04-26T14:18:09.001Z</time></trkpt><trkpt lat="43.37459312122006" lon="10.869496250263447"><ele>216.0</ele><time>2026-04-26T14:18:10.001Z</time></trkpt><trkpt lat="43.37447966063481" lon="10.869412109257881"><ele>216.0</ele><time>2026-04-26T14:18:11.001Z</time></trkpt><trkpt lat="43.37436490818694" lon="10.869354803025619"><ele>215.4</ele><time>2026-04-26T14:18:12.001Z</time></trkpt><trkpt lat="43.374268438344586" lon="10.869270976764287"><ele>214.8</ele><time>2026-04-26T14:18:13.001Z</time></trkpt><trkpt lat="43.37417667359682" lon="10.86919480598289"><ele>214.20000000000002</ele><time>2026-04-26T14:18:14.001Z</time></trkpt><trkpt lat="43.37411569127308" lon="10.869088517366862"><ele>213.60000000000002</ele><time>2026-04-26T14:18:15.001Z</time></trkpt><trkpt lat="43.374062225562824" lon="10.868993836054967"><ele>213.0</ele><time>2026-04-26T14:18:16.001Z</time></trkpt><trkpt lat="43.37400764032702" lon="10.86885802631524"><ele>213.0</ele><time>2026-04-26T14:18:17.001Z</time></trkpt><trkpt lat="43.37395348525891" lon="10.868724325389648"><ele>213.0</ele><time>2026-04-26T14:18:18.001Z</time></trkpt><trkpt lat="43.37387550434472" lon="10.868621572835117"><ele>213.0</ele><time>2026-04-26T14:18:19.001Z</time></trkpt><trkpt lat="43.373771525619276" lon="10.868586822427618"><ele>213.0</ele><time>2026-04-26T14:18:20.001Z</time></trkpt><trkpt lat="43.37365520222913" lon="10.868542361649451"><ele>213.0</ele><time>2026-04-26T14:18:21.001Z</time></trkpt><trkpt lat="43.37353329356105" lon="10.8684824157107"><ele>212.4</ele><time>2026-04-26T14:18:22.001Z</time></trkpt><trkpt lat="43.373421040449514" lon="10.868442079973828"><ele>211.8</ele><time>2026-04-26T14:18:23.001Z</time></trkpt><trkpt lat="43.37333098500578" lon="10.868394692179313"><ele>211.2</ele><time>2026-04-26T14:18:24.001Z</time></trkpt><trkpt lat="43.373254303651365" lon="10.868336616275394"><ele>210.6</ele><time>2026-04-26T14:18:25.001Z</time></trkpt><trkpt lat="43.37319623715289" lon="10.868270777626378"><ele>210.0</ele><time>2026-04-26T14:18:26.001Z</time></trkpt><trkpt lat="43.37312262064485" lon="10.868187621942404"><ele>210.0</ele><time>2026-04-26T14:18:27.001Z</time></trkpt><trkpt lat="43.373062641805994" lon="10.868062413452398"><ele>210.0</ele><time>2026-04-26T14:18:28.001Z</time></trkpt><trkpt lat="43.37303414922206" lon="10.867921570176147"><ele>210.0</ele><time>2026-04-26T14:18:29.001Z</time></trkpt><trkpt lat="43.37299208215414" lon="10.867754261628262"><ele>210.0</ele><time>2026-04-26T14:18:30.001Z</time></trkpt><trkpt lat="43.37295147715532" lon="10.867570485245867"><ele>207.0</ele><time>2026-04-26T14:18:31.001Z</time></trkpt><trkpt lat="43.37291130739148" lon="10.867413283349654"><ele>204.0</ele><time>2026-04-26T14:18:32.001Z</time></trkpt><trkpt lat="43.37287647197092" lon="10.867271105942043"><ele>201.0</ele><time>2026-04-26T14:18:33.001Z</time></trkpt><trkpt lat="43.372816810637445" lon="10.867134223763934"><ele>198.0</ele><time>2026-04-26T14:18:34.001Z</time></trkpt><trkpt lat="43.37272505878405" lon="10.867003022895728"><ele>198.0</ele><time>2026-04-26T14:18:35.002Z</time></trkpt><trkpt lat="43.37262324030866" lon="10.866880091039738"><ele>198.0</ele><time>2026-04-26T14:18:36.002Z</time></trkpt><trkpt lat="43.37254471208871" lon="10.866761614322009"><ele>198.0</ele><time>2026-04-26T14:18:37.002Z</time></trkpt><trkpt lat="43.37250763630898" lon="10.86663525576877"><ele>198.0</ele><time>2026-04-26T14:18:38.002Z</time></trkpt><trkpt lat="43.3724616366" lon="10.866480906396701"><ele>198.75</ele><time>2026-04-26T14:18:39.002Z</time></trkpt><trkpt lat="43.372416352526336" lon="10.866292270215377"><ele>199.5</ele><time>2026-04-26T14:18:40.002Z</time></trkpt><trkpt lat="43.37237095174501" lon="10.866091179059692"><ele>200.25</ele><time>2026-04-26T14:18:41.002Z</time></trkpt><trkpt lat="43.37232556295238" lon="10.8659078795417"><ele>201.0</ele><time>2026-04-26T14:18:42.002Z</time></trkpt><trkpt lat="43.37228012172964" lon="10.865751917259969"><ele>201.0</ele><time>2026-04-26T14:18:43.002Z</time></trkpt><trkpt lat="43.372220398218275" lon="10.865632142516505"><ele>201.0</ele><time>2026-04-26T14:18:44.002Z</time></trkpt><trkpt lat="43.37217183915272" lon="10.86555009577779"><ele>201.0</ele><time>2026-04-26T14:18:45.002Z</time></trkpt><trkpt lat="43.372104514579256" lon="10.865502472892171"><ele>201.0</ele><time>2026-04-26T14:18:46.002Z</time></trkpt><trkpt lat="43.37202394623486" lon="10.865486871304748"><ele>201.0</ele><time>2026-04-26T14:18:47.002Z</time></trkpt><trkpt lat="43.37194449376113" lon="10.865516677728046"><ele>201.0</ele><time>2026-04-26T14:18:48.002Z</time></trkpt><trkpt lat="43.37184879485953" lon="10.865553742967876"><ele>200.25</ele><time>2026-04-26T14:18:49.002Z</time></trkpt><trkpt lat="43.3717668559207" lon="10.865673295866161"><ele>199.5</ele><time>2026-04-26T14:18:50.002Z</time></trkpt><trkpt lat="43.37165808386173" lon="10.86580170133853"><ele>198.75</ele><time>2026-04-26T14:18:51.002Z</time></trkpt><trkpt lat="43.37152683955124" lon="10.865955344453129"><ele>198.0</ele><time>2026-04-26T14:18:52.002Z</time></trkpt><trkpt lat="43.37140405570252" lon="10.866103090166"><ele>197.25</ele><time>2026-04-26T14:18:53.002Z</time></trkpt><trkpt lat="43.3712957603683" lon="10.866232623330058"><ele>196.5</ele><time>2026-04-26T14:18:54.002Z</time></trkpt><trkpt lat="43.37120357758826" lon="10.866344935784936"><ele>195.75</ele><time>2026-04-26T14:18:55.002Z</time></trkpt><trkpt lat="43.37112276107973" lon="10.866435327236081"><ele>195.0</ele><time>2026-04-26T14:18:56.002Z</time></trkpt><trkpt lat="43.37104401408134" lon="10.866506933863247"><ele>195.0</ele><time>2026-04-26T14:18:57.002Z</time></trkpt><trkpt lat="43.37095644217087" lon="10.866561101440558"><ele>195.0</ele><time>2026-04-26T14:18:58.002Z</time></trkpt><trkpt lat="43.37086232966192" lon="10.866582001148403"><ele>195.0</ele><time>2026-04-26T14:18:59.002Z</time></trkpt><trkpt lat="43.370743664504815" lon="10.866596746035498"><ele>195.0</ele><time>2026-04-26T14:19:00.002Z</time></trkpt><trkpt lat="43.37061939575662" lon="10.86657991849028"><ele>195.0</ele><time>2026-04-26T14:19:01.002Z</time></trkpt><trkpt lat="43.370499336398936" lon="10.866552698627086"><ele>196.0</ele><time>2026-04-26T14:19:02.002Z</time></trkpt><trkpt lat="43.370367454525855" lon="10.866500038906747"><ele>197.0</ele><time>2026-04-26T14:19:03.002Z</time></trkpt><trkpt lat="43.37024476619731" lon="10.866452491896725"><ele>198.0</ele><time>2026-04-26T14:19:04.002Z</time></trkpt><trkpt lat="43.37012696090732" lon="10.866414628039387"><ele>199.0</ele><time>2026-04-26T14:19:05.002Z</time></trkpt><trkpt lat="43.37000981935307" lon="10.866400014306276"><ele>199.0</ele><time>2026-04-26T14:19:06.002Z</time></trkpt><trkpt lat="43.36989608798249" lon="10.866390778171887"><ele>199.0</ele><time>2026-04-26T14:19:07.002Z</time></trkpt><trkpt lat="43.369762133803015" lon="10.866403002329651"><ele>199.0</ele><time>2026-04-26T14:19:08.003Z</time></trkpt><trkpt lat="43.369613354003576" lon="10.866431794531755"><ele>199.0</ele><time>2026-04-26T14:19:09.003Z</time></trkpt><trkpt lat="43.369467232933225" lon="10.866458817186569"><ele>198.0</ele><time>2026-04-26T14:19:10.003Z</time></trkpt><trkpt lat="43.369325382535166" lon="10.86647162355824"><ele>197.0</ele><time>2026-04-26T14:19:11.003Z</time></trkpt><trkpt lat="43.36919058119526" lon="10.86645676984446"><ele>196.0</ele><time>2026-04-26T14:19:12.003Z</time></trkpt><trkpt lat="43.369054229579646" lon="10.866416652353774"><ele>195.0</ele><time>2026-04-26T14:19:13.003Z</time></trkpt><trkpt lat="43.36891294773087" lon="10.866375466311982"><ele>193.66666666666666</ele><time>2026-04-26T14:19:14.003Z</time></trkpt><trkpt lat="43.36876018217874" lon="10.866355557105736"><ele>192.33333333333331</ele><time>2026-04-26T14:19:15.003Z</time></trkpt><trkpt lat="43.368587301535584" lon="10.866341484658763"><ele>191.0</ele><time>2026-04-26T14:19:16.003Z</time></trkpt><trkpt lat="43.36842005216217" lon="10.866322875056051"><ele>191.0</ele><time>2026-04-26T14:19:17.003Z</time></trkpt><trkpt lat="43.368274619360434" lon="10.866302376629344"><ele>191.0</ele><time>2026-04-26T14:19:18.003Z</time></trkpt><trkpt lat="43.36812768022884" lon="10.866288614711564"><ele>191.0</ele><time>2026-04-26T14:19:19.003Z</time></trkpt><trkpt lat="43.367975323492146" lon="10.866281496196"><ele>191.0</ele><time>2026-04-26T14:19:20.003Z</time></trkpt><trkpt lat="43.367831726038354" lon="10.866273258821868"><ele>190.5</ele><time>2026-04-26T14:19:21.003Z</time></trkpt><trkpt lat="43.36769979697613" lon="10.8662667540861"><ele>190.0</ele><time>2026-04-26T14:19:22.003Z</time></trkpt><trkpt lat="43.36757348616268" lon="10.866260493898295"><ele>189.5</ele><time>2026-04-26T14:19:23.003Z</time></trkpt><trkpt lat="43.36744049907657" lon="10.866274685697405"><ele>189.0</ele><time>2026-04-26T14:19:24.003Z</time></trkpt><trkpt lat="43.36729657759059" lon="10.866307780109784"><ele>188.5</ele><time>2026-04-26T14:19:24.999Z</time></trkpt><trkpt lat="43.36715043130428" lon="10.866349795907713"><ele>188.0</ele><time>2026-04-26T14:19:25.999Z</time></trkpt><trkpt lat="43.36701134350259" lon="10.866390706937134"><ele>187.5</ele><time>2026-04-26T14:19:26.999Z</time></trkpt><trkpt lat="43.366894726848706" lon="10.866410746301302"><ele>187.0</ele><time>2026-04-26T14:19:27.999Z</time></trkpt><trkpt lat="43.36677966777513" lon="10.866407660188978"><ele>187.0</ele><time>2026-04-26T14:19:28.999Z</time></trkpt><trkpt lat="43.36666524214655" lon="10.866375814099966"><ele>187.0</ele><time>2026-04-26T14:19:29.999Z</time></trkpt><trkpt lat="43.366537898235144" lon="10.866315203260118"><ele>187.0</ele><time>2026-04-26T14:19:30.999Z</time></trkpt><trkpt lat="43.36640895870198" lon="10.866235500141933"><ele>187.0</ele><time>2026-04-26T14:19:31.999Z</time></trkpt><trkpt lat="43.366268286029765" lon="10.866150667674129"><ele>186.0</ele><time>2026-04-26T14:19:32.999Z</time></trkpt><trkpt lat="43.366116992125384" lon="10.866069448161598"><ele>185.0</ele><time>2026-04-26T14:19:33.999Z</time></trkpt><trkpt lat="43.36595739126608" lon="10.865988794844315"><ele>184.0</ele><time>2026-04-26T14:19:34.999Z</time></trkpt><trkpt lat="43.36579298247092" lon="10.865900132635996"><ele>183.66666666666669</ele><time>2026-04-26T14:19:36Z</time></trkpt><trkpt lat="43.36562410858544" lon="10.865807072459239"><ele>183.33333333333334</ele><time>2026-04-26T14:19:37Z</time></trkpt><trkpt lat="43.365459321695056" lon="10.865717961896927"><ele>183.0</ele><time>2026-04-26T14:19:38Z</time></trkpt><trkpt lat="43.36531830405725" lon="10.865632031666637"><ele>182.66666666666666</ele><time>2026-04-26T14:19:39Z</time></trkpt><trkpt lat="43.365159541097185" lon="10.86552288521401"><ele>182.33333333333331</ele><time>2026-04-26T14:19:40Z</time></trkpt><trkpt lat="43.365000437313405" lon="10.865414746689567"><ele>182.0</ele><time>2026-04-26T14:19:41Z</time></trkpt><trkpt lat="43.364838133167225" lon="10.865302775495321"><ele>181.0</ele><time>2026-04-26T14:19:42Z</time></trkpt><trkpt lat="43.36467857898561" lon="10.865197381492413"><ele>180.0</ele><time>2026-04-26T14:19:43Z</time></trkpt><trkpt lat="43.36452727790441" lon="10.86509348891638"><ele>179.0</ele><time>2026-04-26T14:19:44Z</time></trkpt><trkpt lat="43.36437230968419" lon="10.864985659772376"><ele>181.0</ele><time>2026-04-26T14:19:45Z</time></trkpt><trkpt lat="43.36423246874792" lon="10.864895373235836"><ele>183.0</ele><time>2026-04-26T14:19:46Z</time></trkpt><trkpt lat="43.364114020641765" lon="10.86481637525975"><ele>185.0</ele><time>2026-04-26T14:19:47Z</time></trkpt><trkpt lat="43.3640211824444" lon="10.864733612900443"><ele>187.0</ele><time>2026-04-26T14:19:48Z</time></trkpt><trkpt lat="43.363946387973535" lon="10.864629459312066"><ele>187.0</ele><time>2026-04-26T14:19:49Z</time></trkpt><trkpt lat="43.3638890310662" lon="10.864496820850897"><ele>187.0</ele><time>2026-04-26T14:19:50Z</time></trkpt><trkpt lat="43.36382621773196" lon="10.864321793999988"><ele>187.0</ele><time>2026-04-26T14:19:51Z</time></trkpt><trkpt lat="43.36375444610945" lon="10.864124465423203"><ele>187.0</ele><time>2026-04-26T14:19:52Z</time></trkpt><trkpt lat="43.36368406346953" lon="10.863918729931747"><ele>187.33333333333334</ele><time>2026-04-26T14:19:53Z</time></trkpt><trkpt lat="43.363614612869696" lon="10.863722366328473"><ele>187.66666666666666</ele><time>2026-04-26T14:19:54Z</time></trkpt><trkpt lat="43.36355151899536" lon="10.863534552048659"><ele>188.0</ele><time>2026-04-26T14:19:55Z</time></trkpt><trkpt lat="43.363490396287865" lon="10.863356735237902"><ele>187.5</ele><time>2026-04-26T14:19:56Z</time></trkpt><trkpt lat="43.3634268495295" lon="10.863182428588528"><ele>187.0</ele><time>2026-04-26T14:19:57Z</time></trkpt><trkpt lat="43.36336530437987" lon="10.863015458684531"><ele>186.5</ele><time>2026-04-26T14:19:58Z</time></trkpt><trkpt lat="43.36330730152117" lon="10.862856138925826"><ele>186.0</ele><time>2026-04-26T14:19:59Z</time></trkpt><trkpt lat="43.36324500048975" lon="10.862704927801692"><ele>184.33333333333334</ele><time>2026-04-26T14:20:00.001Z</time></trkpt><trkpt lat="43.36316744231406" lon="10.862537370275671"><ele>182.66666666666669</ele><time>2026-04-26T14:20:01.001Z</time></trkpt><trkpt lat="43.363084757060484" lon="10.862353300561495"><ele>181.0</ele><time>2026-04-26T14:20:02.001Z</time></trkpt><trkpt lat="43.36299393393974" lon="10.862168557382532"><ele>180.75</ele><time>2026-04-26T14:20:03.001Z</time></trkpt><trkpt lat="43.362918499752816" lon="10.86200431510082"><ele>180.5</ele><time>2026-04-26T14:20:04.001Z</time></trkpt><trkpt lat="43.3628478502254" lon="10.861845801324167"><ele>180.25</ele><time>2026-04-26T14:20:05.001Z</time></trkpt><trkpt lat="43.362777949308274" lon="10.861689255874747"><ele>180.0</ele><time>2026-04-26T14:20:06.001Z</time></trkpt><trkpt lat="43.36271001270426" lon="10.861509734908475"><ele>179.75</ele><time>2026-04-26T14:20:07.001Z</time></trkpt><trkpt lat="43.36265421794828" lon="10.861308029139032"><ele>179.5</ele><time>2026-04-26T14:20:08.001Z</time></trkpt><trkpt lat="43.362606317997724" lon="10.861119077372416"><ele>179.25</ele><time>2026-04-26T14:20:09.001Z</time></trkpt><trkpt lat="43.362564193908256" lon="10.860951137418025"><ele>179.0</ele><time>2026-04-26T14:20:10.001Z</time></trkpt><trkpt lat="43.36252023758007" lon="10.860795710585991"><ele>179.0</ele><time>2026-04-26T14:20:11.001Z</time></trkpt><trkpt lat="43.3624741726773" lon="10.860662889229515"><ele>179.0</ele><time>2026-04-26T14:20:12.001Z</time></trkpt><trkpt lat="43.36242237283609" lon="10.860560906811438"><ele>179.0</ele><time>2026-04-26T14:20:13.001Z</time></trkpt><trkpt lat="43.36234862523882" lon="10.86047471181419"><ele>179.0</ele><time>2026-04-26T14:20:14.001Z</time></trkpt><trkpt lat="43.36225643400415" lon="10.860406143392288"><ele>179.0</ele><time>2026-04-26T14:20:15.001Z</time></trkpt><trkpt lat="43.36214778476629" lon="10.860345322334673"><ele>179.0</ele><time>2026-04-26T14:20:16.001Z</time></trkpt><trkpt lat="43.36202493199442" lon="10.860293416591125"><ele>179.0</ele><time>2026-04-26T14:20:17.001Z</time></trkpt><trkpt lat="43.361883686243125" lon="10.860250397417367"><ele>179.0</ele><time>2026-04-26T14:20:18.001Z</time></trkpt><trkpt lat="43.36173039926979" lon="10.860225615450096"><ele>179.0</ele><time>2026-04-26T14:20:19.001Z</time></trkpt><trkpt lat="43.361563639326214" lon="10.860209886276694"><ele>179.0</ele><time>2026-04-26T14:20:20.001Z</time></trkpt><trkpt lat="43.361400715968365" lon="10.860195980320151"><ele>179.0</ele><time>2026-04-26T14:20:21.001Z</time></trkpt><trkpt lat="43.36125998243623" lon="10.860191027677752"><ele>179.0</ele><time>2026-04-26T14:20:22.001Z</time></trkpt><trkpt lat="43.361123223972285" lon="10.860178932395334"><ele>179.0</ele><time>2026-04-26T14:20:23.001Z</time></trkpt><trkpt lat="43.36098924417321" lon="10.860129788104413"><ele>179.16666666666666</ele><time>2026-04-26T14:20:24.001Z</time></trkpt><trkpt lat="43.36086607107962" lon="10.860135726322397"><ele>179.33333333333331</ele><time>2026-04-26T14:20:25.001Z</time></trkpt><trkpt lat="43.36076559467485" lon="10.860126039378336"><ele>179.5</ele><time>2026-04-26T14:20:26.001Z</time></trkpt><trkpt lat="43.36068708846629" lon="10.860134945590588"><ele>179.66666666666666</ele><time>2026-04-26T14:20:27.001Z</time></trkpt><trkpt lat="43.36061690932888" lon="10.860131215712949"><ele>179.83333333333334</ele><time>2026-04-26T14:20:28.001Z</time></trkpt><trkpt lat="43.36056080738288" lon="10.860080228006574"><ele>180.0</ele><time>2026-04-26T14:20:29.001Z</time></trkpt><trkpt lat="43.360532335423905" lon="10.860000724112243"><ele>181.4</ele><time>2026-04-26T14:20:30.002Z</time></trkpt><trkpt lat="43.36052861373321" lon="10.859912666270848"><ele>182.8</ele><time>2026-04-26T14:20:31.002Z</time></trkpt><trkpt lat="43.36054683654804" lon="10.859796639753904"><ele>184.2</ele><time>2026-04-26T14:20:32.002Z</time></trkpt><trkpt lat="43.36050945236633" lon="10.859657109841827"><ele>185.6</ele><time>2026-04-26T14:20:33.002Z</time></trkpt><trkpt lat="43.360455239793296" lon="10.859493867657617"><ele>187.0</ele><time>2026-04-26T14:20:34.002Z</time></trkpt><trkpt lat="43.36040396961209" lon="10.85935681407084"><ele>189.16666666666669</ele><time>2026-04-26T14:20:35.002Z</time></trkpt><trkpt lat="43.36037714174577" lon="10.859253420897549"><ele>191.33333333333334</ele><time>2026-04-26T14:20:36.002Z</time></trkpt><trkpt lat="43.36029826049092" lon="10.859164448917216"><ele>193.5</ele><time>2026-04-26T14:20:38.002Z</time></trkpt><trkpt lat="43.36023425230954" lon="10.85923820210061"><ele>195.66666666666669</ele><time>2026-04-26T14:20:39.002Z</time></trkpt><trkpt lat="43.36023501265287" lon="10.859389158297299"><ele>197.83333333333334</ele><time>2026-04-26T14:20:41.002Z</time></trkpt><trkpt lat="43.360223786595014" lon="10.859484305615146"><ele>200.0</ele><time>2026-04-26T14:20:42.002Z</time></trkpt><trkpt lat="43.36019808740721" lon="10.859576038296963"><ele>200.0</ele><time>2026-04-26T14:20:43.002Z</time></trkpt><trkpt lat="43.36015155569584" lon="10.85964853969234"><ele>200.0</ele><time>2026-04-26T14:20:44.002Z</time></trkpt><trkpt lat="43.360070905467985" lon="10.859733554942565"><ele>200.0</ele><time>2026-04-26T14:20:45.002Z</time></trkpt><trkpt lat="43.35999047284945" lon="10.859869305993737"><ele>200.0</ele><time>2026-04-26T14:20:46.002Z</time></trkpt><trkpt lat="43.359912832423625" lon="10.859955992462599"><ele>200.0</ele><time>2026-04-26T14:20:47.002Z</time></trkpt><trkpt lat="43.35983999717508" lon="10.859986596923596"><ele>200.0</ele><time>2026-04-26T14:20:49.002Z</time></trkpt><trkpt lat="43.35978131141602" lon="10.859903846785404"><ele>200.0</ele><time>2026-04-26T14:20:51.002Z</time></trkpt><trkpt lat="43.35984130009546" lon="10.859774088183269"><ele>200.0</ele><time>2026-04-26T14:20:53.002Z</time></trkpt><trkpt lat="43.35984487753105" lon="10.859637720440084"><ele>200.0</ele><time>2026-04-26T14:20:54.002Z</time></trkpt><trkpt lat="43.35984851444925" lon="10.859490697499224"><ele>200.0</ele><time>2026-04-26T14:20:55.002Z</time></trkpt><trkpt lat="43.35982409923269" lon="10.85932360549363"><ele>201.5</ele><time>2026-04-26T14:20:56.002Z</time></trkpt><trkpt lat="43.35979096644574" lon="10.859122353924823"><ele>203.0</ele><time>2026-04-26T14:20:57.002Z</time></trkpt><trkpt lat="43.35975946334071" lon="10.858932006069129"><ele>204.5</ele><time>2026-04-26T14:20:58.002Z</time></trkpt><trkpt lat="43.35973443320489" lon="10.858766231954498"><ele>206.0</ele><time>2026-04-26T14:20:59.002Z</time></trkpt><trkpt lat="43.35973057561247" lon="10.858625003118147"><ele>206.0</ele><time>2026-04-26T14:21:00.002Z</time></trkpt><trkpt lat="43.35977083990753" lon="10.858488739155165"><ele>206.0</ele><time>2026-04-26T14:21:01.002Z</time></trkpt><trkpt lat="43.35976713664187" lon="10.858384291934643"><ele>206.0</ele><time>2026-04-26T14:21:02.002Z</time></trkpt><trkpt lat="43.35970031538636" lon="10.85825694950307"><ele>206.0</ele><time>2026-04-26T14:21:04.003Z</time></trkpt><trkpt lat="43.359626085207715" lon="10.858210485228506"><ele>206.0</ele><time>2026-04-26T14:21:05.003Z</time></trkpt><trkpt lat="43.35953636304712" lon="10.858176675621287"><ele>208.60000000000002</ele><time>2026-04-26T14:21:06.003Z</time></trkpt><trkpt lat="43.359453947757046" lon="10.858167323427661"><ele>211.2</ele><time>2026-04-26T14:21:07.003Z</time></trkpt><trkpt lat="43.3593784399184" lon="10.858192112973773"><ele>213.79999999999998</ele><time>2026-04-26T14:21:08.003Z</time></trkpt><trkpt lat="43.359322728588076" lon="10.858247502872773"><ele>216.39999999999998</ele><time>2026-04-26T14:21:09.003Z</time></trkpt><trkpt lat="43.35929924888987" lon="10.858422404761717"><ele>219.0</ele><time>2026-04-26T14:21:11.003Z</time></trkpt><trkpt lat="43.35933289769169" lon="10.858551144331678"><ele>219.0</ele><time>2026-04-26T14:21:12.003Z</time></trkpt><trkpt lat="43.3593626002381" lon="10.858658788730711"><ele>219.0</ele><time>2026-04-26T14:21:13.003Z</time></trkpt><trkpt lat="43.35936744889437" lon="10.858761295446241"><ele>219.0</ele><time>2026-04-26T14:21:15.003Z</time></trkpt><trkpt lat="43.359295933212664" lon="10.858732118137748"><ele>219.0</ele><time>2026-04-26T14:21:18.003Z</time></trkpt><trkpt lat="43.359251647187264" lon="10.858652122590529"><ele>219.0</ele><time>2026-04-26T14:21:19.003Z</time></trkpt><trkpt lat="43.35919374016865" lon="10.85853248098269"><ele>219.0</ele><time>2026-04-26T14:21:20.003Z</time></trkpt><trkpt lat="43.359133824373465" lon="10.858413517647547"><ele>220.5</ele><time>2026-04-26T14:21:21.003Z</time></trkpt><trkpt lat="43.359063900033995" lon="10.858294023417491"><ele>222.0</ele><time>2026-04-26T14:21:22.003Z</time></trkpt><trkpt lat="43.35899179432212" lon="10.858154462800556"><ele>223.5</ele><time>2026-04-26T14:21:23.003Z</time></trkpt><trkpt lat="43.358919386069395" lon="10.857997728466094"><ele>225.0</ele><time>2026-04-26T14:21:24.003Z</time></trkpt><trkpt lat="43.35884502560177" lon="10.857842101765273"><ele>227.0</ele><time>2026-04-26T14:21:25.003Z</time></trkpt><trkpt lat="43.358787473508606" lon="10.857721345389269"><ele>229.0</ele><time>2026-04-26T14:21:26.003Z</time></trkpt><trkpt lat="43.358726297440185" lon="10.857644567463018"><ele>231.0</ele><time>2026-04-26T14:21:27.003Z</time></trkpt><trkpt lat="43.35864758974554" lon="10.857578880816163"><ele>233.0</ele><time>2026-04-26T14:21:28.003Z</time></trkpt><trkpt lat="43.35856447978739" lon="10.857499057470031"><ele>235.0</ele><time>2026-04-26T14:21:29.003Z</time></trkpt><trkpt lat="43.35850580585854" lon="10.857408241569363"><ele>235.0</ele><time>2026-04-26T14:21:30.003Z</time></trkpt><trkpt lat="43.358464164153695" lon="10.857301833383106"><ele>235.0</ele><time>2026-04-26T14:21:31Z</time></trkpt><trkpt lat="43.35842690903923" lon="10.857167801330894"><ele>235.0</ele><time>2026-04-26T14:21:32Z</time></trkpt><trkpt lat="43.358402357190656" lon="10.857024453067696"><ele>235.0</ele><time>2026-04-26T14:21:33Z</time></trkpt><trkpt lat="43.35838106189956" lon="10.856886263320511"><ele>235.0</ele><time>2026-04-26T14:21:34Z</time></trkpt><trkpt lat="43.35835525414399" lon="10.856732773018665"><ele>235.0</ele><time>2026-04-26T14:21:35Z</time></trkpt><trkpt lat="43.358318719973056" lon="10.856550483125572"><ele>235.0</ele><time>2026-04-26T14:21:36Z</time></trkpt><trkpt lat="43.35827469102434" lon="10.856367845615742"><ele>235.0</ele><time>2026-04-26T14:21:37Z</time></trkpt><trkpt lat="43.35823964539875" lon="10.856197987864947"><ele>235.0</ele><time>2026-04-26T14:21:38Z</time></trkpt><trkpt lat="43.3582057424649" lon="10.856042910163163"><ele>235.2</ele><time>2026-04-26T14:21:39Z</time></trkpt><trkpt lat="43.35816969314047" lon="10.855893388264272"><ele>235.4</ele><time>2026-04-26T14:21:40Z</time></trkpt><trkpt lat="43.35814384134615" lon="10.855746223514114"><ele>235.60000000000002</ele><time>2026-04-26T14:21:41Z</time></trkpt><trkpt lat="43.35811592511095" lon="10.855610497388392"><ele>235.8</ele><time>2026-04-26T14:21:42Z</time></trkpt><trkpt lat="43.358115067144496" lon="10.855486638203537"><ele>236.0</ele><time>2026-04-26T14:21:43Z</time></trkpt><trkpt lat="43.35810289832995" lon="10.855361086099878"><ele>236.0</ele><time>2026-04-26T14:21:44Z</time></trkpt><trkpt lat="43.3580869376403" lon="10.855220166266472"><ele>236.0</ele><time>2026-04-26T14:21:45Z</time></trkpt><trkpt lat="43.3580667946927" lon="10.855040270804814"><ele>236.0</ele><time>2026-04-26T14:21:46Z</time></trkpt><trkpt lat="43.35805926430626" lon="10.854853722613823"><ele>236.0</ele><time>2026-04-26T14:21:47Z</time></trkpt><trkpt lat="43.35804214190362" lon="10.854710053247446"><ele>238.75</ele><time>2026-04-26T14:21:48Z</time></trkpt><trkpt lat="43.358031648588195" lon="10.85456017755021"><ele>241.5</ele><time>2026-04-26T14:21:49Z</time></trkpt><trkpt lat="43.35802820692933" lon="10.85436834443729"><ele>244.25</ele><time>2026-04-26T14:21:50Z</time></trkpt><trkpt lat="43.358026015640064" lon="10.854182984524668"><ele>247.0</ele><time>2026-04-26T14:21:51Z</time></trkpt><trkpt lat="43.35803131653663" lon="10.854022881962235"><ele>247.25</ele><time>2026-04-26T14:21:52Z</time></trkpt><trkpt lat="43.35802749342077" lon="10.853861140295699"><ele>247.5</ele><time>2026-04-26T14:21:53Z</time></trkpt><trkpt lat="43.3580337012997" lon="10.853702984081625"><ele>247.75</ele><time>2026-04-26T14:21:54Z</time></trkpt><trkpt lat="43.358030756028256" lon="10.853545828875298"><ele>248.0</ele><time>2026-04-26T14:21:55Z</time></trkpt><trkpt lat="43.35802258509918" lon="10.853384788114294"><ele>248.0</ele><time>2026-04-26T14:21:56Z</time></trkpt><trkpt lat="43.358007830533" lon="10.85321976536505"><ele>248.0</ele><time>2026-04-26T14:21:57Z</time></trkpt><trkpt lat="43.35799726990919" lon="10.853068545201072"><ele>248.0</ele><time>2026-04-26T14:21:58Z</time></trkpt><trkpt lat="43.35799103003974" lon="10.852915828522148"><ele>248.0</ele><time>2026-04-26T14:21:59Z</time></trkpt><trkpt lat="43.35799115995467" lon="10.85277015538738"><ele>248.0</ele><time>2026-04-26T14:22:00Z</time></trkpt><trkpt lat="43.35799757866217" lon="10.852639262040167"><ele>247.60000000000002</ele><time>2026-04-26T14:22:01Z</time></trkpt><trkpt lat="43.35799916486014" lon="10.852524752941559"><ele>247.20000000000002</ele><time>2026-04-26T14:22:02Z</time></trkpt><trkpt lat="43.35800256794125" lon="10.85241352177352"><ele>246.8</ele><time>2026-04-26T14:22:03Z</time></trkpt><trkpt lat="43.35803684825242" lon="10.85231864689359"><ele>246.4</ele><time>2026-04-26T14:22:04.001Z</time></trkpt><trkpt lat="43.358074126161355" lon="10.85216554255665"><ele>246.0</ele><time>2026-04-26T14:22:06.001Z</time></trkpt><trkpt lat="43.35812361594366" lon="10.852026685142201"><ele>244.0</ele><time>2026-04-26T14:22:08.001Z</time></trkpt><trkpt lat="43.358160527828055" lon="10.851948732071568"><ele>242.0</ele><time>2026-04-26T14:22:09.001Z</time></trkpt><trkpt lat="43.35817847239813" lon="10.851837861789516"><ele>240.0</ele><time>2026-04-26T14:22:10.001Z</time></trkpt><trkpt lat="43.35821840608373" lon="10.85172044921478"><ele>238.0</ele><time>2026-04-26T14:22:11.001Z</time></trkpt><trkpt lat="43.358244345104055" lon="10.851601764465244"><ele>236.0</ele><time>2026-04-26T14:22:12.001Z</time></trkpt><trkpt lat="43.35824980916511" lon="10.851475574719004"><ele>234.0</ele><time>2026-04-26T14:22:13.001Z</time></trkpt><trkpt lat="43.358278248533345" lon="10.851365975832353"><ele>233.66666666666666</ele><time>2026-04-26T14:22:14.001Z</time></trkpt><trkpt lat="43.358294950285305" lon="10.851237924424334"><ele>233.33333333333331</ele><time>2026-04-26T14:22:15.001Z</time></trkpt><trkpt lat="43.35831897535874" lon="10.851131572474086"><ele>233.0</ele><time>2026-04-26T14:22:16.001Z</time></trkpt><trkpt lat="43.358340430913906" lon="10.851038402980212"><ele>232.66666666666666</ele><time>2026-04-26T14:22:17.001Z</time></trkpt><trkpt lat="43.358358563200994" lon="10.850940881746475"><ele>232.33333333333331</ele><time>2026-04-26T14:22:18.001Z</time></trkpt><trkpt lat="43.35837960102767" lon="10.850837141050127"><ele>232.0</ele><time>2026-04-26T14:22:19.001Z</time></trkpt><trkpt lat="43.35840070046491" lon="10.850751293324905"><ele>231.5714285714286</ele><time>2026-04-26T14:22:20.001Z</time></trkpt><trkpt lat="43.358416225506936" lon="10.850653607717524"><ele>231.14285714285717</ele><time>2026-04-26T14:22:21.001Z</time></trkpt><trkpt lat="43.35842999499985" lon="10.850562222127587"><ele>230.71428571428572</ele><time>2026-04-26T14:22:22.001Z</time></trkpt><trkpt lat="43.35844606546499" lon="10.850473742007464"><ele>230.2857142857143</ele><time>2026-04-26T14:22:23.001Z</time></trkpt><trkpt lat="43.35846254443886" lon="10.850377218161382"><ele>229.8571428571429</ele><time>2026-04-26T14:22:24.001Z</time></trkpt><trkpt lat="43.35846662178855" lon="10.850287524512014"><ele>229.42857142857142</ele><time>2026-04-26T14:22:25.001Z</time></trkpt><trkpt lat="43.35843888450488" lon="10.850206809857672"><ele>229.0</ele><time>2026-04-26T14:22:26.001Z</time></trkpt><trkpt lat="43.358395383547936" lon="10.850135912798027"><ele>228.39999999999998</ele><time>2026-04-26T14:22:27.001Z</time></trkpt><trkpt lat="43.35834298082184" lon="10.85007269795705"><ele>227.79999999999998</ele><time>2026-04-26T14:22:28.001Z</time></trkpt><trkpt lat="43.358262954357635" lon="10.850004024886806"><ele>227.20000000000002</ele><time>2026-04-26T14:22:29.001Z</time></trkpt><trkpt lat="43.358159368097425" lon="10.849931934178935"><ele>226.60000000000002</ele><time>2026-04-26T14:22:30.001Z</time></trkpt><trkpt lat="43.35806621380191" lon="10.849857960206988"><ele>226.0</ele><time>2026-04-26T14:22:31.001Z</time></trkpt><trkpt lat="43.35798583797345" lon="10.849788119467986"><ele>225.99999999999997</ele><time>2026-04-26T14:22:32.001Z</time></trkpt><trkpt lat="43.357900593772385" lon="10.849722415382082"><ele>226.0</ele><time>2026-04-26T14:22:33.001Z</time></trkpt><trkpt lat="43.357828647640055" lon="10.849659548718869"><ele>226.0</ele><time>2026-04-26T14:22:34.001Z</time></trkpt><trkpt lat="43.35775793121243" lon="10.84959563531288"><ele>226.0</ele><time>2026-04-26T14:22:35.001Z</time></trkpt><trkpt lat="43.3576956075199" lon="10.849548020105265"><ele>225.99999999999997</ele><time>2026-04-26T14:22:36.002Z</time></trkpt><trkpt lat="43.357630581024594" lon="10.849500718003151"><ele>226.0</ele><time>2026-04-26T14:22:37.002Z</time></trkpt><trkpt lat="43.35753163427559" lon="10.849395211617136"><ele>225.99999999999997</ele><time>2026-04-26T14:22:39.002Z</time></trkpt><trkpt lat="43.357423515292375" lon="10.849313395162008"><ele>226.0</ele><time>2026-04-26T14:22:41.002Z</time></trkpt><trkpt lat="43.35735082357178" lon="10.849289136671056"><ele>226.0</ele><time>2026-04-26T14:22:42.002Z</time></trkpt><trkpt lat="43.357265864101066" lon="10.849271559990184"><ele>226.0</ele><time>2026-04-26T14:22:43.002Z</time></trkpt><trkpt lat="43.357186668584184" lon="10.849267207517991"><ele>225.99999999999997</ele><time>2026-04-26T14:22:44.002Z</time></trkpt><trkpt lat="43.35710955621517" lon="10.849278975437276"><ele>226.0</ele><time>2026-04-26T14:22:45.002Z</time></trkpt><trkpt lat="43.357038921768705" lon="10.849296972277118"><ele>225.33333333333331</ele><time>2026-04-26T14:22:46.002Z</time></trkpt><trkpt lat="43.35697035629223" lon="10.849298994366729"><ele>224.66666666666666</ele><time>2026-04-26T14:22:47.002Z</time></trkpt><trkpt lat="43.3568896147434" lon="10.849306540591154"><ele>224.0</ele><time>2026-04-26T14:22:48.002Z</time></trkpt><trkpt lat="43.35681166615561" lon="10.849296972512663"><ele>223.33333333333331</ele><time>2026-04-26T14:22:49.002Z</time></trkpt><trkpt lat="43.35673040315481" lon="10.84930039045414"><ele>222.66666666666666</ele><time>2026-04-26T14:22:50.002Z</time></trkpt><trkpt lat="43.35664253345856" lon="10.849294869730826"><ele>222.0</ele><time>2026-04-26T14:22:51.002Z</time></trkpt><trkpt lat="43.3565642487323" lon="10.849277753517155"><ele>219.33333333333334</ele><time>2026-04-26T14:22:52.002Z</time></trkpt><trkpt lat="43.356472185507414" lon="10.849245123485096"><ele>216.66666666666669</ele><time>2026-04-26T14:22:53.002Z</time></trkpt><trkpt lat="43.35638223009663" lon="10.849223737764623"><ele>214.0</ele><time>2026-04-26T14:22:54.002Z</time></trkpt><trkpt lat="43.35630625796559" lon="10.849206811247482"><ele>211.33333333333334</ele><time>2026-04-26T14:22:55.002Z</time></trkpt><trkpt lat="43.356237348036366" lon="10.849207759411417"><ele>208.66666666666669</ele><time>2026-04-26T14:22:56.002Z</time></trkpt><trkpt lat="43.3561666907838" lon="10.849212985771691"><ele>206.0</ele><time>2026-04-26T14:22:57.002Z</time></trkpt><trkpt lat="43.35607719956551" lon="10.849230605996588"><ele>207.75</ele><time>2026-04-26T14:22:58.002Z</time></trkpt><trkpt lat="43.355987103593534" lon="10.849265404625509"><ele>209.5</ele><time>2026-04-26T14:22:59.002Z</time></trkpt><trkpt lat="43.355871211358405" lon="10.849323634774764"><ele>211.25</ele><time>2026-04-26T14:23:00.002Z</time></trkpt><trkpt lat="43.355743490673675" lon="10.849364012671703"><ele>213.0</ele><time>2026-04-26T14:23:01.002Z</time></trkpt><trkpt lat="43.35562698355304" lon="10.849370451613504"><ele>212.0</ele><time>2026-04-26T14:23:02.002Z</time></trkpt><trkpt lat="43.35552337941427" lon="10.849367310043268"><ele>211.0</ele><time>2026-04-26T14:23:03.002Z</time></trkpt><trkpt lat="43.355425627448014" lon="10.849369153148924"><ele>210.0</ele><time>2026-04-26T14:23:04.002Z</time></trkpt><trkpt lat="43.355324139292485" lon="10.849379433284367"><ele>209.0</ele><time>2026-04-26T14:23:05.002Z</time></trkpt><trkpt lat="43.355242768066546" lon="10.849417941082525"><ele>208.0</ele><time>2026-04-26T14:23:06.002Z</time></trkpt><trkpt lat="43.35515036413428" lon="10.84947518632872"><ele>208.0</ele><time>2026-04-26T14:23:07.002Z</time></trkpt><trkpt lat="43.35504871040817" lon="10.849557427446207"><ele>208.0</ele><time>2026-04-26T14:23:08.002Z</time></trkpt><trkpt lat="43.354958097837994" lon="10.849636764876676"><ele>208.0</ele><time>2026-04-26T14:23:09.003Z</time></trkpt><trkpt lat="43.354881459501" lon="10.849699807535659"><ele>208.0</ele><time>2026-04-26T14:23:10.003Z</time></trkpt><trkpt lat="43.35482094216824" lon="10.849747125378345"><ele>208.0</ele><time>2026-04-26T14:23:11.003Z</time></trkpt><trkpt lat="43.354755136247" lon="10.849801027768288"><ele>209.33333333333331</ele><time>2026-04-26T14:23:12.003Z</time></trkpt><trkpt lat="43.35469653662843" lon="10.84983815994868"><ele>210.66666666666666</ele><time>2026-04-26T14:23:13.003Z</time></trkpt><trkpt lat="43.35463195012344" lon="10.849823118108956"><ele>212.0</ele><time>2026-04-26T14:23:14.003Z</time></trkpt><trkpt lat="43.35453600576522" lon="10.84978488098929"><ele>213.33333333333331</ele><time>2026-04-26T14:23:16.003Z</time></trkpt><trkpt lat="43.35448034766938" lon="10.849716931093157"><ele>214.66666666666666</ele><time>2026-04-26T14:23:17.003Z</time></trkpt><trkpt lat="43.354416665032645" lon="10.849611093793438"><ele>216.0</ele><time>2026-04-26T14:23:18.003Z</time></trkpt><trkpt lat="43.35434724874636" lon="10.849481210300302"><ele>216.0</ele><time>2026-04-26T14:23:19.003Z</time></trkpt><trkpt lat="43.35427334683059" lon="10.849352456686276"><ele>216.00000000000003</ele><time>2026-04-26T14:23:20.003Z</time></trkpt><trkpt lat="43.354212829730116" lon="10.849238750837758"><ele>216.00000000000003</ele><time>2026-04-26T14:23:21.003Z</time></trkpt><trkpt lat="43.35414168753493" lon="10.849145663406945"><ele>216.0</ele><time>2026-04-26T14:23:22.003Z</time></trkpt><trkpt lat="43.3540526079753" lon="10.849060555908487"><ele>216.0</ele><time>2026-04-26T14:23:23.003Z</time></trkpt><trkpt lat="43.353947317674056" lon="10.848967202577427"><ele>216.0</ele><time>2026-04-26T14:23:24.003Z</time></trkpt><trkpt lat="43.35386805411796" lon="10.848825042301444"><ele>216.00000000000003</ele><time>2026-04-26T14:23:25.003Z</time></trkpt><trkpt lat="43.35378117646141" lon="10.84872989836875"><ele>216.00000000000003</ele><time>2026-04-26T14:23:26.003Z</time></trkpt><trkpt lat="43.35371209209553" lon="10.848634701962384"><ele>216.0</ele><time>2026-04-26T14:23:27.003Z</time></trkpt><trkpt lat="43.35364061746353" lon="10.848552161178803"><ele>216.0</ele><time>2026-04-26T14:23:28.003Z</time></trkpt><trkpt lat="43.353572606703494" lon="10.848477963851023"><ele>214.0</ele><time>2026-04-26T14:23:29.003Z</time></trkpt><trkpt lat="43.35351516289115" lon="10.848399596385377"><ele>212.0</ele><time>2026-04-26T14:23:30.003Z</time></trkpt><trkpt lat="43.35347405624871" lon="10.84829575109943"><ele>210.0</ele><time>2026-04-26T14:23:31.003Z</time></trkpt><trkpt lat="43.35343805130188" lon="10.848188085969396"><ele>208.0</ele><time>2026-04-26T14:23:32.003Z</time></trkpt><trkpt lat="43.353401967707114" lon="10.848093007576471"><ele>206.0</ele><time>2026-04-26T14:23:33.003Z</time></trkpt><trkpt lat="43.35339394962498" lon="10.847992810732592"><ele>204.0</ele><time>2026-04-26T14:23:34.003Z</time></trkpt><trkpt lat="43.353386439207604" lon="10.847890300321463"><ele>204.0</ele><time>2026-04-26T14:23:35.003Z</time></trkpt><trkpt lat="43.35339022972308" lon="10.847775783142518"><ele>204.0</ele><time>2026-04-26T14:23:36.003Z</time></trkpt><trkpt lat="43.35338884756189" lon="10.847662774603318"><ele>204.0</ele><time>2026-04-26T14:23:37Z</time></trkpt><trkpt lat="43.353413788469666" lon="10.847488740938028"><ele>204.0</ele><time>2026-04-26T14:23:39Z</time></trkpt><trkpt lat="43.35342551528328" lon="10.847373233253414"><ele>204.0</ele><time>2026-04-26T14:23:40Z</time></trkpt><trkpt lat="43.353432127556246" lon="10.847260521322486"><ele>202.16666666666666</ele><time>2026-04-26T14:23:41Z</time></trkpt><trkpt lat="43.35346657094686" lon="10.847137408511937"><ele>200.33333333333331</ele><time>2026-04-26T14:23:42Z</time></trkpt><trkpt lat="43.353486197825944" lon="10.847019163023049"><ele>198.5</ele><time>2026-04-26T14:23:43Z</time></trkpt><trkpt lat="43.35349050534856" lon="10.846911476083958"><ele>196.66666666666666</ele><time>2026-04-26T14:23:44Z</time></trkpt><trkpt lat="43.353513199270594" lon="10.846821055180424"><ele>194.83333333333331</ele><time>2026-04-26T14:23:45Z</time></trkpt><trkpt lat="43.353532817461726" lon="10.846718945682738"><ele>193.0</ele><time>2026-04-26T14:23:46Z</time></trkpt><trkpt lat="43.353549085695775" lon="10.84661895486338"><ele>191.60000000000002</ele><time>2026-04-26T14:23:47Z</time></trkpt><trkpt lat="43.353585401780194" lon="10.846517761847176"><ele>190.20000000000002</ele><time>2026-04-26T14:23:48Z</time></trkpt><trkpt lat="43.3535896189297" lon="10.84639238140085"><ele>188.8</ele><time>2026-04-26T14:23:49Z</time></trkpt><trkpt lat="43.35361563396444" lon="10.846267745403303"><ele>187.4</ele><time>2026-04-26T14:23:50Z</time></trkpt><trkpt lat="43.35363261684715" lon="10.846137385565028"><ele>186.0</ele><time>2026-04-26T14:23:51Z</time></trkpt><trkpt lat="43.35363511205239" lon="10.846000550626883"><ele>183.8</ele><time>2026-04-26T14:23:52Z</time></trkpt><trkpt lat="43.353634125386584" lon="10.845864387179406"><ele>181.60000000000002</ele><time>2026-04-26T14:23:53Z</time></trkpt><trkpt lat="43.35363230722113" lon="10.845730813423303"><ele>179.4</ele><time>2026-04-26T14:23:54Z</time></trkpt><trkpt lat="43.35361806368557" lon="10.845595843923103"><ele>177.2</ele><time>2026-04-26T14:23:55Z</time></trkpt><trkpt lat="43.353611926895645" lon="10.84547879286868"><ele>175.0</ele><time>2026-04-26T14:23:56Z</time></trkpt><trkpt lat="43.35361650179088" lon="10.845349791417881"><ele>175.0</ele><time>2026-04-26T14:23:57Z</time></trkpt><trkpt lat="43.353633483231214" lon="10.845218852797528"><ele>175.0</ele><time>2026-04-26T14:23:58Z</time></trkpt><trkpt lat="43.353658347886224" lon="10.845101735626338"><ele>175.0</ele><time>2026-04-26T14:23:59Z</time></trkpt><trkpt lat="43.35367688325337" lon="10.844977565828962"><ele>175.0</ele><time>2026-04-26T14:24:00Z</time></trkpt><trkpt lat="43.35368244096265" lon="10.844864217031436"><ele>175.0</ele><time>2026-04-26T14:24:01Z</time></trkpt><trkpt lat="43.35367101300336" lon="10.844727524727478"><ele>173.6</ele><time>2026-04-26T14:24:02Z</time></trkpt><trkpt lat="43.35364247828372" lon="10.844586799488898"><ele>172.2</ele><time>2026-04-26T14:24:03Z</time></trkpt><trkpt lat="43.35361539523697" lon="10.844447331526343"><ele>170.8</ele><time>2026-04-26T14:24:04Z</time></trkpt><trkpt lat="43.35359509601522" lon="10.844319471168896"><ele>169.4</ele><time>2026-04-26T14:24:05Z</time></trkpt><trkpt lat="43.353592323812066" lon="10.844192241872769"><ele>168.0</ele><time>2026-04-26T14:24:06.001Z</time></trkpt><trkpt lat="43.35357675042766" lon="10.84405808004259"><ele>167.4</ele><time>2026-04-26T14:24:07.001Z</time></trkpt><trkpt lat="43.35354779171214" lon="10.843922357754112"><ele>166.8</ele><time>2026-04-26T14:24:08.001Z</time></trkpt><trkpt lat="43.353540761700614" lon="10.843785024575718"><ele>166.2</ele><time>2026-04-26T14:24:09.001Z</time></trkpt><trkpt lat="43.35353867679759" lon="10.843647011538424"><ele>165.6</ele><time>2026-04-26T14:24:10.001Z</time></trkpt><trkpt lat="43.35353413740311" lon="10.843499779670296"><ele>165.0</ele><time>2026-04-26T14:24:11.001Z</time></trkpt><trkpt lat="43.35353608408545" lon="10.843353741814775"><ele>165.0</ele><time>2026-04-26T14:24:12.001Z</time></trkpt><trkpt lat="43.35354378430717" lon="10.843194357933791"><ele>165.0</ele><time>2026-04-26T14:24:13.001Z</time></trkpt><trkpt lat="43.35354706922198" lon="10.843029212715225"><ele>165.0</ele><time>2026-04-26T14:24:14.001Z</time></trkpt><trkpt lat="43.35355090735382" lon="10.842856606516804"><ele>165.0</ele><time>2026-04-26T14:24:15.001Z</time></trkpt><trkpt lat="43.3535486692885" lon="10.84268309796541"><ele>164.8</ele><time>2026-04-26T14:24:16.001Z</time></trkpt><trkpt lat="43.35354888421528" lon="10.842517362765722"><ele>164.6</ele><time>2026-04-26T14:24:17.001Z</time></trkpt><trkpt lat="43.353549107052075" lon="10.842358096115637"><ele>164.39999999999998</ele><time>2026-04-26T14:24:18.001Z</time></trkpt><trkpt lat="43.353547819611826" lon="10.842212866531556"><ele>164.2</ele><time>2026-04-26T14:24:19.001Z</time></trkpt><trkpt lat="43.35354246939056" lon="10.842075484400535"><ele>164.0</ele><time>2026-04-26T14:24:20.001Z</time></trkpt><trkpt lat="43.353547144418656" lon="10.841942213477573"><ele>164.0</ele><time>2026-04-26T14:24:21.001Z</time></trkpt><trkpt lat="43.35354011240088" lon="10.841821119590463"><ele>164.0</ele><time>2026-04-26T14:24:22.001Z</time></trkpt><trkpt lat="43.35353278655403" lon="10.841696203551235"><ele>164.0</ele><time>2026-04-26T14:24:23.001Z</time></trkpt><trkpt lat="43.35355318335132" lon="10.841553595725115"><ele>164.0</ele><time>2026-04-26T14:24:24.001Z</time></trkpt><trkpt lat="43.35354334143498" lon="10.841407498062736"><ele>164.0</ele><time>2026-04-26T14:24:25.001Z</time></trkpt><trkpt lat="43.353558743350575" lon="10.841268420126058"><ele>163.2</ele><time>2026-04-26T14:24:26.001Z</time></trkpt><trkpt lat="43.35356842249597" lon="10.841125786712452"><ele>162.39999999999998</ele><time>2026-04-26T14:24:27.001Z</time></trkpt><trkpt lat="43.353586874005885" lon="10.840963426451413"><ele>161.6</ele><time>2026-04-26T14:24:28.001Z</time></trkpt><trkpt lat="43.353606091358664" lon="10.840810788528358"><ele>160.8</ele><time>2026-04-26T14:24:29.001Z</time></trkpt><trkpt lat="43.35361856622412" lon="10.840659061330799"><ele>160.0</ele><time>2026-04-26T14:24:30.001Z</time></trkpt><trkpt lat="43.35362909451439" lon="10.840480343458497"><ele>160.0</ele><time>2026-04-26T14:24:31.001Z</time></trkpt><trkpt lat="43.35363574980485" lon="10.840285186390641"><ele>160.0</ele><time>2026-04-26T14:24:32.001Z</time></trkpt><trkpt lat="43.35364032600904" lon="10.840116562355558"><ele>160.0</ele><time>2026-04-26T14:24:33.001Z</time></trkpt><trkpt lat="43.35362970651549" lon="10.839979834917072"><ele>160.0</ele><time>2026-04-26T14:24:34.001Z</time></trkpt><trkpt lat="43.35360838997644" lon="10.839866162525698"><ele>160.0</ele><time>2026-04-26T14:24:35.001Z</time></trkpt><trkpt lat="43.35359505300046" lon="10.839753334646199"><ele>160.0</ele><time>2026-04-26T14:24:36.001Z</time></trkpt><trkpt lat="43.35363618632646" lon="10.839670519170225"><ele>160.0</ele><time>2026-04-26T14:24:37.001Z</time></trkpt><trkpt lat="43.35367430124599" lon="10.839593988509577"><ele>160.0</ele><time>2026-04-26T14:24:38.001Z</time></trkpt><trkpt lat="43.353706978502444" lon="10.839392113487728"><ele>160.0</ele><time>2026-04-26T14:24:40.002Z</time></trkpt><trkpt lat="43.35371554675919" lon="10.839276994223836"><ele>160.33333333333334</ele><time>2026-04-26T14:24:41.002Z</time></trkpt><trkpt lat="43.35373660059922" lon="10.83911717032458"><ele>160.66666666666669</ele><time>2026-04-26T14:24:43.002Z</time></trkpt><trkpt lat="43.35373758243886" lon="10.839021401877611"><ele>161.0</ele><time>2026-04-26T14:28:38.001Z</time></trkpt><trkpt lat="43.35374091397592" lon="10.838908060500584"><ele>161.33333333333334</ele><time>2026-04-26T14:28:40.001Z</time></trkpt><trkpt lat="43.353735756059834" lon="10.838821459081622"><ele>161.66666666666666</ele><time>2026-04-26T14:28:57.001Z</time></trkpt><trkpt lat="43.35373374431533" lon="10.838702575205588"><ele>162.0</ele><time>2026-04-26T14:28:59.001Z</time></trkpt><trkpt lat="43.35372577247695" lon="10.838570933180902"><ele>161.8</ele><time>2026-04-26T14:29:00.001Z</time></trkpt><trkpt lat="43.35371656011067" lon="10.838436745580244"><ele>161.6</ele><time>2026-04-26T14:29:01.001Z</time></trkpt><trkpt lat="43.353703496118804" lon="10.83832072840986"><ele>161.4</ele><time>2026-04-26T14:29:02.002Z</time></trkpt><trkpt lat="43.353680472729174" lon="10.838209810278787"><ele>161.20000000000002</ele><time>2026-04-26T14:29:03.002Z</time></trkpt><trkpt lat="43.35364845424728" lon="10.83808798272993"><ele>161.0</ele><time>2026-04-26T14:29:04.002Z</time></trkpt><trkpt lat="43.35362055416825" lon="10.837964767192355"><ele>161.0</ele><time>2026-04-26T14:29:05.002Z</time></trkpt><trkpt lat="43.35359628022896" lon="10.837825460301456"><ele>161.0</ele><time>2026-04-26T14:29:06.002Z</time></trkpt><trkpt lat="43.35356674127633" lon="10.83767887736382"><ele>161.0</ele><time>2026-04-26T14:29:07.002Z</time></trkpt><trkpt lat="43.3535245249497" lon="10.837527363291535"><ele>161.0</ele><time>2026-04-26T14:29:08.002Z</time></trkpt><trkpt lat="43.353480464628596" lon="10.837369097563709"><ele>161.4</ele><time>2026-04-26T14:29:09.002Z</time></trkpt><trkpt lat="43.35343709774307" lon="10.837217403045159"><ele>161.8</ele><time>2026-04-26T14:29:10.002Z</time></trkpt><trkpt lat="43.35339040472898" lon="10.837087292443021"><ele>162.20000000000002</ele><time>2026-04-26T14:29:11.002Z</time></trkpt><trkpt lat="43.353332045362585" lon="10.836956746125704"><ele>162.60000000000002</ele><time>2026-04-26T14:29:12.002Z</time></trkpt><trkpt lat="43.35327398290388" lon="10.836835985186497"><ele>163.0</ele><time>2026-04-26T14:29:13.002Z</time></trkpt><trkpt lat="43.35322026954228" lon="10.836718982016722"><ele>162.4</ele><time>2026-04-26T14:29:14.002Z</time></trkpt><trkpt lat="43.35317523925136" lon="10.836593064824893"><ele>161.8</ele><time>2026-04-26T14:29:15.002Z</time></trkpt><trkpt lat="43.353134988705904" lon="10.836466736877197"><ele>161.2</ele><time>2026-04-26T14:29:16.002Z</time></trkpt><trkpt lat="43.35310592073418" lon="10.836338624136257"><ele>160.6</ele><time>2026-04-26T14:29:17.002Z</time></trkpt><trkpt lat="43.353062546414186" lon="10.83620641529569"><ele>160.0</ele><time>2026-04-26T14:29:18.002Z</time></trkpt><trkpt lat="43.35299915060134" lon="10.836080348507197"><ele>162.0</ele><time>2026-04-26T14:29:19.002Z</time></trkpt><trkpt lat="43.35291873586723" lon="10.835958900444302"><ele>164.0</ele><time>2026-04-26T14:29:20.002Z</time></trkpt><trkpt lat="43.35282949294093" lon="10.835833320344866"><ele>166.0</ele><time>2026-04-26T14:29:21.002Z</time></trkpt><trkpt lat="43.35275312366932" lon="10.835719992110425"><ele>168.0</ele><time>2026-04-26T14:29:22.002Z</time></trkpt><trkpt lat="43.35269792467986" lon="10.835579963193748"><ele>168.0</ele><time>2026-04-26T14:29:23.002Z</time></trkpt><trkpt lat="43.35262384929335" lon="10.835457243010756"><ele>168.0</ele><time>2026-04-26T14:29:24.002Z</time></trkpt><trkpt lat="43.35257766251754" lon="10.835338592382262"><ele>168.0</ele><time>2026-04-26T14:29:25.002Z</time></trkpt><trkpt lat="43.35253286101483" lon="10.835226708461233"><ele>168.0</ele><time>2026-04-26T14:29:26.002Z</time></trkpt><trkpt lat="43.35248122304675" lon="10.83509874348956"><ele>168.0</ele><time>2026-04-26T14:29:27.002Z</time></trkpt><trkpt lat="43.35244098611833" lon="10.834948906709792"><ele>168.4</ele><time>2026-04-26T14:29:28.002Z</time></trkpt><trkpt lat="43.35237725939179" lon="10.834827640348891"><ele>168.8</ele><time>2026-04-26T14:29:29.002Z</time></trkpt><trkpt lat="43.35233156720514" lon="10.834698935129978"><ele>169.2</ele><time>2026-04-26T14:29:30.002Z</time></trkpt><trkpt lat="43.35228771329994" lon="10.834552139671182"><ele>169.6</ele><time>2026-04-26T14:29:31.002Z</time></trkpt><trkpt lat="43.35225454988813" lon="10.834399418703022"><ele>170.0</ele><time>2026-04-26T14:29:32.002Z</time></trkpt><trkpt lat="43.35222799202641" lon="10.834259935387088"><ele>170.4</ele><time>2026-04-26T14:29:33.002Z</time></trkpt><trkpt lat="43.35220740052865" lon="10.834146413210005"><ele>170.8</ele><time>2026-04-26T14:29:34.002Z</time></trkpt><trkpt lat="43.352195209753845" lon="10.834044513389477"><ele>171.2</ele><time>2026-04-26T14:29:35.002Z</time></trkpt><trkpt lat="43.35217608403407" lon="10.833933168318467"><ele>171.6</ele><time>2026-04-26T14:29:36.002Z</time></trkpt><trkpt lat="43.35213211610975" lon="10.833801903219175"><ele>172.0</ele><time>2026-04-26T14:29:37.002Z</time></trkpt><trkpt lat="43.352083253439076" lon="10.833644978279114"><ele>172.0</ele><time>2026-04-26T14:29:38.002Z</time></trkpt><trkpt lat="43.35203668075583" lon="10.833494303751591"><ele>172.0</ele><time>2026-04-26T14:29:39.002Z</time></trkpt><trkpt lat="43.3520021553957" lon="10.833362577136196"><ele>172.0</ele><time>2026-04-26T14:29:40.002Z</time></trkpt><trkpt lat="43.35197238826469" lon="10.833238331888298"><ele>172.0</ele><time>2026-04-26T14:29:41.002Z</time></trkpt><trkpt lat="43.351946298013274" lon="10.833113270757437"><ele>172.0</ele><time>2026-04-26T14:29:42.002Z</time></trkpt><trkpt lat="43.351935455613074" lon="10.832978515197947"><ele>170.8</ele><time>2026-04-26T14:29:43.002Z</time></trkpt><trkpt lat="43.3519246231076" lon="10.832840739196076"><ele>169.6</ele><time>2026-04-26T14:29:44.003Z</time></trkpt><trkpt lat="43.35191392622885" lon="10.832714572215373"><ele>168.4</ele><time>2026-04-26T14:29:45.003Z</time></trkpt><trkpt lat="43.3518899217747" lon="10.832583913621885"><ele>167.20000000000002</ele><time>2026-04-26T14:29:46.003Z</time></trkpt><trkpt lat="43.35186437750615" lon="10.832443948310138"><ele>166.0</ele><time>2026-04-26T14:29:47.003Z</time></trkpt><trkpt lat="43.35182346746151" lon="10.832324153481451"><ele>164.8</ele><time>2026-04-26T14:29:48.003Z</time></trkpt><trkpt lat="43.35177963130631" lon="10.832205064548187"><ele>163.60000000000002</ele><time>2026-04-26T14:29:49.003Z</time></trkpt><trkpt lat="43.35175200885565" lon="10.8320946710377"><ele>162.4</ele><time>2026-04-26T14:29:50.003Z</time></trkpt><trkpt lat="43.3517298926335" lon="10.831963886159308"><ele>161.2</ele><time>2026-04-26T14:29:51.003Z</time></trkpt><trkpt lat="43.3517016957017" lon="10.831828310968389"><ele>160.0</ele><time>2026-04-26T14:29:52.003Z</time></trkpt><trkpt lat="43.351664811139976" lon="10.831681449346714"><ele>158.0</ele><time>2026-04-26T14:29:53.003Z</time></trkpt><trkpt lat="43.35161525645765" lon="10.831517372968591"><ele>156.0</ele><time>2026-04-26T14:29:54.003Z</time></trkpt><trkpt lat="43.35156893198017" lon="10.831361762998746"><ele>154.0</ele><time>2026-04-26T14:29:55Z</time></trkpt><trkpt lat="43.351535150215994" lon="10.831205368201674"><ele>152.0</ele><time>2026-04-26T14:29:56Z</time></trkpt><trkpt lat="43.351515668808176" lon="10.83104719994109"><ele>151.4</ele><time>2026-04-26T14:29:57Z</time></trkpt><trkpt lat="43.3515084031152" lon="10.830901792579347"><ele>150.79999999999998</ele><time>2026-04-26T14:29:58Z</time></trkpt><trkpt lat="43.35150540302179" lon="10.830768803975689"><ele>150.2</ele><time>2026-04-26T14:29:59Z</time></trkpt><trkpt lat="43.35150029258512" lon="10.830659679226933"><ele>149.6</ele><time>2026-04-26T14:30:00Z</time></trkpt><trkpt lat="43.351493313278006" lon="10.830544580638653"><ele>149.0</ele><time>2026-04-26T14:30:01Z</time></trkpt><trkpt lat="43.35151021280056" lon="10.83040012689468"><ele>149.0</ele><time>2026-04-26T14:30:02Z</time></trkpt><trkpt lat="43.35150244104028" lon="10.830266476175256"><ele>149.0</ele><time>2026-04-26T14:30:03Z</time></trkpt><trkpt lat="43.35150151927904" lon="10.830142385067813"><ele>149.0</ele><time>2026-04-26T14:30:04Z</time></trkpt><trkpt lat="43.351495295284884" lon="10.830018177345575"><ele>149.0</ele><time>2026-04-26T14:30:05Z</time></trkpt><trkpt lat="43.351487366057384" lon="10.829907121553115"><ele>149.0</ele><time>2026-04-26T14:30:06Z</time></trkpt><trkpt lat="43.35148118996089" lon="10.8298005480966"><ele>149.0</ele><time>2026-04-26T14:30:07Z</time></trkpt><trkpt lat="43.35147267455279" lon="10.829653027008554"><ele>148.5</ele><time>2026-04-26T14:30:09Z</time></trkpt><trkpt lat="43.35154631974058" lon="10.829527915149175"><ele>148.0</ele><time>2026-04-26T14:30:11Z</time></trkpt><trkpt lat="43.351584617189026" lon="10.829456947467492"><ele>147.5</ele><time>2026-04-26T14:30:12Z</time></trkpt><trkpt lat="43.351651707852554" lon="10.829419492392526"><ele>147.0</ele><time>2026-04-26T14:30:13Z</time></trkpt><trkpt lat="43.35174001933891" lon="10.829371822915634"><ele>146.5</ele><time>2026-04-26T14:30:14Z</time></trkpt><trkpt lat="43.3518120824169" lon="10.82934541091798"><ele>146.0</ele><time>2026-04-26T14:30:15Z</time></trkpt><trkpt lat="43.35187780891208" lon="10.829214202177454"><ele>144.2</ele><time>2026-04-26T14:30:17Z</time></trkpt><trkpt lat="43.351881218159214" lon="10.829107789703217"><ele>142.39999999999998</ele><time>2026-04-26T14:30:18Z</time></trkpt><trkpt lat="43.351869377918256" lon="10.828972738995956"><ele>140.6</ele><time>2026-04-26T14:30:19Z</time></trkpt><trkpt lat="43.35185600605479" lon="10.828815277682926"><ele>138.79999999999998</ele><time>2026-04-26T14:30:20Z</time></trkpt><trkpt lat="43.35185742811975" lon="10.828678973119345"><ele>137.0</ele><time>2026-04-26T14:30:21Z</time></trkpt><trkpt lat="43.35187515268895" lon="10.828540554860627"><ele>136.6</ele><time>2026-04-26T14:30:22Z</time></trkpt><trkpt lat="43.35188531049516" lon="10.828424287195224"><ele>136.2</ele><time>2026-04-26T14:30:23Z</time></trkpt><trkpt lat="43.35187202418223" lon="10.82831040392522"><ele>135.8</ele><time>2026-04-26T14:30:24Z</time></trkpt><trkpt lat="43.35184069739911" lon="10.828194383211846"><ele>135.4</ele><time>2026-04-26T14:30:25Z</time></trkpt><trkpt lat="43.351802513925556" lon="10.828076564207567"><ele>135.0</ele><time>2026-04-26T14:30:26.001Z</time></trkpt><trkpt lat="43.35176816946001" lon="10.827951430874954"><ele>135.0</ele><time>2026-04-26T14:30:27.001Z</time></trkpt><trkpt lat="43.3517567721336" lon="10.827855871003239"><ele>135.0</ele><time>2026-04-26T14:30:28.001Z</time></trkpt><trkpt lat="43.35176867942809" lon="10.827768737204691"><ele>135.0</ele><time>2026-04-26T14:30:29.001Z</time></trkpt><trkpt lat="43.35187826242839" lon="10.827676433825191"><ele>135.0</ele><time>2026-04-26T14:30:31.001Z</time></trkpt><trkpt lat="43.35195522817315" lon="10.827602437178024"><ele>135.0</ele><time>2026-04-26T14:30:32.001Z</time></trkpt><trkpt lat="43.35205090531154" lon="10.827503192278238"><ele>135.75</ele><time>2026-04-26T14:30:33.001Z</time></trkpt><trkpt lat="43.35217221433399" lon="10.827387349008436"><ele>136.5</ele><time>2026-04-26T14:30:34.001Z</time></trkpt><trkpt lat="43.35229162025693" lon="10.827270779989076"><ele>137.25</ele><time>2026-04-26T14:30:35.001Z</time></trkpt><trkpt lat="43.35239500627739" lon="10.827161946067509"><ele>138.0</ele><time>2026-04-26T14:30:36.001Z</time></trkpt><trkpt lat="43.35249366435803" lon="10.827057574774935"><ele>139.4</ele><time>2026-04-26T14:30:37.001Z</time></trkpt><trkpt lat="43.352584359743474" lon="10.826952579546129"><ele>140.8</ele><time>2026-04-26T14:30:38.001Z</time></trkpt><trkpt lat="43.35266680937769" lon="10.826850383977384"><ele>142.2</ele><time>2026-04-26T14:30:39.001Z</time></trkpt><trkpt lat="43.352738513927676" lon="10.826764613827653"><ele>143.6</ele><time>2026-04-26T14:30:40.001Z</time></trkpt><trkpt lat="43.35279840227828" lon="10.82667502435238"><ele>145.0</ele><time>2026-04-26T14:30:41.001Z</time></trkpt><trkpt lat="43.35285259646714" lon="10.82656843750764"><ele>145.0</ele><time>2026-04-26T14:30:42.001Z</time></trkpt><trkpt lat="43.35290318862564" lon="10.826496820239784"><ele>145.0</ele><time>2026-04-26T14:30:43.001Z</time></trkpt><trkpt lat="43.35298224309741" lon="10.826451235663056"><ele>145.0</ele><time>2026-04-26T14:30:44.001Z</time></trkpt><trkpt lat="43.35304511901433" lon="10.826460461048976"><ele>145.0</ele><time>2026-04-26T14:30:45.001Z</time></trkpt><trkpt lat="43.353108413522605" lon="10.826436762011463"><ele>145.0</ele><time>2026-04-26T14:30:46.001Z</time></trkpt><trkpt lat="43.353207977806036" lon="10.826344225369644"><ele>145.0</ele><time>2026-04-26T14:30:48.001Z</time></trkpt><trkpt lat="43.353250563116035" lon="10.826244994506476"><ele>144.8</ele><time>2026-04-26T14:30:50.001Z</time></trkpt><trkpt lat="43.353284700774175" lon="10.826124622185896"><ele>144.6</ele><time>2026-04-26T14:33:24.002Z</time></trkpt><trkpt lat="43.353311866326095" lon="10.826035962570524"><ele>144.4</ele><time>2026-04-26T14:33:26.002Z</time></trkpt><trkpt lat="43.353320741438914" lon="10.82590897164209"><ele>144.2</ele><time>2026-04-26T14:33:35.002Z</time></trkpt><trkpt lat="43.35332786918179" lon="10.825778021609988"><ele>144.0</ele><time>2026-04-26T14:33:37.002Z</time></trkpt><trkpt lat="43.35332165522448" lon="10.825611724444313"><ele>144.0</ele><time>2026-04-26T14:33:39.002Z</time></trkpt><trkpt lat="43.353312765587376" lon="10.825505250037452"><ele>144.0</ele><time>2026-04-26T14:33:40.002Z</time></trkpt><trkpt lat="43.35330139321721" lon="10.825385977692768"><ele>144.0</ele><time>2026-04-26T14:33:41.002Z</time></trkpt><trkpt lat="43.3533073432045" lon="10.825267371848032"><ele>144.0</ele><time>2026-04-26T14:33:42.002Z</time></trkpt><trkpt lat="43.35328999803296" lon="10.825161553113832"><ele>144.0</ele><time>2026-04-26T14:33:43.002Z</time></trkpt><trkpt lat="43.35329641318214" lon="10.825034566420621"><ele>144.0</ele><time>2026-04-26T14:33:44.002Z</time></trkpt><trkpt lat="43.353299246440294" lon="10.824902776990854"><ele>143.16666666666666</ele><time>2026-04-26T14:33:45.002Z</time></trkpt><trkpt lat="43.35330505585266" lon="10.824783896715605"><ele>142.33333333333334</ele><time>2026-04-26T14:33:46.002Z</time></trkpt><trkpt lat="43.353312536600235" lon="10.824658796952345"><ele>141.5</ele><time>2026-04-26T14:33:47.002Z</time></trkpt><trkpt lat="43.353315742410736" lon="10.824538956313514"><ele>140.66666666666669</ele><time>2026-04-26T14:33:48.002Z</time></trkpt><trkpt lat="43.353311038559205" lon="10.824438734332803"><ele>139.83333333333334</ele><time>2026-04-26T14:33:49.002Z</time></trkpt><trkpt lat="43.35330966826016" lon="10.824326330259403"><ele>139.0</ele><time>2026-04-26T14:33:50.002Z</time></trkpt><trkpt lat="43.35331112930861" lon="10.824205419365219"><ele>138.4</ele><time>2026-04-26T14:33:51.002Z</time></trkpt><trkpt lat="43.353315092528355" lon="10.82411025804098"><ele>137.8</ele><time>2026-04-26T14:33:52.002Z</time></trkpt><trkpt lat="43.35330250909904" lon="10.823931399097056"><ele>137.2</ele><time>2026-04-26T14:33:54.002Z</time></trkpt><trkpt lat="43.35323000357156" lon="10.823804095136827"><ele>136.6</ele><time>2026-04-26T14:33:56.002Z</time></trkpt><trkpt lat="43.353158186002624" lon="10.823778337613758"><ele>136.0</ele><time>2026-04-26T14:33:59.003Z</time></trkpt><trkpt lat="43.35313000605848" lon="10.823956179493033"><ele>136.0</ele><time>2026-04-26T14:34:03.003Z</time></trkpt><trkpt lat="43.353132236498745" lon="10.824108908997296"><ele>136.0</ele><time>2026-04-26T14:34:04.003Z</time></trkpt><trkpt lat="43.35309435227829" lon="10.824269759606908"><ele>136.0</ele><time>2026-04-26T14:34:05.003Z</time></trkpt><trkpt lat="43.35303884589855" lon="10.824425870362347"><ele>136.0</ele><time>2026-04-26T14:34:06.003Z</time></trkpt><trkpt lat="43.35297272604407" lon="10.824559003407577"><ele>135.25</ele><time>2026-04-26T14:34:07Z</time></trkpt><trkpt lat="43.352878250801865" lon="10.824687427691243"><ele>134.5</ele><time>2026-04-26T14:34:08Z</time></trkpt><trkpt lat="43.35276551722095" lon="10.824801429727867"><ele>133.75</ele><time>2026-04-26T14:34:09Z</time></trkpt><trkpt lat="43.35264294834104" lon="10.824885189918792"><ele>133.0</ele><time>2026-04-26T14:34:10Z</time></trkpt><trkpt lat="43.35249652494188" lon="10.824948588568452"><ele>133.0</ele><time>2026-04-26T14:34:11Z</time></trkpt><trkpt lat="43.35234135514826" lon="10.824994091419274"><ele>133.0</ele><time>2026-04-26T14:34:12Z</time></trkpt><trkpt lat="43.35221196696981" lon="10.825041813498034"><ele>133.0</ele><time>2026-04-26T14:34:13Z</time></trkpt><trkpt lat="43.35210253853689" lon="10.825113958448304"><ele>133.0</ele><time>2026-04-26T14:34:14Z</time></trkpt><trkpt lat="43.35199825823013" lon="10.825219699637769"><ele>131.0</ele><time>2026-04-26T14:34:15Z</time></trkpt><trkpt lat="43.35189821579906" lon="10.825355790792228"><ele>129.0</ele><time>2026-04-26T14:34:16Z</time></trkpt><trkpt lat="43.351797747750425" lon="10.825507474339831"><ele>127.0</ele><time>2026-04-26T14:34:17Z</time></trkpt><trkpt lat="43.35172536559666" lon="10.825699811526718"><ele>125.0</ele><time>2026-04-26T14:34:18Z</time></trkpt><trkpt lat="43.351676956451655" lon="10.82590467467464"><ele>126.25</ele><time>2026-04-26T14:34:19Z</time></trkpt><trkpt lat="43.351646471495314" lon="10.826100333004723"><ele>127.5</ele><time>2026-04-26T14:34:20Z</time></trkpt><trkpt lat="43.35158203563612" lon="10.82627434939311"><ele>128.75</ele><time>2026-04-26T14:34:21Z</time></trkpt><trkpt lat="43.351492274400606" lon="10.826439379669067"><ele>130.0</ele><time>2026-04-26T14:34:22Z</time></trkpt><trkpt lat="43.35137601514382" lon="10.826592254081659"><ele>127.25</ele><time>2026-04-26T14:34:23Z</time></trkpt><trkpt lat="43.351258668602824" lon="10.826724853306521"><ele>124.5</ele><time>2026-04-26T14:34:24Z</time></trkpt><trkpt lat="43.351149992105384" lon="10.82684940543523"><ele>121.75</ele><time>2026-04-26T14:34:25Z</time></trkpt><trkpt lat="43.351035576856475" lon="10.826955750457296"><ele>119.0</ele><time>2026-04-26T14:34:26Z</time></trkpt><trkpt lat="43.350944947137236" lon="10.827110407473347"><ele>119.0</ele><time>2026-04-26T14:34:27Z</time></trkpt><trkpt lat="43.350849105724166" lon="10.827288698384635"><ele>119.0</ele><time>2026-04-26T14:34:28Z</time></trkpt><trkpt lat="43.35077135512227" lon="10.82748837985118"><ele>119.0</ele><time>2026-04-26T14:34:29Z</time></trkpt><trkpt lat="43.350699233262354" lon="10.827679948253124"><ele>117.66666666666666</ele><time>2026-04-26T14:34:30Z</time></trkpt><trkpt lat="43.350626944232495" lon="10.827871456429998"><ele>116.33333333333334</ele><time>2026-04-26T14:34:31Z</time></trkpt><trkpt lat="43.35054379407976" lon="10.82805330458788"><ele>115.0</ele><time>2026-04-26T14:34:32Z</time></trkpt><trkpt lat="43.35043566164992" lon="10.828231122166134"><ele>112.66666666666667</ele><time>2026-04-26T14:34:33Z</time></trkpt><trkpt lat="43.35030780340454" lon="10.82839845209976"><ele>110.33333333333334</ele><time>2026-04-26T14:34:34.001Z</time></trkpt><trkpt lat="43.35016673878455" lon="10.828557356911203"><ele>108.0</ele><time>2026-04-26T14:34:35.001Z</time></trkpt><trkpt lat="43.35001281619125" lon="10.828723072496937"><ele>108.0</ele><time>2026-04-26T14:34:36.001Z</time></trkpt><trkpt lat="43.34986450775095" lon="10.82888062859782"><ele>108.0</ele><time>2026-04-26T14:34:37.001Z</time></trkpt><trkpt lat="43.34972521092255" lon="10.829031819011682"><ele>108.0</ele><time>2026-04-26T14:34:38.001Z</time></trkpt><trkpt lat="43.34958701018544" lon="10.829186639719111"><ele>104.66666666666666</ele><time>2026-04-26T14:34:39.001Z</time></trkpt><trkpt lat="43.34944552693683" lon="10.829328885662667"><ele>101.33333333333333</ele><time>2026-04-26T14:34:40.001Z</time></trkpt><trkpt lat="43.3493198245559" lon="10.82951558105305"><ele>98.0</ele><time>2026-04-26T14:34:41.001Z</time></trkpt><trkpt lat="43.34920662239198" lon="10.829716056066708"><ele>98.0</ele><time>2026-04-26T14:34:42.001Z</time></trkpt><trkpt lat="43.349115766203255" lon="10.829936059516552"><ele>98.0</ele><time>2026-04-26T14:34:43.001Z</time></trkpt><trkpt lat="43.34899407473785" lon="10.830116891047906"><ele>98.0</ele><time>2026-04-26T14:34:44.001Z</time></trkpt><trkpt lat="43.348865117827835" lon="10.83031622809403"><ele>93.66666666666666</ele><time>2026-04-26T14:34:45.001Z</time></trkpt><trkpt lat="43.34872935234027" lon="10.830520989909651"><ele>89.33333333333333</ele><time>2026-04-26T14:34:46.001Z</time></trkpt><trkpt lat="43.348587293957124" lon="10.83073232366024"><ele>85.0</ele><time>2026-04-26T14:34:47.001Z</time></trkpt><trkpt lat="43.3484440003292" lon="10.830946290167644"><ele>87.33333333333333</ele><time>2026-04-26T14:34:48.001Z</time></trkpt><trkpt lat="43.348316279018114" lon="10.831167214171959"><ele>89.66666666666667</ele><time>2026-04-26T14:34:49.001Z</time></trkpt><trkpt lat="43.34818099946252" lon="10.831364211064193"><ele>92.0</ele><time>2026-04-26T14:34:50.001Z</time></trkpt><trkpt lat="43.34805093511453" lon="10.831555679020369"><ele>88.0</ele><time>2026-04-26T14:34:51.001Z</time></trkpt><trkpt lat="43.34792502950984" lon="10.831740886005726"><ele>84.0</ele><time>2026-04-26T14:34:52.001Z</time></trkpt><trkpt lat="43.34780447175241" lon="10.831921161951593"><ele>80.0</ele><time>2026-04-26T14:34:53.001Z</time></trkpt><trkpt lat="43.347694405156126" lon="10.832105719082536"><ele>80.0</ele><time>2026-04-26T14:34:54.001Z</time></trkpt><trkpt lat="43.34758367663596" lon="10.832298972437117"><ele>80.0</ele><time>2026-04-26T14:34:55.001Z</time></trkpt><trkpt lat="43.347488803073915" lon="10.832534823270635"><ele>80.0</ele><time>2026-04-26T14:34:56.001Z</time></trkpt><trkpt lat="43.34742618649594" lon="10.83280546377584"><ele>80.0</ele><time>2026-04-26T14:34:57.001Z</time></trkpt><trkpt lat="43.34735074128209" lon="10.833095454239592"><ele>80.0</ele><time>2026-04-26T14:34:58.001Z</time></trkpt><trkpt lat="43.34727490917646" lon="10.833391241854557"><ele>78.0</ele><time>2026-04-26T14:34:59.001Z</time></trkpt><trkpt lat="43.34719848810851" lon="10.833678378876833"><ele>76.0</ele><time>2026-04-26T14:35:00.001Z</time></trkpt><trkpt lat="43.347108704731994" lon="10.833958465722938"><ele>74.0</ele><time>2026-04-26T14:35:01.001Z</time></trkpt><trkpt lat="43.34703140486761" lon="10.834249379307947"><ele>75.0</ele><time>2026-04-26T14:35:02.001Z</time></trkpt><trkpt lat="43.34695115654814" lon="10.834543122965677"><ele>76.0</ele><time>2026-04-26T14:35:03.001Z</time></trkpt><trkpt lat="43.34686672006139" lon="10.834836396510122"><ele>76.0</ele><time>2026-04-26T14:35:04.001Z</time></trkpt><trkpt lat="43.34677868705311" lon="10.835130783159704"><ele>76.0</ele><time>2026-04-26T14:35:05.001Z</time></trkpt><trkpt lat="43.34669134366855" lon="10.835417153401913"><ele>78.0</ele><time>2026-04-26T14:35:06.001Z</time></trkpt><trkpt lat="43.34660556865429" lon="10.835694297036653"><ele>80.0</ele><time>2026-04-26T14:35:07.001Z</time></trkpt><trkpt lat="43.34652229870666" lon="10.835956133010127"><ele>82.0</ele><time>2026-04-26T14:35:08.001Z</time></trkpt><trkpt lat="43.34645549216166" lon="10.836226945717266"><ele>83.66666666666666</ele><time>2026-04-26T14:35:09.001Z</time></trkpt><trkpt lat="43.346393944387" lon="10.836480255286586"><ele>85.33333333333333</ele><time>2026-04-26T14:35:10.001Z</time></trkpt><trkpt lat="43.346336738957184" lon="10.836721922581717"><ele>87.0</ele><time>2026-04-26T14:35:11.001Z</time></trkpt><trkpt lat="43.34627974603216" lon="10.836963388552762"><ele>85.0</ele><time>2026-04-26T14:35:12.001Z</time></trkpt><trkpt lat="43.346225075040614" lon="10.837195016900544"><ele>83.0</ele><time>2026-04-26T14:35:13.001Z</time></trkpt><trkpt lat="43.34617152353315" lon="10.837415296018396"><ele>81.0</ele><time>2026-04-26T14:35:14.001Z</time></trkpt><trkpt lat="43.34611641450644" lon="10.837648135253225"><ele>81.0</ele><time>2026-04-26T14:35:15.001Z</time></trkpt><trkpt lat="43.346032301609625" lon="10.837847467455665"><ele>81.0</ele><time>2026-04-26T14:35:16.001Z</time></trkpt><trkpt lat="43.34592449058514" lon="10.838037660875234"><ele>81.0</ele><time>2026-04-26T14:35:17.002Z</time></trkpt><trkpt lat="43.34579531749673" lon="10.8382179715691"><ele>81.0</ele><time>2026-04-26T14:35:18.002Z</time></trkpt><trkpt lat="43.34565076845428" lon="10.838382527735913"><ele>81.0</ele><time>2026-04-26T14:35:19.002Z</time></trkpt><trkpt lat="43.345495323260195" lon="10.83854412322214"><ele>81.0</ele><time>2026-04-26T14:35:20.002Z</time></trkpt><trkpt lat="43.3453485956877" lon="10.838689494616581"><ele>81.66666666666667</ele><time>2026-04-26T14:35:21.002Z</time></trkpt><trkpt lat="43.34519102230939" lon="10.838818745356592"><ele>82.33333333333334</ele><time>2026-04-26T14:35:22.002Z</time></trkpt><trkpt lat="43.3450360365393" lon="10.838917653438799"><ele>83.0</ele><time>2026-04-26T14:35:23.002Z</time></trkpt><trkpt lat="43.34488442990248" lon="10.839003903675595"><ele>83.0</ele><time>2026-04-26T14:35:24.002Z</time></trkpt><trkpt lat="43.344744407824834" lon="10.839098755033246"><ele>83.0</ele><time>2026-04-26T14:35:25.002Z</time></trkpt><trkpt lat="43.34459795834613" lon="10.839205776680256"><ele>83.0</ele><time>2026-04-26T14:35:26.002Z</time></trkpt><trkpt lat="43.34448399979784" lon="10.839389830953895"><ele>82.33333333333334</ele><time>2026-04-26T14:35:27.002Z</time></trkpt><trkpt lat="43.344369365151934" lon="10.839603368929689"><ele>81.66666666666667</ele><time>2026-04-26T14:35:28.002Z</time></trkpt><trkpt lat="43.34425775956716" lon="10.83983968513594"><ele>81.0</ele><time>2026-04-26T14:35:29.002Z</time></trkpt><trkpt lat="43.34413328578721" lon="10.840087641852499"><ele>82.33333333333333</ele><time>2026-04-26T14:35:30.002Z</time></trkpt><trkpt lat="43.3440400606235" lon="10.84027113432056"><ele>83.66666666666666</ele><time>2026-04-26T14:35:31.002Z</time></trkpt><trkpt lat="43.34390558194543" lon="10.840552903853439"><ele>85.0</ele><time>2026-04-26T14:35:32.002Z</time></trkpt><trkpt lat="43.34376995863308" lon="10.840847075087355"><ele>83.5</ele><time>2026-04-26T14:35:33.002Z</time></trkpt><trkpt lat="43.34362388316719" lon="10.841155684580343"><ele>82.0</ele><time>2026-04-26T14:35:34.002Z</time></trkpt><trkpt lat="43.34346589987048" lon="10.841474171914886"><ele>82.0</ele><time>2026-04-26T14:35:35.002Z</time></trkpt><trkpt lat="43.343310967471986" lon="10.841796605259074"><ele>82.0</ele><time>2026-04-26T14:35:36.002Z</time></trkpt><trkpt lat="43.34314586584242" lon="10.842108971311294"><ele>82.5</ele><time>2026-04-26T14:35:37.002Z</time></trkpt><trkpt lat="43.342996310435055" lon="10.842417420217519"><ele>83.0</ele><time>2026-04-26T14:35:38.002Z</time></trkpt><trkpt lat="43.3428554207885" lon="10.842707996663417"><ele>83.0</ele><time>2026-04-26T14:35:39.002Z</time></trkpt><trkpt lat="43.342725195281425" lon="10.842974415028497"><ele>83.0</ele><time>2026-04-26T14:35:40.002Z</time></trkpt><trkpt lat="43.34260287012091" lon="10.84322366204977"><ele>83.0</ele><time>2026-04-26T14:35:41.002Z</time></trkpt><trkpt lat="43.3424927431559" lon="10.843447416763413"><ele>83.0</ele><time>2026-04-26T14:35:42.002Z</time></trkpt><trkpt lat="43.34238621363468" lon="10.843644183685742"><ele>83.0</ele><time>2026-04-26T14:35:43.002Z</time></trkpt><trkpt lat="43.34226676454032" lon="10.84380330931015"><ele>82.66666666666667</ele><time>2026-04-26T14:35:44.002Z</time></trkpt><trkpt lat="43.342127488346414" lon="10.84391907267073"><ele>82.33333333333333</ele><time>2026-04-26T14:35:45.002Z</time></trkpt><trkpt lat="43.3419740324917" lon="10.84403689321615"><ele>82.0</ele><time>2026-04-26T14:35:46.002Z</time></trkpt><trkpt lat="43.3418043945063" lon="10.84416690146872"><ele>82.66666666666666</ele><time>2026-04-26T14:35:47.002Z</time></trkpt><trkpt lat="43.341626176555785" lon="10.844300902935297"><ele>83.33333333333333</ele><time>2026-04-26T14:35:48.002Z</time></trkpt><trkpt lat="43.3414381595654" lon="10.844441464842964"><ele>84.0</ele><time>2026-04-26T14:35:49.002Z</time></trkpt><trkpt lat="43.34125247753059" lon="10.84458549631634"><ele>84.0</ele><time>2026-04-26T14:35:50.002Z</time></trkpt><trkpt lat="43.341076707533425" lon="10.844745257760765"><ele>84.0</ele><time>2026-04-26T14:35:51.002Z</time></trkpt><trkpt lat="43.34088839392072" lon="10.844865808520037"><ele>84.0</ele><time>2026-04-26T14:35:52.002Z</time></trkpt><trkpt lat="43.34071509173859" lon="10.844998768589436"><ele>84.66666666666667</ele><time>2026-04-26T14:35:53.002Z</time></trkpt><trkpt lat="43.34055825942507" lon="10.845131861473408"><ele>85.33333333333334</ele><time>2026-04-26T14:35:54.002Z</time></trkpt><trkpt lat="43.34040209900483" lon="10.845249017301025"><ele>86.0</ele><time>2026-04-26T14:35:55.002Z</time></trkpt><trkpt lat="43.34025467443125" lon="10.845360023373555"><ele>86.0</ele><time>2026-04-26T14:35:56.002Z</time></trkpt><trkpt lat="43.340116789672784" lon="10.845479578393826"><ele>86.0</ele><time>2026-04-26T14:35:57.002Z</time></trkpt><trkpt lat="43.33998668913828" lon="10.845621977530715"><ele>86.0</ele><time>2026-04-26T14:35:58.003Z</time></trkpt><trkpt lat="43.339860500787594" lon="10.845794875631656"><ele>85.66666666666667</ele><time>2026-04-26T14:35:59.003Z</time></trkpt><trkpt lat="43.33973685764332" lon="10.845995437815727"><ele>85.33333333333333</ele><time>2026-04-26T14:36:00.003Z</time></trkpt><trkpt lat="43.33960889892097" lon="10.846213654399929"><ele>85.0</ele><time>2026-04-26T14:36:01.003Z</time></trkpt><trkpt lat="43.33947679576375" lon="10.846434821381392"><ele>85.0</ele><time>2026-04-26T14:36:02.003Z</time></trkpt><trkpt lat="43.33933307759006" lon="10.846638582973203"><ele>85.0</ele><time>2026-04-26T14:36:03.003Z</time></trkpt><trkpt lat="43.33920641886324" lon="10.846846525372818"><ele>85.0</ele><time>2026-04-26T14:36:04.003Z</time></trkpt><trkpt lat="43.339082264197145" lon="10.847053731857946"><ele>84.33333333333333</ele><time>2026-04-26T14:36:05.003Z</time></trkpt><trkpt lat="43.33895903392256" lon="10.847283992365902"><ele>83.66666666666667</ele><time>2026-04-26T14:36:06.003Z</time></trkpt><trkpt lat="43.338857707927176" lon="10.847550349478812"><ele>83.0</ele><time>2026-04-26T14:36:07.003Z</time></trkpt><trkpt lat="43.33874351627284" lon="10.8478159183904"><ele>83.0</ele><time>2026-04-26T14:36:08.003Z</time></trkpt><trkpt lat="43.338630087712275" lon="10.848086124709297"><ele>83.0</ele><time>2026-04-26T14:36:09.003Z</time></trkpt><trkpt lat="43.338500728552695" lon="10.848346427857335"><ele>84.0</ele><time>2026-04-26T14:36:10.003Z</time></trkpt><trkpt lat="43.33838314365297" lon="10.848621367520243"><ele>85.0</ele><time>2026-04-26T14:36:11.003Z</time></trkpt><trkpt lat="43.33826759045333" lon="10.84889155672878"><ele>85.0</ele><time>2026-04-26T14:36:12.003Z</time></trkpt><trkpt lat="43.338155624827166" lon="10.849153357471202"><ele>85.0</ele><time>2026-04-26T14:36:12.999Z</time></trkpt><trkpt lat="43.33804538625013" lon="10.849410683469111"><ele>85.0</ele><time>2026-04-26T14:36:13.999Z</time></trkpt><trkpt lat="43.337939567780445" lon="10.849656540284405"><ele>84.66666666666666</ele><time>2026-04-26T14:36:14.999Z</time></trkpt><trkpt lat="43.337835305206845" lon="10.84989897289132"><ele>84.33333333333333</ele><time>2026-04-26T14:36:15.999Z</time></trkpt><trkpt lat="43.337732039849506" lon="10.850139517043761"><ele>84.0</ele><time>2026-04-26T14:36:16.999Z</time></trkpt><trkpt lat="43.337629889543486" lon="10.85037746400341"><ele>84.0</ele><time>2026-04-26T14:36:17.999Z</time></trkpt><trkpt lat="43.337527921512915" lon="10.850615157035877"><ele>84.0</ele><time>2026-04-26T14:36:18.999Z</time></trkpt><trkpt lat="43.33744562794901" lon="10.850852552194565"><ele>84.0</ele><time>2026-04-26T14:36:19.999Z</time></trkpt><trkpt lat="43.33734316757558" lon="10.851084705467704"><ele>84.33333333333333</ele><time>2026-04-26T14:36:20.999Z</time></trkpt><trkpt lat="43.337244990538494" lon="10.851321249853742"><ele>84.66666666666666</ele><time>2026-04-26T14:36:21.999Z</time></trkpt><trkpt lat="43.3371417351279" lon="10.85157133969284"><ele>85.0</ele><time>2026-04-26T14:36:22.999Z</time></trkpt><trkpt lat="43.33704476829447" lon="10.85182740491782"><ele>85.0</ele><time>2026-04-26T14:36:23.999Z</time></trkpt><trkpt lat="43.33693927545026" lon="10.852086353108161"><ele>85.0</ele><time>2026-04-26T14:36:24.999Z</time></trkpt><trkpt lat="43.336857167507134" lon="10.852353463240787"><ele>85.0</ele><time>2026-04-26T14:36:25.999Z</time></trkpt><trkpt lat="43.33678353536165" lon="10.852602207682533"><ele>86.33333333333333</ele><time>2026-04-26T14:36:26.999Z</time></trkpt><trkpt lat="43.3367110431125" lon="10.852837780584357"><ele>87.66666666666667</ele><time>2026-04-26T14:36:27.999Z</time></trkpt><trkpt lat="43.336641587409936" lon="10.853057326054696"><ele>89.0</ele><time>2026-04-26T14:36:28.999Z</time></trkpt><trkpt lat="43.33657543340634" lon="10.853268583725436"><ele>90.66666666666667</ele><time>2026-04-26T14:36:29.999Z</time></trkpt><trkpt lat="43.33651805150423" lon="10.853489299823439"><ele>92.33333333333333</ele><time>2026-04-26T14:36:31Z</time></trkpt><trkpt lat="43.33650478348308" lon="10.853727545553301"><ele>94.0</ele><time>2026-04-26T14:36:32Z</time></trkpt><trkpt lat="43.336483545641876" lon="10.85394342900127"><ele>94.0</ele><time>2026-04-26T14:36:33Z</time></trkpt><trkpt lat="43.336421571526415" lon="10.854144874092245"><ele>94.0</ele><time>2026-04-26T14:36:34Z</time></trkpt><trkpt lat="43.33634046749523" lon="10.854331297847384"><ele>94.0</ele><time>2026-04-26T14:36:35Z</time></trkpt><trkpt lat="43.33623420198443" lon="10.854525941310019"><ele>94.0</ele><time>2026-04-26T14:36:36Z</time></trkpt><trkpt lat="43.33612783335567" lon="10.854753229739973"><ele>94.0</ele><time>2026-04-26T14:36:37Z</time></trkpt><trkpt lat="43.33600424251435" lon="10.854954239778554"><ele>94.0</ele><time>2026-04-26T14:36:38Z</time></trkpt><trkpt lat="43.33588711866823" lon="10.855158444901372"><ele>94.0</ele><time>2026-04-26T14:36:39Z</time></trkpt><trkpt lat="43.33577221345319" lon="10.855390070219935"><ele>94.0</ele><time>2026-04-26T14:36:40Z</time></trkpt><trkpt lat="43.33566223920988" lon="10.855656012558264"><ele>94.0</ele><time>2026-04-26T14:36:41Z</time></trkpt><trkpt lat="43.335552862197765" lon="10.855934340784112"><ele>90.66666666666666</ele><time>2026-04-26T14:36:42Z</time></trkpt><trkpt lat="43.33545632354637" lon="10.856191788352815"><ele>87.33333333333333</ele><time>2026-04-26T14:36:43Z</time></trkpt><trkpt lat="43.33536604301374" lon="10.856431233709891"><ele>84.0</ele><time>2026-04-26T14:36:44Z</time></trkpt><trkpt lat="43.33526920536407" lon="10.856660580868787"><ele>85.66666666666667</ele><time>2026-04-26T14:36:45Z</time></trkpt><trkpt lat="43.33515855346615" lon="10.856881025583794"><ele>87.33333333333334</ele><time>2026-04-26T14:36:46Z</time></trkpt><trkpt lat="43.33504399336998" lon="10.857077238085227"><ele>89.0</ele><time>2026-04-26T14:36:47Z</time></trkpt><trkpt lat="43.334918158551176" lon="10.85725947197965"><ele>89.0</ele><time>2026-04-26T14:36:48Z</time></trkpt><trkpt lat="43.33477161296791" lon="10.857449364602692"><ele>89.0</ele><time>2026-04-26T14:36:49Z</time></trkpt><trkpt lat="43.33462159411182" lon="10.85763241023455"><ele>89.0</ele><time>2026-04-26T14:36:50Z</time></trkpt><trkpt lat="43.334461326266954" lon="10.857815820225442"><ele>87.0</ele><time>2026-04-26T14:36:51Z</time></trkpt><trkpt lat="43.334287109500366" lon="10.857993876023764"><ele>85.0</ele><time>2026-04-26T14:36:52Z</time></trkpt><trkpt lat="43.334103577637556" lon="10.858156058899635"><ele>83.0</ele><time>2026-04-26T14:36:53Z</time></trkpt><trkpt lat="43.33391365063473" lon="10.858297260384804"><ele>83.0</ele><time>2026-04-26T14:36:54Z</time></trkpt><trkpt lat="43.33372473826905" lon="10.858420287913027"><ele>83.0</ele><time>2026-04-26T14:36:55Z</time></trkpt><trkpt lat="43.33352988558921" lon="10.85853409760243"><ele>83.0</ele><time>2026-04-26T14:36:56Z</time></trkpt><trkpt lat="43.333333836350704" lon="10.858638342177189"><ele>83.0</ele><time>2026-04-26T14:36:57Z</time></trkpt><trkpt lat="43.333145219343336" lon="10.858724551155348"><ele>83.0</ele><time>2026-04-26T14:36:58Z</time></trkpt><trkpt lat="43.332957949051206" lon="10.8587894581458"><ele>83.0</ele><time>2026-04-26T14:36:59Z</time></trkpt><trkpt lat="43.332772905831796" lon="10.858828891270807"><ele>83.0</ele><time>2026-04-26T14:37:00Z</time></trkpt><trkpt lat="43.33258717675771" lon="10.858847890487956"><ele>83.0</ele><time>2026-04-26T14:37:01.001Z</time></trkpt><trkpt lat="43.332404649275375" lon="10.858858328128278"><ele>83.0</ele><time>2026-04-26T14:37:02.001Z</time></trkpt><trkpt lat="43.33222905983846" lon="10.85886919313393"><ele>84.0</ele><time>2026-04-26T14:37:03.001Z</time></trkpt><trkpt lat="43.332060245070615" lon="10.858879605618641"><ele>85.0</ele><time>2026-04-26T14:37:04.001Z</time></trkpt><trkpt lat="43.331889607212915" lon="10.858894815346883"><ele>86.0</ele><time>2026-04-26T14:37:05.001Z</time></trkpt><trkpt lat="43.33171354461134" lon="10.858907652271414"><ele>86.0</ele><time>2026-04-26T14:37:06.001Z</time></trkpt><trkpt lat="43.331538533327965" lon="10.858918625343488"><ele>86.0</ele><time>2026-04-26T14:37:07.001Z</time></trkpt><trkpt lat="43.33136436164552" lon="10.858928893733038"><ele>86.0</ele><time>2026-04-26T14:37:08.001Z</time></trkpt><trkpt lat="43.33119034340666" lon="10.858943034070535"><ele>86.66666666666667</ele><time>2026-04-26T14:37:09.001Z</time></trkpt><trkpt lat="43.33101460229511" lon="10.85895954662212"><ele>87.33333333333333</ele><time>2026-04-26T14:37:10.001Z</time></trkpt><trkpt lat="43.330846863464096" lon="10.85897573312313"><ele>88.0</ele><time>2026-04-26T14:37:11.001Z</time></trkpt><trkpt lat="43.33069494045665" lon="10.85898954866874"><ele>90.25</ele><time>2026-04-26T14:37:12.001Z</time></trkpt><trkpt lat="43.3305465768155" lon="10.859000556818199"><ele>92.5</ele><time>2026-04-26T14:37:13.001Z</time></trkpt><trkpt lat="43.33041432583086" lon="10.859010653901844"><ele>94.75</ele><time>2026-04-26T14:37:14.001Z</time></trkpt><trkpt lat="43.33028468342413" lon="10.859011573682865"><ele>97.0</ele><time>2026-04-26T14:37:15.001Z</time></trkpt><trkpt lat="43.33015753525691" lon="10.85899320669197"><ele>97.0</ele><time>2026-04-26T14:37:16.001Z</time></trkpt><trkpt lat="43.3300411679724" lon="10.858916050072436"><ele>97.0</ele><time>2026-04-26T14:37:17.001Z</time></trkpt><trkpt lat="43.32994690220492" lon="10.858801566558009"><ele>97.0</ele><time>2026-04-26T14:37:18.001Z</time></trkpt><trkpt lat="43.32986950223668" lon="10.858655472798846"><ele>97.0</ele><time>2026-04-26T14:37:19.001Z</time></trkpt><trkpt lat="43.32981315134101" lon="10.85848255342983"><ele>96.33333333333334</ele><time>2026-04-26T14:37:20.001Z</time></trkpt><trkpt lat="43.32978469738315" lon="10.858286866966438"><ele>95.66666666666667</ele><time>2026-04-26T14:37:21.001Z</time></trkpt><trkpt lat="43.329770313013846" lon="10.85806778022703"><ele>95.0</ele><time>2026-04-26T14:37:22.001Z</time></trkpt><trkpt lat="43.3297576279567" lon="10.85784297978784"><ele>95.0</ele><time>2026-04-26T14:37:23.001Z</time></trkpt><trkpt lat="43.329739090304116" lon="10.857637946358231"><ele>95.0</ele><time>2026-04-26T14:37:24.001Z</time></trkpt><trkpt lat="43.3297153259127" lon="10.857458811987835"><ele>95.0</ele><time>2026-04-26T14:37:25.001Z</time></trkpt><trkpt lat="43.32966971549096" lon="10.857299950494543"><ele>95.0</ele><time>2026-04-26T14:37:26.001Z</time></trkpt><trkpt lat="43.32959341408823" lon="10.857167941841361"><ele>100.5</ele><time>2026-04-26T14:37:27.001Z</time></trkpt><trkpt lat="43.329485836358565" lon="10.857066710967834"><ele>106.0</ele><time>2026-04-26T14:37:28.001Z</time></trkpt><trkpt lat="43.32936230128475" lon="10.85700143375443"><ele>111.5</ele><time>2026-04-26T14:37:29.001Z</time></trkpt><trkpt lat="43.32922140119049" lon="10.856983932759672"><ele>117.0</ele><time>2026-04-26T14:37:30.001Z</time></trkpt><trkpt lat="43.329064441794706" lon="10.856992909995938"><ele>117.0</ele><time>2026-04-26T14:37:31.001Z</time></trkpt><trkpt lat="43.328906703500515" lon="10.856983452824489"><ele>117.0</ele><time>2026-04-26T14:37:32.001Z</time></trkpt><trkpt lat="43.328735160652734" lon="10.856919487333354"><ele>117.0</ele><time>2026-04-26T14:37:33.001Z</time></trkpt><trkpt lat="43.32855490232034" lon="10.856826723151443"><ele>119.33333333333334</ele><time>2026-04-26T14:37:34.001Z</time></trkpt><trkpt lat="43.32836247317797" lon="10.85672738472473"><ele>121.66666666666667</ele><time>2026-04-26T14:37:35.001Z</time></trkpt><trkpt lat="43.32817309223889" lon="10.856623007396312"><ele>124.0</ele><time>2026-04-26T14:37:36.001Z</time></trkpt><trkpt lat="43.328003871745" lon="10.856513775941899"><ele>127.33333333333334</ele><time>2026-04-26T14:37:37.001Z</time></trkpt><trkpt lat="43.327835351095416" lon="10.856370762880722"><ele>130.66666666666666</ele><time>2026-04-26T14:37:38.002Z</time></trkpt><trkpt lat="43.327669458542815" lon="10.856206204378614"><ele>134.0</ele><time>2026-04-26T14:37:39.002Z</time></trkpt><trkpt lat="43.327518466523635" lon="10.856054286994214"><ele>134.66666666666666</ele><time>2026-04-26T14:37:40.002Z</time></trkpt><trkpt lat="43.32738403791719" lon="10.855909998326966"><ele>135.33333333333334</ele><time>2026-04-26T14:37:41.002Z</time></trkpt><trkpt lat="43.32727563777544" lon="10.855746627177833"><ele>136.0</ele><time>2026-04-26T14:37:42.002Z</time></trkpt><trkpt lat="43.32718509815647" lon="10.855551003068614"><ele>136.0</ele><time>2026-04-26T14:37:43.002Z</time></trkpt><trkpt lat="43.327112419218366" lon="10.855326445929565"><ele>136.0</ele><time>2026-04-26T14:37:44.002Z</time></trkpt><trkpt lat="43.32704023381349" lon="10.855096365102991"><ele>136.0</ele><time>2026-04-26T14:37:45.002Z</time></trkpt><trkpt lat="43.32693895762729" lon="10.854881058710504"><ele>135.33333333333334</ele><time>2026-04-26T14:37:46.002Z</time></trkpt><trkpt lat="43.32680826754807" lon="10.85468062976199"><ele>134.66666666666666</ele><time>2026-04-26T14:37:47.002Z</time></trkpt><trkpt lat="43.32665826847106" lon="10.854482832048022"><ele>134.0</ele><time>2026-04-26T14:37:48.002Z</time></trkpt><trkpt lat="43.32650819561894" lon="10.854299343985215"><ele>136.33333333333331</ele><time>2026-04-26T14:37:49.002Z</time></trkpt><trkpt lat="43.326360909786494" lon="10.854129500616905"><ele>138.66666666666666</ele><time>2026-04-26T14:37:50.002Z</time></trkpt><trkpt lat="43.32619913743299" lon="10.853963661807688"><ele>141.0</ele><time>2026-04-26T14:37:51.002Z</time></trkpt><trkpt lat="43.32602255777076" lon="10.853822804385391"><ele>141.0</ele><time>2026-04-26T14:37:52.002Z</time></trkpt><trkpt lat="43.32584498494276" lon="10.853697371489902"><ele>141.0</ele><time>2026-04-26T14:37:53.002Z</time></trkpt><trkpt lat="43.325664934170824" lon="10.853593535710868"><ele>141.0</ele><time>2026-04-26T14:37:54.002Z</time></trkpt><trkpt lat="43.325474417065415" lon="10.853524171378226"><ele>142.66666666666666</ele><time>2026-04-26T14:37:55.002Z</time></trkpt><trkpt lat="43.32528291042264" lon="10.853475694666232"><ele>144.33333333333331</ele><time>2026-04-26T14:37:56.002Z</time></trkpt><trkpt lat="43.32507575356621" lon="10.853437740436561"><ele>146.0</ele><time>2026-04-26T14:37:57.002Z</time></trkpt><trkpt lat="43.324873817001105" lon="10.85341227390795"><ele>149.0</ele><time>2026-04-26T14:37:58.002Z</time></trkpt><trkpt lat="43.324696627911656" lon="10.853391481086875"><ele>152.0</ele><time>2026-04-26T14:37:59.002Z</time></trkpt><trkpt lat="43.3245347822354" lon="10.853390318553597"><ele>155.0</ele><time>2026-04-26T14:38:00.002Z</time></trkpt><trkpt lat="43.32438508275179" lon="10.853419446655153"><ele>155.25</ele><time>2026-04-26T14:38:01.002Z</time></trkpt><trkpt lat="43.324257168636976" lon="10.853491188906961"><ele>155.5</ele><time>2026-04-26T14:38:02.002Z</time></trkpt><trkpt lat="43.32415123889422" lon="10.853592716524963"><ele>155.75</ele><time>2026-04-26T14:38:03.002Z</time></trkpt><trkpt lat="43.324068762307434" lon="10.853731597506926"><ele>156.0</ele><time>2026-04-26T14:38:04.002Z</time></trkpt><trkpt lat="43.32401210026852" lon="10.8539130872513"><ele>156.0</ele><time>2026-04-26T14:38:05.002Z</time></trkpt><trkpt lat="43.32396395087232" lon="10.854085799225501"><ele>156.0</ele><time>2026-04-26T14:38:06.002Z</time></trkpt><trkpt lat="43.323947555769834" lon="10.854275111777566"><ele>156.0</ele><time>2026-04-26T14:38:07.002Z</time></trkpt><trkpt lat="43.32396311790469" lon="10.85447084454966"><ele>156.0</ele><time>2026-04-26T14:38:08.002Z</time></trkpt><trkpt lat="43.32401435687208" lon="10.854689708852796"><ele>157.66666666666666</ele><time>2026-04-26T14:38:09.002Z</time></trkpt><trkpt lat="43.32404259831705" lon="10.85490242703626"><ele>159.33333333333331</ele><time>2026-04-26T14:38:10.002Z</time></trkpt><trkpt lat="43.324043631276936" lon="10.855113601320161"><ele>161.0</ele><time>2026-04-26T14:38:11.002Z</time></trkpt><trkpt lat="43.32404449154619" lon="10.855310682473199"><ele>162.5</ele><time>2026-04-26T14:38:12.002Z</time></trkpt><trkpt lat="43.32406280364382" lon="10.855497022379106"><ele>164.0</ele><time>2026-04-26T14:38:13.002Z</time></trkpt><trkpt lat="43.324108567994315" lon="10.855688883373434"><ele>165.5</ele><time>2026-04-26T14:38:14.002Z</time></trkpt><trkpt lat="43.3241838663836" lon="10.855856713967604"><ele>167.0</ele><time>2026-04-26T14:38:15.003Z</time></trkpt><trkpt lat="43.32428957041068" lon="10.856001780625887"><ele>167.8</ele><time>2026-04-26T14:38:16.003Z</time></trkpt><trkpt lat="43.3243699924309" lon="10.856137516118343"><ele>168.6</ele><time>2026-04-26T14:38:17.003Z</time></trkpt><trkpt lat="43.324448116855265" lon="10.856249301368528"><ele>169.4</ele><time>2026-04-26T14:38:18.003Z</time></trkpt><trkpt lat="43.32448568707112" lon="10.856385796043524"><ele>170.20000000000002</ele><time>2026-04-26T14:38:18.998Z</time></trkpt><trkpt lat="43.324490264714086" lon="10.856525892999615"><ele>171.0</ele><time>2026-04-26T14:38:19.998Z</time></trkpt><trkpt lat="43.3244617549598" lon="10.856665239365618"><ele>170.0</ele><time>2026-04-26T14:38:20.998Z</time></trkpt><trkpt lat="43.32439841323193" lon="10.85678610572224"><ele>169.0</ele><time>2026-04-26T14:38:21.998Z</time></trkpt><trkpt lat="43.324312791956515" lon="10.856858212151645"><ele>168.0</ele><time>2026-04-26T14:38:22.998Z</time></trkpt><trkpt lat="43.32420629988561" lon="10.856893364640996"><ele>167.0</ele><time>2026-04-26T14:38:23.998Z</time></trkpt><trkpt lat="43.32408626801685" lon="10.856880253088827"><ele>166.0</ele><time>2026-04-26T14:38:24.998Z</time></trkpt><trkpt lat="43.3239512521359" lon="10.856828972023303"><ele>169.33333333333334</ele><time>2026-04-26T14:38:25.998Z</time></trkpt><trkpt lat="43.323804037312215" lon="10.856745800504083"><ele>172.66666666666666</ele><time>2026-04-26T14:38:26.998Z</time></trkpt><trkpt lat="43.323650224752996" lon="10.856639660179095"><ele>176.0</ele><time>2026-04-26T14:38:27.998Z</time></trkpt><trkpt lat="43.32348958470201" lon="10.85650898928863"><ele>176.0</ele><time>2026-04-26T14:38:28.998Z</time></trkpt><trkpt lat="43.32331541789854" lon="10.856368024103181"><ele>176.0</ele><time>2026-04-26T14:38:29.998Z</time></trkpt><trkpt lat="43.32315397556073" lon="10.856246211835666"><ele>176.0</ele><time>2026-04-26T14:38:30.998Z</time></trkpt><trkpt lat="43.32301998204779" lon="10.85613423685795"><ele>176.0</ele><time>2026-04-26T14:38:31.998Z</time></trkpt><trkpt lat="43.322902676659105" lon="10.856012619565952"><ele>176.0</ele><time>2026-04-26T14:38:32.999Z</time></trkpt><trkpt lat="43.322813060231375" lon="10.855862586987415"><ele>176.0</ele><time>2026-04-26T14:38:33.999Z</time></trkpt><trkpt lat="43.322756387601935" lon="10.85567642139734"><ele>176.0</ele><time>2026-04-26T14:38:34.999Z</time></trkpt><trkpt lat="43.32272272973136" lon="10.855460881545827"><ele>178.0</ele><time>2026-04-26T14:38:35.999Z</time></trkpt><trkpt lat="43.3226971708746" lon="10.855220201945546"><ele>180.0</ele><time>2026-04-26T14:38:36.999Z</time></trkpt><trkpt lat="43.32266282254014" lon="10.85497626807223"><ele>182.0</ele><time>2026-04-26T14:38:37.999Z</time></trkpt><trkpt lat="43.32262229606166" lon="10.854763644568683"><ele>184.0</ele><time>2026-04-26T14:38:38.999Z</time></trkpt><trkpt lat="43.32257552750897" lon="10.854580179150014"><ele>186.0</ele><time>2026-04-26T14:38:39.999Z</time></trkpt><trkpt lat="43.322501294220835" lon="10.854390744267361"><ele>188.0</ele><time>2026-04-26T14:38:40.999Z</time></trkpt><trkpt lat="43.322387117463364" lon="10.854192289064418"><ele>188.0</ele><time>2026-04-26T14:38:41.999Z</time></trkpt><trkpt lat="43.32224386812403" lon="10.853980660115862"><ele>188.0</ele><time>2026-04-26T14:38:42.999Z</time></trkpt><trkpt lat="43.322091308370645" lon="10.853755513048425"><ele>188.0</ele><time>2026-04-26T14:38:43.999Z</time></trkpt><trkpt lat="43.32193512226078" lon="10.853516506831587"><ele>191.5</ele><time>2026-04-26T14:38:44.999Z</time></trkpt><trkpt lat="43.32177786679732" lon="10.853276094035465"><ele>195.0</ele><time>2026-04-26T14:38:45.999Z</time></trkpt><trkpt lat="43.321615215993646" lon="10.853040540803635"><ele>195.0</ele><time>2026-04-26T14:38:46.999Z</time></trkpt><trkpt lat="43.32144970360825" lon="10.85280240680471"><ele>195.0</ele><time>2026-04-26T14:38:48Z</time></trkpt><trkpt lat="43.321275926195796" lon="10.852552792175747"><ele>196.0</ele><time>2026-04-26T14:38:49Z</time></trkpt><trkpt lat="43.32110863273464" lon="10.85229554253902"><ele>197.0</ele><time>2026-04-26T14:38:50Z</time></trkpt><trkpt lat="43.320950313371675" lon="10.852045569877065"><ele>197.0</ele><time>2026-04-26T14:38:51Z</time></trkpt><trkpt lat="43.3207964680033" lon="10.851810006098786"><ele>197.0</ele><time>2026-04-26T14:38:52Z</time></trkpt><trkpt lat="43.32065775401465" lon="10.851596427042802"><ele>197.0</ele><time>2026-04-26T14:38:53Z</time></trkpt><trkpt lat="43.320530592205685" lon="10.851394052140577"><ele>196.66666666666669</ele><time>2026-04-26T14:38:54Z</time></trkpt><trkpt lat="43.320397699797304" lon="10.851173845425137"><ele>196.33333333333331</ele><time>2026-04-26T14:38:55Z</time></trkpt><trkpt lat="43.32027098628701" lon="10.850943068806208"><ele>196.0</ele><time>2026-04-26T14:38:56Z</time></trkpt><trkpt lat="43.3201506023591" lon="10.850687315430159"><ele>203.0</ele><time>2026-04-26T14:38:57Z</time></trkpt><trkpt lat="43.320030227841805" lon="10.850405843009426"><ele>210.0</ele><time>2026-04-26T14:38:58Z</time></trkpt><trkpt lat="43.31990709698173" lon="10.850115766630722"><ele>212.0</ele><time>2026-04-26T14:38:59Z</time></trkpt><trkpt lat="43.31977898858102" lon="10.8498156562022"><ele>214.0</ele><time>2026-04-26T14:39:00Z</time></trkpt><trkpt lat="43.31965215418815" lon="10.849525019015262"><ele>218.66666666666666</ele><time>2026-04-26T14:39:01Z</time></trkpt><trkpt lat="43.31953571229598" lon="10.84925839630305"><ele>223.33333333333331</ele><time>2026-04-26T14:39:02Z</time></trkpt><trkpt lat="43.31942883360113" lon="10.849000531820028"><ele>228.0</ele><time>2026-04-26T14:39:03Z</time></trkpt><trkpt lat="43.31932956423791" lon="10.848747058705744"><ele>228.0</ele><time>2026-04-26T14:39:04Z</time></trkpt><trkpt lat="43.31924517404624" lon="10.848487280404921"><ele>228.0</ele><time>2026-04-26T14:39:05Z</time></trkpt><trkpt lat="43.31918336582675" lon="10.84823218233105"><ele>228.0</ele><time>2026-04-26T14:39:06Z</time></trkpt><trkpt lat="43.319149533195635" lon="10.847993704296107"><ele>227.66666666666669</ele><time>2026-04-26T14:39:07Z</time></trkpt><trkpt lat="43.31914071265189" lon="10.847747969564347"><ele>227.33333333333334</ele><time>2026-04-26T14:39:08Z</time></trkpt><trkpt lat="43.31915682946025" lon="10.847515808252918"><ele>227.0</ele><time>2026-04-26T14:39:09Z</time></trkpt><trkpt lat="43.319174315340575" lon="10.847309306198893"><ele>227.39999999999998</ele><time>2026-04-26T14:39:10Z</time></trkpt><trkpt lat="43.319156960372126" lon="10.847131710213176"><ele>227.79999999999998</ele><time>2026-04-26T14:39:11Z</time></trkpt><trkpt lat="43.319112139578884" lon="10.847006400374317"><ele>228.2</ele><time>2026-04-26T14:39:12Z</time></trkpt><trkpt lat="43.31903827229196" lon="10.846933922915218"><ele>228.6</ele><time>2026-04-26T14:39:13.001Z</time></trkpt><trkpt lat="43.3189465721811" lon="10.846928008319946"><ele>229.0</ele><time>2026-04-26T14:39:14.001Z</time></trkpt><trkpt lat="43.3188386002842" lon="10.846970373306588"><ele>233.33333333333331</ele><time>2026-04-26T14:39:15.001Z</time></trkpt><trkpt lat="43.318725416432706" lon="10.84706981089634"><ele>237.66666666666669</ele><time>2026-04-26T14:39:16.001Z</time></trkpt><trkpt lat="43.318612228172604" lon="10.847210530592129"><ele>242.0</ele><time>2026-04-26T14:39:17.001Z</time></trkpt><trkpt lat="43.31848810742267" lon="10.84736745007145"><ele>242.0</ele><time>2026-04-26T14:39:18.001Z</time></trkpt><trkpt lat="43.31835325541816" lon="10.847517068839123"><ele>242.0</ele><time>2026-04-26T14:39:19.001Z</time></trkpt><trkpt lat="43.318226839183026" lon="10.847645766392278"><ele>242.0</ele><time>2026-04-26T14:39:20.001Z</time></trkpt><trkpt lat="43.31807836312299" lon="10.847754485286632"><ele>241.33333333333334</ele><time>2026-04-26T14:39:21.001Z</time></trkpt><trkpt lat="43.31793116367648" lon="10.847875392372199"><ele>240.66666666666669</ele><time>2026-04-26T14:39:22.001Z</time></trkpt><trkpt lat="43.317768143432495" lon="10.847915820518638"><ele>240.0</ele><time>2026-04-26T14:39:23.001Z</time></trkpt><trkpt lat="43.31761003342556" lon="10.847933742759306"><ele>240.0</ele><time>2026-04-26T14:39:24.001Z</time></trkpt><trkpt lat="43.31743677442302" lon="10.847923668251484"><ele>240.0</ele><time>2026-04-26T14:39:25.001Z</time></trkpt><trkpt lat="43.317237726203416" lon="10.847912121269493"><ele>240.0</ele><time>2026-04-26T14:39:26.001Z</time></trkpt><trkpt lat="43.31702164845027" lon="10.84786038214773"><ele>241.5</ele><time>2026-04-26T14:39:27.001Z</time></trkpt><trkpt lat="43.31679036840641" lon="10.847815303619477"><ele>243.0</ele><time>2026-04-26T14:39:28.001Z</time></trkpt><trkpt lat="43.31654388161339" lon="10.847775852396262"><ele>246.33333333333331</ele><time>2026-04-26T14:39:29.001Z</time></trkpt><trkpt lat="43.316314300039366" lon="10.847742560967811"><ele>249.66666666666666</ele><time>2026-04-26T14:39:30.001Z</time></trkpt><trkpt lat="43.31611048022984" lon="10.847703880799182"><ele>253.0</ele><time>2026-04-26T14:39:31.001Z</time></trkpt><trkpt lat="43.31592656710007" lon="10.847665264052313"><ele>253.0</ele><time>2026-04-26T14:39:32.001Z</time></trkpt><trkpt lat="43.31576528449418" lon="10.84763797007933"><ele>253.0</ele><time>2026-04-26T14:39:33.001Z</time></trkpt><trkpt lat="43.315634716519064" lon="10.847621502398427"><ele>253.0</ele><time>2026-04-26T14:39:34.001Z</time></trkpt><trkpt lat="43.315521800748755" lon="10.847618455409467"><ele>253.0</ele><time>2026-04-26T14:39:35.001Z</time></trkpt><trkpt lat="43.31540913845669" lon="10.847650502932096"><ele>255.25</ele><time>2026-04-26T14:39:36.001Z</time></trkpt><trkpt lat="43.315304561258095" lon="10.847723349922653"><ele>257.5</ele><time>2026-04-26T14:39:37.001Z</time></trkpt><trkpt lat="43.31520194376002" lon="10.847831255789242"><ele>259.75</ele><time>2026-04-26T14:39:38.001Z</time></trkpt><trkpt lat="43.31509485470772" lon="10.847910830508443"><ele>262.0</ele><time>2026-04-26T14:39:39.001Z</time></trkpt><trkpt lat="43.31499211817517" lon="10.847944206290281"><ele>262.0</ele><time>2026-04-26T14:39:40.001Z</time></trkpt><trkpt lat="43.31487449786881" lon="10.847928082949865"><ele>262.0</ele><time>2026-04-26T14:39:41.001Z</time></trkpt><trkpt lat="43.31473894821979" lon="10.847862568998567"><ele>262.0</ele><time>2026-04-26T14:39:42.001Z</time></trkpt><trkpt lat="43.3146076107252" lon="10.84777540638775"><ele>262.0</ele><time>2026-04-26T14:39:43.001Z</time></trkpt><trkpt lat="43.31448465162994" lon="10.8477541416899"><ele>264.0</ele><time>2026-04-26T14:39:44.001Z</time></trkpt><trkpt lat="43.31434715339528" lon="10.847770419612937"><ele>266.0</ele><time>2026-04-26T14:39:45.002Z</time></trkpt><trkpt lat="43.31419310688033" lon="10.847830027616967"><ele>268.0</ele><time>2026-04-26T14:39:46.002Z</time></trkpt><trkpt lat="43.314022763597784" lon="10.847905555867342"><ele>268.0</ele><time>2026-04-26T14:39:47.002Z</time></trkpt><trkpt lat="43.313846006207505" lon="10.847983555237974"><ele>268.0</ele><time>2026-04-26T14:39:48.002Z</time></trkpt><trkpt lat="43.313689235562734" lon="10.848053318665526"><ele>268.0</ele><time>2026-04-26T14:39:49.002Z</time></trkpt><trkpt lat="43.31354411541182" lon="10.848104767539485"><ele>268.0</ele><time>2026-04-26T14:39:50.002Z</time></trkpt><trkpt lat="43.31340876897094" lon="10.848116772008607"><ele>268.0</ele><time>2026-04-26T14:39:51.002Z</time></trkpt><trkpt lat="43.313279990160986" lon="10.848087585487798"><ele>268.0</ele><time>2026-04-26T14:39:52.002Z</time></trkpt><trkpt lat="43.31316740601411" lon="10.84801083549666"><ele>268.0</ele><time>2026-04-26T14:39:53.002Z</time></trkpt><trkpt lat="43.313073727009304" lon="10.847902518427855"><ele>269.25</ele><time>2026-04-26T14:39:54.002Z</time></trkpt><trkpt lat="43.312984411282024" lon="10.847818330646358"><ele>270.5</ele><time>2026-04-26T14:39:55.002Z</time></trkpt><trkpt lat="43.31288997388332" lon="10.847785561397052"><ele>271.75</ele><time>2026-04-26T14:39:56.002Z</time></trkpt><trkpt lat="43.312777990009565" lon="10.847802684651146"><ele>273.0</ele><time>2026-04-26T14:39:57.002Z</time></trkpt><trkpt lat="43.31264991633599" lon="10.847860483174745"><ele>273.0</ele><time>2026-04-26T14:39:58.002Z</time></trkpt><trkpt lat="43.31251185704861" lon="10.847927678001072"><ele>273.0</ele><time>2026-04-26T14:39:59.002Z</time></trkpt><trkpt lat="43.3123686164095" lon="10.847974290461721"><ele>273.0</ele><time>2026-04-26T14:40:00.002Z</time></trkpt><trkpt lat="43.312214990269304" lon="10.847988225283364"><ele>273.0</ele><time>2026-04-26T14:40:01.002Z</time></trkpt><trkpt lat="43.31207352659489" lon="10.847960049712752"><ele>272.75</ele><time>2026-04-26T14:40:02.002Z</time></trkpt><trkpt lat="43.31195127751226" lon="10.847875592026517"><ele>272.5</ele><time>2026-04-26T14:40:03.002Z</time></trkpt><trkpt lat="43.311855762591584" lon="10.847749089506966"><ele>272.25</ele><time>2026-04-26T14:40:04.002Z</time></trkpt><trkpt lat="43.311771881259446" lon="10.847588636708329"><ele>272.0</ele><time>2026-04-26T14:40:05.002Z</time></trkpt><trkpt lat="43.31169757837781" lon="10.847437783118167"><ele>272.0</ele><time>2026-04-26T14:40:06.002Z</time></trkpt><trkpt lat="43.311611093782744" lon="10.84732597487226"><ele>272.0</ele><time>2026-04-26T14:40:07.002Z</time></trkpt><trkpt lat="43.311501138777984" lon="10.847289135048683"><ele>272.0</ele><time>2026-04-26T14:40:08.002Z</time></trkpt><trkpt lat="43.311389574854026" lon="10.847269972829977"><ele>272.0</ele><time>2026-04-26T14:40:09.002Z</time></trkpt><trkpt lat="43.31126451081121" lon="10.847306433307253"><ele>272.33333333333337</ele><time>2026-04-26T14:40:10.002Z</time></trkpt><trkpt lat="43.311135346556505" lon="10.847385223321186"><ele>272.6666666666667</ele><time>2026-04-26T14:40:11.002Z</time></trkpt><trkpt lat="43.31100489678369" lon="10.847509752256988"><ele>273.0</ele><time>2026-04-26T14:40:12.002Z</time></trkpt><trkpt lat="43.31086792038892" lon="10.84766042516104"><ele>274.3333333333333</ele><time>2026-04-26T14:40:13.002Z</time></trkpt><trkpt lat="43.31071302947694" lon="10.847831417526688"><ele>275.66666666666663</ele><time>2026-04-26T14:40:14.002Z</time></trkpt><trkpt lat="43.310557115981624" lon="10.848000623794563"><ele>277.0</ele><time>2026-04-26T14:40:15.002Z</time></trkpt><trkpt lat="43.31041014780477" lon="10.848170720823317"><ele>277.0</ele><time>2026-04-26T14:40:16.002Z</time></trkpt><trkpt lat="43.310276641845164" lon="10.848319923743954"><ele>277.0</ele><time>2026-04-26T14:40:17.002Z</time></trkpt><trkpt lat="43.31014707970843" lon="10.848448545812053"><ele>277.0</ele><time>2026-04-26T14:40:18.003Z</time></trkpt><trkpt lat="43.31000531400316" lon="10.848560866063327"><ele>276.5</ele><time>2026-04-26T14:40:19.003Z</time></trkpt><trkpt lat="43.30986682771725" lon="10.848647231511022"><ele>276.0</ele><time>2026-04-26T14:40:20.003Z</time></trkpt><trkpt lat="43.30974026133748" lon="10.848732894195056"><ele>275.5</ele><time>2026-04-26T14:40:21.003Z</time></trkpt><trkpt lat="43.3096267035293" lon="10.84883647758675"><ele>275.0</ele><time>2026-04-26T14:40:22.003Z</time></trkpt><trkpt lat="43.3095287306008" lon="10.848969078739547"><ele>275.0</ele><time>2026-04-26T14:40:23.003Z</time></trkpt><trkpt lat="43.30943776585041" lon="10.849151062530698"><ele>275.0</ele><time>2026-04-26T14:40:24.003Z</time></trkpt><trkpt lat="43.30935255023886" lon="10.849368445325432"><ele>275.0</ele><time>2026-04-26T14:40:24.999Z</time></trkpt><trkpt lat="43.30927746093737" lon="10.84958097667202"><ele>276.0</ele><time>2026-04-26T14:40:25.999Z</time></trkpt><trkpt lat="43.30920224394282" lon="10.849774163609187"><ele>277.0</ele><time>2026-04-26T14:40:26.999Z</time></trkpt><trkpt lat="43.30912506103612" lon="10.849955955862747"><ele>278.0</ele><time>2026-04-26T14:40:27.999Z</time></trkpt><trkpt lat="43.309033661927344" lon="10.850124594202084"><ele>277.0</ele><time>2026-04-26T14:40:28.999Z</time></trkpt><trkpt lat="43.30891090799761" lon="10.85029141609529"><ele>276.0</ele><time>2026-04-26T14:40:29.999Z</time></trkpt><trkpt lat="43.30875222820088" lon="10.850448523558558"><ele>275.0</ele><time>2026-04-26T14:40:30.999Z</time></trkpt><trkpt lat="43.30856531717609" lon="10.85060215968223"><ele>275.0</ele><time>2026-04-26T14:40:31.999Z</time></trkpt><trkpt lat="43.308367557734684" lon="10.850754825804518"><ele>275.0</ele><time>2026-04-26T14:40:32.999Z</time></trkpt><trkpt lat="43.30817036690534" lon="10.850918990302475"><ele>273.5</ele><time>2026-04-26T14:40:33.999Z</time></trkpt><trkpt lat="43.307966512759556" lon="10.851086189830953"><ele>272.0</ele><time>2026-04-26T14:40:34.999Z</time></trkpt><trkpt lat="43.30775433606683" lon="10.8512501924918"><ele>272.0</ele><time>2026-04-26T14:40:35.999Z</time></trkpt><trkpt lat="43.30755047930924" lon="10.851403810233645"><ele>272.0</ele><time>2026-04-26T14:40:36.999Z</time></trkpt><trkpt lat="43.30736010164514" lon="10.85154451354379"><ele>272.0</ele><time>2026-04-26T14:40:37.999Z</time></trkpt><trkpt lat="43.30717715998832" lon="10.851670210010186"><ele>271.6666666666667</ele><time>2026-04-26T14:40:38.999Z</time></trkpt><trkpt lat="43.306994010957844" lon="10.851794660277342"><ele>271.3333333333333</ele><time>2026-04-26T14:40:39.999Z</time></trkpt><trkpt lat="43.30680541061038" lon="10.851926606868474"><ele>271.0</ele><time>2026-04-26T14:40:41Z</time></trkpt><trkpt lat="43.3066251878675" lon="10.852050378358655"><ele>271.0</ele><time>2026-04-26T14:40:42Z</time></trkpt><trkpt lat="43.30643565793483" lon="10.85216707929283"><ele>271.0</ele><time>2026-04-26T14:40:43Z</time></trkpt><trkpt lat="43.30623507845963" lon="10.852274782270243"><ele>271.0</ele><time>2026-04-26T14:40:44Z</time></trkpt><trkpt lat="43.30604500095312" lon="10.852361786898443"><ele>273.0</ele><time>2026-04-26T14:40:45Z</time></trkpt><trkpt lat="43.30586785744825" lon="10.852437207184913"><ele>275.0</ele><time>2026-04-26T14:40:46Z</time></trkpt><trkpt lat="43.30570046278386" lon="10.85250801416803"><ele>277.0</ele><time>2026-04-26T14:40:47Z</time></trkpt><trkpt lat="43.3055405740345" lon="10.852582123778316"><ele>276.0</ele><time>2026-04-26T14:40:48Z</time></trkpt><trkpt lat="43.30538838696505" lon="10.852646572820168"><ele>275.0</ele><time>2026-04-26T14:40:49Z</time></trkpt><trkpt lat="43.305237967162014" lon="10.85271002012969"><ele>274.0</ele><time>2026-04-26T14:40:50Z</time></trkpt><trkpt lat="43.30509255776803" lon="10.852777201778439"><ele>274.0</ele><time>2026-04-26T14:40:51Z</time></trkpt><trkpt lat="43.3049346890399" lon="10.852866736746451"><ele>274.0</ele><time>2026-04-26T14:40:52Z</time></trkpt><trkpt lat="43.30477586578196" lon="10.852971911696454"><ele>274.0</ele><time>2026-04-26T14:40:53Z</time></trkpt><trkpt lat="43.30461302659648" lon="10.853095700718612"><ele>274.0</ele><time>2026-04-26T14:40:54Z</time></trkpt><trkpt lat="43.30445730914718" lon="10.853220139397118"><ele>274.0</ele><time>2026-04-26T14:40:55Z</time></trkpt><trkpt lat="43.30431021350522" lon="10.853348728568388"><ele>274.0</ele><time>2026-04-26T14:40:56Z</time></trkpt><trkpt lat="43.3041671488589" lon="10.85350380349155"><ele>274.0</ele><time>2026-04-26T14:40:57Z</time></trkpt><trkpt lat="43.30403036835151" lon="10.853666149489536"><ele>274.0</ele><time>2026-04-26T14:40:58Z</time></trkpt><trkpt lat="43.303909519518754" lon="10.853828375600195"><ele>274.0</ele><time>2026-04-26T14:40:59Z</time></trkpt><trkpt lat="43.303814939972334" lon="10.853969410135372"><ele>274.8333333333333</ele><time>2026-04-26T14:41:00.001Z</time></trkpt><trkpt lat="43.30374210114238" lon="10.85407223472897"><ele>275.66666666666663</ele><time>2026-04-26T14:41:01.001Z</time></trkpt><trkpt lat="43.303680550636344" lon="10.854122082126308"><ele>276.5</ele><time>2026-04-26T14:41:02.001Z</time></trkpt><trkpt lat="43.303616303352015" lon="10.854137262439394"><ele>277.3333333333333</ele><time>2026-04-26T14:41:03.001Z</time></trkpt><trkpt lat="43.30350986380833" lon="10.854042606671184"><ele>278.1666666666667</ele><time>2026-04-26T14:41:05.001Z</time></trkpt><trkpt lat="43.30350592065937" lon="10.853950434010256"><ele>279.0</ele><time>2026-04-26T14:41:06.001Z</time></trkpt><trkpt lat="43.30354256438806" lon="10.853845049649978"><ele>279.0</ele><time>2026-04-26T14:41:07.001Z</time></trkpt><trkpt lat="43.303616023179124" lon="10.853740590147424"><ele>279.0</ele><time>2026-04-26T14:41:08.001Z</time></trkpt><trkpt lat="43.30371426092093" lon="10.853628856336908"><ele>279.0</ele><time>2026-04-26T14:41:09.001Z</time></trkpt><trkpt lat="43.30380468734984" lon="10.85349831871213"><ele>279.0</ele><time>2026-04-26T14:41:10.001Z</time></trkpt><trkpt lat="43.30388522476295" lon="10.853333374577085"><ele>280.0</ele><time>2026-04-26T14:41:11.001Z</time></trkpt><trkpt lat="43.30395244394137" lon="10.853137140220666"><ele>281.0</ele><time>2026-04-26T14:41:12.001Z</time></trkpt><trkpt lat="43.30400258848984" lon="10.852920662464298"><ele>282.0</ele><time>2026-04-26T14:41:13.001Z</time></trkpt><trkpt lat="43.30403589293799" lon="10.852687421362756"><ele>282.6666666666667</ele><time>2026-04-26T14:41:14.001Z</time></trkpt><trkpt lat="43.304051459126626" lon="10.852443971811496"><ele>283.33333333333337</ele><time>2026-04-26T14:41:15.001Z</time></trkpt><trkpt lat="43.30406192838086" lon="10.852194817677772"><ele>284.0</ele><time>2026-04-26T14:41:16.001Z</time></trkpt><trkpt lat="43.3040774011028" lon="10.851941681735637"><ele>284.0</ele><time>2026-04-26T14:41:17.001Z</time></trkpt><trkpt lat="43.30409338600268" lon="10.851703387040372"><ele>284.0</ele><time>2026-04-26T14:41:18.001Z</time></trkpt><trkpt lat="43.30410891239167" lon="10.851489897750545"><ele>284.0</ele><time>2026-04-26T14:41:19.001Z</time></trkpt><trkpt lat="43.30412545018601" lon="10.851301246060519"><ele>284.0</ele><time>2026-04-26T14:41:20.001Z</time></trkpt><trkpt lat="43.304136089895735" lon="10.851141092575105"><ele>284.0</ele><time>2026-04-26T14:41:21.001Z</time></trkpt><trkpt lat="43.304145089623674" lon="10.85098724493794"><ele>284.0</ele><time>2026-04-26T14:41:22.001Z</time></trkpt><trkpt lat="43.30412993237786" lon="10.850829338022114"><ele>284.0</ele><time>2026-04-26T14:41:23.001Z</time></trkpt><trkpt lat="43.304078926671785" lon="10.850664785557269"><ele>283.5</ele><time>2026-04-26T14:41:24.001Z</time></trkpt><trkpt lat="43.30400331251419" lon="10.850498672832932"><ele>283.0</ele><time>2026-04-26T14:41:25.001Z</time></trkpt><trkpt lat="43.30391974597234" lon="10.850339604586066"><ele>282.5</ele><time>2026-04-26T14:41:26.001Z</time></trkpt><trkpt lat="43.30385044563749" lon="10.850191338498732"><ele>282.0</ele><time>2026-04-26T14:41:27.001Z</time></trkpt><trkpt lat="43.303792616125264" lon="10.850018330089858"><ele>279.3333333333333</ele><time>2026-04-26T14:41:28.001Z</time></trkpt><trkpt lat="43.303779510392935" lon="10.849805708961052"><ele>276.66666666666663</ele><time>2026-04-26T14:41:29.002Z</time></trkpt><trkpt lat="43.30375983952774" lon="10.849572417321665"><ele>274.0</ele><time>2026-04-26T14:41:30.002Z</time></trkpt><trkpt lat="43.303742175813525" lon="10.84932340512884"><ele>274.0</ele><time>2026-04-26T14:41:31.002Z</time></trkpt><trkpt lat="43.30372343094163" lon="10.84907574011449"><ele>274.0</ele><time>2026-04-26T14:41:32.002Z</time></trkpt><trkpt lat="43.30368914617496" lon="10.848840725996817"><ele>274.0</ele><time>2026-04-26T14:41:33.002Z</time></trkpt><trkpt lat="43.303670507839456" lon="10.84860719973542"><ele>274.66666666666663</ele><time>2026-04-26T14:41:34.002Z</time></trkpt><trkpt lat="43.3036555555067" lon="10.848391303622831"><ele>275.3333333333333</ele><time>2026-04-26T14:41:35.002Z</time></trkpt><trkpt lat="43.303630595074544" lon="10.84816498739679"><ele>276.0</ele><time>2026-04-26T14:41:36.002Z</time></trkpt><trkpt lat="43.30358311030107" lon="10.84792524589824"><ele>276.0</ele><time>2026-04-26T14:41:37.002Z</time></trkpt><trkpt lat="43.30352646408632" lon="10.847707076154103"><ele>276.0</ele><time>2026-04-26T14:41:38.002Z</time></trkpt><trkpt lat="43.30345811622109" lon="10.847519074826716"><ele>276.0</ele><time>2026-04-26T14:41:39.002Z</time></trkpt><trkpt lat="43.303400665918225" lon="10.847306256738403"><ele>276.3333333333333</ele><time>2026-04-26T14:41:40.002Z</time></trkpt><trkpt lat="43.30330462766191" lon="10.8470935277703"><ele>276.66666666666663</ele><time>2026-04-26T14:41:41.002Z</time></trkpt><trkpt lat="43.30319843622938" lon="10.846872528787015"><ele>277.0</ele><time>2026-04-26T14:41:42.002Z</time></trkpt><trkpt lat="43.30308239798501" lon="10.846648144682899"><ele>275.66666666666663</ele><time>2026-04-26T14:41:43.002Z</time></trkpt><trkpt lat="43.30295861924918" lon="10.846443558779466"><ele>274.3333333333333</ele><time>2026-04-26T14:41:44.002Z</time></trkpt><trkpt lat="43.302859064092765" lon="10.846242551063384"><ele>273.0</ele><time>2026-04-26T14:41:45.002Z</time></trkpt><trkpt lat="43.302775252549026" lon="10.846048347802096"><ele>274.0</ele><time>2026-04-26T14:41:46.002Z</time></trkpt><trkpt lat="43.30268187158752" lon="10.845890546766048"><ele>275.0</ele><time>2026-04-26T14:41:47.002Z</time></trkpt><trkpt lat="43.302627768571156" lon="10.845748007401275"><ele>276.0</ele><time>2026-04-26T14:41:48.002Z</time></trkpt><trkpt lat="43.302594509945415" lon="10.845607200797112"><ele>277.0</ele><time>2026-04-26T14:41:49.002Z</time></trkpt><trkpt lat="43.30257867068057" lon="10.845440536201131"><ele>277.0</ele><time>2026-04-26T14:41:50.002Z</time></trkpt><trkpt lat="43.30257564421722" lon="10.845238567750227"><ele>277.0</ele><time>2026-04-26T14:41:51.002Z</time></trkpt><trkpt lat="43.30257583317589" lon="10.845039479198048"><ele>277.0</ele><time>2026-04-26T14:41:52.002Z</time></trkpt><trkpt lat="43.302582904848244" lon="10.844843629457076"><ele>277.0</ele><time>2026-04-26T14:41:53.002Z</time></trkpt><trkpt lat="43.30262320045599" lon="10.84466336148483"><ele>277.5</ele><time>2026-04-26T14:41:54.002Z</time></trkpt><trkpt lat="43.30266489456197" lon="10.844501604527819"><ele>278.0</ele><time>2026-04-26T14:41:55.002Z</time></trkpt><trkpt lat="43.3027209036232" lon="10.844348859564995"><ele>278.5</ele><time>2026-04-26T14:41:56.002Z</time></trkpt><trkpt lat="43.30278157683966" lon="10.844197709635582"><ele>279.0</ele><time>2026-04-26T14:41:57.002Z</time></trkpt><trkpt lat="43.30282898805365" lon="10.844035167026254"><ele>279.25</ele><time>2026-04-26T14:41:58.002Z</time></trkpt><trkpt lat="43.30284186358306" lon="10.843877793944628"><ele>279.5</ele><time>2026-04-26T14:41:59.002Z</time></trkpt><trkpt lat="43.30284758707653" lon="10.843732182294431"><ele>279.75</ele><time>2026-04-26T14:42:00.002Z</time></trkpt><trkpt lat="43.30282543791462" lon="10.843584870480276"><ele>280.0</ele><time>2026-04-26T14:42:01.002Z</time></trkpt><trkpt lat="43.302784891438556" lon="10.843426816393697"><ele>278.75</ele><time>2026-04-26T14:42:02.003Z</time></trkpt><trkpt lat="43.302722748279606" lon="10.843263515410642"><ele>277.5</ele><time>2026-04-26T14:42:03.003Z</time></trkpt><trkpt lat="43.30264628191562" lon="10.843113691038715"><ele>276.25</ele><time>2026-04-26T14:42:04.003Z</time></trkpt><trkpt lat="43.30256369969036" lon="10.842977349959266"><ele>275.0</ele><time>2026-04-26T14:42:05.003Z</time></trkpt><trkpt lat="43.302463382582864" lon="10.842840652014416"><ele>275.0</ele><time>2026-04-26T14:42:06.003Z</time></trkpt><trkpt lat="43.302332415542075" lon="10.842693124270458"><ele>275.0</ele><time>2026-04-26T14:42:07.003Z</time></trkpt><trkpt lat="43.30218304331968" lon="10.842536751109565"><ele>275.0</ele><time>2026-04-26T14:42:08.003Z</time></trkpt><trkpt lat="43.302030949670836" lon="10.842370947998454"><ele>272.6666666666667</ele><time>2026-04-26T14:42:09.003Z</time></trkpt><trkpt lat="43.3018911479618" lon="10.842213284946734"><ele>270.3333333333333</ele><time>2026-04-26T14:42:10.003Z</time></trkpt><trkpt lat="43.301755689365876" lon="10.84205071676808"><ele>268.0</ele><time>2026-04-26T14:42:11.003Z</time></trkpt><trkpt lat="43.301639618121136" lon="10.841863432319574"><ele>268.3333333333333</ele><time>2026-04-26T14:42:12.003Z</time></trkpt><trkpt lat="43.30153404819107" lon="10.841660867204807"><ele>268.6666666666667</ele><time>2026-04-26T14:42:13.003Z</time></trkpt><trkpt lat="43.30142865351988" lon="10.841449550449305"><ele>269.0</ele><time>2026-04-26T14:42:14.003Z</time></trkpt><trkpt lat="43.30131843567598" lon="10.841230722011836"><ele>269.6666666666667</ele><time>2026-04-26T14:42:15.003Z</time></trkpt><trkpt lat="43.3012241324061" lon="10.841043875859702"><ele>270.3333333333333</ele><time>2026-04-26T14:42:16.003Z</time></trkpt><trkpt lat="43.301145848612855" lon="10.84086257387931"><ele>271.0</ele><time>2026-04-26T14:42:17.003Z</time></trkpt><trkpt lat="43.30109129975421" lon="10.840682357238002"><ele>271.0</ele><time>2026-04-26T14:42:18.003Z</time></trkpt><trkpt lat="43.301074447753365" lon="10.840484720036324"><ele>271.0</ele><time>2026-04-26T14:42:19.003Z</time></trkpt><trkpt lat="43.30103557623482" lon="10.840284117564504"><ele>271.0</ele><time>2026-04-26T14:42:20.003Z</time></trkpt><trkpt lat="43.300982155354184" lon="10.840063806462618"><ele>271.3333333333333</ele><time>2026-04-26T14:42:21.003Z</time></trkpt><trkpt lat="43.30092183383373" lon="10.839845513077234"><ele>271.6666666666667</ele><time>2026-04-26T14:42:22.003Z</time></trkpt><trkpt lat="43.30089477619432" lon="10.83962517283101"><ele>272.0</ele><time>2026-04-26T14:42:23.003Z</time></trkpt><trkpt lat="43.30087617019193" lon="10.839394529304812"><ele>271.6666666666667</ele><time>2026-04-26T14:42:24.003Z</time></trkpt><trkpt lat="43.30087626708414" lon="10.839159325363372"><ele>271.3333333333333</ele><time>2026-04-26T14:42:25.003Z</time></trkpt><trkpt lat="43.300879011872944" lon="10.83894778547401"><ele>271.0</ele><time>2026-04-26T14:42:26.003Z</time></trkpt><trkpt lat="43.300877544913966" lon="10.838753590496609"><ele>271.0</ele><time>2026-04-26T14:42:27.003Z</time></trkpt><trkpt lat="43.30085853374102" lon="10.838589095479543"><ele>271.0</ele><time>2026-04-26T14:42:28.003Z</time></trkpt><trkpt lat="43.300814646037644" lon="10.838403294937835"><ele>271.0</ele><time>2026-04-26T14:42:29.003Z</time></trkpt><trkpt lat="43.30075464869458" lon="10.838220255200238"><ele>271.0</ele><time>2026-04-26T14:42:30.003Z</time></trkpt><trkpt lat="43.30070206798428" lon="10.83805721369304"><ele>270.5</ele><time>2026-04-26T14:42:31Z</time></trkpt><trkpt lat="43.300657829334426" lon="10.837888836582767"><ele>270.0</ele><time>2026-04-26T14:42:32Z</time></trkpt><trkpt lat="43.30062621618086" lon="10.837717261928862"><ele>269.5</ele><time>2026-04-26T14:42:33Z</time></trkpt><trkpt lat="43.300607289608" lon="10.83755102967068"><ele>269.0</ele><time>2026-04-26T14:42:34Z</time></trkpt><trkpt lat="43.30061580155877" lon="10.837383865486602"><ele>267.0</ele><time>2026-04-26T14:42:35Z</time></trkpt><trkpt lat="43.30065602948728" lon="10.837194247619784"><ele>265.0</ele><time>2026-04-26T14:42:36Z</time></trkpt><trkpt lat="43.3007036232571" lon="10.836956860111092"><ele>263.0</ele><time>2026-04-26T14:42:37Z</time></trkpt><trkpt lat="43.30075115493183" lon="10.836711846176108"><ele>262.0</ele><time>2026-04-26T14:42:38Z</time></trkpt><trkpt lat="43.30079455226372" lon="10.836479058192552"><ele>261.0</ele><time>2026-04-26T14:42:39Z</time></trkpt><trkpt lat="43.300841276297774" lon="10.836239904931404"><ele>260.0</ele><time>2026-04-26T14:42:40Z</time></trkpt><trkpt lat="43.30088504759541" lon="10.83601586500043"><ele>258.33333333333337</ele><time>2026-04-26T14:42:41Z</time></trkpt><trkpt lat="43.30092624945283" lon="10.835799414067722"><ele>256.6666666666667</ele><time>2026-04-26T14:42:42Z</time></trkpt><trkpt lat="43.30094860977384" lon="10.835582136472395"><ele>255.0</ele><time>2026-04-26T14:42:43Z</time></trkpt><trkpt lat="43.30100119526676" lon="10.835378869217617"><ele>255.0</ele><time>2026-04-26T14:42:44Z</time></trkpt><trkpt lat="43.30103154485408" lon="10.835177898241753"><ele>255.0</ele><time>2026-04-26T14:42:45Z</time></trkpt><trkpt lat="43.30104441811086" lon="10.834984224132324"><ele>255.0</ele><time>2026-04-26T14:42:46Z</time></trkpt><trkpt lat="43.30101886011715" lon="10.834798317015663"><ele>255.0</ele><time>2026-04-26T14:42:47Z</time></trkpt><trkpt lat="43.30098685678254" lon="10.834606390420964"><ele>254.33333333333331</ele><time>2026-04-26T14:42:48Z</time></trkpt><trkpt lat="43.30093742000684" lon="10.834384546251497"><ele>253.66666666666666</ele><time>2026-04-26T14:42:49Z</time></trkpt><trkpt lat="43.30089332324243" lon="10.834161361825014"><ele>253.0</ele><time>2026-04-26T14:42:50Z</time></trkpt><trkpt lat="43.30086625427818" lon="10.833955040297893"><ele>252.25</ele><time>2026-04-26T14:42:51Z</time></trkpt><trkpt lat="43.300859864076514" lon="10.833752099533472"><ele>251.5</ele><time>2026-04-26T14:42:52Z</time></trkpt><trkpt lat="43.300816300561024" lon="10.833560261696354"><ele>250.75</ele><time>2026-04-26T14:42:53Z</time></trkpt><trkpt lat="43.300765924774495" lon="10.833381689263769"><ele>250.0</ele><time>2026-04-26T14:42:54Z</time></trkpt><trkpt lat="43.300696639041774" lon="10.833216640250944"><ele>250.0</ele><time>2026-04-26T14:42:55Z</time></trkpt><trkpt lat="43.30062873612087" lon="10.833058568840919"><ele>250.0</ele><time>2026-04-26T14:42:56Z</time></trkpt><trkpt lat="43.300582820884465" lon="10.832893017683855"><ele>250.0</ele><time>2026-04-26T14:42:57Z</time></trkpt><trkpt lat="43.300599810276765" lon="10.832719335308608"><ele>250.0</ele><time>2026-04-26T14:42:58Z</time></trkpt><trkpt lat="43.300631726534455" lon="10.832545733965238"><ele>249.25</ele><time>2026-04-26T14:42:59Z</time></trkpt><trkpt lat="43.300655915459856" lon="10.83236295636509"><ele>248.5</ele><time>2026-04-26T14:43:00Z</time></trkpt><trkpt lat="43.30065930775833" lon="10.832178507170111"><ele>247.75</ele><time>2026-04-26T14:43:01Z</time></trkpt><trkpt lat="43.300656960921515" lon="10.831997858594216"><ele>247.0</ele><time>2026-04-26T14:43:02Z</time></trkpt><trkpt lat="43.300623692432616" lon="10.831829861527789"><ele>243.25</ele><time>2026-04-26T14:43:03Z</time></trkpt><trkpt lat="43.30056288580758" lon="10.83168081304243"><ele>239.5</ele><time>2026-04-26T14:43:04.001Z</time></trkpt><trkpt lat="43.30048722377258" lon="10.83155117724317"><ele>235.75</ele><time>2026-04-26T14:43:05.001Z</time></trkpt><trkpt lat="43.30038677255477" lon="10.831440098829841"><ele>232.0</ele><time>2026-04-26T14:43:06.001Z</time></trkpt><trkpt lat="43.30029075597439" lon="10.83133277011458"><ele>232.0</ele><time>2026-04-26T14:43:07.001Z</time></trkpt><trkpt lat="43.30020985683584" lon="10.831229847585037"><ele>232.0</ele><time>2026-04-26T14:43:08.001Z</time></trkpt><trkpt lat="43.300157847943446" lon="10.831147873956676"><ele>232.0</ele><time>2026-04-26T14:43:09.001Z</time></trkpt><trkpt lat="43.300134476267054" lon="10.831037479620244"><ele>232.0</ele><time>2026-04-26T14:43:10.001Z</time></trkpt><trkpt lat="43.300162653163255" lon="10.83088936499655"><ele>232.0</ele><time>2026-04-26T14:43:11.001Z</time></trkpt><trkpt lat="43.30019902643887" lon="10.830702755826417"><ele>231.66666666666666</ele><time>2026-04-26T14:43:12.001Z</time></trkpt><trkpt lat="43.30020650930485" lon="10.830489143654045"><ele>231.33333333333331</ele><time>2026-04-26T14:43:13.001Z</time></trkpt><trkpt lat="43.30019771565102" lon="10.830265565985712"><ele>231.0</ele><time>2026-04-26T14:43:14.001Z</time></trkpt><trkpt lat="43.300163661762454" lon="10.830032428383495"><ele>230.33333333333331</ele><time>2026-04-26T14:43:15.001Z</time></trkpt><trkpt lat="43.30012046087281" lon="10.829815129903267"><ele>229.66666666666666</ele><time>2026-04-26T14:43:16.001Z</time></trkpt><trkpt lat="43.30005943562534" lon="10.829614811996331"><ele>229.0</ele><time>2026-04-26T14:43:17.001Z</time></trkpt><trkpt lat="43.30000773781369" lon="10.829419716901947"><ele>228.5</ele><time>2026-04-26T14:43:18.001Z</time></trkpt><trkpt lat="43.299935909305326" lon="10.829251795287755"><ele>228.0</ele><time>2026-04-26T14:43:19.001Z</time></trkpt><trkpt lat="43.29989140213454" lon="10.829112775358432"><ele>227.5</ele><time>2026-04-26T14:43:20.001Z</time></trkpt><trkpt lat="43.29986581000273" lon="10.828982100332224"><ele>227.0</ele><time>2026-04-26T14:43:21.001Z</time></trkpt><trkpt lat="43.29987211767571" lon="10.828838676365265"><ele>227.0</ele><time>2026-04-26T14:43:22.001Z</time></trkpt><trkpt lat="43.29990674154385" lon="10.828689940122377"><ele>227.0</ele><time>2026-04-26T14:43:23.001Z</time></trkpt><trkpt lat="43.29996880866068" lon="10.828549512418858"><ele>227.0</ele><time>2026-04-26T14:43:24.001Z</time></trkpt><trkpt lat="43.3000146577694" lon="10.828411819545222"><ele>227.0</ele><time>2026-04-26T14:43:25.001Z</time></trkpt><trkpt lat="43.30002043796469" lon="10.828265163556003"><ele>226.0</ele><time>2026-04-26T14:43:26.001Z</time></trkpt><trkpt lat="43.299990691960545" lon="10.828116936709012"><ele>225.0</ele><time>2026-04-26T14:43:27.001Z</time></trkpt><trkpt lat="43.299972783810624" lon="10.827986194279083"><ele>224.0</ele><time>2026-04-26T14:43:28.001Z</time></trkpt><trkpt lat="43.2999945913087" lon="10.82787335059666"><ele>223.0</ele><time>2026-04-26T14:43:29.001Z</time></trkpt><trkpt lat="43.300076641659956" lon="10.827784601526387"><ele>222.0</ele><time>2026-04-26T14:43:30.001Z</time></trkpt><trkpt lat="43.30020221114333" lon="10.827715767424609"><ele>221.0</ele><time>2026-04-26T14:43:31.001Z</time></trkpt><trkpt lat="43.30037534253434" lon="10.827605297692678"><ele>220.0</ele><time>2026-04-26T14:43:32.001Z</time></trkpt><trkpt lat="43.30053314629519" lon="10.827495045553647"><ele>219.0</ele><time>2026-04-26T14:43:33.001Z</time></trkpt><trkpt lat="43.30068564020166" lon="10.827399754276483"><ele>219.0</ele><time>2026-04-26T14:43:34.001Z</time></trkpt><trkpt lat="43.30083712526622" lon="10.827307626208881"><ele>219.0</ele><time>2026-04-26T14:43:35.001Z</time></trkpt><trkpt lat="43.30097948720912" lon="10.827188758800869"><ele>219.0</ele><time>2026-04-26T14:43:36.002Z</time></trkpt><trkpt lat="43.30112739142911" lon="10.8270771105861"><ele>219.0</ele><time>2026-04-26T14:43:37.002Z</time></trkpt><trkpt lat="43.30125691816854" lon="10.826915001876454"><ele>219.0</ele><time>2026-04-26T14:43:38.002Z</time></trkpt><trkpt lat="43.30138608616792" lon="10.826771680310015"><ele>219.0</ele><time>2026-04-26T14:43:39.002Z</time></trkpt><trkpt lat="43.301508868082365" lon="10.8266330729984"><ele>216.75</ele><time>2026-04-26T14:43:40.002Z</time></trkpt><trkpt lat="43.301625117294364" lon="10.8265018867806"><ele>214.5</ele><time>2026-04-26T14:43:41.002Z</time></trkpt><trkpt lat="43.30172604285239" lon="10.826381810670098"><ele>212.25</ele><time>2026-04-26T14:43:42.002Z</time></trkpt><trkpt lat="43.30182193263337" lon="10.826270673722034"><ele>210.0</ele><time>2026-04-26T14:43:43.002Z</time></trkpt><trkpt lat="43.30191944882379" lon="10.826193626180064"><ele>210.0</ele><time>2026-04-26T14:43:44.002Z</time></trkpt><trkpt lat="43.302043304758676" lon="10.826140852890077"><ele>210.0</ele><time>2026-04-26T14:43:45.002Z</time></trkpt><trkpt lat="43.30218032229327" lon="10.826120079802202"><ele>210.0</ele><time>2026-04-26T14:43:46.002Z</time></trkpt><trkpt lat="43.30231646443046" lon="10.826110534067523"><ele>210.0</ele><time>2026-04-26T14:43:47.002Z</time></trkpt><trkpt lat="43.302401908751136" lon="10.826138131592964"><ele>209.6</ele><time>2026-04-26T14:43:48.002Z</time></trkpt><trkpt lat="43.302469521220814" lon="10.826201049409285"><ele>209.2</ele><time>2026-04-26T14:43:49.002Z</time></trkpt><trkpt lat="43.30250888894309" lon="10.826310921495935"><ele>208.8</ele><time>2026-04-26T14:43:50.002Z</time></trkpt><trkpt lat="43.30253651369395" lon="10.826457582791134"><ele>208.4</ele><time>2026-04-26T14:43:51.002Z</time></trkpt><trkpt lat="43.30258171401798" lon="10.826636984387017"><ele>208.0</ele><time>2026-04-26T14:43:52.002Z</time></trkpt><trkpt lat="43.302636774775536" lon="10.826824992444067"><ele>209.5</ele><time>2026-04-26T14:43:53.002Z</time></trkpt><trkpt lat="43.30269797618778" lon="10.826977562342629"><ele>211.0</ele><time>2026-04-26T14:43:54.002Z</time></trkpt><trkpt lat="43.302747053776855" lon="10.827124335993307"><ele>212.5</ele><time>2026-04-26T14:43:55.002Z</time></trkpt><trkpt lat="43.302805460794765" lon="10.827244800002463"><ele>214.0</ele><time>2026-04-26T14:43:56.002Z</time></trkpt><trkpt lat="43.302880651453435" lon="10.827342443189332"><ele>214.0</ele><time>2026-04-26T14:43:57.002Z</time></trkpt><trkpt lat="43.302974292255094" lon="10.827400982409923"><ele>213.99999999999997</ele><time>2026-04-26T14:43:58.002Z</time></trkpt><trkpt lat="43.303103597476166" lon="10.827435800575437"><ele>213.99999999999997</ele><time>2026-04-26T14:43:59.002Z</time></trkpt><trkpt lat="43.30321490074146" lon="10.82743789348143"><ele>214.0</ele><time>2026-04-26T14:44:00.002Z</time></trkpt><trkpt lat="43.30331628397919" lon="10.827430566477052"><ele>214.0</ele><time>2026-04-26T14:44:01.002Z</time></trkpt><trkpt lat="43.30341191700236" lon="10.82738401717164"><ele>212.5</ele><time>2026-04-26T14:44:02.002Z</time></trkpt><trkpt lat="43.30349715283353" lon="10.827298802022439"><ele>211.0</ele><time>2026-04-26T14:44:03.002Z</time></trkpt><trkpt lat="43.30355602538309" lon="10.827156088027051"><ele>209.5</ele><time>2026-04-26T14:44:04.002Z</time></trkpt><trkpt lat="43.30364734601454" lon="10.827021779262619"><ele>208.0</ele><time>2026-04-26T14:44:05.002Z</time></trkpt><trkpt lat="43.30372587102694" lon="10.826878063316522"><ele>207.4</ele><time>2026-04-26T14:44:06.002Z</time></trkpt><trkpt lat="43.30379775871533" lon="10.82675223581006"><ele>206.8</ele><time>2026-04-26T14:44:07.002Z</time></trkpt><trkpt lat="43.30386480807297" lon="10.826633434201726"><ele>206.2</ele><time>2026-04-26T14:44:08.002Z</time></trkpt><trkpt lat="43.30392203995762" lon="10.826529638349122"><ele>205.6</ele><time>2026-04-26T14:44:09.003Z</time></trkpt><trkpt lat="43.30397170347457" lon="10.826438873412078"><ele>205.0</ele><time>2026-04-26T14:44:10.003Z</time></trkpt><trkpt lat="43.30401961783927" lon="10.826348782017368"><ele>204.75</ele><time>2026-04-26T14:44:11.003Z</time></trkpt><trkpt lat="43.30406114183476" lon="10.826229420365307"><ele>204.5</ele><time>2026-04-26T14:44:12.003Z</time></trkpt><trkpt lat="43.304125521568906" lon="10.826099577471824"><ele>204.25</ele><time>2026-04-26T14:44:13.003Z</time></trkpt><trkpt lat="43.30420006692985" lon="10.825962140024933"><ele>204.0</ele><time>2026-04-26T14:44:14.003Z</time></trkpt><trkpt lat="43.30427787866241" lon="10.825813045350577"><ele>203.0</ele><time>2026-04-26T14:44:15.003Z</time></trkpt><trkpt lat="43.304377320533675" lon="10.825648625954909"><ele>202.0</ele><time>2026-04-26T14:44:16.003Z</time></trkpt><trkpt lat="43.30449464253986" lon="10.825485872014948"><ele>201.0</ele><time>2026-04-26T14:44:17.003Z</time></trkpt><trkpt lat="43.304624825013974" lon="10.825354020631247"><ele>201.0</ele><time>2026-04-26T14:44:18.003Z</time></trkpt><trkpt lat="43.30473468391816" lon="10.825217669163262"><ele>201.0</ele><time>2026-04-26T14:44:19.003Z</time></trkpt><trkpt lat="43.30481722417239" lon="10.825072321999702"><ele>201.0</ele><time>2026-04-26T14:44:20.003Z</time></trkpt><trkpt lat="43.304896575229485" lon="10.824952612083214"><ele>201.0</ele><time>2026-04-26T14:44:21.003Z</time></trkpt><trkpt lat="43.30496552627291" lon="10.824818820097782"><ele>201.0</ele><time>2026-04-26T14:44:22.003Z</time></trkpt><trkpt lat="43.30503027476517" lon="10.824661078259226"><ele>201.0</ele><time>2026-04-26T14:44:23.003Z</time></trkpt><trkpt lat="43.30507762445433" lon="10.824509411466844"><ele>201.0</ele><time>2026-04-26T14:44:24.003Z</time></trkpt><trkpt lat="43.30514183077322" lon="10.824368083636884"><ele>201.0</ele><time>2026-04-26T14:44:25.003Z</time></trkpt><trkpt lat="43.30515941531349" lon="10.824209449772345"><ele>200.20000000000002</ele><time>2026-04-26T14:44:26.003Z</time></trkpt><trkpt lat="43.30517111405818" lon="10.824061243555697"><ele>199.4</ele><time>2026-04-26T14:44:27.003Z</time></trkpt><trkpt lat="43.305157157010235" lon="10.823914565110293"><ele>198.6</ele><time>2026-04-26T14:44:28.003Z</time></trkpt><trkpt lat="43.305119242185995" lon="10.823774214715298"><ele>197.8</ele><time>2026-04-26T14:44:29.003Z</time></trkpt><trkpt lat="43.30507057684246" lon="10.823639544036652"><ele>197.0</ele><time>2026-04-26T14:44:30.003Z</time></trkpt><trkpt lat="43.30502211721471" lon="10.823505448869206"><ele>196.5</ele><time>2026-04-26T14:44:31.003Z</time></trkpt><trkpt lat="43.304990183939935" lon="10.823360297015691"><ele>196.0</ele><time>2026-04-26T14:44:32.003Z</time></trkpt><trkpt lat="43.30497225164713" lon="10.8231948138061"><ele>195.5</ele><time>2026-04-26T14:44:33.003Z</time></trkpt><trkpt lat="43.30497012389295" lon="10.823037273521948"><ele>195.0</ele><time>2026-04-26T14:44:34.003Z</time></trkpt><trkpt lat="43.304974882974086" lon="10.822870399399"><ele>195.0</ele><time>2026-04-26T14:44:35.003Z</time></trkpt><trkpt lat="43.30498950845535" lon="10.822722714053931"><ele>195.0</ele><time>2026-04-26T14:44:36.003Z</time></trkpt><trkpt lat="43.3050146710512" lon="10.822601834785264"><ele>195.0</ele><time>2026-04-26T14:44:36.999Z</time></trkpt><trkpt lat="43.30506648286435" lon="10.822507151537996"><ele>195.0</ele><time>2026-04-26T14:44:37.999Z</time></trkpt><trkpt lat="43.30516555982805" lon="10.822435841200983"><ele>195.0</ele><time>2026-04-26T14:44:39Z</time></trkpt><trkpt lat="43.30527312162406" lon="10.822351014412726"><ele>194.0</ele><time>2026-04-26T14:44:40Z</time></trkpt><trkpt lat="43.305367769505075" lon="10.822242454412844"><ele>193.0</ele><time>2026-04-26T14:44:41Z</time></trkpt><trkpt lat="43.30545711925493" lon="10.822146135384939"><ele>192.0</ele><time>2026-04-26T14:44:42Z</time></trkpt><trkpt lat="43.30554149413547" lon="10.82204752255048"><ele>191.0</ele><time>2026-04-26T14:44:43Z</time></trkpt><trkpt lat="43.30563298096256" lon="10.821963789180197"><ele>191.0</ele><time>2026-04-26T14:44:44Z</time></trkpt><trkpt lat="43.30573799481928" lon="10.82194046704681"><ele>191.0</ele><time>2026-04-26T14:44:45Z</time></trkpt><trkpt lat="43.305799310227876" lon="10.821885102523712"><ele>191.0</ele><time>2026-04-26T14:44:46Z</time></trkpt><trkpt lat="43.30584446292698" lon="10.821788770148387"><ele>191.0</ele><time>2026-04-26T14:44:48Z</time></trkpt><trkpt lat="43.30580368662596" lon="10.821696800537783"><ele>191.0</ele><time>2026-04-26T14:44:49Z</time></trkpt><trkpt lat="43.3057260586644" lon="10.821637369272379"><ele>191.0</ele><time>2026-04-26T14:44:50Z</time></trkpt><trkpt lat="43.30562502235723" lon="10.821589729011617"><ele>187.75</ele><time>2026-04-26T14:44:51Z</time></trkpt><trkpt lat="43.30550345416357" lon="10.821545401090166"><ele>184.5</ele><time>2026-04-26T14:44:52Z</time></trkpt><trkpt lat="43.3053865885156" lon="10.821505845273457"><ele>181.25</ele><time>2026-04-26T14:44:53Z</time></trkpt><trkpt lat="43.305237558858295" lon="10.821460755851364"><ele>178.0</ele><time>2026-04-26T14:44:54Z</time></trkpt><trkpt lat="43.305083010342656" lon="10.821472176463168"><ele>178.0</ele><time>2026-04-26T14:44:55Z</time></trkpt><trkpt lat="43.30492003094332" lon="10.821491740728957"><ele>178.0</ele><time>2026-04-26T14:44:56Z</time></trkpt><trkpt lat="43.30475948787413" lon="10.821516402306404"><ele>178.0</ele><time>2026-04-26T14:44:57Z</time></trkpt><trkpt lat="43.30460314377341" lon="10.821551341155864"><ele>175.0</ele><time>2026-04-26T14:44:58Z</time></trkpt><trkpt lat="43.304458990789264" lon="10.821595403685617"><ele>172.0</ele><time>2026-04-26T14:44:59Z</time></trkpt><trkpt lat="43.304336600078514" lon="10.821641299075026"><ele>169.0</ele><time>2026-04-26T14:45:00Z</time></trkpt><trkpt lat="43.30423606034973" lon="10.821700467281195"><ele>166.0</ele><time>2026-04-26T14:45:01Z</time></trkpt><trkpt lat="43.304161187443114" lon="10.82174665650495"><ele>166.0</ele><time>2026-04-26T14:45:02Z</time></trkpt><trkpt lat="43.30408960880497" lon="10.82175650143912"><ele>166.0</ele><time>2026-04-26T14:45:04Z</time></trkpt><trkpt lat="43.304067073198546" lon="10.821590838179905"><ele>166.0</ele><time>2026-04-26T14:45:06Z</time></trkpt><trkpt lat="43.30414645830544" lon="10.82150179259328"><ele>166.0</ele><time>2026-04-26T14:45:07Z</time></trkpt><trkpt lat="43.30420786988625" lon="10.821352376324498"><ele>166.0</ele><time>2026-04-26T14:45:08.001Z</time></trkpt><trkpt lat="43.304287996870464" lon="10.821227436498967"><ele>166.0</ele><time>2026-04-26T14:45:09.001Z</time></trkpt><trkpt lat="43.30438140625957" lon="10.821075171968191"><ele>166.0</ele><time>2026-04-26T14:45:10.001Z</time></trkpt><trkpt lat="43.30449974113175" lon="10.820925943476079"><ele>166.0</ele><time>2026-04-26T14:45:11.001Z</time></trkpt><trkpt lat="43.304613513217106" lon="10.820800438766415"><ele>165.75</ele><time>2026-04-26T14:45:12.001Z</time></trkpt><trkpt lat="43.304738827370684" lon="10.820701884409642"><ele>165.5</ele><time>2026-04-26T14:45:13.001Z</time></trkpt><trkpt lat="43.3048434590264" lon="10.820571915579194"><ele>165.25</ele><time>2026-04-26T14:45:14.001Z</time></trkpt><trkpt lat="43.30492088256577" lon="10.820416881961565"><ele>165.0</ele><time>2026-04-26T14:45:15.001Z</time></trkpt><trkpt lat="43.30499855164514" lon="10.820276215256298"><ele>165.0</ele><time>2026-04-26T14:45:16.001Z</time></trkpt><trkpt lat="43.305074258915425" lon="10.820160503850689"><ele>165.0</ele><time>2026-04-26T14:45:17.001Z</time></trkpt><trkpt lat="43.305164375986955" lon="10.820060234040389"><ele>165.0</ele><time>2026-04-26T14:45:18.001Z</time></trkpt><trkpt lat="43.30527779274075" lon="10.82003104219615"><ele>165.0</ele><time>2026-04-26T14:45:19.001Z</time></trkpt><trkpt lat="43.30540655655147" lon="10.819988278268141"><ele>162.5</ele><time>2026-04-26T14:45:20.001Z</time></trkpt><trkpt lat="43.30552028585231" lon="10.819942563898447"><ele>160.0</ele><time>2026-04-26T14:45:21.001Z</time></trkpt><trkpt lat="43.3056353285822" lon="10.819941687442498"><ele>157.5</ele><time>2026-04-26T14:45:22.001Z</time></trkpt><trkpt lat="43.30574604623214" lon="10.819981446471484"><ele>155.0</ele><time>2026-04-26T14:45:23.001Z</time></trkpt><trkpt lat="43.305860710879706" lon="10.819981747276387"><ele>155.0</ele><time>2026-04-26T14:45:24.001Z</time></trkpt><trkpt lat="43.305975620547535" lon="10.819931885498969"><ele>155.0</ele><time>2026-04-26T14:45:25.001Z</time></trkpt><trkpt lat="43.30607476313324" lon="10.819855674076402"><ele>155.0</ele><time>2026-04-26T14:45:26.001Z</time></trkpt><trkpt lat="43.30614294710906" lon="10.819738422854854"><ele>155.0</ele><time>2026-04-26T14:45:27.001Z</time></trkpt><trkpt lat="43.306230315353574" lon="10.819650955520572"><ele>155.0</ele><time>2026-04-26T14:45:28.001Z</time></trkpt><trkpt lat="43.30629978477235" lon="10.819535975080452"><ele>155.0</ele><time>2026-04-26T14:45:29.001Z</time></trkpt><trkpt lat="43.306363131235145" lon="10.819409176701683"><ele>155.0</ele><time>2026-04-26T14:45:30.001Z</time></trkpt><trkpt lat="43.306416312651535" lon="10.819244621723241"><ele>155.0</ele><time>2026-04-26T14:45:31.001Z</time></trkpt><trkpt lat="43.30645562995166" lon="10.819055723141167"><ele>153.25</ele><time>2026-04-26T14:45:32.001Z</time></trkpt><trkpt lat="43.30650027172408" lon="10.818870688201649"><ele>151.5</ele><time>2026-04-26T14:45:33.001Z</time></trkpt><trkpt lat="43.30653706195464" lon="10.818690567109908"><ele>149.75</ele><time>2026-04-26T14:45:34.001Z</time></trkpt><trkpt lat="43.30657514549851" lon="10.81851794404332"><ele>148.0</ele><time>2026-04-26T14:45:35.001Z</time></trkpt><trkpt lat="43.30661364681289" lon="10.81836690317802"><ele>146.20000000000002</ele><time>2026-04-26T14:45:36.001Z</time></trkpt><trkpt lat="43.306660714285485" lon="10.81823108387223"><ele>144.4</ele><time>2026-04-26T14:45:37.001Z</time></trkpt><trkpt lat="43.30673127785627" lon="10.818111449570216"><ele>142.60000000000002</ele><time>2026-04-26T14:45:38.001Z</time></trkpt><trkpt lat="43.30681312299333" lon="10.818011029644303"><ele>140.8</ele><time>2026-04-26T14:45:39.002Z</time></trkpt><trkpt lat="43.306887084458914" lon="10.817909649136578"><ele>139.0</ele><time>2026-04-26T14:45:40.002Z</time></trkpt><trkpt lat="43.30696244762015" lon="10.81780585491359"><ele>139.0</ele><time>2026-04-26T14:45:41.002Z</time></trkpt><trkpt lat="43.30699679317027" lon="10.817657812964551"><ele>139.0</ele><time>2026-04-26T14:45:42.002Z</time></trkpt><trkpt lat="43.30703805519592" lon="10.81752344505426"><ele>139.0</ele><time>2026-04-26T14:45:43.002Z</time></trkpt><trkpt lat="43.307073569470674" lon="10.81739198068907"><ele>139.0</ele><time>2026-04-26T14:45:44.002Z</time></trkpt><trkpt lat="43.30710315120777" lon="10.81727543765518"><ele>139.0</ele><time>2026-04-26T14:45:45.002Z</time></trkpt><trkpt lat="43.30711917903634" lon="10.817185632488492"><ele>137.83333333333334</ele><time>2026-04-26T14:45:46.002Z</time></trkpt><trkpt lat="43.307108193400076" lon="10.817040791393755"><ele>136.66666666666669</ele><time>2026-04-26T14:45:48.002Z</time></trkpt><trkpt lat="43.307045259687314" lon="10.817003925375296"><ele>135.5</ele><time>2026-04-26T14:45:49.002Z</time></trkpt><trkpt lat="43.30698513404923" lon="10.81706233301258"><ele>134.33333333333334</ele><time>2026-04-26T14:45:50.002Z</time></trkpt><trkpt lat="43.30693786364545" lon="10.817149677150928"><ele>133.16666666666666</ele><time>2026-04-26T14:45:51.002Z</time></trkpt><trkpt lat="43.306892637911226" lon="10.817257866338842"><ele>132.0</ele><time>2026-04-26T14:45:52.002Z</time></trkpt><trkpt lat="43.306824578442544" lon="10.817351898818709"><ele>132.0</ele><time>2026-04-26T14:45:53.002Z</time></trkpt><trkpt lat="43.306729818004605" lon="10.817427586848934"><ele>132.0</ele><time>2026-04-26T14:45:54.002Z</time></trkpt><trkpt lat="43.30661933027668" lon="10.817472110008453"><ele>132.0</ele><time>2026-04-26T14:45:55.002Z</time></trkpt><trkpt lat="43.30649228947627" lon="10.817497375640212"><ele>132.0</ele><time>2026-04-26T14:45:56.002Z</time></trkpt><trkpt lat="43.30636620617107" lon="10.817494695872252"><ele>130.2</ele><time>2026-04-26T14:45:57.002Z</time></trkpt><trkpt lat="43.30625072191399" lon="10.817486327934237"><ele>128.39999999999998</ele><time>2026-04-26T14:45:58.002Z</time></trkpt><trkpt lat="43.30613920460895" lon="10.817482410533717"><ele>126.60000000000001</ele><time>2026-04-26T14:45:59.002Z</time></trkpt><trkpt lat="43.30603874091425" lon="10.817488973074745"><ele>124.80000000000001</ele><time>2026-04-26T14:46:00.002Z</time></trkpt><trkpt lat="43.305951709547465" lon="10.817505883239269"><ele>123.0</ele><time>2026-04-26T14:46:01.002Z</time></trkpt><trkpt lat="43.30587813703587" lon="10.817562485748724"><ele>124.2</ele><time>2026-04-26T14:46:02.002Z</time></trkpt><trkpt lat="43.3058187427116" lon="10.817659429867822"><ele>125.4</ele><time>2026-04-26T14:46:03.002Z</time></trkpt><trkpt lat="43.305793915613215" lon="10.817795931797246"><ele>126.60000000000001</ele><time>2026-04-26T14:46:04.002Z</time></trkpt><trkpt lat="43.305762202572545" lon="10.817935913168206"><ele>127.80000000000001</ele><time>2026-04-26T14:46:05.002Z</time></trkpt><trkpt lat="43.30573918144257" lon="10.818056581781875"><ele>129.0</ele><time>2026-04-26T14:46:06.002Z</time></trkpt><trkpt lat="43.30569653688313" lon="10.818186232977292"><ele>129.0</ele><time>2026-04-26T14:46:07.002Z</time></trkpt><trkpt lat="43.30558729710562" lon="10.818244662501447"><ele>129.0</ele><time>2026-04-26T14:46:08.002Z</time></trkpt><trkpt lat="43.30549151690813" lon="10.818299638773876"><ele>129.0</ele><time>2026-04-26T14:46:09.002Z</time></trkpt><trkpt lat="43.30539298772337" lon="10.81834005124602"><ele>129.0</ele><time>2026-04-26T14:46:10.002Z</time></trkpt><trkpt lat="43.30528011695135" lon="10.81830453148425"><ele>129.0</ele><time>2026-04-26T14:46:11.002Z</time></trkpt><trkpt lat="43.305152048816154" lon="10.818237846259153"><ele>127.33333333333334</ele><time>2026-04-26T14:46:12.002Z</time></trkpt><trkpt lat="43.30499430961976" lon="10.81811051779944"><ele>125.66666666666667</ele><time>2026-04-26T14:46:13.003Z</time></trkpt><trkpt lat="43.30482024114893" lon="10.81801777845118"><ele>124.0</ele><time>2026-04-26T14:46:14.003Z</time></trkpt><trkpt lat="43.304662916107034" lon="10.81790829887947"><ele>122.0</ele><time>2026-04-26T14:46:15.003Z</time></trkpt><trkpt lat="43.30450976793656" lon="10.81780487702485"><ele>120.0</ele><time>2026-04-26T14:46:16.003Z</time></trkpt><trkpt lat="43.30435582816286" lon="10.817711222322709"><ele>118.0</ele><time>2026-04-26T14:46:17.003Z</time></trkpt><trkpt lat="43.304201226282906" lon="10.817621115158678"><ele>115.33333333333334</ele><time>2026-04-26T14:46:18.003Z</time></trkpt><trkpt lat="43.30404795322582" lon="10.817532614557646"><ele>112.66666666666666</ele><time>2026-04-26T14:46:19.003Z</time></trkpt><trkpt lat="43.30389642719311" lon="10.817444327349408"><ele>110.0</ele><time>2026-04-26T14:46:20.003Z</time></trkpt><trkpt lat="43.30376460241414" lon="10.817370235042738"><ele>109.0</ele><time>2026-04-26T14:46:21.003Z</time></trkpt><trkpt lat="43.30365188215989" lon="10.81732403659546"><ele>108.0</ele><time>2026-04-26T14:46:22.003Z</time></trkpt><trkpt lat="43.30354726810719" lon="10.817312644722396"><ele>107.0</ele><time>2026-04-26T14:46:23.003Z</time></trkpt><trkpt lat="43.30343536104896" lon="10.817344518489719"><ele>106.0</ele><time>2026-04-26T14:46:24.003Z</time></trkpt><trkpt lat="43.303304529709635" lon="10.817410025466012"><ele>106.0</ele><time>2026-04-26T14:46:25.003Z</time></trkpt><trkpt lat="43.303143487358874" lon="10.817508290244968"><ele>106.0</ele><time>2026-04-26T14:46:26.003Z</time></trkpt><trkpt lat="43.3029825930642" lon="10.81758286038491"><ele>106.0</ele><time>2026-04-26T14:46:27.003Z</time></trkpt><trkpt lat="43.30281372699001" lon="10.817619832730477"><ele>105.33333333333334</ele><time>2026-04-26T14:46:28.003Z</time></trkpt><trkpt lat="43.302647963791024" lon="10.817620202638372"><ele>104.66666666666666</ele><time>2026-04-26T14:46:29.003Z</time></trkpt><trkpt lat="43.30249238946634" lon="10.817616058081981"><ele>104.0</ele><time>2026-04-26T14:46:30.003Z</time></trkpt><trkpt lat="43.302351431005924" lon="10.817650923346442"><ele>106.0</ele><time>2026-04-26T14:46:31.003Z</time></trkpt><trkpt lat="43.302204690114834" lon="10.817718846738178"><ele>108.0</ele><time>2026-04-26T14:46:32.003Z</time></trkpt><trkpt lat="43.30206963910651" lon="10.817815786189822"><ele>110.0</ele><time>2026-04-26T14:46:33.003Z</time></trkpt><trkpt lat="43.301932546483286" lon="10.81789495143491"><ele>110.0</ele><time>2026-04-26T14:46:34.003Z</time></trkpt><trkpt lat="43.30178030881412" lon="10.817934790197757"><ele>110.0</ele><time>2026-04-26T14:46:35.003Z</time></trkpt><trkpt lat="43.30162934664753" lon="10.817922171519934"><ele>110.0</ele><time>2026-04-26T14:46:36.003Z</time></trkpt><trkpt lat="43.301483634807646" lon="10.817873301508735"><ele>109.5</ele><time>2026-04-26T14:46:37.003Z</time></trkpt><trkpt lat="43.301351951731014" lon="10.817817382223145"><ele>109.0</ele><time>2026-04-26T14:46:38.003Z</time></trkpt><trkpt lat="43.3012308835804" lon="10.81778869727376"><ele>108.5</ele><time>2026-04-26T14:46:39.003Z</time></trkpt><trkpt lat="43.301112073085484" lon="10.817807958198907"><ele>108.0</ele><time>2026-04-26T14:46:40.003Z</time></trkpt><trkpt lat="43.30100267567934" lon="10.817863027026014"><ele>108.0</ele><time>2026-04-26T14:46:41.003Z</time></trkpt><trkpt lat="43.30091323853618" lon="10.817922843984993"><ele>108.00000000000001</ele><time>2026-04-26T14:46:42.003Z</time></trkpt><trkpt lat="43.30084289560157" lon="10.817954494315419"><ele>108.00000000000001</ele><time>2026-04-26T14:46:43Z</time></trkpt><trkpt lat="43.300715077732534" lon="10.817894250851042"><ele>108.0</ele><time>2026-04-26T14:46:45Z</time></trkpt><trkpt lat="43.30067173491021" lon="10.817752224761035"><ele>108.0</ele><time>2026-04-26T14:46:46Z</time></trkpt><trkpt lat="43.30065085190899" lon="10.817609250983535"><ele>106.66666666666666</ele><time>2026-04-26T14:46:47Z</time></trkpt><trkpt lat="43.300657380631854" lon="10.817434053297847"><ele>105.33333333333333</ele><time>2026-04-26T14:46:48Z</time></trkpt><trkpt lat="43.3006784755821" lon="10.817216683062483"><ele>104.0</ele><time>2026-04-26T14:46:49Z</time></trkpt><trkpt lat="43.30071450749056" lon="10.81696367990993"><ele>103.0</ele><time>2026-04-26T14:46:50Z</time></trkpt><trkpt lat="43.30076334038909" lon="10.816669099160729"><ele>102.0</ele><time>2026-04-26T14:46:51Z</time></trkpt><trkpt lat="43.300827866473654" lon="10.816363795373663"><ele>102.0</ele><time>2026-04-26T14:46:52Z</time></trkpt><trkpt lat="43.300912981546425" lon="10.816037104256113"><ele>102.0</ele><time>2026-04-26T14:46:53Z</time></trkpt><trkpt lat="43.3010050731277" lon="10.815673877981897"><ele>102.0</ele><time>2026-04-26T14:46:54Z</time></trkpt><trkpt lat="43.30109305767049" lon="10.815305444376547"><ele>102.0</ele><time>2026-04-26T14:46:55Z</time></trkpt><trkpt lat="43.30116559801014" lon="10.814983710892736"><ele>102.0</ele><time>2026-04-26T14:46:56Z</time></trkpt><trkpt lat="43.30123330538891" lon="10.814687301145366"><ele>102.0</ele><time>2026-04-26T14:46:57Z</time></trkpt><trkpt lat="43.30129731909788" lon="10.814413593472775"><ele>102.0</ele><time>2026-04-26T14:46:58Z</time></trkpt><trkpt lat="43.30136039248552" lon="10.814159566185186"><ele>101.66666666666666</ele><time>2026-04-26T14:46:59Z</time></trkpt><trkpt lat="43.30142004649147" lon="10.81391605984434"><ele>101.33333333333333</ele><time>2026-04-26T14:47:00Z</time></trkpt><trkpt lat="43.30147659586395" lon="10.813683430814711"><ele>101.0</ele><time>2026-04-26T14:47:01Z</time></trkpt><trkpt lat="43.30153311238021" lon="10.81346129355991"><ele>101.0</ele><time>2026-04-26T14:47:02Z</time></trkpt><trkpt lat="43.301588326522584" lon="10.813256459635916"><ele>101.0</ele><time>2026-04-26T14:47:03Z</time></trkpt><trkpt lat="43.30163956278705" lon="10.81306098899062"><ele>101.0</ele><time>2026-04-26T14:47:04Z</time></trkpt><trkpt lat="43.30168288380069" lon="10.812874987379354"><ele>101.0</ele><time>2026-04-26T14:47:05Z</time></trkpt><trkpt lat="43.301715976204044" lon="10.812699076760595"><ele>101.0</ele><time>2026-04-26T14:47:06Z</time></trkpt><trkpt lat="43.301724975646735" lon="10.812556656889688"><ele>101.0</ele><time>2026-04-26T14:47:07Z</time></trkpt><trkpt lat="43.301697846463625" lon="10.812418192425456"><ele>101.0</ele><time>2026-04-26T14:47:08Z</time></trkpt><trkpt lat="43.30163341364303" lon="10.812269627370823"><ele>101.0</ele><time>2026-04-26T14:47:09Z</time></trkpt><trkpt lat="43.301543469561274" lon="10.812105163443563"><ele>101.0</ele><time>2026-04-26T14:47:10Z</time></trkpt><trkpt lat="43.3014562188345" lon="10.811948400851495"><ele>101.0</ele><time>2026-04-26T14:47:11Z</time></trkpt><trkpt lat="43.3013860042408" lon="10.811808280329437"><ele>101.0</ele><time>2026-04-26T14:47:12Z</time></trkpt><trkpt lat="43.301321215625386" lon="10.811678779744788"><ele>102.4</ele><time>2026-04-26T14:47:13Z</time></trkpt><trkpt lat="43.30126689122381" lon="10.811558463348101"><ele>103.8</ele><time>2026-04-26T14:47:14Z</time></trkpt><trkpt lat="43.30124041173423" lon="10.811435578128838"><ele>105.20000000000002</ele><time>2026-04-26T14:47:15.001Z</time></trkpt><trkpt lat="43.301245965220396" lon="10.811301211990354"><ele>106.60000000000001</ele><time>2026-04-26T14:47:16.001Z</time></trkpt><trkpt lat="43.301298080649644" lon="10.811165833147323"><ele>108.0</ele><time>2026-04-26T14:47:17.001Z</time></trkpt><trkpt lat="43.301402631730134" lon="10.811066384492408"><ele>106.66666666666666</ele><time>2026-04-26T14:47:18.001Z</time></trkpt><trkpt lat="43.30150748762426" lon="10.810927706993125"><ele>105.33333333333333</ele><time>2026-04-26T14:47:19.001Z</time></trkpt><trkpt lat="43.30163209775564" lon="10.810763753444064"><ele>104.0</ele><time>2026-04-26T14:47:20.001Z</time></trkpt><trkpt lat="43.30174661986233" lon="10.810587566946447"><ele>104.0</ele><time>2026-04-26T14:47:21.001Z</time></trkpt><trkpt lat="43.30185945717358" lon="10.810438954431662"><ele>104.0</ele><time>2026-04-26T14:47:22.001Z</time></trkpt><trkpt lat="43.30195961739983" lon="10.810275111461353"><ele>104.0</ele><time>2026-04-26T14:47:23.001Z</time></trkpt><trkpt lat="43.30204598535267" lon="10.810082287717531"><ele>104.25</ele><time>2026-04-26T14:47:24.001Z</time></trkpt><trkpt lat="43.30211209858089" lon="10.809871177097254"><ele>104.5</ele><time>2026-04-26T14:47:25.001Z</time></trkpt><trkpt lat="43.302157638931455" lon="10.809686753719472"><ele>104.75</ele><time>2026-04-26T14:47:26.001Z</time></trkpt><trkpt lat="43.30221133294" lon="10.80955222612814"><ele>105.0</ele><time>2026-04-26T14:47:27.001Z</time></trkpt><trkpt lat="43.30224537853874" lon="10.809447405248502"><ele>104.25</ele><time>2026-04-26T14:47:28.001Z</time></trkpt><trkpt lat="43.30228610265237" lon="10.809324559976869"><ele>103.5</ele><time>2026-04-26T14:47:30.001Z</time></trkpt><trkpt lat="43.302108449232826" lon="10.809159316778054"><ele>102.75</ele><time>2026-04-26T14:47:31.001Z</time></trkpt><trkpt lat="43.30200517415304" lon="10.809039597232717"><ele>102.0</ele><time>2026-04-26T14:47:32.001Z</time></trkpt><trkpt lat="43.30189044795965" lon="10.80890083322226"><ele>103.0</ele><time>2026-04-26T14:47:33.001Z</time></trkpt><trkpt lat="43.30175997965018" lon="10.808743631611936"><ele>104.0</ele><time>2026-04-26T14:47:34.001Z</time></trkpt><trkpt lat="43.30162967540331" lon="10.808605456254709"><ele>105.0</ele><time>2026-04-26T14:47:35.001Z</time></trkpt><trkpt lat="43.301510986174314" lon="10.80847348171627"><ele>106.6</ele><time>2026-04-26T14:47:36.001Z</time></trkpt><trkpt lat="43.30140925978096" lon="10.80835574484128"><ele>108.2</ele><time>2026-04-26T14:47:37.001Z</time></trkpt><trkpt lat="43.30131925485764" lon="10.808275327065939"><ele>109.80000000000001</ele><time>2026-04-26T14:47:38.001Z</time></trkpt><trkpt lat="43.301247636688565" lon="10.808242683554742"><ele>111.4</ele><time>2026-04-26T14:47:39.001Z</time></trkpt><trkpt lat="43.301133420347284" lon="10.808286250057575"><ele>113.0</ele><time>2026-04-26T14:47:41.001Z</time></trkpt><trkpt lat="43.301112354506685" lon="10.808395421879261"><ele>114.60000000000001</ele><time>2026-04-26T14:47:42.001Z</time></trkpt><trkpt lat="43.30114851543069" lon="10.808513851182806"><ele>116.20000000000002</ele><time>2026-04-26T14:47:43.001Z</time></trkpt><trkpt lat="43.30119727098789" lon="10.808634626394925"><ele>117.8</ele><time>2026-04-26T14:47:44.001Z</time></trkpt><trkpt lat="43.30122190226094" lon="10.808774345654657"><ele>119.4</ele><time>2026-04-26T14:47:45.001Z</time></trkpt><trkpt lat="43.30123288659261" lon="10.808903955375971"><ele>121.0</ele><time>2026-04-26T14:47:46.001Z</time></trkpt><trkpt lat="43.301192562415416" lon="10.809019085181987"><ele>121.0</ele><time>2026-04-26T14:47:47.001Z</time></trkpt><trkpt lat="43.30111493824366" lon="10.809119756315102"><ele>121.0</ele><time>2026-04-26T14:47:48.002Z</time></trkpt><trkpt lat="43.3010067724921" lon="10.809218078781237"><ele>121.0</ele><time>2026-04-26T14:47:49.002Z</time></trkpt><trkpt lat="43.300874709435405" lon="10.809334611374288"><ele>121.0</ele><time>2026-04-26T14:47:50.002Z</time></trkpt><trkpt lat="43.30075008417957" lon="10.80946474472953"><ele>120.0</ele><time>2026-04-26T14:47:51.002Z</time></trkpt><trkpt lat="43.30064051063348" lon="10.809613962753666"><ele>119.0</ele><time>2026-04-26T14:47:52.002Z</time></trkpt><trkpt lat="43.30055499715654" lon="10.809732813768056"><ele>118.0</ele><time>2026-04-26T14:47:53.002Z</time></trkpt><trkpt lat="43.300489292342185" lon="10.809865367204045"><ele>117.0</ele><time>2026-04-26T14:47:54.002Z</time></trkpt><trkpt lat="43.30045581462207" lon="10.810008812638358"><ele>120.19999999999999</ele><time>2026-04-26T14:47:55.002Z</time></trkpt><trkpt lat="43.30044488458474" lon="10.810152774893567"><ele>123.39999999999999</ele><time>2026-04-26T14:47:56.002Z</time></trkpt><trkpt lat="43.300434211510144" lon="10.810307777446013"><ele>126.60000000000001</ele><time>2026-04-26T14:47:57.002Z</time></trkpt><trkpt lat="43.30043261596021" lon="10.810447545357507"><ele>129.8</ele><time>2026-04-26T14:47:58.002Z</time></trkpt><trkpt lat="43.30043483357492" lon="10.810568020918655"><ele>133.0</ele><time>2026-04-26T14:47:59.002Z</time></trkpt><trkpt lat="43.30042320857371" lon="10.810661762536535"><ele>133.33333333333334</ele><time>2026-04-26T14:48:00.002Z</time></trkpt><trkpt lat="43.3003872465904" lon="10.810733697926462"><ele>133.66666666666669</ele><time>2026-04-26T14:48:01.002Z</time></trkpt><trkpt lat="43.30026694429691" lon="10.810758520720865"><ele>134.0</ele><time>2026-04-26T14:48:03.002Z</time></trkpt><trkpt lat="43.3002007459952" lon="10.810707312501409"><ele>134.33333333333334</ele><time>2026-04-26T14:48:04.002Z</time></trkpt><trkpt lat="43.300169319355355" lon="10.810595172815004"><ele>134.66666666666666</ele><time>2026-04-26T14:48:05.002Z</time></trkpt><trkpt lat="43.30011688460929" lon="10.810493098318167"><ele>135.0</ele><time>2026-04-26T14:48:06.002Z</time></trkpt><trkpt lat="43.30005853199544" lon="10.81038218569221"><ele>135.0</ele><time>2026-04-26T14:48:07.002Z</time></trkpt><trkpt lat="43.300015619954834" lon="10.810248325744453"><ele>135.0</ele><time>2026-04-26T14:48:08.002Z</time></trkpt><trkpt lat="43.299961413886614" lon="10.810117451654072"><ele>135.0</ele><time>2026-04-26T14:48:09.002Z</time></trkpt><trkpt lat="43.29989093001146" lon="10.809980047697527"><ele>135.0</ele><time>2026-04-26T14:48:10.002Z</time></trkpt><trkpt lat="43.299812553339365" lon="10.809839962395525"><ele>135.25</ele><time>2026-04-26T14:48:11.002Z</time></trkpt><trkpt lat="43.29975702540053" lon="10.809661742890762"><ele>135.5</ele><time>2026-04-26T14:48:12.002Z</time></trkpt><trkpt lat="43.29970217487509" lon="10.809495748030999"><ele>135.75</ele><time>2026-04-26T14:48:13.002Z</time></trkpt><trkpt lat="43.299641732396154" lon="10.80938234042882"><ele>136.0</ele><time>2026-04-26T14:48:14.002Z</time></trkpt><trkpt lat="43.29958469063406" lon="10.809309183481545"><ele>136.0</ele><time>2026-04-26T14:48:15.002Z</time></trkpt><trkpt lat="43.29949843045612" lon="10.809274817172044"><ele>136.0</ele><time>2026-04-26T14:48:16.002Z</time></trkpt><trkpt lat="43.29938652604855" lon="10.809278446712536"><ele>136.0</ele><time>2026-04-26T14:48:17.002Z</time></trkpt><trkpt lat="43.29925506513978" lon="10.809334528811979"><ele>136.0</ele><time>2026-04-26T14:48:18.002Z</time></trkpt><trkpt lat="43.299104815262055" lon="10.809382078493542"><ele>137.2</ele><time>2026-04-26T14:48:19.002Z</time></trkpt><trkpt lat="43.29898882207705" lon="10.809442621523548"><ele>138.39999999999998</ele><time>2026-04-26T14:48:20.002Z</time></trkpt><trkpt lat="43.29888353723413" lon="10.809473248366178"><ele>139.6</ele><time>2026-04-26T14:48:21.003Z</time></trkpt><trkpt lat="43.29880882715419" lon="10.809501079155535"><ele>140.79999999999998</ele><time>2026-04-26T14:48:22.003Z</time></trkpt><trkpt lat="43.29873834770383" lon="10.809526821068133"><ele>142.0</ele><time>2026-04-26T14:48:24.003Z</time></trkpt><trkpt lat="43.29866878879281" lon="10.80954673426171"><ele>142.25</ele><time>2026-04-26T14:48:50Z</time></trkpt><trkpt lat="43.29853449138132" lon="10.809587371933217"><ele>142.5</ele><time>2026-04-26T14:48:52Z</time></trkpt><trkpt lat="43.29843947714417" lon="10.809631047705258"><ele>142.75</ele><time>2026-04-26T14:48:53Z</time></trkpt><trkpt lat="43.29833077716204" lon="10.809686107855661"><ele>143.0</ele><time>2026-04-26T14:48:54Z</time></trkpt><trkpt lat="43.298211481345305" lon="10.809749136114075"><ele>143.0</ele><time>2026-04-26T14:48:55Z</time></trkpt><trkpt lat="43.2980855639594" lon="10.809819748839196"><ele>143.0</ele><time>2026-04-26T14:48:56Z</time></trkpt><trkpt lat="43.2979451950205" lon="10.809876598240495"><ele>143.0</ele><time>2026-04-26T14:48:57Z</time></trkpt><trkpt lat="43.29781377859513" lon="10.80996918967372"><ele>143.0</ele><time>2026-04-26T14:48:58Z</time></trkpt><trkpt lat="43.29768085519229" lon="10.810036011473917"><ele>142.66666666666666</ele><time>2026-04-26T14:48:59Z</time></trkpt><trkpt lat="43.297545104661474" lon="10.810105110923221"><ele>142.33333333333334</ele><time>2026-04-26T14:49:00Z</time></trkpt><trkpt lat="43.29740761612067" lon="10.81018109103257"><ele>142.0</ele><time>2026-04-26T14:49:01Z</time></trkpt><trkpt lat="43.29725296259183" lon="10.810258749740788"><ele>144.33333333333334</ele><time>2026-04-26T14:49:02Z</time></trkpt><trkpt lat="43.29708438385304" lon="10.81034479307659"><ele>146.66666666666666</ele><time>2026-04-26T14:49:03Z</time></trkpt><trkpt lat="43.296925948156485" lon="10.810423517886521"><ele>149.0</ele><time>2026-04-26T14:49:04Z</time></trkpt><trkpt lat="43.29676278453723" lon="10.810509734080174"><ele>149.0</ele><time>2026-04-26T14:49:05Z</time></trkpt><trkpt lat="43.29659783406181" lon="10.810603342330056"><ele>149.0</ele><time>2026-04-26T14:49:06Z</time></trkpt><trkpt lat="43.29644154809969" lon="10.810695409132887"><ele>149.0</ele><time>2026-04-26T14:49:07Z</time></trkpt><trkpt lat="43.29629658774265" lon="10.810777970451976"><ele>149.0</ele><time>2026-04-26T14:49:08Z</time></trkpt><trkpt lat="43.29614863265258" lon="10.810835311333141"><ele>149.0</ele><time>2026-04-26T14:49:09Z</time></trkpt><trkpt lat="43.296002329240565" lon="10.8109055442116"><ele>149.0</ele><time>2026-04-26T14:49:10Z</time></trkpt><trkpt lat="43.29584283652409" lon="10.810979301425347"><ele>149.0</ele><time>2026-04-26T14:49:11Z</time></trkpt><trkpt lat="43.295652973129464" lon="10.810981663979609"><ele>149.0</ele><time>2026-04-26T14:49:12Z</time></trkpt><trkpt lat="43.29547829169271" lon="10.810972464415801"><ele>149.0</ele><time>2026-04-26T14:49:13Z</time></trkpt><trkpt lat="43.29532080462981" lon="10.810959625863012"><ele>149.66666666666666</ele><time>2026-04-26T14:49:14Z</time></trkpt><trkpt lat="43.29516740692625" lon="10.810964982300868"><ele>150.33333333333334</ele><time>2026-04-26T14:49:15Z</time></trkpt><trkpt lat="43.29502114396368" lon="10.810948171289372"><ele>151.0</ele><time>2026-04-26T14:49:16Z</time></trkpt><trkpt lat="43.29486420816242" lon="10.810928677659858"><ele>151.0</ele><time>2026-04-26T14:49:17Z</time></trkpt><trkpt lat="43.2946900424346" lon="10.810913916369227"><ele>151.0</ele><time>2026-04-26T14:49:18.001Z</time></trkpt><trkpt lat="43.29453672141661" lon="10.810902579716968"><ele>151.0</ele><time>2026-04-26T14:49:19.001Z</time></trkpt><trkpt lat="43.294401882042514" lon="10.810878292963721"><ele>151.0</ele><time>2026-04-26T14:49:20.001Z</time></trkpt><trkpt lat="43.29427190298234" lon="10.810889429466313"><ele>151.0</ele><time>2026-04-26T14:49:21.001Z</time></trkpt><trkpt lat="43.294145443617275" lon="10.810933378333734"><ele>151.0</ele><time>2026-04-26T14:49:22.001Z</time></trkpt><trkpt lat="43.29402582319387" lon="10.811025825789011"><ele>151.0</ele><time>2026-04-26T14:49:23.001Z</time></trkpt><trkpt lat="43.29392859003576" lon="10.811138433701153"><ele>152.6</ele><time>2026-04-26T14:49:24.001Z</time></trkpt><trkpt lat="43.293855308768826" lon="10.811247652819612"><ele>154.2</ele><time>2026-04-26T14:49:25.001Z</time></trkpt><trkpt lat="43.29375645651329" lon="10.811295580166156"><ele>155.8</ele><time>2026-04-26T14:49:26.001Z</time></trkpt><trkpt lat="43.293652599342295" lon="10.811294089534128"><ele>157.4</ele><time>2026-04-26T14:49:27.001Z</time></trkpt><trkpt lat="43.29355457587574" lon="10.81122408918602"><ele>159.0</ele><time>2026-04-26T14:49:28.001Z</time></trkpt><trkpt lat="43.29344656499231" lon="10.811139819961596"><ele>159.0</ele><time>2026-04-26T14:49:29.001Z</time></trkpt><trkpt lat="43.29331571090538" lon="10.811050836524657"><ele>159.0</ele><time>2026-04-26T14:49:30.001Z</time></trkpt><trkpt lat="43.29316588842367" lon="10.810991590347049"><ele>159.0</ele><time>2026-04-26T14:49:31.001Z</time></trkpt><trkpt lat="43.29300749108574" lon="10.810930504886528"><ele>161.75</ele><time>2026-04-26T14:49:32.001Z</time></trkpt><trkpt lat="43.29286745259467" lon="10.810884523104663"><ele>164.5</ele><time>2026-04-26T14:49:33.001Z</time></trkpt><trkpt lat="43.292751772871476" lon="10.810837395208779"><ele>167.25</ele><time>2026-04-26T14:49:34.001Z</time></trkpt><trkpt lat="43.29264301260924" lon="10.810792480029166"><ele>170.0</ele><time>2026-04-26T14:49:35.001Z</time></trkpt><trkpt lat="43.29253979785784" lon="10.810763362528899"><ele>170.0</ele><time>2026-04-26T14:49:36.001Z</time></trkpt><trkpt lat="43.292408612404564" lon="10.810743025021406"><ele>170.0</ele><time>2026-04-26T14:49:37.001Z</time></trkpt><trkpt lat="43.2922458246159" lon="10.810733334020272"><ele>170.0</ele><time>2026-04-26T14:49:38.001Z</time></trkpt><trkpt lat="43.292096616074794" lon="10.81073517383416"><ele>170.0</ele><time>2026-04-26T14:49:39.001Z</time></trkpt><trkpt lat="43.29197487052021" lon="10.810747394447862"><ele>172.0</ele><time>2026-04-26T14:49:40.001Z</time></trkpt><trkpt lat="43.29186223575795" lon="10.810745319380997"><ele>174.0</ele><time>2026-04-26T14:49:41.001Z</time></trkpt><trkpt lat="43.29177231884696" lon="10.810716842377728"><ele>176.0</ele><time>2026-04-26T14:49:42.001Z</time></trkpt><trkpt lat="43.29168515217048" lon="10.810659907145958"><ele>178.0</ele><time>2026-04-26T14:49:43.001Z</time></trkpt><trkpt lat="43.291607323061626" lon="10.810583039237232"><ele>180.0</ele><time>2026-04-26T14:49:44.001Z</time></trkpt><trkpt lat="43.291537384195145" lon="10.81048718833214"><ele>180.0</ele><time>2026-04-26T14:49:45.001Z</time></trkpt><trkpt lat="43.291467060920425" lon="10.810323553424398"><ele>180.0</ele><time>2026-04-26T14:49:46.001Z</time></trkpt><trkpt lat="43.29136441028375" lon="10.810149934539524"><ele>180.0</ele><time>2026-04-26T14:49:47.001Z</time></trkpt><trkpt lat="43.2912762733633" lon="10.80996962321179"><ele>182.0</ele><time>2026-04-26T14:49:48.001Z</time></trkpt><trkpt lat="43.29119132198348" lon="10.809836057000334"><ele>184.0</ele><time>2026-04-26T14:49:49.001Z</time></trkpt><trkpt lat="43.291129465606865" lon="10.809734950908863"><ele>186.0</ele><time>2026-04-26T14:49:50.002Z</time></trkpt><trkpt lat="43.29111808863463" lon="10.809595635803"><ele>188.0</ele><time>2026-04-26T14:49:51.002Z</time></trkpt><trkpt lat="43.29108235493952" lon="10.80944659991445"><ele>190.0</ele><time>2026-04-26T14:49:52.002Z</time></trkpt><trkpt lat="43.291074216318776" lon="10.809311204174383"><ele>190.2</ele><time>2026-04-26T14:49:53.002Z</time></trkpt><trkpt lat="43.29106903860274" lon="10.80918330273047"><ele>190.4</ele><time>2026-04-26T14:49:54.002Z</time></trkpt><trkpt lat="43.29107321350513" lon="10.809066457554895"><ele>190.60000000000002</ele><time>2026-04-26T14:49:55.002Z</time></trkpt><trkpt lat="43.29109939104321" lon="10.808938963321975"><ele>190.8</ele><time>2026-04-26T14:49:56.002Z</time></trkpt><trkpt lat="43.291137703896936" lon="10.808797931016894"><ele>191.0</ele><time>2026-04-26T14:49:57.002Z</time></trkpt><trkpt lat="43.291180550210946" lon="10.808661561138067"><ele>191.0</ele><time>2026-04-26T14:49:58.002Z</time></trkpt><trkpt lat="43.29123658537487" lon="10.80853622513629"><ele>191.0</ele><time>2026-04-26T14:49:59.002Z</time></trkpt><trkpt lat="43.291306028003916" lon="10.80843479568268"><ele>191.0</ele><time>2026-04-26T14:50:00.002Z</time></trkpt><trkpt lat="43.291357228130764" lon="10.808349552566817"><ele>191.0</ele><time>2026-04-26T14:50:01.002Z</time></trkpt><trkpt lat="43.29137434270664" lon="10.808239202403646"><ele>191.0</ele><time>2026-04-26T14:50:02.002Z</time></trkpt><trkpt lat="43.291355607011155" lon="10.80810195638839"><ele>192.25</ele><time>2026-04-26T14:50:03.002Z</time></trkpt><trkpt lat="43.291307849367385" lon="10.807946534999294"><ele>193.5</ele><time>2026-04-26T14:50:04.002Z</time></trkpt><trkpt lat="43.291252079641524" lon="10.807754691171823"><ele>194.75</ele><time>2026-04-26T14:50:05.002Z</time></trkpt><trkpt lat="43.29121109884258" lon="10.807556962265897"><ele>196.0</ele><time>2026-04-26T14:50:06.002Z</time></trkpt><trkpt lat="43.291183241498075" lon="10.80736247929222"><ele>196.5</ele><time>2026-04-26T14:50:07.002Z</time></trkpt><trkpt lat="43.29115914285017" lon="10.807186616104048"><ele>197.0</ele><time>2026-04-26T14:50:08.002Z</time></trkpt><trkpt lat="43.291136888246434" lon="10.807031807303593"><ele>197.5</ele><time>2026-04-26T14:50:09.002Z</time></trkpt><trkpt lat="43.291112690334295" lon="10.806893245074585"><ele>198.0</ele><time>2026-04-26T14:50:10.002Z</time></trkpt><trkpt lat="43.29107169877304" lon="10.806766212784328"><ele>198.0</ele><time>2026-04-26T14:50:11.002Z</time></trkpt><trkpt lat="43.291009706440946" lon="10.806644242464994"><ele>198.0</ele><time>2026-04-26T14:50:12.002Z</time></trkpt><trkpt lat="43.290947836988124" lon="10.806552237950784"><ele>198.0</ele><time>2026-04-26T14:50:13.002Z</time></trkpt><trkpt lat="43.29088933947082" lon="10.806491164423202"><ele>198.0</ele><time>2026-04-26T14:50:14.002Z</time></trkpt><trkpt lat="43.29082542329736" lon="10.806438075666039"><ele>198.0</ele><time>2026-04-26T14:50:15.002Z</time></trkpt><trkpt lat="43.29076048062837" lon="10.806425041440473"><ele>198.0</ele><time>2026-04-26T14:50:16.002Z</time></trkpt><trkpt lat="43.290647307247546" lon="10.806520266697712"><ele>198.0</ele><time>2026-04-26T14:50:18.002Z</time></trkpt><trkpt lat="43.290620433578944" lon="10.806642794817575"><ele>198.0</ele><time>2026-04-26T14:50:19.002Z</time></trkpt><trkpt lat="43.29066167152095" lon="10.806786728474236"><ele>198.0</ele><time>2026-04-26T14:50:20.002Z</time></trkpt><trkpt lat="43.290667739234124" lon="10.806950896129178"><ele>198.0</ele><time>2026-04-26T14:50:21.002Z</time></trkpt><trkpt lat="43.29067475845379" lon="10.807094420001864"><ele>198.0</ele><time>2026-04-26T14:50:22.002Z</time></trkpt><trkpt lat="43.29065923271379" lon="10.807247578598362"><ele>198.5</ele><time>2026-04-26T14:50:23.003Z</time></trkpt><trkpt lat="43.29062717753951" lon="10.807429287010201"><ele>199.0</ele><time>2026-04-26T14:50:24.003Z</time></trkpt><trkpt lat="43.29059732189659" lon="10.807622475215346"><ele>199.5</ele><time>2026-04-26T14:50:25.003Z</time></trkpt><trkpt lat="43.290565454899046" lon="10.807794718696389"><ele>200.0</ele><time>2026-04-26T14:50:26.003Z</time></trkpt><trkpt lat="43.290526722893865" lon="10.807954526966817"><ele>203.5</ele><time>2026-04-26T14:50:27.003Z</time></trkpt><trkpt lat="43.29047077078139" lon="10.808084765811014"><ele>207.0</ele><time>2026-04-26T14:50:28.003Z</time></trkpt><trkpt lat="43.29039346658308" lon="10.808213091869499"><ele>210.5</ele><time>2026-04-26T14:50:29.003Z</time></trkpt><trkpt lat="43.29028735142934" lon="10.808342442529986"><ele>214.0</ele><time>2026-04-26T14:50:30.003Z</time></trkpt><trkpt lat="43.29017798849382" lon="10.808476186652703"><ele>213.75</ele><time>2026-04-26T14:50:31.003Z</time></trkpt><trkpt lat="43.290101761425205" lon="10.808616088123594"><ele>213.5</ele><time>2026-04-26T14:50:32.003Z</time></trkpt><trkpt lat="43.290059720040425" lon="10.808778925177887"><ele>213.25</ele><time>2026-04-26T14:50:33.003Z</time></trkpt><trkpt lat="43.29003187195709" lon="10.808951652849021"><ele>213.0</ele><time>2026-04-26T14:50:34.003Z</time></trkpt><trkpt lat="43.289995935816" lon="10.809103783406277"><ele>213.0</ele><time>2026-04-26T14:50:35.003Z</time></trkpt><trkpt lat="43.289977003931156" lon="10.809238398830372"><ele>213.0</ele><time>2026-04-26T14:50:36.003Z</time></trkpt><trkpt lat="43.28995560546159" lon="10.809352933195118"><ele>213.0</ele><time>2026-04-26T14:50:37.003Z</time></trkpt><trkpt lat="43.28991198927673" lon="10.809450660001723"><ele>213.0</ele><time>2026-04-26T14:50:38.003Z</time></trkpt><trkpt lat="43.2898439574981" lon="10.809527225271319"><ele>213.0</ele><time>2026-04-26T14:50:39.003Z</time></trkpt><trkpt lat="43.28975083706027" lon="10.80956104584571"><ele>216.5</ele><time>2026-04-26T14:50:40.003Z</time></trkpt><trkpt lat="43.289648557525645" lon="10.80962196325263"><ele>220.0</ele><time>2026-04-26T14:50:41.003Z</time></trkpt><trkpt lat="43.289561321178034" lon="10.809705850491564"><ele>223.5</ele><time>2026-04-26T14:50:42.003Z</time></trkpt><trkpt lat="43.28949043734265" lon="10.80986360068272"><ele>227.0</ele><time>2026-04-26T14:50:43.003Z</time></trkpt><trkpt lat="43.289410482964776" lon="10.810026602808293"><ele>227.0</ele><time>2026-04-26T14:50:44.003Z</time></trkpt><trkpt lat="43.28934465139061" lon="10.810166362117227"><ele>227.0</ele><time>2026-04-26T14:50:45.003Z</time></trkpt><trkpt lat="43.28929387270425" lon="10.810289556234585"><ele>227.0</ele><time>2026-04-26T14:50:46.003Z</time></trkpt><trkpt lat="43.28929904867299" lon="10.810440937297102"><ele>227.0</ele><time>2026-04-26T14:50:47.003Z</time></trkpt><trkpt lat="43.289363346626544" lon="10.810591726041476"><ele>227.0</ele><time>2026-04-26T14:50:48.003Z</time></trkpt><trkpt lat="43.28937629518726" lon="10.810716707531926"><ele>227.0</ele><time>2026-04-26T14:50:49.003Z</time></trkpt><trkpt lat="43.28935961784741" lon="10.810847877535341"><ele>227.0</ele><time>2026-04-26T14:50:50.003Z</time></trkpt><trkpt lat="43.28929805296402" lon="10.810994369661996"><ele>227.0</ele><time>2026-04-26T14:50:51.003Z</time></trkpt><trkpt lat="43.289221314913924" lon="10.811199843099082"><ele>226.75</ele><time>2026-04-26T14:50:52.003Z</time></trkpt><trkpt lat="43.28915320148838" lon="10.811384734252648"><ele>226.5</ele><time>2026-04-26T14:50:53.003Z</time></trkpt><trkpt lat="43.28909634598786" lon="10.811539066032966"><ele>226.25</ele><time>2026-04-26T14:50:54.003Z</time></trkpt><trkpt lat="43.28904383927703" lon="10.81167256508678"><ele>226.0</ele><time>2026-04-26T14:50:55Z</time></trkpt><trkpt lat="43.288990290579484" lon="10.811763131964401"><ele>226.0</ele><time>2026-04-26T14:50:56Z</time></trkpt><trkpt lat="43.28888339072182" lon="10.811769803535675"><ele>226.00000000000003</ele><time>2026-04-26T14:50:58Z</time></trkpt><trkpt lat="43.288845897322254" lon="10.811678983512916"><ele>226.00000000000003</ele><time>2026-04-26T14:50:59Z</time></trkpt><trkpt lat="43.288860612072845" lon="10.81156757342977"><ele>226.0</ele><time>2026-04-26T14:51:00Z</time></trkpt><trkpt lat="43.28890372283356" lon="10.811455109668717"><ele>226.0</ele><time>2026-04-26T14:51:01Z</time></trkpt><trkpt lat="43.288931271946986" lon="10.811305897488122"><ele>226.0</ele><time>2026-04-26T14:51:02Z</time></trkpt><trkpt lat="43.28894829879421" lon="10.811151736152802"><ele>226.0</ele><time>2026-04-26T14:51:03Z</time></trkpt><trkpt lat="43.288926607744585" lon="10.810987103871263"><ele>226.0</ele><time>2026-04-26T14:51:04Z</time></trkpt><trkpt lat="43.288877366089224" lon="10.810797133948281"><ele>226.0</ele><time>2026-04-26T14:51:05Z</time></trkpt><trkpt lat="43.288820216631734" lon="10.810591894212461"><ele>230.0</ele><time>2026-04-26T14:51:06Z</time></trkpt><trkpt lat="43.2887701306851" lon="10.810394816810852"><ele>234.0</ele><time>2026-04-26T14:51:07Z</time></trkpt><trkpt lat="43.288730274895705" lon="10.810216740621527"><ele>238.0</ele><time>2026-04-26T14:51:08Z</time></trkpt><trkpt lat="43.28870366449736" lon="10.810037416973888"><ele>242.0</ele><time>2026-04-26T14:51:09Z</time></trkpt><trkpt lat="43.28873646360249" lon="10.809867563744618"><ele>243.0</ele><time>2026-04-26T14:51:10Z</time></trkpt><trkpt lat="43.28876447508176" lon="10.809700231302815"><ele>244.0</ele><time>2026-04-26T14:51:11Z</time></trkpt><trkpt lat="43.28878136240635" lon="10.80955479100317"><ele>245.0</ele><time>2026-04-26T14:51:12Z</time></trkpt><trkpt lat="43.28880057660888" lon="10.809412286085715"><ele>246.0</ele><time>2026-04-26T14:51:13Z</time></trkpt><trkpt lat="43.288802437306565" lon="10.809276921118586"><ele>247.0</ele><time>2026-04-26T14:51:14Z</time></trkpt><trkpt lat="43.28878984778832" lon="10.80915711894968"><ele>248.0</ele><time>2026-04-26T14:51:15Z</time></trkpt><trkpt lat="43.288765418281066" lon="10.809061720625047"><ele>249.0</ele><time>2026-04-26T14:51:16Z</time></trkpt><trkpt lat="43.28872404556968" lon="10.808992717420049"><ele>250.0</ele><time>2026-04-26T14:51:17Z</time></trkpt><trkpt lat="43.28861194047999" lon="10.808961505049496"><ele>251.0</ele><time>2026-04-26T14:51:19Z</time></trkpt><trkpt lat="43.28854787046193" lon="10.809008652794468"><ele>252.0</ele><time>2026-04-26T14:51:20Z</time></trkpt><trkpt lat="43.28852414352775" lon="10.809181888901142"><ele>252.0</ele><time>2026-04-26T14:51:21Z</time></trkpt><trkpt lat="43.28847511413175" lon="10.809320969345032"><ele>252.0</ele><time>2026-04-26T14:51:22Z</time></trkpt><trkpt lat="43.28843079515217" lon="10.80949998660351"><ele>252.0</ele><time>2026-04-26T14:51:23Z</time></trkpt><trkpt lat="43.28838705049612" lon="10.809679749374126"><ele>252.0</ele><time>2026-04-26T14:51:24Z</time></trkpt><trkpt lat="43.2883429005968" lon="10.809883377299839"><ele>250.75</ele><time>2026-04-26T14:51:25Z</time></trkpt><trkpt lat="43.28830865062056" lon="10.810104770497599"><ele>249.5</ele><time>2026-04-26T14:51:26.001Z</time></trkpt><trkpt lat="43.28829225908101" lon="10.81030596090123"><ele>248.25</ele><time>2026-04-26T14:51:27.001Z</time></trkpt><trkpt lat="43.28828170780533" lon="10.81049222825239"><ele>247.0</ele><time>2026-04-26T14:51:28.001Z</time></trkpt><trkpt lat="43.28829015816161" lon="10.810662517018052"><ele>247.6</ele><time>2026-04-26T14:51:29.001Z</time></trkpt><trkpt lat="43.2882791679414" lon="10.81081786859417"><ele>248.2</ele><time>2026-04-26T14:51:30.001Z</time></trkpt><trkpt lat="43.28825186295194" lon="10.810964071044234"><ele>248.8</ele><time>2026-04-26T14:51:31.001Z</time></trkpt><trkpt lat="43.288209385658234" lon="10.811088066200416"><ele>249.4</ele><time>2026-04-26T14:51:32.001Z</time></trkpt><trkpt lat="43.28815334489721" lon="10.811206858199915"><ele>250.0</ele><time>2026-04-26T14:51:33.001Z</time></trkpt><trkpt lat="43.288088641750186" lon="10.811305042499734"><ele>249.99999999999997</ele><time>2026-04-26T14:51:34.001Z</time></trkpt><trkpt lat="43.28801476076177" lon="10.81138854578095"><ele>250.0</ele><time>2026-04-26T14:51:35.001Z</time></trkpt><trkpt lat="43.287934602527244" lon="10.81146001944532"><ele>250.0</ele><time>2026-04-26T14:51:36.001Z</time></trkpt><trkpt lat="43.28785882202704" lon="10.811531086934641"><ele>250.0</ele><time>2026-04-26T14:51:37.001Z</time></trkpt><trkpt lat="43.287787302555586" lon="10.811585323033398"><ele>249.99999999999997</ele><time>2026-04-26T14:51:38.001Z</time></trkpt><trkpt lat="43.287721163344756" lon="10.81163257590369"><ele>250.0</ele><time>2026-04-26T14:51:39.001Z</time></trkpt><trkpt lat="43.28765668951859" lon="10.811678823458044"><ele>250.0</ele><time>2026-04-26T14:51:40.001Z</time></trkpt><trkpt lat="43.287588381124344" lon="10.811716290919508"><ele>250.0</ele><time>2026-04-26T14:51:41.001Z</time></trkpt><trkpt lat="43.287507109446715" lon="10.811742674088977"><ele>250.0</ele><time>2026-04-26T14:51:42.001Z</time></trkpt><trkpt lat="43.28740850700372" lon="10.811767423441704"><ele>250.0</ele><time>2026-04-26T14:51:43.001Z</time></trkpt><trkpt lat="43.287304361549545" lon="10.811808975670278"><ele>250.0</ele><time>2026-04-26T14:51:44.001Z</time></trkpt><trkpt lat="43.28720627381044" lon="10.81186469536353"><ele>252.8</ele><time>2026-04-26T14:51:45.001Z</time></trkpt><trkpt lat="43.28711032261107" lon="10.811943757401917"><ele>255.6</ele><time>2026-04-26T14:51:46.001Z</time></trkpt><trkpt lat="43.28702734953785" lon="10.812028765121884"><ele>258.4</ele><time>2026-04-26T14:51:47.001Z</time></trkpt><trkpt lat="43.28696558624899" lon="10.812129385704626"><ele>261.2</ele><time>2026-04-26T14:51:48.001Z</time></trkpt><trkpt lat="43.286909777085334" lon="10.812235405625334"><ele>264.0</ele><time>2026-04-26T14:51:49.001Z</time></trkpt><trkpt lat="43.286857878123996" lon="10.812364849090418"><ele>264.0</ele><time>2026-04-26T14:51:50.001Z</time></trkpt><trkpt lat="43.28685715264726" lon="10.812508463038768"><ele>264.0</ele><time>2026-04-26T14:51:51.001Z</time></trkpt><trkpt lat="43.286896481242124" lon="10.812664583925109"><ele>264.0</ele><time>2026-04-26T14:51:52.001Z</time></trkpt><trkpt lat="43.28692703499521" lon="10.812856888292865"><ele>264.0</ele><time>2026-04-26T14:51:53.001Z</time></trkpt><trkpt lat="43.28697073175684" lon="10.813021087457965"><ele>263.4</ele><time>2026-04-26T14:51:54.001Z</time></trkpt><trkpt lat="43.28700389276797" lon="10.813149632727843"><ele>262.79999999999995</ele><time>2026-04-26T14:51:55.001Z</time></trkpt><trkpt lat="43.28703820843822" lon="10.813263924831732"><ele>262.20000000000005</ele><time>2026-04-26T14:51:56.001Z</time></trkpt><trkpt lat="43.28701531561244" lon="10.813372422809703"><ele>261.6</ele><time>2026-04-26T14:51:57.001Z</time></trkpt><trkpt lat="43.28692270401437" lon="10.813431900224995"><ele>261.0</ele><time>2026-04-26T14:51:58.001Z</time></trkpt><trkpt lat="43.286834549687526" lon="10.813550047679769"><ele>259.5</ele><time>2026-04-26T14:51:59.001Z</time></trkpt><trkpt lat="43.28672447138669" lon="10.813679628961994"><ele>258.0</ele><time>2026-04-26T14:52:00.002Z</time></trkpt><trkpt lat="43.286618312987024" lon="10.813790032712514"><ele>256.5</ele><time>2026-04-26T14:52:01.002Z</time></trkpt><trkpt lat="43.286514185851054" lon="10.813882518165652"><ele>255.0</ele><time>2026-04-26T14:52:02.002Z</time></trkpt><trkpt lat="43.28642226279921" lon="10.813963739037543"><ele>257.75</ele><time>2026-04-26T14:52:03.002Z</time></trkpt><trkpt lat="43.28633433174492" lon="10.814054730060986"><ele>260.5</ele><time>2026-04-26T14:52:04.002Z</time></trkpt><trkpt lat="43.286284792167095" lon="10.814215883262237"><ele>263.25</ele><time>2026-04-26T14:52:05.002Z</time></trkpt><trkpt lat="43.28623959503495" lon="10.814368905123684"><ele>266.0</ele><time>2026-04-26T14:52:06.002Z</time></trkpt><trkpt lat="43.2861938812746" lon="10.814485123987088"><ele>266.0</ele><time>2026-04-26T14:52:07.002Z</time></trkpt><trkpt lat="43.286156031637084" lon="10.814581686968516"><ele>266.0</ele><time>2026-04-26T14:52:08.002Z</time></trkpt><trkpt lat="43.28610371662529" lon="10.814658747159239"><ele>266.0</ele><time>2026-04-26T14:52:09.002Z</time></trkpt><trkpt lat="43.286029371202176" lon="10.81470967074082"><ele>266.0</ele><time>2026-04-26T14:52:10.002Z</time></trkpt><trkpt lat="43.28592844612719" lon="10.814748519203459"><ele>266.0</ele><time>2026-04-26T14:52:11.002Z</time></trkpt><trkpt lat="43.28580555562069" lon="10.814786665456873"><ele>266.0</ele><time>2026-04-26T14:52:12.002Z</time></trkpt><trkpt lat="43.285684660761966" lon="10.814841728867249"><ele>266.0</ele><time>2026-04-26T14:52:13.002Z</time></trkpt><trkpt lat="43.28556060926601" lon="10.814861665987852"><ele>266.0</ele><time>2026-04-26T14:52:14.002Z</time></trkpt><trkpt lat="43.285461831317406" lon="10.814932491988074"><ele>266.0</ele><time>2026-04-26T14:52:15.002Z</time></trkpt><trkpt lat="43.285365739066584" lon="10.815005202340085"><ele>267.5</ele><time>2026-04-26T14:52:16.002Z</time></trkpt><trkpt lat="43.285265445085926" lon="10.815117295924573"><ele>269.0</ele><time>2026-04-26T14:52:17.002Z</time></trkpt><trkpt lat="43.28515466718771" lon="10.815250201941286"><ele>270.5</ele><time>2026-04-26T14:52:18.002Z</time></trkpt><trkpt lat="43.28503151761423" lon="10.815367461644202"><ele>272.0</ele><time>2026-04-26T14:52:19.002Z</time></trkpt><trkpt lat="43.28492537796972" lon="10.815496301061817"><ele>272.0</ele><time>2026-04-26T14:52:20.002Z</time></trkpt><trkpt lat="43.284835331289514" lon="10.815607945442265"><ele>272.0</ele><time>2026-04-26T14:52:21.002Z</time></trkpt><trkpt lat="43.284767316541874" lon="10.815711964198782"><ele>272.0</ele><time>2026-04-26T14:52:22.002Z</time></trkpt><trkpt lat="43.2846867018395" lon="10.815786915295071"><ele>272.0</ele><time>2026-04-26T14:52:23.002Z</time></trkpt><trkpt lat="43.2846201979594" lon="10.815845931297126"><ele>272.0</ele><time>2026-04-26T14:52:24.002Z</time></trkpt><trkpt lat="43.284555293757094" lon="10.815894792592443"><ele>273.5</ele><time>2026-04-26T14:52:25.002Z</time></trkpt><trkpt lat="43.284491225375774" lon="10.815927491957448"><ele>275.0</ele><time>2026-04-26T14:52:26.002Z</time></trkpt><trkpt lat="43.284425719357706" lon="10.815935986176576"><ele>276.5</ele><time>2026-04-26T14:52:27.002Z</time></trkpt><trkpt lat="43.28436096573954" lon="10.81588742901011"><ele>278.0</ele><time>2026-04-26T14:52:28.002Z</time></trkpt><trkpt lat="43.284305339232446" lon="10.815779397767002"><ele>279.5</ele><time>2026-04-26T14:52:29.002Z</time></trkpt><trkpt lat="43.28421161179841" lon="10.815666911867869"><ele>281.0</ele><time>2026-04-26T14:52:30.002Z</time></trkpt><trkpt lat="43.28412612011807" lon="10.815520076481071"><ele>281.0</ele><time>2026-04-26T14:52:31.002Z</time></trkpt><trkpt lat="43.28403559810197" lon="10.815380218385423"><ele>281.0</ele><time>2026-04-26T14:52:32.002Z</time></trkpt><trkpt lat="43.28394774225414" lon="10.815263455819489"><ele>281.0</ele><time>2026-04-26T14:52:33.003Z</time></trkpt><trkpt lat="43.28385525705927" lon="10.815183549152941"><ele>281.0</ele><time>2026-04-26T14:52:34.003Z</time></trkpt><trkpt lat="43.28375228778438" lon="10.815147195092424"><ele>280.5</ele><time>2026-04-26T14:52:35.003Z</time></trkpt><trkpt lat="43.28363871015958" lon="10.815156152789484"><ele>280.0</ele><time>2026-04-26T14:52:36.003Z</time></trkpt><trkpt lat="43.28351930740152" lon="10.815204856441408"><ele>279.5</ele><time>2026-04-26T14:52:37.003Z</time></trkpt><trkpt lat="43.28340203149468" lon="10.815276416569981"><ele>279.0</ele><time>2026-04-26T14:52:38.003Z</time></trkpt><trkpt lat="43.28330399901586" lon="10.815319041263878"><ele>279.0</ele><time>2026-04-26T14:52:39.003Z</time></trkpt><trkpt lat="43.28322010222141" lon="10.815314271672028"><ele>279.0</ele><time>2026-04-26T14:52:40.003Z</time></trkpt><trkpt lat="43.28316097634967" lon="10.815262840035485"><ele>279.0</ele><time>2026-04-26T14:52:41.003Z</time></trkpt><trkpt lat="43.283147892127666" lon="10.81517570509915"><ele>279.0</ele><time>2026-04-26T14:52:42.003Z</time></trkpt><trkpt lat="43.283177027730126" lon="10.815080275792486"><ele>279.0</ele><time>2026-04-26T14:52:43.003Z</time></trkpt><trkpt lat="43.28326557761427" lon="10.81502669640963"><ele>279.0</ele><time>2026-04-26T14:52:44.003Z</time></trkpt><trkpt lat="43.283369951784" lon="10.814896980712287"><ele>283.3333333333333</ele><time>2026-04-26T14:52:45.003Z</time></trkpt><trkpt lat="43.28349093455519" lon="10.814781115660155"><ele>287.66666666666663</ele><time>2026-04-26T14:52:46.003Z</time></trkpt><trkpt lat="43.283626974007184" lon="10.814653385357538"><ele>292.0</ele><time>2026-04-26T14:52:47.003Z</time></trkpt><trkpt lat="43.2837535263852" lon="10.81453433801726"><ele>292.0</ele><time>2026-04-26T14:52:48.003Z</time></trkpt><trkpt lat="43.28386318892488" lon="10.814437387633099"><ele>292.0</ele><time>2026-04-26T14:52:49.003Z</time></trkpt><trkpt lat="43.283973243027546" lon="10.814360391115802"><ele>292.0</ele><time>2026-04-26T14:52:50.003Z</time></trkpt><trkpt lat="43.28407062568384" lon="10.81430143528662"><ele>292.0</ele><time>2026-04-26T14:52:51.003Z</time></trkpt><trkpt lat="43.28415633560567" lon="10.814226201581784"><ele>293.25</ele><time>2026-04-26T14:52:52.003Z</time></trkpt><trkpt lat="43.28423922106754" lon="10.814104700017264"><ele>294.5</ele><time>2026-04-26T14:52:53.003Z</time></trkpt><trkpt lat="43.284306760408825" lon="10.81396578617111"><ele>295.75</ele><time>2026-04-26T14:52:54.003Z</time></trkpt><trkpt lat="43.28435706305608" lon="10.813836102052552"><ele>297.0</ele><time>2026-04-26T14:52:55.003Z</time></trkpt><trkpt lat="43.284399844369176" lon="10.813711709538593"><ele>297.0</ele><time>2026-04-26T14:52:56.003Z</time></trkpt><trkpt lat="43.28443311418889" lon="10.813555438728804"><ele>297.0</ele><time>2026-04-26T14:52:57.003Z</time></trkpt><trkpt lat="43.28444238612355" lon="10.813377763160887"><ele>297.0</ele><time>2026-04-26T14:52:58.003Z</time></trkpt><trkpt lat="43.28443179579123" lon="10.81318899245585"><ele>297.0</ele><time>2026-04-26T14:52:59.003Z</time></trkpt><trkpt lat="43.28441134298507" lon="10.813008481461871"><ele>299.0</ele><time>2026-04-26T14:53:00.003Z</time></trkpt><trkpt lat="43.28440139059818" lon="10.812857367489269"><ele>301.0</ele><time>2026-04-26T14:53:01Z</time></trkpt><trkpt lat="43.28441519890295" lon="10.812719462200969"><ele>303.0</ele><time>2026-04-26T14:53:02Z</time></trkpt><trkpt lat="43.28445222596748" lon="10.8125775548287"><ele>305.0</ele><time>2026-04-26T14:53:03Z</time></trkpt><trkpt lat="43.28450408933923" lon="10.81243777988771"><ele>307.0</ele><time>2026-04-26T14:53:04Z</time></trkpt><trkpt lat="43.28455678641734" lon="10.812313589682608"><ele>311.5</ele><time>2026-04-26T14:53:05Z</time></trkpt><trkpt lat="43.284603212554686" lon="10.812188825264107"><ele>316.0</ele><time>2026-04-26T14:53:06Z</time></trkpt><trkpt lat="43.284613974880834" lon="10.812046669543905"><ele>320.5</ele><time>2026-04-26T14:53:07Z</time></trkpt><trkpt lat="43.28462629544838" lon="10.811867925252912"><ele>325.0</ele><time>2026-04-26T14:53:08Z</time></trkpt><trkpt lat="43.28463471949925" lon="10.811657060245949"><ele>317.66666666666663</ele><time>2026-04-26T14:53:09Z</time></trkpt><trkpt lat="43.284707245888484" lon="10.811438590958907"><ele>310.3333333333333</ele><time>2026-04-26T14:53:10Z</time></trkpt><trkpt lat="43.28474435679433" lon="10.811207312071796"><ele>303.0</ele><time>2026-04-26T14:53:11Z</time></trkpt><trkpt lat="43.284803613442854" lon="10.811031692758734"><ele>306.5</ele><time>2026-04-26T14:53:12Z</time></trkpt><trkpt lat="43.28484764415358" lon="10.810861396319215"><ele>310.0</ele><time>2026-04-26T14:53:13Z</time></trkpt><trkpt lat="43.28491489983536" lon="10.810691531188512"><ele>313.5</ele><time>2026-04-26T14:53:14Z</time></trkpt><trkpt lat="43.284983085348095" lon="10.810536976409233"><ele>317.0</ele><time>2026-04-26T14:53:15Z</time></trkpt><trkpt lat="43.2850617811712" lon="10.810417265909749"><ele>317.0</ele><time>2026-04-26T14:53:16Z</time></trkpt><trkpt lat="43.285123962069825" lon="10.810287446120615"><ele>317.0</ele><time>2026-04-26T14:53:17Z</time></trkpt><trkpt lat="43.28515773774744" lon="10.810123629525163"><ele>317.0</ele><time>2026-04-26T14:53:18Z</time></trkpt><trkpt lat="43.28518734205109" lon="10.809942271669989"><ele>317.0</ele><time>2026-04-26T14:53:19Z</time></trkpt><trkpt lat="43.28519734815352" lon="10.809780864955444"><ele>320.75</ele><time>2026-04-26T14:53:20Z</time></trkpt><trkpt lat="43.285190890826335" lon="10.809611430417212"><ele>324.5</ele><time>2026-04-26T14:53:21Z</time></trkpt><trkpt lat="43.28516818205587" lon="10.809443371349314"><ele>328.25</ele><time>2026-04-26T14:53:22Z</time></trkpt><trkpt lat="43.28512939455563" lon="10.80928083274235"><ele>332.0</ele><time>2026-04-26T14:53:23Z</time></trkpt><trkpt lat="43.28508717315048" lon="10.809127214453012"><ele>332.0</ele><time>2026-04-26T14:53:24Z</time></trkpt><trkpt lat="43.285041844522276" lon="10.808972999707764"><ele>332.0</ele><time>2026-04-26T14:53:25Z</time></trkpt><trkpt lat="43.28498427290126" lon="10.808831511626991"><ele>332.0</ele><time>2026-04-26T14:53:26Z</time></trkpt><trkpt lat="43.28491393391347" lon="10.808691267758492"><ele>332.0</ele><time>2026-04-26T14:53:27Z</time></trkpt><trkpt lat="43.28484470304739" lon="10.808574148560524"><ele>330.20000000000005</ele><time>2026-04-26T14:53:28Z</time></trkpt><trkpt lat="43.284789061408" lon="10.808465026041846"><ele>328.4</ele><time>2026-04-26T14:53:29Z</time></trkpt><trkpt lat="43.28474398934034" lon="10.80834471531957"><ele>326.6</ele><time>2026-04-26T14:53:30Z</time></trkpt><trkpt lat="43.28471799140871" lon="10.808222173413437"><ele>324.79999999999995</ele><time>2026-04-26T14:53:31Z</time></trkpt><trkpt lat="43.28473274943996" lon="10.808082331704613"><ele>323.0</ele><time>2026-04-26T14:53:32Z</time></trkpt><trkpt lat="43.284803685436685" lon="10.807934010547436"><ele>323.0</ele><time>2026-04-26T14:53:33.001Z</time></trkpt><trkpt lat="43.284833669497694" lon="10.807737515128924"><ele>323.0</ele><time>2026-04-26T14:53:34.001Z</time></trkpt><trkpt lat="43.28487623077672" lon="10.807536214466666"><ele>323.0</ele><time>2026-04-26T14:53:35.001Z</time></trkpt><trkpt lat="43.28489410897344" lon="10.807370995955093"><ele>323.0</ele><time>2026-04-26T14:53:36.001Z</time></trkpt><trkpt lat="43.284880616974235" lon="10.807215973460206"><ele>323.75</ele><time>2026-04-26T14:53:37.001Z</time></trkpt><trkpt lat="43.28485152983912" lon="10.807048026620047"><ele>324.5</ele><time>2026-04-26T14:53:38.001Z</time></trkpt><trkpt lat="43.284791252396786" lon="10.806868695637068"><ele>325.25</ele><time>2026-04-26T14:53:39.001Z</time></trkpt><trkpt lat="43.2847490552908" lon="10.806710930498024"><ele>326.0</ele><time>2026-04-26T14:53:40.001Z</time></trkpt><trkpt lat="43.284718582385565" lon="10.806568531426159"><ele>326.0</ele><time>2026-04-26T14:53:41.001Z</time></trkpt><trkpt lat="43.284728851063925" lon="10.806419863169232"><ele>326.0</ele><time>2026-04-26T14:53:42.001Z</time></trkpt><trkpt lat="43.28478269161894" lon="10.806287890591053"><ele>326.0</ele><time>2026-04-26T14:53:43.001Z</time></trkpt><trkpt lat="43.284822255990214" lon="10.806124978475873"><ele>326.0</ele><time>2026-04-26T14:53:44.001Z</time></trkpt><trkpt lat="43.28485814234529" lon="10.805980992304399"><ele>327.5</ele><time>2026-04-26T14:53:45.001Z</time></trkpt><trkpt lat="43.28488711773002" lon="10.805822850375186"><ele>329.0</ele><time>2026-04-26T14:53:46.001Z</time></trkpt><trkpt lat="43.28489295104981" lon="10.805658036014355"><ele>330.5</ele><time>2026-04-26T14:53:47.001Z</time></trkpt><trkpt lat="43.28485484739528" lon="10.805464560784065"><ele>332.0</ele><time>2026-04-26T14:53:48.001Z</time></trkpt><trkpt lat="43.28482232936367" lon="10.80526593457203"><ele>333.5</ele><time>2026-04-26T14:53:49.001Z</time></trkpt><trkpt lat="43.28482608307951" lon="10.805088653106733"><ele>335.0</ele><time>2026-04-26T14:53:50.001Z</time></trkpt><trkpt lat="43.28485575889773" lon="10.804900989870019"><ele>336.5</ele><time>2026-04-26T14:53:51.001Z</time></trkpt><trkpt lat="43.28487400755391" lon="10.804724769280519"><ele>338.0</ele><time>2026-04-26T14:53:52.001Z</time></trkpt><trkpt lat="43.28489045456867" lon="10.804570330979978"><ele>338.0</ele><time>2026-04-26T14:53:53.001Z</time></trkpt><trkpt lat="43.284915663296" lon="10.804428769472928"><ele>338.0</ele><time>2026-04-26T14:53:54.001Z</time></trkpt><trkpt lat="43.284974262553845" lon="10.804314284713783"><ele>338.0</ele><time>2026-04-26T14:53:55.001Z</time></trkpt><trkpt lat="43.28503709763851" lon="10.804192593330633"><ele>338.0</ele><time>2026-04-26T14:53:56.001Z</time></trkpt><trkpt lat="43.285078745261636" lon="10.804083678883288"><ele>338.0</ele><time>2026-04-26T14:53:57.001Z</time></trkpt><trkpt lat="43.28509579090021" lon="10.80397708524323"><ele>338.2</ele><time>2026-04-26T14:53:58.001Z</time></trkpt><trkpt lat="43.28512765723891" lon="10.803888086137801"><ele>338.4</ele><time>2026-04-26T14:53:59.001Z</time></trkpt><trkpt lat="43.28509821692679" lon="10.803776769105768"><ele>338.59999999999997</ele><time>2026-04-26T14:54:00.001Z</time></trkpt><trkpt lat="43.28503814552745" lon="10.803665000815249"><ele>338.79999999999995</ele><time>2026-04-26T14:54:01.001Z</time></trkpt><trkpt lat="43.284934996146234" lon="10.80356467482905"><ele>339.0</ele><time>2026-04-26T14:54:02.001Z</time></trkpt><trkpt lat="43.2848458303228" lon="10.803461938125892"><ele>339.0</ele><time>2026-04-26T14:54:03.001Z</time></trkpt><trkpt lat="43.28478081300555" lon="10.803350875171006"><ele>339.0</ele><time>2026-04-26T14:54:04.002Z</time></trkpt><trkpt lat="43.28471943617495" lon="10.803276935487048"><ele>339.0</ele><time>2026-04-26T14:54:05.002Z</time></trkpt><trkpt lat="43.28464396157629" lon="10.803257190142073"><ele>339.0</ele><time>2026-04-26T14:54:06.002Z</time></trkpt><trkpt lat="43.284570019996956" lon="10.803320825954563"><ele>339.0</ele><time>2026-04-26T14:54:07.002Z</time></trkpt><trkpt lat="43.284536482255625" lon="10.803486057214108"><ele>340.0</ele><time>2026-04-26T14:54:09.002Z</time></trkpt><trkpt lat="43.28468371798957" lon="10.803600126312755"><ele>341.0</ele><time>2026-04-26T14:54:11.002Z</time></trkpt><trkpt lat="43.28474200101402" lon="10.803650620513174"><ele>342.0</ele><time>2026-04-26T14:54:12.002Z</time></trkpt><trkpt lat="43.28477737021968" lon="10.803747230272792"><ele>343.0</ele><time>2026-04-26T14:54:13.002Z</time></trkpt><trkpt lat="43.284764876832575" lon="10.803841461928911"><ele>344.0</ele><time>2026-04-26T14:54:14.002Z</time></trkpt><trkpt lat="43.284737487438775" lon="10.803944897482989"><ele>350.25</ele><time>2026-04-26T14:54:15.002Z</time></trkpt><trkpt lat="43.2846727031148" lon="10.804052546214525"><ele>356.5</ele><time>2026-04-26T14:54:16.002Z</time></trkpt><trkpt lat="43.284609939716255" lon="10.804217808956814"><ele>362.75</ele><time>2026-04-26T14:54:17.002Z</time></trkpt><trkpt lat="43.28457019745513" lon="10.804403809701535"><ele>369.0</ele><time>2026-04-26T14:54:18.002Z</time></trkpt><trkpt lat="43.284533177796135" lon="10.804545164263017"><ele>369.0</ele><time>2026-04-26T14:54:19.002Z</time></trkpt><trkpt lat="43.284486840038184" lon="10.804677574748935"><ele>369.0</ele><time>2026-04-26T14:54:20.002Z</time></trkpt><trkpt lat="43.284419357695455" lon="10.804801730206966"><ele>369.0</ele><time>2026-04-26T14:54:21.002Z</time></trkpt><trkpt lat="43.28429710980512" lon="10.804848500331131"><ele>369.0</ele><time>2026-04-26T14:54:22.002Z</time></trkpt><trkpt lat="43.284211099694225" lon="10.804941116090315"><ele>369.0</ele><time>2026-04-26T14:54:23.002Z</time></trkpt><trkpt lat="43.28413618966518" lon="10.80503254356331"><ele>369.0</ele><time>2026-04-26T14:54:24.002Z</time></trkpt><trkpt lat="43.28406910428511" lon="10.805149268796063"><ele>369.0</ele><time>2026-04-26T14:54:25.002Z</time></trkpt><trkpt lat="43.284042014527095" lon="10.805334273904066"><ele>369.0</ele><time>2026-04-26T14:54:26.002Z</time></trkpt><trkpt lat="43.28398809334541" lon="10.805481253969978"><ele>373.0</ele><time>2026-04-26T14:54:27.002Z</time></trkpt><trkpt lat="43.28388309318628" lon="10.805576131416958"><ele>377.0</ele><time>2026-04-26T14:54:28.002Z</time></trkpt><trkpt lat="43.283756809839495" lon="10.805709682256943"><ele>381.0</ele><time>2026-04-26T14:54:29.002Z</time></trkpt><trkpt lat="43.28364968305725" lon="10.805846510858665"><ele>385.0</ele><time>2026-04-26T14:54:30.002Z</time></trkpt><trkpt lat="43.28358319685484" lon="10.805976773248883"><ele>386.6</ele><time>2026-04-26T14:54:31.002Z</time></trkpt><trkpt lat="43.283546751996084" lon="10.806109283356701"><ele>388.2</ele><time>2026-04-26T14:54:32.002Z</time></trkpt><trkpt lat="43.283531692862816" lon="10.806253824645108"><ele>389.79999999999995</ele><time>2026-04-26T14:54:33.002Z</time></trkpt><trkpt lat="43.283561306325645" lon="10.806392004542282"><ele>391.4</ele><time>2026-04-26T14:54:34.002Z</time></trkpt><trkpt lat="43.28365209321987" lon="10.806505150806546"><ele>393.0</ele><time>2026-04-26T14:54:35.002Z</time></trkpt><trkpt lat="43.28375906182436" lon="10.806648549819316"><ele>393.0</ele><time>2026-04-26T14:54:36.002Z</time></trkpt><trkpt lat="43.283838027182036" lon="10.806822037162558"><ele>393.0</ele><time>2026-04-26T14:54:37.003Z</time></trkpt><trkpt lat="43.283913028289476" lon="10.806965886153108"><ele>393.0</ele><time>2026-04-26T14:54:38.003Z</time></trkpt><trkpt lat="43.283963358956164" lon="10.807092032081753"><ele>393.0</ele><time>2026-04-26T14:54:39.003Z</time></trkpt><trkpt lat="43.283995982335675" lon="10.807209069750696"><ele>393.8333333333333</ele><time>2026-04-26T14:54:40.003Z</time></trkpt><trkpt lat="43.28400899921986" lon="10.807320864180685"><ele>394.66666666666663</ele><time>2026-04-26T14:54:41.003Z</time></trkpt><trkpt lat="43.28399034147622" lon="10.807417881987568"><ele>395.5</ele><time>2026-04-26T14:54:42.003Z</time></trkpt><trkpt lat="43.283935181724694" lon="10.80746490963702"><ele>396.3333333333333</ele><time>2026-04-26T14:54:43.003Z</time></trkpt><trkpt lat="43.283860174117784" lon="10.807473588412607"><ele>397.16666666666663</ele><time>2026-04-26T14:54:44.003Z</time></trkpt><trkpt lat="43.28378556511996" lon="10.80746214212627"><ele>398.0</ele><time>2026-04-26T14:54:45.003Z</time></trkpt><trkpt lat="43.28366866076424" lon="10.807420394446714"><ele>397.99999999999994</ele><time>2026-04-26T14:54:46.003Z</time></trkpt><trkpt lat="43.28356159967876" lon="10.807422359808259"><ele>398.0</ele><time>2026-04-26T14:54:47.003Z</time></trkpt><trkpt lat="43.28347627536129" lon="10.807434258878393"><ele>398.0</ele><time>2026-04-26T14:54:48.003Z</time></trkpt><trkpt lat="43.28340795399258" lon="10.807476752330215"><ele>398.0</ele><time>2026-04-26T14:54:49.003Z</time></trkpt><trkpt lat="43.2833773792101" lon="10.80758202166891"><ele>397.99999999999994</ele><time>2026-04-26T14:54:50.003Z</time></trkpt><trkpt lat="43.28339151786298" lon="10.807701808650508"><ele>398.0</ele><time>2026-04-26T14:54:51.003Z</time></trkpt><trkpt lat="43.283454698385" lon="10.80782569931846"><ele>400.5</ele><time>2026-04-26T14:54:52.003Z</time></trkpt><trkpt lat="43.28354087695123" lon="10.807961691982012"><ele>403.0</ele><time>2026-04-26T14:54:53.003Z</time></trkpt><trkpt lat="43.283622074369944" lon="10.808141969586302"><ele>405.5</ele><time>2026-04-26T14:54:54.003Z</time></trkpt><trkpt lat="43.28368923265641" lon="10.80830273623518"><ele>408.0</ele><time>2026-04-26T14:54:55.003Z</time></trkpt><trkpt lat="43.28373868621345" lon="10.808450441327675"><ele>409.4</ele><time>2026-04-26T14:54:56.003Z</time></trkpt><trkpt lat="43.28376030946319" lon="10.808577163035302"><ele>410.79999999999995</ele><time>2026-04-26T14:54:57.003Z</time></trkpt><trkpt lat="43.28375075098694" lon="10.808687693452091"><ele>412.2</ele><time>2026-04-26T14:54:58.003Z</time></trkpt><trkpt lat="43.28373191453273" lon="10.808817793065982"><ele>413.6</ele><time>2026-04-26T14:54:59.003Z</time></trkpt><trkpt lat="43.28370922862162" lon="10.80898225363732"><ele>415.0</ele><time>2026-04-26T14:55:00.003Z</time></trkpt><trkpt lat="43.28369402866957" lon="10.809137924426281"><ele>415.0</ele><time>2026-04-26T14:55:01.003Z</time></trkpt><trkpt lat="43.28372085282028" lon="10.809283276098814"><ele>415.0</ele><time>2026-04-26T14:55:02.003Z</time></trkpt><trkpt lat="43.28379349358798" lon="10.809431545472163"><ele>415.0</ele><time>2026-04-26T14:55:03.003Z</time></trkpt><trkpt lat="43.28388627270488" lon="10.809564565184553"><ele>415.0</ele><time>2026-04-26T14:55:04.003Z</time></trkpt><trkpt lat="43.283945160746576" lon="10.809682810808626"><ele>414.33333333333337</ele><time>2026-04-26T14:55:05.003Z</time></trkpt><trkpt lat="43.28397546480671" lon="10.80978863352821"><ele>413.6666666666667</ele><time>2026-04-26T14:55:06.003Z</time></trkpt><trkpt lat="43.28398251677561" lon="10.809904167913423"><ele>413.0</ele><time>2026-04-26T14:55:07Z</time></trkpt><trkpt lat="43.2839549407982" lon="10.81002485944841"><ele>412.33333333333337</ele><time>2026-04-26T14:55:08Z</time></trkpt><trkpt lat="43.283896385165626" lon="10.810125953215868"><ele>411.6666666666667</ele><time>2026-04-26T14:55:09Z</time></trkpt><trkpt lat="43.28383075523614" lon="10.81019379023889"><ele>411.0</ele><time>2026-04-26T14:55:10Z</time></trkpt><trkpt lat="43.2837431466251" lon="10.810265824831115"><ele>407.5</ele><time>2026-04-26T14:55:11Z</time></trkpt><trkpt lat="43.28362622321422" lon="10.810305882433482"><ele>404.0</ele><time>2026-04-26T14:55:12Z</time></trkpt><trkpt lat="43.28348260400717" lon="10.810350231720019"><ele>400.5</ele><time>2026-04-26T14:55:13Z</time></trkpt><trkpt lat="43.28335900982709" lon="10.81035092149305"><ele>397.0</ele><time>2026-04-26T14:55:14Z</time></trkpt><trkpt lat="43.28325569525726" lon="10.81034595330338"><ele>397.0</ele><time>2026-04-26T14:55:15Z</time></trkpt><trkpt lat="43.28316505189067" lon="10.810315710706556"><ele>397.0</ele><time>2026-04-26T14:55:16Z</time></trkpt><trkpt lat="43.28309289581056" lon="10.810223486695744"><ele>397.0</ele><time>2026-04-26T14:55:17Z</time></trkpt><trkpt lat="43.28301177201962" lon="10.810116924365387"><ele>397.0</ele><time>2026-04-26T14:55:18Z</time></trkpt><trkpt lat="43.282939985793895" lon="10.810006705358422"><ele>397.0</ele><time>2026-04-26T14:55:19Z</time></trkpt><trkpt lat="43.28286167437411" lon="10.809881763569734"><ele>399.40000000000003</ele><time>2026-04-26T14:55:20Z</time></trkpt><trkpt lat="43.28278391545554" lon="10.809779323232213"><ele>401.8</ele><time>2026-04-26T14:55:21Z</time></trkpt><trkpt lat="43.2827160024125" lon="10.809693891898247"><ele>404.2</ele><time>2026-04-26T14:55:22Z</time></trkpt><trkpt lat="43.28262527409931" lon="10.809629733423273"><ele>406.6</ele><time>2026-04-26T14:55:23Z</time></trkpt><trkpt lat="43.282510203589986" lon="10.80961268023661"><ele>409.0</ele><time>2026-04-26T14:55:24Z</time></trkpt><trkpt lat="43.28239953655623" lon="10.809623908374778"><ele>409.0</ele><time>2026-04-26T14:55:25Z</time></trkpt><trkpt lat="43.282301980304126" lon="10.80969114625946"><ele>409.0</ele><time>2026-04-26T14:55:26Z</time></trkpt><trkpt lat="43.28221388440726" lon="10.809711616665172"><ele>409.0</ele><time>2026-04-26T14:55:27Z</time></trkpt><trkpt lat="43.282177082287554" lon="10.809635359439872"><ele>409.0</ele><time>2026-04-26T14:55:30Z</time></trkpt><trkpt lat="43.28226523361746" lon="10.809524036745373"><ele>409.0</ele><time>2026-04-26T14:55:32Z</time></trkpt><trkpt lat="43.282375298969036" lon="10.809471709221137"><ele>409.0</ele><time>2026-04-26T14:55:33Z</time></trkpt><trkpt lat="43.2825006076373" lon="10.809470524353936"><ele>409.0</ele><time>2026-04-26T14:55:34Z</time></trkpt><trkpt lat="43.28261623198057" lon="10.809483418553496"><ele>409.0</ele><time>2026-04-26T14:55:35Z</time></trkpt><trkpt lat="43.282730927816935" lon="10.809511930954862"><ele>409.0</ele><time>2026-04-26T14:55:36Z</time></trkpt><trkpt lat="43.28287600627645" lon="10.809545195929664"><ele>409.0</ele><time>2026-04-26T14:55:37.001Z</time></trkpt><trkpt lat="43.2829988244763" lon="10.809577545283839"><ele>409.0</ele><time>2026-04-26T14:55:38.001Z</time></trkpt><trkpt lat="43.283091743544446" lon="10.809600699736155"><ele>409.0</ele><time>2026-04-26T14:55:39.001Z</time></trkpt><trkpt lat="43.283192186004825" lon="10.809552762305387"><ele>409.0</ele><time>2026-04-26T14:55:41.001Z</time></trkpt><trkpt lat="43.28322584079025" lon="10.809479539132068"><ele>409.0</ele><time>2026-04-26T14:55:42.001Z</time></trkpt><trkpt lat="43.28319075695116" lon="10.809340304114505"><ele>410.5</ele><time>2026-04-26T14:55:43.001Z</time></trkpt><trkpt lat="43.28313919797851" lon="10.80920774987366"><ele>412.0</ele><time>2026-04-26T14:55:44.001Z</time></trkpt><trkpt lat="43.283089838251435" lon="10.809045809154915"><ele>413.5</ele><time>2026-04-26T14:55:45.001Z</time></trkpt><trkpt lat="43.28303600029582" lon="10.808912379806745"><ele>415.0</ele><time>2026-04-26T14:55:46.001Z</time></trkpt><trkpt lat="43.2829855280288" lon="10.808787290737284"><ele>417.8</ele><time>2026-04-26T14:55:47.001Z</time></trkpt><trkpt lat="43.282897912800856" lon="10.808699591057941"><ele>420.6</ele><time>2026-04-26T14:55:48.001Z</time></trkpt><trkpt lat="43.282817280993754" lon="10.808659763119172"><ele>423.4</ele><time>2026-04-26T14:55:49.001Z</time></trkpt><trkpt lat="43.282717123519845" lon="10.808697047051346"><ele>426.2</ele><time>2026-04-26T14:55:50.001Z</time></trkpt><trkpt lat="43.28262857259745" lon="10.808801103298434"><ele>429.0</ele><time>2026-04-26T14:55:51.001Z</time></trkpt><trkpt lat="43.28252782076059" lon="10.808814051741862"><ele>429.0</ele><time>2026-04-26T14:55:52.001Z</time></trkpt><trkpt lat="43.28244499759009" lon="10.80881858576958"><ele>429.0</ele><time>2026-04-26T14:55:53.001Z</time></trkpt><trkpt lat="43.282364861496134" lon="10.808815092090965"><ele>429.0</ele><time>2026-04-26T14:55:54.001Z</time></trkpt><trkpt lat="43.2822851792509" lon="10.808809576867656"><ele>429.0</ele><time>2026-04-26T14:55:55.001Z</time></trkpt><trkpt lat="43.28221211914977" lon="10.80879851194998"><ele>429.0</ele><time>2026-04-26T14:55:56.001Z</time></trkpt><trkpt lat="43.28214507278957" lon="10.808785479379793"><ele>429.0</ele><time>2026-04-26T14:55:57.001Z</time></trkpt><trkpt lat="43.28207602798363" lon="10.808790692813727"><ele>428.79999999999995</ele><time>2026-04-26T14:55:58.001Z</time></trkpt><trkpt lat="43.28196858717796" lon="10.808751222914427"><ele>428.59999999999997</ele><time>2026-04-26T14:56:00.001Z</time></trkpt><trkpt lat="43.28186887176773" lon="10.808733315257747"><ele>428.4</ele><time>2026-04-26T14:56:02.001Z</time></trkpt><trkpt lat="43.28179935522231" lon="10.80871297070782"><ele>428.2</ele><time>2026-04-26T14:56:04.001Z</time></trkpt><trkpt lat="43.28172777985505" lon="10.8086599025302"><ele>428.0</ele><time>2026-04-26T14:56:06.001Z</time></trkpt><trkpt lat="43.28161703667996" lon="10.808605008781527"><ele>427.99999999999994</ele><time>2026-04-26T14:56:08.001Z</time></trkpt><trkpt lat="43.28156885448119" lon="10.808528560762566"><ele>428.0</ele><time>2026-04-26T14:56:09.001Z</time></trkpt><trkpt lat="43.281500575554375" lon="10.808456463189541"><ele>428.0</ele><time>2026-04-26T14:56:10.001Z</time></trkpt><trkpt lat="43.28142422071669" lon="10.808395078839416"><ele>428.0</ele><time>2026-04-26T14:56:11.002Z</time></trkpt><trkpt lat="43.28135074013486" lon="10.808349959750181"><ele>427.99999999999994</ele><time>2026-04-26T14:56:12.002Z</time></trkpt><trkpt lat="43.281289984773466" lon="10.80828442646956"><ele>428.0</ele><time>2026-04-26T14:56:13.002Z</time></trkpt><trkpt lat="43.281218899302914" lon="10.808249365184677"><ele>429.16666666666663</ele><time>2026-04-26T14:56:14.002Z</time></trkpt><trkpt lat="43.28112948024476" lon="10.808234500273278"><ele>430.3333333333333</ele><time>2026-04-26T14:56:15.002Z</time></trkpt><trkpt lat="43.28104926163035" lon="10.808224940796633"><ele>431.5</ele><time>2026-04-26T14:56:16.002Z</time></trkpt><trkpt lat="43.2809722606185" lon="10.808215124610744"><ele>432.66666666666663</ele><time>2026-04-26T14:56:17.002Z</time></trkpt><trkpt lat="43.28090214721702" lon="10.808212731400278"><ele>433.8333333333333</ele><time>2026-04-26T14:56:18.002Z</time></trkpt><trkpt lat="43.28082965017364" lon="10.808211709440991"><ele>435.0</ele><time>2026-04-26T14:56:19.002Z</time></trkpt><trkpt lat="43.2807631796082" lon="10.80821385710813"><ele>435.0</ele><time>2026-04-26T14:56:20.002Z</time></trkpt><trkpt lat="43.28068353635542" lon="10.80822252925623"><ele>435.0</ele><time>2026-04-26T14:56:21.002Z</time></trkpt><trkpt lat="43.28060393032543" lon="10.808239305899493"><ele>435.0</ele><time>2026-04-26T14:56:22.002Z</time></trkpt><trkpt lat="43.28052863689784" lon="10.808287099338004"><ele>435.0</ele><time>2026-04-26T14:56:23.002Z</time></trkpt><trkpt lat="43.280444507592904" lon="10.808318593682749"><ele>435.0</ele><time>2026-04-26T14:56:24.002Z</time></trkpt><trkpt lat="43.28037916676136" lon="10.808376235944477"><ele>435.0</ele><time>2026-04-26T14:56:25.002Z</time></trkpt><trkpt lat="43.280300234543105" lon="10.808462463961764"><ele>435.6</ele><time>2026-04-26T14:56:26.002Z</time></trkpt><trkpt lat="43.28019628316427" lon="10.808462263270785"><ele>436.2</ele><time>2026-04-26T14:56:27.002Z</time></trkpt><trkpt lat="43.280097299548466" lon="10.80847241724936"><ele>436.79999999999995</ele><time>2026-04-26T14:56:28.002Z</time></trkpt><trkpt lat="43.27999162460085" lon="10.808511882321294"><ele>437.4</ele><time>2026-04-26T14:56:29.002Z</time></trkpt><trkpt lat="43.279899451199825" lon="10.80852054872444"><ele>438.0</ele><time>2026-04-26T14:56:30.002Z</time></trkpt><trkpt lat="43.27980891784328" lon="10.808574561394103"><ele>440.5</ele><time>2026-04-26T14:56:31.002Z</time></trkpt><trkpt lat="43.279715028486244" lon="10.808669904029054"><ele>443.0</ele><time>2026-04-26T14:56:32.002Z</time></trkpt><trkpt lat="43.27961594298702" lon="10.808804258245754"><ele>445.5</ele><time>2026-04-26T14:56:33.002Z</time></trkpt><trkpt lat="43.279527907901645" lon="10.808912556164172"><ele>448.0</ele><time>2026-04-26T14:56:34.002Z</time></trkpt><trkpt lat="43.279458693757675" lon="10.808997838873642"><ele>448.00000000000006</ele><time>2026-04-26T14:56:35.002Z</time></trkpt><trkpt lat="43.27939618344874" lon="10.809058264843559"><ele>448.0</ele><time>2026-04-26T14:56:36.002Z</time></trkpt><trkpt lat="43.279279499594374" lon="10.809059768034661"><ele>448.0</ele><time>2026-04-26T14:56:38.002Z</time></trkpt><trkpt lat="43.27917912969706" lon="10.808971658750604"><ele>448.0</ele><time>2026-04-26T14:56:40.002Z</time></trkpt><trkpt lat="43.27913911601114" lon="10.808896064670025"><ele>448.00000000000006</ele><time>2026-04-26T14:56:41.002Z</time></trkpt><trkpt lat="43.27909961059887" lon="10.808818924210227"><ele>448.0</ele><time>2026-04-26T14:56:42.002Z</time></trkpt><trkpt lat="43.27908974354214" lon="10.808645295866047"><ele>448.0</ele><time>2026-04-26T14:56:44.002Z</time></trkpt><trkpt lat="43.27909228228089" lon="10.808525375611493"><ele>447.99999999999994</ele><time>2026-04-26T14:56:45.003Z</time></trkpt><trkpt lat="43.279083976094576" lon="10.808399702903197"><ele>447.99999999999994</ele><time>2026-04-26T14:56:46.003Z</time></trkpt><trkpt lat="43.279045142964" lon="10.808261744925668"><ele>448.0</ele><time>2026-04-26T14:56:47.003Z</time></trkpt><trkpt lat="43.27902868118767" lon="10.80813100529841"><ele>448.0</ele><time>2026-04-26T14:56:48.003Z</time></trkpt><trkpt lat="43.279014305358416" lon="10.807991491723488"><ele>448.0</ele><time>2026-04-26T14:56:49.003Z</time></trkpt><trkpt lat="43.278968451241184" lon="10.807862574222156"><ele>448.0</ele><time>2026-04-26T14:56:50.003Z</time></trkpt><trkpt lat="43.278880833710225" lon="10.807753834452338"><ele>448.0</ele><time>2026-04-26T14:56:51.003Z</time></trkpt><trkpt lat="43.27875811418617" lon="10.807696270163285"><ele>448.0</ele><time>2026-04-26T14:56:52.003Z</time></trkpt><trkpt lat="43.27865552350251" lon="10.807662433964628"><ele>450.33333333333337</ele><time>2026-04-26T14:56:53.003Z</time></trkpt><trkpt lat="43.27857530258428" lon="10.807619679826326"><ele>452.6666666666667</ele><time>2026-04-26T14:56:54.003Z</time></trkpt><trkpt lat="43.278515835386166" lon="10.807563993265987"><ele>455.0</ele><time>2026-04-26T14:56:55.003Z</time></trkpt><trkpt lat="43.27846068073337" lon="10.807489333926402"><ele>457.33333333333337</ele><time>2026-04-26T14:56:56.003Z</time></trkpt><trkpt lat="43.27842623935136" lon="10.807398830832716"><ele>459.6666666666667</ele><time>2026-04-26T14:56:57.003Z</time></trkpt><trkpt lat="43.278376078221484" lon="10.807273433508621"><ele>462.0</ele><time>2026-04-26T14:56:58.003Z</time></trkpt><trkpt lat="43.278333334654874" lon="10.807146613975602"><ele>462.0</ele><time>2026-04-26T14:56:59.003Z</time></trkpt><trkpt lat="43.27830502084812" lon="10.807027544311518"><ele>462.00000000000006</ele><time>2026-04-26T14:57:00.003Z</time></trkpt><trkpt lat="43.27826939678063" lon="10.806924199223781"><ele>462.00000000000006</ele><time>2026-04-26T14:57:01.003Z</time></trkpt><trkpt lat="43.278210101013244" lon="10.806822811784127"><ele>462.0</ele><time>2026-04-26T14:57:02.003Z</time></trkpt><trkpt lat="43.27813222647781" lon="10.806758137523355"><ele>462.0</ele><time>2026-04-26T14:57:03.003Z</time></trkpt><trkpt lat="43.2780247710545" lon="10.806757012220942"><ele>462.8333333333333</ele><time>2026-04-26T14:57:04.003Z</time></trkpt><trkpt lat="43.27793342229805" lon="10.806760331520714"><ele>463.66666666666663</ele><time>2026-04-26T14:57:05.003Z</time></trkpt><trkpt lat="43.277834922745896" lon="10.806757506550726"><ele>464.5</ele><time>2026-04-26T14:57:06.003Z</time></trkpt><trkpt lat="43.2777450985484" lon="10.806745938147547"><ele>465.3333333333333</ele><time>2026-04-26T14:57:07.003Z</time></trkpt><trkpt lat="43.27767862560909" lon="10.806716305061885"><ele>466.16666666666663</ele><time>2026-04-26T14:57:08.003Z</time></trkpt><trkpt lat="43.27761742185281" lon="10.806691254511192"><ele>467.0</ele><time>2026-04-26T14:57:09.003Z</time></trkpt><trkpt lat="43.27757423648109" lon="10.8066070201867"><ele>467.0</ele><time>2026-04-26T14:57:10.003Z</time></trkpt><trkpt lat="43.277514553243954" lon="10.806511614251216"><ele>467.00000000000006</ele><time>2026-04-26T14:57:11.003Z</time></trkpt><trkpt lat="43.27743198006791" lon="10.80642256235027"><ele>467.00000000000006</ele><time>2026-04-26T14:57:12.003Z</time></trkpt><trkpt lat="43.27738676686222" lon="10.806309226690578"><ele>467.0</ele><time>2026-04-26T14:57:13Z</time></trkpt><trkpt lat="43.27732201462314" lon="10.806179476875405"><ele>467.0</ele><time>2026-04-26T14:57:14Z</time></trkpt><trkpt lat="43.27725456728405" lon="10.806011555066599"><ele>467.75</ele><time>2026-04-26T14:57:15Z</time></trkpt><trkpt lat="43.27718308592298" lon="10.805837368517064"><ele>468.5</ele><time>2026-04-26T14:57:16Z</time></trkpt><trkpt lat="43.277113205874016" lon="10.805692848179142"><ele>469.25</ele><time>2026-04-26T14:57:17Z</time></trkpt><trkpt lat="43.277051409593156" lon="10.80556642995745"><ele>470.0</ele><time>2026-04-26T14:57:18Z</time></trkpt><trkpt lat="43.27698743733673" lon="10.80546641642196"><ele>470.0</ele><time>2026-04-26T14:57:19Z</time></trkpt><trkpt lat="43.276910914669934" lon="10.805406926731647"><ele>470.0</ele><time>2026-04-26T14:57:20Z</time></trkpt><trkpt lat="43.27681827916995" lon="10.80539663945917"><ele>470.0</ele><time>2026-04-26T14:57:21Z</time></trkpt><trkpt lat="43.27671607354728" lon="10.805506018316184"><ele>470.0</ele><time>2026-04-26T14:57:22Z</time></trkpt><trkpt lat="43.27661502188974" lon="10.805559057519323"><ele>470.0</ele><time>2026-04-26T14:57:23Z</time></trkpt><trkpt lat="43.27649125632496" lon="10.805580716973958"><ele>469.16666666666663</ele><time>2026-04-26T14:57:24Z</time></trkpt><trkpt lat="43.27637582501771" lon="10.805586738977043"><ele>468.3333333333333</ele><time>2026-04-26T14:57:25Z</time></trkpt><trkpt lat="43.27628623107493" lon="10.805583371919015"><ele>467.5</ele><time>2026-04-26T14:57:26Z</time></trkpt><trkpt lat="43.27620527401119" lon="10.805568570626377"><ele>466.66666666666663</ele><time>2026-04-26T14:57:27Z</time></trkpt><trkpt lat="43.276133929373884" lon="10.8055334616535"><ele>465.8333333333333</ele><time>2026-04-26T14:57:28Z</time></trkpt><trkpt lat="43.27606000881112" lon="10.805480404794224"><ele>465.0</ele><time>2026-04-26T14:57:29Z</time></trkpt><trkpt lat="43.27601136573279" lon="10.805419445469353"><ele>465.0</ele><time>2026-04-26T14:57:30Z</time></trkpt><trkpt lat="43.27593200098001" lon="10.805277935471743"><ele>465.0</ele><time>2026-04-26T14:57:32Z</time></trkpt><trkpt lat="43.275894925999914" lon="10.805201367431719"><ele>465.0</ele><time>2026-04-26T14:57:33Z</time></trkpt><trkpt lat="43.27585668352403" lon="10.8051186571976"><ele>465.0</ele><time>2026-04-26T14:57:34Z</time></trkpt><trkpt lat="43.27581599652756" lon="10.80504078595417"><ele>465.0</ele><time>2026-04-26T14:57:35Z</time></trkpt><trkpt lat="43.275744144768986" lon="10.804955157630388"><ele>465.0</ele><time>2026-04-26T14:57:36Z</time></trkpt><trkpt lat="43.275646494835975" lon="10.80489861449171"><ele>465.0</ele><time>2026-04-26T14:57:37Z</time></trkpt><trkpt lat="43.27554234334552" lon="10.804853696001302"><ele>465.0</ele><time>2026-04-26T14:57:38Z</time></trkpt><trkpt lat="43.275406141504824" lon="10.804819352801767"><ele>465.0</ele><time>2026-04-26T14:57:39Z</time></trkpt><trkpt lat="43.275303281911434" lon="10.804817813988974"><ele>465.0</ele><time>2026-04-26T14:57:40Z</time></trkpt><trkpt lat="43.275206175176116" lon="10.80486421826512"><ele>465.0</ele><time>2026-04-26T14:57:41Z</time></trkpt><trkpt lat="43.27509297971006" lon="10.804896634707339"><ele>465.0</ele><time>2026-04-26T14:57:42.001Z</time></trkpt><trkpt lat="43.27497004169217" lon="10.804958821366078"><ele>465.0</ele><time>2026-04-26T14:57:43.001Z</time></trkpt><trkpt lat="43.27486204218322" lon="10.804993535372406"><ele>465.0</ele><time>2026-04-26T14:57:44.001Z</time></trkpt><trkpt lat="43.274762380824335" lon="10.805022134378332"><ele>463.6666666666667</ele><time>2026-04-26T14:57:45.001Z</time></trkpt><trkpt lat="43.27468393194046" lon="10.805045581468185"><ele>462.33333333333337</ele><time>2026-04-26T14:57:46.001Z</time></trkpt><trkpt lat="43.274609140328074" lon="10.805078254215122"><ele>461.0</ele><time>2026-04-26T14:57:47.001Z</time></trkpt><trkpt lat="43.27453964578129" lon="10.805100457601613"><ele>459.6666666666667</ele><time>2026-04-26T14:57:48.001Z</time></trkpt><trkpt lat="43.2744761394494" lon="10.805126868535458"><ele>458.33333333333337</ele><time>2026-04-26T14:57:49.001Z</time></trkpt><trkpt lat="43.27437019937609" lon="10.80515048397165"><ele>457.0</ele><time>2026-04-26T14:57:51.001Z</time></trkpt><trkpt lat="43.274254259199175" lon="10.805181811269154"><ele>455.8</ele><time>2026-04-26T14:57:53.001Z</time></trkpt><trkpt lat="43.27418968976109" lon="10.805200796764643"><ele>454.6</ele><time>2026-04-26T14:57:54.001Z</time></trkpt><trkpt lat="43.27412067935445" lon="10.805212246570933"><ele>453.40000000000003</ele><time>2026-04-26T14:57:55.001Z</time></trkpt><trkpt lat="43.27404156494989" lon="10.805225547001216"><ele>452.20000000000005</ele><time>2026-04-26T14:57:56.001Z</time></trkpt><trkpt lat="43.27392336495823" lon="10.80523882436578"><ele>451.0</ele><time>2026-04-26T14:57:57.001Z</time></trkpt><trkpt lat="43.273783177891374" lon="10.80525931964234"><ele>451.0</ele><time>2026-04-26T14:57:58.001Z</time></trkpt><trkpt lat="43.27362617150918" lon="10.805275200049808"><ele>451.0</ele><time>2026-04-26T14:57:59.001Z</time></trkpt><trkpt lat="43.27347503079943" lon="10.805291622398013"><ele>451.0</ele><time>2026-04-26T14:58:00.001Z</time></trkpt><trkpt lat="43.27333357105629" lon="10.805308379215019"><ele>451.0</ele><time>2026-04-26T14:58:01.001Z</time></trkpt><trkpt lat="43.27318341314344" lon="10.805299437954975"><ele>451.0</ele><time>2026-04-26T14:58:02.001Z</time></trkpt><trkpt lat="43.27303153748453" lon="10.805329724525945"><ele>451.0</ele><time>2026-04-26T14:58:03.001Z</time></trkpt><trkpt lat="43.272874933462795" lon="10.805343736194892"><ele>450.6666666666667</ele><time>2026-04-26T14:58:04.001Z</time></trkpt><trkpt lat="43.27272347666348" lon="10.80537034266792"><ele>450.33333333333337</ele><time>2026-04-26T14:58:05.001Z</time></trkpt><trkpt lat="43.2725756768197" lon="10.805408560536893"><ele>450.0</ele><time>2026-04-26T14:58:06.001Z</time></trkpt><trkpt lat="43.27242561521388" lon="10.805463135332996"><ele>450.0</ele><time>2026-04-26T14:58:07.001Z</time></trkpt><trkpt lat="43.27227730803921" lon="10.805519759239989"><ele>450.0</ele><time>2026-04-26T14:58:08.001Z</time></trkpt><trkpt lat="43.272136230321976" lon="10.805585315402473"><ele>450.0</ele><time>2026-04-26T14:58:09.001Z</time></trkpt><trkpt lat="43.27199931977789" lon="10.805629184901514"><ele>450.0</ele><time>2026-04-26T14:58:10.001Z</time></trkpt><trkpt lat="43.27187818871001" lon="10.80570781378555"><ele>450.0</ele><time>2026-04-26T14:58:11.001Z</time></trkpt><trkpt lat="43.271748163238335" lon="10.80576344604277"><ele>450.0</ele><time>2026-04-26T14:58:12.001Z</time></trkpt><trkpt lat="43.271607594940114" lon="10.805770865224229"><ele>450.0</ele><time>2026-04-26T14:58:13.001Z</time></trkpt><trkpt lat="43.271471412608555" lon="10.805798445275894"><ele>450.0</ele><time>2026-04-26T14:58:14.001Z</time></trkpt><trkpt lat="43.27132048000009" lon="10.805776417544804"><ele>450.25</ele><time>2026-04-26T14:58:15.001Z</time></trkpt><trkpt lat="43.271169074139486" lon="10.80577822412139"><ele>450.5</ele><time>2026-04-26T14:58:16.001Z</time></trkpt><trkpt lat="43.271028327311726" lon="10.805819959692418"><ele>450.75</ele><time>2026-04-26T14:58:17.001Z</time></trkpt><trkpt lat="43.27088634839201" lon="10.805838914091057"><ele>451.0</ele><time>2026-04-26T14:58:18.001Z</time></trkpt><trkpt lat="43.27074481559007" lon="10.805864344416866"><ele>451.33333333333337</ele><time>2026-04-26T14:58:19.001Z</time></trkpt><trkpt lat="43.270586509769544" lon="10.805853610277147"><ele>451.66666666666663</ele><time>2026-04-26T14:58:20.001Z</time></trkpt><trkpt lat="43.27041676858811" lon="10.80586191945611"><ele>452.0</ele><time>2026-04-26T14:58:21.002Z</time></trkpt><trkpt lat="43.27024487910317" lon="10.805885249525526"><ele>452.0</ele><time>2026-04-26T14:58:22.002Z</time></trkpt><trkpt lat="43.270081477416085" lon="10.805909059222763"><ele>452.0</ele><time>2026-04-26T14:58:23.002Z</time></trkpt><trkpt lat="43.269933416082964" lon="10.805924336410465"><ele>452.0</ele><time>2026-04-26T14:58:24.002Z</time></trkpt><trkpt lat="43.26980254414746" lon="10.805935836469148"><ele>452.0</ele><time>2026-04-26T14:58:25.002Z</time></trkpt><trkpt lat="43.26967885697386" lon="10.80594449210424"><ele>453.0</ele><time>2026-04-26T14:58:26.002Z</time></trkpt><trkpt lat="43.26957032252325" lon="10.805941282386977"><ele>454.00000000000006</ele><time>2026-04-26T14:58:27.002Z</time></trkpt><trkpt lat="43.26947752805813" lon="10.805910190156881"><ele>455.00000000000006</ele><time>2026-04-26T14:58:28.002Z</time></trkpt><trkpt lat="43.269377522189544" lon="10.805851733181257"><ele>456.0</ele><time>2026-04-26T14:58:29.002Z</time></trkpt><trkpt lat="43.26926315347517" lon="10.805752143467187"><ele>457.0</ele><time>2026-04-26T14:58:30.002Z</time></trkpt><trkpt lat="43.269132398087514" lon="10.805678489049635"><ele>457.0</ele><time>2026-04-26T14:58:31.002Z</time></trkpt><trkpt lat="43.26901649568839" lon="10.805611224715932"><ele>457.0</ele><time>2026-04-26T14:58:32.002Z</time></trkpt><trkpt lat="43.26891025515072" lon="10.805577332506761"><ele>457.0</ele><time>2026-04-26T14:58:33.002Z</time></trkpt><trkpt lat="43.2687998506274" lon="10.805580589985688"><ele>457.0</ele><time>2026-04-26T14:58:34.002Z</time></trkpt><trkpt lat="43.2686908605502" lon="10.805610603429425"><ele>457.0</ele><time>2026-04-26T14:58:35.002Z</time></trkpt><trkpt lat="43.26857214893226" lon="10.805629549947032"><ele>457.0</ele><time>2026-04-26T14:58:36.002Z</time></trkpt><trkpt lat="43.268445320960204" lon="10.805655891016496"><ele>457.0</ele><time>2026-04-26T14:58:37.002Z</time></trkpt><trkpt lat="43.26831648285781" lon="10.805671544193125"><ele>457.0</ele><time>2026-04-26T14:58:38.002Z</time></trkpt><trkpt lat="43.26818123051494" lon="10.80566919736975"><ele>457.25</ele><time>2026-04-26T14:58:39.002Z</time></trkpt><trkpt lat="43.268037547782285" lon="10.805649504821814"><ele>457.5</ele><time>2026-04-26T14:58:40.002Z</time></trkpt><trkpt lat="43.26790180996606" lon="10.805590392269773"><ele>457.75</ele><time>2026-04-26T14:58:41.002Z</time></trkpt><trkpt lat="43.26777398649636" lon="10.805535289481888"><ele>458.0</ele><time>2026-04-26T14:58:42.002Z</time></trkpt><trkpt lat="43.2676606341002" lon="10.805485339298892"><ele>458.0</ele><time>2026-04-26T14:58:43.002Z</time></trkpt><trkpt lat="43.26755254329102" lon="10.805437707677768"><ele>457.99999999999994</ele><time>2026-04-26T14:58:44.002Z</time></trkpt><trkpt lat="43.26745346224803" lon="10.80540496268605"><ele>457.99999999999994</ele><time>2026-04-26T14:58:45.002Z</time></trkpt><trkpt lat="43.26735804862527" lon="10.805347243054445"><ele>458.0</ele><time>2026-04-26T14:58:46.002Z</time></trkpt><trkpt lat="43.26725447404594" lon="10.805299787724183"><ele>458.0</ele><time>2026-04-26T14:58:47.002Z</time></trkpt><trkpt lat="43.26715025567513" lon="10.805275596598253"><ele>457.25</ele><time>2026-04-26T14:58:48.002Z</time></trkpt><trkpt lat="43.26703383833391" lon="10.805254883416763"><ele>456.5</ele><time>2026-04-26T14:58:49.002Z</time></trkpt><trkpt lat="43.266927149746735" lon="10.805198201860215"><ele>455.75</ele><time>2026-04-26T14:58:50.002Z</time></trkpt><trkpt lat="43.26681490252582" lon="10.805150553776873"><ele>455.0</ele><time>2026-04-26T14:58:51.002Z</time></trkpt><trkpt lat="43.26669588883607" lon="10.805098068044845"><ele>455.0</ele><time>2026-04-26T14:58:52.002Z</time></trkpt><trkpt lat="43.26659703647023" lon="10.804995811788965"><ele>455.0</ele><time>2026-04-26T14:58:53.002Z</time></trkpt><trkpt lat="43.26647768619595" lon="10.80492335312332"><ele>455.0</ele><time>2026-04-26T14:58:54.002Z</time></trkpt><trkpt lat="43.2663660027242" lon="10.804807038799634"><ele>455.0</ele><time>2026-04-26T14:58:55.002Z</time></trkpt><trkpt lat="43.26624743425019" lon="10.804691678040811"><ele>456.25</ele><time>2026-04-26T14:58:56.002Z</time></trkpt><trkpt lat="43.266120012633564" lon="10.804590854610248"><ele>457.5</ele><time>2026-04-26T14:58:57.002Z</time></trkpt><trkpt lat="43.26601738847463" lon="10.804481030267695"><ele>458.75</ele><time>2026-04-26T14:58:58.003Z</time></trkpt><trkpt lat="43.2659223359094" lon="10.804376113306969"><ele>460.0</ele><time>2026-04-26T14:58:59.003Z</time></trkpt><trkpt lat="43.265829961561316" lon="10.804292078574587"><ele>460.0</ele><time>2026-04-26T14:59:00.003Z</time></trkpt><trkpt lat="43.26573092063215" lon="10.804217625494733"><ele>460.0</ele><time>2026-04-26T14:59:01.003Z</time></trkpt><trkpt lat="43.26564172540365" lon="10.804141643835617"><ele>460.0</ele><time>2026-04-26T14:59:02.003Z</time></trkpt><trkpt lat="43.26555767077093" lon="10.804068198118514"><ele>460.0</ele><time>2026-04-26T14:59:03.003Z</time></trkpt><trkpt lat="43.26548839883093" lon="10.803977825531398"><ele>460.0</ele><time>2026-04-26T14:59:04.003Z</time></trkpt><trkpt lat="43.26544908299216" lon="10.80385901744411"><ele>459.83333333333337</ele><time>2026-04-26T14:59:05.003Z</time></trkpt><trkpt lat="43.2654331753867" lon="10.803734972466524"><ele>459.6666666666667</ele><time>2026-04-26T14:59:06.003Z</time></trkpt><trkpt lat="43.265389623266124" lon="10.80363037625712"><ele>459.5</ele><time>2026-04-26T14:59:07.003Z</time></trkpt><trkpt lat="43.26532832132178" lon="10.803561455375199"><ele>459.33333333333337</ele><time>2026-04-26T14:59:08.003Z</time></trkpt><trkpt lat="43.265265624406766" lon="10.803501228081323"><ele>459.1666666666667</ele><time>2026-04-26T14:59:09.003Z</time></trkpt><trkpt lat="43.26517951787183" lon="10.803489314085754"><ele>459.0</ele><time>2026-04-26T14:59:10.003Z</time></trkpt><trkpt lat="43.265077000641405" lon="10.803485862614602"><ele>459.0</ele><time>2026-04-26T14:59:11.003Z</time></trkpt><trkpt lat="43.26494225353263" lon="10.803475139670311"><ele>459.0</ele><time>2026-04-26T14:59:12.003Z</time></trkpt><trkpt lat="43.26478350284089" lon="10.803479033428404"><ele>459.0</ele><time>2026-04-26T14:59:13.003Z</time></trkpt><trkpt lat="43.264618573625114" lon="10.803491259542946"><ele>463.75</ele><time>2026-04-26T14:59:14.003Z</time></trkpt><trkpt lat="43.264471213123954" lon="10.803511298553198"><ele>468.5</ele><time>2026-04-26T14:59:15.003Z</time></trkpt><trkpt lat="43.26434693573841" lon="10.803522303149029"><ele>473.25</ele><time>2026-04-26T14:59:16.003Z</time></trkpt><trkpt lat="43.264237397579386" lon="10.803528462137521"><ele>478.0</ele><time>2026-04-26T14:59:17.003Z</time></trkpt><trkpt lat="43.26413935104029" lon="10.803511570694093"><ele>474.75</ele><time>2026-04-26T14:59:18.003Z</time></trkpt><trkpt lat="43.26405306791227" lon="10.803455449341083"><ele>471.5</ele><time>2026-04-26T14:59:19Z</time></trkpt><trkpt lat="43.26398167165194" lon="10.803352705687681"><ele>468.25</ele><time>2026-04-26T14:59:20Z</time></trkpt><trkpt lat="43.26387955062995" lon="10.803257438671396"><ele>465.0</ele><time>2026-04-26T14:59:21Z</time></trkpt><trkpt lat="43.26379055343163" lon="10.803110712899262"><ele>465.0</ele><time>2026-04-26T14:59:22Z</time></trkpt><trkpt lat="43.263714761022825" lon="10.802996201810052"><ele>465.0</ele><time>2026-04-26T14:59:23Z</time></trkpt><trkpt lat="43.26365417695678" lon="10.802877609742026"><ele>465.0</ele><time>2026-04-26T14:59:24Z</time></trkpt><trkpt lat="43.263612966473524" lon="10.802731090467306"><ele>465.0</ele><time>2026-04-26T14:59:25Z</time></trkpt><trkpt lat="43.263589293770764" lon="10.802582723188062"><ele>465.0</ele><time>2026-04-26T14:59:26Z</time></trkpt><trkpt lat="43.26358692086305" lon="10.802439916106449"><ele>465.25</ele><time>2026-04-26T14:59:27Z</time></trkpt><trkpt lat="43.263602926287014" lon="10.80228468216941"><ele>465.5</ele><time>2026-04-26T14:59:28Z</time></trkpt><trkpt lat="43.263608682820035" lon="10.802086755349656"><ele>465.75</ele><time>2026-04-26T14:59:29Z</time></trkpt><trkpt lat="43.263651820685496" lon="10.80188667495038"><ele>466.0</ele><time>2026-04-26T14:59:30Z</time></trkpt><trkpt lat="43.26370277725749" lon="10.80173029807224"><ele>466.0</ele><time>2026-04-26T14:59:31Z</time></trkpt><trkpt lat="43.263746236998976" lon="10.801590764162128"><ele>466.0</ele><time>2026-04-26T14:59:32Z</time></trkpt><trkpt lat="43.263795288235606" lon="10.801461688129958"><ele>466.0</ele><time>2026-04-26T14:59:33Z</time></trkpt><trkpt lat="43.26384849406262" lon="10.80134612403822"><ele>466.0</ele><time>2026-04-26T14:59:34Z</time></trkpt><trkpt lat="43.263890114869895" lon="10.801229213150341"><ele>466.0</ele><time>2026-04-26T14:59:35Z</time></trkpt><trkpt lat="43.263921972381105" lon="10.801113379652213"><ele>465.4</ele><time>2026-04-26T14:59:36Z</time></trkpt><trkpt lat="43.26393291159358" lon="10.800985267416255"><ele>464.8</ele><time>2026-04-26T14:59:37Z</time></trkpt><trkpt lat="43.263906426279476" lon="10.8008611480926"><ele>464.19999999999993</ele><time>2026-04-26T14:59:38Z</time></trkpt><trkpt lat="43.26384931054095" lon="10.80074628985302"><ele>463.59999999999997</ele><time>2026-04-26T14:59:39Z</time></trkpt><trkpt lat="43.26375497067261" lon="10.80067749588001"><ele>463.0</ele><time>2026-04-26T14:59:40Z</time></trkpt><trkpt lat="43.26366001952151" lon="10.80057192326385"><ele>463.0</ele><time>2026-04-26T14:59:41Z</time></trkpt><trkpt lat="43.26353589424556" lon="10.800460231725978"><ele>463.0</ele><time>2026-04-26T14:59:42Z</time></trkpt><trkpt lat="43.263424714148776" lon="10.800316404862452"><ele>463.0</ele><time>2026-04-26T14:59:43Z</time></trkpt><trkpt lat="43.26329811130528" lon="10.800187860254042"><ele>464.6666666666667</ele><time>2026-04-26T14:59:44Z</time></trkpt><trkpt lat="43.263155018290334" lon="10.80005101932203"><ele>466.33333333333337</ele><time>2026-04-26T14:59:45Z</time></trkpt><trkpt lat="43.262998506884266" lon="10.799911210016328"><ele>468.0</ele><time>2026-04-26T14:59:46Z</time></trkpt><trkpt lat="43.26286753617527" lon="10.799774319762307"><ele>468.25</ele><time>2026-04-26T14:59:47Z</time></trkpt><trkpt lat="43.26274514477843" lon="10.799659073413155"><ele>468.5</ele><time>2026-04-26T14:59:48Z</time></trkpt><trkpt lat="43.262638550163274" lon="10.799566597610537"><ele>468.75</ele><time>2026-04-26T14:59:49Z</time></trkpt><trkpt lat="43.262546300100105" lon="10.799482828799457"><ele>469.0</ele><time>2026-04-26T14:59:50.001Z</time></trkpt><trkpt lat="43.26247942469573" lon="10.799384858069152"><ele>470.2</ele><time>2026-04-26T14:59:51.001Z</time></trkpt><trkpt lat="43.26241861213606" lon="10.79928966698054"><ele>471.4</ele><time>2026-04-26T14:59:52.001Z</time></trkpt><trkpt lat="43.26236933122966" lon="10.799174792423624"><ele>472.6</ele><time>2026-04-26T14:59:53.001Z</time></trkpt><trkpt lat="43.26232804676123" lon="10.799035290453762"><ele>473.8</ele><time>2026-04-26T14:59:54.001Z</time></trkpt><trkpt lat="43.26228649652636" lon="10.798866172128866"><ele>475.0</ele><time>2026-04-26T14:59:55.001Z</time></trkpt><trkpt lat="43.262238751817755" lon="10.798678927503573"><ele>479.6666666666667</ele><time>2026-04-26T14:59:56.001Z</time></trkpt><trkpt lat="43.262187824745155" lon="10.798457781760018"><ele>484.33333333333337</ele><time>2026-04-26T14:59:57.001Z</time></trkpt><trkpt lat="43.26213484813432" lon="10.798227268980138"><ele>489.0</ele><time>2026-04-26T14:59:58.001Z</time></trkpt><trkpt lat="43.26208841283024" lon="10.798029114249047"><ele>489.0</ele><time>2026-04-26T14:59:59.001Z</time></trkpt><trkpt lat="43.26204749962209" lon="10.797857140389697"><ele>489.0</ele><time>2026-04-26T15:00:00.001Z</time></trkpt><trkpt lat="43.262007993461864" lon="10.797693456064524"><ele>489.0</ele><time>2026-04-26T15:00:01.001Z</time></trkpt><trkpt lat="43.26196399169068" lon="10.79751965637896"><ele>489.0</ele><time>2026-04-26T15:00:02.001Z</time></trkpt><trkpt lat="43.261913316986444" lon="10.797332507589939"><ele>488.5</ele><time>2026-04-26T15:00:03.001Z</time></trkpt><trkpt lat="43.26186541199017" lon="10.797168334209063"><ele>488.0</ele><time>2026-04-26T15:00:04.001Z</time></trkpt><trkpt lat="43.261804511591905" lon="10.797016390671264"><ele>487.5</ele><time>2026-04-26T15:00:05.001Z</time></trkpt><trkpt lat="43.26177097279713" lon="10.796867991978214"><ele>487.0</ele><time>2026-04-26T15:00:06.001Z</time></trkpt><trkpt lat="43.26172617768404" lon="10.796705419069275"><ele>485.25</ele><time>2026-04-26T15:00:07.001Z</time></trkpt><trkpt lat="43.261666691163235" lon="10.796545861116758"><ele>483.5</ele><time>2026-04-26T15:00:08.001Z</time></trkpt><trkpt lat="43.26161264648215" lon="10.796367669309586"><ele>481.75</ele><time>2026-04-26T15:00:09.001Z</time></trkpt><trkpt lat="43.2615553959859" lon="10.79618310372763"><ele>480.0</ele><time>2026-04-26T15:00:10.001Z</time></trkpt><trkpt lat="43.2615010942883" lon="10.796021566037398"><ele>479.25</ele><time>2026-04-26T15:00:11.001Z</time></trkpt><trkpt lat="43.26143618016911" lon="10.795869884051594"><ele>478.5</ele><time>2026-04-26T15:00:12.001Z</time></trkpt><trkpt lat="43.26138919325401" lon="10.795709217570867"><ele>477.75</ele><time>2026-04-26T15:00:13.001Z</time></trkpt><trkpt lat="43.26132224748852" lon="10.79553161506712"><ele>477.0</ele><time>2026-04-26T15:00:14.001Z</time></trkpt><trkpt lat="43.261248593423886" lon="10.79535066518492"><ele>477.0</ele><time>2026-04-26T15:00:15.001Z</time></trkpt><trkpt lat="43.26116877180315" lon="10.795192587223967"><ele>477.0</ele><time>2026-04-26T15:00:16.001Z</time></trkpt><trkpt lat="43.26107144004612" lon="10.795007571316374"><ele>477.0</ele><time>2026-04-26T15:00:17.001Z</time></trkpt><trkpt lat="43.260964888792984" lon="10.794814855845251"><ele>474.33333333333337</ele><time>2026-04-26T15:00:18.001Z</time></trkpt><trkpt lat="43.260864306360624" lon="10.79462294888199"><ele>471.6666666666667</ele><time>2026-04-26T15:00:19.001Z</time></trkpt><trkpt lat="43.260790290532334" lon="10.794444481279912"><ele>469.0</ele><time>2026-04-26T15:00:20.001Z</time></trkpt><trkpt lat="43.260717931119316" lon="10.794282135054658"><ele>467.5</ele><time>2026-04-26T15:00:21.001Z</time></trkpt><trkpt lat="43.26064928504809" lon="10.794124340438453"><ele>466.0</ele><time>2026-04-26T15:00:22.001Z</time></trkpt><trkpt lat="43.26058598419074" lon="10.793970449837829"><ele>464.5</ele><time>2026-04-26T15:00:23.001Z</time></trkpt><trkpt lat="43.26052374490732" lon="10.793806333089474"><ele>463.0</ele><time>2026-04-26T15:00:24.001Z</time></trkpt><trkpt lat="43.26046135469204" lon="10.793616222120557"><ele>461.6666666666667</ele><time>2026-04-26T15:00:25.001Z</time></trkpt><trkpt lat="43.26039009264767" lon="10.79342626505358"><ele>460.33333333333337</ele><time>2026-04-26T15:00:26.002Z</time></trkpt><trkpt lat="43.260342206018855" lon="10.793233068274343"><ele>459.0</ele><time>2026-04-26T15:00:27.002Z</time></trkpt><trkpt lat="43.26027017572811" lon="10.793053571832539"><ele>459.0</ele><time>2026-04-26T15:00:28.002Z</time></trkpt><trkpt lat="43.26018853146676" lon="10.792870641127088"><ele>459.0</ele><time>2026-04-26T15:00:29.002Z</time></trkpt><trkpt lat="43.26010486568652" lon="10.792696106988162"><ele>459.0</ele><time>2026-04-26T15:00:30.002Z</time></trkpt><trkpt lat="43.260009836535126" lon="10.792511147987497"><ele>460.0</ele><time>2026-04-26T15:00:31.002Z</time></trkpt><trkpt lat="43.2599099739672" lon="10.792321191481506"><ele>461.0</ele><time>2026-04-26T15:00:32.002Z</time></trkpt><trkpt lat="43.2598035744358" lon="10.792139770692772"><ele>462.0</ele><time>2026-04-26T15:00:33.002Z</time></trkpt><trkpt lat="43.25969685677584" lon="10.791959020714911"><ele>460.66666666666663</ele><time>2026-04-26T15:00:34.002Z</time></trkpt><trkpt lat="43.25958320509888" lon="10.79178607339208"><ele>459.3333333333333</ele><time>2026-04-26T15:00:35.002Z</time></trkpt><trkpt lat="43.25947024521099" lon="10.79162850610379"><ele>458.0</ele><time>2026-04-26T15:00:36.002Z</time></trkpt><trkpt lat="43.25936795407827" lon="10.791470202612675"><ele>458.0</ele><time>2026-04-26T15:00:37.002Z</time></trkpt><trkpt lat="43.259282704740166" lon="10.791279582400072"><ele>458.0</ele><time>2026-04-26T15:00:38.002Z</time></trkpt><trkpt lat="43.259178825923485" lon="10.791067091663539"><ele>458.0</ele><time>2026-04-26T15:00:39.002Z</time></trkpt><trkpt lat="43.25908465900666" lon="10.790863698305623"><ele>458.0</ele><time>2026-04-26T15:00:40.002Z</time></trkpt><trkpt lat="43.259006717059016" lon="10.790680155420043"><ele>458.0</ele><time>2026-04-26T15:00:41.002Z</time></trkpt><trkpt lat="43.2589394261813" lon="10.79051467179269"><ele>458.0</ele><time>2026-04-26T15:00:42.002Z</time></trkpt><trkpt lat="43.258873795873484" lon="10.7903524484217"><ele>458.0</ele><time>2026-04-26T15:00:43.002Z</time></trkpt><trkpt lat="43.258811501420325" lon="10.790191249424783"><ele>457.75</ele><time>2026-04-26T15:00:44.002Z</time></trkpt><trkpt lat="43.25875247098681" lon="10.79002584514098"><ele>457.5</ele><time>2026-04-26T15:00:45.002Z</time></trkpt><trkpt lat="43.258692702457665" lon="10.789849914407078"><ele>457.25</ele><time>2026-04-26T15:00:46.002Z</time></trkpt><trkpt lat="43.258636414505105" lon="10.78966125513441"><ele>457.0</ele><time>2026-04-26T15:00:47.002Z</time></trkpt><trkpt lat="43.25858663331505" lon="10.789477629201341"><ele>456.33333333333337</ele><time>2026-04-26T15:00:48.002Z</time></trkpt><trkpt lat="43.25852790319561" lon="10.789300635111784"><ele>455.66666666666663</ele><time>2026-04-26T15:00:49.002Z</time></trkpt><trkpt lat="43.25850231613679" lon="10.789091988088792"><ele>455.0</ele><time>2026-04-26T15:00:50.002Z</time></trkpt><trkpt lat="43.25846873302631" lon="10.78886133720042"><ele>455.0</ele><time>2026-04-26T15:00:51.002Z</time></trkpt><trkpt lat="43.2584531312501" lon="10.788635036276506"><ele>455.0</ele><time>2026-04-26T15:00:52.002Z</time></trkpt><trkpt lat="43.25844753102992" lon="10.788415624414583"><ele>455.0</ele><time>2026-04-26T15:00:53.002Z</time></trkpt><trkpt lat="43.258443476458716" lon="10.78820993294637"><ele>455.0</ele><time>2026-04-26T15:00:54.002Z</time></trkpt><trkpt lat="43.25844365712537" lon="10.78802449322737"><ele>455.0</ele><time>2026-04-26T15:00:55.002Z</time></trkpt><trkpt lat="43.25844459053627" lon="10.787846118680928"><ele>455.0</ele><time>2026-04-26T15:00:56.002Z</time></trkpt><trkpt lat="43.2584404711134" lon="10.787684654646833"><ele>455.0</ele><time>2026-04-26T15:00:57.002Z</time></trkpt><trkpt lat="43.25842502075694" lon="10.78754601142787"><ele>455.4</ele><time>2026-04-26T15:00:58.002Z</time></trkpt><trkpt lat="43.2583941008657" lon="10.787408182922498"><ele>455.8</ele><time>2026-04-26T15:00:59.002Z</time></trkpt><trkpt lat="43.258349655723585" lon="10.787290405556915"><ele>456.20000000000005</ele><time>2026-04-26T15:01:00.002Z</time></trkpt><trkpt lat="43.258274176155645" lon="10.787188985525862"><ele>456.6</ele><time>2026-04-26T15:01:01.002Z</time></trkpt><trkpt lat="43.25816936661329" lon="10.787106917671395"><ele>457.0</ele><time>2026-04-26T15:01:02.002Z</time></trkpt><trkpt lat="43.25804829448257" lon="10.787002280481742"><ele>454.75</ele><time>2026-04-26T15:01:03.003Z</time></trkpt><trkpt lat="43.25792005006162" lon="10.786895875525719"><ele>452.5</ele><time>2026-04-26T15:01:04.003Z</time></trkpt><trkpt lat="43.25779681510989" lon="10.786783091100412"><ele>450.25</ele><time>2026-04-26T15:01:05.003Z</time></trkpt><trkpt lat="43.25768611707618" lon="10.786663379035854"><ele>448.0</ele><time>2026-04-26T15:01:06.003Z</time></trkpt><trkpt lat="43.25758123061912" lon="10.786536246500926"><ele>448.0</ele><time>2026-04-26T15:01:07.003Z</time></trkpt><trkpt lat="43.25748181963579" lon="10.78641196916722"><ele>448.0</ele><time>2026-04-26T15:01:08.003Z</time></trkpt><trkpt lat="43.257388048811876" lon="10.786286995475644"><ele>448.0</ele><time>2026-04-26T15:01:09.003Z</time></trkpt><trkpt lat="43.25729836003066" lon="10.786163053244806"><ele>448.0</ele><time>2026-04-26T15:01:10.003Z</time></trkpt><trkpt lat="43.25722808219767" lon="10.786054775773692"><ele>445.59999999999997</ele><time>2026-04-26T15:01:11.003Z</time></trkpt><trkpt lat="43.25718695173335" lon="10.785969952460423"><ele>443.19999999999993</ele><time>2026-04-26T15:01:12.003Z</time></trkpt><trkpt lat="43.25718761969363" lon="10.785872169752796"><ele>440.8</ele><time>2026-04-26T15:01:13.003Z</time></trkpt><trkpt lat="43.25719259219423" lon="10.785745931604612"><ele>438.4</ele><time>2026-04-26T15:01:14.003Z</time></trkpt><trkpt lat="43.2572058922461" lon="10.785599114027052"><ele>436.0</ele><time>2026-04-26T15:01:15.003Z</time></trkpt><trkpt lat="43.257218729194804" lon="10.785454170602774"><ele>436.0</ele><time>2026-04-26T15:01:16.003Z</time></trkpt><trkpt lat="43.25721666577971" lon="10.785324181203142"><ele>436.0</ele><time>2026-04-26T15:01:17.003Z</time></trkpt><trkpt lat="43.2571992458876" lon="10.785182521994065"><ele>436.0</ele><time>2026-04-26T15:01:18.003Z</time></trkpt><trkpt lat="43.25710626816018" lon="10.785031517530784"><ele>436.0</ele><time>2026-04-26T15:01:19.003Z</time></trkpt><trkpt lat="43.25703295505187" lon="10.784892052301323"><ele>437.0</ele><time>2026-04-26T15:01:20.003Z</time></trkpt><trkpt lat="43.25697308029799" lon="10.784767616546644"><ele>438.0</ele><time>2026-04-26T15:01:21.003Z</time></trkpt><trkpt lat="43.25693018949507" lon="10.784647648249585"><ele>439.0</ele><time>2026-04-26T15:01:22.003Z</time></trkpt><trkpt lat="43.256884165359025" lon="10.784491982633913"><ele>440.0</ele><time>2026-04-26T15:01:23.003Z</time></trkpt><trkpt lat="43.25682195523214" lon="10.7842830717933"><ele>441.0</ele><time>2026-04-26T15:01:24.003Z</time></trkpt><trkpt lat="43.256785416722586" lon="10.784063196569129"><ele>442.0</ele><time>2026-04-26T15:01:25Z</time></trkpt><trkpt lat="43.25678082872755" lon="10.783878379880418"><ele>443.0</ele><time>2026-04-26T15:01:26Z</time></trkpt><trkpt lat="43.25676372926517" lon="10.78370897949282"><ele>444.0</ele><time>2026-04-26T15:01:27Z</time></trkpt><trkpt lat="43.256749132741014" lon="10.78356437503205"><ele>445.0</ele><time>2026-04-26T15:01:28Z</time></trkpt><trkpt lat="43.256734349978565" lon="10.783428744643292"><ele>446.0</ele><time>2026-04-26T15:01:29Z</time></trkpt><trkpt lat="43.256712451925964" lon="10.783301639542001"><ele>447.0</ele><time>2026-04-26T15:01:30Z</time></trkpt><trkpt lat="43.256680110761096" lon="10.783189642853888"><ele>448.0</ele><time>2026-04-26T15:01:31Z</time></trkpt><trkpt lat="43.25662319935337" lon="10.783091021663827"><ele>449.0</ele><time>2026-04-26T15:01:32Z</time></trkpt><trkpt lat="43.25655556227729" lon="10.783030636211532"><ele>449.4</ele><time>2026-04-26T15:01:33Z</time></trkpt><trkpt lat="43.25644376062278" lon="10.783040800510134"><ele>449.79999999999995</ele><time>2026-04-26T15:01:34Z</time></trkpt><trkpt lat="43.25634608411698" lon="10.78303751854163"><ele>450.20000000000005</ele><time>2026-04-26T15:01:35Z</time></trkpt><trkpt lat="43.25623912707079" lon="10.783036674197028"><ele>450.6</ele><time>2026-04-26T15:01:36Z</time></trkpt><trkpt lat="43.25611645804515" lon="10.783032253737648"><ele>451.0</ele><time>2026-04-26T15:01:37Z</time></trkpt><trkpt lat="43.255991397335094" lon="10.783022656894433"><ele>451.0</ele><time>2026-04-26T15:01:38Z</time></trkpt><trkpt lat="43.25588839424598" lon="10.78299951330293"><ele>451.0</ele><time>2026-04-26T15:01:39Z</time></trkpt><trkpt lat="43.25581934470124" lon="10.78295089184792"><ele>451.0</ele><time>2026-04-26T15:01:40Z</time></trkpt><trkpt lat="43.25575602401131" lon="10.782880131585038"><ele>451.0</ele><time>2026-04-26T15:01:41Z</time></trkpt><trkpt lat="43.25568672124543" lon="10.782790682459146"><ele>451.0</ele><time>2026-04-26T15:01:42Z</time></trkpt><trkpt lat="43.25559239961328" lon="10.7826782580882"><ele>451.0</ele><time>2026-04-26T15:01:43Z</time></trkpt><trkpt lat="43.25549921910733" lon="10.782555341008262"><ele>451.0</ele><time>2026-04-26T15:01:44Z</time></trkpt><trkpt lat="43.25542480459363" lon="10.782443242350103"><ele>451.0</ele><time>2026-04-26T15:01:45Z</time></trkpt><trkpt lat="43.25537322018463" lon="10.782349341953243"><ele>451.0</ele><time>2026-04-26T15:01:46Z</time></trkpt><trkpt lat="43.25535729361539" lon="10.782254426936069"><ele>451.0</ele><time>2026-04-26T15:01:47Z</time></trkpt><trkpt lat="43.25534506322737" lon="10.782134098032447"><ele>451.0</ele><time>2026-04-26T15:01:48Z</time></trkpt><trkpt lat="43.25531874312349" lon="10.781986626558533"><ele>451.0</ele><time>2026-04-26T15:01:49Z</time></trkpt><trkpt lat="43.25531073997337" lon="10.78183757131924"><ele>451.0</ele><time>2026-04-26T15:01:50Z</time></trkpt><trkpt lat="43.255259880167124" lon="10.781694892167156"><ele>451.0</ele><time>2026-04-26T15:01:51Z</time></trkpt><trkpt lat="43.255192550864564" lon="10.781562737567041"><ele>454.0</ele><time>2026-04-26T15:01:52Z</time></trkpt><trkpt lat="43.255106476393394" lon="10.781431643962025"><ele>457.0</ele><time>2026-04-26T15:01:53Z</time></trkpt><trkpt lat="43.25500223199427" lon="10.781292546940723"><ele>460.0</ele><time>2026-04-26T15:01:54Z</time></trkpt><trkpt lat="43.25488921731993" lon="10.781190811823825"><ele>463.0</ele><time>2026-04-26T15:01:55Z</time></trkpt><trkpt lat="43.25479272395044" lon="10.781110701804492"><ele>462.0</ele><time>2026-04-26T15:01:56Z</time></trkpt><trkpt lat="43.25470173463882" lon="10.781070163476269"><ele>460.99999999999994</ele><time>2026-04-26T15:01:57.001Z</time></trkpt><trkpt lat="43.25462224784419" lon="10.781084607352302"><ele>459.99999999999994</ele><time>2026-04-26T15:01:58.001Z</time></trkpt><trkpt lat="43.25454071273548" lon="10.781138420583128"><ele>459.0</ele><time>2026-04-26T15:01:59.001Z</time></trkpt><trkpt lat="43.25443815946526" lon="10.78117711414362"><ele>458.0</ele><time>2026-04-26T15:02:00.001Z</time></trkpt><trkpt lat="43.25432785249348" lon="10.78122994215765"><ele>458.0</ele><time>2026-04-26T15:02:01.001Z</time></trkpt><trkpt lat="43.25423101288192" lon="10.781253558478122"><ele>457.99999999999994</ele><time>2026-04-26T15:02:02.001Z</time></trkpt><trkpt lat="43.25413783746024" lon="10.781247705591591"><ele>457.99999999999994</ele><time>2026-04-26T15:02:03.001Z</time></trkpt><trkpt lat="43.25404613308101" lon="10.781182619556075"><ele>458.0</ele><time>2026-04-26T15:02:04.001Z</time></trkpt><trkpt lat="43.2539482536102" lon="10.781087660018102"><ele>458.0</ele><time>2026-04-26T15:02:05.001Z</time></trkpt><trkpt lat="43.2538322169129" lon="10.780963988860584"><ele>459.0</ele><time>2026-04-26T15:02:06.001Z</time></trkpt><trkpt lat="43.25372850185306" lon="10.78085562313725"><ele>460.0</ele><time>2026-04-26T15:02:07.001Z</time></trkpt><trkpt lat="43.25364823120408" lon="10.780747108465498"><ele>461.0</ele><time>2026-04-26T15:02:08.001Z</time></trkpt><trkpt lat="43.253607295760666" lon="10.780614762779802"><ele>462.0</ele><time>2026-04-26T15:02:09.001Z</time></trkpt><trkpt lat="43.253568657102655" lon="10.780461351081723"><ele>462.0</ele><time>2026-04-26T15:02:10.001Z</time></trkpt><trkpt lat="43.2535035208277" lon="10.780270087175897"><ele>462.0</ele><time>2026-04-26T15:02:11.001Z</time></trkpt><trkpt lat="43.25340466776268" lon="10.780111711708058"><ele>462.0</ele><time>2026-04-26T15:02:12.001Z</time></trkpt><trkpt lat="43.25330653462833" lon="10.779957524503963"><ele>461.33333333333337</ele><time>2026-04-26T15:02:13.001Z</time></trkpt><trkpt lat="43.25318687009816" lon="10.779816023713652"><ele>460.6666666666667</ele><time>2026-04-26T15:02:14.001Z</time></trkpt><trkpt lat="43.253062175346805" lon="10.779656193327256"><ele>460.0</ele><time>2026-04-26T15:02:15.001Z</time></trkpt><trkpt lat="43.252921759236706" lon="10.779530875679379"><ele>460.0</ele><time>2026-04-26T15:02:16.001Z</time></trkpt><trkpt lat="43.252799182514075" lon="10.779403926786745"><ele>460.0</ele><time>2026-04-26T15:02:17.001Z</time></trkpt><trkpt lat="43.25267741661764" lon="10.779296146277801"><ele>460.0</ele><time>2026-04-26T15:02:18.001Z</time></trkpt><trkpt lat="43.25256129812012" lon="10.779177846205805"><ele>460.0</ele><time>2026-04-26T15:02:19.001Z</time></trkpt><trkpt lat="43.2524419752777" lon="10.779077426522896"><ele>462.0</ele><time>2026-04-26T15:02:20.001Z</time></trkpt><trkpt lat="43.25231155916569" lon="10.778968022959456"><ele>464.0</ele><time>2026-04-26T15:02:21.001Z</time></trkpt><trkpt lat="43.25215913931485" lon="10.778840145127539"><ele>466.0</ele><time>2026-04-26T15:02:22.001Z</time></trkpt><trkpt lat="43.2519921230721" lon="10.77870086833363"><ele>466.0</ele><time>2026-04-26T15:02:23.001Z</time></trkpt><trkpt lat="43.251823220016796" lon="10.778562281215239"><ele>466.0</ele><time>2026-04-26T15:02:24.001Z</time></trkpt><trkpt lat="43.251672514206795" lon="10.778448218433766"><ele>466.0</ele><time>2026-04-26T15:02:25.001Z</time></trkpt><trkpt lat="43.251527367346725" lon="10.77834562224549"><ele>467.5</ele><time>2026-04-26T15:02:26.001Z</time></trkpt><trkpt lat="43.25139164432327" lon="10.778253833263369"><ele>469.0</ele><time>2026-04-26T15:02:27.001Z</time></trkpt><trkpt lat="43.251267831232674" lon="10.778170157062947"><ele>470.5</ele><time>2026-04-26T15:02:28.001Z</time></trkpt><trkpt lat="43.251145234451585" lon="10.778089379727417"><ele>472.0</ele><time>2026-04-26T15:02:29.001Z</time></trkpt><trkpt lat="43.25102760003027" lon="10.778015221457853"><ele>472.0</ele><time>2026-04-26T15:02:30.001Z</time></trkpt><trkpt lat="43.250922136870955" lon="10.777961904349423"><ele>472.00000000000006</ele><time>2026-04-26T15:02:31.001Z</time></trkpt><trkpt lat="43.25083270907936" lon="10.77793433274502"><ele>472.00000000000006</ele><time>2026-04-26T15:02:32.001Z</time></trkpt><trkpt lat="43.25073996531831" lon="10.77795041815316"><ele>472.0</ele><time>2026-04-26T15:02:33.001Z</time></trkpt><trkpt lat="43.25064439612867" lon="10.778022001570175"><ele>472.0</ele><time>2026-04-26T15:02:34.002Z</time></trkpt><trkpt lat="43.25052364497676" lon="10.778066101939825"><ele>473.0</ele><time>2026-04-26T15:02:35.002Z</time></trkpt><trkpt lat="43.2504057189006" lon="10.778112967403622"><ele>474.0</ele><time>2026-04-26T15:02:36.002Z</time></trkpt><trkpt lat="43.25028493358065" lon="10.778120576711899"><ele>475.0</ele><time>2026-04-26T15:02:37.002Z</time></trkpt><trkpt lat="43.25015309096707" lon="10.778103625619666"><ele>476.0</ele><time>2026-04-26T15:02:38.002Z</time></trkpt><trkpt lat="43.25002744379876" lon="10.778092668921412"><ele>475.99999999999994</ele><time>2026-04-26T15:02:39.002Z</time></trkpt><trkpt lat="43.249942854400196" lon="10.778049055546393"><ele>476.0</ele><time>2026-04-26T15:02:40.002Z</time></trkpt><trkpt lat="43.249878312192486" lon="10.778008689147432"><ele>476.0</ele><time>2026-04-26T15:02:41.002Z</time></trkpt><trkpt lat="43.24982193134111" lon="10.777959533743275"><ele>476.0</ele><time>2026-04-26T15:02:42.002Z</time></trkpt><trkpt lat="43.24975552015373" lon="10.77790033276372"><ele>475.99999999999994</ele><time>2026-04-26T15:02:43.002Z</time></trkpt><trkpt lat="43.24968075720911" lon="10.777814216886451"><ele>476.0</ele><time>2026-04-26T15:02:44.002Z</time></trkpt><trkpt lat="43.24958336138568" lon="10.777691272864354"><ele>481.5</ele><time>2026-04-26T15:02:45.002Z</time></trkpt><trkpt lat="43.249481079371144" lon="10.777559137303001"><ele>487.0</ele><time>2026-04-26T15:02:46.002Z</time></trkpt><trkpt lat="43.24936268033085" lon="10.777435189473504"><ele>492.5</ele><time>2026-04-26T15:02:47.002Z</time></trkpt><trkpt lat="43.2492743486167" lon="10.777292738376897"><ele>498.0</ele><time>2026-04-26T15:02:48.002Z</time></trkpt><trkpt lat="43.24923528347386" lon="10.777145516483495"><ele>498.0</ele><time>2026-04-26T15:02:49.002Z</time></trkpt><trkpt lat="43.24920457695441" lon="10.777020581241466"><ele>497.99999999999994</ele><time>2026-04-26T15:02:50.002Z</time></trkpt><trkpt lat="43.24916885914073" lon="10.776885697810032"><ele>497.99999999999994</ele><time>2026-04-26T15:02:51.002Z</time></trkpt><trkpt lat="43.24912115053018" lon="10.77675600551754"><ele>498.0</ele><time>2026-04-26T15:02:52.002Z</time></trkpt><trkpt lat="43.24908871643536" lon="10.776611540267577"><ele>498.0</ele><time>2026-04-26T15:02:53.002Z</time></trkpt><trkpt lat="43.24904182222358" lon="10.77651267929939"><ele>496.75</ele><time>2026-04-26T15:02:54.002Z</time></trkpt><trkpt lat="43.248963821357336" lon="10.77642904712608"><ele>495.5</ele><time>2026-04-26T15:02:55.002Z</time></trkpt><trkpt lat="43.24887194884437" lon="10.776325599314905"><ele>494.25</ele><time>2026-04-26T15:02:56.002Z</time></trkpt><trkpt lat="43.2487802096244" lon="10.776224400964532"><ele>493.0</ele><time>2026-04-26T15:02:57.002Z</time></trkpt><trkpt lat="43.24871054334694" lon="10.776098129781344"><ele>495.0</ele><time>2026-04-26T15:02:58.002Z</time></trkpt><trkpt lat="43.24862948498073" lon="10.775979029705896"><ele>496.99999999999994</ele><time>2026-04-26T15:02:59.002Z</time></trkpt><trkpt lat="43.24855540979376" lon="10.775835376579966"><ele>498.99999999999994</ele><time>2026-04-26T15:03:00.002Z</time></trkpt><trkpt lat="43.24850019166279" lon="10.775757241254682"><ele>501.0</ele><time>2026-04-26T15:03:01.002Z</time></trkpt><trkpt lat="43.24843145839791" lon="10.775729904257203"><ele>503.0</ele><time>2026-04-26T15:03:02.002Z</time></trkpt><trkpt lat="43.24834554795433" lon="10.775745774594915"><ele>502.99999999999994</ele><time>2026-04-26T15:03:03.002Z</time></trkpt><trkpt lat="43.248269792701045" lon="10.775813605695227"><ele>503.0</ele><time>2026-04-26T15:03:04.002Z</time></trkpt><trkpt lat="43.24817249994498" lon="10.775865108284476"><ele>503.0</ele><time>2026-04-26T15:03:05.002Z</time></trkpt><trkpt lat="43.24808476274351" lon="10.7759205874751"><ele>503.0</ele><time>2026-04-26T15:03:06.002Z</time></trkpt><trkpt lat="43.24801969306167" lon="10.775951477641826"><ele>502.99999999999994</ele><time>2026-04-26T15:03:07.002Z</time></trkpt><trkpt lat="43.24794312728909" lon="10.775996334756341"><ele>503.0</ele><time>2026-04-26T15:03:09.002Z</time></trkpt><trkpt lat="43.24799469804236" lon="10.775944584764519"><ele>503.4</ele><time>2026-04-26T15:05:17.003Z</time></trkpt><trkpt lat="43.24793052416819" lon="10.775944385634803"><ele>503.79999999999995</ele><time>2026-04-26T15:07:16.002Z</time></trkpt><trkpt lat="43.24783740679155" lon="10.775964891549396"><ele>504.2</ele><time>2026-04-26T15:28:31.001Z</time></trkpt><trkpt lat="43.247731194609074" lon="10.775915172650427"><ele>504.6</ele><time>2026-04-26T15:28:33.001Z</time></trkpt><trkpt lat="43.24763939138356" lon="10.775891508550544"><ele>505.0</ele><time>2026-04-26T15:28:35.001Z</time></trkpt><trkpt lat="43.247551413251344" lon="10.775896045314232"><ele>505.0</ele><time>2026-04-26T15:28:46Z</time></trkpt><trkpt lat="43.2474071271407" lon="10.775935171213451"><ele>505.0</ele><time>2026-04-26T15:28:48Z</time></trkpt><trkpt lat="43.247299442459386" lon="10.775990398317681"><ele>505.0</ele><time>2026-04-26T15:28:49Z</time></trkpt><trkpt lat="43.24719533974132" lon="10.776039590267128"><ele>505.0</ele><time>2026-04-26T15:28:50Z</time></trkpt><trkpt lat="43.247104667864434" lon="10.776110928443408"><ele>505.71428571428567</ele><time>2026-04-26T15:28:51Z</time></trkpt><trkpt lat="43.24703605264438" lon="10.776131881483126"><ele>506.4285714285714</ele><time>2026-04-26T15:28:52Z</time></trkpt><trkpt lat="43.24696916139564" lon="10.776160367480621"><ele>507.1428571428571</ele><time>2026-04-26T15:28:53Z</time></trkpt><trkpt lat="43.24690083549744" lon="10.776138375440286"><ele>507.8571428571429</ele><time>2026-04-26T15:28:54Z</time></trkpt><trkpt lat="43.24683332278465" lon="10.776111634675173"><ele>508.5714285714286</ele><time>2026-04-26T15:28:55Z</time></trkpt><trkpt lat="43.24677091785002" lon="10.776065526736806"><ele>509.28571428571433</ele><time>2026-04-26T15:28:56Z</time></trkpt><trkpt lat="43.246711450623756" lon="10.77597786067141"><ele>510.0</ele><time>2026-04-26T15:28:57Z</time></trkpt><trkpt lat="43.24663100019675" lon="10.775856353452703"><ele>510.0</ele><time>2026-04-26T15:28:58Z</time></trkpt><trkpt lat="43.24653853804731" lon="10.77573975735334"><ele>510.0</ele><time>2026-04-26T15:28:59Z</time></trkpt><trkpt lat="43.246442948577304" lon="10.775669831159423"><ele>510.0</ele><time>2026-04-26T15:29:00Z</time></trkpt><trkpt lat="43.24638220253953" lon="10.775588305636585"><ele>510.0</ele><time>2026-04-26T15:29:01Z</time></trkpt><trkpt lat="43.24631972404037" lon="10.775523963095749"><ele>510.0</ele><time>2026-04-26T15:29:02Z</time></trkpt><trkpt lat="43.246257312263204" lon="10.775424842766233"><ele>510.6666666666667</ele><time>2026-04-26T15:29:03Z</time></trkpt><trkpt lat="43.246202899929976" lon="10.775304079391983"><ele>511.33333333333337</ele><time>2026-04-26T15:29:04Z</time></trkpt><trkpt lat="43.24615349558016" lon="10.775168867818877"><ele>512.0</ele><time>2026-04-26T15:29:05Z</time></trkpt><trkpt lat="43.24609707976451" lon="10.775080136514735"><ele>512.6666666666667</ele><time>2026-04-26T15:29:06Z</time></trkpt><trkpt lat="43.24604568987754" lon="10.775020114100789"><ele>513.3333333333334</ele><time>2026-04-26T15:29:07Z</time></trkpt><trkpt lat="43.24598956386685" lon="10.774970026571292"><ele>514.0</ele><time>2026-04-26T15:29:08Z</time></trkpt><trkpt lat="43.24589346497702" lon="10.774977844676654"><ele>512.2</ele><time>2026-04-26T15:29:10Z</time></trkpt><trkpt lat="43.2458240071792" lon="10.77500931158539"><ele>510.4</ele><time>2026-04-26T15:29:11Z</time></trkpt><trkpt lat="43.2457211371158" lon="10.775063952998218"><ele>508.6</ele><time>2026-04-26T15:29:12Z</time></trkpt><trkpt lat="43.24562633957014" lon="10.77506766140738"><ele>506.8</ele><time>2026-04-26T15:29:13Z</time></trkpt><trkpt lat="43.24555006060953" lon="10.775108530626662"><ele>505.0</ele><time>2026-04-26T15:29:15Z</time></trkpt><trkpt lat="43.24542477698261" lon="10.77509521226071"><ele>504.5</ele><time>2026-04-26T15:29:17Z</time></trkpt><trkpt lat="43.245335670625614" lon="10.775012085377178"><ele>504.0</ele><time>2026-04-26T15:29:18Z</time></trkpt><trkpt lat="43.245227386469516" lon="10.774905148786722"><ele>503.5</ele><time>2026-04-26T15:29:19Z</time></trkpt><trkpt lat="43.245099514114685" lon="10.774824779357234"><ele>503.0</ele><time>2026-04-26T15:29:20Z</time></trkpt><trkpt lat="43.24495418421023" lon="10.774733437330704"><ele>503.0</ele><time>2026-04-26T15:29:21Z</time></trkpt><trkpt lat="43.24480649835499" lon="10.774662656258743"><ele>503.0</ele><time>2026-04-26T15:29:22Z</time></trkpt><trkpt lat="43.244685743015374" lon="10.774577069575479"><ele>503.0</ele><time>2026-04-26T15:29:23Z</time></trkpt><trkpt lat="43.24458510084649" lon="10.77450223075808"><ele>503.0</ele><time>2026-04-26T15:29:24Z</time></trkpt><trkpt lat="43.24449600305502" lon="10.774438860184187"><ele>502.66666666666663</ele><time>2026-04-26T15:29:25Z</time></trkpt><trkpt lat="43.244419656332994" lon="10.774385969107508"><ele>502.3333333333333</ele><time>2026-04-26T15:29:26Z</time></trkpt><trkpt lat="43.24433819804022" lon="10.774331493665057"><ele>502.0</ele><time>2026-04-26T15:29:27Z</time></trkpt><trkpt lat="43.24427121292063" lon="10.774275374678155"><ele>501.66666666666663</ele><time>2026-04-26T15:29:28Z</time></trkpt><trkpt lat="43.24420297939409" lon="10.774217622010266"><ele>501.3333333333333</ele><time>2026-04-26T15:29:29Z</time></trkpt><trkpt lat="43.24413140118418" lon="10.774145566009603"><ele>501.0</ele><time>2026-04-26T15:29:30Z</time></trkpt><trkpt lat="43.244069535175676" lon="10.774061784335473"><ele>501.0</ele><time>2026-04-26T15:29:31Z</time></trkpt><trkpt lat="43.24404863725075" lon="10.77395212033916"><ele>501.0</ele><time>2026-04-26T15:29:32Z</time></trkpt><trkpt lat="43.24402920121312" lon="10.773827737612216"><ele>501.0</ele><time>2026-04-26T15:29:33Z</time></trkpt><trkpt lat="43.244011815619" lon="10.77367603963366"><ele>501.0</ele><time>2026-04-26T15:29:34Z</time></trkpt><trkpt lat="43.243990224423335" lon="10.773546693650667"><ele>501.0</ele><time>2026-04-26T15:29:35Z</time></trkpt><trkpt lat="43.243965154108814" lon="10.773431149668978"><ele>501.3333333333333</ele><time>2026-04-26T15:29:36Z</time></trkpt><trkpt lat="43.24391806641848" lon="10.773348360673587"><ele>501.66666666666663</ele><time>2026-04-26T15:29:37Z</time></trkpt><trkpt lat="43.243885031118005" lon="10.773248217192569"><ele>502.0</ele><time>2026-04-26T15:29:38Z</time></trkpt><trkpt lat="43.24382050799925" lon="10.773152909865868"><ele>502.3333333333333</ele><time>2026-04-26T15:29:39Z</time></trkpt><trkpt lat="43.24373305025049" lon="10.773109726668261"><ele>502.66666666666663</ele><time>2026-04-26T15:29:40Z</time></trkpt><trkpt lat="43.243689791327554" lon="10.773020318694797"><ele>503.0</ele><time>2026-04-26T15:29:41Z</time></trkpt><trkpt lat="43.24365820615817" lon="10.772929506800324"><ele>503.0</ele><time>2026-04-26T15:29:42Z</time></trkpt><trkpt lat="43.243641800949106" lon="10.772829486698402"><ele>502.99999999999994</ele><time>2026-04-26T15:29:43Z</time></trkpt><trkpt lat="43.24362975676605" lon="10.772700383205398"><ele>502.99999999999994</ele><time>2026-04-26T15:29:44Z</time></trkpt><trkpt lat="43.24362779846577" lon="10.77256154468922"><ele>503.0</ele><time>2026-04-26T15:29:45Z</time></trkpt><trkpt lat="43.24362107183434" lon="10.772407964587252"><ele>503.0</ele><time>2026-04-26T15:29:46Z</time></trkpt><trkpt lat="43.243630169044785" lon="10.772258021902024"><ele>503.0</ele><time>2026-04-26T15:29:47Z</time></trkpt><trkpt lat="43.24363991557729" lon="10.77210464980692"><ele>502.99999999999994</ele><time>2026-04-26T15:29:48Z</time></trkpt><trkpt lat="43.24364819632194" lon="10.771963985689784"><ele>502.99999999999994</ele><time>2026-04-26T15:29:49Z</time></trkpt><trkpt lat="43.24365065495342" lon="10.77183488294871"><ele>503.0</ele><time>2026-04-26T15:29:50Z</time></trkpt><trkpt lat="43.24364855996305" lon="10.771724795133492"><ele>503.0</ele><time>2026-04-26T15:29:51Z</time></trkpt><trkpt lat="43.243622371401536" lon="10.771574128483278"><ele>503.0</ele><time>2026-04-26T15:29:53Z</time></trkpt><trkpt lat="43.243573392188104" lon="10.771487744389544"><ele>502.99999999999994</ele><time>2026-04-26T15:29:54Z</time></trkpt><trkpt lat="43.24350048207126" lon="10.771431690335666"><ele>502.99999999999994</ele><time>2026-04-26T15:29:55Z</time></trkpt><trkpt lat="43.24339930016491" lon="10.77141252829295"><ele>503.0</ele><time>2026-04-26T15:29:56Z</time></trkpt><trkpt lat="43.243288546265646" lon="10.771430577222025"><ele>503.0</ele><time>2026-04-26T15:29:57Z</time></trkpt><trkpt lat="43.243204760264064" lon="10.771420057638956"><ele>503.0</ele><time>2026-04-26T15:29:58Z</time></trkpt><trkpt lat="43.24313711345778" lon="10.771393995466715"><ele>502.99999999999994</ele><time>2026-04-26T15:29:59Z</time></trkpt><trkpt lat="43.243089098646195" lon="10.771220765888916"><ele>502.99999999999994</ele><time>2026-04-26T15:30:01Z</time></trkpt><trkpt lat="43.243062204352604" lon="10.771101925881473"><ele>503.0</ele><time>2026-04-26T15:30:02Z</time></trkpt><trkpt lat="43.243033275383254" lon="10.770943616141752"><ele>503.0</ele><time>2026-04-26T15:30:03Z</time></trkpt><trkpt lat="43.243005602076906" lon="10.770775187885562"><ele>503.59999999999997</ele><time>2026-04-26T15:30:04Z</time></trkpt><trkpt lat="43.24298336556868" lon="10.770631714574812"><ele>504.19999999999993</ele><time>2026-04-26T15:30:05Z</time></trkpt><trkpt lat="43.242961401811854" lon="10.77050268862958"><ele>504.8</ele><time>2026-04-26T15:30:06Z</time></trkpt><trkpt lat="43.24291667632975" lon="10.77037129978829"><ele>505.4</ele><time>2026-04-26T15:30:07Z</time></trkpt><trkpt lat="43.24284617378406" lon="10.770252408531713"><ele>506.0</ele><time>2026-04-26T15:30:08Z</time></trkpt><trkpt lat="43.24278405732329" lon="10.770128510505133"><ele>503.20000000000005</ele><time>2026-04-26T15:30:09Z</time></trkpt><trkpt lat="43.24271215697163" lon="10.770014040734173"><ele>500.40000000000003</ele><time>2026-04-26T15:30:10Z</time></trkpt><trkpt lat="43.24267615975871" lon="10.769885326094485"><ele>497.6</ele><time>2026-04-26T15:30:11Z</time></trkpt><trkpt lat="43.24264331109139" lon="10.769752958159078"><ele>494.8</ele><time>2026-04-26T15:30:12Z</time></trkpt><trkpt lat="43.2426414397567" lon="10.769622493225862"><ele>492.0</ele><time>2026-04-26T15:30:13Z</time></trkpt><trkpt lat="43.242632184902114" lon="10.769497345283677"><ele>492.0</ele><time>2026-04-26T15:30:14Z</time></trkpt><trkpt lat="43.24262520747153" lon="10.769373601083073"><ele>492.0</ele><time>2026-04-26T15:30:15Z</time></trkpt><trkpt lat="43.24260685289111" lon="10.769266007866758"><ele>492.0</ele><time>2026-04-26T15:30:16Z</time></trkpt><trkpt lat="43.242582511259144" lon="10.769179293393686"><ele>492.0</ele><time>2026-04-26T15:30:17Z</time></trkpt><trkpt lat="43.242532190617155" lon="10.769104604539274"><ele>492.0</ele><time>2026-04-26T15:30:18Z</time></trkpt><trkpt lat="43.24245654800611" lon="10.76904549236023"><ele>492.0</ele><time>2026-04-26T15:30:19Z</time></trkpt><trkpt lat="43.2423569437976" lon="10.769005704390029"><ele>489.8</ele><time>2026-04-26T15:30:20Z</time></trkpt><trkpt lat="43.242255454238034" lon="10.768974757418587"><ele>487.6</ele><time>2026-04-26T15:30:21Z</time></trkpt><trkpt lat="43.242145283126106" lon="10.768937409866325"><ele>485.40000000000003</ele><time>2026-04-26T15:30:22Z</time></trkpt><trkpt lat="43.242029746544965" lon="10.768896505662966"><ele>483.20000000000005</ele><time>2026-04-26T15:30:23Z</time></trkpt><trkpt lat="43.24191955322868" lon="10.76886897439215"><ele>481.0</ele><time>2026-04-26T15:30:24Z</time></trkpt><trkpt lat="43.24182007472803" lon="10.76882602451543"><ele>481.0</ele><time>2026-04-26T15:30:25Z</time></trkpt><trkpt lat="43.24172649424372" lon="10.768766176037184"><ele>481.0</ele><time>2026-04-26T15:30:26Z</time></trkpt><trkpt lat="43.241626304628824" lon="10.768744315434107"><ele>481.0</ele><time>2026-04-26T15:30:27Z</time></trkpt><trkpt lat="43.24153008285614" lon="10.76877295142401"><ele>481.0</ele><time>2026-04-26T15:30:28Z</time></trkpt><trkpt lat="43.24144544101727" lon="10.76878765013526"><ele>481.0</ele><time>2026-04-26T15:30:29.001Z</time></trkpt><trkpt lat="43.24136247072344" lon="10.768803745743403"><ele>479.20000000000005</ele><time>2026-04-26T15:30:30.001Z</time></trkpt><trkpt lat="43.24128682377201" lon="10.768761572136146"><ele>477.40000000000003</ele><time>2026-04-26T15:30:31.001Z</time></trkpt><trkpt lat="43.24119576505761" lon="10.76873012873724"><ele>475.6</ele><time>2026-04-26T15:30:32.001Z</time></trkpt><trkpt lat="43.24110588563753" lon="10.768678070073447"><ele>473.8</ele><time>2026-04-26T15:30:33.001Z</time></trkpt><trkpt lat="43.24101669790398" lon="10.768628518246762"><ele>472.0</ele><time>2026-04-26T15:30:34.001Z</time></trkpt><trkpt lat="43.240936059909245" lon="10.768581213195251"><ele>472.0</ele><time>2026-04-26T15:30:35.001Z</time></trkpt><trkpt lat="43.24085359587686" lon="10.7685328369536"><ele>472.00000000000006</ele><time>2026-04-26T15:30:36.001Z</time></trkpt><trkpt lat="43.24076946706746" lon="10.768517280786273"><ele>472.00000000000006</ele><time>2026-04-26T15:30:37.001Z</time></trkpt><trkpt lat="43.24071242030563" lon="10.768477338753373"><ele>472.0</ele><time>2026-04-26T15:30:38.001Z</time></trkpt><trkpt lat="43.24062873231957" lon="10.768434637193238"><ele>472.0</ele><time>2026-04-26T15:30:40.001Z</time></trkpt><trkpt lat="43.240685329684965" lon="10.768264842668126"><ele>470.0</ele><time>2026-04-26T15:30:45.001Z</time></trkpt><trkpt lat="43.240685819086266" lon="10.768167929653707"><ele>468.00000000000006</ele><time>2026-04-26T15:30:46.001Z</time></trkpt><trkpt lat="43.24069150901814" lon="10.768055256695765"><ele>466.00000000000006</ele><time>2026-04-26T15:30:47.001Z</time></trkpt><trkpt lat="43.24068538130524" lon="10.767904297445817"><ele>464.0</ele><time>2026-04-26T15:30:48.001Z</time></trkpt><trkpt lat="43.24070941203597" lon="10.767737047520855"><ele>462.0</ele><time>2026-04-26T15:30:48.998Z</time></trkpt><trkpt lat="43.240731489551564" lon="10.767583238103896"><ele>460.75</ele><time>2026-04-26T15:30:49.998Z</time></trkpt><trkpt lat="43.24075747877085" lon="10.767405209404712"><ele>459.5</ele><time>2026-04-26T15:30:50.998Z</time></trkpt><trkpt lat="43.240786185617196" lon="10.767221983732998"><ele>458.25</ele><time>2026-04-26T15:30:51.998Z</time></trkpt><trkpt lat="43.240806251801494" lon="10.767054820857494"><ele>457.0</ele><time>2026-04-26T15:30:52.998Z</time></trkpt><trkpt lat="43.24079991043378" lon="10.766903588920757"><ele>457.8</ele><time>2026-04-26T15:30:53.998Z</time></trkpt><trkpt lat="43.24080786674599" lon="10.76675662967495"><ele>458.6</ele><time>2026-04-26T15:30:54.998Z</time></trkpt><trkpt lat="43.24083755218177" lon="10.76662909169443"><ele>459.40000000000003</ele><time>2026-04-26T15:30:55.998Z</time></trkpt><trkpt lat="43.24085469131475" lon="10.766502391130317"><ele>460.20000000000005</ele><time>2026-04-26T15:30:56.998Z</time></trkpt><trkpt lat="43.24089336150589" lon="10.766371772216381"><ele>461.0</ele><time>2026-04-26T15:30:57.998Z</time></trkpt><trkpt lat="43.240931268333426" lon="10.766230778981742"><ele>461.0</ele><time>2026-04-26T15:30:58.998Z</time></trkpt><trkpt lat="43.24097198787327" lon="10.766094543343186"><ele>461.0</ele><time>2026-04-26T15:30:59.999Z</time></trkpt><trkpt lat="43.24101112680815" lon="10.765991896416539"><ele>461.0</ele><time>2026-04-26T15:31:00.999Z</time></trkpt><trkpt lat="43.24103056455512" lon="10.76587849458115"><ele>461.0</ele><time>2026-04-26T15:31:01.999Z</time></trkpt><trkpt lat="43.24103774043653" lon="10.765754352348038"><ele>461.0</ele><time>2026-04-26T15:31:02.999Z</time></trkpt><trkpt lat="43.24102891088859" lon="10.765636800456646"><ele>460.4</ele><time>2026-04-26T15:31:03.999Z</time></trkpt><trkpt lat="43.241011016964734" lon="10.765512314520956"><ele>459.8</ele><time>2026-04-26T15:31:04.999Z</time></trkpt><trkpt lat="43.24094507020049" lon="10.76537360626062"><ele>459.19999999999993</ele><time>2026-04-26T15:31:05.999Z</time></trkpt><trkpt lat="43.24091659513921" lon="10.765208161404985"><ele>458.59999999999997</ele><time>2026-04-26T15:31:06.999Z</time></trkpt><trkpt lat="43.24090462804031" lon="10.765072619237648"><ele>458.0</ele><time>2026-04-26T15:31:07.999Z</time></trkpt><trkpt lat="43.24091616107922" lon="10.764948490496096"><ele>458.0</ele><time>2026-04-26T15:31:08.999Z</time></trkpt><trkpt lat="43.240897019846074" lon="10.764832384342318"><ele>457.99999999999994</ele><time>2026-04-26T15:31:09.999Z</time></trkpt><trkpt lat="43.240859761321985" lon="10.764721048919169"><ele>457.99999999999994</ele><time>2026-04-26T15:31:10.999Z</time></trkpt><trkpt lat="43.240796741940514" lon="10.764611275367209"><ele>458.0</ele><time>2026-04-26T15:31:11.999Z</time></trkpt><trkpt lat="43.240742105851766" lon="10.764498716750657"><ele>458.0</ele><time>2026-04-26T15:31:12.999Z</time></trkpt><trkpt lat="43.240677135740995" lon="10.764383053808519"><ele>461.0</ele><time>2026-04-26T15:31:13.999Z</time></trkpt><trkpt lat="43.24062881714631" lon="10.764253164924453"><ele>463.99999999999994</ele><time>2026-04-26T15:31:14.999Z</time></trkpt><trkpt lat="43.24059226716014" lon="10.764125956372636"><ele>466.99999999999994</ele><time>2026-04-26T15:31:15.999Z</time></trkpt><trkpt lat="43.24055092432959" lon="10.764024281188586"><ele>470.0</ele><time>2026-04-26T15:31:16.999Z</time></trkpt><trkpt lat="43.24046176573967" lon="10.763978425583229"><ele>473.0</ele><time>2026-04-26T15:31:17.999Z</time></trkpt><trkpt lat="43.24037677351663" lon="10.763926467249343"><ele>473.0</ele><time>2026-04-26T15:31:18.999Z</time></trkpt><trkpt lat="43.24027589214529" lon="10.763864773585272"><ele>472.99999999999994</ele><time>2026-04-26T15:31:19.999Z</time></trkpt><trkpt lat="43.24019187313429" lon="10.763809160979935"><ele>472.99999999999994</ele><time>2026-04-26T15:31:20.999Z</time></trkpt><trkpt lat="43.240139786700865" lon="10.763753353105589"><ele>473.0</ele><time>2026-04-26T15:31:21.999Z</time></trkpt><trkpt lat="43.24012446433014" lon="10.763634287291234"><ele>473.0</ele><time>2026-04-26T15:31:23.999Z</time></trkpt><trkpt lat="43.24017664190488" lon="10.76350010104283"><ele>472.3333333333333</ele><time>2026-04-26T15:31:25.999Z</time></trkpt><trkpt lat="43.24025711315066" lon="10.763481989460121"><ele>471.66666666666663</ele><time>2026-04-26T15:31:27Z</time></trkpt><trkpt lat="43.240324570243004" lon="10.763463031331685"><ele>471.0</ele><time>2026-04-26T15:31:28Z</time></trkpt><trkpt lat="43.240407064771965" lon="10.763423468066067"><ele>470.33333333333337</ele><time>2026-04-26T15:31:29Z</time></trkpt><trkpt lat="43.240473039534926" lon="10.763340108062726"><ele>469.6666666666667</ele><time>2026-04-26T15:31:30Z</time></trkpt><trkpt lat="43.24056416678774" lon="10.763265875817087"><ele>469.0</ele><time>2026-04-26T15:31:31Z</time></trkpt><trkpt lat="43.24066179828115" lon="10.763182187155353"><ele>465.6</ele><time>2026-04-26T15:31:32Z</time></trkpt><trkpt lat="43.24075710005955" lon="10.763166624826596"><ele>462.2</ele><time>2026-04-26T15:31:33Z</time></trkpt><trkpt lat="43.24082120653083" lon="10.763112801660938"><ele>458.80000000000007</ele><time>2026-04-26T15:31:34Z</time></trkpt><trkpt lat="43.24087202263849" lon="10.763000763303822"><ele>455.40000000000003</ele><time>2026-04-26T15:31:35Z</time></trkpt><trkpt lat="43.240940873027306" lon="10.762878460608373"><ele>452.0</ele><time>2026-04-26T15:31:36Z</time></trkpt><trkpt lat="43.2410170597841" lon="10.762758253415138"><ele>454.6</ele><time>2026-04-26T15:31:37Z</time></trkpt><trkpt lat="43.2410829165799" lon="10.7626823129038"><ele>457.20000000000005</ele><time>2026-04-26T15:31:38Z</time></trkpt><trkpt lat="43.24116792890458" lon="10.762557086794708"><ele>459.8</ele><time>2026-04-26T15:31:40Z</time></trkpt><trkpt lat="43.24116907318623" lon="10.762439853051902"><ele>462.4</ele><time>2026-04-26T15:31:41Z</time></trkpt><trkpt lat="43.24114601498056" lon="10.762284935331188"><ele>465.0</ele><time>2026-04-26T15:31:42Z</time></trkpt><trkpt lat="43.24113437997393" lon="10.762106843686393"><ele>465.0</ele><time>2026-04-26T15:31:43Z</time></trkpt><trkpt lat="43.24116680796428" lon="10.761983496771341"><ele>465.0</ele><time>2026-04-26T15:31:44Z</time></trkpt><trkpt lat="43.241187908280494" lon="10.761901960121248"><ele>465.0</ele><time>2026-04-26T15:31:45Z</time></trkpt><trkpt lat="43.241229598817256" lon="10.761836520951935"><ele>465.0</ele><time>2026-04-26T15:31:46Z</time></trkpt><trkpt lat="43.241280566128566" lon="10.761725777040581"><ele>465.0</ele><time>2026-04-26T15:31:47Z</time></trkpt><trkpt lat="43.241331987761704" lon="10.761604027746657"><ele>465.0</ele><time>2026-04-26T15:31:48Z</time></trkpt><trkpt lat="43.241387420475704" lon="10.761518585817246"><ele>466.0</ele><time>2026-04-26T15:31:49Z</time></trkpt><trkpt lat="43.241461599852656" lon="10.761500661303517"><ele>467.0</ele><time>2026-04-26T15:31:50Z</time></trkpt><trkpt lat="43.241538890772084" lon="10.761409364732193"><ele>468.0</ele><time>2026-04-26T15:31:52Z</time></trkpt><trkpt lat="43.24154895221169" lon="10.761242594576304"><ele>469.0</ele><time>2026-04-26T15:31:54Z</time></trkpt><trkpt lat="43.24151582859888" lon="10.76116146766087"><ele>470.0</ele><time>2026-04-26T15:31:55Z</time></trkpt><trkpt lat="43.24142263677415" lon="10.761073135823871"><ele>469.6</ele><time>2026-04-26T15:31:56Z</time></trkpt><trkpt lat="43.24137268490928" lon="10.760926126251672"><ele>469.2</ele><time>2026-04-26T15:31:57Z</time></trkpt><trkpt lat="43.24130550446461" lon="10.760808656514651"><ele>468.79999999999995</ele><time>2026-04-26T15:31:58Z</time></trkpt><trkpt lat="43.24125755672348" lon="10.760715959828968"><ele>468.4</ele><time>2026-04-26T15:31:59Z</time></trkpt><trkpt lat="43.24122424762676" lon="10.760599529453016"><ele>468.0</ele><time>2026-04-26T15:32:00Z</time></trkpt><trkpt lat="43.24120162514204" lon="10.760446462969478"><ele>468.0</ele><time>2026-04-26T15:32:01Z</time></trkpt><trkpt lat="43.24119003117526" lon="10.760295699969927"><ele>467.99999999999994</ele><time>2026-04-26T15:32:02Z</time></trkpt><trkpt lat="43.24120256537133" lon="10.76016215398385"><ele>467.99999999999994</ele><time>2026-04-26T15:32:03Z</time></trkpt><trkpt lat="43.24120902325548" lon="10.760023472747216"><ele>468.0</ele><time>2026-04-26T15:32:04Z</time></trkpt><trkpt lat="43.241195557931626" lon="10.759893058203252"><ele>468.0</ele><time>2026-04-26T15:32:05Z</time></trkpt><trkpt lat="43.241196249448684" lon="10.759771254441135"><ele>465.6666666666667</ele><time>2026-04-26T15:32:06Z</time></trkpt><trkpt lat="43.24122541989877" lon="10.759664538248119"><ele>463.33333333333337</ele><time>2026-04-26T15:32:07Z</time></trkpt><trkpt lat="43.241248207501606" lon="10.759550150513444"><ele>461.0</ele><time>2026-04-26T15:32:08Z</time></trkpt><trkpt lat="43.2412488099638" lon="10.759435182999136"><ele>458.6666666666667</ele><time>2026-04-26T15:32:09Z</time></trkpt><trkpt lat="43.24121669561561" lon="10.75932005768475"><ele>456.33333333333337</ele><time>2026-04-26T15:32:10Z</time></trkpt><trkpt lat="43.241203821497294" lon="10.759216442491569"><ele>454.0</ele><time>2026-04-26T15:32:11Z</time></trkpt><trkpt lat="43.24116426894256" lon="10.759133662495026"><ele>452.00000000000006</ele><time>2026-04-26T15:32:12Z</time></trkpt><trkpt lat="43.24113508408403" lon="10.759057039958934"><ele>450.0</ele><time>2026-04-26T15:32:13Z</time></trkpt><trkpt lat="43.24113534055056" lon="10.758948745475958"><ele>448.0</ele><time>2026-04-26T15:32:15Z</time></trkpt><trkpt lat="43.24121665581693" lon="10.75894956976119"><ele>446.0</ele><time>2026-04-26T15:32:17Z</time></trkpt><trkpt lat="43.24130307230459" lon="10.759016505224496"><ele>444.00000000000006</ele><time>2026-04-26T15:32:19Z</time></trkpt><trkpt lat="43.24130127933877" lon="10.759128034993951"><ele>442.0</ele><time>2026-04-26T15:32:20Z</time></trkpt><trkpt lat="43.2413231643042" lon="10.75924789851423"><ele>440.75</ele><time>2026-04-26T15:32:21Z</time></trkpt><trkpt lat="43.24137461467611" lon="10.75938667512083"><ele>439.5</ele><time>2026-04-26T15:32:22Z</time></trkpt><trkpt lat="43.24139772195117" lon="10.759534690327895"><ele>438.25</ele><time>2026-04-26T15:32:23Z</time></trkpt><trkpt lat="43.241446820141995" lon="10.759697203039606"><ele>437.0</ele><time>2026-04-26T15:32:24Z</time></trkpt><trkpt lat="43.24148888839649" lon="10.75981827723958"><ele>437.0</ele><time>2026-04-26T15:32:25Z</time></trkpt><trkpt lat="43.24152270513785" lon="10.759916319327344"><ele>437.00000000000006</ele><time>2026-04-26T15:32:26Z</time></trkpt><trkpt lat="43.24154833794766" lon="10.759999350231597"><ele>437.00000000000006</ele><time>2026-04-26T15:32:27Z</time></trkpt><trkpt lat="43.24160718585592" lon="10.760164952301496"><ele>437.0</ele><time>2026-04-26T15:32:29Z</time></trkpt><trkpt lat="43.24165469830882" lon="10.760228400514317"><ele>437.0</ele><time>2026-04-26T15:32:30Z</time></trkpt><trkpt lat="43.2417568369444" lon="10.760289477006966"><ele>437.0</ele><time>2026-04-26T15:32:32Z</time></trkpt><trkpt lat="43.24182653232059" lon="10.760221919499399"><ele>437.00000000000006</ele><time>2026-04-26T15:32:33Z</time></trkpt><trkpt lat="43.24191264059822" lon="10.760190525855458"><ele>437.00000000000006</ele><time>2026-04-26T15:32:34Z</time></trkpt><trkpt lat="43.24200158136759" lon="10.760152658673896"><ele>437.0</ele><time>2026-04-26T15:32:35Z</time></trkpt><trkpt lat="43.24207201180901" lon="10.76009187834382"><ele>437.0</ele><time>2026-04-26T15:32:36Z</time></trkpt><trkpt lat="43.242146359694196" lon="10.759997255605116"><ele>436.99999999999994</ele><time>2026-04-26T15:32:37.001Z</time></trkpt><trkpt lat="43.24221857145073" lon="10.759896222476684"><ele>437.0</ele><time>2026-04-26T15:32:38.001Z</time></trkpt><trkpt lat="43.24227779280156" lon="10.759817432758707"><ele>437.0</ele><time>2026-04-26T15:32:39.001Z</time></trkpt><trkpt lat="43.24233961930417" lon="10.759738291777529"><ele>437.0</ele><time>2026-04-26T15:32:40.001Z</time></trkpt><trkpt lat="43.242420906056694" lon="10.759686829543119"><ele>436.99999999999994</ele><time>2026-04-26T15:32:41.001Z</time></trkpt><trkpt lat="43.24249227121454" lon="10.759644188447156"><ele>437.0</ele><time>2026-04-26T15:32:42.001Z</time></trkpt><trkpt lat="43.24256826650756" lon="10.759584831612296"><ele>437.49999999999994</ele><time>2026-04-26T15:32:43.001Z</time></trkpt><trkpt lat="43.24265197367251" lon="10.75958445246689"><ele>438.0</ele><time>2026-04-26T15:32:44.001Z</time></trkpt><trkpt lat="43.24272894406494" lon="10.759584603693739"><ele>438.5</ele><time>2026-04-26T15:32:45.001Z</time></trkpt><trkpt lat="43.24280418289727" lon="10.759595156476859"><ele>439.0</ele><time>2026-04-26T15:32:46.001Z</time></trkpt><trkpt lat="43.24289264422927" lon="10.759599660598248"><ele>439.49999999999994</ele><time>2026-04-26T15:32:47.001Z</time></trkpt><trkpt lat="43.24298490256047" lon="10.75969371761391"><ele>440.0</ele><time>2026-04-26T15:32:48.001Z</time></trkpt><trkpt lat="43.24309802955759" lon="10.759805064969184"><ele>437.25</ele><time>2026-04-26T15:32:49.001Z</time></trkpt><trkpt lat="43.24321800822413" lon="10.759890539198311"><ele>434.5</ele><time>2026-04-26T15:32:50.001Z</time></trkpt><trkpt lat="43.24333023521239" lon="10.759958442118645"><ele>431.75</ele><time>2026-04-26T15:32:51.001Z</time></trkpt><trkpt lat="43.24344431187553" lon="10.760000334453627"><ele>429.0</ele><time>2026-04-26T15:32:52.001Z</time></trkpt><trkpt lat="43.24354685264524" lon="10.760014249874937"><ele>429.0</ele><time>2026-04-26T15:32:53.001Z</time></trkpt><trkpt lat="43.24364383761868" lon="10.760091302875026"><ele>429.0</ele><time>2026-04-26T15:32:54.001Z</time></trkpt><trkpt lat="43.24376054117231" lon="10.760177651864925"><ele>429.0</ele><time>2026-04-26T15:32:54.999Z</time></trkpt><trkpt lat="43.243889902777596" lon="10.76025358532188"><ele>429.0</ele><time>2026-04-26T15:32:55.999Z</time></trkpt><trkpt lat="43.24399047625362" lon="10.760341148940785"><ele>426.79999999999995</ele><time>2026-04-26T15:32:56.999Z</time></trkpt><trkpt lat="43.24408115088137" lon="10.760403152109673"><ele>424.59999999999997</ele><time>2026-04-26T15:32:57.999Z</time></trkpt><trkpt lat="43.24416778475454" lon="10.760470910597592"><ele>422.4</ele><time>2026-04-26T15:32:58.999Z</time></trkpt><trkpt lat="43.244258268687794" lon="10.760472050540281"><ele>420.2</ele><time>2026-04-26T15:32:59.999Z</time></trkpt><trkpt lat="43.2443331298512" lon="10.760480689961412"><ele>418.0</ele><time>2026-04-26T15:33:00.999Z</time></trkpt><trkpt lat="43.244415972783024" lon="10.760470634337738"><ele>418.00000000000006</ele><time>2026-04-26T15:33:01.999Z</time></trkpt><trkpt lat="43.24450640621665" lon="10.76043435660103"><ele>418.0</ele><time>2026-04-26T15:33:02.999Z</time></trkpt><trkpt lat="43.24461094216948" lon="10.760412565221737"><ele>418.0</ele><time>2026-04-26T15:33:03.999Z</time></trkpt><trkpt lat="43.24469643503637" lon="10.760389477996217"><ele>418.0</ele><time>2026-04-26T15:33:04.999Z</time></trkpt><trkpt lat="43.24475730006818" lon="10.760357190358818"><ele>418.00000000000006</ele><time>2026-04-26T15:33:05.999Z</time></trkpt><trkpt lat="43.244816796769946" lon="10.760281087092352"><ele>418.0</ele><time>2026-04-26T15:33:06.999Z</time></trkpt><trkpt lat="43.244851814609376" lon="10.760159087669143"><ele>421.75</ele><time>2026-04-26T15:33:07.999Z</time></trkpt><trkpt lat="43.24489400552461" lon="10.760022991363979"><ele>425.5</ele><time>2026-04-26T15:33:08.999Z</time></trkpt><trkpt lat="43.24493742715527" lon="10.759874488167073"><ele>429.25</ele><time>2026-04-26T15:33:09.999Z</time></trkpt><trkpt lat="43.24494937626841" lon="10.759685236881316"><ele>433.0</ele><time>2026-04-26T15:33:10.999Z</time></trkpt><trkpt lat="43.24497315082046" lon="10.75948027071841"><ele>433.59999999999997</ele><time>2026-04-26T15:33:11.999Z</time></trkpt><trkpt lat="43.24500918772666" lon="10.759317351993523"><ele>434.19999999999993</ele><time>2026-04-26T15:33:12.999Z</time></trkpt><trkpt lat="43.24505761328109" lon="10.759202704483004"><ele>434.8</ele><time>2026-04-26T15:33:13.999Z</time></trkpt><trkpt lat="43.24509959574621" lon="10.759095036821583"><ele>435.4</ele><time>2026-04-26T15:33:14.999Z</time></trkpt><trkpt lat="43.24514820409847" lon="10.75901365171507"><ele>436.0</ele><time>2026-04-26T15:33:15.999Z</time></trkpt><trkpt lat="43.245208528995825" lon="10.758917174525745"><ele>436.0</ele><time>2026-04-26T15:33:16.999Z</time></trkpt><trkpt lat="43.24529368925023" lon="10.758822715534121"><ele>436.0</ele><time>2026-04-26T15:33:17.999Z</time></trkpt><trkpt lat="43.245384440040404" lon="10.758718688277835"><ele>436.0</ele><time>2026-04-26T15:33:18.999Z</time></trkpt><trkpt lat="43.245474142175595" lon="10.758622226074703"><ele>436.0</ele><time>2026-04-26T15:33:19.999Z</time></trkpt><trkpt lat="43.24554522450197" lon="10.7585443265264"><ele>436.0</ele><time>2026-04-26T15:33:21Z</time></trkpt><trkpt lat="43.24560039673746" lon="10.758475443555316"><ele>438.33333333333337</ele><time>2026-04-26T15:33:22Z</time></trkpt><trkpt lat="43.245642138066536" lon="10.758399708605978"><ele>440.6666666666667</ele><time>2026-04-26T15:33:23Z</time></trkpt><trkpt lat="43.24562901826337" lon="10.758280714736605"><ele>443.0</ele><time>2026-04-26T15:33:24Z</time></trkpt><trkpt lat="43.24562881957922" lon="10.758167731873222"><ele>445.33333333333337</ele><time>2026-04-26T15:33:25Z</time></trkpt><trkpt lat="43.24566037546295" lon="10.758044823584202"><ele>447.6666666666667</ele><time>2026-04-26T15:33:26Z</time></trkpt><trkpt lat="43.245684064885275" lon="10.757926784984141"><ele>450.0</ele><time>2026-04-26T15:33:27Z</time></trkpt><trkpt lat="43.24571840146906" lon="10.75780334184191"><ele>451.0</ele><time>2026-04-26T15:33:28Z</time></trkpt><trkpt lat="43.245768189653155" lon="10.757673419082106"><ele>452.0</ele><time>2026-04-26T15:33:29Z</time></trkpt><trkpt lat="43.24582815210738" lon="10.75754431862168"><ele>453.0</ele><time>2026-04-26T15:33:30Z</time></trkpt><trkpt lat="43.24588603115343" lon="10.757434974869188"><ele>454.0</ele><time>2026-04-26T15:33:31Z</time></trkpt><trkpt lat="43.24595617589863" lon="10.757313852680253"><ele>455.0</ele><time>2026-04-26T15:33:32Z</time></trkpt><trkpt lat="43.24602874948885" lon="10.757195671445475"><ele>454.99999999999994</ele><time>2026-04-26T15:33:33Z</time></trkpt><trkpt lat="43.24609620689296" lon="10.757107840943878"><ele>455.0</ele><time>2026-04-26T15:33:34Z</time></trkpt><trkpt lat="43.24616022973285" lon="10.75703916358543"><ele>455.0</ele><time>2026-04-26T15:33:35Z</time></trkpt><trkpt lat="43.2462181596803" lon="10.756991481210694"><ele>455.0</ele><time>2026-04-26T15:33:36Z</time></trkpt><trkpt lat="43.24627693660009" lon="10.756957041415074"><ele>454.99999999999994</ele><time>2026-04-26T15:33:37Z</time></trkpt><trkpt lat="43.24635717458118" lon="10.756925697302357"><ele>455.0</ele><time>2026-04-26T15:33:38Z</time></trkpt><trkpt lat="43.2464801139436" lon="10.756892798052608"><ele>456.75</ele><time>2026-04-26T15:33:39Z</time></trkpt><trkpt lat="43.246627724432734" lon="10.756831755752966"><ele>458.5</ele><time>2026-04-26T15:33:40Z</time></trkpt><trkpt lat="43.2467704447115" lon="10.756814816712561"><ele>460.25</ele><time>2026-04-26T15:33:41Z</time></trkpt><trkpt lat="43.24690081097624" lon="10.756777132903867"><ele>462.0</ele><time>2026-04-26T15:33:42Z</time></trkpt><trkpt lat="43.2470263362833" lon="10.75673604021335"><ele>462.0</ele><time>2026-04-26T15:33:43Z</time></trkpt><trkpt lat="43.2471308472456" lon="10.756678464022382"><ele>462.00000000000006</ele><time>2026-04-26T15:33:44Z</time></trkpt><trkpt lat="43.247207686122856" lon="10.756650004288462"><ele>462.00000000000006</ele><time>2026-04-26T15:33:45Z</time></trkpt><trkpt lat="43.24730525440094" lon="10.756555207025501"><ele>462.0</ele><time>2026-04-26T15:33:47Z</time></trkpt><trkpt lat="43.247317795302344" lon="10.756447649596842"><ele>462.0</ele><time>2026-04-26T15:33:48Z</time></trkpt><trkpt lat="43.247273718068016" lon="10.756324145675954"><ele>462.0</ele><time>2026-04-26T15:33:49Z</time></trkpt><trkpt lat="43.24719025277893" lon="10.756245286392634"><ele>462.00000000000006</ele><time>2026-04-26T15:33:50Z</time></trkpt><trkpt lat="43.247150326473374" lon="10.756135393408753"><ele>462.00000000000006</ele><time>2026-04-26T15:33:51Z</time></trkpt><trkpt lat="43.24710349434762" lon="10.756037153498523"><ele>462.0</ele><time>2026-04-26T15:33:52Z</time></trkpt><trkpt lat="43.2470879855236" lon="10.755895100765565"><ele>462.0</ele><time>2026-04-26T15:33:54Z</time></trkpt><trkpt lat="43.24717361888525" lon="10.755795496551212"><ele>460.8</ele><time>2026-04-26T15:33:56Z</time></trkpt><trkpt lat="43.24723301411077" lon="10.755747130931411"><ele>459.6</ele><time>2026-04-26T15:33:57Z</time></trkpt><trkpt lat="43.24730721100181" lon="10.755664253074421"><ele>458.40000000000003</ele><time>2026-04-26T15:33:58Z</time></trkpt><trkpt lat="43.24739487237081" lon="10.755536380944289"><ele>457.20000000000005</ele><time>2026-04-26T15:33:59Z</time></trkpt><trkpt lat="43.24751177165563" lon="10.755412177907523"><ele>456.0</ele><time>2026-04-26T15:34:00Z</time></trkpt><trkpt lat="43.247635746588585" lon="10.755337690517603"><ele>458.20000000000005</ele><time>2026-04-26T15:34:01Z</time></trkpt><trkpt lat="43.24773664765717" lon="10.755249175873445"><ele>460.40000000000003</ele><time>2026-04-26T15:34:02Z</time></trkpt><trkpt lat="43.24779705536836" lon="10.755142693960067"><ele>462.6</ele><time>2026-04-26T15:34:03Z</time></trkpt><trkpt lat="43.24785663818677" lon="10.755041610571011"><ele>464.8</ele><time>2026-04-26T15:34:04Z</time></trkpt><trkpt lat="43.24793562160569" lon="10.754898065711334"><ele>467.0</ele><time>2026-04-26T15:34:05Z</time></trkpt><trkpt lat="43.248033776263206" lon="10.7547485157384"><ele>467.0</ele><time>2026-04-26T15:34:06Z</time></trkpt><trkpt lat="43.248107408107366" lon="10.754612577683115"><ele>467.0</ele><time>2026-04-26T15:34:07Z</time></trkpt><trkpt lat="43.2481604069809" lon="10.754472138728108"><ele>467.0</ele><time>2026-04-26T15:34:08Z</time></trkpt><trkpt lat="43.24820901992901" lon="10.754305340392738"><ele>467.0</ele><time>2026-04-26T15:34:09Z</time></trkpt><trkpt lat="43.2482564532339" lon="10.754118355391816"><ele>467.75</ele><time>2026-04-26T15:34:10Z</time></trkpt><trkpt lat="43.248295068759745" lon="10.753940967111419"><ele>468.5</ele><time>2026-04-26T15:34:11Z</time></trkpt><trkpt lat="43.24832628615927" lon="10.753759194004191"><ele>469.25</ele><time>2026-04-26T15:34:12Z</time></trkpt><trkpt lat="43.2483574929848" lon="10.753575157917766"><ele>470.0</ele><time>2026-04-26T15:34:13Z</time></trkpt><trkpt lat="43.24839681850675" lon="10.753417360342041"><ele>472.75</ele><time>2026-04-26T15:34:14.001Z</time></trkpt><trkpt lat="43.24844132146549" lon="10.753261699650118"><ele>475.5</ele><time>2026-04-26T15:34:15.001Z</time></trkpt><trkpt lat="43.248481732492245" lon="10.753114276168898"><ele>478.25</ele><time>2026-04-26T15:34:16.001Z</time></trkpt><trkpt lat="43.24851671616032" lon="10.752971855127138"><ele>481.0</ele><time>2026-04-26T15:34:17.001Z</time></trkpt><trkpt lat="43.24854099798621" lon="10.752812974813843"><ele>483.0</ele><time>2026-04-26T15:34:18.001Z</time></trkpt><trkpt lat="43.24855008267937" lon="10.752634036740389"><ele>485.0</ele><time>2026-04-26T15:34:19.001Z</time></trkpt><trkpt lat="43.248575679285324" lon="10.75244616317766"><ele>487.0</ele><time>2026-04-26T15:34:20.001Z</time></trkpt><trkpt lat="43.24857904636627" lon="10.752274094489112"><ele>489.0</ele><time>2026-04-26T15:34:21.001Z</time></trkpt><trkpt lat="43.24856359576716" lon="10.752128394188093"><ele>489.0</ele><time>2026-04-26T15:34:22.001Z</time></trkpt><trkpt lat="43.248571470528155" lon="10.75198610891804"><ele>489.0</ele><time>2026-04-26T15:34:23.001Z</time></trkpt><trkpt lat="43.24856425659355" lon="10.751852725440498"><ele>489.0</ele><time>2026-04-26T15:34:24.001Z</time></trkpt><trkpt lat="43.24854360957563" lon="10.751706280129982"><ele>489.0</ele><time>2026-04-26T15:34:25.001Z</time></trkpt><trkpt lat="43.24851744460433" lon="10.751580965641724"><ele>489.0</ele><time>2026-04-26T15:34:26.001Z</time></trkpt><trkpt lat="43.24850584770288" lon="10.751468633338376"><ele>488.0</ele><time>2026-04-26T15:34:27.001Z</time></trkpt><trkpt lat="43.248509887906856" lon="10.75135459292088"><ele>487.0</ele><time>2026-04-26T15:34:28.001Z</time></trkpt><trkpt lat="43.24855729626901" lon="10.751220864315465"><ele>486.0</ele><time>2026-04-26T15:34:29.001Z</time></trkpt><trkpt lat="43.248592714653675" lon="10.751042242391367"><ele>485.0</ele><time>2026-04-26T15:34:30.001Z</time></trkpt><trkpt lat="43.24863260337764" lon="10.750835726432422"><ele>485.0</ele><time>2026-04-26T15:34:31.001Z</time></trkpt><trkpt lat="43.24866833369476" lon="10.750635478592601"><ele>485.0</ele><time>2026-04-26T15:34:32.001Z</time></trkpt><trkpt lat="43.248676713047125" lon="10.750448591523819"><ele>485.0</ele><time>2026-04-26T15:34:33.001Z</time></trkpt><trkpt lat="43.24868046759347" lon="10.750250225211875"><ele>485.0</ele><time>2026-04-26T15:34:34.001Z</time></trkpt><trkpt lat="43.24867536984534" lon="10.750049638424269"><ele>485.0</ele><time>2026-04-26T15:34:35.001Z</time></trkpt><trkpt lat="43.24868709325112" lon="10.749847368421413"><ele>485.0</ele><time>2026-04-26T15:34:36.001Z</time></trkpt><trkpt lat="43.24868940467233" lon="10.749670982824773"><ele>485.0</ele><time>2026-04-26T15:34:37.001Z</time></trkpt><trkpt lat="43.24868308529269" lon="10.749510723185644"><ele>485.0</ele><time>2026-04-26T15:34:38.001Z</time></trkpt><trkpt lat="43.24864803153583" lon="10.749341330465665"><ele>485.25</ele><time>2026-04-26T15:34:39.001Z</time></trkpt><trkpt lat="43.24862057053449" lon="10.74914308598002"><ele>485.5</ele><time>2026-04-26T15:34:40.001Z</time></trkpt><trkpt lat="43.24859183963834" lon="10.748948152055858"><ele>485.75</ele><time>2026-04-26T15:34:41.001Z</time></trkpt><trkpt lat="43.2485452612933" lon="10.74879145458998"><ele>486.0</ele><time>2026-04-26T15:34:42.001Z</time></trkpt><trkpt lat="43.248512671888676" lon="10.74865670248189"><ele>486.0</ele><time>2026-04-26T15:34:43.001Z</time></trkpt><trkpt lat="43.24847137363208" lon="10.74854624327033"><ele>486.0</ele><time>2026-04-26T15:34:44.001Z</time></trkpt><trkpt lat="43.24843210228745" lon="10.748447618488774"><ele>486.0</ele><time>2026-04-26T15:34:45.001Z</time></trkpt><trkpt lat="43.24840765507984" lon="10.748357281290875"><ele>486.0</ele><time>2026-04-26T15:34:46.001Z</time></trkpt><trkpt lat="43.24840869666878" lon="10.748270376549815"><ele>486.0</ele><time>2026-04-26T15:34:47.001Z</time></trkpt><trkpt lat="43.2484836254569" lon="10.748163659691357"><ele>486.0</ele><time>2026-04-26T15:34:49.001Z</time></trkpt><trkpt lat="43.24858906467045" lon="10.748217527216896"><ele>486.8</ele><time>2026-04-26T15:34:51.001Z</time></trkpt><trkpt lat="43.2486644281016" lon="10.748233976789464"><ele>487.6</ele><time>2026-04-26T15:34:52.001Z</time></trkpt><trkpt lat="43.248752388308986" lon="10.748315498741004"><ele>488.4</ele><time>2026-04-26T15:34:53.001Z</time></trkpt><trkpt lat="43.24885826383625" lon="10.74839835115457"><ele>489.2</ele><time>2026-04-26T15:34:54.001Z</time></trkpt><trkpt lat="43.248954067373006" lon="10.748476709883082"><ele>490.0</ele><time>2026-04-26T15:34:55.001Z</time></trkpt><trkpt lat="43.24903533814441" lon="10.74857422276978"><ele>491.0</ele><time>2026-04-26T15:34:56.001Z</time></trkpt><trkpt lat="43.24912713830766" lon="10.748668003352831"><ele>492.0</ele><time>2026-04-26T15:34:57.001Z</time></trkpt><trkpt lat="43.24923081823898" lon="10.74872555555504"><ele>493.0</ele><time>2026-04-26T15:34:58.001Z</time></trkpt><trkpt lat="43.24933706227349" lon="10.74875753113071"><ele>494.0</ele><time>2026-04-26T15:34:59.001Z</time></trkpt><trkpt lat="43.24943466708922" lon="10.748793835045518"><ele>495.0</ele><time>2026-04-26T15:35:00.001Z</time></trkpt><trkpt lat="43.249533341566604" lon="10.74883331818132"><ele>495.0</ele><time>2026-04-26T15:35:01Z</time></trkpt><trkpt lat="43.24963577260588" lon="10.748836206981155"><ele>495.0</ele><time>2026-04-26T15:35:02Z</time></trkpt><trkpt lat="43.24974725419356" lon="10.748808984962828"><ele>495.0</ele><time>2026-04-26T15:35:03Z</time></trkpt><trkpt lat="43.24986629439411" lon="10.74876821283874"><ele>495.0</ele><time>2026-04-26T15:35:04Z</time></trkpt><trkpt lat="43.2499882320888" lon="10.748733532636304"><ele>494.25</ele><time>2026-04-26T15:35:05Z</time></trkpt><trkpt lat="43.250095631260265" lon="10.748688883785501"><ele>493.5</ele><time>2026-04-26T15:35:06Z</time></trkpt><trkpt lat="43.25019800620967" lon="10.748629018955455"><ele>492.75</ele><time>2026-04-26T15:35:07Z</time></trkpt><trkpt lat="43.250291230230026" lon="10.748550589749717"><ele>492.0</ele><time>2026-04-26T15:35:08Z</time></trkpt><trkpt lat="43.250383881577356" lon="10.748438588926994"><ele>492.0</ele><time>2026-04-26T15:35:09Z</time></trkpt><trkpt lat="43.25049128448321" lon="10.748384152716254"><ele>492.00000000000006</ele><time>2026-04-26T15:35:10Z</time></trkpt><trkpt lat="43.25058260554668" lon="10.748320089368656"><ele>492.00000000000006</ele><time>2026-04-26T15:35:11Z</time></trkpt><trkpt lat="43.25065039064254" lon="10.748227638649375"><ele>492.0</ele><time>2026-04-26T15:35:12Z</time></trkpt><trkpt lat="43.25071342950511" lon="10.74815091626872"><ele>492.0</ele><time>2026-04-26T15:35:13Z</time></trkpt><trkpt lat="43.250773950841975" lon="10.748063170747288"><ele>492.0</ele><time>2026-04-26T15:35:14Z</time></trkpt><trkpt lat="43.25081713799829" lon="10.74790367169453"><ele>492.0</ele><time>2026-04-26T15:35:15Z</time></trkpt><trkpt lat="43.25084548469415" lon="10.74770896707652"><ele>492.0</ele><time>2026-04-26T15:35:16Z</time></trkpt><trkpt lat="43.25090903291782" lon="10.747536404810296"><ele>492.0</ele><time>2026-04-26T15:35:17Z</time></trkpt><trkpt lat="43.25099001149512" lon="10.747381098758922"><ele>492.0</ele><time>2026-04-26T15:35:18Z</time></trkpt><trkpt lat="43.251085872328105" lon="10.7472322761513"><ele>492.0</ele><time>2026-04-26T15:35:19Z</time></trkpt><trkpt lat="43.25119136869669" lon="10.747074502591948"><ele>492.0</ele><time>2026-04-26T15:35:20Z</time></trkpt><trkpt lat="43.251275780801755" lon="10.746938387119298"><ele>492.0</ele><time>2026-04-26T15:35:21Z</time></trkpt><trkpt lat="43.25135636956389" lon="10.74680464552261"><ele>492.40000000000003</ele><time>2026-04-26T15:35:22Z</time></trkpt><trkpt lat="43.25143337608567" lon="10.746665961877854"><ele>492.80000000000007</ele><time>2026-04-26T15:35:23Z</time></trkpt><trkpt lat="43.251485541106966" lon="10.746542786618505"><ele>493.2</ele><time>2026-04-26T15:35:24Z</time></trkpt><trkpt lat="43.25153367753227" lon="10.746432230043192"><ele>493.6</ele><time>2026-04-26T15:35:25Z</time></trkpt><trkpt lat="43.25158472612539" lon="10.746359431094005"><ele>494.0</ele><time>2026-04-26T15:35:26Z</time></trkpt><trkpt lat="43.25164368236208" lon="10.746312629708308"><ele>494.0</ele><time>2026-04-26T15:35:27Z</time></trkpt><trkpt lat="43.25175561168331" lon="10.746335676579793"><ele>494.0</ele><time>2026-04-26T15:35:29Z</time></trkpt><trkpt lat="43.25180967077641" lon="10.74640313528218"><ele>494.0</ele><time>2026-04-26T15:35:30Z</time></trkpt><trkpt lat="43.251853837784466" lon="10.746504500483505"><ele>494.0</ele><time>2026-04-26T15:35:31Z</time></trkpt><trkpt lat="43.25191911159602" lon="10.746629556489445"><ele>494.0</ele><time>2026-04-26T15:35:32Z</time></trkpt><trkpt lat="43.25200868371762" lon="10.746776767583697"><ele>494.79999999999995</ele><time>2026-04-26T15:35:33Z</time></trkpt><trkpt lat="43.25205412977805" lon="10.746921250249676"><ele>495.59999999999997</ele><time>2026-04-26T15:35:34Z</time></trkpt><trkpt lat="43.25212136738812" lon="10.747037327932423"><ele>496.4</ele><time>2026-04-26T15:35:35Z</time></trkpt><trkpt lat="43.25220982868775" lon="10.74712459554337"><ele>497.2</ele><time>2026-04-26T15:35:36Z</time></trkpt><trkpt lat="43.252312045618645" lon="10.747195329878657"><ele>498.0</ele><time>2026-04-26T15:35:37Z</time></trkpt><trkpt lat="43.252422367023044" lon="10.747247670326505"><ele>498.0</ele><time>2026-04-26T15:35:38Z</time></trkpt><trkpt lat="43.2525495163486" lon="10.747259742791805"><ele>497.99999999999994</ele><time>2026-04-26T15:35:39Z</time></trkpt><trkpt lat="43.25268109093919" lon="10.747219639624566"><ele>497.99999999999994</ele><time>2026-04-26T15:35:40Z</time></trkpt><trkpt lat="43.25278099958703" lon="10.74720505945147"><ele>498.0</ele><time>2026-04-26T15:35:41Z</time></trkpt><trkpt lat="43.25285906074681" lon="10.747190993344354"><ele>498.0</ele><time>2026-04-26T15:35:42Z</time></trkpt><trkpt lat="43.25294077520565" lon="10.747220596936584"><ele>498.0</ele><time>2026-04-26T15:35:44Z</time></trkpt><trkpt lat="43.252983844953654" lon="10.747392985537875"><ele>498.0</ele><time>2026-04-26T15:35:46Z</time></trkpt><trkpt lat="43.253017584345876" lon="10.747556858897319"><ele>498.0</ele><time>2026-04-26T15:35:47Z</time></trkpt><trkpt lat="43.2530598029791" lon="10.747730836129666"><ele>498.0</ele><time>2026-04-26T15:35:48Z</time></trkpt><trkpt lat="43.25309926702065" lon="10.747902185298026"><ele>495.2</ele><time>2026-04-26T15:35:49Z</time></trkpt><trkpt lat="43.253141254068325" lon="10.748026941603403"><ele>492.4</ele><time>2026-04-26T15:35:50Z</time></trkpt><trkpt lat="43.25319511599935" lon="10.748116416978444"><ele>489.59999999999997</ele><time>2026-04-26T15:35:51Z</time></trkpt><trkpt lat="43.25329251737846" lon="10.74817274250909"><ele>486.79999999999995</ele><time>2026-04-26T15:35:52.001Z</time></trkpt><trkpt lat="43.253391248580066" lon="10.748234946851928"><ele>484.0</ele><time>2026-04-26T15:35:53.001Z</time></trkpt><trkpt lat="43.25351579826989" lon="10.748296578811436"><ele>484.00000000000006</ele><time>2026-04-26T15:35:54.001Z</time></trkpt><trkpt lat="43.25361393803386" lon="10.74834597899244"><ele>484.0</ele><time>2026-04-26T15:35:55.001Z</time></trkpt><trkpt lat="43.25368288721747" lon="10.74839875397399"><ele>484.0</ele><time>2026-04-26T15:35:56.001Z</time></trkpt><trkpt lat="43.25372609633808" lon="10.748467260949308"><ele>484.0</ele><time>2026-04-26T15:35:57.001Z</time></trkpt><trkpt lat="43.253741224738505" lon="10.748565093052985"><ele>484.00000000000006</ele><time>2026-04-26T15:35:58.001Z</time></trkpt><trkpt lat="43.253749612094474" lon="10.748707676944633"><ele>484.0</ele><time>2026-04-26T15:35:59.001Z</time></trkpt><trkpt lat="43.25375264674829" lon="10.748900091718602"><ele>484.2</ele><time>2026-04-26T15:36:00.001Z</time></trkpt><trkpt lat="43.25378717207866" lon="10.74906182597535"><ele>484.4</ele><time>2026-04-26T15:36:01.001Z</time></trkpt><trkpt lat="43.253822158771165" lon="10.74920559561221"><ele>484.6</ele><time>2026-04-26T15:36:02.001Z</time></trkpt><trkpt lat="43.253847924299684" lon="10.749338414635076"><ele>484.8</ele><time>2026-04-26T15:36:03.001Z</time></trkpt><trkpt lat="43.2539201138958" lon="10.749427953569578"><ele>485.0</ele><time>2026-04-26T15:36:04.001Z</time></trkpt><trkpt lat="43.25399436316685" lon="10.749557888129702"><ele>485.2</ele><time>2026-04-26T15:36:05.001Z</time></trkpt><trkpt lat="43.25410888984726" lon="10.749691456511197"><ele>485.4</ele><time>2026-04-26T15:36:06.001Z</time></trkpt><trkpt lat="43.25420563552908" lon="10.749780286841775"><ele>485.6</ele><time>2026-04-26T15:36:07.001Z</time></trkpt><trkpt lat="43.25427605049073" lon="10.7498426156545"><ele>485.8</ele><time>2026-04-26T15:36:08.001Z</time></trkpt><trkpt lat="43.254361474230876" lon="10.749905983223783"><ele>486.0</ele><time>2026-04-26T15:36:09.001Z</time></trkpt><trkpt lat="43.25445316107575" lon="10.749953528964555"><ele>486.0</ele><time>2026-04-26T15:36:10.001Z</time></trkpt><trkpt lat="43.25456085222969" lon="10.74998029702185"><ele>486.0</ele><time>2026-04-26T15:36:11.001Z</time></trkpt><trkpt lat="43.25470724855514" lon="10.749956288073717"><ele>486.0</ele><time>2026-04-26T15:36:12.001Z</time></trkpt><trkpt lat="43.25485055843366" lon="10.749932373896275"><ele>486.0</ele><time>2026-04-26T15:36:13.001Z</time></trkpt><trkpt lat="43.254974910768695" lon="10.749994909896742"><ele>483.8</ele><time>2026-04-26T15:36:14.001Z</time></trkpt><trkpt lat="43.25508227467206" lon="10.750014218345525"><ele>481.6</ele><time>2026-04-26T15:36:15.001Z</time></trkpt><trkpt lat="43.25517627511656" lon="10.749967924047786"><ele>479.4</ele><time>2026-04-26T15:36:16.001Z</time></trkpt><trkpt lat="43.255283429748886" lon="10.749926247550073"><ele>477.2</ele><time>2026-04-26T15:36:17.001Z</time></trkpt><trkpt lat="43.2554035640136" lon="10.749897230138853"><ele>475.0</ele><time>2026-04-26T15:36:18.001Z</time></trkpt><trkpt lat="43.25547764451495" lon="10.749865134001473"><ele>475.00000000000006</ele><time>2026-04-26T15:36:19.001Z</time></trkpt><trkpt lat="43.25554801614237" lon="10.74985508074652"><ele>475.0</ele><time>2026-04-26T15:36:20.001Z</time></trkpt><trkpt lat="43.25560777430118" lon="10.74988757034805"><ele>475.0</ele><time>2026-04-26T15:36:21.001Z</time></trkpt><trkpt lat="43.25564043115992" lon="10.749976995022958"><ele>475.0</ele><time>2026-04-26T15:36:22.001Z</time></trkpt><trkpt lat="43.25569730493146" lon="10.750066871374562"><ele>475.00000000000006</ele><time>2026-04-26T15:36:23.001Z</time></trkpt><trkpt lat="43.255773141564745" lon="10.750206917536863"><ele>475.0</ele><time>2026-04-26T15:36:24.001Z</time></trkpt><trkpt lat="43.25584694982702" lon="10.750328010381173"><ele>474.2</ele><time>2026-04-26T15:36:25.001Z</time></trkpt><trkpt lat="43.25590840559162" lon="10.75042079362088"><ele>473.4</ele><time>2026-04-26T15:36:26.001Z</time></trkpt><trkpt lat="43.25599172250589" lon="10.750489936608357"><ele>472.6</ele><time>2026-04-26T15:36:27.001Z</time></trkpt><trkpt lat="43.25612282558339" lon="10.750472515034856"><ele>471.8</ele><time>2026-04-26T15:36:28.001Z</time></trkpt><trkpt lat="43.2562258432709" lon="10.75051240058878"><ele>471.0</ele><time>2026-04-26T15:36:29.001Z</time></trkpt><trkpt lat="43.2562946712673" lon="10.750570792102438"><ele>471.0</ele><time>2026-04-26T15:36:30.001Z</time></trkpt><trkpt lat="43.2563277543795" lon="10.750702186774546"><ele>471.0</ele><time>2026-04-26T15:36:31.001Z</time></trkpt><trkpt lat="43.25639370398755" lon="10.750853399167722"><ele>471.0</ele><time>2026-04-26T15:36:32.001Z</time></trkpt><trkpt lat="43.256493706394004" lon="10.751022804308318"><ele>471.0</ele><time>2026-04-26T15:36:33.001Z</time></trkpt><trkpt lat="43.25657643858855" lon="10.751212110511227"><ele>469.0</ele><time>2026-04-26T15:36:34.001Z</time></trkpt><trkpt lat="43.25667297305959" lon="10.751374512251248"><ele>467.0</ele><time>2026-04-26T15:36:35.001Z</time></trkpt><trkpt lat="43.25673947998912" lon="10.75152864997713"><ele>465.0</ele><time>2026-04-26T15:36:36.001Z</time></trkpt><trkpt lat="43.25681964641358" lon="10.751655949056264"><ele>463.0</ele><time>2026-04-26T15:36:37.001Z</time></trkpt><trkpt lat="43.25690806209716" lon="10.751753740018808"><ele>463.0</ele><time>2026-04-26T15:36:38.001Z</time></trkpt><trkpt lat="43.25698398743813" lon="10.751848258343438"><ele>463.0</ele><time>2026-04-26T15:36:39.001Z</time></trkpt><trkpt lat="43.25709139349519" lon="10.751945405969794"><ele>463.0</ele><time>2026-04-26T15:36:40.001Z</time></trkpt><trkpt lat="43.257218980475876" lon="10.752076108516865"><ele>463.0</ele><time>2026-04-26T15:36:41.001Z</time></trkpt><trkpt lat="43.257358151117735" lon="10.752187432000843"><ele>462.59999999999997</ele><time>2026-04-26T15:36:42.001Z</time></trkpt><trkpt lat="43.25748819957869" lon="10.752283052508977"><ele>462.19999999999993</ele><time>2026-04-26T15:36:43.001Z</time></trkpt><trkpt lat="43.25759705073735" lon="10.752329382934176"><ele>461.8</ele><time>2026-04-26T15:36:44.001Z</time></trkpt><trkpt lat="43.25767461860938" lon="10.75239561056112"><ele>461.4</ele><time>2026-04-26T15:36:45.001Z</time></trkpt><trkpt lat="43.25776028650042" lon="10.752426368348054"><ele>461.0</ele><time>2026-04-26T15:36:46.001Z</time></trkpt><trkpt lat="43.25785911688347" lon="10.7524427028854"><ele>461.0</ele><time>2026-04-26T15:36:47.001Z</time></trkpt><trkpt lat="43.257987226569945" lon="10.752452794532367"><ele>461.0</ele><time>2026-04-26T15:36:48.001Z</time></trkpt><trkpt lat="43.258150579194776" lon="10.752440829147522"><ele>461.0</ele><time>2026-04-26T15:36:49.001Z</time></trkpt><trkpt lat="43.258312694672206" lon="10.75240528934952"><ele>462.25</ele><time>2026-04-26T15:36:50.001Z</time></trkpt><trkpt lat="43.25843809486719" lon="10.75234510158662"><ele>463.5</ele><time>2026-04-26T15:36:51.001Z</time></trkpt><trkpt lat="43.258560116630164" lon="10.752271082248315"><ele>464.75</ele><time>2026-04-26T15:36:52.002Z</time></trkpt><trkpt lat="43.25870172674364" lon="10.752174749977954"><ele>466.0</ele><time>2026-04-26T15:36:53.002Z</time></trkpt><trkpt lat="43.258838024440855" lon="10.752094280593212"><ele>466.0</ele><time>2026-04-26T15:36:54.002Z</time></trkpt><trkpt lat="43.25894127919501" lon="10.752023029859167"><ele>466.0</ele><time>2026-04-26T15:36:55.002Z</time></trkpt><trkpt lat="43.25903264269674" lon="10.75198830411052"><ele>466.0</ele><time>2026-04-26T15:36:56.002Z</time></trkpt><trkpt lat="43.25912616726581" lon="10.751975517869774"><ele>466.0</ele><time>2026-04-26T15:36:57.002Z</time></trkpt><trkpt lat="43.259243346136905" lon="10.752001282653293"><ele>466.0</ele><time>2026-04-26T15:36:58.002Z</time></trkpt><trkpt lat="43.2593806317821" lon="10.752040613033602"><ele>465.83333333333337</ele><time>2026-04-26T15:36:59.002Z</time></trkpt><trkpt lat="43.25949420190072" lon="10.752051996103232"><ele>465.6666666666667</ele><time>2026-04-26T15:37:00.002Z</time></trkpt><trkpt lat="43.259578006228566" lon="10.752078690637502"><ele>465.5</ele><time>2026-04-26T15:37:01.002Z</time></trkpt><trkpt lat="43.25962848722887" lon="10.752148909538807"><ele>465.33333333333337</ele><time>2026-04-26T15:37:02.002Z</time></trkpt><trkpt lat="43.25968215568876" lon="10.752196083374125"><ele>465.1666666666667</ele><time>2026-04-26T15:37:03.002Z</time></trkpt><trkpt lat="43.259702288193495" lon="10.752298069738869"><ele>465.0</ele><time>2026-04-26T15:37:04.002Z</time></trkpt><trkpt lat="43.259666528568125" lon="10.752427763271653"><ele>465.0</ele><time>2026-04-26T15:37:05.002Z</time></trkpt><trkpt lat="43.25963553608896" lon="10.752567901153311"><ele>465.0</ele><time>2026-04-26T15:37:06.002Z</time></trkpt><trkpt lat="43.25958538262471" lon="10.752716365708897"><ele>465.0</ele><time>2026-04-26T15:37:07Z</time></trkpt><trkpt lat="43.25950607069343" lon="10.75287228304482"><ele>465.0</ele><time>2026-04-26T15:37:08Z</time></trkpt><trkpt lat="43.25948196352028" lon="10.75303702644001"><ele>463.3333333333333</ele><time>2026-04-26T15:37:09Z</time></trkpt><trkpt lat="43.25945890948943" lon="10.753138232930652"><ele>461.66666666666663</ele><time>2026-04-26T15:37:10Z</time></trkpt><trkpt lat="43.259451486067945" lon="10.753248539216152"><ele>460.0</ele><time>2026-04-26T15:37:11Z</time></trkpt><trkpt lat="43.25947237945231" lon="10.75336169503475"><ele>458.3333333333333</ele><time>2026-04-26T15:37:12Z</time></trkpt><trkpt lat="43.259513595783794" lon="10.753462010305872"><ele>456.66666666666663</ele><time>2026-04-26T15:37:13Z</time></trkpt><trkpt lat="43.259583152749435" lon="10.753569867373347"><ele>455.0</ele><time>2026-04-26T15:37:14Z</time></trkpt><trkpt lat="43.259686809725444" lon="10.753701369650866"><ele>455.75</ele><time>2026-04-26T15:37:15Z</time></trkpt><trkpt lat="43.25979842742593" lon="10.753843905640242"><ele>456.5</ele><time>2026-04-26T15:37:16Z</time></trkpt><trkpt lat="43.259889339411295" lon="10.753953013951973"><ele>457.25</ele><time>2026-04-26T15:37:17Z</time></trkpt><trkpt lat="43.259977596063486" lon="10.754020846374653"><ele>458.0</ele><time>2026-04-26T15:37:18Z</time></trkpt><trkpt lat="43.26009824334675" lon="10.754097840044677"><ele>458.0</ele><time>2026-04-26T15:37:19Z</time></trkpt><trkpt lat="43.260243165254685" lon="10.754171865080313"><ele>458.0</ele><time>2026-04-26T15:37:20Z</time></trkpt><trkpt lat="43.260360284451046" lon="10.754212753871942"><ele>458.0</ele><time>2026-04-26T15:37:21Z</time></trkpt><trkpt lat="43.26048066768474" lon="10.754214384541998"><ele>458.0</ele><time>2026-04-26T15:37:22Z</time></trkpt><trkpt lat="43.260600061384366" lon="10.754183342580353"><ele>458.0</ele><time>2026-04-26T15:37:23Z</time></trkpt><trkpt lat="43.26072445768547" lon="10.754128137949495"><ele>457.99999999999994</ele><time>2026-04-26T15:37:24Z</time></trkpt><trkpt lat="43.26081970742602" lon="10.75403865924401"><ele>457.99999999999994</ele><time>2026-04-26T15:37:25Z</time></trkpt><trkpt lat="43.26089968651431" lon="10.753976343106133"><ele>458.0</ele><time>2026-04-26T15:37:26Z</time></trkpt><trkpt lat="43.26095197885219" lon="10.753912666268244"><ele>458.0</ele><time>2026-04-26T15:37:27Z</time></trkpt><trkpt lat="43.26098148556652" lon="10.753812319291331"><ele>458.0</ele><time>2026-04-26T15:37:28Z</time></trkpt><trkpt lat="43.261014089319715" lon="10.753688571948038"><ele>457.99999999999994</ele><time>2026-04-26T15:37:29Z</time></trkpt><trkpt lat="43.26106109561458" lon="10.753599114695083"><ele>457.99999999999994</ele><time>2026-04-26T15:37:30Z</time></trkpt><trkpt lat="43.261142012726815" lon="10.75358463829403"><ele>458.0</ele><time>2026-04-26T15:37:31Z</time></trkpt><trkpt lat="43.26124391211597" lon="10.753611810171149"><ele>458.0</ele><time>2026-04-26T15:37:32Z</time></trkpt><trkpt lat="43.261329270305275" lon="10.75355757046064"><ele>460.0</ele><time>2026-04-26T15:37:33Z</time></trkpt><trkpt lat="43.26140782828809" lon="10.753492890305443"><ele>462.0</ele><time>2026-04-26T15:37:34Z</time></trkpt><trkpt lat="43.26149526903391" lon="10.753396569695644"><ele>464.0</ele><time>2026-04-26T15:37:35Z</time></trkpt><trkpt lat="43.261596822965046" lon="10.753258354120582"><ele>466.0</ele><time>2026-04-26T15:37:36Z</time></trkpt><trkpt lat="43.26168642252021" lon="10.753135008121205"><ele>466.00000000000006</ele><time>2026-04-26T15:37:37Z</time></trkpt><trkpt lat="43.26176506580775" lon="10.753110264014827"><ele>466.0</ele><time>2026-04-26T15:37:38Z</time></trkpt><trkpt lat="43.26183403097965" lon="10.75308257193114"><ele>466.0</ele><time>2026-04-26T15:37:39Z</time></trkpt><trkpt lat="43.261901678788284" lon="10.753074135563537"><ele>466.0</ele><time>2026-04-26T15:37:40Z</time></trkpt><trkpt lat="43.261972721228126" lon="10.753089729843062"><ele>466.00000000000006</ele><time>2026-04-26T15:37:41Z</time></trkpt><trkpt lat="43.26205415092801" lon="10.753162448381321"><ele>466.0</ele><time>2026-04-26T15:37:42Z</time></trkpt><trkpt lat="43.26217716620134" lon="10.753225996161627"><ele>466.00000000000006</ele><time>2026-04-26T15:37:43Z</time></trkpt><trkpt lat="43.26224584180607" lon="10.753303091754487"><ele>466.0</ele><time>2026-04-26T15:37:44.001Z</time></trkpt><trkpt lat="43.262317665682566" lon="10.753319861747695"><ele>466.0</ele><time>2026-04-26T15:37:45.001Z</time></trkpt><trkpt lat="43.262396468385084" lon="10.75332067362349"><ele>466.0</ele><time>2026-04-26T15:37:46.001Z</time></trkpt><trkpt lat="43.26247354989744" lon="10.753238854027392"><ele>466.00000000000006</ele><time>2026-04-26T15:37:47.001Z</time></trkpt><trkpt lat="43.262549704538664" lon="10.753191174592185"><ele>466.0</ele><time>2026-04-26T15:37:48.001Z</time></trkpt><trkpt lat="43.26262563957518" lon="10.753182598711144"><ele>464.8</ele><time>2026-04-26T15:37:49.001Z</time></trkpt><trkpt lat="43.262701076272876" lon="10.753222477315765"><ele>463.6</ele><time>2026-04-26T15:37:50.001Z</time></trkpt><trkpt lat="43.26278535727118" lon="10.753305082077103"><ele>462.4</ele><time>2026-04-26T15:37:51.001Z</time></trkpt><trkpt lat="43.26288496145352" lon="10.753397991833967"><ele>461.2</ele><time>2026-04-26T15:37:52.001Z</time></trkpt><trkpt lat="43.26297709168847" lon="10.75350146467952"><ele>460.0</ele><time>2026-04-26T15:37:53.001Z</time></trkpt><trkpt lat="43.26311890053016" lon="10.753568398298112"><ele>457.2</ele><time>2026-04-26T15:37:54.001Z</time></trkpt><trkpt lat="43.263270340603505" lon="10.75358912617126"><ele>454.4</ele><time>2026-04-26T15:37:55.001Z</time></trkpt><trkpt lat="43.26338605888135" lon="10.753595302741756"><ele>451.6</ele><time>2026-04-26T15:37:56.001Z</time></trkpt><trkpt lat="43.26348282036437" lon="10.753599316960672"><ele>448.8</ele><time>2026-04-26T15:37:57.001Z</time></trkpt><trkpt lat="43.26356051801632" lon="10.753635801937278"><ele>446.0</ele><time>2026-04-26T15:37:58.001Z</time></trkpt><trkpt lat="43.26363018345622" lon="10.75364285133221"><ele>446.0</ele><time>2026-04-26T15:37:59.001Z</time></trkpt><trkpt lat="43.26365544684512" lon="10.75390636730886"><ele>446.0</ele><time>2026-04-26T15:38:00.001Z</time></trkpt><trkpt lat="43.26369113147527" lon="10.754066448735257"><ele>446.0</ele><time>2026-04-26T15:38:01.001Z</time></trkpt><trkpt lat="43.26374161620524" lon="10.754267808598497"><ele>447.6</ele><time>2026-04-26T15:38:02.001Z</time></trkpt><trkpt lat="43.263812404819056" lon="10.754432117803308"><ele>449.20000000000005</ele><time>2026-04-26T15:38:03.001Z</time></trkpt><trkpt lat="43.26386692331209" lon="10.75457143917293"><ele>450.79999999999995</ele><time>2026-04-26T15:38:04.001Z</time></trkpt><trkpt lat="43.263927963707836" lon="10.75468273757049"><ele>452.4</ele><time>2026-04-26T15:38:05.001Z</time></trkpt><trkpt lat="43.26399253250847" lon="10.754774306347914"><ele>454.0</ele><time>2026-04-26T15:38:06.001Z</time></trkpt><trkpt lat="43.26407802954419" lon="10.7548270562581"><ele>454.0</ele><time>2026-04-26T15:38:07.001Z</time></trkpt><trkpt lat="43.264175510081486" lon="10.754894267306245"><ele>454.0</ele><time>2026-04-26T15:38:08.001Z</time></trkpt><trkpt lat="43.26431916679008" lon="10.754936866105055"><ele>454.0</ele><time>2026-04-26T15:38:09.001Z</time></trkpt><trkpt lat="43.264475506155364" lon="10.754943520480023"><ele>454.0</ele><time>2026-04-26T15:38:10.001Z</time></trkpt><trkpt lat="43.264603468601244" lon="10.754958157688234"><ele>454.0</ele><time>2026-04-26T15:38:11.001Z</time></trkpt><trkpt lat="43.26471962347881" lon="10.755009205108253"><ele>454.0</ele><time>2026-04-26T15:38:12.001Z</time></trkpt><trkpt lat="43.264831667862566" lon="10.75508484923143"><ele>454.0</ele><time>2026-04-26T15:38:13.001Z</time></trkpt><trkpt lat="43.26494478172074" lon="10.755136261691122"><ele>454.0</ele><time>2026-04-26T15:38:14.001Z</time></trkpt><trkpt lat="43.2650645595367" lon="10.755139135847077"><ele>456.25</ele><time>2026-04-26T15:38:15.001Z</time></trkpt><trkpt lat="43.26516742630299" lon="10.755108446513841"><ele>458.5</ele><time>2026-04-26T15:38:16.001Z</time></trkpt><trkpt lat="43.2652761882813" lon="10.755102667410451"><ele>460.75</ele><time>2026-04-26T15:38:17.001Z</time></trkpt><trkpt lat="43.26539729877629" lon="10.755061889633122"><ele>463.0</ele><time>2026-04-26T15:38:18.001Z</time></trkpt><trkpt lat="43.26552568096258" lon="10.755016404290615"><ele>460.0</ele><time>2026-04-26T15:38:19.001Z</time></trkpt><trkpt lat="43.26566369253346" lon="10.754977463874528"><ele>457.0</ele><time>2026-04-26T15:38:20.001Z</time></trkpt><trkpt lat="43.2657969652718" lon="10.754997199951163"><ele>454.0</ele><time>2026-04-26T15:38:21.001Z</time></trkpt><trkpt lat="43.26590438004324" lon="10.754970483119711"><ele>451.0</ele><time>2026-04-26T15:38:22.001Z</time></trkpt><trkpt lat="43.26601712192924" lon="10.754933109826327"><ele>451.0</ele><time>2026-04-26T15:38:23.001Z</time></trkpt><trkpt lat="43.266139253641796" lon="10.754902270669312"><ele>451.0</ele><time>2026-04-26T15:38:24.001Z</time></trkpt><trkpt lat="43.26624462890614" lon="10.754894623183489"><ele>451.0</ele><time>2026-04-26T15:38:25.001Z</time></trkpt><trkpt lat="43.26634157898181" lon="10.754916399751318"><ele>451.0</ele><time>2026-04-26T15:38:26.001Z</time></trkpt><trkpt lat="43.2664462985774" lon="10.754966013320702"><ele>451.0</ele><time>2026-04-26T15:38:27.001Z</time></trkpt><trkpt lat="43.26655478914351" lon="10.755039637097392"><ele>448.0</ele><time>2026-04-26T15:38:28.001Z</time></trkpt><trkpt lat="43.26667020266016" lon="10.755150218157265"><ele>445.0</ele><time>2026-04-26T15:38:29.001Z</time></trkpt><trkpt lat="43.2668090238842" lon="10.75525947029954"><ele>442.0</ele><time>2026-04-26T15:38:30.001Z</time></trkpt><trkpt lat="43.266963041018876" lon="10.755344099376206"><ele>442.0</ele><time>2026-04-26T15:38:31.001Z</time></trkpt><trkpt lat="43.26708837136663" lon="10.755411256294375"><ele>442.0</ele><time>2026-04-26T15:38:32.001Z</time></trkpt><trkpt lat="43.26720378343311" lon="10.755453012123674"><ele>442.0</ele><time>2026-04-26T15:38:33.001Z</time></trkpt><trkpt lat="43.267307086447346" lon="10.755475238568781"><ele>442.0</ele><time>2026-04-26T15:38:34.001Z</time></trkpt><trkpt lat="43.26740799715617" lon="10.755467903272676"><ele>442.0</ele><time>2026-04-26T15:38:35.001Z</time></trkpt><trkpt lat="43.267516530921796" lon="10.75543452824394"><ele>442.0</ele><time>2026-04-26T15:38:36.001Z</time></trkpt><trkpt lat="43.267614493866304" lon="10.755374982164083"><ele>442.0</ele><time>2026-04-26T15:38:37.001Z</time></trkpt><trkpt lat="43.26770948674771" lon="10.755281529798506"><ele>442.0</ele><time>2026-04-26T15:38:38.001Z</time></trkpt><trkpt lat="43.267807648682506" lon="10.755169140151965"><ele>441.40000000000003</ele><time>2026-04-26T15:38:39.001Z</time></trkpt><trkpt lat="43.267889600082" lon="10.755071663106175"><ele>440.80000000000007</ele><time>2026-04-26T15:38:40.001Z</time></trkpt><trkpt lat="43.267964912008445" lon="10.75500487471526"><ele>440.2</ele><time>2026-04-26T15:38:41.001Z</time></trkpt><trkpt lat="43.268031172978205" lon="10.754989668583903"><ele>439.6</ele><time>2026-04-26T15:38:42.001Z</time></trkpt><trkpt lat="43.26813307638964" lon="10.755087420482718"><ele>439.0</ele><time>2026-04-26T15:38:44.001Z</time></trkpt><trkpt lat="43.26817514509818" lon="10.755197009616174"><ele>440.0</ele><time>2026-04-26T15:38:45.001Z</time></trkpt><trkpt lat="43.268224484796754" lon="10.7553138344517"><ele>441.0</ele><time>2026-04-26T15:38:46.001Z</time></trkpt><trkpt lat="43.268298558014834" lon="10.755459964938215"><ele>442.0</ele><time>2026-04-26T15:38:47.001Z</time></trkpt><trkpt lat="43.26841308990109" lon="10.755601343928179"><ele>443.0</ele><time>2026-04-26T15:38:48.001Z</time></trkpt><trkpt lat="43.26852698772658" lon="10.755741620305951"><ele>443.0</ele><time>2026-04-26T15:38:49.002Z</time></trkpt><trkpt lat="43.268678502832536" lon="10.755903247319647"><ele>443.0</ele><time>2026-04-26T15:38:50.002Z</time></trkpt><trkpt lat="43.26881434308607" lon="10.756084915978704"><ele>443.0</ele><time>2026-04-26T15:38:51.002Z</time></trkpt><trkpt lat="43.26893945310288" lon="10.75622497507962"><ele>442.0</ele><time>2026-04-26T15:38:52.002Z</time></trkpt><trkpt lat="43.2690556330601" lon="10.756351938779853"><ele>441.0</ele><time>2026-04-26T15:38:53.002Z</time></trkpt><trkpt lat="43.269187221793565" lon="10.756463819225377"><ele>440.0</ele><time>2026-04-26T15:38:54.002Z</time></trkpt><trkpt lat="43.269325182711604" lon="10.756569982556398"><ele>440.0</ele><time>2026-04-26T15:38:55.002Z</time></trkpt><trkpt lat="43.26946154980761" lon="10.756677469454736"><ele>440.0</ele><time>2026-04-26T15:38:56.002Z</time></trkpt><trkpt lat="43.26957632058141" lon="10.756754028642973"><ele>440.0</ele><time>2026-04-26T15:38:57.002Z</time></trkpt><trkpt lat="43.269685127706424" lon="10.756791565015373"><ele>440.0</ele><time>2026-04-26T15:38:58.002Z</time></trkpt><trkpt lat="43.26977475910193" lon="10.756822744938223"><ele>440.25</ele><time>2026-04-26T15:38:59.002Z</time></trkpt><trkpt lat="43.26987969945649" lon="10.756838349015082"><ele>440.5</ele><time>2026-04-26T15:39:00.002Z</time></trkpt><trkpt lat="43.27002797806295" lon="10.75685051922827"><ele>440.75</ele><time>2026-04-26T15:39:01.002Z</time></trkpt><trkpt lat="43.2701723051301" lon="10.756868772138072"><ele>441.0</ele><time>2026-04-26T15:39:02.002Z</time></trkpt><trkpt lat="43.27029106507382" lon="10.756908835396008"><ele>441.0</ele><time>2026-04-26T15:39:03.002Z</time></trkpt><trkpt lat="43.27039534313009" lon="10.75694629280896"><ele>441.0</ele><time>2026-04-26T15:39:04.002Z</time></trkpt><trkpt lat="43.270490534509264" lon="10.756994578532154"><ele>441.0</ele><time>2026-04-26T15:39:05.002Z</time></trkpt><trkpt lat="43.27060014017585" lon="10.75704036096005"><ele>441.0</ele><time>2026-04-26T15:39:06.002Z</time></trkpt><trkpt lat="43.27068178425158" lon="10.757106434731536"><ele>441.0</ele><time>2026-04-26T15:39:07.002Z</time></trkpt><trkpt lat="43.27074888386611" lon="10.75718176288085"><ele>443.0</ele><time>2026-04-26T15:39:08.002Z</time></trkpt><trkpt lat="43.27078699643285" lon="10.757269760578204"><ele>445.0</ele><time>2026-04-26T15:39:09.002Z</time></trkpt><trkpt lat="43.27080614666636" lon="10.75736583004024"><ele>447.0</ele><time>2026-04-26T15:39:10.002Z</time></trkpt><trkpt lat="43.27077478235691" lon="10.757460549159566"><ele>449.0</ele><time>2026-04-26T15:39:11.002Z</time></trkpt><trkpt lat="43.27076483543582" lon="10.757580922646273"><ele>451.0</ele><time>2026-04-26T15:39:12.002Z</time></trkpt><trkpt lat="43.27076032814013" lon="10.757718592864586"><ele>453.0</ele><time>2026-04-26T15:39:13.001Z</time></trkpt><trkpt lat="43.2707571195572" lon="10.757836467009186"><ele>453.59999999999997</ele><time>2026-04-26T15:39:14.001Z</time></trkpt><trkpt lat="43.27078710368247" lon="10.757944809486144"><ele>454.19999999999993</ele><time>2026-04-26T15:39:15.001Z</time></trkpt><trkpt lat="43.27083388203094" lon="10.758061674100535"><ele>454.8</ele><time>2026-04-26T15:39:16.001Z</time></trkpt><trkpt lat="43.27089622256588" lon="10.758190392200037"><ele>455.4</ele><time>2026-04-26T15:39:17.001Z</time></trkpt><trkpt lat="43.27094338015861" lon="10.758300326997432"><ele>456.0</ele><time>2026-04-26T15:39:18.001Z</time></trkpt><trkpt lat="43.27094214528175" lon="10.758401337216512"><ele>456.0</ele><time>2026-04-26T15:39:19.001Z</time></trkpt><trkpt lat="43.27093197737547" lon="10.758497035736495"><ele>456.0</ele><time>2026-04-26T15:39:20.001Z</time></trkpt><trkpt lat="43.270904377215295" lon="10.758614952135346"><ele>456.0</ele><time>2026-04-26T15:39:21.001Z</time></trkpt><trkpt lat="43.27088100306329" lon="10.758779001818379"><ele>456.0</ele><time>2026-04-26T15:39:22.001Z</time></trkpt><trkpt lat="43.270852475915426" lon="10.758945739641895"><ele>456.0</ele><time>2026-04-26T15:39:23.001Z</time></trkpt><trkpt lat="43.27082144114292" lon="10.7590729505022"><ele>456.6666666666667</ele><time>2026-04-26T15:39:24.001Z</time></trkpt><trkpt lat="43.27077599347522" lon="10.75918341330875"><ele>457.33333333333337</ele><time>2026-04-26T15:39:25.001Z</time></trkpt><trkpt lat="43.27075542055909" lon="10.759300881360748"><ele>458.0</ele><time>2026-04-26T15:39:26.001Z</time></trkpt><trkpt lat="43.27074080527359" lon="10.759400352298131"><ele>458.6666666666667</ele><time>2026-04-26T15:39:27.001Z</time></trkpt><trkpt lat="43.27073537818559" lon="10.759490103002836"><ele>459.33333333333337</ele><time>2026-04-26T15:39:28.001Z</time></trkpt><trkpt lat="43.27078829005168" lon="10.75958549405917"><ele>460.0</ele><time>2026-04-26T15:39:29.001Z</time></trkpt><trkpt lat="43.2708243268893" lon="10.759692703710929"><ele>460.2</ele><time>2026-04-26T15:39:30.001Z</time></trkpt><trkpt lat="43.27083858319005" lon="10.75979523554298"><ele>460.4</ele><time>2026-04-26T15:39:31.001Z</time></trkpt><trkpt lat="43.27082699248854" lon="10.759897915884016"><ele>460.6</ele><time>2026-04-26T15:39:32.001Z</time></trkpt><trkpt lat="43.270816722894395" lon="10.76000176311209"><ele>460.8</ele><time>2026-04-26T15:39:33.001Z</time></trkpt><trkpt lat="43.270796167294584" lon="10.760142938549896"><ele>461.0</ele><time>2026-04-26T15:39:34.001Z</time></trkpt><trkpt lat="43.270779170075336" lon="10.760319887539943"><ele>462.5</ele><time>2026-04-26T15:39:35.001Z</time></trkpt><trkpt lat="43.27078557673063" lon="10.760529304184253"><ele>464.0</ele><time>2026-04-26T15:39:36.001Z</time></trkpt><trkpt lat="43.270774955994405" lon="10.760711904402745"><ele>465.5</ele><time>2026-04-26T15:39:37.001Z</time></trkpt><trkpt lat="43.270782679860574" lon="10.76087121896176"><ele>467.0</ele><time>2026-04-26T15:39:38.001Z</time></trkpt><trkpt lat="43.27077367133584" lon="10.761001799427442"><ele>465.99999999999994</ele><time>2026-04-26T15:39:39.001Z</time></trkpt><trkpt lat="43.270771397737754" lon="10.76109566164032"><ele>465.0</ele><time>2026-04-26T15:39:40.001Z</time></trkpt><trkpt lat="43.270846430153085" lon="10.761223151617259"><ele>464.0</ele><time>2026-04-26T15:39:42.001Z</time></trkpt><trkpt lat="43.27092024227085" lon="10.761267070022715"><ele>463.0</ele><time>2026-04-26T15:39:43.001Z</time></trkpt><trkpt lat="43.27100590869066" lon="10.761301421975617"><ele>461.99999999999994</ele><time>2026-04-26T15:39:44.001Z</time></trkpt><trkpt lat="43.271097050570496" lon="10.761314799086884"><ele>461.0</ele><time>2026-04-26T15:39:45.001Z</time></trkpt><trkpt lat="43.271196528403784" lon="10.76131040692723"><ele>461.0</ele><time>2026-04-26T15:39:46.001Z</time></trkpt><trkpt lat="43.27130016823857" lon="10.761331235415794"><ele>461.0</ele><time>2026-04-26T15:39:47.001Z</time></trkpt><trkpt lat="43.27140847668175" lon="10.76131486142493"><ele>461.0</ele><time>2026-04-26T15:39:48.001Z</time></trkpt><trkpt lat="43.27150153098505" lon="10.761285412874274"><ele>461.0</ele><time>2026-04-26T15:39:49.001Z</time></trkpt><trkpt lat="43.271577298042374" lon="10.761246362024965"><ele>461.0</ele><time>2026-04-26T15:39:50.001Z</time></trkpt><trkpt lat="43.271631112924865" lon="10.761187852322525"><ele>460.3333333333333</ele><time>2026-04-26T15:39:51.001Z</time></trkpt><trkpt lat="43.27166987293383" lon="10.761118736466242"><ele>459.66666666666663</ele><time>2026-04-26T15:39:52.001Z</time></trkpt><trkpt lat="43.27169901707783" lon="10.761026481935236"><ele>459.0</ele><time>2026-04-26T15:39:53.001Z</time></trkpt><trkpt lat="43.27172724892923" lon="10.760918034238921"><ele>458.33333333333337</ele><time>2026-04-26T15:39:54.001Z</time></trkpt><trkpt lat="43.27175240376973" lon="10.76077787273909"><ele>457.6666666666667</ele><time>2026-04-26T15:39:55.001Z</time></trkpt><trkpt lat="43.27176164769912" lon="10.760636252814937"><ele>457.0</ele><time>2026-04-26T15:39:56.001Z</time></trkpt><trkpt lat="43.27180408381739" lon="10.760485723528499"><ele>460.00000000000006</ele><time>2026-04-26T15:39:57.001Z</time></trkpt><trkpt lat="43.271854800345196" lon="10.760363706885398"><ele>463.0</ele><time>2026-04-26T15:39:58.001Z</time></trkpt><trkpt lat="43.271917582802956" lon="10.760282180458345"><ele>466.0</ele><time>2026-04-26T15:39:59.001Z</time></trkpt><trkpt lat="43.271966586664576" lon="10.760202014646403"><ele>469.0</ele><time>2026-04-26T15:40:00.001Z</time></trkpt><trkpt lat="43.27202843313196" lon="10.760142421553844"><ele>472.00000000000006</ele><time>2026-04-26T15:40:01.001Z</time></trkpt><trkpt lat="43.27209211101889" lon="10.760107107836976"><ele>475.0</ele><time>2026-04-26T15:40:02.001Z</time></trkpt><trkpt lat="43.27217426636607" lon="10.760072640413537"><ele>475.75</ele><time>2026-04-26T15:40:03.001Z</time></trkpt><trkpt lat="43.27226486643143" lon="10.760073586866616"><ele>476.5</ele><time>2026-04-26T15:40:04.001Z</time></trkpt><trkpt lat="43.27237079103979" lon="10.760102283107981"><ele>477.25</ele><time>2026-04-26T15:40:05.001Z</time></trkpt><trkpt lat="43.2724893221217" lon="10.760161054146755"><ele>478.0</ele><time>2026-04-26T15:40:06.001Z</time></trkpt><trkpt lat="43.272614549880586" lon="10.76019099290711"><ele>479.0</ele><time>2026-04-26T15:40:07.001Z</time></trkpt><trkpt lat="43.272717448207175" lon="10.760181510143301"><ele>479.99999999999994</ele><time>2026-04-26T15:40:08.001Z</time></trkpt><trkpt lat="43.2728090326325" lon="10.76016459985433"><ele>480.99999999999994</ele><time>2026-04-26T15:40:09.001Z</time></trkpt><trkpt lat="43.2728905529181" lon="10.760107352260485"><ele>482.0</ele><time>2026-04-26T15:40:10.001Z</time></trkpt><trkpt lat="43.272966093708874" lon="10.76003458091496"><ele>483.0</ele><time>2026-04-26T15:40:11.001Z</time></trkpt><trkpt lat="43.27306714238649" lon="10.759936796539012"><ele>485.5</ele><time>2026-04-26T15:40:12.001Z</time></trkpt><trkpt lat="43.2731623565093" lon="10.759811950626698"><ele>488.0</ele><time>2026-04-26T15:40:13.001Z</time></trkpt><trkpt lat="43.273259273395446" lon="10.759678287980735"><ele>490.5</ele><time>2026-04-26T15:40:14.001Z</time></trkpt><trkpt lat="43.27333789152184" lon="10.759570098416795"><ele>493.0</ele><time>2026-04-26T15:40:15.001Z</time></trkpt><trkpt lat="43.27340869281881" lon="10.759483773550476"><ele>493.00000000000006</ele><time>2026-04-26T15:40:16.001Z</time></trkpt><trkpt lat="43.273478388176365" lon="10.75940993618963"><ele>493.0</ele><time>2026-04-26T15:40:17.001Z</time></trkpt><trkpt lat="43.27356371756821" lon="10.759342206135424"><ele>493.0</ele><time>2026-04-26T15:40:19.001Z</time></trkpt><trkpt lat="43.27362722101069" lon="10.75929907330203"><ele>493.0</ele><time>2026-04-26T15:40:22.001Z</time></trkpt><trkpt lat="43.273695881667926" lon="10.759226497732186"><ele>493.00000000000006</ele><time>2026-04-26T15:40:37.001Z</time></trkpt><trkpt lat="43.273766814078016" lon="10.759189457023774"><ele>493.0</ele><time>2026-04-26T15:40:38.001Z</time></trkpt><trkpt lat="43.2738544331476" lon="10.759176440600083"><ele>493.4</ele><time>2026-04-26T15:40:39.001Z</time></trkpt><trkpt lat="43.27394457019143" lon="10.759152449975996"><ele>493.79999999999995</ele><time>2026-04-26T15:40:40.001Z</time></trkpt><trkpt lat="43.2740569367458" lon="10.759115777263624"><ele>494.2</ele><time>2026-04-26T15:40:41.001Z</time></trkpt><trkpt lat="43.27417240601763" lon="10.759048293826039"><ele>494.6</ele><time>2026-04-26T15:40:42.001Z</time></trkpt><trkpt lat="43.274281167539385" lon="10.75899614031217"><ele>495.0</ele><time>2026-04-26T15:40:43.002Z</time></trkpt><trkpt lat="43.27437650286547" lon="10.758953034395509"><ele>495.0</ele><time>2026-04-26T15:40:44.002Z</time></trkpt><trkpt lat="43.27446325716405" lon="10.758922493101224"><ele>495.0</ele><time>2026-04-26T15:40:45.002Z</time></trkpt><trkpt lat="43.274544930634335" lon="10.758908794833847"><ele>495.0</ele><time>2026-04-26T15:40:46.002Z</time></trkpt><trkpt lat="43.274635393514956" lon="10.758924518790996"><ele>495.0</ele><time>2026-04-26T15:40:47.002Z</time></trkpt><trkpt lat="43.27473953936916" lon="10.758990628970711"><ele>495.0</ele><time>2026-04-26T15:40:48.002Z</time></trkpt><trkpt lat="43.2748324798534" lon="10.758981379253418"><ele>494.6666666666667</ele><time>2026-04-26T15:40:49.002Z</time></trkpt><trkpt lat="43.274897145783946" lon="10.758967204833835"><ele>494.33333333333337</ele><time>2026-04-26T15:40:50.002Z</time></trkpt><trkpt lat="43.274955683733104" lon="10.758925968381998"><ele>494.0</ele><time>2026-04-26T15:40:51.002Z</time></trkpt><trkpt lat="43.27501490934774" lon="10.7588468236812"><ele>493.6666666666667</ele><time>2026-04-26T15:40:52.002Z</time></trkpt><trkpt lat="43.27507848740462" lon="10.758731543094628"><ele>493.33333333333337</ele><time>2026-04-26T15:40:53.002Z</time></trkpt><trkpt lat="43.27513752362699" lon="10.758635438159372"><ele>493.0</ele><time>2026-04-26T15:40:54.002Z</time></trkpt><trkpt lat="43.27519592276475" lon="10.758586041985202"><ele>493.0</ele><time>2026-04-26T15:40:55.002Z</time></trkpt><trkpt lat="43.27526093231356" lon="10.758579042656535"><ele>492.99999999999994</ele><time>2026-04-26T15:40:56.002Z</time></trkpt><trkpt lat="43.27533247056841" lon="10.758628334836754"><ele>492.99999999999994</ele><time>2026-04-26T15:40:57.002Z</time></trkpt><trkpt lat="43.27538840631956" lon="10.758695689114857"><ele>493.0</ele><time>2026-04-26T15:40:58.002Z</time></trkpt><trkpt lat="43.27548686719362" lon="10.758768855771763"><ele>493.0</ele><time>2026-04-26T15:40:59.002Z</time></trkpt><trkpt lat="43.27560750892166" lon="10.758810584508325"><ele>492.1666666666667</ele><time>2026-04-26T15:41:00.002Z</time></trkpt><trkpt lat="43.27570554410964" lon="10.758845378734982"><ele>491.33333333333337</ele><time>2026-04-26T15:41:01.002Z</time></trkpt><trkpt lat="43.27579400653229" lon="10.758852628326663"><ele>490.5</ele><time>2026-04-26T15:41:02.002Z</time></trkpt><trkpt lat="43.27586852204976" lon="10.758861108709663"><ele>489.66666666666663</ele><time>2026-04-26T15:41:03.002Z</time></trkpt><trkpt lat="43.27593200335048" lon="10.758819243062762"><ele>488.8333333333333</ele><time>2026-04-26T15:41:04.002Z</time></trkpt><trkpt lat="43.27598769284273" lon="10.758741104056424"><ele>488.0</ele><time>2026-04-26T15:41:05.002Z</time></trkpt><trkpt lat="43.27600481262077" lon="10.758617449248"><ele>488.25</ele><time>2026-04-26T15:41:06.002Z</time></trkpt><trkpt lat="43.27601982636489" lon="10.758491022474793"><ele>488.5</ele><time>2026-04-26T15:41:07.002Z</time></trkpt><trkpt lat="43.27604284622616" lon="10.758321483249286"><ele>488.75</ele><time>2026-04-26T15:41:08.002Z</time></trkpt><trkpt lat="43.27605353972336" lon="10.758130327833568"><ele>489.0</ele><time>2026-04-26T15:41:09.002Z</time></trkpt><trkpt lat="43.276066262254744" lon="10.757974360819711"><ele>489.0</ele><time>2026-04-26T15:41:10.002Z</time></trkpt><trkpt lat="43.276071897673305" lon="10.757830104803805"><ele>489.0</ele><time>2026-04-26T15:41:11.002Z</time></trkpt><trkpt lat="43.27608111296018" lon="10.757703890032847"><ele>489.0</ele><time>2026-04-26T15:41:12.002Z</time></trkpt><trkpt lat="43.27610858901875" lon="10.757582836040738"><ele>489.0</ele><time>2026-04-26T15:41:13.002Z</time></trkpt><trkpt lat="43.276179700770996" lon="10.757479369878821"><ele>489.0</ele><time>2026-04-26T15:41:14.002Z</time></trkpt><trkpt lat="43.276251543701726" lon="10.757337168219342"><ele>489.0</ele><time>2026-04-26T15:41:15.002Z</time></trkpt><trkpt lat="43.276311391511506" lon="10.757191188525784"><ele>489.0</ele><time>2026-04-26T15:41:16.002Z</time></trkpt><trkpt lat="43.27635639579706" lon="10.75708414468654"><ele>489.0</ele><time>2026-04-26T15:41:17.002Z</time></trkpt><trkpt lat="43.276408158911735" lon="10.757009608597972"><ele>489.0</ele><time>2026-04-26T15:41:18.002Z</time></trkpt><trkpt lat="43.27648016777166" lon="10.756957767992093"><ele>489.0</ele><time>2026-04-26T15:41:19.001Z</time></trkpt><trkpt lat="43.276579178000524" lon="10.756983783352325"><ele>487.75</ele><time>2026-04-26T15:41:20.001Z</time></trkpt><trkpt lat="43.276696107956006" lon="10.756984171132297"><ele>486.5</ele><time>2026-04-26T15:41:21.001Z</time></trkpt><trkpt lat="43.27683941934713" lon="10.756968999914909"><ele>485.25</ele><time>2026-04-26T15:41:22.001Z</time></trkpt><trkpt lat="43.27698570460274" lon="10.756904159736637"><ele>484.0</ele><time>2026-04-26T15:41:23.001Z</time></trkpt><trkpt lat="43.27714668242985" lon="10.75683977080413"><ele>481.75</ele><time>2026-04-26T15:41:24.001Z</time></trkpt><trkpt lat="43.277295715556136" lon="10.75677489410445"><ele>479.5</ele><time>2026-04-26T15:41:25.001Z</time></trkpt><trkpt lat="43.27742230615463" lon="10.756747011215602"><ele>477.25</ele><time>2026-04-26T15:41:26.001Z</time></trkpt><trkpt lat="43.27752005034254" lon="10.756696301927597"><ele>475.0</ele><time>2026-04-26T15:41:27.001Z</time></trkpt><trkpt lat="43.277601277595835" lon="10.756610286187481"><ele>475.0</ele><time>2026-04-26T15:41:28.001Z</time></trkpt><trkpt lat="43.277684924259816" lon="10.756509099964376"><ele>475.0</ele><time>2026-04-26T15:41:29.001Z</time></trkpt><trkpt lat="43.27776206407542" lon="10.756376189909734"><ele>475.0</ele><time>2026-04-26T15:41:30.001Z</time></trkpt><trkpt lat="43.277835989471356" lon="10.756231302907697"><ele>475.0</ele><time>2026-04-26T15:41:31.001Z</time></trkpt><trkpt lat="43.277905623761" lon="10.756073031402307"><ele>475.33333333333337</ele><time>2026-04-26T15:41:32.001Z</time></trkpt><trkpt lat="43.27796153943328" lon="10.755914081701057"><ele>475.6666666666667</ele><time>2026-04-26T15:41:33.001Z</time></trkpt><trkpt lat="43.27800969154494" lon="10.755786612317115"><ele>476.0</ele><time>2026-04-26T15:41:34.001Z</time></trkpt><trkpt lat="43.278063169306364" lon="10.755714486500725"><ele>476.33333333333337</ele><time>2026-04-26T15:41:35.001Z</time></trkpt><trkpt lat="43.27811115718238" lon="10.755658291959614"><ele>476.6666666666667</ele><time>2026-04-26T15:41:36.001Z</time></trkpt><trkpt lat="43.27816235097428" lon="10.755601905436093"><ele>477.0</ele><time>2026-04-26T15:41:37.001Z</time></trkpt><trkpt lat="43.27824056838311" lon="10.755645243249806"><ele>475.0</ele><time>2026-04-26T15:41:38.001Z</time></trkpt><trkpt lat="43.278305122060914" lon="10.755667547053802"><ele>473.00000000000006</ele><time>2026-04-26T15:41:39.001Z</time></trkpt><trkpt lat="43.27835724640757" lon="10.755720350878486"><ele>471.00000000000006</ele><time>2026-04-26T15:41:40.001Z</time></trkpt><trkpt lat="43.27841268137941" lon="10.755805020246104"><ele>469.0</ele><time>2026-04-26T15:41:41.001Z</time></trkpt><trkpt lat="43.278471125814136" lon="10.75593161287747"><ele>467.0</ele><time>2026-04-26T15:41:42.001Z</time></trkpt><trkpt lat="43.278539812514765" lon="10.756106251779649"><ele>466.6</ele><time>2026-04-26T15:41:43.001Z</time></trkpt><trkpt lat="43.27861999867993" lon="10.756252834671125"><ele>466.20000000000005</ele><time>2026-04-26T15:41:44.001Z</time></trkpt><trkpt lat="43.27867010210692" lon="10.75637372897022"><ele>465.8</ele><time>2026-04-26T15:41:45.001Z</time></trkpt><trkpt lat="43.278714296771625" lon="10.75645628433043"><ele>465.4</ele><time>2026-04-26T15:41:46.001Z</time></trkpt><trkpt lat="43.27881302881459" lon="10.756553124302293"><ele>465.0</ele><time>2026-04-26T15:41:48.001Z</time></trkpt><trkpt lat="43.27888326025547" lon="10.756554843543883"><ele>464.2</ele><time>2026-04-26T15:41:49.001Z</time></trkpt><trkpt lat="43.278946909871735" lon="10.756519410636589"><ele>463.4</ele><time>2026-04-26T15:41:50.001Z</time></trkpt><trkpt lat="43.278997547308514" lon="10.756410726790078"><ele>462.6</ele><time>2026-04-26T15:41:51.001Z</time></trkpt><trkpt lat="43.279047645163814" lon="10.756278793351381"><ele>461.8</ele><time>2026-04-26T15:41:52.001Z</time></trkpt><trkpt lat="43.27908697331346" lon="10.756098315856583"><ele>461.0</ele><time>2026-04-26T15:41:53.001Z</time></trkpt><trkpt lat="43.27913580498251" lon="10.755945030062971"><ele>461.0</ele><time>2026-04-26T15:41:54.001Z</time></trkpt><trkpt lat="43.279184253204136" lon="10.755830577572643"><ele>461.0</ele><time>2026-04-26T15:41:55.001Z</time></trkpt><trkpt lat="43.27920431381585" lon="10.75571590499781"><ele>461.0</ele><time>2026-04-26T15:41:56.001Z</time></trkpt><trkpt lat="43.27917420945884" lon="10.755585304573962"><ele>461.0</ele><time>2026-04-26T15:41:57.001Z</time></trkpt><trkpt lat="43.27914244135989" lon="10.755443866788676"><ele>461.0</ele><time>2026-04-26T15:41:58.001Z</time></trkpt><trkpt lat="43.27914019134569" lon="10.755304698185473"><ele>460.49999999999994</ele><time>2026-04-26T15:41:59.001Z</time></trkpt><trkpt lat="43.279126610740654" lon="10.755175802474287"><ele>460.0</ele><time>2026-04-26T15:42:00.001Z</time></trkpt><trkpt lat="43.27912829042854" lon="10.755062817951153"><ele>459.5</ele><time>2026-04-26T15:42:01.001Z</time></trkpt><trkpt lat="43.27914838656015" lon="10.754974153798647"><ele>459.0</ele><time>2026-04-26T15:42:02.001Z</time></trkpt><trkpt lat="43.27918650873161" lon="10.7548997093523"><ele>458.49999999999994</ele><time>2026-04-26T15:42:03.001Z</time></trkpt><trkpt lat="43.279252383320284" lon="10.754836220345144"><ele>458.0</ele><time>2026-04-26T15:42:04.001Z</time></trkpt><trkpt lat="43.27934186882247" lon="10.754743747261479"><ele>458.0</ele><time>2026-04-26T15:42:05.001Z</time></trkpt><trkpt lat="43.27943004137796" lon="10.754640325582955"><ele>457.99999999999994</ele><time>2026-04-26T15:42:06.001Z</time></trkpt><trkpt lat="43.27949559245594" lon="10.7545434969673"><ele>457.99999999999994</ele><time>2026-04-26T15:42:07.001Z</time></trkpt><trkpt lat="43.27953119497642" lon="10.754421585605558"><ele>458.0</ele><time>2026-04-26T15:42:08.001Z</time></trkpt><trkpt lat="43.27956174356308" lon="10.754307587003014"><ele>458.0</ele><time>2026-04-26T15:42:09.001Z</time></trkpt><trkpt lat="43.27957643053625" lon="10.754177675288469"><ele>457.4</ele><time>2026-04-26T15:42:10.001Z</time></trkpt><trkpt lat="43.27959127039394" lon="10.754027324084232"><ele>456.79999999999995</ele><time>2026-04-26T15:42:11.001Z</time></trkpt><trkpt lat="43.27961116976707" lon="10.753869625189147"><ele>456.2</ele><time>2026-04-26T15:42:12.001Z</time></trkpt><trkpt lat="43.279655834631036" lon="10.753735393494374"><ele>455.6</ele><time>2026-04-26T15:42:13.001Z</time></trkpt><trkpt lat="43.2796901205143" lon="10.753615681106085"><ele>455.0</ele><time>2026-04-26T15:42:14.001Z</time></trkpt><trkpt lat="43.27970916984337" lon="10.753492673515543"><ele>455.66666666666663</ele><time>2026-04-26T15:42:15.001Z</time></trkpt><trkpt lat="43.27976086621948" lon="10.753392017097656"><ele>456.3333333333333</ele><time>2026-04-26T15:42:16.001Z</time></trkpt><trkpt lat="43.279791962932215" lon="10.753281772504769"><ele>457.0</ele><time>2026-04-26T15:42:17.001Z</time></trkpt><trkpt lat="43.27982135989381" lon="10.753172445721335"><ele>457.66666666666663</ele><time>2026-04-26T15:42:18.001Z</time></trkpt><trkpt lat="43.279839917520825" lon="10.753053816009345"><ele>458.3333333333333</ele><time>2026-04-26T15:42:19.001Z</time></trkpt><trkpt lat="43.27983581270413" lon="10.752927871806943"><ele>459.0</ele><time>2026-04-26T15:42:20.001Z</time></trkpt><trkpt lat="43.27985183754601" lon="10.752806178921968"><ele>457.8333333333333</ele><time>2026-04-26T15:42:21.001Z</time></trkpt><trkpt lat="43.27986863206065" lon="10.75268546075407"><ele>456.66666666666663</ele><time>2026-04-26T15:42:22.001Z</time></trkpt><trkpt lat="43.27991312363961" lon="10.75259872964817"><ele>455.5</ele><time>2026-04-26T15:42:23.001Z</time></trkpt><trkpt lat="43.27994463671584" lon="10.752515601927392"><ele>454.3333333333333</ele><time>2026-04-26T15:42:24.001Z</time></trkpt><trkpt lat="43.28000884727952" lon="10.752463292279103"><ele>453.16666666666663</ele><time>2026-04-26T15:42:25.001Z</time></trkpt><trkpt lat="43.28009809073614" lon="10.752443463337292"><ele>452.0</ele><time>2026-04-26T15:42:26.001Z</time></trkpt><trkpt lat="43.28020743008386" lon="10.752408137808008"><ele>452.0</ele><time>2026-04-26T15:42:27.001Z</time></trkpt><trkpt lat="43.28032380370248" lon="10.752363952278616"><ele>452.0</ele><time>2026-04-26T15:42:28.001Z</time></trkpt><trkpt lat="43.28043565263518" lon="10.75232300638217"><ele>452.0</ele><time>2026-04-26T15:42:29.001Z</time></trkpt><trkpt lat="43.28054711605308" lon="10.752274733580627"><ele>452.0</ele><time>2026-04-26T15:42:30.001Z</time></trkpt><trkpt lat="43.28065340115753" lon="10.752231587751396"><ele>451.8</ele><time>2026-04-26T15:42:31.001Z</time></trkpt><trkpt lat="43.28075781126679" lon="10.752203985564336"><ele>451.6</ele><time>2026-04-26T15:42:32.001Z</time></trkpt><trkpt lat="43.28085929306048" lon="10.75218701590452"><ele>451.40000000000003</ele><time>2026-04-26T15:42:33.001Z</time></trkpt><trkpt lat="43.2809636101358" lon="10.752172930596576"><ele>451.20000000000005</ele><time>2026-04-26T15:42:34.001Z</time></trkpt><trkpt lat="43.28106178194325" lon="10.752165207606808"><ele>451.0</ele><time>2026-04-26T15:42:35.001Z</time></trkpt><trkpt lat="43.28117006565699" lon="10.752149897130518"><ele>451.00000000000006</ele><time>2026-04-26T15:42:36.001Z</time></trkpt><trkpt lat="43.28128088076414" lon="10.752140703060554"><ele>451.0</ele><time>2026-04-26T15:42:37.001Z</time></trkpt><trkpt lat="43.28137511555232" lon="10.75211973636477"><ele>451.0</ele><time>2026-04-26T15:42:38.001Z</time></trkpt><trkpt lat="43.281454513363244" lon="10.752108311567671"><ele>451.0</ele><time>2026-04-26T15:42:39.001Z</time></trkpt><trkpt lat="43.281526186203344" lon="10.752068113543542"><ele>451.00000000000006</ele><time>2026-04-26T15:42:40.001Z</time></trkpt><trkpt lat="43.28158345196509" lon="10.75200700693473"><ele>451.0</ele><time>2026-04-26T15:42:41.001Z</time></trkpt><trkpt lat="43.281631533394076" lon="10.75192070761124"><ele>449.20000000000005</ele><time>2026-04-26T15:42:42.001Z</time></trkpt><trkpt lat="43.2816928787414" lon="10.751834299192197"><ele>447.40000000000003</ele><time>2026-04-26T15:42:43.001Z</time></trkpt><trkpt lat="43.28172810551501" lon="10.751712412206935"><ele>445.6</ele><time>2026-04-26T15:42:44.001Z</time></trkpt><trkpt lat="43.28175601896224" lon="10.751578283139143"><ele>443.8</ele><time>2026-04-26T15:42:45.001Z</time></trkpt><trkpt lat="43.28177152418104" lon="10.751449333149363"><ele>442.0</ele><time>2026-04-26T15:42:46.001Z</time></trkpt><trkpt lat="43.28178101375372" lon="10.751318225369397"><ele>442.00000000000006</ele><time>2026-04-26T15:42:47.001Z</time></trkpt><trkpt lat="43.28179031567979" lon="10.751174103445546"><ele>442.0</ele><time>2026-04-26T15:42:48.001Z</time></trkpt><trkpt lat="43.28179719139994" lon="10.751047448844563"><ele>442.0</ele><time>2026-04-26T15:42:49.001Z</time></trkpt><trkpt lat="43.28180907277403" lon="10.750932355617923"><ele>442.0</ele><time>2026-04-26T15:42:50.001Z</time></trkpt><trkpt lat="43.28182044851557" lon="10.750837873583762"><ele>442.00000000000006</ele><time>2026-04-26T15:42:51.001Z</time></trkpt><trkpt lat="43.281820019745666" lon="10.750743144724252"><ele>442.0</ele><time>2026-04-26T15:42:52.001Z</time></trkpt><trkpt lat="43.28178591558232" lon="10.750621731205356"><ele>441.1666666666667</ele><time>2026-04-26T15:42:53.001Z</time></trkpt><trkpt lat="43.28173652348031" lon="10.750500094490334"><ele>440.33333333333337</ele><time>2026-04-26T15:42:54.001Z</time></trkpt><trkpt lat="43.28167995658617" lon="10.75039585228399"><ele>439.5</ele><time>2026-04-26T15:42:55.001Z</time></trkpt><trkpt lat="43.281628631816474" lon="10.750295273973173"><ele>438.66666666666663</ele><time>2026-04-26T15:42:56.001Z</time></trkpt><trkpt lat="43.28159914225206" lon="10.750189874542693"><ele>437.8333333333333</ele><time>2026-04-26T15:42:57.001Z</time></trkpt><trkpt lat="43.281584572765546" lon="10.750088238147942"><ele>437.0</ele><time>2026-04-26T15:42:58.001Z</time></trkpt><trkpt lat="43.28162702874123" lon="10.74990533992814"><ele>436.0</ele><time>2026-04-26T15:43:00.001Z</time></trkpt><trkpt lat="43.281667699516774" lon="10.749777066616092"><ele>435.00000000000006</ele><time>2026-04-26T15:43:01.001Z</time></trkpt><trkpt lat="43.281720108484976" lon="10.74963112729002"><ele>434.00000000000006</ele><time>2026-04-26T15:43:02.001Z</time></trkpt><trkpt lat="43.28177204293022" lon="10.749501047878386"><ele>433.0</ele><time>2026-04-26T15:43:03.001Z</time></trkpt><trkpt lat="43.28181017174264" lon="10.749377272537114"><ele>432.0</ele><time>2026-04-26T15:43:04.001Z</time></trkpt><trkpt lat="43.28186771455647" lon="10.749285479987433"><ele>431.8</ele><time>2026-04-26T15:43:05.001Z</time></trkpt><trkpt lat="43.28190896954252" lon="10.749215184763894"><ele>431.6</ele><time>2026-04-26T15:43:06.001Z</time></trkpt><trkpt lat="43.281993919060525" lon="10.74915263351301"><ele>431.40000000000003</ele><time>2026-04-26T15:43:08.001Z</time></trkpt><trkpt lat="43.28211696762029" lon="10.749152733437958"><ele>431.20000000000005</ele><time>2026-04-26T15:43:10.001Z</time></trkpt><trkpt lat="43.28220435109823" lon="10.749139169058642"><ele>431.0</ele><time>2026-04-26T15:43:11.001Z</time></trkpt><trkpt lat="43.282288120063455" lon="10.74912083517626"><ele>431.0</ele><time>2026-04-26T15:43:12.001Z</time></trkpt><trkpt lat="43.28235980172558" lon="10.74906659765382"><ele>431.0</ele><time>2026-04-26T15:43:13.001Z</time></trkpt><trkpt lat="43.28241466453604" lon="10.748998158788114"><ele>431.0</ele><time>2026-04-26T15:43:14.001Z</time></trkpt><trkpt lat="43.28243249894477" lon="10.748882784979813"><ele>431.0</ele><time>2026-04-26T15:43:15.002Z</time></trkpt><trkpt lat="43.28240012581858" lon="10.748746417956065"><ele>431.0</ele><time>2026-04-26T15:43:16.002Z</time></trkpt><trkpt lat="43.282353558537245" lon="10.748613946246708"><ele>428.66666666666663</ele><time>2026-04-26T15:43:17.002Z</time></trkpt><trkpt lat="43.28233216831873" lon="10.748521236745429"><ele>426.3333333333333</ele><time>2026-04-26T15:43:18.002Z</time></trkpt><trkpt lat="43.282341302928664" lon="10.748393301459338"><ele>424.0</ele><time>2026-04-26T15:43:20.002Z</time></trkpt><trkpt lat="43.2823918455541" lon="10.748313846681153"><ele>421.66666666666663</ele><time>2026-04-26T15:43:21.002Z</time></trkpt><trkpt lat="43.28244755173273" lon="10.748205429503795"><ele>419.3333333333333</ele><time>2026-04-26T15:43:22.002Z</time></trkpt><trkpt lat="43.28250424707932" lon="10.748106638779706"><ele>417.0</ele><time>2026-04-26T15:43:23.002Z</time></trkpt><trkpt lat="43.28255681155104" lon="10.748021950280672"><ele>417.0</ele><time>2026-04-26T15:43:24.002Z</time></trkpt><trkpt lat="43.28262679799638" lon="10.747964369587951"><ele>417.0</ele><time>2026-04-26T15:43:25.001Z</time></trkpt><trkpt lat="43.28271335879077" lon="10.747902886251257"><ele>417.0</ele><time>2026-04-26T15:43:26.001Z</time></trkpt><trkpt lat="43.282785507211656" lon="10.747825573421359"><ele>417.0</ele><time>2026-04-26T15:43:27.001Z</time></trkpt><trkpt lat="43.28283378690045" lon="10.747751214662156"><ele>417.0</ele><time>2026-04-26T15:43:28.001Z</time></trkpt><trkpt lat="43.282922508260114" lon="10.747642029718891"><ele>416.5</ele><time>2026-04-26T15:43:30.001Z</time></trkpt><trkpt lat="43.283035802541704" lon="10.747637112046208"><ele>416.0</ele><time>2026-04-26T15:43:32.001Z</time></trkpt><trkpt lat="43.28308027030381" lon="10.74757486401167"><ele>415.5</ele><time>2026-04-26T15:43:33.001Z</time></trkpt><trkpt lat="43.28309646153967" lon="10.747472608176306"><ele>415.0</ele><time>2026-04-26T15:43:34.001Z</time></trkpt><trkpt lat="43.28314053698531" lon="10.747368389598654"><ele>414.5</ele><time>2026-04-26T15:43:35.001Z</time></trkpt><trkpt lat="43.283166613408646" lon="10.747261837172402"><ele>414.0</ele><time>2026-04-26T15:43:36.001Z</time></trkpt><trkpt lat="43.283243123572426" lon="10.747154708386883"><ele>414.0</ele><time>2026-04-26T15:43:38.001Z</time></trkpt><trkpt lat="43.283385209841825" lon="10.7471219721018"><ele>414.0</ele><time>2026-04-26T15:43:40.001Z</time></trkpt><trkpt lat="43.28349310244266" lon="10.747119004899597"><ele>414.0</ele><time>2026-04-26T15:43:41.001Z</time></trkpt><trkpt lat="43.28358850412816" lon="10.747103278818805"><ele>414.0</ele><time>2026-04-26T15:43:42.001Z</time></trkpt><trkpt lat="43.28365686238626" lon="10.747118934636168"><ele>414.0</ele><time>2026-04-26T15:43:43.001Z</time></trkpt><trkpt lat="43.283768980881085" lon="10.74701010585885"><ele>414.0</ele><time>2026-04-26T15:43:45.001Z</time></trkpt><trkpt lat="43.283797571272366" lon="10.746885911380906"><ele>414.0</ele><time>2026-04-26T15:43:46.001Z</time></trkpt><trkpt lat="43.283768118559166" lon="10.746761420782633"><ele>414.0</ele><time>2026-04-26T15:43:47.001Z</time></trkpt><trkpt lat="43.2836766549787" lon="10.7467159805697"><ele>414.0</ele><time>2026-04-26T15:43:48.001Z</time></trkpt><trkpt lat="43.283593080690814" lon="10.746674967724099"><ele>414.0</ele><time>2026-04-26T15:43:49.001Z</time></trkpt><trkpt lat="43.2834851834001" lon="10.746614154029253"><ele>411.0</ele><time>2026-04-26T15:43:50.001Z</time></trkpt><trkpt lat="43.28343532530498" lon="10.746514256130293"><ele>408.0</ele><time>2026-04-26T15:43:51.001Z</time></trkpt><trkpt lat="43.28338651281315" lon="10.746401552327908"><ele>405.0</ele><time>2026-04-26T15:43:53.001Z</time></trkpt><trkpt lat="43.28339763767265" lon="10.746188946384757"><ele>402.0</ele><time>2026-04-26T15:43:55.001Z</time></trkpt><trkpt lat="43.283435954417534" lon="10.746040166312632"><ele>399.75</ele><time>2026-04-26T15:43:56.001Z</time></trkpt><trkpt lat="43.283493141885714" lon="10.74589389915882"><ele>397.5</ele><time>2026-04-26T15:43:57.001Z</time></trkpt><trkpt lat="43.283572818423934" lon="10.745744032426215"><ele>395.25</ele><time>2026-04-26T15:43:58.001Z</time></trkpt><trkpt lat="43.2836515303633" lon="10.745606390380102"><ele>393.0</ele><time>2026-04-26T15:43:59.001Z</time></trkpt><trkpt lat="43.283711597309974" lon="10.745493215667578"><ele>393.0</ele><time>2026-04-26T15:44:00.001Z</time></trkpt><trkpt lat="43.28374472696716" lon="10.74539398453142"><ele>393.0</ele><time>2026-04-26T15:44:01.001Z</time></trkpt><trkpt lat="43.28376956184512" lon="10.745303302769802"><ele>393.0</ele><time>2026-04-26T15:44:02.001Z</time></trkpt><trkpt lat="43.283766370133634" lon="10.745193755833217"><ele>393.0</ele><time>2026-04-26T15:44:03.001Z</time></trkpt><trkpt lat="43.28372895383621" lon="10.745073080798829"><ele>393.0</ele><time>2026-04-26T15:44:04.001Z</time></trkpt><trkpt lat="43.283696057660215" lon="10.744946860575688"><ele>393.0</ele><time>2026-04-26T15:44:05.001Z</time></trkpt><trkpt lat="43.28365490492412" lon="10.74482631824803"><ele>392.2</ele><time>2026-04-26T15:44:06.001Z</time></trkpt><trkpt lat="43.28360443833035" lon="10.744700957721303"><ele>391.4</ele><time>2026-04-26T15:44:07.001Z</time></trkpt><trkpt lat="43.28356144494048" lon="10.744595139338292"><ele>390.59999999999997</ele><time>2026-04-26T15:44:08.001Z</time></trkpt><trkpt lat="43.28349942536283" lon="10.744486418054736"><ele>389.79999999999995</ele><time>2026-04-26T15:44:09.001Z</time></trkpt><trkpt lat="43.28346130614232" lon="10.744361786444003"><ele>389.0</ele><time>2026-04-26T15:44:10.001Z</time></trkpt><trkpt lat="43.283394090757625" lon="10.744245544572776"><ele>388.25</ele><time>2026-04-26T15:44:11.001Z</time></trkpt><trkpt lat="43.283315685889235" lon="10.744096046331357"><ele>387.5</ele><time>2026-04-26T15:44:12.001Z</time></trkpt><trkpt lat="43.28323592718558" lon="10.743946332076865"><ele>386.75</ele><time>2026-04-26T15:44:13.001Z</time></trkpt><trkpt lat="43.28317857704828" lon="10.743815687917706"><ele>386.0</ele><time>2026-04-26T15:44:14.001Z</time></trkpt><trkpt lat="43.283120105976444" lon="10.743712619721954"><ele>384.3333333333333</ele><time>2026-04-26T15:44:15.001Z</time></trkpt><trkpt lat="43.28306726551427" lon="10.743618728339092"><ele>382.66666666666663</ele><time>2026-04-26T15:44:16.001Z</time></trkpt><trkpt lat="43.28302422829509" lon="10.743522177780154"><ele>381.0</ele><time>2026-04-26T15:44:17.001Z</time></trkpt><trkpt lat="43.28299538301494" lon="10.743423426692994"><ele>379.3333333333333</ele><time>2026-04-26T15:44:18.001Z</time></trkpt><trkpt lat="43.282986872134614" lon="10.743328855465602"><ele>377.66666666666663</ele><time>2026-04-26T15:44:19.001Z</time></trkpt><trkpt lat="43.28297674328461" lon="10.743156925230366"><ele>376.0</ele><time>2026-04-26T15:44:21.001Z</time></trkpt><trkpt lat="43.282964546728394" lon="10.743014023794037"><ele>376.57142857142856</ele><time>2026-04-26T15:44:23.001Z</time></trkpt><trkpt lat="43.28297180908325" lon="10.742907598044042"><ele>377.1428571428571</ele><time>2026-04-26T15:44:44.001Z</time></trkpt><trkpt lat="43.28302979114536" lon="10.742857374520936"><ele>377.7142857142857</ele><time>2026-04-26T15:44:46.001Z</time></trkpt><trkpt lat="43.28310052041071" lon="10.74286819002113"><ele>378.2857142857143</ele><time>2026-04-26T15:44:47.001Z</time></trkpt><trkpt lat="43.28316719399567" lon="10.742847412102458"><ele>378.8571428571429</ele><time>2026-04-26T15:44:48.001Z</time></trkpt><trkpt lat="43.28322993284376" lon="10.742813462682411"><ele>379.42857142857144</ele><time>2026-04-26T15:44:49.001Z</time></trkpt><trkpt lat="43.28328146278589" lon="10.742741619008394"><ele>380.0</ele><time>2026-04-26T15:44:50.001Z</time></trkpt><trkpt lat="43.28332657701897" lon="10.742679972018097"><ele>380.0</ele><time>2026-04-26T15:44:51.001Z</time></trkpt><trkpt lat="43.283414900037734" lon="10.742599589709958"><ele>380.0</ele><time>2026-04-26T15:44:53.001Z</time></trkpt><trkpt lat="43.2834718742352" lon="10.742557665474948"><ele>380.0</ele><time>2026-04-26T15:44:54.001Z</time></trkpt><trkpt lat="43.28353441338284" lon="10.742568234294696"><ele>380.0</ele><time>2026-04-26T15:44:55.001Z</time></trkpt><trkpt lat="43.28364783345823" lon="10.742645177640826"><ele>380.0</ele><time>2026-04-26T15:44:57.001Z</time></trkpt><trkpt lat="43.283695513394925" lon="10.742743845248745"><ele>380.0</ele><time>2026-04-26T15:44:58.001Z</time></trkpt><trkpt lat="43.28376162387847" lon="10.742824598410195"><ele>380.0</ele><time>2026-04-26T15:44:59.001Z</time></trkpt><trkpt lat="43.28382680212151" lon="10.742892255269346"><ele>380.0</ele><time>2026-04-26T15:45:00.001Z</time></trkpt><trkpt lat="43.283900755817804" lon="10.74293953721171"><ele>380.0</ele><time>2026-04-26T15:45:01.001Z</time></trkpt><trkpt lat="43.28399112045572" lon="10.74293225239792"><ele>380.0</ele><time>2026-04-26T15:45:02.001Z</time></trkpt><trkpt lat="43.28410276653006" lon="10.742942334398933"><ele>380.0</ele><time>2026-04-26T15:45:03.001Z</time></trkpt><trkpt lat="43.284200558242006" lon="10.74295667472876"><ele>379.0</ele><time>2026-04-26T15:45:04.001Z</time></trkpt><trkpt lat="43.284280972788345" lon="10.743026961581412"><ele>378.0</ele><time>2026-04-26T15:45:05.001Z</time></trkpt><trkpt lat="43.28436075002064" lon="10.743053399869012"><ele>377.0</ele><time>2026-04-26T15:45:06.001Z</time></trkpt><trkpt lat="43.2844359659764" lon="10.743083287486511"><ele>376.0</ele><time>2026-04-26T15:45:07.001Z</time></trkpt><trkpt lat="43.28450408530558" lon="10.743085363202415"><ele>375.0</ele><time>2026-04-26T15:45:08.001Z</time></trkpt><trkpt lat="43.284603998247995" lon="10.743064116523366"><ele>374.0</ele><time>2026-04-26T15:45:09.001Z</time></trkpt><trkpt lat="43.28470607794882" lon="10.743042266425256"><ele>372.4</ele><time>2026-04-26T15:45:10.001Z</time></trkpt><trkpt lat="43.28477654186498" lon="10.743023589957996"><ele>370.79999999999995</ele><time>2026-04-26T15:45:11.001Z</time></trkpt><trkpt lat="43.284855703636666" lon="10.743005765923277"><ele>369.20000000000005</ele><time>2026-04-26T15:45:12.001Z</time></trkpt><trkpt lat="43.284975231858176" lon="10.743049495343751"><ele>367.6</ele><time>2026-04-26T15:45:14.001Z</time></trkpt><trkpt lat="43.28504877163523" lon="10.743138967884882"><ele>366.0</ele><time>2026-04-26T15:45:15.001Z</time></trkpt><trkpt lat="43.285135722649" lon="10.74324564834969"><ele>366.0</ele><time>2026-04-26T15:45:16.001Z</time></trkpt><trkpt lat="43.285214218004185" lon="10.74332414248532"><ele>366.0</ele><time>2026-04-26T15:45:17.001Z</time></trkpt><trkpt lat="43.28529934781509" lon="10.743380683897913"><ele>366.0</ele><time>2026-04-26T15:45:18.001Z</time></trkpt><trkpt lat="43.28537404856183" lon="10.743414034571908"><ele>366.0</ele><time>2026-04-26T15:45:19.001Z</time></trkpt><trkpt lat="43.28546840684001" lon="10.743397485659301"><ele>366.0</ele><time>2026-04-26T15:45:20.001Z</time></trkpt><trkpt lat="43.285539502101955" lon="10.743404312535977"><ele>366.0</ele><time>2026-04-26T15:45:21.001Z</time></trkpt><trkpt lat="43.285600067812595" lon="10.743444303028818"><ele>366.1666666666667</ele><time>2026-04-26T15:45:22.001Z</time></trkpt><trkpt lat="43.28565141073178" lon="10.74352427988469"><ele>366.3333333333333</ele><time>2026-04-26T15:45:23.001Z</time></trkpt><trkpt lat="43.28566123466654" lon="10.743640835973752"><ele>366.5</ele><time>2026-04-26T15:45:24.001Z</time></trkpt><trkpt lat="43.28569116035861" lon="10.743747026616548"><ele>366.66666666666663</ele><time>2026-04-26T15:45:25.001Z</time></trkpt><trkpt lat="43.285726945097785" lon="10.743840614276348"><ele>366.8333333333333</ele><time>2026-04-26T15:45:26.001Z</time></trkpt><trkpt lat="43.28575093486675" lon="10.743928586731117"><ele>367.0</ele><time>2026-04-26T15:45:27.001Z</time></trkpt><trkpt lat="43.28584259634851" lon="10.74401094804466"><ele>367.0</ele><time>2026-04-26T15:45:29.001Z</time></trkpt><trkpt lat="43.28592827786422" lon="10.743882258001367"><ele>367.0</ele><time>2026-04-26T15:45:31.001Z</time></trkpt><trkpt lat="43.28590588748571" lon="10.74377956293135"><ele>367.0</ele><time>2026-04-26T15:45:32.001Z</time></trkpt><trkpt lat="43.28592003766462" lon="10.743670615063072"><ele>367.0</ele><time>2026-04-26T15:45:33.001Z</time></trkpt><trkpt lat="43.28591807781934" lon="10.743547928733909"><ele>367.0</ele><time>2026-04-26T15:45:34.001Z</time></trkpt><trkpt lat="43.28591805102279" lon="10.743422371052946"><ele>365.66666666666663</ele><time>2026-04-26T15:45:35.001Z</time></trkpt><trkpt lat="43.28591805102332" lon="10.74330965650882"><ele>364.3333333333333</ele><time>2026-04-26T15:45:36.001Z</time></trkpt><trkpt lat="43.2859317431544" lon="10.743219393251367"><ele>363.0</ele><time>2026-04-26T15:45:37.001Z</time></trkpt><trkpt lat="43.28597736175714" lon="10.743127380863308"><ele>361.6666666666667</ele><time>2026-04-26T15:45:38.001Z</time></trkpt><trkpt lat="43.28606931176113" lon="10.743049040997612"><ele>360.33333333333337</ele><time>2026-04-26T15:45:39.001Z</time></trkpt><trkpt lat="43.28614685675283" lon="10.74294256102749"><ele>359.0</ele><time>2026-04-26T15:45:40.001Z</time></trkpt><trkpt lat="43.286204077270355" lon="10.742809478852102"><ele>356.79999999999995</ele><time>2026-04-26T15:45:41.001Z</time></trkpt><trkpt lat="43.28625092283201" lon="10.742659235615442"><ele>354.59999999999997</ele><time>2026-04-26T15:45:42.001Z</time></trkpt><trkpt lat="43.28628574674822" lon="10.742509109885308"><ele>352.4</ele><time>2026-04-26T15:45:43.001Z</time></trkpt><trkpt lat="43.286311024064084" lon="10.742378265393985"><ele>350.2</ele><time>2026-04-26T15:45:44.001Z</time></trkpt><trkpt lat="43.28632522299882" lon="10.742276483862419"><ele>348.0</ele><time>2026-04-26T15:45:45.001Z</time></trkpt><trkpt lat="43.28634219643603" lon="10.74218122148586"><ele>348.0</ele><time>2026-04-26T15:45:46.001Z</time></trkpt><trkpt lat="43.28636599816239" lon="10.742095191151408"><ele>348.0</ele><time>2026-04-26T15:45:47.001Z</time></trkpt><trkpt lat="43.28641681530265" lon="10.741988345377619"><ele>348.0</ele><time>2026-04-26T15:45:48.001Z</time></trkpt><trkpt lat="43.286467216535215" lon="10.741847523501123"><ele>348.0</ele><time>2026-04-26T15:45:49.001Z</time></trkpt><trkpt lat="43.28651529338087" lon="10.74170842596206"><ele>348.0</ele><time>2026-04-26T15:45:50.001Z</time></trkpt><trkpt lat="43.28655870503357" lon="10.74155148135308"><ele>348.2</ele><time>2026-04-26T15:45:51.001Z</time></trkpt><trkpt lat="43.2866031694493" lon="10.741421319146854"><ele>348.4</ele><time>2026-04-26T15:45:52.001Z</time></trkpt><trkpt lat="43.28667149785741" lon="10.741326424291902"><ele>348.59999999999997</ele><time>2026-04-26T15:45:53.001Z</time></trkpt><trkpt lat="43.2867189166391" lon="10.741201104748551"><ele>348.79999999999995</ele><time>2026-04-26T15:45:54.001Z</time></trkpt><trkpt lat="43.28674944334602" lon="10.741070463471184"><ele>349.0</ele><time>2026-04-26T15:45:55.001Z</time></trkpt><trkpt lat="43.28679119756908" lon="10.740925973818007"><ele>344.25</ele><time>2026-04-26T15:45:56.001Z</time></trkpt><trkpt lat="43.286842028008905" lon="10.740759043204976"><ele>339.5</ele><time>2026-04-26T15:45:57.001Z</time></trkpt><trkpt lat="43.28689730888661" lon="10.740590682886827"><ele>334.75</ele><time>2026-04-26T15:45:58.001Z</time></trkpt><trkpt lat="43.28693709147435" lon="10.740428895381344"><ele>330.0</ele><time>2026-04-26T15:45:59Z</time></trkpt><trkpt lat="43.286996417648" lon="10.740323079924885"><ele>330.0</ele><time>2026-04-26T15:46:00Z</time></trkpt><trkpt lat="43.28704173880595" lon="10.740221671163724"><ele>330.0</ele><time>2026-04-26T15:46:01Z</time></trkpt><trkpt lat="43.287099842590635" lon="10.74013393116545"><ele>330.0</ele><time>2026-04-26T15:46:02Z</time></trkpt><trkpt lat="43.287176954578975" lon="10.740056108562866"><ele>330.0</ele><time>2026-04-26T15:46:03Z</time></trkpt><trkpt lat="43.28724171423452" lon="10.739984197294403"><ele>330.0</ele><time>2026-04-26T15:46:04Z</time></trkpt><trkpt lat="43.28729086210197" lon="10.739887873940829"><ele>330.0</ele><time>2026-04-26T15:46:05Z</time></trkpt><trkpt lat="43.287340046056755" lon="10.739780715684297"><ele>331.3333333333333</ele><time>2026-04-26T15:46:06Z</time></trkpt><trkpt lat="43.28738271250843" lon="10.739634927028789"><ele>332.6666666666667</ele><time>2026-04-26T15:46:07Z</time></trkpt><trkpt lat="43.28744146111556" lon="10.739528423444675"><ele>334.0</ele><time>2026-04-26T15:46:08Z</time></trkpt><trkpt lat="43.287484763296085" lon="10.7394450708827"><ele>335.33333333333337</ele><time>2026-04-26T15:46:09.001Z</time></trkpt><trkpt lat="43.287527340895465" lon="10.739380424506441"><ele>336.6666666666667</ele><time>2026-04-26T15:46:10.001Z</time></trkpt><trkpt lat="43.287574849311774" lon="10.739323607184772"><ele>338.0</ele><time>2026-04-26T15:46:11.001Z</time></trkpt><trkpt lat="43.28763779960971" lon="10.739312289622113"><ele>338.0</ele><time>2026-04-26T15:46:12.001Z</time></trkpt><trkpt lat="43.287722844096415" lon="10.73937824258554"><ele>338.0</ele><time>2026-04-26T15:46:14.001Z</time></trkpt><trkpt lat="43.287821167309076" lon="10.739441961084617"><ele>338.0</ele><time>2026-04-26T15:46:16.001Z</time></trkpt><trkpt lat="43.287855915090425" lon="10.739531280132699"><ele>338.0</ele><time>2026-04-26T15:46:17.001Z</time></trkpt><trkpt lat="43.28791021748216" lon="10.739629320849875"><ele>338.0</ele><time>2026-04-26T15:46:18.001Z</time></trkpt><trkpt lat="43.287958596061465" lon="10.739695695729637"><ele>338.0</ele><time>2026-04-26T15:46:19.001Z</time></trkpt><trkpt lat="43.28804620038282" lon="10.739734724210145"><ele>336.4</ele><time>2026-04-26T15:46:21.001Z</time></trkpt><trkpt lat="43.28814696930721" lon="10.739615980149834"><ele>334.79999999999995</ele><time>2026-04-26T15:46:23.001Z</time></trkpt><trkpt lat="43.28815153000263" lon="10.739478916392665"><ele>333.2</ele><time>2026-04-26T15:46:24.001Z</time></trkpt><trkpt lat="43.28817350773435" lon="10.739352793909456"><ele>331.6</ele><time>2026-04-26T15:46:25.001Z</time></trkpt><trkpt lat="43.288208275195664" lon="10.739238075355322"><ele>330.0</ele><time>2026-04-26T15:46:26.001Z</time></trkpt><trkpt lat="43.2882579208438" lon="10.739117204546096"><ele>330.0</ele><time>2026-04-26T15:46:27.001Z</time></trkpt><trkpt lat="43.2883185583342" lon="10.738994079956132"><ele>330.0</ele><time>2026-04-26T15:46:28.001Z</time></trkpt><trkpt lat="43.28838320597255" lon="10.738874204202219"><ele>330.0</ele><time>2026-04-26T15:46:29.001Z</time></trkpt><trkpt lat="43.288455737007325" lon="10.738750509614512"><ele>330.0</ele><time>2026-04-26T15:46:30.001Z</time></trkpt><trkpt lat="43.28853512534016" lon="10.738656670892311"><ele>330.0</ele><time>2026-04-26T15:46:31.001Z</time></trkpt><trkpt lat="43.28861359092066" lon="10.738570772371911"><ele>329.25</ele><time>2026-04-26T15:46:32.001Z</time></trkpt><trkpt lat="43.28870577514869" lon="10.738493895550876"><ele>328.5</ele><time>2026-04-26T15:46:33.001Z</time></trkpt><trkpt lat="43.28882789499679" lon="10.73844880810154"><ele>327.75</ele><time>2026-04-26T15:46:34.001Z</time></trkpt><trkpt lat="43.28895830955193" lon="10.738385509142212"><ele>327.0</ele><time>2026-04-26T15:46:35.001Z</time></trkpt><trkpt lat="43.289064871797216" lon="10.738317908533006"><ele>327.0</ele><time>2026-04-26T15:46:36.001Z</time></trkpt><trkpt lat="43.28915236579086" lon="10.738220484184554"><ele>327.0</ele><time>2026-04-26T15:46:37.001Z</time></trkpt><trkpt lat="43.28923884154109" lon="10.738141142940703"><ele>327.0</ele><time>2026-04-26T15:46:38.001Z</time></trkpt><trkpt lat="43.28933470803576" lon="10.738094351303253"><ele>327.0</ele><time>2026-04-26T15:46:39.001Z</time></trkpt><trkpt lat="43.289418389633454" lon="10.738049028909105"><ele>327.0</ele><time>2026-04-26T15:46:40.001Z</time></trkpt><trkpt lat="43.28950973871493" lon="10.737999553790015"><ele>327.0</ele><time>2026-04-26T15:46:41.001Z</time></trkpt><trkpt lat="43.289582290854426" lon="10.737941332785402"><ele>327.0</ele><time>2026-04-26T15:46:42.001Z</time></trkpt><trkpt lat="43.28964551131458" lon="10.737848250595016"><ele>327.0</ele><time>2026-04-26T15:46:43.001Z</time></trkpt><trkpt lat="43.28970869992421" lon="10.737754933052972"><ele>327.0</ele><time>2026-04-26T15:46:44.001Z</time></trkpt><trkpt lat="43.28978589959925" lon="10.737660710453413"><ele>327.0</ele><time>2026-04-26T15:46:45.001Z</time></trkpt><trkpt lat="43.28986243395608" lon="10.737574981490926"><ele>325.0</ele><time>2026-04-26T15:46:46.001Z</time></trkpt><trkpt lat="43.28994238596734" lon="10.737485509504019"><ele>323.0</ele><time>2026-04-26T15:46:47.001Z</time></trkpt><trkpt lat="43.29002625273263" lon="10.737392639609942"><ele>321.0</ele><time>2026-04-26T15:46:48.001Z</time></trkpt><trkpt lat="43.29009992732678" lon="10.73730119769706"><ele>319.0</ele><time>2026-04-26T15:46:49.001Z</time></trkpt><trkpt lat="43.29015588491314" lon="10.737220436852615"><ele>317.0</ele><time>2026-04-26T15:46:50.001Z</time></trkpt><trkpt lat="43.290217729902075" lon="10.737120500419703"><ele>317.0</ele><time>2026-04-26T15:46:51.001Z</time></trkpt><trkpt lat="43.2902857772958" lon="10.736994536073926"><ele>317.0</ele><time>2026-04-26T15:46:52.001Z</time></trkpt><trkpt lat="43.29034521131244" lon="10.736865397385058"><ele>317.0</ele><time>2026-04-26T15:46:53.001Z</time></trkpt><trkpt lat="43.29037943805445" lon="10.73675000491928"><ele>317.0</ele><time>2026-04-26T15:46:54.001Z</time></trkpt><trkpt lat="43.29040488816445" lon="10.736643648411338"><ele>317.0</ele><time>2026-04-26T15:46:55.001Z</time></trkpt><trkpt lat="43.290409168776215" lon="10.736524887816259"><ele>314.2</ele><time>2026-04-26T15:46:56.001Z</time></trkpt><trkpt lat="43.29038980713369" lon="10.736404996444682"><ele>311.4</ele><time>2026-04-26T15:46:57.001Z</time></trkpt><trkpt lat="43.29036375816471" lon="10.736293390760554"><ele>308.6</ele><time>2026-04-26T15:46:58.001Z</time></trkpt><trkpt lat="43.29032168135247" lon="10.736165059075681"><ele>305.8</ele><time>2026-04-26T15:46:59.001Z</time></trkpt><trkpt lat="43.29026888859522" lon="10.736051161345838"><ele>303.0</ele><time>2026-04-26T15:47:00.001Z</time></trkpt><trkpt lat="43.290215406857" lon="10.735959960178128"><ele>303.0</ele><time>2026-04-26T15:47:01.001Z</time></trkpt><trkpt lat="43.29008605641268" lon="10.735880603363226"><ele>303.0</ele><time>2026-04-26T15:47:03.001Z</time></trkpt><trkpt lat="43.289983566578734" lon="10.73584887449544"><ele>303.0</ele><time>2026-04-26T15:47:04.001Z</time></trkpt><trkpt lat="43.28984359110655" lon="10.735837151318465"><ele>303.0</ele><time>2026-04-26T15:47:05.001Z</time></trkpt><trkpt lat="43.28970184202755" lon="10.73579236624997"><ele>300.3333333333333</ele><time>2026-04-26T15:47:06.001Z</time></trkpt><trkpt lat="43.2895844380177" lon="10.73578427990355"><ele>297.6666666666667</ele><time>2026-04-26T15:47:07.001Z</time></trkpt><trkpt lat="43.28949384524616" lon="10.735755187831685"><ele>295.0</ele><time>2026-04-26T15:47:08.001Z</time></trkpt><trkpt lat="43.289421694982515" lon="10.735702754212275"><ele>292.33333333333337</ele><time>2026-04-26T15:47:09.001Z</time></trkpt><trkpt lat="43.28934937018045" lon="10.735650611683178"><ele>289.6666666666667</ele><time>2026-04-26T15:47:10.001Z</time></trkpt><trkpt lat="43.289291578275424" lon="10.735586818854028"><ele>287.0</ele><time>2026-04-26T15:47:11.001Z</time></trkpt><trkpt lat="43.28924237687245" lon="10.73551791511592"><ele>287.0</ele><time>2026-04-26T15:47:12.001Z</time></trkpt><trkpt lat="43.28921220650779" lon="10.7354402080948"><ele>287.0</ele><time>2026-04-26T15:47:13.001Z</time></trkpt><trkpt lat="43.28920409070273" lon="10.735344860414957"><ele>287.0</ele><time>2026-04-26T15:47:14.001Z</time></trkpt><trkpt lat="43.28921456294042" lon="10.735229332718651"><ele>287.0</ele><time>2026-04-26T15:47:15.001Z</time></trkpt><trkpt lat="43.28922577355668" lon="10.735109054235693"><ele>287.0</ele><time>2026-04-26T15:47:16.001Z</time></trkpt><trkpt lat="43.289215363864365" lon="10.734991456307306"><ele>287.0</ele><time>2026-04-26T15:47:17.001Z</time></trkpt><trkpt lat="43.28923425229021" lon="10.734888179801969"><ele>287.6666666666667</ele><time>2026-04-26T15:47:18.001Z</time></trkpt><trkpt lat="43.289226897420015" lon="10.73478213869044"><ele>288.33333333333337</ele><time>2026-04-26T15:47:19.001Z</time></trkpt><trkpt lat="43.28921084936495" lon="10.734682261723247"><ele>289.0</ele><time>2026-04-26T15:47:20.001Z</time></trkpt><trkpt lat="43.2891789022594" lon="10.734595698930745"><ele>289.6666666666667</ele><time>2026-04-26T15:47:21.001Z</time></trkpt><trkpt lat="43.28913940082938" lon="10.734517940061561"><ele>290.3333333333333</ele><time>2026-04-26T15:47:22.001Z</time></trkpt><trkpt lat="43.2891137930607" lon="10.734399006179114"><ele>291.0</ele><time>2026-04-26T15:47:24.001Z</time></trkpt><trkpt lat="43.28913449989976" lon="10.734272581747506"><ele>288.5</ele><time>2026-04-26T15:47:27.001Z</time></trkpt><trkpt lat="43.28924234231386" lon="10.734171360700662"><ele>286.0</ele><time>2026-04-26T15:47:29.001Z</time></trkpt><trkpt lat="43.2893153283558" lon="10.734090185031722"><ele>283.5</ele><time>2026-04-26T15:47:30.001Z</time></trkpt><trkpt lat="43.28940781492917" lon="10.733972778829004"><ele>281.0</ele><time>2026-04-26T15:47:31.001Z</time></trkpt><trkpt lat="43.289503166778296" lon="10.733858726758044"><ele>281.0</ele><time>2026-04-26T15:47:32.001Z</time></trkpt><trkpt lat="43.28958701947644" lon="10.733767534987583"><ele>281.0</ele><time>2026-04-26T15:47:33.001Z</time></trkpt><trkpt lat="43.28965044244321" lon="10.733665390452662"><ele>281.0</ele><time>2026-04-26T15:47:34.001Z</time></trkpt><trkpt lat="43.289695428624604" lon="10.733567483127274"><ele>281.0</ele><time>2026-04-26T15:47:35.001Z</time></trkpt><trkpt lat="43.28973134520285" lon="10.73348471998831"><ele>281.0</ele><time>2026-04-26T15:47:36.001Z</time></trkpt><trkpt lat="43.289815634238" lon="10.733372973165329"><ele>281.2</ele><time>2026-04-26T15:47:38.001Z</time></trkpt><trkpt lat="43.28995086452752" lon="10.733321441270519"><ele>281.40000000000003</ele><time>2026-04-26T15:47:40.001Z</time></trkpt><trkpt lat="43.290046023659265" lon="10.733346843380339"><ele>281.6</ele><time>2026-04-26T15:47:41Z</time></trkpt><trkpt lat="43.29014978717435" lon="10.733354675542971"><ele>281.8</ele><time>2026-04-26T15:47:42Z</time></trkpt><trkpt lat="43.290242468250554" lon="10.733371855168308"><ele>282.0</ele><time>2026-04-26T15:47:43Z</time></trkpt><trkpt lat="43.290326761696655" lon="10.733377093354006"><ele>282.0</ele><time>2026-04-26T15:47:44Z</time></trkpt><trkpt lat="43.290397981729356" lon="10.733419007420265"><ele>282.0</ele><time>2026-04-26T15:47:45Z</time></trkpt><trkpt lat="43.29046502454226" lon="10.73346795541654"><ele>282.0</ele><time>2026-04-26T15:47:46Z</time></trkpt><trkpt lat="43.29052891104593" lon="10.733516118235439"><ele>282.0</ele><time>2026-04-26T15:47:47Z</time></trkpt><trkpt lat="43.29058273235908" lon="10.733570920332738"><ele>282.0</ele><time>2026-04-26T15:47:48Z</time></trkpt><trkpt lat="43.29062040881873" lon="10.733640488864191"><ele>282.0</ele><time>2026-04-26T15:47:49Z</time></trkpt><trkpt lat="43.29064315516756" lon="10.733727596883051"><ele>282.0</ele><time>2026-04-26T15:47:50Z</time></trkpt><trkpt lat="43.29063083476832" lon="10.733832404351325"><ele>283.2</ele><time>2026-04-26T15:47:51Z</time></trkpt><trkpt lat="43.29065116999744" lon="10.733915263624342"><ele>284.4</ele><time>2026-04-26T15:47:52Z</time></trkpt><trkpt lat="43.29073297649666" lon="10.734055512559454"><ele>285.6</ele><time>2026-04-26T15:47:54Z</time></trkpt><trkpt lat="43.29082450543332" lon="10.734071817553215"><ele>286.8</ele><time>2026-04-26T15:47:55Z</time></trkpt><trkpt lat="43.29091278195928" lon="10.734092483180003"><ele>288.0</ele><time>2026-04-26T15:47:56Z</time></trkpt><trkpt lat="43.29101513906805" lon="10.734100376720939"><ele>288.0</ele><time>2026-04-26T15:47:57Z</time></trkpt><trkpt lat="43.2911183964689" lon="10.734085260464814"><ele>288.0</ele><time>2026-04-26T15:47:58Z</time></trkpt><trkpt lat="43.291192943927186" lon="10.734131901818634"><ele>288.0</ele><time>2026-04-26T15:47:59Z</time></trkpt><trkpt lat="43.29126231677571" lon="10.734166436371677"><ele>288.0</ele><time>2026-04-26T15:48:00Z</time></trkpt><trkpt lat="43.29132619341718" lon="10.73421310083853"><ele>288.0</ele><time>2026-04-26T15:48:01Z</time></trkpt><trkpt lat="43.29138532286471" lon="10.734292807191599"><ele>288.0</ele><time>2026-04-26T15:48:02Z</time></trkpt><trkpt lat="43.291437811173026" lon="10.734385504627014"><ele>287.6666666666667</ele><time>2026-04-26T15:48:03Z</time></trkpt><trkpt lat="43.29149175317259" lon="10.73448697562067"><ele>287.3333333333333</ele><time>2026-04-26T15:48:04Z</time></trkpt><trkpt lat="43.291536063998194" lon="10.734584803356737"><ele>287.0</ele><time>2026-04-26T15:48:05Z</time></trkpt><trkpt lat="43.29156448084999" lon="10.734676482077061"><ele>286.66666666666663</ele><time>2026-04-26T15:48:06Z</time></trkpt><trkpt lat="43.291563794661634" lon="10.734778964937515"><ele>286.3333333333333</ele><time>2026-04-26T15:48:07Z</time></trkpt><trkpt lat="43.29160198721022" lon="10.734929908177289"><ele>286.0</ele><time>2026-04-26T15:48:09Z</time></trkpt><trkpt lat="43.29167440090568" lon="10.735039589403632"><ele>286.0</ele><time>2026-04-26T15:48:11Z</time></trkpt><trkpt lat="43.29173996920943" lon="10.735049062209074"><ele>286.0</ele><time>2026-04-26T15:48:12Z</time></trkpt><trkpt lat="43.29183689546725" lon="10.73499534520574"><ele>286.0</ele><time>2026-04-26T15:48:13Z</time></trkpt><trkpt lat="43.291879022474724" lon="10.734833204735732"><ele>286.0</ele><time>2026-04-26T15:48:14Z</time></trkpt><trkpt lat="43.29199526912422" lon="10.73477380567501"><ele>286.0</ele><time>2026-04-26T15:48:15Z</time></trkpt><trkpt lat="43.292071860403894" lon="10.734675737770292"><ele>286.0</ele><time>2026-04-26T15:48:16Z</time></trkpt><trkpt lat="43.292111971594316" lon="10.734518427121984"><ele>286.0</ele><time>2026-04-26T15:48:17Z</time></trkpt><trkpt lat="43.2921348163697" lon="10.73436693434873"><ele>286.0</ele><time>2026-04-26T15:48:18Z</time></trkpt><trkpt lat="43.292181607945" lon="10.734204632064522"><ele>286.0</ele><time>2026-04-26T15:48:19Z</time></trkpt><trkpt lat="43.29222665551765" lon="10.73405769054319"><ele>286.0</ele><time>2026-04-26T15:48:20Z</time></trkpt><trkpt lat="43.29226517841417" lon="10.733927062165927"><ele>286.0</ele><time>2026-04-26T15:48:21Z</time></trkpt><trkpt lat="43.29227031317586" lon="10.733795591864427"><ele>286.0</ele><time>2026-04-26T15:48:22Z</time></trkpt><trkpt lat="43.29228890807312" lon="10.733669272982807"><ele>286.0</ele><time>2026-04-26T15:48:23Z</time></trkpt><trkpt lat="43.292302476367226" lon="10.733562934131706"><ele>286.0</ele><time>2026-04-26T15:48:24Z</time></trkpt><trkpt lat="43.292309949525745" lon="10.733445327825917"><ele>282.8</ele><time>2026-04-26T15:48:25Z</time></trkpt><trkpt lat="43.29231478761483" lon="10.733256940840423"><ele>279.6</ele><time>2026-04-26T15:48:27Z</time></trkpt><trkpt lat="43.29233602863374" lon="10.733149828558577"><ele>276.4</ele><time>2026-04-26T15:48:28Z</time></trkpt><trkpt lat="43.292362974637065" lon="10.73305340282368"><ele>273.2</ele><time>2026-04-26T15:48:29Z</time></trkpt><trkpt lat="43.29245540780487" lon="10.732955045663271"><ele>270.0</ele><time>2026-04-26T15:48:31Z</time></trkpt><trkpt lat="43.29254573671456" lon="10.732941265394329"><ele>270.0</ele><time>2026-04-26T15:48:32Z</time></trkpt><trkpt lat="43.29263394039851" lon="10.733006799128606"><ele>270.0</ele><time>2026-04-26T15:48:33Z</time></trkpt><trkpt lat="43.292747848838424" lon="10.733011685271105"><ele>270.0</ele><time>2026-04-26T15:48:34Z</time></trkpt><trkpt lat="43.29285186529371" lon="10.733013495043162"><ele>270.0</ele><time>2026-04-26T15:48:35Z</time></trkpt><trkpt lat="43.29292875590372" lon="10.733020810494018"><ele>270.0</ele><time>2026-04-26T15:48:36Z</time></trkpt><trkpt lat="43.29299856611656" lon="10.73302552114011"><ele>270.0</ele><time>2026-04-26T15:48:37Z</time></trkpt><trkpt lat="43.293061882755005" lon="10.733023773769192"><ele>270.0</ele><time>2026-04-26T15:48:38Z</time></trkpt><trkpt lat="43.29319160594019" lon="10.73293055838227"><ele>270.0</ele><time>2026-04-26T15:48:40Z</time></trkpt><trkpt lat="43.29314220008406" lon="10.732722694909404"><ele>270.0</ele><time>2026-04-26T15:48:41Z</time></trkpt><trkpt lat="43.29313416116564" lon="10.732604832246023"><ele>269.4</ele><time>2026-04-26T15:48:42Z</time></trkpt><trkpt lat="43.293110919260705" lon="10.732501345044273"><ele>268.8</ele><time>2026-04-26T15:48:43Z</time></trkpt><trkpt lat="43.293128135093525" lon="10.732335006445542"><ele>268.2</ele><time>2026-04-26T15:48:45Z</time></trkpt><trkpt lat="43.2931631734586" lon="10.7321774070438"><ele>267.6</ele><time>2026-04-26T15:48:46Z</time></trkpt><trkpt lat="43.29317573946401" lon="10.732065704939847"><ele>267.0</ele><time>2026-04-26T15:48:47Z</time></trkpt><trkpt lat="43.29317394242712" lon="10.731976693794492"><ele>264.8</ele><time>2026-04-26T15:48:48Z</time></trkpt><trkpt lat="43.29316068336421" lon="10.73186895845249"><ele>262.6</ele><time>2026-04-26T15:48:49Z</time></trkpt><trkpt lat="43.29308872814445" lon="10.731761642337846"><ele>260.40000000000003</ele><time>2026-04-26T15:48:50Z</time></trkpt><trkpt lat="43.29302918090422" lon="10.731619144602202"><ele>258.2</ele><time>2026-04-26T15:48:51Z</time></trkpt><trkpt lat="43.29298923004229" lon="10.731515842060537"><ele>256.0</ele><time>2026-04-26T15:48:52Z</time></trkpt><trkpt lat="43.292966250465824" lon="10.731419305341943"><ele>256.2</ele><time>2026-04-26T15:48:53Z</time></trkpt><trkpt lat="43.29295630861352" lon="10.731333638460033"><ele>256.40000000000003</ele><time>2026-04-26T15:48:54Z</time></trkpt><trkpt lat="43.29302921675402" lon="10.731164153484785"><ele>256.6</ele><time>2026-04-26T15:48:56Z</time></trkpt><trkpt lat="43.293108920930614" lon="10.731056521202126"><ele>256.8</ele><time>2026-04-26T15:48:57Z</time></trkpt><trkpt lat="43.29316649345687" lon="10.730920035587555"><ele>257.0</ele><time>2026-04-26T15:48:58Z</time></trkpt><trkpt lat="43.29323601496239" lon="10.730747049999106"><ele>257.0</ele><time>2026-04-26T15:48:59Z</time></trkpt><trkpt lat="43.293286470995355" lon="10.730559288840457"><ele>257.0</ele><time>2026-04-26T15:49:00Z</time></trkpt><trkpt lat="43.2933252919409" lon="10.73039627183036"><ele>257.0</ele><time>2026-04-26T15:49:01Z</time></trkpt><trkpt lat="43.29337168034664" lon="10.730258579421093"><ele>257.0</ele><time>2026-04-26T15:49:02Z</time></trkpt><trkpt lat="43.29342658027414" lon="10.730145105520874"><ele>254.2</ele><time>2026-04-26T15:49:03Z</time></trkpt><trkpt lat="43.293486724249796" lon="10.730061252015917"><ele>251.39999999999998</ele><time>2026-04-26T15:49:04Z</time></trkpt><trkpt lat="43.29356374336012" lon="10.730018040945124"><ele>248.60000000000002</ele><time>2026-04-26T15:49:05Z</time></trkpt><trkpt lat="43.29364292459495" lon="10.72997892703558"><ele>245.8</ele><time>2026-04-26T15:49:06Z</time></trkpt><trkpt lat="43.293726597003875" lon="10.729944710904459"><ele>243.0</ele><time>2026-04-26T15:49:07Z</time></trkpt><trkpt lat="43.29383016413378" lon="10.729886823207652"><ele>245.2</ele><time>2026-04-26T15:49:08Z</time></trkpt><trkpt lat="43.293935352874335" lon="10.729864400456096"><ele>247.4</ele><time>2026-04-26T15:49:09Z</time></trkpt><trkpt lat="43.29402307740839" lon="10.729828033114838"><ele>249.59999999999997</ele><time>2026-04-26T15:49:10Z</time></trkpt><trkpt lat="43.29409387064109" lon="10.729787085436465"><ele>251.79999999999998</ele><time>2026-04-26T15:49:11Z</time></trkpt><trkpt lat="43.2941928103938" lon="10.729739795540736"><ele>254.0</ele><time>2026-04-26T15:49:13Z</time></trkpt><trkpt lat="43.29426884672794" lon="10.729694953137253"><ele>254.00000000000003</ele><time>2026-04-26T15:49:15.001Z</time></trkpt><trkpt lat="43.2943405473685" lon="10.729652866574758"><ele>254.0</ele><time>2026-04-26T15:49:17.001Z</time></trkpt><trkpt lat="43.2944043352275" lon="10.729631291642663"><ele>254.0</ele><time>2026-04-26T15:49:19.001Z</time></trkpt><trkpt lat="43.29447879198615" lon="10.72962467818445"><ele>254.0</ele><time>2026-04-26T15:49:22.001Z</time></trkpt><trkpt lat="43.2945502123149" lon="10.729722139560193"><ele>254.00000000000003</ele><time>2026-04-26T15:49:25.001Z</time></trkpt><trkpt lat="43.2945770689956" lon="10.729859766858619"><ele>254.0</ele><time>2026-04-26T15:49:27.001Z</time></trkpt><trkpt lat="43.294595405450536" lon="10.729944570400498"><ele>254.0</ele><time>2026-04-26T15:49:28.001Z</time></trkpt><trkpt lat="43.2946215579515" lon="10.730044174095825"><ele>253.99999999999997</ele><time>2026-04-26T15:49:29.001Z</time></trkpt><trkpt lat="43.294654332739256" lon="10.730163341534995"><ele>253.99999999999997</ele><time>2026-04-26T15:49:30.001Z</time></trkpt><trkpt lat="43.294676398032365" lon="10.730289704689508"><ele>254.0</ele><time>2026-04-26T15:49:31.001Z</time></trkpt><trkpt lat="43.294689384233905" lon="10.730422479774568"><ele>254.0</ele><time>2026-04-26T15:49:32.001Z</time></trkpt><trkpt lat="43.2946918180909" lon="10.730548453826607"><ele>254.5</ele><time>2026-04-26T15:49:33.001Z</time></trkpt><trkpt lat="43.29465997697419" lon="10.730675103681092"><ele>255.0</ele><time>2026-04-26T15:49:34.001Z</time></trkpt><trkpt lat="43.294604379896235" lon="10.730798150855334"><ele>255.5</ele><time>2026-04-26T15:49:35.001Z</time></trkpt><trkpt lat="43.294526880325435" lon="10.73093039722842"><ele>256.0</ele><time>2026-04-26T15:49:36.001Z</time></trkpt><trkpt lat="43.29443575070642" lon="10.73105373183466"><ele>255.0</ele><time>2026-04-26T15:49:37.001Z</time></trkpt><trkpt lat="43.29435479342307" lon="10.731162013644711"><ele>254.00000000000003</ele><time>2026-04-26T15:49:38.001Z</time></trkpt><trkpt lat="43.29430621518579" lon="10.731291955882536"><ele>253.00000000000003</ele><time>2026-04-26T15:49:39.001Z</time></trkpt><trkpt lat="43.294291514436004" lon="10.731439915201044"><ele>252.0</ele><time>2026-04-26T15:49:40.001Z</time></trkpt><trkpt lat="43.29430772755483" lon="10.731579422563183"><ele>251.0</ele><time>2026-04-26T15:49:41.001Z</time></trkpt><trkpt lat="43.294346570735634" lon="10.731703820780028"><ele>251.0</ele><time>2026-04-26T15:49:42.001Z</time></trkpt><trkpt lat="43.294422356797185" lon="10.731778120210128"><ele>251.00000000000003</ele><time>2026-04-26T15:49:43Z</time></trkpt><trkpt lat="43.29451953411535" lon="10.731818107294146"><ele>251.00000000000003</ele><time>2026-04-26T15:49:44Z</time></trkpt><trkpt lat="43.29462485583297" lon="10.731837682693605"><ele>251.0</ele><time>2026-04-26T15:49:45Z</time></trkpt><trkpt lat="43.294753474310376" lon="10.731925068012675"><ele>251.0</ele><time>2026-04-26T15:49:46Z</time></trkpt><trkpt lat="43.29490046244504" lon="10.732008540547785"><ele>252.25</ele><time>2026-04-26T15:49:47Z</time></trkpt><trkpt lat="43.29503076215105" lon="10.732120008301646"><ele>253.5</ele><time>2026-04-26T15:49:48Z</time></trkpt><trkpt lat="43.2951650645866" lon="10.732195294913067"><ele>254.75</ele><time>2026-04-26T15:49:49Z</time></trkpt><trkpt lat="43.29526491650751" lon="10.732285600658667"><ele>256.0</ele><time>2026-04-26T15:49:50Z</time></trkpt><trkpt lat="43.29534577233882" lon="10.732400352454356"><ele>255.99999999999997</ele><time>2026-04-26T15:49:51Z</time></trkpt><trkpt lat="43.29541983405616" lon="10.732490448946807"><ele>256.0</ele><time>2026-04-26T15:49:52Z</time></trkpt><trkpt lat="43.295467494245536" lon="10.732591586661126"><ele>256.0</ele><time>2026-04-26T15:49:53Z</time></trkpt><trkpt lat="43.295514192429266" lon="10.732685245311535"><ele>256.0</ele><time>2026-04-26T15:49:54Z</time></trkpt><trkpt lat="43.29556558851394" lon="10.73277250508844"><ele>255.99999999999997</ele><time>2026-04-26T15:49:55Z</time></trkpt><trkpt lat="43.295616862941465" lon="10.732857886113706"><ele>256.0</ele><time>2026-04-26T15:49:56Z</time></trkpt><trkpt lat="43.29566440078383" lon="10.732931107723589"><ele>254.66666666666666</ele><time>2026-04-26T15:49:57Z</time></trkpt><trkpt lat="43.295703528714036" lon="10.733003777958073"><ele>253.33333333333331</ele><time>2026-04-26T15:49:58Z</time></trkpt><trkpt lat="43.295738540582136" lon="10.73308418661064"><ele>252.0</ele><time>2026-04-26T15:49:59Z</time></trkpt><trkpt lat="43.29578354226765" lon="10.733166097301098"><ele>250.66666666666669</ele><time>2026-04-26T15:50:00Z</time></trkpt><trkpt lat="43.29583290612749" lon="10.733277297732037"><ele>249.33333333333334</ele><time>2026-04-26T15:50:01Z</time></trkpt><trkpt lat="43.295908995072864" lon="10.733398230057983"><ele>248.0</ele><time>2026-04-26T15:50:02Z</time></trkpt><trkpt lat="43.295996409977796" lon="10.733523164097846"><ele>256.0</ele><time>2026-04-26T15:50:03Z</time></trkpt><trkpt lat="43.29609815957542" lon="10.733670658130153"><ele>264.0</ele><time>2026-04-26T15:50:04Z</time></trkpt><trkpt lat="43.29619713851111" lon="10.73382855045654"><ele>272.0</ele><time>2026-04-26T15:50:05Z</time></trkpt><trkpt lat="43.29629692608461" lon="10.734001697463885"><ele>272.0</ele><time>2026-04-26T15:50:06Z</time></trkpt><trkpt lat="43.29637561578655" lon="10.734193439330689"><ele>272.0</ele><time>2026-04-26T15:50:07Z</time></trkpt><trkpt lat="43.29646265967196" lon="10.734341522521357"><ele>272.0</ele><time>2026-04-26T15:50:08Z</time></trkpt><trkpt lat="43.296537391920246" lon="10.734480935972718"><ele>272.0</ele><time>2026-04-26T15:50:09Z</time></trkpt><trkpt lat="43.296604961098325" lon="10.734611813629092"><ele>270.0</ele><time>2026-04-26T15:50:10Z</time></trkpt><trkpt lat="43.296720388036974" lon="10.734681726853182"><ele>268.0</ele><time>2026-04-26T15:50:11Z</time></trkpt><trkpt lat="43.29683647583338" lon="10.73477511600507"><ele>266.0</ele><time>2026-04-26T15:50:12Z</time></trkpt><trkpt lat="43.29692956457902" lon="10.73484578619575"><ele>264.0</ele><time>2026-04-26T15:50:13Z</time></trkpt><trkpt lat="43.29699614998438" lon="10.73492942966572"><ele>264.0</ele><time>2026-04-26T15:50:14Z</time></trkpt><trkpt lat="43.297044436625406" lon="10.735001835441171"><ele>264.0</ele><time>2026-04-26T15:50:15Z</time></trkpt><trkpt lat="43.29702379995577" lon="10.735112572328738"><ele>264.0</ele><time>2026-04-26T15:50:16Z</time></trkpt><trkpt lat="43.2970468561171" lon="10.735221217167645"><ele>264.0</ele><time>2026-04-26T15:50:17Z</time></trkpt><trkpt lat="43.29707604432244" lon="10.735316544045252"><ele>264.0</ele><time>2026-04-26T15:50:18Z</time></trkpt><trkpt lat="43.29711663080657" lon="10.73540990579383"><ele>264.0</ele><time>2026-04-26T15:50:19Z</time></trkpt><trkpt lat="43.297240462927135" lon="10.73545740387439"><ele>260.59999999999997</ele><time>2026-04-26T15:50:20Z</time></trkpt><trkpt lat="43.297319035745794" lon="10.735537389721754"><ele>257.2</ele><time>2026-04-26T15:50:21Z</time></trkpt><trkpt lat="43.2973937091469" lon="10.735601235160322"><ele>253.79999999999998</ele><time>2026-04-26T15:50:22Z</time></trkpt><trkpt lat="43.29744776007851" lon="10.735695109544993"><ele>250.39999999999998</ele><time>2026-04-26T15:50:23Z</time></trkpt><trkpt lat="43.29749288112725" lon="10.735829470331845"><ele>247.0</ele><time>2026-04-26T15:50:24Z</time></trkpt><trkpt lat="43.29750607807421" lon="10.735977664546287"><ele>249.0</ele><time>2026-04-26T15:50:25Z</time></trkpt><trkpt lat="43.297521365465926" lon="10.736161448636786"><ele>251.0</ele><time>2026-04-26T15:50:26Z</time></trkpt><trkpt lat="43.29755188915934" lon="10.736343980664087"><ele>253.0</ele><time>2026-04-26T15:50:27Z</time></trkpt><trkpt lat="43.29754659839578" lon="10.736513890791931"><ele>255.0</ele><time>2026-04-26T15:50:28Z</time></trkpt><trkpt lat="43.29756089976653" lon="10.736672032472631"><ele>255.0</ele><time>2026-04-26T15:50:29Z</time></trkpt><trkpt lat="43.29758142616391" lon="10.736803587270062"><ele>255.0</ele><time>2026-04-26T15:50:30Z</time></trkpt><trkpt lat="43.29762663048552" lon="10.736918139300967"><ele>255.0</ele><time>2026-04-26T15:50:31Z</time></trkpt><trkpt lat="43.29767225519064" lon="10.737004667383543"><ele>255.0</ele><time>2026-04-26T15:50:32Z</time></trkpt><trkpt lat="43.297771657892625" lon="10.737048273398516"><ele>255.0</ele><time>2026-04-26T15:50:33Z</time></trkpt><trkpt lat="43.29789972372366" lon="10.73708732911386"><ele>254.5</ele><time>2026-04-26T15:50:34Z</time></trkpt><trkpt lat="43.29803987216688" lon="10.7371254211601"><ele>254.0</ele><time>2026-04-26T15:50:35Z</time></trkpt><trkpt lat="43.29816582800942" lon="10.737162314000113"><ele>253.5</ele><time>2026-04-26T15:50:36Z</time></trkpt><trkpt lat="43.2982906051549" lon="10.737182356958462"><ele>253.0</ele><time>2026-04-26T15:50:37Z</time></trkpt><trkpt lat="43.298404708323766" lon="10.737182639140945"><ele>253.0</ele><time>2026-04-26T15:50:38Z</time></trkpt><trkpt lat="43.29851045660169" lon="10.737146648311239"><ele>253.0</ele><time>2026-04-26T15:50:39Z</time></trkpt><trkpt lat="43.29860002100858" lon="10.737087145970207"><ele>253.0</ele><time>2026-04-26T15:50:40Z</time></trkpt><trkpt lat="43.29869570656865" lon="10.737000369577068"><ele>253.0</ele><time>2026-04-26T15:50:41Z</time></trkpt><trkpt lat="43.298780845838166" lon="10.736902519197454"><ele>253.0</ele><time>2026-04-26T15:50:42Z</time></trkpt><trkpt lat="43.298877194133325" lon="10.73680672631204"><ele>251.25</ele><time>2026-04-26T15:50:43Z</time></trkpt><trkpt lat="43.298958807913834" lon="10.736711152658176"><ele>249.5</ele><time>2026-04-26T15:50:44Z</time></trkpt><trkpt lat="43.29902841501935" lon="10.736608654283053"><ele>247.75</ele><time>2026-04-26T15:50:45Z</time></trkpt><trkpt lat="43.29909863283425" lon="10.736470114801458"><ele>246.0</ele><time>2026-04-26T15:50:46Z</time></trkpt><trkpt lat="43.29912028254987" lon="10.736301885223043"><ele>246.0</ele><time>2026-04-26T15:50:47Z</time></trkpt><trkpt lat="43.29915186385312" lon="10.736176365429698"><ele>246.00000000000003</ele><time>2026-04-26T15:50:48Z</time></trkpt><trkpt lat="43.299206375704756" lon="10.73606715432535"><ele>246.00000000000003</ele><time>2026-04-26T15:50:49Z</time></trkpt><trkpt lat="43.29925409101216" lon="10.736001422703659"><ele>246.0</ele><time>2026-04-26T15:50:50Z</time></trkpt><trkpt lat="43.29937137371586" lon="10.735960244995718"><ele>246.0</ele><time>2026-04-26T15:50:52Z</time></trkpt><trkpt lat="43.299455126683505" lon="10.736043362280764"><ele>246.0</ele><time>2026-04-26T15:50:53Z</time></trkpt><trkpt lat="43.29954870704728" lon="10.73612868576402"><ele>246.0</ele><time>2026-04-26T15:50:54Z</time></trkpt><trkpt lat="43.29960654937086" lon="10.736305705033052"><ele>246.0</ele><time>2026-04-26T15:50:55Z</time></trkpt><trkpt lat="43.29968893898142" lon="10.736467512617375"><ele>246.0</ele><time>2026-04-26T15:50:56Z</time></trkpt><trkpt lat="43.29975461413762" lon="10.736614121931536"><ele>245.75</ele><time>2026-04-26T15:50:57Z</time></trkpt><trkpt lat="43.299821458885766" lon="10.736729529379215"><ele>245.5</ele><time>2026-04-26T15:50:58Z</time></trkpt><trkpt lat="43.29990220578198" lon="10.736817610421111"><ele>245.25</ele><time>2026-04-26T15:50:59Z</time></trkpt><trkpt lat="43.300010254454165" lon="10.736860363811564"><ele>245.0</ele><time>2026-04-26T15:51:00Z</time></trkpt><trkpt lat="43.30014192029216" lon="10.736913634417501"><ele>245.0</ele><time>2026-04-26T15:51:01Z</time></trkpt><trkpt lat="43.3002801179474" lon="10.736934677546843"><ele>245.0</ele><time>2026-04-26T15:51:02Z</time></trkpt><trkpt lat="43.30039372470258" lon="10.736951198475493"><ele>245.0</ele><time>2026-04-26T15:51:03Z</time></trkpt><trkpt lat="43.30049368165848" lon="10.736957110428134"><ele>245.0</ele><time>2026-04-26T15:51:04Z</time></trkpt><trkpt lat="43.30056719992013" lon="10.737033588098072"><ele>245.0</ele><time>2026-04-26T15:51:05Z</time></trkpt><trkpt lat="43.300614887234495" lon="10.737112275804167"><ele>240.0</ele><time>2026-04-26T15:51:06Z</time></trkpt><trkpt lat="43.30063027837537" lon="10.737231049952472"><ele>235.0</ele><time>2026-04-26T15:51:07Z</time></trkpt><trkpt lat="43.30063319480547" lon="10.737389378260946"><ele>230.0</ele><time>2026-04-26T15:51:08Z</time></trkpt><trkpt lat="43.30064331251448" lon="10.737609342221381"><ele>225.0</ele><time>2026-04-26T15:51:09Z</time></trkpt><trkpt lat="43.300647726388284" lon="10.737850892227097"><ele>224.25</ele><time>2026-04-26T15:51:10Z</time></trkpt><trkpt lat="43.30066126047231" lon="10.738070387828298"><ele>223.5</ele><time>2026-04-26T15:51:11Z</time></trkpt><trkpt lat="43.30066479922205" lon="10.738271093932088"><ele>222.75</ele><time>2026-04-26T15:51:12Z</time></trkpt><trkpt lat="43.30067009527722" lon="10.738463892548863"><ele>222.0</ele><time>2026-04-26T15:51:13Z</time></trkpt><trkpt lat="43.300628803193085" lon="10.738644188425514"><ele>220.25</ele><time>2026-04-26T15:51:14Z</time></trkpt><trkpt lat="43.30059804460771" lon="10.738822335846079"><ele>218.5</ele><time>2026-04-26T15:51:15Z</time></trkpt><trkpt lat="43.30055742274152" lon="10.738992265072756"><ele>216.75</ele><time>2026-04-26T15:51:16Z</time></trkpt><trkpt lat="43.300537757349545" lon="10.739183716622547"><ele>215.0</ele><time>2026-04-26T15:51:17Z</time></trkpt><trkpt lat="43.30053941475763" lon="10.73937577293282"><ele>219.25</ele><time>2026-04-26T15:51:18Z</time></trkpt><trkpt lat="43.30054528625064" lon="10.73956984289956"><ele>223.5</ele><time>2026-04-26T15:51:19Z</time></trkpt><trkpt lat="43.30053304624727" lon="10.73974818857104"><ele>227.75</ele><time>2026-04-26T15:51:20Z</time></trkpt><trkpt lat="43.30051418208172" lon="10.739931755666564"><ele>232.0</ele><time>2026-04-26T15:51:21Z</time></trkpt><trkpt lat="43.30051119930502" lon="10.740092979006459"><ele>230.25</ele><time>2026-04-26T15:51:22Z</time></trkpt><trkpt lat="43.30050281275216" lon="10.740266180541395"><ele>228.5</ele><time>2026-04-26T15:51:23Z</time></trkpt><trkpt lat="43.30049766713147" lon="10.740445302080841"><ele>226.75</ele><time>2026-04-26T15:51:24Z</time></trkpt><trkpt lat="43.30047628496735" lon="10.740603063022185"><ele>225.0</ele><time>2026-04-26T15:51:25Z</time></trkpt><trkpt lat="43.30048002136582" lon="10.74075013130113"><ele>225.0</ele><time>2026-04-26T15:51:26Z</time></trkpt><trkpt lat="43.30047525842475" lon="10.740891196864334"><ele>225.0</ele><time>2026-04-26T15:51:27Z</time></trkpt><trkpt lat="43.30046688843575" lon="10.741039465249564"><ele>225.0</ele><time>2026-04-26T15:51:28Z</time></trkpt><trkpt lat="43.30047487440499" lon="10.741183683995141"><ele>225.0</ele><time>2026-04-26T15:51:29Z</time></trkpt><trkpt lat="43.30051591084578" lon="10.741311377975624"><ele>225.0</ele><time>2026-04-26T15:51:30Z</time></trkpt><trkpt lat="43.300581775069205" lon="10.74141653482031"><ele>222.25</ele><time>2026-04-26T15:51:31Z</time></trkpt><trkpt lat="43.30067774115645" lon="10.741505075937457"><ele>219.5</ele><time>2026-04-26T15:51:32Z</time></trkpt><trkpt lat="43.30079171972531" lon="10.741595717159537"><ele>216.75</ele><time>2026-04-26T15:51:33Z</time></trkpt><trkpt lat="43.300904982221475" lon="10.74168364052083"><ele>214.0</ele><time>2026-04-26T15:51:34Z</time></trkpt><trkpt lat="43.3009927541392" lon="10.741802722734429"><ele>213.5</ele><time>2026-04-26T15:51:35Z</time></trkpt><trkpt lat="43.30109549312544" lon="10.741913112853794"><ele>213.0</ele><time>2026-04-26T15:51:36Z</time></trkpt><trkpt lat="43.30117976486616" lon="10.742048171663"><ele>212.5</ele><time>2026-04-26T15:51:37Z</time></trkpt><trkpt lat="43.301242510253836" lon="10.742193031868494"><ele>212.0</ele><time>2026-04-26T15:51:38Z</time></trkpt><trkpt lat="43.3013091871738" lon="10.742336030767337"><ele>212.0</ele><time>2026-04-26T15:51:39Z</time></trkpt><trkpt lat="43.30137862844666" lon="10.74251218798427"><ele>212.0</ele><time>2026-04-26T15:51:40Z</time></trkpt><trkpt lat="43.30144438363217" lon="10.742707804419634"><ele>212.0</ele><time>2026-04-26T15:51:41Z</time></trkpt><trkpt lat="43.30151019936137" lon="10.742905272474339"><ele>212.66666666666669</ele><time>2026-04-26T15:51:42Z</time></trkpt><trkpt lat="43.30157991390621" lon="10.743110318269085"><ele>213.33333333333331</ele><time>2026-04-26T15:51:43Z</time></trkpt><trkpt lat="43.301648061160726" lon="10.743310847782645"><ele>214.0</ele><time>2026-04-26T15:51:44Z</time></trkpt><trkpt lat="43.301706836423534" lon="10.743480820478547"><ele>212.25</ele><time>2026-04-26T15:51:45Z</time></trkpt><trkpt lat="43.301765622286105" lon="10.743642094578266"><ele>210.5</ele><time>2026-04-26T15:51:46Z</time></trkpt><trkpt lat="43.30183819084104" lon="10.743782056299331"><ele>208.75</ele><time>2026-04-26T15:51:47Z</time></trkpt><trkpt lat="43.301905472852" lon="10.743914716193077"><ele>207.0</ele><time>2026-04-26T15:51:48Z</time></trkpt><trkpt lat="43.30197848746972" lon="10.744011309649075"><ele>207.0</ele><time>2026-04-26T15:51:49Z</time></trkpt><trkpt lat="43.30206063777517" lon="10.744065010726658"><ele>207.0</ele><time>2026-04-26T15:51:50Z</time></trkpt><trkpt lat="43.302159510943646" lon="10.744094593685151"><ele>207.0</ele><time>2026-04-26T15:51:51Z</time></trkpt><trkpt lat="43.3022693092233" lon="10.74409627994765"><ele>207.0</ele><time>2026-04-26T15:51:52Z</time></trkpt><trkpt lat="43.3023659047438" lon="10.744140873874837"><ele>207.0</ele><time>2026-04-26T15:51:53Z</time></trkpt><trkpt lat="43.30245386469585" lon="10.744195229246346"><ele>208.0</ele><time>2026-04-26T15:51:54Z</time></trkpt><trkpt lat="43.30252138473176" lon="10.744296810457227"><ele>209.0</ele><time>2026-04-26T15:51:55Z</time></trkpt><trkpt lat="43.302578179687764" lon="10.744429091723456"><ele>210.0</ele><time>2026-04-26T15:51:56Z</time></trkpt><trkpt lat="43.30263457927876" lon="10.744530361774217"><ele>211.0</ele><time>2026-04-26T15:51:57Z</time></trkpt><trkpt lat="43.302737319322645" lon="10.74458465233997"><ele>212.0</ele><time>2026-04-26T15:51:58Z</time></trkpt><trkpt lat="43.302852808152025" lon="10.74463686806889"><ele>210.25</ele><time>2026-04-26T15:51:59Z</time></trkpt><trkpt lat="43.30299564797593" lon="10.7446927453546"><ele>208.5</ele><time>2026-04-26T15:52:00Z</time></trkpt><trkpt lat="43.30312488369821" lon="10.744762433521803"><ele>206.75</ele><time>2026-04-26T15:52:01Z</time></trkpt><trkpt lat="43.303250009160315" lon="10.744798306099181"><ele>205.0</ele><time>2026-04-26T15:52:02Z</time></trkpt><trkpt lat="43.303380839574935" lon="10.744810782373166"><ele>205.0</ele><time>2026-04-26T15:52:03Z</time></trkpt><trkpt lat="43.303534402426585" lon="10.744802582953433"><ele>205.0</ele><time>2026-04-26T15:52:04Z</time></trkpt><trkpt lat="43.30367030599626" lon="10.74479428712151"><ele>205.0</ele><time>2026-04-26T15:52:05Z</time></trkpt><trkpt lat="43.303800588231866" lon="10.744758960270453"><ele>205.0</ele><time>2026-04-26T15:52:06Z</time></trkpt><trkpt lat="43.303923994006055" lon="10.744673863168401"><ele>203.0</ele><time>2026-04-26T15:52:07Z</time></trkpt><trkpt lat="43.30404431817513" lon="10.744555921172347"><ele>201.0</ele><time>2026-04-26T15:52:08Z</time></trkpt><trkpt lat="43.30418010936808" lon="10.744434844079702"><ele>199.0</ele><time>2026-04-26T15:52:09Z</time></trkpt><trkpt lat="43.304305054374225" lon="10.744322567239772"><ele>199.0</ele><time>2026-04-26T15:52:10Z</time></trkpt><trkpt lat="43.304418835902666" lon="10.744230139193958"><ele>199.0</ele><time>2026-04-26T15:52:11Z</time></trkpt><trkpt lat="43.30450973455654" lon="10.744175359285201"><ele>199.0</ele><time>2026-04-26T15:52:12Z</time></trkpt><trkpt lat="43.30459229979354" lon="10.74414939357225"><ele>199.0</ele><time>2026-04-26T15:52:13Z</time></trkpt><trkpt lat="43.304668154912214" lon="10.744186360707372"><ele>199.0</ele><time>2026-04-26T15:52:14Z</time></trkpt><trkpt lat="43.3047274735725" lon="10.744275422494455"><ele>198.79999999999998</ele><time>2026-04-26T15:52:15Z</time></trkpt><trkpt lat="43.30481488343581" lon="10.744360078253683"><ele>198.6</ele><time>2026-04-26T15:52:16Z</time></trkpt><trkpt lat="43.304885988216924" lon="10.74444794517584"><ele>198.4</ele><time>2026-04-26T15:52:17Z</time></trkpt><trkpt lat="43.304975062000324" lon="10.744494118045354"><ele>198.2</ele><time>2026-04-26T15:52:18Z</time></trkpt><trkpt lat="43.305069524804594" lon="10.744479652233293"><ele>198.0</ele><time>2026-04-26T15:52:19Z</time></trkpt><trkpt lat="43.30516188942672" lon="10.744413487631881"><ele>198.0</ele><time>2026-04-26T15:52:20Z</time></trkpt><trkpt lat="43.30526919923903" lon="10.744292129620755"><ele>198.0</ele><time>2026-04-26T15:52:21Z</time></trkpt><trkpt lat="43.30540003875991" lon="10.744197808287938"><ele>198.0</ele><time>2026-04-26T15:52:22Z</time></trkpt><trkpt lat="43.305548609865944" lon="10.744120647334546"><ele>198.0</ele><time>2026-04-26T15:52:23Z</time></trkpt><trkpt lat="43.30568652223638" lon="10.744060713838106"><ele>197.0</ele><time>2026-04-26T15:52:24Z</time></trkpt><trkpt lat="43.30580078439921" lon="10.744003674174825"><ele>196.0</ele><time>2026-04-26T15:52:25Z</time></trkpt><trkpt lat="43.30590605827893" lon="10.74390378281514"><ele>195.0</ele><time>2026-04-26T15:52:26Z</time></trkpt><trkpt lat="43.30602067769258" lon="10.743766393725302"><ele>194.0</ele><time>2026-04-26T15:52:27Z</time></trkpt><trkpt lat="43.30614170612835" lon="10.743611060205083"><ele>193.0</ele><time>2026-04-26T15:52:28Z</time></trkpt><trkpt lat="43.30624763964529" lon="10.743472616558035"><ele>192.0</ele><time>2026-04-26T15:52:29Z</time></trkpt><trkpt lat="43.306345854532935" lon="10.74334236115968"><ele>191.0</ele><time>2026-04-26T15:52:30Z</time></trkpt><trkpt lat="43.306444757869286" lon="10.74322074174463"><ele>190.0</ele><time>2026-04-26T15:52:31Z</time></trkpt><trkpt lat="43.30654058659387" lon="10.74313249342866"><ele>190.0</ele><time>2026-04-26T15:52:32Z</time></trkpt><trkpt lat="43.30663208540564" lon="10.743090743687349"><ele>190.0</ele><time>2026-04-26T15:52:33Z</time></trkpt><trkpt lat="43.306726408867775" lon="10.743087085380546"><ele>190.0</ele><time>2026-04-26T15:52:34Z</time></trkpt><trkpt lat="43.30684921250396" lon="10.743108772406343"><ele>190.0</ele><time>2026-04-26T15:52:35Z</time></trkpt><trkpt lat="43.306990993031405" lon="10.74313951405605"><ele>190.0</ele><time>2026-04-26T15:52:36Z</time></trkpt><trkpt lat="43.307132509421756" lon="10.743145202470563"><ele>190.0</ele><time>2026-04-26T15:52:37Z</time></trkpt><trkpt lat="43.30727246029285" lon="10.74314185276818"><ele>190.0</ele><time>2026-04-26T15:52:38Z</time></trkpt><trkpt lat="43.3074322605216" lon="10.743097212696059"><ele>190.0</ele><time>2026-04-26T15:52:39Z</time></trkpt><trkpt lat="43.30763018636317" lon="10.743060191967173"><ele>187.66666666666669</ele><time>2026-04-26T15:52:40Z</time></trkpt><trkpt lat="43.307815123870704" lon="10.743007066939793"><ele>185.33333333333334</ele><time>2026-04-26T15:52:41Z</time></trkpt><trkpt lat="43.307973007927835" lon="10.742967446176944"><ele>183.0</ele><time>2026-04-26T15:52:42Z</time></trkpt><trkpt lat="43.30811681771462" lon="10.742931357319614"><ele>183.25</ele><time>2026-04-26T15:52:43Z</time></trkpt><trkpt lat="43.308253466040405" lon="10.742895751255423"><ele>183.5</ele><time>2026-04-26T15:52:44Z</time></trkpt><trkpt lat="43.30839022074588" lon="10.74285620299246"><ele>183.75</ele><time>2026-04-26T15:52:45Z</time></trkpt><trkpt lat="43.308523771036384" lon="10.74278408922308"><ele>184.0</ele><time>2026-04-26T15:52:46Z</time></trkpt><trkpt lat="43.30865653257846" lon="10.742690132006082"><ele>184.0</ele><time>2026-04-26T15:52:47Z</time></trkpt><trkpt lat="43.30879510182388" lon="10.742592275940892"><ele>184.0</ele><time>2026-04-26T15:52:48Z</time></trkpt><trkpt lat="43.30894047132015" lon="10.742489380383114"><ele>184.0</ele><time>2026-04-26T15:52:49Z</time></trkpt><trkpt lat="43.30908941022817" lon="10.742381009602337"><ele>184.66666666666669</ele><time>2026-04-26T15:52:50Z</time></trkpt><trkpt lat="43.30926098568672" lon="10.742262789726603"><ele>185.33333333333334</ele><time>2026-04-26T15:52:51Z</time></trkpt><trkpt lat="43.30941757004595" lon="10.742158574723994"><ele>186.0</ele><time>2026-04-26T15:52:52Z</time></trkpt><trkpt lat="43.309561501489235" lon="10.742077126013342"><ele>186.0</ele><time>2026-04-26T15:52:53Z</time></trkpt><trkpt lat="43.30970368216758" lon="10.742008974221731"><ele>186.0</ele><time>2026-04-26T15:52:54Z</time></trkpt><trkpt lat="43.30982746810782" lon="10.741927869351162"><ele>186.0</ele><time>2026-04-26T15:52:55Z</time></trkpt><trkpt lat="43.30993852144169" lon="10.741858738776704"><ele>186.0</ele><time>2026-04-26T15:52:56Z</time></trkpt><trkpt lat="43.31003756464367" lon="10.741760139499357"><ele>189.0</ele><time>2026-04-26T15:52:57Z</time></trkpt><trkpt lat="43.310154557306845" lon="10.741603695099984"><ele>192.0</ele><time>2026-04-26T15:52:58Z</time></trkpt><trkpt lat="43.310303692577406" lon="10.741474379270135"><ele>195.0</ele><time>2026-04-26T15:52:59Z</time></trkpt><trkpt lat="43.3104436231596" lon="10.741350558005506"><ele>195.0</ele><time>2026-04-26T15:53:00Z</time></trkpt><trkpt lat="43.31057059692182" lon="10.741241977857252"><ele>195.0</ele><time>2026-04-26T15:53:01Z</time></trkpt><trkpt lat="43.310693102330035" lon="10.74114613613427"><ele>195.0</ele><time>2026-04-26T15:53:02Z</time></trkpt><trkpt lat="43.31081692618296" lon="10.741084487999608"><ele>195.0</ele><time>2026-04-26T15:53:03Z</time></trkpt><trkpt lat="43.3109358240684" lon="10.741072780158534"><ele>191.0</ele><time>2026-04-26T15:53:04Z</time></trkpt><trkpt lat="43.31105522640593" lon="10.741087731781706"><ele>187.0</ele><time>2026-04-26T15:53:05Z</time></trkpt><trkpt lat="43.311189407833886" lon="10.741134609440767"><ele>183.0</ele><time>2026-04-26T15:53:06Z</time></trkpt><trkpt lat="43.31134080852604" lon="10.741204943211574"><ele>179.0</ele><time>2026-04-26T15:53:07Z</time></trkpt><trkpt lat="43.31149479127724" lon="10.741266663053652"><ele>178.33333333333331</ele><time>2026-04-26T15:53:08Z</time></trkpt><trkpt lat="43.311624152263256" lon="10.741377811068077"><ele>177.66666666666666</ele><time>2026-04-26T15:53:09Z</time></trkpt><trkpt lat="43.311764951865314" lon="10.741458273241614"><ele>177.0</ele><time>2026-04-26T15:53:10Z</time></trkpt><trkpt lat="43.31190319572667" lon="10.741527521176147"><ele>177.0</ele><time>2026-04-26T15:53:11Z</time></trkpt><trkpt lat="43.31204027064337" lon="10.741578961392904"><ele>177.0</ele><time>2026-04-26T15:53:12Z</time></trkpt><trkpt lat="43.31217037703435" lon="10.741643354662596"><ele>177.0</ele><time>2026-04-26T15:53:13Z</time></trkpt><trkpt lat="43.31231224533786" lon="10.741699850368791"><ele>177.0</ele><time>2026-04-26T15:53:14Z</time></trkpt><trkpt lat="43.31244956639655" lon="10.741736235259943"><ele>177.39999999999998</ele><time>2026-04-26T15:53:15Z</time></trkpt><trkpt lat="43.312580109484756" lon="10.741753829855474"><ele>177.79999999999998</ele><time>2026-04-26T15:53:16Z</time></trkpt><trkpt lat="43.31269854385459" lon="10.741768491600201"><ele>178.2</ele><time>2026-04-26T15:53:17Z</time></trkpt><trkpt lat="43.31279439493157" lon="10.741824431032882"><ele>178.6</ele><time>2026-04-26T15:53:18Z</time></trkpt><trkpt lat="43.31287855438833" lon="10.741867669431759"><ele>179.0</ele><time>2026-04-26T15:53:19Z</time></trkpt><trkpt lat="43.312952736531706" lon="10.741980052396029"><ele>176.25</ele><time>2026-04-26T15:53:20Z</time></trkpt><trkpt lat="43.31301745341804" lon="10.742155549303273"><ele>173.5</ele><time>2026-04-26T15:53:21Z</time></trkpt><trkpt lat="43.31312623366942" lon="10.742310747465048"><ele>170.75</ele><time>2026-04-26T15:53:22Z</time></trkpt><trkpt lat="43.31322089858828" lon="10.742452337757793"><ele>168.0</ele><time>2026-04-26T15:53:23Z</time></trkpt><trkpt lat="43.31333617938789" lon="10.742556134443825"><ele>168.0</ele><time>2026-04-26T15:53:24Z</time></trkpt><trkpt lat="43.31344425580363" lon="10.742655501792907"><ele>168.0</ele><time>2026-04-26T15:53:25Z</time></trkpt><trkpt lat="43.313542541980944" lon="10.742751248874514"><ele>168.0</ele><time>2026-04-26T15:53:26Z</time></trkpt><trkpt lat="43.31360135828979" lon="10.742864411432102"><ele>168.0</ele><time>2026-04-26T15:53:27Z</time></trkpt><trkpt lat="43.31366518226629" lon="10.742960113307664"><ele>168.0</ele><time>2026-04-26T15:53:28Z</time></trkpt><trkpt lat="43.313691414933324" lon="10.74308462379155"><ele>165.75</ele><time>2026-04-26T15:53:29Z</time></trkpt><trkpt lat="43.313674813060175" lon="10.743226518372582"><ele>163.5</ele><time>2026-04-26T15:53:30Z</time></trkpt><trkpt lat="43.31364672227015" lon="10.743385479718844"><ele>161.25</ele><time>2026-04-26T15:53:31Z</time></trkpt><trkpt lat="43.31360128764913" lon="10.743590757731619"><ele>159.0</ele><time>2026-04-26T15:53:32Z</time></trkpt><trkpt lat="43.31354378672543" lon="10.743813185575497"><ele>158.75</ele><time>2026-04-26T15:53:33Z</time></trkpt><trkpt lat="43.31350332669066" lon="10.744002947791989"><ele>158.5</ele><time>2026-04-26T15:53:34Z</time></trkpt><trkpt lat="43.31346384702427" lon="10.744175241422438"><ele>158.25</ele><time>2026-04-26T15:53:35Z</time></trkpt><trkpt lat="43.31342716092293" lon="10.74432914571089"><ele>158.0</ele><time>2026-04-26T15:53:36Z</time></trkpt><trkpt lat="43.31340617717124" lon="10.744447670424234"><ele>157.5</ele><time>2026-04-26T15:53:37Z</time></trkpt><trkpt lat="43.31341352127322" lon="10.744545137773967"><ele>157.0</ele><time>2026-04-26T15:53:38Z</time></trkpt><trkpt lat="43.31344994150875" lon="10.744636144631698"><ele>156.5</ele><time>2026-04-26T15:53:39Z</time></trkpt><trkpt lat="43.31349469477565" lon="10.744722249125061"><ele>156.0</ele><time>2026-04-26T15:53:40Z</time></trkpt><trkpt lat="43.313590911857524" lon="10.74475434144329"><ele>155.5</ele><time>2026-04-26T15:53:41Z</time></trkpt><trkpt lat="43.31369451449581" lon="10.74474346372008"><ele>155.0</ele><time>2026-04-26T15:53:42Z</time></trkpt><trkpt lat="43.3138075104289" lon="10.74465970072503"><ele>154.33333333333331</ele><time>2026-04-26T15:53:43Z</time></trkpt><trkpt lat="43.313945429726076" lon="10.744570574079004"><ele>153.66666666666666</ele><time>2026-04-26T15:53:44Z</time></trkpt><trkpt lat="43.31411038615816" lon="10.744493800692043"><ele>153.0</ele><time>2026-04-26T15:53:45Z</time></trkpt><trkpt lat="43.31425364800264" lon="10.744400629452821"><ele>154.33333333333334</ele><time>2026-04-26T15:53:46Z</time></trkpt><trkpt lat="43.31439143944832" lon="10.744279966321137"><ele>155.66666666666669</ele><time>2026-04-26T15:53:47Z</time></trkpt><trkpt lat="43.31451349178272" lon="10.744112167663257"><ele>157.0</ele><time>2026-04-26T15:53:48Z</time></trkpt><trkpt lat="43.31466587173429" lon="10.743956445738045"><ele>154.0</ele><time>2026-04-26T15:53:49Z</time></trkpt><trkpt lat="43.31480484645893" lon="10.743794252855777"><ele>151.0</ele><time>2026-04-26T15:53:50Z</time></trkpt><trkpt lat="43.314918224537536" lon="10.74362802898968"><ele>148.0</ele><time>2026-04-26T15:53:51Z</time></trkpt><trkpt lat="43.31504192614531" lon="10.743500857549655"><ele>148.0</ele><time>2026-04-26T15:53:52Z</time></trkpt><trkpt lat="43.31514664289618" lon="10.743365624074071"><ele>148.0</ele><time>2026-04-26T15:53:53Z</time></trkpt><trkpt lat="43.315249073502045" lon="10.743235908557573"><ele>148.0</ele><time>2026-04-26T15:53:54Z</time></trkpt><trkpt lat="43.31535498388219" lon="10.743106758764235"><ele>148.0</ele><time>2026-04-26T15:53:55Z</time></trkpt><trkpt lat="43.31546134543147" lon="10.742981493245892"><ele>148.0</ele><time>2026-04-26T15:53:56Z</time></trkpt><trkpt lat="43.31555983149613" lon="10.742853549955223"><ele>148.0</ele><time>2026-04-26T15:53:57Z</time></trkpt><trkpt lat="43.315630981273564" lon="10.7427273332275"><ele>148.0</ele><time>2026-04-26T15:53:58Z</time></trkpt><trkpt lat="43.315688625195" lon="10.742591601073284"><ele>148.0</ele><time>2026-04-26T15:53:59Z</time></trkpt><trkpt lat="43.31573393604318" lon="10.742431923662588"><ele>146.0</ele><time>2026-04-26T15:54:00Z</time></trkpt><trkpt lat="43.31577321108059" lon="10.742265709351283"><ele>144.0</ele><time>2026-04-26T15:54:01Z</time></trkpt><trkpt lat="43.31580003408787" lon="10.742126748135956"><ele>142.0</ele><time>2026-04-26T15:54:02Z</time></trkpt><trkpt lat="43.31583232665715" lon="10.742028586329978"><ele>140.0</ele><time>2026-04-26T15:54:03Z</time></trkpt><trkpt lat="43.3158646865092" lon="10.741946780059415"><ele>138.0</ele><time>2026-04-26T15:54:04Z</time></trkpt><trkpt lat="43.31593787878214" lon="10.741909125749716"><ele>138.0</ele><time>2026-04-26T15:54:05Z</time></trkpt><trkpt lat="43.31601582354429" lon="10.741962735054498"><ele>138.0</ele><time>2026-04-26T15:54:06Z</time></trkpt><trkpt lat="43.31608429482413" lon="10.7420310195454"><ele>138.0</ele><time>2026-04-26T15:54:07Z</time></trkpt><trkpt lat="43.316154309001874" lon="10.74213416542522"><ele>138.0</ele><time>2026-04-26T15:54:08Z</time></trkpt><trkpt lat="43.316231667007564" lon="10.742280189057707"><ele>138.0</ele><time>2026-04-26T15:54:09Z</time></trkpt><trkpt lat="43.31631860513327" lon="10.742453358110403"><ele>134.0</ele><time>2026-04-26T15:54:10Z</time></trkpt><trkpt lat="43.31643400123332" lon="10.742655505847893"><ele>130.0</ele><time>2026-04-26T15:54:11Z</time></trkpt><trkpt lat="43.316543793678306" lon="10.74287784129929"><ele>126.0</ele><time>2026-04-26T15:54:12Z</time></trkpt><trkpt lat="43.31664212583454" lon="10.743067841892291"><ele>125.0</ele><time>2026-04-26T15:54:13Z</time></trkpt><trkpt lat="43.316719088818594" lon="10.743259721706458"><ele>124.0</ele><time>2026-04-26T15:54:14Z</time></trkpt><trkpt lat="43.31680405148563" lon="10.743434568506906"><ele>123.0</ele><time>2026-04-26T15:54:15Z</time></trkpt><trkpt lat="43.31688640641023" lon="10.743600017957286"><ele>121.5</ele><time>2026-04-26T15:54:16Z</time></trkpt><trkpt lat="43.31697771030147" lon="10.743749549981269"><ele>120.0</ele><time>2026-04-26T15:54:17Z</time></trkpt><trkpt lat="43.31707840376651" lon="10.74387672399697"><ele>118.5</ele><time>2026-04-26T15:54:18Z</time></trkpt><trkpt lat="43.31718886732273" lon="10.743977259606602"><ele>117.0</ele><time>2026-04-26T15:54:19Z</time></trkpt><trkpt lat="43.31730521112751" lon="10.744041813786641"><ele>117.0</ele><time>2026-04-26T15:54:20Z</time></trkpt><trkpt lat="43.31742318543283" lon="10.74407519009801"><ele>117.0</ele><time>2026-04-26T15:54:21Z</time></trkpt><trkpt lat="43.317538687989654" lon="10.744044591903544"><ele>117.0</ele><time>2026-04-26T15:54:22Z</time></trkpt><trkpt lat="43.31765565413932" lon="10.744008717869821"><ele>117.0</ele><time>2026-04-26T15:54:23Z</time></trkpt><trkpt lat="43.31775854666509" lon="10.743889047791937"><ele>117.0</ele><time>2026-04-26T15:54:24Z</time></trkpt><trkpt lat="43.31787313082652" lon="10.743750714092112"><ele>117.0</ele><time>2026-04-26T15:54:25Z</time></trkpt><trkpt lat="43.31801674723524" lon="10.743608797744697"><ele>117.0</ele><time>2026-04-26T15:54:26Z</time></trkpt><trkpt lat="43.318149846935505" lon="10.743455957619442"><ele>117.25</ele><time>2026-04-26T15:54:27Z</time></trkpt><trkpt lat="43.31826452055861" lon="10.743324276406955"><ele>117.5</ele><time>2026-04-26T15:54:28Z</time></trkpt><trkpt lat="43.318369826056774" lon="10.743197233433152"><ele>117.75</ele><time>2026-04-26T15:54:29Z</time></trkpt><trkpt lat="43.31845879300073" lon="10.743098149915424"><ele>118.0</ele><time>2026-04-26T15:54:30Z</time></trkpt><trkpt lat="43.318533278085475" lon="10.743035997228308"><ele>118.0</ele><time>2026-04-26T15:54:31Z</time></trkpt><trkpt lat="43.318594139235195" lon="10.742994422996656"><ele>118.00000000000001</ele><time>2026-04-26T15:54:32Z</time></trkpt><trkpt lat="43.31866701654935" lon="10.743075850881793"><ele>118.00000000000001</ele><time>2026-04-26T15:54:33Z</time></trkpt><trkpt lat="43.318727400466166" lon="10.743161695379918"><ele>118.0</ele><time>2026-04-26T15:54:34Z</time></trkpt><trkpt lat="43.3187828920097" lon="10.743294248004226"><ele>118.0</ele><time>2026-04-26T15:54:35Z</time></trkpt><trkpt lat="43.31885750485509" lon="10.74342369093452"><ele>119.0</ele><time>2026-04-26T15:54:36Z</time></trkpt><trkpt lat="43.31895018079318" lon="10.743522203099506"><ele>120.0</ele><time>2026-04-26T15:54:37Z</time></trkpt><trkpt lat="43.31904018659018" lon="10.743605657587851"><ele>121.0</ele><time>2026-04-26T15:54:38Z</time></trkpt><trkpt lat="43.31914720364557" lon="10.743673499957373"><ele>122.0</ele><time>2026-04-26T15:54:39Z</time></trkpt><trkpt lat="43.3192989969213" lon="10.74373990842506"><ele>117.66666666666666</ele><time>2026-04-26T15:54:40Z</time></trkpt><trkpt lat="43.31946230308779" lon="10.74380481392565"><ele>113.33333333333334</ele><time>2026-04-26T15:54:41Z</time></trkpt><trkpt lat="43.3196208844494" lon="10.743842101581317"><ele>109.0</ele><time>2026-04-26T15:54:42Z</time></trkpt><trkpt lat="43.319785508757946" lon="10.74386184491633"><ele>108.25</ele><time>2026-04-26T15:54:43Z</time></trkpt><trkpt lat="43.31994315888295" lon="10.743874579304835"><ele>107.5</ele><time>2026-04-26T15:54:44Z</time></trkpt><trkpt lat="43.320078162843274" lon="10.743876949805431"><ele>106.75</ele><time>2026-04-26T15:54:45Z</time></trkpt><trkpt lat="43.320200039553086" lon="10.74386617074901"><ele>106.0</ele><time>2026-04-26T15:54:46Z</time></trkpt><trkpt lat="43.320296402871534" lon="10.743837789433343"><ele>106.0</ele><time>2026-04-26T15:54:47Z</time></trkpt><trkpt lat="43.32038534339893" lon="10.743778599325445"><ele>106.0</ele><time>2026-04-26T15:54:48Z</time></trkpt><trkpt lat="43.32045185465215" lon="10.7436885961229"><ele>106.0</ele><time>2026-04-26T15:54:49Z</time></trkpt><trkpt lat="43.32049445537875" lon="10.743558191150974"><ele>106.0</ele><time>2026-04-26T15:54:50Z</time></trkpt><trkpt lat="43.320562878864635" lon="10.743441018790566"><ele>106.0</ele><time>2026-04-26T15:54:51Z</time></trkpt><trkpt lat="43.320638764921696" lon="10.743332869514868"><ele>107.5</ele><time>2026-04-26T15:54:52Z</time></trkpt><trkpt lat="43.320749019800076" lon="10.743227824726775"><ele>109.0</ele><time>2026-04-26T15:54:53Z</time></trkpt><trkpt lat="43.32087031126376" lon="10.743102069296581"><ele>110.5</ele><time>2026-04-26T15:54:54Z</time></trkpt><trkpt lat="43.321006763209205" lon="10.743021314575818"><ele>112.0</ele><time>2026-04-26T15:54:55Z</time></trkpt><trkpt lat="43.3211171644397" lon="10.742907045111242"><ele>112.0</ele><time>2026-04-26T15:54:56Z</time></trkpt><trkpt lat="43.321234754289286" lon="10.742806230550503"><ele>112.0</ele><time>2026-04-26T15:54:57Z</time></trkpt><trkpt lat="43.32134240817817" lon="10.742644681451361"><ele>112.0</ele><time>2026-04-26T15:54:58Z</time></trkpt><trkpt lat="43.321466304218376" lon="10.742464580199625"><ele>108.0</ele><time>2026-04-26T15:54:59Z</time></trkpt><trkpt lat="43.321570993051715" lon="10.742283983764693"><ele>104.0</ele><time>2026-04-26T15:55:00Z</time></trkpt><trkpt lat="43.321663453924494" lon="10.742123188916302"><ele>100.0</ele><time>2026-04-26T15:55:01Z</time></trkpt><trkpt lat="43.32175180649466" lon="10.741976453904421"><ele>102.25</ele><time>2026-04-26T15:55:02Z</time></trkpt><trkpt lat="43.32184489596684" lon="10.741841756292473"><ele>104.5</ele><time>2026-04-26T15:55:03Z</time></trkpt><trkpt lat="43.321948177162206" lon="10.741725858498349"><ele>106.75</ele><time>2026-04-26T15:55:04Z</time></trkpt><trkpt lat="43.322065706885816" lon="10.741617546681399"><ele>109.0</ele><time>2026-04-26T15:55:05Z</time></trkpt><trkpt lat="43.322194225253064" lon="10.741496064205492"><ele>102.66666666666667</ele><time>2026-04-26T15:55:06Z</time></trkpt><trkpt lat="43.32232581708442" lon="10.74136764039375"><ele>96.33333333333334</ele><time>2026-04-26T15:55:07Z</time></trkpt><trkpt lat="43.32244742951162" lon="10.74124804867677"><ele>90.0</ele><time>2026-04-26T15:55:08Z</time></trkpt><trkpt lat="43.32256936904167" lon="10.741130289930783"><ele>92.0</ele><time>2026-04-26T15:55:09Z</time></trkpt><trkpt lat="43.32268700975096" lon="10.741016715749081"><ele>94.0</ele><time>2026-04-26T15:55:10Z</time></trkpt><trkpt lat="43.32280305754041" lon="10.740904800454846"><ele>96.0</ele><time>2026-04-26T15:55:11Z</time></trkpt><trkpt lat="43.32292682351862" lon="10.74079282417763"><ele>98.0</ele><time>2026-04-26T15:55:12Z</time></trkpt><trkpt lat="43.323049259227886" lon="10.740689082396914"><ele>94.33333333333333</ele><time>2026-04-26T15:55:13Z</time></trkpt><trkpt lat="43.32318183991851" lon="10.740581613465892"><ele>90.66666666666666</ele><time>2026-04-26T15:55:14Z</time></trkpt><trkpt lat="43.3233321925184" lon="10.740469919315059"><ele>87.0</ele><time>2026-04-26T15:55:15Z</time></trkpt><trkpt lat="43.32349529102891" lon="10.740356864503559"><ele>87.0</ele><time>2026-04-26T15:55:16Z</time></trkpt><trkpt lat="43.32367171314991" lon="10.740229653118963"><ele>87.0</ele><time>2026-04-26T15:55:17Z</time></trkpt><trkpt lat="43.32383651745025" lon="10.740110818886539"><ele>87.0</ele><time>2026-04-26T15:55:18Z</time></trkpt><trkpt lat="43.32399978490726" lon="10.739994991495493"><ele>87.0</ele><time>2026-04-26T15:55:19Z</time></trkpt><trkpt lat="43.324155784483914" lon="10.739894262500108"><ele>87.0</ele><time>2026-04-26T15:55:20Z</time></trkpt><trkpt lat="43.32430757406839" lon="10.739805373678951"><ele>87.0</ele><time>2026-04-26T15:55:21Z</time></trkpt><trkpt lat="43.3244456564205" lon="10.739724112726988"><ele>87.0</ele><time>2026-04-26T15:55:22Z</time></trkpt><trkpt lat="43.324579629575766" lon="10.739648648897864"><ele>87.0</ele><time>2026-04-26T15:55:23Z</time></trkpt><trkpt lat="43.324703565305875" lon="10.739566986173378"><ele>87.0</ele><time>2026-04-26T15:55:24Z</time></trkpt><trkpt lat="43.32482280472447" lon="10.739509284414401"><ele>87.0</ele><time>2026-04-26T15:55:25Z</time></trkpt><trkpt lat="43.32491530532157" lon="10.739444589918484"><ele>87.0</ele><time>2026-04-26T15:55:26Z</time></trkpt><trkpt lat="43.32498993464393" lon="10.739381171915902"><ele>87.0</ele><time>2026-04-26T15:55:27Z</time></trkpt><trkpt lat="43.32502531851659" lon="10.739251833512938"><ele>87.0</ele><time>2026-04-26T15:55:28Z</time></trkpt><trkpt lat="43.32506769024268" lon="10.739124557682407"><ele>87.0</ele><time>2026-04-26T15:55:29Z</time></trkpt><trkpt lat="43.325150475864326" lon="10.738996638464945"><ele>87.0</ele><time>2026-04-26T15:55:30Z</time></trkpt><trkpt lat="43.32522152703163" lon="10.738855673006396"><ele>87.0</ele><time>2026-04-26T15:55:31Z</time></trkpt><trkpt lat="43.325286059320334" lon="10.738747091220604"><ele>87.0</ele><time>2026-04-26T15:55:32Z</time></trkpt><trkpt lat="43.32534592886051" lon="10.738673752288086"><ele>87.0</ele><time>2026-04-26T15:55:33Z</time></trkpt><trkpt lat="43.3254358953788" lon="10.738660573230925"><ele>87.0</ele><time>2026-04-26T15:55:34Z</time></trkpt><trkpt lat="43.325534297404644" lon="10.738741599266598"><ele>87.0</ele><time>2026-04-26T15:55:35Z</time></trkpt><trkpt lat="43.325634756406586" lon="10.738782709699535"><ele>87.25</ele><time>2026-04-26T15:55:36Z</time></trkpt><trkpt lat="43.32574894609155" lon="10.738762881748695"><ele>87.5</ele><time>2026-04-26T15:55:37Z</time></trkpt><trkpt lat="43.3258774941202" lon="10.738705858224042"><ele>87.75</ele><time>2026-04-26T15:55:38Z</time></trkpt><trkpt lat="43.326022221280866" lon="10.738614474212323"><ele>88.0</ele><time>2026-04-26T15:55:39Z</time></trkpt><trkpt lat="43.32618913015027" lon="10.738539697909541"><ele>88.0</ele><time>2026-04-26T15:55:40Z</time></trkpt><trkpt lat="43.32635446987247" lon="10.738448919334104"><ele>88.0</ele><time>2026-04-26T15:55:41Z</time></trkpt><trkpt lat="43.326517458624714" lon="10.738359042841033"><ele>88.0</ele><time>2026-04-26T15:55:42Z</time></trkpt><trkpt lat="43.326672544822955" lon="10.738272256293595"><ele>85.5</ele><time>2026-04-26T15:55:43Z</time></trkpt><trkpt lat="43.32682313813141" lon="10.738187984014342"><ele>83.0</ele><time>2026-04-26T15:55:44Z</time></trkpt><trkpt lat="43.32695390075969" lon="10.73811480897165"><ele>80.5</ele><time>2026-04-26T15:55:45Z</time></trkpt><trkpt lat="43.32706176694535" lon="10.738050411431903"><ele>78.0</ele><time>2026-04-26T15:55:46Z</time></trkpt><trkpt lat="43.32714750206699" lon="10.738001385104136"><ele>78.0</ele><time>2026-04-26T15:55:47Z</time></trkpt><trkpt lat="43.327218511300835" lon="10.737953082683214"><ele>78.0</ele><time>2026-04-26T15:55:48Z</time></trkpt><trkpt lat="43.327293280096434" lon="10.737960833516766"><ele>78.0</ele><time>2026-04-26T15:55:49Z</time></trkpt><trkpt lat="43.32739703980489" lon="10.737898810498884"><ele>78.0</ele><time>2026-04-26T15:55:50Z</time></trkpt><trkpt lat="43.32750159219296" lon="10.737807722740627"><ele>78.0</ele><time>2026-04-26T15:55:51Z</time></trkpt><trkpt lat="43.32765013549508" lon="10.737715822137426"><ele>78.0</ele><time>2026-04-26T15:55:52Z</time></trkpt><trkpt lat="43.327829766788945" lon="10.737633020831334"><ele>78.0</ele><time>2026-04-26T15:55:53Z</time></trkpt><trkpt lat="43.32800311665742" lon="10.737517656811804"><ele>78.0</ele><time>2026-04-26T15:55:54Z</time></trkpt><trkpt lat="43.32818745405891" lon="10.737434038116913"><ele>77.33333333333333</ele><time>2026-04-26T15:55:55Z</time></trkpt><trkpt lat="43.328348984444744" lon="10.737345256715775"><ele>76.66666666666666</ele><time>2026-04-26T15:55:56Z</time></trkpt><trkpt lat="43.32850450477418" lon="10.737261439799754"><ele>76.0</ele><time>2026-04-26T15:55:57Z</time></trkpt><trkpt lat="43.32865568774378" lon="10.737179960490508"><ele>76.0</ele><time>2026-04-26T15:55:58Z</time></trkpt><trkpt lat="43.32880667808514" lon="10.737075701203272"><ele>76.0</ele><time>2026-04-26T15:55:59Z</time></trkpt><trkpt lat="43.328961002024926" lon="10.736996856713073"><ele>76.0</ele><time>2026-04-26T15:56:00Z</time></trkpt><trkpt lat="43.32910398222299" lon="10.736916842422572"><ele>75.0</ele><time>2026-04-26T15:56:01Z</time></trkpt><trkpt lat="43.32924625332309" lon="10.736857752168483"><ele>74.0</ele><time>2026-04-26T15:56:02Z</time></trkpt><trkpt lat="43.32938258660781" lon="10.736782529997685"><ele>73.0</ele><time>2026-04-26T15:56:03Z</time></trkpt><trkpt lat="43.3295240333411" lon="10.736682691664306"><ele>73.0</ele><time>2026-04-26T15:56:04Z</time></trkpt><trkpt lat="43.329665259971016" lon="10.73660952526929"><ele>73.0</ele><time>2026-04-26T15:56:05Z</time></trkpt><trkpt lat="43.32980018025134" lon="10.736539989512417"><ele>73.0</ele><time>2026-04-26T15:56:06Z</time></trkpt><trkpt lat="43.329923688673" lon="10.736465461489523"><ele>73.0</ele><time>2026-04-26T15:56:07Z</time></trkpt><trkpt lat="43.330046995412424" lon="10.73639685049919"><ele>72.8</ele><time>2026-04-26T15:56:08Z</time></trkpt><trkpt lat="43.330163117160126" lon="10.73633638894654"><ele>72.6</ele><time>2026-04-26T15:56:09Z</time></trkpt><trkpt lat="43.33026966185141" lon="10.736291010625889"><ele>72.4</ele><time>2026-04-26T15:56:10Z</time></trkpt><trkpt lat="43.330356565639356" lon="10.736253522293183"><ele>72.2</ele><time>2026-04-26T15:56:11Z</time></trkpt><trkpt lat="43.33042817821804" lon="10.736218796516418"><ele>72.0</ele><time>2026-04-26T15:56:12Z</time></trkpt><trkpt lat="43.33048966755957" lon="10.736184282857307"><ele>70.4</ele><time>2026-04-26T15:56:13Z</time></trkpt><trkpt lat="43.330587387547126" lon="10.736187716566066"><ele>68.80000000000001</ele><time>2026-04-26T15:56:15Z</time></trkpt><trkpt lat="43.33066762504472" lon="10.736313812157148"><ele>67.2</ele><time>2026-04-26T15:56:17Z</time></trkpt><trkpt lat="43.33070657009578" lon="10.736433868132005"><ele>65.60000000000001</ele><time>2026-04-26T15:56:18Z</time></trkpt><trkpt lat="43.330740468787994" lon="10.73657491010093"><ele>64.0</ele><time>2026-04-26T15:56:19Z</time></trkpt><trkpt lat="43.33077819450447" lon="10.736732500175087"><ele>63.5</ele><time>2026-04-26T15:56:20Z</time></trkpt><trkpt lat="43.33082415945913" lon="10.736887863207736"><ele>63.0</ele><time>2026-04-26T15:56:21Z</time></trkpt><trkpt lat="43.33087417223781" lon="10.737059125958801"><ele>62.5</ele><time>2026-04-26T15:56:22Z</time></trkpt><trkpt lat="43.33093409534301" lon="10.737225177980012"><ele>62.0</ele><time>2026-04-26T15:56:23Z</time></trkpt><trkpt lat="43.33101033083404" lon="10.73737390250935"><ele>62.0</ele><time>2026-04-26T15:56:24Z</time></trkpt><trkpt lat="43.33109109079934" lon="10.737502263637648"><ele>62.0</ele><time>2026-04-26T15:56:25Z</time></trkpt><trkpt lat="43.331169709644506" lon="10.737620969651001"><ele>62.0</ele><time>2026-04-26T15:56:26Z</time></trkpt><trkpt lat="43.33128100982345" lon="10.73772624766597"><ele>62.0</ele><time>2026-04-26T15:56:27Z</time></trkpt><trkpt lat="43.331401816423565" lon="10.73781717873661"><ele>58.66666666666667</ele><time>2026-04-26T15:56:28Z</time></trkpt><trkpt lat="43.33154046271157" lon="10.737878627288847"><ele>55.33333333333333</ele><time>2026-04-26T15:56:29Z</time></trkpt><trkpt lat="43.33168236888418" lon="10.737983112480128"><ele>52.0</ele><time>2026-04-26T15:56:30Z</time></trkpt><trkpt lat="43.33183102439246" lon="10.73807016122197"><ele>52.0</ele><time>2026-04-26T15:56:31Z</time></trkpt><trkpt lat="43.33198692803348" lon="10.738159558949421"><ele>52.0</ele><time>2026-04-26T15:56:32Z</time></trkpt><trkpt lat="43.33214752321001" lon="10.738230161742335"><ele>52.0</ele><time>2026-04-26T15:56:33Z</time></trkpt><trkpt lat="43.332296648215944" lon="10.738323639122411"><ele>52.33333333333333</ele><time>2026-04-26T15:56:34Z</time></trkpt><trkpt lat="43.33244600210757" lon="10.738414859945685"><ele>52.66666666666667</ele><time>2026-04-26T15:56:35Z</time></trkpt><trkpt lat="43.332597911304674" lon="10.738498698380806"><ele>53.0</ele><time>2026-04-26T15:56:36Z</time></trkpt><trkpt lat="43.332749521896176" lon="10.738580974294544"><ele>53.0</ele><time>2026-04-26T15:56:37Z</time></trkpt><trkpt lat="43.33289057232882" lon="10.73865822169406"><ele>53.0</ele><time>2026-04-26T15:56:38Z</time></trkpt><trkpt lat="43.33302385481479" lon="10.738738823432634"><ele>53.0</ele><time>2026-04-26T15:56:39Z</time></trkpt><trkpt lat="43.33313572013183" lon="10.738853647691728"><ele>53.0</ele><time>2026-04-26T15:56:40Z</time></trkpt><trkpt lat="43.33323797147276" lon="10.738971988131773"><ele>52.75</ele><time>2026-04-26T15:56:41Z</time></trkpt><trkpt lat="43.333322975871845" lon="10.739103076164445"><ele>52.5</ele><time>2026-04-26T15:56:42Z</time></trkpt><trkpt lat="43.33340153590661" lon="10.739247933229905"><ele>52.25</ele><time>2026-04-26T15:56:43Z</time></trkpt><trkpt lat="43.3334805910201" lon="10.739389993492402"><ele>52.0</ele><time>2026-04-26T15:56:44Z</time></trkpt><trkpt lat="43.33356625894831" lon="10.739538134532067"><ele>52.0</ele><time>2026-04-26T15:56:45Z</time></trkpt><trkpt lat="43.3336565668494" lon="10.739684235536693"><ele>52.0</ele><time>2026-04-26T15:56:46Z</time></trkpt><trkpt lat="43.333755275322574" lon="10.739849572839415"><ele>52.0</ele><time>2026-04-26T15:56:47Z</time></trkpt><trkpt lat="43.33384743274064" lon="10.740008844065065"><ele>52.0</ele><time>2026-04-26T15:56:48Z</time></trkpt><trkpt lat="43.333938484418276" lon="10.740155283000565"><ele>51.75</ele><time>2026-04-26T15:56:49Z</time></trkpt><trkpt lat="43.33401320358584" lon="10.740309593881603"><ele>51.5</ele><time>2026-04-26T15:56:50Z</time></trkpt><trkpt lat="43.33409243889629" lon="10.740446282286186"><ele>51.25</ele><time>2026-04-26T15:56:51Z</time></trkpt><trkpt lat="43.334170173014236" lon="10.740580380989144"><ele>51.0</ele><time>2026-04-26T15:56:52Z</time></trkpt><trkpt lat="43.33424346196284" lon="10.740706811354132"><ele>51.0</ele><time>2026-04-26T15:56:53Z</time></trkpt><trkpt lat="43.33430949989743" lon="10.740819560853721"><ele>51.0</ele><time>2026-04-26T15:56:54Z</time></trkpt><trkpt lat="43.33438332484827" lon="10.740944696770109"><ele>51.0</ele><time>2026-04-26T15:56:55Z</time></trkpt><trkpt lat="43.3344539719507" lon="10.741063483914232"><ele>51.0</ele><time>2026-04-26T15:56:56Z</time></trkpt><trkpt lat="43.33452228367034" lon="10.741176949710969"><ele>51.0</ele><time>2026-04-26T15:56:57Z</time></trkpt><trkpt lat="43.3345870580452" lon="10.741284539982917"><ele>51.199999999999996</ele><time>2026-04-26T15:56:58Z</time></trkpt><trkpt lat="43.334650281023436" lon="10.741389553350917"><ele>51.4</ele><time>2026-04-26T15:56:59Z</time></trkpt><trkpt lat="43.33472151385718" lon="10.741472986448017"><ele>51.6</ele><time>2026-04-26T15:57:00Z</time></trkpt><trkpt lat="43.334776980191236" lon="10.741575197076864"><ele>51.8</ele><time>2026-04-26T15:57:01Z</time></trkpt><trkpt lat="43.334845515456706" lon="10.741695828911977"><ele>52.0</ele><time>2026-04-26T15:57:02Z</time></trkpt><trkpt lat="43.33491575966632" lon="10.741818478070725"><ele>52.33333333333333</ele><time>2026-04-26T15:57:03Z</time></trkpt><trkpt lat="43.334978772847506" lon="10.741917688052691"><ele>52.666666666666664</ele><time>2026-04-26T15:57:04Z</time></trkpt><trkpt lat="43.33503415409818" lon="10.742007836036041"><ele>53.0</ele><time>2026-04-26T15:57:05Z</time></trkpt><trkpt lat="43.33507979286193" lon="10.742091346055854"><ele>53.33333333333333</ele><time>2026-04-26T15:57:06Z</time></trkpt><trkpt lat="43.335123477160714" lon="10.742169819464921"><ele>53.666666666666664</ele><time>2026-04-26T15:57:07Z</time></trkpt><trkpt lat="43.33516181370432" lon="10.742239949728228"><ele>54.0</ele><time>2026-04-26T15:57:08Z</time></trkpt><trkpt lat="43.33520379789376" lon="10.742307471948708"><ele>54.0</ele><time>2026-04-26T15:57:09Z</time></trkpt><trkpt lat="43.33524767538763" lon="10.742379696367466"><ele>54.0</ele><time>2026-04-26T15:57:10Z</time></trkpt><trkpt lat="43.33529476412377" lon="10.742447901068296"><ele>54.0</ele><time>2026-04-26T15:57:11Z</time></trkpt><trkpt lat="43.33533863430363" lon="10.74251104398772"><ele>54.0</ele><time>2026-04-26T15:57:12Z</time></trkpt><trkpt lat="43.33538507129194" lon="10.742570193707238"><ele>54.0</ele><time>2026-04-26T15:57:14Z</time></trkpt><trkpt lat="43.335457084960666" lon="10.742612123880798"><ele>54.0</ele><time>2026-04-26T15:57:21Z</time></trkpt><trkpt lat="43.33552144466743" lon="10.742368691153004"><ele>54.0</ele><time>2026-04-26T15:57:22Z</time></trkpt><trkpt lat="43.33554040561667" lon="10.74224080882228"><ele>54.0</ele><time>2026-04-26T15:57:23Z</time></trkpt><trkpt lat="43.33557005031907" lon="10.742080525367456"><ele>54.0</ele><time>2026-04-26T15:57:24Z</time></trkpt><trkpt lat="43.33560466863077" lon="10.741914031759901"><ele>54.0</ele><time>2026-04-26T15:57:25Z</time></trkpt><trkpt lat="43.33563579727015" lon="10.741756965388962"><ele>55.166666666666664</ele><time>2026-04-26T15:57:26Z</time></trkpt><trkpt lat="43.335662484357705" lon="10.741615326265874"><ele>56.33333333333333</ele><time>2026-04-26T15:57:27Z</time></trkpt><trkpt lat="43.33568907108517" lon="10.741482756028656"><ele>57.5</ele><time>2026-04-26T15:57:28Z</time></trkpt><trkpt lat="43.33571279576959" lon="10.741365383816614"><ele>58.666666666666664</ele><time>2026-04-26T15:57:29Z</time></trkpt><trkpt lat="43.335732084054314" lon="10.74125319944103"><ele>59.83333333333333</ele><time>2026-04-26T15:57:30Z</time></trkpt><trkpt lat="43.33575137110417" lon="10.74116158704307"><ele>61.0</ele><time>2026-04-26T15:57:31Z</time></trkpt><trkpt lat="43.3357715111781" lon="10.741072867284785"><ele>59.8</ele><time>2026-04-26T15:57:33Z</time></trkpt><trkpt lat="43.33578399727766" lon="10.740961646670948"><ele>58.599999999999994</ele><time>2026-04-26T15:57:37Z</time></trkpt><trkpt lat="43.33570066971501" lon="10.740923765212202"><ele>57.4</ele><time>2026-04-26T15:57:40Z</time></trkpt><trkpt lat="43.3357855289229" lon="10.74098726817574"><ele>56.2</ele><time>2026-04-26T15:57:41Z</time></trkpt><trkpt lat="43.33565922367022" lon="10.740941009602036"><ele>55.0</ele><time>2026-04-26T15:57:42Z</time></trkpt><trkpt lat="43.33565164810578" lon="10.741037257818201"><ele>55.99999999999999</ele><time>2026-04-26T15:57:44Z</time></trkpt><trkpt lat="43.33564611092667" lon="10.741132503664693"><ele>57.0</ele><time>2026-04-26T15:59:25Z</time></trkpt><trkpt lat="43.335697894191036" lon="10.741209953819178"><ele>58.0</ele><time>2026-04-26T15:59:27Z</time></trkpt><trkpt lat="43.3356721179914" lon="10.741385208240294"><ele>59.0</ele><time>2026-04-26T15:59:29Z</time></trkpt><trkpt lat="43.335642780628824" lon="10.741491290678756"><ele>59.99999999999999</ele><time>2026-04-26T15:59:30Z</time></trkpt><trkpt lat="43.335616110797616" lon="10.74160207384357"><ele>61.0</ele><time>2026-04-26T15:59:31Z</time></trkpt><trkpt lat="43.33559203173351" lon="10.741720256159814"><ele>61.0</ele><time>2026-04-26T15:59:32Z</time></trkpt><trkpt lat="43.33556789256164" lon="10.741850866363091"><ele>60.99999999999999</ele><time>2026-04-26T15:59:33Z</time></trkpt><trkpt lat="43.335539770400935" lon="10.741987097676068"><ele>60.99999999999999</ele><time>2026-04-26T15:59:34Z</time></trkpt><trkpt lat="43.335510396951705" lon="10.742129998732795"><ele>61.0</ele><time>2026-04-26T15:59:35Z</time></trkpt><trkpt lat="43.3354809912368" lon="10.742271284800195"><ele>61.0</ele><time>2026-04-26T15:59:36Z</time></trkpt><trkpt lat="43.33545660245826" lon="10.742402092808984"><ele>59.599999999999994</ele><time>2026-04-26T15:59:37Z</time></trkpt><trkpt lat="43.33543442063056" lon="10.742530388752135"><ele>58.199999999999996</ele><time>2026-04-26T15:59:38Z</time></trkpt><trkpt lat="43.33541076755611" lon="10.742652571415901"><ele>56.800000000000004</ele><time>2026-04-26T15:59:39Z</time></trkpt><trkpt lat="43.33538454025446" lon="10.742776253913926"><ele>55.400000000000006</ele><time>2026-04-26T15:59:40Z</time></trkpt><trkpt lat="43.33536359146305" lon="10.742907910479465"><ele>54.0</ele><time>2026-04-26T15:59:41Z</time></trkpt><trkpt lat="43.33535710776485" lon="10.743061095601545"><ele>54.0</ele><time>2026-04-26T15:59:42Z</time></trkpt><trkpt lat="43.335365746281646" lon="10.743219057303685"><ele>54.0</ele><time>2026-04-26T15:59:43Z</time></trkpt><trkpt lat="43.33539626972089" lon="10.74339337906501"><ele>54.0</ele><time>2026-04-26T15:59:44Z</time></trkpt><trkpt lat="43.33545120389306" lon="10.743604099938487"><ele>54.0</ele><time>2026-04-26T15:59:45Z</time></trkpt><trkpt lat="43.335514857496506" lon="10.743817179791407"><ele>55.33333333333333</ele><time>2026-04-26T15:59:46Z</time></trkpt><trkpt lat="43.33558144190028" lon="10.744038235861076"><ele>56.666666666666664</ele><time>2026-04-26T15:59:47Z</time></trkpt><trkpt lat="43.33565408879258" lon="10.74428049712433"><ele>58.0</ele><time>2026-04-26T15:59:48Z</time></trkpt><trkpt lat="43.335731549569324" lon="10.74453554525092"><ele>58.0</ele><time>2026-04-26T15:59:49Z</time></trkpt><trkpt lat="43.335803914455724" lon="10.744793996071817"><ele>58.0</ele><time>2026-04-26T15:59:50Z</time></trkpt><trkpt lat="43.33587884767963" lon="10.745043455970903"><ele>58.0</ele><time>2026-04-26T15:59:51Z</time></trkpt><trkpt lat="43.33593486183426" lon="10.745283594427862"><ele>57.0</ele><time>2026-04-26T15:59:52Z</time></trkpt><trkpt lat="43.335996392994524" lon="10.745502728041155"><ele>56.0</ele><time>2026-04-26T15:59:53Z</time></trkpt><trkpt lat="43.336056130332274" lon="10.745708112520191"><ele>55.0</ele><time>2026-04-26T15:59:54Z</time></trkpt><trkpt lat="43.336126938007695" lon="10.745895919550309"><ele>54.75</ele><time>2026-04-26T15:59:55Z</time></trkpt><trkpt lat="43.336175228822256" lon="10.74608124188053"><ele>54.5</ele><time>2026-04-26T15:59:56Z</time></trkpt><trkpt lat="43.33623359500386" lon="10.746265640425"><ele>54.25</ele><time>2026-04-26T15:59:57Z</time></trkpt><trkpt lat="43.336294519290455" lon="10.746458742918684"><ele>54.0</ele><time>2026-04-26T15:59:58Z</time></trkpt><trkpt lat="43.33640063429225" lon="10.746643364773655"><ele>54.66666666666667</ele><time>2026-04-26T15:59:59Z</time></trkpt><trkpt lat="43.33652499125174" lon="10.746819316848562"><ele>55.333333333333336</ele><time>2026-04-26T16:00:00Z</time></trkpt><trkpt lat="43.33667677022797" lon="10.747014429623169"><ele>56.0</ele><time>2026-04-26T16:00:01Z</time></trkpt><trkpt lat="43.336811189676894" lon="10.74718535623421"><ele>56.0</ele><time>2026-04-26T16:00:02Z</time></trkpt><trkpt lat="43.33693444337302" lon="10.747338863048858"><ele>56.0</ele><time>2026-04-26T16:00:03Z</time></trkpt><trkpt lat="43.337059671784786" lon="10.747465035521165"><ele>56.0</ele><time>2026-04-26T16:00:04Z</time></trkpt><trkpt lat="43.33715845083981" lon="10.747603849468614"><ele>55.0</ele><time>2026-04-26T16:00:05Z</time></trkpt><trkpt lat="43.33729264220228" lon="10.747708930502695"><ele>54.0</ele><time>2026-04-26T16:00:06Z</time></trkpt><trkpt lat="43.337454016937244" lon="10.747789181830235"><ele>53.0</ele><time>2026-04-26T16:00:07Z</time></trkpt><trkpt lat="43.33762881382473" lon="10.74784459059597"><ele>53.0</ele><time>2026-04-26T16:00:08Z</time></trkpt><trkpt lat="43.337827698724645" lon="10.747869119365626"><ele>53.0</ele><time>2026-04-26T16:00:09Z</time></trkpt><trkpt lat="43.338059424917674" lon="10.74786890140678"><ele>53.0</ele><time>2026-04-26T16:00:10Z</time></trkpt><trkpt lat="43.33828893510442" lon="10.747855168825252"><ele>52.66666666666667</ele><time>2026-04-26T16:00:11Z</time></trkpt><trkpt lat="43.33849213200658" lon="10.747838367695767"><ele>52.33333333333333</ele><time>2026-04-26T16:00:12Z</time></trkpt><trkpt lat="43.33868662781254" lon="10.74782584300775"><ele>52.0</ele><time>2026-04-26T16:00:13Z</time></trkpt><trkpt lat="43.338884830912576" lon="10.74783119046924"><ele>53.5</ele><time>2026-04-26T16:00:14Z</time></trkpt><trkpt lat="43.33909501177729" lon="10.747874696315447"><ele>55.0</ele><time>2026-04-26T16:00:15Z</time></trkpt><trkpt lat="43.33932841564421" lon="10.74795403913935"><ele>55.0</ele><time>2026-04-26T16:00:16Z</time></trkpt><trkpt lat="43.33957035587328" lon="10.748049797599213"><ele>55.0</ele><time>2026-04-26T16:00:17Z</time></trkpt><trkpt lat="43.33979885834076" lon="10.748146412125024"><ele>55.0</ele><time>2026-04-26T16:00:18Z</time></trkpt><trkpt lat="43.34000107748387" lon="10.748236954512167"><ele>55.0</ele><time>2026-04-26T16:00:19Z</time></trkpt><trkpt lat="43.340202027964345" lon="10.748335170046545"><ele>55.0</ele><time>2026-04-26T16:00:20Z</time></trkpt><trkpt lat="43.34038728687409" lon="10.74843250252303"><ele>54.666666666666664</ele><time>2026-04-26T16:00:21Z</time></trkpt><trkpt lat="43.34055680647879" lon="10.74853065740448"><ele>54.33333333333333</ele><time>2026-04-26T16:00:22Z</time></trkpt><trkpt lat="43.340715730941405" lon="10.748645742942783"><ele>54.0</ele><time>2026-04-26T16:00:23Z</time></trkpt><trkpt lat="43.34087695874696" lon="10.748769580641678"><ele>54.0</ele><time>2026-04-26T16:00:24Z</time></trkpt><trkpt lat="43.341046039363704" lon="10.748904692539355"><ele>54.0</ele><time>2026-04-26T16:00:25Z</time></trkpt><trkpt lat="43.341205206247544" lon="10.749012231043944"><ele>54.0</ele><time>2026-04-26T16:00:26Z</time></trkpt><trkpt lat="43.34135920979634" lon="10.749157801916642"><ele>54.33333333333333</ele><time>2026-04-26T16:00:27Z</time></trkpt><trkpt lat="43.341502280446335" lon="10.749310876216146"><ele>54.666666666666664</ele><time>2026-04-26T16:00:28Z</time></trkpt><trkpt lat="43.341633561519785" lon="10.749473534867912"><ele>55.0</ele><time>2026-04-26T16:00:29Z</time></trkpt><trkpt lat="43.34174744004687" lon="10.749668805461692"><ele>55.0</ele><time>2026-04-26T16:00:30Z</time></trkpt><trkpt lat="43.34187514224892" lon="10.749855614138594"><ele>55.0</ele><time>2026-04-26T16:00:31Z</time></trkpt><trkpt lat="43.342008201177094" lon="10.750047992256338"><ele>55.0</ele><time>2026-04-26T16:00:32Z</time></trkpt><trkpt lat="43.34214579760578" lon="10.750246930751633"><ele>55.33333333333333</ele><time>2026-04-26T16:00:33Z</time></trkpt><trkpt lat="43.34228773705489" lon="10.750451161927586"><ele>55.66666666666667</ele><time>2026-04-26T16:00:34Z</time></trkpt><trkpt lat="43.342430238073526" lon="10.750625343239863"><ele>56.0</ele><time>2026-04-26T16:00:35Z</time></trkpt><trkpt lat="43.34255633899656" lon="10.750809196209072"><ele>56.0</ele><time>2026-04-26T16:00:36Z</time></trkpt><trkpt lat="43.342681508183105" lon="10.750994689684278"><ele>56.0</ele><time>2026-04-26T16:00:37Z</time></trkpt><trkpt lat="43.34281298322297" lon="10.751188276291263"><ele>56.0</ele><time>2026-04-26T16:00:38Z</time></trkpt><trkpt lat="43.34293820529512" lon="10.751373047295909"><ele>56.0</ele><time>2026-04-26T16:00:39Z</time></trkpt><trkpt lat="43.34306443945547" lon="10.751558616624026"><ele>56.0</ele><time>2026-04-26T16:00:40Z</time></trkpt><trkpt lat="43.34319224395673" lon="10.751745429919302"><ele>56.0</ele><time>2026-04-26T16:00:41Z</time></trkpt><trkpt lat="43.34331269212342" lon="10.75191870494234"><ele>56.0</ele><time>2026-04-26T16:00:42Z</time></trkpt><trkpt lat="43.3434356534803" lon="10.752093511141819"><ele>56.0</ele><time>2026-04-26T16:00:43Z</time></trkpt><trkpt lat="43.3435587671339" lon="10.752271489046787"><ele>56.0</ele><time>2026-04-26T16:00:44Z</time></trkpt><trkpt lat="43.343676238517276" lon="10.752442308900884"><ele>56.0</ele><time>2026-04-26T16:00:45Z</time></trkpt><trkpt lat="43.343790536694726" lon="10.752609571708142"><ele>56.0</ele><time>2026-04-26T16:00:46Z</time></trkpt><trkpt lat="43.343905506893115" lon="10.752777579595076"><ele>56.0</ele><time>2026-04-26T16:00:47Z</time></trkpt><trkpt lat="43.344019628289395" lon="10.752942439345723"><ele>56.333333333333336</ele><time>2026-04-26T16:00:48Z</time></trkpt><trkpt lat="43.34413381184445" lon="10.753106893722109"><ele>56.66666666666667</ele><time>2026-04-26T16:00:49Z</time></trkpt><trkpt lat="43.34424958485348" lon="10.753275556365214"><ele>57.0</ele><time>2026-04-26T16:00:50Z</time></trkpt><trkpt lat="43.34435727292605" lon="10.75344324329223"><ele>56.33333333333333</ele><time>2026-04-26T16:00:51Z</time></trkpt><trkpt lat="43.34445540603665" lon="10.753625832373771"><ele>55.666666666666664</ele><time>2026-04-26T16:00:52Z</time></trkpt><trkpt lat="43.34454845000043" lon="10.753820089406863"><ele>55.0</ele><time>2026-04-26T16:00:53Z</time></trkpt><trkpt lat="43.34463583875362" lon="10.754033898459825"><ele>55.0</ele><time>2026-04-26T16:00:54Z</time></trkpt><trkpt lat="43.34470544112019" lon="10.754238961402903"><ele>55.0</ele><time>2026-04-26T16:00:55Z</time></trkpt><trkpt lat="43.34476456975202" lon="10.754439249410495"><ele>55.0</ele><time>2026-04-26T16:00:56Z</time></trkpt><trkpt lat="43.34481481225271" lon="10.754631624620414"><ele>55.25</ele><time>2026-04-26T16:00:57Z</time></trkpt><trkpt lat="43.34485864890439" lon="10.754815010632813"><ele>55.5</ele><time>2026-04-26T16:00:58Z</time></trkpt><trkpt lat="43.34489665645283" lon="10.754977807286487"><ele>55.75</ele><time>2026-04-26T16:00:59Z</time></trkpt><trkpt lat="43.344931238069776" lon="10.755130201841945"><ele>56.0</ele><time>2026-04-26T16:01:00Z</time></trkpt><trkpt lat="43.34496264867663" lon="10.755294574605394"><ele>56.0</ele><time>2026-04-26T16:01:01Z</time></trkpt><trkpt lat="43.34499273481137" lon="10.755466987520101"><ele>56.0</ele><time>2026-04-26T16:01:02Z</time></trkpt><trkpt lat="43.345048188542854" lon="10.75565094039354"><ele>56.0</ele><time>2026-04-26T16:01:03Z</time></trkpt><trkpt lat="43.34513648713282" lon="10.755833949113084"><ele>56.0</ele><time>2026-04-26T16:01:04Z</time></trkpt><trkpt lat="43.34524596574157" lon="10.75601183933998"><ele>56.0</ele><time>2026-04-26T16:01:05Z</time></trkpt><trkpt lat="43.345363960940205" lon="10.756167752155076"><ele>56.0</ele><time>2026-04-26T16:01:06Z</time></trkpt><trkpt lat="43.345478745714225" lon="10.75630848580482"><ele>56.0</ele><time>2026-04-26T16:01:07Z</time></trkpt><trkpt lat="43.34561015875448" lon="10.756475713996851"><ele>56.333333333333336</ele><time>2026-04-26T16:01:08Z</time></trkpt><trkpt lat="43.34575371232515" lon="10.756664021376476"><ele>56.66666666666667</ele><time>2026-04-26T16:01:09Z</time></trkpt><trkpt lat="43.345882440316934" lon="10.756845388520377"><ele>57.0</ele><time>2026-04-26T16:01:10Z</time></trkpt><trkpt lat="43.345996965293956" lon="10.757018433108158"><ele>57.0</ele><time>2026-04-26T16:01:11Z</time></trkpt><trkpt lat="43.34610524952885" lon="10.757194068054856"><ele>57.0</ele><time>2026-04-26T16:01:12Z</time></trkpt><trkpt lat="43.346209352084486" lon="10.757376860558571"><ele>57.0</ele><time>2026-04-26T16:01:13Z</time></trkpt><trkpt lat="43.34631787451961" lon="10.757570936672245"><ele>58.33333333333333</ele><time>2026-04-26T16:01:14Z</time></trkpt><trkpt lat="43.346419071490935" lon="10.757758863744256"><ele>59.666666666666664</ele><time>2026-04-26T16:01:15Z</time></trkpt><trkpt lat="43.346520789207155" lon="10.757946714589018"><ele>61.0</ele><time>2026-04-26T16:01:16Z</time></trkpt><trkpt lat="43.34661941375969" lon="10.758133673855797"><ele>61.0</ele><time>2026-04-26T16:01:17Z</time></trkpt><trkpt lat="43.346721856265034" lon="10.758328191699782"><ele>61.0</ele><time>2026-04-26T16:01:18Z</time></trkpt><trkpt lat="43.34682901880545" lon="10.758527196991576"><ele>61.0</ele><time>2026-04-26T16:01:19Z</time></trkpt><trkpt lat="43.34693749123035" lon="10.758728717200194"><ele>60.666666666666664</ele><time>2026-04-26T16:01:20Z</time></trkpt><trkpt lat="43.34704477972331" lon="10.758931289992464"><ele>60.33333333333333</ele><time>2026-04-26T16:01:21Z</time></trkpt><trkpt lat="43.347142038061996" lon="10.759131534974204"><ele>60.0</ele><time>2026-04-26T16:01:22Z</time></trkpt><trkpt lat="43.34723135803505" lon="10.759335443561573"><ele>58.66666666666667</ele><time>2026-04-26T16:01:23Z</time></trkpt><trkpt lat="43.347312002591146" lon="10.75953993233999"><ele>57.333333333333336</ele><time>2026-04-26T16:01:24Z</time></trkpt><trkpt lat="43.34738540968721" lon="10.759761628820138"><ele>56.0</ele><time>2026-04-26T16:01:25Z</time></trkpt><trkpt lat="43.34744707720313" lon="10.760000679875219"><ele>56.66666666666667</ele><time>2026-04-26T16:01:26Z</time></trkpt><trkpt lat="43.34749339501433" lon="10.760237502739562"><ele>57.33333333333333</ele><time>2026-04-26T16:01:27Z</time></trkpt><trkpt lat="43.34752479104506" lon="10.760473851415739"><ele>58.0</ele><time>2026-04-26T16:01:28Z</time></trkpt><trkpt lat="43.34754804869968" lon="10.760707350085985"><ele>58.0</ele><time>2026-04-26T16:01:29Z</time></trkpt><trkpt lat="43.34757226885722" lon="10.760929920498414"><ele>58.0</ele><time>2026-04-26T16:01:30Z</time></trkpt><trkpt lat="43.34759609228345" lon="10.761150199300397"><ele>58.0</ele><time>2026-04-26T16:01:31Z</time></trkpt><trkpt lat="43.347619167936486" lon="10.761366311276564"><ele>58.0</ele><time>2026-04-26T16:01:32Z</time></trkpt><trkpt lat="43.34764376686143" lon="10.761582275161933"><ele>58.0</ele><time>2026-04-26T16:01:33Z</time></trkpt><trkpt lat="43.34767540244254" lon="10.761815278195305"><ele>58.0</ele><time>2026-04-26T16:01:34Z</time></trkpt><trkpt lat="43.3477151509192" lon="10.762068465492938"><ele>58.0</ele><time>2026-04-26T16:01:35Z</time></trkpt><trkpt lat="43.34777301336879" lon="10.762330836693486"><ele>58.0</ele><time>2026-04-26T16:01:36Z</time></trkpt><trkpt lat="43.34783969437536" lon="10.762594478561804"><ele>58.0</ele><time>2026-04-26T16:01:37Z</time></trkpt><trkpt lat="43.347904739235766" lon="10.762836314907254"><ele>58.33333333333333</ele><time>2026-04-26T16:01:38Z</time></trkpt><trkpt lat="43.34797173222946" lon="10.763068343746358"><ele>58.66666666666667</ele><time>2026-04-26T16:01:39Z</time></trkpt><trkpt lat="43.34804410381689" lon="10.763295839153106"><ele>59.0</ele><time>2026-04-26T16:01:40Z</time></trkpt><trkpt lat="43.34811497230059" lon="10.763513524717107"><ele>61.0</ele><time>2026-04-26T16:01:41Z</time></trkpt><trkpt lat="43.34818089781397" lon="10.76372161003726"><ele>63.0</ele><time>2026-04-26T16:01:42Z</time></trkpt><trkpt lat="43.34824310670742" lon="10.763922197378408"><ele>65.0</ele><time>2026-04-26T16:01:43Z</time></trkpt><trkpt lat="43.34830302502251" lon="10.764112854656737"><ele>65.0</ele><time>2026-04-26T16:01:44Z</time></trkpt><trkpt lat="43.34836063536785" lon="10.76429600350602"><ele>65.0</ele><time>2026-04-26T16:01:45Z</time></trkpt><trkpt lat="43.348417737021855" lon="10.764474893937212"><ele>65.0</ele><time>2026-04-26T16:01:46Z</time></trkpt><trkpt lat="43.348470240714015" lon="10.764639993316134"><ele>65.0</ele><time>2026-04-26T16:01:47Z</time></trkpt><trkpt lat="43.348527540607506" lon="10.7647944819367"><ele>63.75</ele><time>2026-04-26T16:01:48Z</time></trkpt><trkpt lat="43.34859230252671" lon="10.764943009276184"><ele>62.5</ele><time>2026-04-26T16:01:49Z</time></trkpt><trkpt lat="43.34866920062799" lon="10.765103201635078"><ele>61.25</ele><time>2026-04-26T16:01:50Z</time></trkpt><trkpt lat="43.3487451844652" lon="10.765253071024476"><ele>60.0</ele><time>2026-04-26T16:01:51Z</time></trkpt><trkpt lat="43.348822925914696" lon="10.76539752318485"><ele>60.25</ele><time>2026-04-26T16:01:52Z</time></trkpt><trkpt lat="43.34890060676149" lon="10.765532143566459"><ele>60.5</ele><time>2026-04-26T16:01:53Z</time></trkpt><trkpt lat="43.3489795060015" lon="10.765662015694527"><ele>60.75</ele><time>2026-04-26T16:01:54Z</time></trkpt><trkpt lat="43.34906093999197" lon="10.765793570499797"><ele>61.0</ele><time>2026-04-26T16:01:55Z</time></trkpt><trkpt lat="43.34914576566786" lon="10.76592423491059"><ele>59.75</ele><time>2026-04-26T16:01:56Z</time></trkpt><trkpt lat="43.34922938962576" lon="10.766044809126022"><ele>58.5</ele><time>2026-04-26T16:01:57Z</time></trkpt><trkpt lat="43.34931061157281" lon="10.766163649026984"><ele>57.25</ele><time>2026-04-26T16:01:58Z</time></trkpt><trkpt lat="43.34938396903421" lon="10.766296159319992"><ele>56.0</ele><time>2026-04-26T16:01:59Z</time></trkpt><trkpt lat="43.34943504789624" lon="10.766438459889692"><ele>56.0</ele><time>2026-04-26T16:02:00Z</time></trkpt><trkpt lat="43.34947024733395" lon="10.766582313991686"><ele>56.0</ele><time>2026-04-26T16:02:01Z</time></trkpt><trkpt lat="43.349481746101034" lon="10.76673429440026"><ele>56.0</ele><time>2026-04-26T16:02:02Z</time></trkpt><trkpt lat="43.34947013845962" lon="10.766892462665732"><ele>56.0</ele><time>2026-04-26T16:02:03Z</time></trkpt><trkpt lat="43.34945391256862" lon="10.76705178015429"><ele>55.75</ele><time>2026-04-26T16:02:04Z</time></trkpt><trkpt lat="43.34944995420056" lon="10.76720988500847"><ele>55.5</ele><time>2026-04-26T16:02:05Z</time></trkpt><trkpt lat="43.34946235731063" lon="10.767398555576449"><ele>55.25</ele><time>2026-04-26T16:02:06Z</time></trkpt><trkpt lat="43.3494836013998" lon="10.767603889027447"><ele>55.0</ele><time>2026-04-26T16:02:07Z</time></trkpt><trkpt lat="43.349514952790095" lon="10.76781846311654"><ele>55.0</ele><time>2026-04-26T16:02:08Z</time></trkpt><trkpt lat="43.34955784481257" lon="10.768016295921504"><ele>55.0</ele><time>2026-04-26T16:02:09Z</time></trkpt><trkpt lat="43.34960401284486" lon="10.768216157768384"><ele>55.0</ele><time>2026-04-26T16:02:10Z</time></trkpt><trkpt lat="43.34966441634929" lon="10.768425503189127"><ele>55.33333333333333</ele><time>2026-04-26T16:02:11Z</time></trkpt><trkpt lat="43.349751614661386" lon="10.768649174789047"><ele>55.66666666666667</ele><time>2026-04-26T16:02:12Z</time></trkpt><trkpt lat="43.349866989515874" lon="10.768880337612984"><ele>56.0</ele><time>2026-04-26T16:02:13Z</time></trkpt><trkpt lat="43.35000032293033" lon="10.769122528931193"><ele>56.0</ele><time>2026-04-26T16:02:14Z</time></trkpt><trkpt lat="43.35011858619661" lon="10.769395496629128"><ele>56.0</ele><time>2026-04-26T16:02:15Z</time></trkpt><trkpt lat="43.35024246531057" lon="10.769645744400046"><ele>56.0</ele><time>2026-04-26T16:02:16Z</time></trkpt><trkpt lat="43.35035680355956" lon="10.769876719611883"><ele>56.0</ele><time>2026-04-26T16:02:17Z</time></trkpt><trkpt lat="43.350467450414556" lon="10.77009855402127"><ele>56.0</ele><time>2026-04-26T16:02:18Z</time></trkpt><trkpt lat="43.35057358403136" lon="10.770308807847679"><ele>56.333333333333336</ele><time>2026-04-26T16:02:19Z</time></trkpt><trkpt lat="43.35068959877703" lon="10.770535338425445"><ele>56.66666666666667</ele><time>2026-04-26T16:02:20Z</time></trkpt><trkpt lat="43.35081215876237" lon="10.770764085640762"><ele>57.0</ele><time>2026-04-26T16:02:21Z</time></trkpt><trkpt lat="43.35094125816365" lon="10.770991186666533"><ele>56.0</ele><time>2026-04-26T16:02:22Z</time></trkpt><trkpt lat="43.35106350387102" lon="10.771203574472436"><ele>55.0</ele><time>2026-04-26T16:02:23Z</time></trkpt><trkpt lat="43.35118895437646" lon="10.771420748088929"><ele>54.0</ele><time>2026-04-26T16:02:24Z</time></trkpt><trkpt lat="43.351309434511094" lon="10.771625787707208"><ele>54.33333333333333</ele><time>2026-04-26T16:02:25Z</time></trkpt><trkpt lat="43.351423491445054" lon="10.771821488990932"><ele>54.666666666666664</ele><time>2026-04-26T16:02:26Z</time></trkpt><trkpt lat="43.351532705551534" lon="10.772010088131639"><ele>55.0</ele><time>2026-04-26T16:02:27Z</time></trkpt><trkpt lat="43.35163849203408" lon="10.77219359294571"><ele>55.0</ele><time>2026-04-26T16:02:28Z</time></trkpt><trkpt lat="43.35174085424608" lon="10.772371157746614"><ele>55.0</ele><time>2026-04-26T16:02:29Z</time></trkpt><trkpt lat="43.35184340820182" lon="10.772549007340269"><ele>55.0</ele><time>2026-04-26T16:02:30Z</time></trkpt><trkpt lat="43.351954439862475" lon="10.772737225707688"><ele>54.666666666666664</ele><time>2026-04-26T16:02:31Z</time></trkpt><trkpt lat="43.35206362364622" lon="10.772922311555265"><ele>54.33333333333333</ele><time>2026-04-26T16:02:32Z</time></trkpt><trkpt lat="43.35218279861913" lon="10.773088449970686"><ele>54.0</ele><time>2026-04-26T16:02:33Z</time></trkpt><trkpt lat="43.35229153180454" lon="10.773272939815941"><ele>54.66666666666667</ele><time>2026-04-26T16:02:34Z</time></trkpt><trkpt lat="43.352399862338096" lon="10.773460842402983"><ele>55.333333333333336</ele><time>2026-04-26T16:02:35Z</time></trkpt><trkpt lat="43.35251303849861" lon="10.773655389242133"><ele>56.0</ele><time>2026-04-26T16:02:36Z</time></trkpt><trkpt lat="43.352626676068176" lon="10.773855105513361"><ele>56.0</ele><time>2026-04-26T16:02:37Z</time></trkpt><trkpt lat="43.35274138468136" lon="10.774055527327736"><ele>56.0</ele><time>2026-04-26T16:02:38Z</time></trkpt><trkpt lat="43.35285390069607" lon="10.774246275242222"><ele>56.0</ele><time>2026-04-26T16:02:39Z</time></trkpt><trkpt lat="43.352958953691214" lon="10.774428153715172"><ele>56.333333333333336</ele><time>2026-04-26T16:02:40Z</time></trkpt><trkpt lat="43.353060662892936" lon="10.77460316371667"><ele>56.66666666666667</ele><time>2026-04-26T16:02:41Z</time></trkpt><trkpt lat="43.35314676527523" lon="10.774778547545678"><ele>57.0</ele><time>2026-04-26T16:02:42Z</time></trkpt><trkpt lat="43.35325984734238" lon="10.774934238110225"><ele>57.0</ele><time>2026-04-26T16:02:43Z</time></trkpt><trkpt lat="43.35336345269298" lon="10.775112209286684"><ele>57.0</ele><time>2026-04-26T16:02:44Z</time></trkpt><trkpt lat="43.35346441510278" lon="10.775284767188941"><ele>57.0</ele><time>2026-04-26T16:02:45Z</time></trkpt><trkpt lat="43.35357795825741" lon="10.775459713140682"><ele>56.66666666666667</ele><time>2026-04-26T16:02:46Z</time></trkpt><trkpt lat="43.35368334581781" lon="10.775640139837913"><ele>56.333333333333336</ele><time>2026-04-26T16:02:47Z</time></trkpt><trkpt lat="43.35381839667031" lon="10.77578179391555"><ele>56.0</ele><time>2026-04-26T16:02:48Z</time></trkpt><trkpt lat="43.35396337656716" lon="10.775903212056832"><ele>56.333333333333336</ele><time>2026-04-26T16:02:49Z</time></trkpt><trkpt lat="43.354102874294405" lon="10.77600299446523"><ele>56.66666666666667</ele><time>2026-04-26T16:02:50Z</time></trkpt><trkpt lat="43.354248831167155" lon="10.776091783979748"><ele>57.0</ele><time>2026-04-26T16:02:51Z</time></trkpt><trkpt lat="43.35441274741021" lon="10.776189678982181"><ele>57.0</ele><time>2026-04-26T16:02:52Z</time></trkpt><trkpt lat="43.35459016648524" lon="10.776299824492257"><ele>57.0</ele><time>2026-04-26T16:02:53Z</time></trkpt><trkpt lat="43.35479288811936" lon="10.776425678357752"><ele>57.0</ele><time>2026-04-26T16:02:54Z</time></trkpt><trkpt lat="43.35497664024356" lon="10.776539755549164"><ele>57.0</ele><time>2026-04-26T16:02:55Z</time></trkpt><trkpt lat="43.35515909431845" lon="10.776653830974922"><ele>57.0</ele><time>2026-04-26T16:02:56Z</time></trkpt><trkpt lat="43.35532978895281" lon="10.77677352986006"><ele>57.0</ele><time>2026-04-26T16:02:57Z</time></trkpt><trkpt lat="43.35547866676077" lon="10.776910812396755"><ele>58.66666666666667</ele><time>2026-04-26T16:02:58Z</time></trkpt><trkpt lat="43.35562594484955" lon="10.777081815480518"><ele>60.333333333333336</ele><time>2026-04-26T16:02:59Z</time></trkpt><trkpt lat="43.355787038406504" lon="10.77728338272045"><ele>62.0</ele><time>2026-04-26T16:03:00Z</time></trkpt><trkpt lat="43.355926110796794" lon="10.777531109950639"><ele>60.66666666666667</ele><time>2026-04-26T16:03:01Z</time></trkpt><trkpt lat="43.35605010951028" lon="10.777793290533282"><ele>59.33333333333333</ele><time>2026-04-26T16:03:02Z</time></trkpt><trkpt lat="43.35615472971727" lon="10.77806130280746"><ele>58.0</ele><time>2026-04-26T16:03:03Z</time></trkpt><trkpt lat="43.35623454361173" lon="10.778336280011029"><ele>57.5</ele><time>2026-04-26T16:03:04Z</time></trkpt><trkpt lat="43.35629499534218" lon="10.778627954665472"><ele>57.0</ele><time>2026-04-26T16:03:05Z</time></trkpt><trkpt lat="43.356335715850065" lon="10.778939105417525"><ele>57.0</ele><time>2026-04-26T16:03:06Z</time></trkpt><trkpt lat="43.356361222802526" lon="10.779274350008471"><ele>57.0</ele><time>2026-04-26T16:03:07Z</time></trkpt><trkpt lat="43.356378096642906" lon="10.779632878991096"><ele>58.5</ele><time>2026-04-26T16:03:08Z</time></trkpt><trkpt lat="43.356392062132834" lon="10.780017955764334"><ele>60.0</ele><time>2026-04-26T16:03:09Z</time></trkpt><trkpt lat="43.35640546689575" lon="10.780440764850983"><ele>60.0</ele><time>2026-04-26T16:03:10Z</time></trkpt><trkpt lat="43.3564192216425" lon="10.780876005039795"><ele>60.0</ele><time>2026-04-26T16:03:11Z</time></trkpt><trkpt lat="43.35642892003039" lon="10.78126891554637"><ele>59.5</ele><time>2026-04-26T16:03:12Z</time></trkpt><trkpt lat="43.356438349779864" lon="10.781637680261925"><ele>59.0</ele><time>2026-04-26T16:03:13Z</time></trkpt><trkpt lat="43.356449886306926" lon="10.782009621221054"><ele>59.0</ele><time>2026-04-26T16:03:14Z</time></trkpt><trkpt lat="43.35646947266475" lon="10.782383977687381"><ele>59.0</ele><time>2026-04-26T16:03:15Z</time></trkpt><trkpt lat="43.35650609401652" lon="10.782770456081286"><ele>59.0</ele><time>2026-04-26T16:03:16Z</time></trkpt><trkpt lat="43.356555296581554" lon="10.783138415290594"><ele>59.0</ele><time>2026-04-26T16:03:17Z</time></trkpt><trkpt lat="43.356610506772064" lon="10.783488600728091"><ele>59.5</ele><time>2026-04-26T16:03:18Z</time></trkpt><trkpt lat="43.356661936186704" lon="10.783828041709384"><ele>60.0</ele><time>2026-04-26T16:03:19Z</time></trkpt><trkpt lat="43.356708683004406" lon="10.784159233130833"><ele>60.0</ele><time>2026-04-26T16:03:20Z</time></trkpt><trkpt lat="43.356755071280126" lon="10.784486383204694"><ele>60.0</ele><time>2026-04-26T16:03:21Z</time></trkpt><trkpt lat="43.35680519892155" lon="10.784815193131195"><ele>60.0</ele><time>2026-04-26T16:03:22Z</time></trkpt><trkpt lat="43.35685689269372" lon="10.785141061291826"><ele>60.0</ele><time>2026-04-26T16:03:23Z</time></trkpt><trkpt lat="43.35690600643018" lon="10.785448241372244"><ele>60.0</ele><time>2026-04-26T16:03:24Z</time></trkpt><trkpt lat="43.35695231099896" lon="10.785741164966044"><ele>60.0</ele><time>2026-04-26T16:03:25Z</time></trkpt><trkpt lat="43.356996623145946" lon="10.7860286688325"><ele>60.0</ele><time>2026-04-26T16:03:26Z</time></trkpt><trkpt lat="43.35704193013321" lon="10.78633044999639"><ele>60.0</ele><time>2026-04-26T16:03:27Z</time></trkpt><trkpt lat="43.35708683365808" lon="10.786629837267345"><ele>60.0</ele><time>2026-04-26T16:03:28Z</time></trkpt><trkpt lat="43.357131364267744" lon="10.786936319599217"><ele>60.0</ele><time>2026-04-26T16:03:29Z</time></trkpt><trkpt lat="43.35717073180379" lon="10.787245163440177"><ele>59.66666666666667</ele><time>2026-04-26T16:03:30Z</time></trkpt><trkpt lat="43.35720211831761" lon="10.787556211780926"><ele>59.333333333333336</ele><time>2026-04-26T16:03:31Z</time></trkpt><trkpt lat="43.357222738697324" lon="10.787855130441676"><ele>59.0</ele><time>2026-04-26T16:03:32Z</time></trkpt><trkpt lat="43.35723745722404" lon="10.788151319377546"><ele>61.333333333333336</ele><time>2026-04-26T16:03:33Z</time></trkpt><trkpt lat="43.35724956619121" lon="10.78845353321899"><ele>63.66666666666667</ele><time>2026-04-26T16:03:34Z</time></trkpt><trkpt lat="43.357254890375565" lon="10.788765686218547"><ele>66.0</ele><time>2026-04-26T16:03:35Z</time></trkpt><trkpt lat="43.35725014427673" lon="10.789075782458289"><ele>65.0</ele><time>2026-04-26T16:03:36Z</time></trkpt><trkpt lat="43.357241478709724" lon="10.789373368185714"><ele>64.0</ele><time>2026-04-26T16:03:37Z</time></trkpt><trkpt lat="43.35722881765778" lon="10.789653157175824"><ele>63.0</ele><time>2026-04-26T16:03:38Z</time></trkpt><trkpt lat="43.357213579787654" lon="10.78992863738385"><ele>61.66666666666667</ele><time>2026-04-26T16:03:39Z</time></trkpt><trkpt lat="43.35719248676947" lon="10.790204284656607"><ele>60.333333333333336</ele><time>2026-04-26T16:03:40Z</time></trkpt><trkpt lat="43.35716354441382" lon="10.790481015575503"><ele>59.0</ele><time>2026-04-26T16:03:41Z</time></trkpt><trkpt lat="43.35712620235863" lon="10.790758008353764"><ele>59.333333333333336</ele><time>2026-04-26T16:03:42Z</time></trkpt><trkpt lat="43.357084543995356" lon="10.79103552523634"><ele>59.66666666666667</ele><time>2026-04-26T16:03:43Z</time></trkpt><trkpt lat="43.35703887587823" lon="10.79131234064123"><ele>60.0</ele><time>2026-04-26T16:03:44Z</time></trkpt><trkpt lat="43.35699118035409" lon="10.79158175582395"><ele>59.33333333333333</ele><time>2026-04-26T16:03:45Z</time></trkpt><trkpt lat="43.356940064203734" lon="10.791852382180258"><ele>58.666666666666664</ele><time>2026-04-26T16:03:46Z</time></trkpt><trkpt lat="43.35688432526736" lon="10.792124710358078"><ele>58.0</ele><time>2026-04-26T16:03:47Z</time></trkpt><trkpt lat="43.35682548280636" lon="10.792398953384104"><ele>58.666666666666664</ele><time>2026-04-26T16:03:48Z</time></trkpt><trkpt lat="43.35676331118483" lon="10.792680549474602"><ele>59.33333333333333</ele><time>2026-04-26T16:03:49Z</time></trkpt><trkpt lat="43.356695912142186" lon="10.792974415635591"><ele>60.0</ele><time>2026-04-26T16:03:50Z</time></trkpt><trkpt lat="43.35662958217798" lon="10.793266369806089"><ele>60.33333333333333</ele><time>2026-04-26T16:03:51Z</time></trkpt><trkpt lat="43.356566373337486" lon="10.793548505463137"><ele>60.666666666666664</ele><time>2026-04-26T16:03:52Z</time></trkpt><trkpt lat="43.35650414803301" lon="10.793829933770434"><ele>61.0</ele><time>2026-04-26T16:03:53Z</time></trkpt><trkpt lat="43.356448648445166" lon="10.794102399818552"><ele>60.666666666666664</ele><time>2026-04-26T16:03:54Z</time></trkpt><trkpt lat="43.356401599023044" lon="10.794377922658635"><ele>60.33333333333333</ele><time>2026-04-26T16:03:55Z</time></trkpt><trkpt lat="43.356360380517316" lon="10.794661088043318"><ele>60.0</ele><time>2026-04-26T16:03:56Z</time></trkpt><trkpt lat="43.356326263481215" lon="10.794949983804637"><ele>60.66666666666667</ele><time>2026-04-26T16:03:57Z</time></trkpt><trkpt lat="43.356303035264794" lon="10.79524067152407"><ele>61.333333333333336</ele><time>2026-04-26T16:03:58Z</time></trkpt><trkpt lat="43.35629226810835" lon="10.79552540508354"><ele>62.0</ele><time>2026-04-26T16:03:59Z</time></trkpt><trkpt lat="43.35629262766236" lon="10.795803807081853"><ele>62.0</ele><time>2026-04-26T16:04:00Z</time></trkpt><trkpt lat="43.35631084081331" lon="10.796076782006185"><ele>62.0</ele><time>2026-04-26T16:04:01Z</time></trkpt><trkpt lat="43.356343608832645" lon="10.796353266412373"><ele>62.0</ele><time>2026-04-26T16:04:02Z</time></trkpt><trkpt lat="43.35638578950445" lon="10.796620905649768"><ele>64.66666666666667</ele><time>2026-04-26T16:04:03Z</time></trkpt><trkpt lat="43.356437270452986" lon="10.796875654762959"><ele>67.33333333333333</ele><time>2026-04-26T16:04:04Z</time></trkpt><trkpt lat="43.35649781417328" lon="10.79711838847119"><ele>70.0</ele><time>2026-04-26T16:04:05Z</time></trkpt><trkpt lat="43.35656803300871" lon="10.797357711610125"><ele>70.0</ele><time>2026-04-26T16:04:06Z</time></trkpt><trkpt lat="43.356653413688356" lon="10.79759726535139"><ele>70.0</ele><time>2026-04-26T16:04:07Z</time></trkpt><trkpt lat="43.35675643740582" lon="10.797839642232962"><ele>70.0</ele><time>2026-04-26T16:04:08Z</time></trkpt><trkpt lat="43.35688065095236" lon="10.798091853631647"><ele>69.0</ele><time>2026-04-26T16:04:09Z</time></trkpt><trkpt lat="43.357010575998096" lon="10.798330162059546"><ele>68.0</ele><time>2026-04-26T16:04:10Z</time></trkpt><trkpt lat="43.357145230750895" lon="10.798550207228304"><ele>67.0</ele><time>2026-04-26T16:04:11Z</time></trkpt><trkpt lat="43.357278888499565" lon="10.79875688986192"><ele>67.0</ele><time>2026-04-26T16:04:12Z</time></trkpt><trkpt lat="43.35740658538044" lon="10.798953460288057"><ele>67.0</ele><time>2026-04-26T16:04:13Z</time></trkpt><trkpt lat="43.35752411688003" lon="10.799149767308005"><ele>67.0</ele><time>2026-04-26T16:04:14Z</time></trkpt><trkpt lat="43.357620659889164" lon="10.799351434275742"><ele>66.33333333333333</ele><time>2026-04-26T16:04:15Z</time></trkpt><trkpt lat="43.357705934368795" lon="10.799558038395414"><ele>65.66666666666667</ele><time>2026-04-26T16:04:16Z</time></trkpt><trkpt lat="43.35778141044489" lon="10.799766623914921"><ele>65.0</ele><time>2026-04-26T16:04:17Z</time></trkpt><trkpt lat="43.357853117241284" lon="10.799977850528881"><ele>64.66666666666667</ele><time>2026-04-26T16:04:18Z</time></trkpt><trkpt lat="43.35792518125177" lon="10.80019171156115"><ele>64.33333333333333</ele><time>2026-04-26T16:04:19Z</time></trkpt><trkpt lat="43.35799739138982" lon="10.800405627142663"><ele>64.0</ele><time>2026-04-26T16:04:20Z</time></trkpt><trkpt lat="43.35806992306724" lon="10.80062038577251"><ele>65.0</ele><time>2026-04-26T16:04:21Z</time></trkpt><trkpt lat="43.358152102648035" lon="10.80085296871435"><ele>66.0</ele><time>2026-04-26T16:04:22Z</time></trkpt><trkpt lat="43.358242652891114" lon="10.801091558133027"><ele>67.0</ele><time>2026-04-26T16:04:23Z</time></trkpt><trkpt lat="43.35835558397048" lon="10.801333505414643"><ele>67.0</ele><time>2026-04-26T16:04:24Z</time></trkpt><trkpt lat="43.3584785685407" lon="10.801551083570075"><ele>67.0</ele><time>2026-04-26T16:04:25Z</time></trkpt><trkpt lat="43.35861196414724" lon="10.801768356112095"><ele>67.0</ele><time>2026-04-26T16:04:26Z</time></trkpt><trkpt lat="43.358753802601065" lon="10.801984849923654"><ele>67.66666666666666</ele><time>2026-04-26T16:04:27Z</time></trkpt><trkpt lat="43.35889270069455" lon="10.802177881722711"><ele>68.33333333333333</ele><time>2026-04-26T16:04:28Z</time></trkpt><trkpt lat="43.35902394294793" lon="10.802377688947264"><ele>69.0</ele><time>2026-04-26T16:04:29Z</time></trkpt><trkpt lat="43.35913999060152" lon="10.802580329121616"><ele>68.0</ele><time>2026-04-26T16:04:30Z</time></trkpt><trkpt lat="43.35923796987225" lon="10.802801732314649"><ele>67.0</ele><time>2026-04-26T16:04:31Z</time></trkpt><trkpt lat="43.359308196194306" lon="10.803033200278099"><ele>66.0</ele><time>2026-04-26T16:04:32Z</time></trkpt><trkpt lat="43.3593602400391" lon="10.803281889233553"><ele>65.66666666666667</ele><time>2026-04-26T16:04:33Z</time></trkpt><trkpt lat="43.359397346803995" lon="10.803534018678882"><ele>65.33333333333334</ele><time>2026-04-26T16:04:34Z</time></trkpt><trkpt lat="43.359420579203736" lon="10.80379240059915"><ele>65.0</ele><time>2026-04-26T16:04:35Z</time></trkpt><trkpt lat="43.35942213053055" lon="10.804062545882948"><ele>65.66666666666667</ele><time>2026-04-26T16:04:36Z</time></trkpt><trkpt lat="43.35940020982737" lon="10.804341634287573"><ele>66.33333333333333</ele><time>2026-04-26T16:04:37Z</time></trkpt><trkpt lat="43.359364813941625" lon="10.80462754082088"><ele>67.0</ele><time>2026-04-26T16:04:38Z</time></trkpt><trkpt lat="43.359331499986126" lon="10.804907729335383"><ele>67.66666666666666</ele><time>2026-04-26T16:04:39Z</time></trkpt><trkpt lat="43.35929714118582" lon="10.805210369870927"><ele>68.33333333333333</ele><time>2026-04-26T16:04:40Z</time></trkpt><trkpt lat="43.359266495614236" lon="10.805504055263157"><ele>69.0</ele><time>2026-04-26T16:04:41Z</time></trkpt><trkpt lat="43.35923266710964" lon="10.805770186385178"><ele>69.0</ele><time>2026-04-26T16:04:42Z</time></trkpt><trkpt lat="43.359200258418745" lon="10.80600707287084"><ele>69.0</ele><time>2026-04-26T16:04:43Z</time></trkpt><trkpt lat="43.35917604626595" lon="10.806195217056077"><ele>69.0</ele><time>2026-04-26T16:04:44Z</time></trkpt><trkpt lat="43.359172007575616" lon="10.806370587058254"><ele>69.0</ele><time>2026-04-26T16:04:45Z</time></trkpt><trkpt lat="43.35920128415556" lon="10.806570297753833"><ele>69.0</ele><time>2026-04-26T16:04:46Z</time></trkpt><trkpt lat="43.35926884608749" lon="10.806788208031602"><ele>69.0</ele><time>2026-04-26T16:04:47Z</time></trkpt><trkpt lat="43.359344550814015" lon="10.807006361733817"><ele>69.0</ele><time>2026-04-26T16:04:48Z</time></trkpt><trkpt lat="43.359415050805524" lon="10.8072191820243"><ele>69.33333333333333</ele><time>2026-04-26T16:04:49Z</time></trkpt><trkpt lat="43.359477338210965" lon="10.807420358138497"><ele>69.66666666666666</ele><time>2026-04-26T16:04:50Z</time></trkpt><trkpt lat="43.359531504958895" lon="10.80761445846409"><ele>70.0</ele><time>2026-04-26T16:04:51Z</time></trkpt><trkpt lat="43.35958666636324" lon="10.807804256283077"><ele>70.0</ele><time>2026-04-26T16:04:52Z</time></trkpt><trkpt lat="43.35964041845654" lon="10.808002004477105"><ele>70.0</ele><time>2026-04-26T16:04:53Z</time></trkpt><trkpt lat="43.359701387998314" lon="10.808215306712997"><ele>70.0</ele><time>2026-04-26T16:04:54Z</time></trkpt><trkpt lat="43.359771938662405" lon="10.80844340789292"><ele>71.33333333333333</ele><time>2026-04-26T16:04:55Z</time></trkpt><trkpt lat="43.35984924399411" lon="10.808677407827423"><ele>72.66666666666667</ele><time>2026-04-26T16:04:56Z</time></trkpt><trkpt lat="43.359930086979645" lon="10.808917680460473"><ele>74.0</ele><time>2026-04-26T16:04:57Z</time></trkpt><trkpt lat="43.36001393836066" lon="10.809160700184528"><ele>73.33333333333334</ele><time>2026-04-26T16:04:58Z</time></trkpt><trkpt lat="43.36009201141216" lon="10.809393502657239"><ele>72.66666666666667</ele><time>2026-04-26T16:04:59Z</time></trkpt><trkpt lat="43.360162836810055" lon="10.809614139529682"><ele>72.0</ele><time>2026-04-26T16:05:00Z</time></trkpt><trkpt lat="43.36022655674712" lon="10.80982335918702"><ele>72.0</ele><time>2026-04-26T16:05:01Z</time></trkpt><trkpt lat="43.36028545819256" lon="10.810025658152982"><ele>72.0</ele><time>2026-04-26T16:05:02Z</time></trkpt><trkpt lat="43.36034094635423" lon="10.810213886547782"><ele>72.0</ele><time>2026-04-26T16:05:03Z</time></trkpt><trkpt lat="43.36039750953314" lon="10.810396696886912"><ele>71.75</ele><time>2026-04-26T16:05:04Z</time></trkpt><trkpt lat="43.36045255298566" lon="10.810571163522997"><ele>71.5</ele><time>2026-04-26T16:05:05Z</time></trkpt><trkpt lat="43.36050947298327" lon="10.810746621162359"><ele>71.25</ele><time>2026-04-26T16:05:06Z</time></trkpt><trkpt lat="43.360571103009214" lon="10.810922292952831"><ele>71.0</ele><time>2026-04-26T16:05:07Z</time></trkpt><trkpt lat="43.360640625849534" lon="10.811100165631833"><ele>72.0</ele><time>2026-04-26T16:05:08Z</time></trkpt><trkpt lat="43.360718471176675" lon="10.811268816118496"><ele>73.0</ele><time>2026-04-26T16:05:09Z</time></trkpt><trkpt lat="43.36080529224051" lon="10.811434370370932"><ele>74.0</ele><time>2026-04-26T16:05:10Z</time></trkpt><trkpt lat="43.36089716499725" lon="10.81160229364297"><ele>75.0</ele><time>2026-04-26T16:05:11Z</time></trkpt><trkpt lat="43.36099103483219" lon="10.811758896835697"><ele>74.5</ele><time>2026-04-26T16:05:12Z</time></trkpt><trkpt lat="43.36108206324899" lon="10.811902538109837"><ele>74.0</ele><time>2026-04-26T16:05:13Z</time></trkpt><trkpt lat="43.36115917246373" lon="10.81205447720274"><ele>73.5</ele><time>2026-04-26T16:05:14Z</time></trkpt><trkpt lat="43.36125327765575" lon="10.812176862857909"><ele>73.0</ele><time>2026-04-26T16:05:15Z</time></trkpt><trkpt lat="43.361357605790246" lon="10.81228166557058"><ele>73.75</ele><time>2026-04-26T16:05:16Z</time></trkpt><trkpt lat="43.36147301824995" lon="10.812376669011643"><ele>74.5</ele><time>2026-04-26T16:05:17Z</time></trkpt><trkpt lat="43.361589873060545" lon="10.812460784569824"><ele>75.25</ele><time>2026-04-26T16:05:18Z</time></trkpt><trkpt lat="43.36170859563144" lon="10.812531203992434"><ele>76.0</ele><time>2026-04-26T16:05:19Z</time></trkpt><trkpt lat="43.36182534472505" lon="10.812580627402854"><ele>76.0</ele><time>2026-04-26T16:05:20Z</time></trkpt><trkpt lat="43.36193629341223" lon="10.812612760556839"><ele>76.0</ele><time>2026-04-26T16:05:21Z</time></trkpt><trkpt lat="43.36203395581875" lon="10.812636749175674"><ele>76.0</ele><time>2026-04-26T16:05:22Z</time></trkpt><trkpt lat="43.36212036968111" lon="10.812652858906475"><ele>76.0</ele><time>2026-04-26T16:05:23Z</time></trkpt><trkpt lat="43.362199918274975" lon="10.8126503726083"><ele>76.0</ele><time>2026-04-26T16:05:24Z</time></trkpt><trkpt lat="43.36226097409556" lon="10.812678801429785"><ele>76.0</ele><time>2026-04-26T16:05:25Z</time></trkpt><trkpt lat="43.362340238874296" lon="10.812732094711302"><ele>75.5</ele><time>2026-04-26T16:05:27Z</time></trkpt><trkpt lat="43.36240894176023" lon="10.812766913912839"><ele>75.0</ele><time>2026-04-26T16:05:32Z</time></trkpt><trkpt lat="43.362542998895506" lon="10.812764077567808"><ele>74.5</ele><time>2026-04-26T16:11:38Z</time></trkpt><trkpt lat="43.362609980183926" lon="10.812737926146664"><ele>74.0</ele><time>2026-04-26T16:11:45Z</time></trkpt><trkpt lat="43.36267176941245" lon="10.81268048603008"><ele>73.5</ele><time>2026-04-26T16:11:56Z</time></trkpt><trkpt lat="43.36266657901838" lon="10.812797531396647"><ele>73.0</ele><time>2026-04-26T16:12:04Z</time></trkpt><trkpt lat="43.36267862257925" lon="10.812898661522183"><ele>73.0</ele><time>2026-04-26T16:12:08Z</time></trkpt><trkpt lat="43.36270679403519" lon="10.812806602924002"><ele>73.0</ele><time>2026-04-26T16:14:05Z</time></trkpt><trkpt lat="43.36267191161776" lon="10.812734074021686"><ele>73.0</ele><time>2026-04-26T16:14:10Z</time></trkpt><trkpt lat="43.362673472525735" lon="10.812637463209759"><ele>73.0</ele><time>2026-04-26T16:14:14Z</time></trkpt><trkpt lat="43.36260852100131" lon="10.81260089225945"><ele>73.0</ele><time>2026-04-26T16:14:22Z</time></trkpt><trkpt lat="43.36254132550251" lon="10.81263727525833"><ele>73.0</ele><time>2026-04-26T16:14:33Z</time></trkpt><trkpt lat="43.36259807123599" lon="10.812791185955067"><ele>73.0</ele><time>2026-04-26T16:26:50Z</time></trkpt><trkpt lat="43.362633355254964" lon="10.812702618564733"><ele>73.0</ele><time>2026-04-26T16:27:20Z</time></trkpt><trkpt lat="43.362692079990076" lon="10.81265858691182"><ele>73.0</ele><time>2026-04-26T16:27:25.001Z</time></trkpt><trkpt lat="43.362758728142964" lon="10.812667492728119"><ele>73.0</ele><time>2026-04-26T16:27:26.001Z</time></trkpt><trkpt lat="43.362838845171" lon="10.812675399170441"><ele>73.0</ele><time>2026-04-26T16:27:27.001Z</time></trkpt><trkpt lat="43.36290996385849" lon="10.8126720179764"><ele>73.0</ele><time>2026-04-26T16:27:28.001Z</time></trkpt><trkpt lat="43.36301193770651" lon="10.812664884404308"><ele>73.2</ele><time>2026-04-26T16:27:29.001Z</time></trkpt><trkpt lat="43.363122507036266" lon="10.812668325227452"><ele>73.4</ele><time>2026-04-26T16:27:30.001Z</time></trkpt><trkpt lat="43.36322846473623" lon="10.812666097062458"><ele>73.60000000000001</ele><time>2026-04-26T16:27:31Z</time></trkpt><trkpt lat="43.36332585581956" lon="10.812672022036551"><ele>73.8</ele><time>2026-04-26T16:27:32Z</time></trkpt><trkpt lat="43.36341706898924" lon="10.81267611544429"><ele>74.0</ele><time>2026-04-26T16:27:33Z</time></trkpt><trkpt lat="43.363497017766676" lon="10.812681758363828"><ele>74.0</ele><time>2026-04-26T16:27:34Z</time></trkpt><trkpt lat="43.36356959310557" lon="10.812686691462696"><ele>74.0</ele><time>2026-04-26T16:27:35Z</time></trkpt><trkpt lat="43.36363734364346" lon="10.812700791628776"><ele>74.0</ele><time>2026-04-26T16:27:36Z</time></trkpt><trkpt lat="43.363702681336825" lon="10.81271811100401"><ele>74.0</ele><time>2026-04-26T16:27:37Z</time></trkpt><trkpt lat="43.363772158537415" lon="10.812748415810796"><ele>74.0</ele><time>2026-04-26T16:27:38Z</time></trkpt><trkpt lat="43.363843860143724" lon="10.81279460781367"><ele>74.0</ele><time>2026-04-26T16:27:39Z</time></trkpt><trkpt lat="43.36392002246148" lon="10.81286351598327"><ele>74.8</ele><time>2026-04-26T16:27:40Z</time></trkpt><trkpt lat="43.3639996329592" lon="10.812943128306554"><ele>75.60000000000001</ele><time>2026-04-26T16:27:41Z</time></trkpt><trkpt lat="43.36408770431659" lon="10.813027626126688"><ele>76.4</ele><time>2026-04-26T16:27:42Z</time></trkpt><trkpt lat="43.364186059843526" lon="10.813113097173723"><ele>77.2</ele><time>2026-04-26T16:27:43Z</time></trkpt><trkpt lat="43.364289144154235" lon="10.813205515381872"><ele>78.0</ele><time>2026-04-26T16:27:44Z</time></trkpt><trkpt lat="43.36440460947032" lon="10.813319982040717"><ele>78.0</ele><time>2026-04-26T16:27:45Z</time></trkpt><trkpt lat="43.364531781066354" lon="10.813436317300848"><ele>78.0</ele><time>2026-04-26T16:27:46Z</time></trkpt><trkpt lat="43.364658787972346" lon="10.813551378872056"><ele>78.0</ele><time>2026-04-26T16:27:47Z</time></trkpt><trkpt lat="43.36478182448723" lon="10.813662497046902"><ele>78.33333333333333</ele><time>2026-04-26T16:27:48Z</time></trkpt><trkpt lat="43.36490866275559" lon="10.813784445216113"><ele>78.66666666666666</ele><time>2026-04-26T16:27:49Z</time></trkpt><trkpt lat="43.365042229700286" lon="10.81390871494958"><ele>79.0</ele><time>2026-04-26T16:27:50Z</time></trkpt><trkpt lat="43.365176357533116" lon="10.814045183948892"><ele>79.0</ele><time>2026-04-26T16:27:51Z</time></trkpt><trkpt lat="43.365325082008845" lon="10.814190078014143"><ele>79.0</ele><time>2026-04-26T16:27:52Z</time></trkpt><trkpt lat="43.365485835654695" lon="10.814329712435303"><ele>79.0</ele><time>2026-04-26T16:27:53Z</time></trkpt><trkpt lat="43.36563074520705" lon="10.81447856977903"><ele>80.33333333333333</ele><time>2026-04-26T16:27:54Z</time></trkpt><trkpt lat="43.365775096493856" lon="10.814603224543628"><ele>81.66666666666667</ele><time>2026-04-26T16:27:55Z</time></trkpt><trkpt lat="43.36592162690966" lon="10.814720657454764"><ele>83.0</ele><time>2026-04-26T16:27:56Z</time></trkpt><trkpt lat="43.36607047115785" lon="10.81481160273228"><ele>83.0</ele><time>2026-04-26T16:27:57Z</time></trkpt><trkpt lat="43.3662210070436" lon="10.814888424759937"><ele>83.0</ele><time>2026-04-26T16:27:58Z</time></trkpt><trkpt lat="43.36637926561883" lon="10.814967628141991"><ele>83.0</ele><time>2026-04-26T16:27:59Z</time></trkpt><trkpt lat="43.36653605740074" lon="10.815042706812232"><ele>86.0</ele><time>2026-04-26T16:28:00Z</time></trkpt><trkpt lat="43.36668522114826" lon="10.815113174584145"><ele>89.0</ele><time>2026-04-26T16:28:01Z</time></trkpt><trkpt lat="43.36683497386814" lon="10.815150370802256"><ele>92.0</ele><time>2026-04-26T16:28:02Z</time></trkpt><trkpt lat="43.36698334540176" lon="10.815136170618533"><ele>92.0</ele><time>2026-04-26T16:28:03Z</time></trkpt><trkpt lat="43.36713779705453" lon="10.815102245720224"><ele>92.0</ele><time>2026-04-26T16:28:04Z</time></trkpt><trkpt lat="43.36729756108801" lon="10.815036476388281"><ele>92.0</ele><time>2026-04-26T16:28:05Z</time></trkpt><trkpt lat="43.36747363721657" lon="10.81495256186718"><ele>92.66666666666667</ele><time>2026-04-26T16:28:06Z</time></trkpt><trkpt lat="43.367656531466494" lon="10.814871182979681"><ele>93.33333333333333</ele><time>2026-04-26T16:28:07Z</time></trkpt><trkpt lat="43.36782713299292" lon="10.814812645301801"><ele>94.0</ele><time>2026-04-26T16:28:08Z</time></trkpt><trkpt lat="43.367983104522516" lon="10.814787927678475"><ele>94.5</ele><time>2026-04-26T16:28:09Z</time></trkpt><trkpt lat="43.36811644497596" lon="10.814785208936108"><ele>95.0</ele><time>2026-04-26T16:28:10Z</time></trkpt><trkpt lat="43.36823565483215" lon="10.814802063101691"><ele>95.5</ele><time>2026-04-26T16:28:11Z</time></trkpt><trkpt lat="43.36833434844997" lon="10.814850270918493"><ele>96.0</ele><time>2026-04-26T16:28:12Z</time></trkpt><trkpt lat="43.36841075713341" lon="10.814942170906045"><ele>96.0</ele><time>2026-04-26T16:28:13Z</time></trkpt><trkpt lat="43.368459790478525" lon="10.815069871829229"><ele>96.0</ele><time>2026-04-26T16:28:14Z</time></trkpt><trkpt lat="43.36848692320381" lon="10.815226617342848"><ele>96.0</ele><time>2026-04-26T16:28:15Z</time></trkpt><trkpt lat="43.3684886711928" lon="10.815412664759629"><ele>96.0</ele><time>2026-04-26T16:28:16Z</time></trkpt><trkpt lat="43.36847771941068" lon="10.815627177739147"><ele>97.66666666666666</ele><time>2026-04-26T16:28:17Z</time></trkpt><trkpt lat="43.36846515611751" lon="10.815846767849221"><ele>99.33333333333333</ele><time>2026-04-26T16:28:18Z</time></trkpt><trkpt lat="43.36847835303232" lon="10.81605233173756"><ele>101.0</ele><time>2026-04-26T16:28:19Z</time></trkpt><trkpt lat="43.36852319525271" lon="10.816239068853983"><ele>101.75</ele><time>2026-04-26T16:28:20Z</time></trkpt><trkpt lat="43.36860363222247" lon="10.816393223574915"><ele>102.5</ele><time>2026-04-26T16:28:21Z</time></trkpt><trkpt lat="43.368722816331044" lon="10.816511092502683"><ele>103.25</ele><time>2026-04-26T16:28:22Z</time></trkpt><trkpt lat="43.368843327639446" lon="10.816589798432698"><ele>104.0</ele><time>2026-04-26T16:28:23Z</time></trkpt><trkpt lat="43.368936263722446" lon="10.816690574539596"><ele>106.33333333333333</ele><time>2026-04-26T16:28:24Z</time></trkpt><trkpt lat="43.36899738186201" lon="10.816875401421116"><ele>108.66666666666666</ele><time>2026-04-26T16:28:25Z</time></trkpt><trkpt lat="43.36906067733102" lon="10.817101155832061"><ele>111.0</ele><time>2026-04-26T16:28:26Z</time></trkpt><trkpt lat="43.36913127994114" lon="10.81733979392156"><ele>111.0</ele><time>2026-04-26T16:28:27Z</time></trkpt><trkpt lat="43.369215942377906" lon="10.817621028858524"><ele>111.0</ele><time>2026-04-26T16:28:28Z</time></trkpt><trkpt lat="43.36930301510062" lon="10.817921354728382"><ele>113.66666666666666</ele><time>2026-04-26T16:28:29Z</time></trkpt><trkpt lat="43.36937600823879" lon="10.81819455501415"><ele>116.33333333333333</ele><time>2026-04-26T16:28:30Z</time></trkpt><trkpt lat="43.36945511889264" lon="10.81845163905001"><ele>119.0</ele><time>2026-04-26T16:28:31Z</time></trkpt><trkpt lat="43.36954993871593" lon="10.818705149842518"><ele>117.0</ele><time>2026-04-26T16:28:32Z</time></trkpt><trkpt lat="43.369676712633236" lon="10.818971902910546"><ele>115.0</ele><time>2026-04-26T16:28:33Z</time></trkpt><trkpt lat="43.36983949284216" lon="10.819250266640655"><ele>119.0</ele><time>2026-04-26T16:28:34Z</time></trkpt><trkpt lat="43.36999166180175" lon="10.819511365159066"><ele>123.0</ele><time>2026-04-26T16:28:35Z</time></trkpt><trkpt lat="43.370123240410024" lon="10.81975072074473"><ele>123.0</ele><time>2026-04-26T16:28:36Z</time></trkpt><trkpt lat="43.37024840692656" lon="10.819965481608675"><ele>123.0</ele><time>2026-04-26T16:28:37Z</time></trkpt><trkpt lat="43.37037667431519" lon="10.820149839210975"><ele>123.0</ele><time>2026-04-26T16:28:38Z</time></trkpt><trkpt lat="43.370529265423016" lon="10.82032261714925"><ele>123.0</ele><time>2026-04-26T16:28:39Z</time></trkpt><trkpt lat="43.370730809030206" lon="10.820490008320041"><ele>123.0</ele><time>2026-04-26T16:28:40Z</time></trkpt><trkpt lat="43.37095131657265" lon="10.82066645269315"><ele>123.0</ele><time>2026-04-26T16:28:41Z</time></trkpt><trkpt lat="43.37116000934172" lon="10.820872851008343"><ele>123.0</ele><time>2026-04-26T16:28:42Z</time></trkpt><trkpt lat="43.37135409872407" lon="10.82101667126595"><ele>123.33333333333334</ele><time>2026-04-26T16:28:43Z</time></trkpt><trkpt lat="43.37152105116906" lon="10.821168378913615"><ele>123.66666666666667</ele><time>2026-04-26T16:28:44Z</time></trkpt><trkpt lat="43.37167815236041" lon="10.821308930315224"><ele>124.0</ele><time>2026-04-26T16:28:45Z</time></trkpt><trkpt lat="43.37182280544149" lon="10.82144454421197"><ele>124.0</ele><time>2026-04-26T16:28:46Z</time></trkpt><trkpt lat="43.37195385295752" lon="10.821571995394084"><ele>124.0</ele><time>2026-04-26T16:28:47Z</time></trkpt><trkpt lat="43.3720881701388" lon="10.82168834471676"><ele>124.0</ele><time>2026-04-26T16:28:48Z</time></trkpt><trkpt lat="43.37222943064309" lon="10.821772904769496"><ele>124.0</ele><time>2026-04-26T16:28:49Z</time></trkpt><trkpt lat="43.37238210262718" lon="10.821816817223729"><ele>124.0</ele><time>2026-04-26T16:28:50Z</time></trkpt><trkpt lat="43.37254434223723" lon="10.821817552521464"><ele>124.0</ele><time>2026-04-26T16:28:51Z</time></trkpt><trkpt lat="43.37269346780936" lon="10.82179131538608"><ele>124.0</ele><time>2026-04-26T16:28:52Z</time></trkpt><trkpt lat="43.37283291152145" lon="10.821795215197977"><ele>124.0</ele><time>2026-04-26T16:28:53Z</time></trkpt><trkpt lat="43.37294580504687" lon="10.821875648532712"><ele>124.0</ele><time>2026-04-26T16:28:54Z</time></trkpt><trkpt lat="43.37305884755545" lon="10.82198478488024"><ele>124.0</ele><time>2026-04-26T16:28:55Z</time></trkpt><trkpt lat="43.37316520085021" lon="10.822131928895281"><ele>124.5</ele><time>2026-04-26T16:28:56Z</time></trkpt><trkpt lat="43.37326337009915" lon="10.822280748210519"><ele>125.0</ele><time>2026-04-26T16:28:57Z</time></trkpt><trkpt lat="43.37336434560465" lon="10.822397132453673"><ele>125.5</ele><time>2026-04-26T16:28:58Z</time></trkpt><trkpt lat="43.3734964876906" lon="10.822484834955029"><ele>126.0</ele><time>2026-04-26T16:28:59Z</time></trkpt><trkpt lat="43.37365877172412" lon="10.822540826692682"><ele>126.0</ele><time>2026-04-26T16:29:00Z</time></trkpt><trkpt lat="43.37382905616267" lon="10.82255713919769"><ele>126.0</ele><time>2026-04-26T16:29:01Z</time></trkpt><trkpt lat="43.37401253178675" lon="10.822544045786051"><ele>126.0</ele><time>2026-04-26T16:29:02Z</time></trkpt><trkpt lat="43.37419089305517" lon="10.822503030268745"><ele>128.33333333333334</ele><time>2026-04-26T16:29:03Z</time></trkpt><trkpt lat="43.37437083236822" lon="10.822423400875477"><ele>130.66666666666669</ele><time>2026-04-26T16:29:04.001Z</time></trkpt><trkpt lat="43.37453297407944" lon="10.822329861443032"><ele>133.0</ele><time>2026-04-26T16:29:05.001Z</time></trkpt><trkpt lat="43.37467051143649" lon="10.822256062665154"><ele>133.0</ele><time>2026-04-26T16:29:06.001Z</time></trkpt><trkpt lat="43.37479863174945" lon="10.822200066003438"><ele>133.0</ele><time>2026-04-26T16:29:07.001Z</time></trkpt><trkpt lat="43.37492643027408" lon="10.822177140013077"><ele>133.0</ele><time>2026-04-26T16:29:08.001Z</time></trkpt><trkpt lat="43.3750768826468" lon="10.822188594909612"><ele>133.0</ele><time>2026-04-26T16:29:09.001Z</time></trkpt><trkpt lat="43.37526775769956" lon="10.822235276357532"><ele>133.0</ele><time>2026-04-26T16:29:10.001Z</time></trkpt><trkpt lat="43.3754822193151" lon="10.822322201924923"><ele>133.0</ele><time>2026-04-26T16:29:11.001Z</time></trkpt><trkpt lat="43.37573402512609" lon="10.82237234150744"><ele>131.0</ele><time>2026-04-26T16:29:12.001Z</time></trkpt><trkpt lat="43.37601469996466" lon="10.822383876760261"><ele>129.0</ele><time>2026-04-26T16:29:13.001Z</time></trkpt><trkpt lat="43.376286627964745" lon="10.822413187158759"><ele>129.0</ele><time>2026-04-26T16:29:14.001Z</time></trkpt><trkpt lat="43.376532660125115" lon="10.82244310573781"><ele>129.0</ele><time>2026-04-26T16:29:15.001Z</time></trkpt><trkpt lat="43.37675756318128" lon="10.822469553750832"><ele>129.0</ele><time>2026-04-26T16:29:16.001Z</time></trkpt><trkpt lat="43.376965762420056" lon="10.82248529589501"><ele>129.0</ele><time>2026-04-26T16:29:17.001Z</time></trkpt><trkpt lat="43.37715856181232" lon="10.822506533498775"><ele>129.0</ele><time>2026-04-26T16:29:18.001Z</time></trkpt><trkpt lat="43.37731455109533" lon="10.822539946613245"><ele>129.5</ele><time>2026-04-26T16:29:19.001Z</time></trkpt><trkpt lat="43.37743184380531" lon="10.822628464758546"><ele>130.0</ele><time>2026-04-26T16:29:20.001Z</time></trkpt><trkpt lat="43.37753912225871" lon="10.82274064661023"><ele>130.5</ele><time>2026-04-26T16:29:21.001Z</time></trkpt><trkpt lat="43.37762330249298" lon="10.822909673394406"><ele>131.0</ele><time>2026-04-26T16:29:22.001Z</time></trkpt><trkpt lat="43.3777128546844" lon="10.823099199151411"><ele>131.0</ele><time>2026-04-26T16:29:23.001Z</time></trkpt><trkpt lat="43.377813612347964" lon="10.823277633004583"><ele>131.0</ele><time>2026-04-26T16:29:24.001Z</time></trkpt><trkpt lat="43.37790351875977" lon="10.823436565594637"><ele>131.0</ele><time>2026-04-26T16:29:25.001Z</time></trkpt><trkpt lat="43.37802562593274" lon="10.823539630521822"><ele>133.0</ele><time>2026-04-26T16:29:26.001Z</time></trkpt><trkpt lat="43.37817095923996" lon="10.82361292794422"><ele>135.0</ele><time>2026-04-26T16:29:27.001Z</time></trkpt><trkpt lat="43.37834494655182" lon="10.823670410626837"><ele>137.0</ele><time>2026-04-26T16:29:28.001Z</time></trkpt><trkpt lat="43.37852430372606" lon="10.823725163486309"><ele>137.0</ele><time>2026-04-26T16:29:29.001Z</time></trkpt><trkpt lat="43.3786757964882" lon="10.82378149911122"><ele>137.0</ele><time>2026-04-26T16:29:30.001Z</time></trkpt><trkpt lat="43.37883423394943" lon="10.823869859949777"><ele>137.0</ele><time>2026-04-26T16:29:31.001Z</time></trkpt><trkpt lat="43.3789880737406" lon="10.824003865083522"><ele>139.33333333333331</ele><time>2026-04-26T16:29:32.001Z</time></trkpt><trkpt lat="43.379129761386636" lon="10.824211687422963"><ele>141.66666666666666</ele><time>2026-04-26T16:29:33.001Z</time></trkpt><trkpt lat="43.3793040741123" lon="10.824407496938294"><ele>144.0</ele><time>2026-04-26T16:29:34.001Z</time></trkpt><trkpt lat="43.37948417550119" lon="10.824543507552423"><ele>146.0</ele><time>2026-04-26T16:29:35.001Z</time></trkpt><trkpt lat="43.37965623084853" lon="10.824644000659422"><ele>148.0</ele><time>2026-04-26T16:29:36.001Z</time></trkpt><trkpt lat="43.379808727542" lon="10.824741152943588"><ele>150.0</ele><time>2026-04-26T16:29:36.999Z</time></trkpt><trkpt lat="43.37994670097699" lon="10.824835562371103"><ele>150.75</ele><time>2026-04-26T16:29:37.999Z</time></trkpt><trkpt lat="43.380067368548694" lon="10.824947648496314"><ele>151.5</ele><time>2026-04-26T16:29:38.999Z</time></trkpt><trkpt lat="43.3801633637175" lon="10.82507122241595"><ele>152.25</ele><time>2026-04-26T16:29:39.999Z</time></trkpt><trkpt lat="43.380237970372534" lon="10.825223547668584"><ele>153.0</ele><time>2026-04-26T16:29:40.999Z</time></trkpt><trkpt lat="43.38027779295931" lon="10.82540369289341"><ele>154.66666666666666</ele><time>2026-04-26T16:29:41.999Z</time></trkpt><trkpt lat="43.3802798259383" lon="10.82561771391537"><ele>156.33333333333331</ele><time>2026-04-26T16:29:42.999Z</time></trkpt><trkpt lat="43.38028473419524" lon="10.825859114900979"><ele>158.0</ele><time>2026-04-26T16:29:43.999Z</time></trkpt><trkpt lat="43.380310261749806" lon="10.826112659578351"><ele>158.0</ele><time>2026-04-26T16:29:44.999Z</time></trkpt><trkpt lat="43.380309412858615" lon="10.826344210854566"><ele>158.0</ele><time>2026-04-26T16:29:45.999Z</time></trkpt><trkpt lat="43.38032578713944" lon="10.826554127124947"><ele>158.0</ele><time>2026-04-26T16:29:46.999Z</time></trkpt><trkpt lat="43.38034912428061" lon="10.826751375316123"><ele>158.25</ele><time>2026-04-26T16:29:47.999Z</time></trkpt><trkpt lat="43.38043445312944" lon="10.826912615932718"><ele>158.5</ele><time>2026-04-26T16:29:48.999Z</time></trkpt><trkpt lat="43.380563625384" lon="10.827013783411905"><ele>158.75</ele><time>2026-04-26T16:29:49.999Z</time></trkpt><trkpt lat="43.38068147113431" lon="10.827116538895398"><ele>159.0</ele><time>2026-04-26T16:29:50.999Z</time></trkpt><trkpt lat="43.38077983894122" lon="10.82721368450186"><ele>159.75</ele><time>2026-04-26T16:29:51.999Z</time></trkpt><trkpt lat="43.38085543956997" lon="10.82733981977685"><ele>160.5</ele><time>2026-04-26T16:29:52.999Z</time></trkpt><trkpt lat="43.38092533573996" lon="10.827521614830887"><ele>161.25</ele><time>2026-04-26T16:29:53.999Z</time></trkpt><trkpt lat="43.38097979397632" lon="10.827706130320674"><ele>162.0</ele><time>2026-04-26T16:29:54.999Z</time></trkpt><trkpt lat="43.381022314800255" lon="10.827888870145824"><ele>162.0</ele><time>2026-04-26T16:29:55.999Z</time></trkpt><trkpt lat="43.38104939631358" lon="10.828073540556764"><ele>162.0</ele><time>2026-04-26T16:29:56.999Z</time></trkpt><trkpt lat="43.38105605531222" lon="10.828287174718945"><ele>162.0</ele><time>2026-04-26T16:29:57.999Z</time></trkpt><trkpt lat="43.38101948044594" lon="10.82853588014938"><ele>160.0</ele><time>2026-04-26T16:29:58.999Z</time></trkpt><trkpt lat="43.380986075637615" lon="10.828826859383115"><ele>158.0</ele><time>2026-04-26T16:29:59.999Z</time></trkpt><trkpt lat="43.38094871312924" lon="10.829152312867988"><ele>159.0</ele><time>2026-04-26T16:30:00.999Z</time></trkpt><trkpt lat="43.38090987706788" lon="10.829490602008985"><ele>160.0</ele><time>2026-04-26T16:30:01.999Z</time></trkpt><trkpt lat="43.38088254691709" lon="10.829836180351933"><ele>160.33333333333334</ele><time>2026-04-26T16:30:02.999Z</time></trkpt><trkpt lat="43.38084508837941" lon="10.830149683412747"><ele>160.66666666666666</ele><time>2026-04-26T16:30:03.999Z</time></trkpt><trkpt lat="43.380815025050346" lon="10.830439295228015"><ele>161.0</ele><time>2026-04-26T16:30:04.999Z</time></trkpt><trkpt lat="43.38077181456947" lon="10.830712249885574"><ele>162.33333333333331</ele><time>2026-04-26T16:30:05.999Z</time></trkpt><trkpt lat="43.38075525164263" lon="10.830980477173002"><ele>163.66666666666666</ele><time>2026-04-26T16:30:06.999Z</time></trkpt><trkpt lat="43.38078702674887" lon="10.831235965206494"><ele>165.0</ele><time>2026-04-26T16:30:07.999Z</time></trkpt><trkpt lat="43.38082687243476" lon="10.831498260131522"><ele>165.0</ele><time>2026-04-26T16:30:08.999Z</time></trkpt><trkpt lat="43.380892305276994" lon="10.831789986176654"><ele>165.0</ele><time>2026-04-26T16:30:09.999Z</time></trkpt><trkpt lat="43.38094446953301" lon="10.832085981179132"><ele>165.0</ele><time>2026-04-26T16:30:10.999Z</time></trkpt><trkpt lat="43.38103375910188" lon="10.832331656104092"><ele>165.0</ele><time>2026-04-26T16:30:12Z</time></trkpt><trkpt lat="43.38111410589458" lon="10.832561504501966"><ele>165.0</ele><time>2026-04-26T16:30:13Z</time></trkpt><trkpt lat="43.38120119606756" lon="10.832769408548865"><ele>165.0</ele><time>2026-04-26T16:30:14Z</time></trkpt><trkpt lat="43.38130020182801" lon="10.83297400042799"><ele>166.0</ele><time>2026-04-26T16:30:15Z</time></trkpt><trkpt lat="43.38141276183534" lon="10.833180822817576"><ele>167.0</ele><time>2026-04-26T16:30:16Z</time></trkpt><trkpt lat="43.38152005472721" lon="10.83340745614255"><ele>168.0</ele><time>2026-04-26T16:30:17Z</time></trkpt><trkpt lat="43.38164681765481" lon="10.833630306356657"><ele>169.66666666666666</ele><time>2026-04-26T16:30:18Z</time></trkpt><trkpt lat="43.38177890124344" lon="10.833861572277169"><ele>171.33333333333331</ele><time>2026-04-26T16:30:19Z</time></trkpt><trkpt lat="43.38193033499388" lon="10.83408874223602"><ele>173.0</ele><time>2026-04-26T16:30:20Z</time></trkpt><trkpt lat="43.38206392823901" lon="10.834355299692238"><ele>174.33333333333331</ele><time>2026-04-26T16:30:21Z</time></trkpt><trkpt lat="43.38222438139949" lon="10.834580607592827"><ele>175.66666666666666</ele><time>2026-04-26T16:30:22Z</time></trkpt><trkpt lat="43.38236836086709" lon="10.834795310340711"><ele>177.0</ele><time>2026-04-26T16:30:23Z</time></trkpt><trkpt lat="43.38250759350987" lon="10.834985965752566"><ele>176.66666666666666</ele><time>2026-04-26T16:30:24Z</time></trkpt><trkpt lat="43.382648645751864" lon="10.835170918658005"><ele>176.33333333333331</ele><time>2026-04-26T16:30:25Z</time></trkpt><trkpt lat="43.382771320206004" lon="10.835369929187673"><ele>176.0</ele><time>2026-04-26T16:30:26Z</time></trkpt><trkpt lat="43.38291062504314" lon="10.835563274768749"><ele>176.66666666666666</ele><time>2026-04-26T16:30:27Z</time></trkpt><trkpt lat="43.38303692798576" lon="10.835739209877687"><ele>177.33333333333334</ele><time>2026-04-26T16:30:28Z</time></trkpt><trkpt lat="43.383168790793015" lon="10.835884952446301"><ele>178.0</ele><time>2026-04-26T16:30:29Z</time></trkpt><trkpt lat="43.38329884298913" lon="10.836051264707182"><ele>178.0</ele><time>2026-04-26T16:30:30Z</time></trkpt><trkpt lat="43.38342606048484" lon="10.836203046766888"><ele>178.0</ele><time>2026-04-26T16:30:31Z</time></trkpt><trkpt lat="43.38355151338324" lon="10.836345120601708"><ele>178.0</ele><time>2026-04-26T16:30:32Z</time></trkpt><trkpt lat="43.38368090778289" lon="10.836490679593258"><ele>178.0</ele><time>2026-04-26T16:30:33Z</time></trkpt><trkpt lat="43.38380272950357" lon="10.836627122331073"><ele>178.0</ele><time>2026-04-26T16:30:34Z</time></trkpt><trkpt lat="43.383917627500644" lon="10.836756334543377"><ele>178.0</ele><time>2026-04-26T16:30:35Z</time></trkpt><trkpt lat="43.3840275989044" lon="10.836875098421665"><ele>178.0</ele><time>2026-04-26T16:30:36Z</time></trkpt><trkpt lat="43.38411965797191" lon="10.837006357268153"><ele>178.5</ele><time>2026-04-26T16:30:37Z</time></trkpt><trkpt lat="43.38421212715694" lon="10.837112331507129"><ele>179.0</ele><time>2026-04-26T16:30:38Z</time></trkpt><trkpt lat="43.38432428397343" lon="10.83724120626635"><ele>179.5</ele><time>2026-04-26T16:30:39Z</time></trkpt><trkpt lat="43.38446079242861" lon="10.837393305470988"><ele>180.0</ele><time>2026-04-26T16:30:40Z</time></trkpt><trkpt lat="43.38457921277492" lon="10.837519827821676"><ele>182.0</ele><time>2026-04-26T16:30:41Z</time></trkpt><trkpt lat="43.38468468986497" lon="10.837601344193999"><ele>184.0</ele><time>2026-04-26T16:30:42Z</time></trkpt><trkpt lat="43.38480104532182" lon="10.83763016548491"><ele>186.0</ele><time>2026-04-26T16:30:43Z</time></trkpt><trkpt lat="43.3849059605856" lon="10.83764571002574"><ele>188.0</ele><time>2026-04-26T16:30:44Z</time></trkpt><trkpt lat="43.38501785673832" lon="10.837649394281557"><ele>188.5</ele><time>2026-04-26T16:30:45Z</time></trkpt><trkpt lat="43.38513934299297" lon="10.837651563855609"><ele>189.0</ele><time>2026-04-26T16:30:46Z</time></trkpt><trkpt lat="43.385259339130684" lon="10.837657992550776"><ele>189.5</ele><time>2026-04-26T16:30:47Z</time></trkpt><trkpt lat="43.38537003232785" lon="10.8376691248604"><ele>190.0</ele><time>2026-04-26T16:30:48Z</time></trkpt><trkpt lat="43.38549296575744" lon="10.837683947781585"><ele>192.0</ele><time>2026-04-26T16:30:49Z</time></trkpt><trkpt lat="43.38561373745261" lon="10.837717137597044"><ele>194.0</ele><time>2026-04-26T16:30:50Z</time></trkpt><trkpt lat="43.38573404268893" lon="10.83776291588048"><ele>196.0</ele><time>2026-04-26T16:30:51Z</time></trkpt><trkpt lat="43.385867545835374" lon="10.837826623800561"><ele>198.0</ele><time>2026-04-26T16:30:52Z</time></trkpt><trkpt lat="43.38600122656181" lon="10.837893877256759"><ele>198.0</ele><time>2026-04-26T16:30:53Z</time></trkpt><trkpt lat="43.38613851772797" lon="10.837963174839407"><ele>198.0</ele><time>2026-04-26T16:30:54Z</time></trkpt><trkpt lat="43.386269542503314" lon="10.838034034327881"><ele>198.0</ele><time>2026-04-26T16:30:55Z</time></trkpt><trkpt lat="43.386399231663205" lon="10.838116061232887"><ele>198.0</ele><time>2026-04-26T16:30:56Z</time></trkpt><trkpt lat="43.3865362855119" lon="10.838208272444579"><ele>199.0</ele><time>2026-04-26T16:30:57Z</time></trkpt><trkpt lat="43.38666524071342" lon="10.838298743043572"><ele>200.0</ele><time>2026-04-26T16:30:58Z</time></trkpt><trkpt lat="43.386782982882856" lon="10.838383042662104"><ele>201.0</ele><time>2026-04-26T16:30:59Z</time></trkpt><trkpt lat="43.38688652532669" lon="10.83846968688159"><ele>202.0</ele><time>2026-04-26T16:31:00Z</time></trkpt><trkpt lat="43.38698052834078" lon="10.838582828814172"><ele>202.25</ele><time>2026-04-26T16:31:01Z</time></trkpt><trkpt lat="43.38704955064495" lon="10.838724495273693"><ele>202.5</ele><time>2026-04-26T16:31:02Z</time></trkpt><trkpt lat="43.38709309207337" lon="10.83891783082864"><ele>202.75</ele><time>2026-04-26T16:31:03Z</time></trkpt><trkpt lat="43.38714985240635" lon="10.83909225543456"><ele>203.0</ele><time>2026-04-26T16:31:04Z</time></trkpt><trkpt lat="43.38723746369769" lon="10.839226826763893"><ele>208.0</ele><time>2026-04-26T16:31:05Z</time></trkpt><trkpt lat="43.38735307140381" lon="10.839365565956935"><ele>213.0</ele><time>2026-04-26T16:31:06Z</time></trkpt><trkpt lat="43.38749200419636" lon="10.839524787117973"><ele>218.0</ele><time>2026-04-26T16:31:07Z</time></trkpt><trkpt lat="43.38764786477627" lon="10.83969525673376"><ele>218.0</ele><time>2026-04-26T16:31:08Z</time></trkpt><trkpt lat="43.38777954070521" lon="10.839842289939382"><ele>218.0</ele><time>2026-04-26T16:31:09Z</time></trkpt><trkpt lat="43.3879014656226" lon="10.839979085118953"><ele>218.0</ele><time>2026-04-26T16:31:10Z</time></trkpt><trkpt lat="43.38801851386079" lon="10.840108213141113"><ele>218.75</ele><time>2026-04-26T16:31:11Z</time></trkpt><trkpt lat="43.38813349972094" lon="10.840211364398867"><ele>219.5</ele><time>2026-04-26T16:31:12Z</time></trkpt><trkpt lat="43.38823145224877" lon="10.840331629175017"><ele>220.25</ele><time>2026-04-26T16:31:13Z</time></trkpt><trkpt lat="43.388319437788695" lon="10.840449485727829"><ele>221.0</ele><time>2026-04-26T16:31:14Z</time></trkpt><trkpt lat="43.38840271484547" lon="10.840577430443206"><ele>221.0</ele><time>2026-04-26T16:31:15Z</time></trkpt><trkpt lat="43.38848169123692" lon="10.84069377750548"><ele>221.0</ele><time>2026-04-26T16:31:16Z</time></trkpt><trkpt lat="43.38858098919409" lon="10.840833364856746"><ele>221.0</ele><time>2026-04-26T16:31:17Z</time></trkpt><trkpt lat="43.388678813289395" lon="10.84097095090454"><ele>221.0</ele><time>2026-04-26T16:31:18Z</time></trkpt><trkpt lat="43.388754626517176" lon="10.841082065123468"><ele>222.0</ele><time>2026-04-26T16:31:19Z</time></trkpt><trkpt lat="43.38881359531963" lon="10.841174516667454"><ele>223.00000000000003</ele><time>2026-04-26T16:31:20Z</time></trkpt><trkpt lat="43.38885704614047" lon="10.84126146108327"><ele>224.00000000000003</ele><time>2026-04-26T16:31:21Z</time></trkpt><trkpt lat="43.38888707238332" lon="10.841400408103501"><ele>225.0</ele><time>2026-04-26T16:31:22Z</time></trkpt><trkpt lat="43.38894665145684" lon="10.841503611678926"><ele>226.0</ele><time>2026-04-26T16:31:23Z</time></trkpt><trkpt lat="43.38899318274175" lon="10.841602277689777"><ele>226.0</ele><time>2026-04-26T16:31:24Z</time></trkpt><trkpt lat="43.38906387306959" lon="10.841695898105652"><ele>226.00000000000003</ele><time>2026-04-26T16:31:25Z</time></trkpt><trkpt lat="43.389152184690545" lon="10.8417571631596"><ele>226.00000000000003</ele><time>2026-04-26T16:31:26Z</time></trkpt><trkpt lat="43.3892606026686" lon="10.841791577926525"><ele>226.0</ele><time>2026-04-26T16:31:27Z</time></trkpt><trkpt lat="43.38940056152663" lon="10.841800319466886"><ele>226.0</ele><time>2026-04-26T16:31:28Z</time></trkpt><trkpt lat="43.389561652109535" lon="10.84179013271171"><ele>226.66666666666666</ele><time>2026-04-26T16:31:29Z</time></trkpt><trkpt lat="43.389731585531635" lon="10.841775311371345"><ele>227.33333333333331</ele><time>2026-04-26T16:31:30Z</time></trkpt><trkpt lat="43.389918604297556" lon="10.84176716080751"><ele>228.0</ele><time>2026-04-26T16:31:31Z</time></trkpt><trkpt lat="43.390084021032244" lon="10.841763100667071"><ele>228.0</ele><time>2026-04-26T16:31:32.001Z</time></trkpt><trkpt lat="43.39024796256065" lon="10.841759110428654"><ele>228.0</ele><time>2026-04-26T16:31:33.001Z</time></trkpt><trkpt lat="43.390389698849795" lon="10.841753615665374"><ele>228.0</ele><time>2026-04-26T16:31:34.001Z</time></trkpt><trkpt lat="43.39051963279897" lon="10.841758462122284"><ele>228.0</ele><time>2026-04-26T16:31:35.001Z</time></trkpt><trkpt lat="43.39063753353729" lon="10.841788110809787"><ele>230.60000000000002</ele><time>2026-04-26T16:31:36.001Z</time></trkpt><trkpt lat="43.390736885535304" lon="10.841842773915564"><ele>233.20000000000002</ele><time>2026-04-26T16:31:37.001Z</time></trkpt><trkpt lat="43.390826146738576" lon="10.84191659156"><ele>235.8</ele><time>2026-04-26T16:31:38.001Z</time></trkpt><trkpt lat="43.390914836482175" lon="10.842012043419603"><ele>238.4</ele><time>2026-04-26T16:31:39.001Z</time></trkpt><trkpt lat="43.39099819672021" lon="10.842117923676525"><ele>241.0</ele><time>2026-04-26T16:31:40.001Z</time></trkpt><trkpt lat="43.39106932317889" lon="10.842209929114912"><ele>241.0</ele><time>2026-04-26T16:31:41.001Z</time></trkpt><trkpt lat="43.39113284139313" lon="10.842291184086745"><ele>241.00000000000003</ele><time>2026-04-26T16:31:42.001Z</time></trkpt><trkpt lat="43.39119142303986" lon="10.842364479339881"><ele>241.0</ele><time>2026-04-26T16:31:42.998Z</time></trkpt><trkpt lat="43.39124093900237" lon="10.84243636378628"><ele>241.0</ele><time>2026-04-26T16:31:43.998Z</time></trkpt><trkpt lat="43.39127645349572" lon="10.842519899308183"><ele>241.00000000000003</ele><time>2026-04-26T16:31:44.998Z</time></trkpt><trkpt lat="43.39128088271265" lon="10.842612305917044"><ele>241.0</ele><time>2026-04-26T16:31:45.998Z</time></trkpt><trkpt lat="43.391253087372704" lon="10.84269849491457"><ele>241.0</ele><time>2026-04-26T16:31:46.998Z</time></trkpt><trkpt lat="43.391199921959114" lon="10.842762213286356"><ele>240.99999999999997</ele><time>2026-04-26T16:31:47.998Z</time></trkpt><trkpt lat="43.3911246637658" lon="10.84279778307172"><ele>241.0</ele><time>2026-04-26T16:31:48.998Z</time></trkpt><trkpt lat="43.39104178831629" lon="10.842777933829412"><ele>241.0</ele><time>2026-04-26T16:31:49.998Z</time></trkpt><trkpt lat="43.39098084748733" lon="10.842691281469417"><ele>241.0</ele><time>2026-04-26T16:31:50.998Z</time></trkpt><trkpt lat="43.39090144813978" lon="10.84262431234966"><ele>240.99999999999997</ele><time>2026-04-26T16:31:51.998Z</time></trkpt><trkpt lat="43.39081616518711" lon="10.84258345304999"><ele>241.0</ele><time>2026-04-26T16:31:52.998Z</time></trkpt><trkpt lat="43.39074690771754" lon="10.842510059678032"><ele>241.0</ele><time>2026-04-26T16:31:53.998Z</time></trkpt><trkpt lat="43.390657488083676" lon="10.842471187031803"><ele>241.00000000000003</ele><time>2026-04-26T16:31:54.998Z</time></trkpt><trkpt lat="43.39056225265985" lon="10.842467842183908"><ele>241.00000000000003</ele><time>2026-04-26T16:31:55.998Z</time></trkpt><trkpt lat="43.39046243531962" lon="10.842491693107917"><ele>241.0</ele><time>2026-04-26T16:31:56.998Z</time></trkpt><trkpt lat="43.390369637691315" lon="10.842572600482347"><ele>241.0</ele><time>2026-04-26T16:31:57.998Z</time></trkpt><trkpt lat="43.390320165391174" lon="10.842699541833241"><ele>243.8</ele><time>2026-04-26T16:31:58.998Z</time></trkpt><trkpt lat="43.39028171903889" lon="10.842818836844055"><ele>246.60000000000002</ele><time>2026-04-26T16:31:59.998Z</time></trkpt><trkpt lat="43.390271397741024" lon="10.842932929489677"><ele>249.4</ele><time>2026-04-26T16:32:00.998Z</time></trkpt><trkpt lat="43.39026786587897" lon="10.843073264469744"><ele>252.2</ele><time>2026-04-26T16:32:01.999Z</time></trkpt><trkpt lat="43.39028267025002" lon="10.843216755185532"><ele>255.0</ele><time>2026-04-26T16:32:02.999Z</time></trkpt><trkpt lat="43.39034017830384" lon="10.843345344879959"><ele>255.0</ele><time>2026-04-26T16:32:03.999Z</time></trkpt><trkpt lat="43.390424318778166" lon="10.843458789722433"><ele>255.0</ele><time>2026-04-26T16:32:04.999Z</time></trkpt><trkpt lat="43.39055233122733" lon="10.84355791407785"><ele>255.0</ele><time>2026-04-26T16:32:05.999Z</time></trkpt><trkpt lat="43.39067990691968" lon="10.843652330144343"><ele>255.0</ele><time>2026-04-26T16:32:06.999Z</time></trkpt><trkpt lat="43.39078180782593" lon="10.84372915648335"><ele>255.83333333333334</ele><time>2026-04-26T16:32:07.999Z</time></trkpt><trkpt lat="43.3908540306415" lon="10.843822019390746"><ele>256.6666666666667</ele><time>2026-04-26T16:32:08.999Z</time></trkpt><trkpt lat="43.390908497915994" lon="10.843898862644409"><ele>257.5</ele><time>2026-04-26T16:32:09.999Z</time></trkpt><trkpt lat="43.39095963806372" lon="10.843978951387857"><ele>258.33333333333337</ele><time>2026-04-26T16:32:10.999Z</time></trkpt><trkpt lat="43.3909612792011" lon="10.844081074013593"><ele>259.1666666666667</ele><time>2026-04-26T16:32:11.999Z</time></trkpt><trkpt lat="43.3909200944668" lon="10.844177900174538"><ele>260.0</ele><time>2026-04-26T16:32:12.999Z</time></trkpt><trkpt lat="43.39087895317493" lon="10.844281753359876"><ele>260.0</ele><time>2026-04-26T16:32:13.999Z</time></trkpt><trkpt lat="43.390800839856134" lon="10.844344136742844"><ele>260.0</ele><time>2026-04-26T16:32:14.999Z</time></trkpt><trkpt lat="43.390703110646015" lon="10.844325046776403"><ele>260.0</ele><time>2026-04-26T16:32:15.999Z</time></trkpt><trkpt lat="43.39059284293569" lon="10.84429546315241"><ele>260.0</ele><time>2026-04-26T16:32:16.999Z</time></trkpt><trkpt lat="43.39044484953691" lon="10.844255820761733"><ele>261.25</ele><time>2026-04-26T16:32:17.999Z</time></trkpt><trkpt lat="43.39028101728125" lon="10.844210451329431"><ele>262.5</ele><time>2026-04-26T16:32:18.999Z</time></trkpt><trkpt lat="43.39013546989773" lon="10.844170145389171"><ele>263.75</ele><time>2026-04-26T16:32:19.999Z</time></trkpt><trkpt lat="43.39000216461919" lon="10.844174927071043"><ele>265.0</ele><time>2026-04-26T16:32:20.999Z</time></trkpt><trkpt lat="43.38986383387373" lon="10.844175828706074"><ele>265.0</ele><time>2026-04-26T16:32:21.999Z</time></trkpt><trkpt lat="43.38970005808938" lon="10.844228651596298"><ele>265.0</ele><time>2026-04-26T16:32:22.999Z</time></trkpt><trkpt lat="43.389518500736976" lon="10.844297620623895"><ele>265.0</ele><time>2026-04-26T16:32:23.999Z</time></trkpt><trkpt lat="43.389348607316684" lon="10.844292169494889"><ele>267.75</ele><time>2026-04-26T16:32:24.999Z</time></trkpt><trkpt lat="43.38920933009302" lon="10.844332877485275"><ele>270.5</ele><time>2026-04-26T16:32:25.999Z</time></trkpt><trkpt lat="43.38908463014231" lon="10.844375500091102"><ele>273.25</ele><time>2026-04-26T16:32:26.999Z</time></trkpt><trkpt lat="43.38898458324004" lon="10.844425219062806"><ele>276.0</ele><time>2026-04-26T16:32:27.999Z</time></trkpt><trkpt lat="43.38890567461285" lon="10.844487939607639"><ele>272.75</ele><time>2026-04-26T16:32:28.999Z</time></trkpt><trkpt lat="43.388827249995245" lon="10.84457332093067"><ele>269.5</ele><time>2026-04-26T16:32:30Z</time></trkpt><trkpt lat="43.388759667890625" lon="10.844698712429913"><ele>266.25</ele><time>2026-04-26T16:32:31Z</time></trkpt><trkpt lat="43.38870261164911" lon="10.844864354243125"><ele>263.0</ele><time>2026-04-26T16:32:32Z</time></trkpt><trkpt lat="43.38866684787431" lon="10.84507161909951"><ele>263.25</ele><time>2026-04-26T16:32:33Z</time></trkpt><trkpt lat="43.388647884425126" lon="10.845258349063384"><ele>263.5</ele><time>2026-04-26T16:32:34Z</time></trkpt><trkpt lat="43.38863975985192" lon="10.84542337888779"><ele>263.75</ele><time>2026-04-26T16:32:35Z</time></trkpt><trkpt lat="43.388658804827905" lon="10.845574955086501"><ele>264.0</ele><time>2026-04-26T16:32:36Z</time></trkpt><trkpt lat="43.38867860909243" lon="10.845731280879095"><ele>264.0</ele><time>2026-04-26T16:32:37Z</time></trkpt><trkpt lat="43.38871875662549" lon="10.845869069329046"><ele>264.0</ele><time>2026-04-26T16:32:38Z</time></trkpt><trkpt lat="43.38878504940595" lon="10.845985301313396"><ele>264.0</ele><time>2026-04-26T16:32:39Z</time></trkpt><trkpt lat="43.38889278323322" lon="10.846096067119822"><ele>264.0</ele><time>2026-04-26T16:32:40Z</time></trkpt><trkpt lat="43.38904245527915" lon="10.846191378791588"><ele>268.3333333333333</ele><time>2026-04-26T16:32:41Z</time></trkpt><trkpt lat="43.389203913688235" lon="10.846264209902499"><ele>272.66666666666663</ele><time>2026-04-26T16:32:42Z</time></trkpt><trkpt lat="43.389341772692646" lon="10.846334163451326"><ele>277.0</ele><time>2026-04-26T16:32:43Z</time></trkpt><trkpt lat="43.38947259430257" lon="10.846391446388065"><ele>277.0</ele><time>2026-04-26T16:32:44Z</time></trkpt><trkpt lat="43.38960929441985" lon="10.846388981590124"><ele>277.0</ele><time>2026-04-26T16:32:45Z</time></trkpt><trkpt lat="43.389746442541664" lon="10.846313674627533"><ele>277.0</ele><time>2026-04-26T16:32:46Z</time></trkpt><trkpt lat="43.38988122134712" lon="10.846196684155254"><ele>277.0</ele><time>2026-04-26T16:32:47Z</time></trkpt><trkpt lat="43.39000943269765" lon="10.84608314805031"><ele>280.25</ele><time>2026-04-26T16:32:48Z</time></trkpt><trkpt lat="43.390150518609886" lon="10.846011277964948"><ele>283.5</ele><time>2026-04-26T16:32:49Z</time></trkpt><trkpt lat="43.390292249923284" lon="10.84599798386099"><ele>286.75</ele><time>2026-04-26T16:32:50Z</time></trkpt><trkpt lat="43.39042729927957" lon="10.84602561993213"><ele>290.0</ele><time>2026-04-26T16:32:51Z</time></trkpt><trkpt lat="43.3905501768554" lon="10.846104785434834"><ele>290.33333333333337</ele><time>2026-04-26T16:32:52Z</time></trkpt><trkpt lat="43.39065422445753" lon="10.84622871810756"><ele>290.6666666666667</ele><time>2026-04-26T16:32:53Z</time></trkpt><trkpt lat="43.39074934731431" lon="10.84641042456404"><ele>291.0</ele><time>2026-04-26T16:32:54Z</time></trkpt><trkpt lat="43.39084705976995" lon="10.846638522215406"><ele>292.0</ele><time>2026-04-26T16:32:55Z</time></trkpt><trkpt lat="43.39096288308841" lon="10.846917313070929"><ele>293.0</ele><time>2026-04-26T16:32:56Z</time></trkpt><trkpt lat="43.39108295433633" lon="10.847187463143138"><ele>293.0</ele><time>2026-04-26T16:32:57Z</time></trkpt><trkpt lat="43.391181882168645" lon="10.847416567467878"><ele>293.0</ele><time>2026-04-26T16:32:58Z</time></trkpt><trkpt lat="43.39128440391846" lon="10.847642480970503"><ele>293.0</ele><time>2026-04-26T16:32:59Z</time></trkpt><trkpt lat="43.39140572042322" lon="10.84785240214975"><ele>292.33333333333337</ele><time>2026-04-26T16:33:00Z</time></trkpt><trkpt lat="43.39155092234022" lon="10.848036526043849"><ele>291.6666666666667</ele><time>2026-04-26T16:33:01Z</time></trkpt><trkpt lat="43.39173055293765" lon="10.848226257011746"><ele>291.0</ele><time>2026-04-26T16:33:02Z</time></trkpt><trkpt lat="43.39190375333488" lon="10.848407288669042"><ele>293.6666666666667</ele><time>2026-04-26T16:33:03Z</time></trkpt><trkpt lat="43.39205728430584" lon="10.848566062973022"><ele>296.33333333333337</ele><time>2026-04-26T16:33:04Z</time></trkpt><trkpt lat="43.39219195840101" lon="10.848708934732679"><ele>299.0</ele><time>2026-04-26T16:33:05Z</time></trkpt><trkpt lat="43.39231949733341" lon="10.84882182699246"><ele>299.0</ele><time>2026-04-26T16:33:06Z</time></trkpt><trkpt lat="43.39246107319928" lon="10.848918748623607"><ele>299.0</ele><time>2026-04-26T16:33:07Z</time></trkpt><trkpt lat="43.39262339914609" lon="10.849023253306838"><ele>299.0</ele><time>2026-04-26T16:33:08Z</time></trkpt><trkpt lat="43.392804789480316" lon="10.849070717901743"><ele>299.0</ele><time>2026-04-26T16:33:09Z</time></trkpt><trkpt lat="43.392992900667224" lon="10.8491101434202"><ele>299.0</ele><time>2026-04-26T16:33:10Z</time></trkpt><trkpt lat="43.39317813633025" lon="10.849114333971723"><ele>299.0</ele><time>2026-04-26T16:33:11Z</time></trkpt><trkpt lat="43.39334071127776" lon="10.849088113139116"><ele>302.6666666666667</ele><time>2026-04-26T16:33:12Z</time></trkpt><trkpt lat="43.39349361732679" lon="10.849059917580224"><ele>306.3333333333333</ele><time>2026-04-26T16:33:13Z</time></trkpt><trkpt lat="43.393657978778975" lon="10.849043320906109"><ele>310.0</ele><time>2026-04-26T16:33:14Z</time></trkpt><trkpt lat="43.39381751026164" lon="10.849045861052726"><ele>311.0</ele><time>2026-04-26T16:33:15Z</time></trkpt><trkpt lat="43.39398079474654" lon="10.849078795983068"><ele>312.0</ele><time>2026-04-26T16:33:16Z</time></trkpt><trkpt lat="43.39412485113483" lon="10.849125230544315"><ele>313.0</ele><time>2026-04-26T16:33:17Z</time></trkpt><trkpt lat="43.3942551648429" lon="10.849166500025667"><ele>314.0</ele><time>2026-04-26T16:33:18Z</time></trkpt><trkpt lat="43.394361722100776" lon="10.849161240435526"><ele>314.0</ele><time>2026-04-26T16:33:19Z</time></trkpt><trkpt lat="43.39447794376151" lon="10.849096417477686"><ele>314.0</ele><time>2026-04-26T16:33:20Z</time></trkpt><trkpt lat="43.39458914221679" lon="10.848981265105811"><ele>314.0</ele><time>2026-04-26T16:33:21Z</time></trkpt><trkpt lat="43.39465560920127" lon="10.848833056302809"><ele>314.0</ele><time>2026-04-26T16:33:22Z</time></trkpt><trkpt lat="43.39469263432312" lon="10.848687460309915"><ele>315.0</ele><time>2026-04-26T16:33:23Z</time></trkpt><trkpt lat="43.394728757381486" lon="10.84853491037773"><ele>316.0</ele><time>2026-04-26T16:33:24.001Z</time></trkpt><trkpt lat="43.39477243074558" lon="10.848412139548739"><ele>317.0</ele><time>2026-04-26T16:33:25.001Z</time></trkpt><trkpt lat="43.39481983870046" lon="10.848306562734559"><ele>318.0</ele><time>2026-04-26T16:33:26.001Z</time></trkpt><trkpt lat="43.3948751814656" lon="10.848212084847834"><ele>319.0</ele><time>2026-04-26T16:33:27.001Z</time></trkpt><trkpt lat="43.39494960231712" lon="10.848136028713164"><ele>319.0</ele><time>2026-04-26T16:33:28.001Z</time></trkpt><trkpt lat="43.39503143822445" lon="10.848091401371246"><ele>319.0</ele><time>2026-04-26T16:33:29.001Z</time></trkpt><trkpt lat="43.39511475939431" lon="10.848067575911015"><ele>319.0</ele><time>2026-04-26T16:33:30.001Z</time></trkpt><trkpt lat="43.395199624655646" lon="10.848078612317353"><ele>319.0</ele><time>2026-04-26T16:33:31.001Z</time></trkpt><trkpt lat="43.39525871108464" lon="10.848143228481394"><ele>319.0</ele><time>2026-04-26T16:33:32.001Z</time></trkpt><trkpt lat="43.39528755655619" lon="10.848232246817162"><ele>319.0</ele><time>2026-04-26T16:33:33.001Z</time></trkpt><trkpt lat="43.39529420290294" lon="10.848340238317057"><ele>320.5</ele><time>2026-04-26T16:33:34.001Z</time></trkpt><trkpt lat="43.395252787011636" lon="10.848460623698205"><ele>322.0</ele><time>2026-04-26T16:33:35.001Z</time></trkpt><trkpt lat="43.39521265516506" lon="10.84862509410626"><ele>323.5</ele><time>2026-04-26T16:33:36.001Z</time></trkpt><trkpt lat="43.39516522438814" lon="10.848811360488034"><ele>325.0</ele><time>2026-04-26T16:33:37.001Z</time></trkpt><trkpt lat="43.39511244440995" lon="10.849022662582106"><ele>325.0</ele><time>2026-04-26T16:33:38.001Z</time></trkpt><trkpt lat="43.39505838731227" lon="10.849234271398426"><ele>325.0</ele><time>2026-04-26T16:33:39.001Z</time></trkpt><trkpt lat="43.39500188398559" lon="10.849431340563033"><ele>325.0</ele><time>2026-04-26T16:33:40.001Z</time></trkpt><trkpt lat="43.394955654374186" lon="10.849635879494718"><ele>327.0</ele><time>2026-04-26T16:33:41.001Z</time></trkpt><trkpt lat="43.39488333146428" lon="10.849829630425312"><ele>329.0</ele><time>2026-04-26T16:33:42.001Z</time></trkpt><trkpt lat="43.394816958111875" lon="10.850019440233552"><ele>331.0</ele><time>2026-04-26T16:33:43.001Z</time></trkpt><trkpt lat="43.39476445725934" lon="10.850185751647551"><ele>333.0</ele><time>2026-04-26T16:33:44.001Z</time></trkpt><trkpt lat="43.394730662694585" lon="10.850315066058988"><ele>333.0</ele><time>2026-04-26T16:33:45.001Z</time></trkpt><trkpt lat="43.39473459050827" lon="10.850419979827741"><ele>333.0</ele><time>2026-04-26T16:33:46.001Z</time></trkpt><trkpt lat="43.39475642973733" lon="10.850503125057728"><ele>333.0</ele><time>2026-04-26T16:33:47.001Z</time></trkpt><trkpt lat="43.39486725910937" lon="10.850559684089486"><ele>333.0</ele><time>2026-04-26T16:33:48.001Z</time></trkpt><trkpt lat="43.394975922790294" lon="10.850399301016136"><ele>333.0</ele><time>2026-04-26T16:33:48.998Z</time></trkpt><trkpt lat="43.395040786519615" lon="10.850263953931778"><ele>333.25</ele><time>2026-04-26T16:33:49.998Z</time></trkpt><trkpt lat="43.39508939553583" lon="10.850089671489812"><ele>333.5</ele><time>2026-04-26T16:33:50.998Z</time></trkpt><trkpt lat="43.3951322651691" lon="10.849916724380353"><ele>333.75</ele><time>2026-04-26T16:33:51.998Z</time></trkpt><trkpt lat="43.39523228443931" lon="10.849803334395853"><ele>334.0</ele><time>2026-04-26T16:33:52.998Z</time></trkpt><trkpt lat="43.39533971150068" lon="10.849697007810391"><ele>334.0</ele><time>2026-04-26T16:33:54.998Z</time></trkpt><trkpt lat="43.39548288684591" lon="10.849548509554959"><ele>334.0</ele><time>2026-04-26T16:33:55.998Z</time></trkpt><trkpt lat="43.39563418511644" lon="10.84942154688938"><ele>334.0</ele><time>2026-04-26T16:33:56.998Z</time></trkpt><trkpt lat="43.39580849417267" lon="10.849301357703133"><ele>335.3333333333333</ele><time>2026-04-26T16:33:57.998Z</time></trkpt><trkpt lat="43.39600830509603" lon="10.849233475468886"><ele>336.6666666666667</ele><time>2026-04-26T16:33:58.998Z</time></trkpt><trkpt lat="43.3961932303549" lon="10.849140896699987"><ele>338.0</ele><time>2026-04-26T16:33:59.998Z</time></trkpt><trkpt lat="43.39635480235961" lon="10.849060092025601"><ele>342.0</ele><time>2026-04-26T16:34:00.998Z</time></trkpt><trkpt lat="43.396505793378175" lon="10.848935300650739"><ele>346.0</ele><time>2026-04-26T16:34:01.998Z</time></trkpt><trkpt lat="43.39664528060591" lon="10.84875789011606"><ele>350.0</ele><time>2026-04-26T16:34:02.998Z</time></trkpt><trkpt lat="43.39676129563863" lon="10.848586060686626"><ele>348.5</ele><time>2026-04-26T16:34:03.998Z</time></trkpt><trkpt lat="43.396873421676474" lon="10.848434506282636"><ele>347.0</ele><time>2026-04-26T16:34:04.998Z</time></trkpt><trkpt lat="43.3969809280145" lon="10.848321484680692"><ele>345.5</ele><time>2026-04-26T16:34:05.998Z</time></trkpt><trkpt lat="43.397079724789556" lon="10.848266822188762"><ele>344.0</ele><time>2026-04-26T16:34:06.999Z</time></trkpt><trkpt lat="43.397164615781435" lon="10.848274103699405"><ele>345.2</ele><time>2026-04-26T16:34:07.999Z</time></trkpt><trkpt lat="43.39724578951349" lon="10.84829328509887"><ele>346.4</ele><time>2026-04-26T16:34:08.999Z</time></trkpt><trkpt lat="43.39726506966599" lon="10.848454531478644"><ele>347.6</ele><time>2026-04-26T16:34:09.999Z</time></trkpt><trkpt lat="43.397243491556075" lon="10.848573385179082"><ele>348.8</ele><time>2026-04-26T16:34:10.999Z</time></trkpt><trkpt lat="43.39719504300652" lon="10.848685134645631"><ele>350.0</ele><time>2026-04-26T16:34:11.999Z</time></trkpt><trkpt lat="43.3971199031952" lon="10.848846633707394"><ele>350.0</ele><time>2026-04-26T16:34:12.999Z</time></trkpt><trkpt lat="43.39703305920931" lon="10.849045586013158"><ele>350.0</ele><time>2026-04-26T16:34:13.999Z</time></trkpt><trkpt lat="43.396934040067954" lon="10.849270541691101"><ele>350.0</ele><time>2026-04-26T16:34:14.999Z</time></trkpt><trkpt lat="43.39683791721753" lon="10.84953469816887"><ele>353.33333333333337</ele><time>2026-04-26T16:34:15.999Z</time></trkpt><trkpt lat="43.39672765892235" lon="10.849798993294437"><ele>356.6666666666667</ele><time>2026-04-26T16:34:16.999Z</time></trkpt><trkpt lat="43.39663673633329" lon="10.850045649165756"><ele>360.0</ele><time>2026-04-26T16:34:17.999Z</time></trkpt><trkpt lat="43.396559215118266" lon="10.850352794493336"><ele>364.0</ele><time>2026-04-26T16:34:18.999Z</time></trkpt><trkpt lat="43.39649525741282" lon="10.85070128504618"><ele>368.0</ele><time>2026-04-26T16:34:19.999Z</time></trkpt><trkpt lat="43.39642259239542" lon="10.851032549871883"><ele>366.6666666666667</ele><time>2026-04-26T16:34:20.999Z</time></trkpt><trkpt lat="43.396371084170376" lon="10.85133461380033"><ele>365.3333333333333</ele><time>2026-04-26T16:34:21.999Z</time></trkpt><trkpt lat="43.396341046313744" lon="10.85161034475676"><ele>364.0</ele><time>2026-04-26T16:34:22.999Z</time></trkpt><trkpt lat="43.39631892592431" lon="10.851863098414162"><ele>364.0</ele><time>2026-04-26T16:34:23.999Z</time></trkpt><trkpt lat="43.39629798694628" lon="10.852080382639304"><ele>364.0</ele><time>2026-04-26T16:34:24.999Z</time></trkpt><trkpt lat="43.39625523697034" lon="10.852321803085198"><ele>364.0</ele><time>2026-04-26T16:34:25.999Z</time></trkpt><trkpt lat="43.396190127590664" lon="10.852552911819064"><ele>366.0</ele><time>2026-04-26T16:34:26.999Z</time></trkpt><trkpt lat="43.39609515443046" lon="10.85271559096681"><ele>368.0</ele><time>2026-04-26T16:34:28Z</time></trkpt><trkpt lat="43.39598135283761" lon="10.852829077225184"><ele>370.0</ele><time>2026-04-26T16:34:29Z</time></trkpt><trkpt lat="43.39585593130617" lon="10.852944770930364"><ele>372.0</ele><time>2026-04-26T16:34:30Z</time></trkpt><trkpt lat="43.39575771585294" lon="10.85307397280055"><ele>372.0</ele><time>2026-04-26T16:34:31Z</time></trkpt><trkpt lat="43.39569132080404" lon="10.85317616723021"><ele>372.0</ele><time>2026-04-26T16:34:32Z</time></trkpt><trkpt lat="43.39564539068474" lon="10.85328882349444"><ele>372.0</ele><time>2026-04-26T16:34:33Z</time></trkpt><trkpt lat="43.395676352987856" lon="10.853425419231122"><ele>372.0</ele><time>2026-04-26T16:34:34Z</time></trkpt><trkpt lat="43.39571586974744" lon="10.853542109393283"><ele>372.0</ele><time>2026-04-26T16:34:35Z</time></trkpt><trkpt lat="43.39581863081727" lon="10.853568806383475"><ele>372.0</ele><time>2026-04-26T16:34:36Z</time></trkpt><trkpt lat="43.39590798804335" lon="10.853527919395491"><ele>372.0</ele><time>2026-04-26T16:34:37Z</time></trkpt><trkpt lat="43.396003888708265" lon="10.853423335899443"><ele>372.0</ele><time>2026-04-26T16:34:38Z</time></trkpt><trkpt lat="43.396111793964074" lon="10.853300407756102"><ele>372.0</ele><time>2026-04-26T16:34:39Z</time></trkpt><trkpt lat="43.39623919626271" lon="10.853182453693211"><ele>377.33333333333337</ele><time>2026-04-26T16:34:40Z</time></trkpt><trkpt lat="43.39638680740232" lon="10.853072841272521"><ele>382.6666666666667</ele><time>2026-04-26T16:34:41Z</time></trkpt><trkpt lat="43.39655931342616" lon="10.852955937680344"><ele>388.0</ele><time>2026-04-26T16:34:42Z</time></trkpt><trkpt lat="43.39673078388816" lon="10.852811346408599"><ele>388.0</ele><time>2026-04-26T16:34:43Z</time></trkpt><trkpt lat="43.396882974906234" lon="10.852656926533076"><ele>388.0</ele><time>2026-04-26T16:34:44Z</time></trkpt><trkpt lat="43.397024116385815" lon="10.852468582393369"><ele>388.0</ele><time>2026-04-26T16:34:45Z</time></trkpt><trkpt lat="43.39715360842518" lon="10.852246739769196"><ele>388.0</ele><time>2026-04-26T16:34:46Z</time></trkpt><trkpt lat="43.397264772031704" lon="10.852049162544443"><ele>388.0</ele><time>2026-04-26T16:34:47Z</time></trkpt><trkpt lat="43.39736601229571" lon="10.85188385309331"><ele>388.0</ele><time>2026-04-26T16:34:48Z</time></trkpt><trkpt lat="43.397470284451394" lon="10.851732757640844"><ele>388.0</ele><time>2026-04-26T16:34:49Z</time></trkpt><trkpt lat="43.39759467177358" lon="10.851599105060126"><ele>388.0</ele><time>2026-04-26T16:34:50Z</time></trkpt><trkpt lat="43.39774725664416" lon="10.851470483732834"><ele>388.0</ele><time>2026-04-26T16:34:51Z</time></trkpt><trkpt lat="43.39790932863514" lon="10.851360364065375"><ele>390.5</ele><time>2026-04-26T16:34:52Z</time></trkpt><trkpt lat="43.398044119857424" lon="10.851263536112633"><ele>393.0</ele><time>2026-04-26T16:34:53Z</time></trkpt><trkpt lat="43.39814982673755" lon="10.851190022362303"><ele>395.5</ele><time>2026-04-26T16:34:54Z</time></trkpt><trkpt lat="43.39823917858651" lon="10.85116002757954"><ele>398.0</ele><time>2026-04-26T16:34:55Z</time></trkpt><trkpt lat="43.398326178303705" lon="10.851191915421332"><ele>398.0</ele><time>2026-04-26T16:34:56Z</time></trkpt><trkpt lat="43.398410806212055" lon="10.851266521136385"><ele>398.0</ele><time>2026-04-26T16:34:57Z</time></trkpt><trkpt lat="43.398470387749946" lon="10.851417233227803"><ele>398.0</ele><time>2026-04-26T16:34:58Z</time></trkpt><trkpt lat="43.39851493043362" lon="10.851592073630997"><ele>398.0</ele><time>2026-04-26T16:34:59Z</time></trkpt><trkpt lat="43.39856800694513" lon="10.851816608200169"><ele>399.66666666666663</ele><time>2026-04-26T16:35:00Z</time></trkpt><trkpt lat="43.39864267405314" lon="10.852066983805175"><ele>401.33333333333337</ele><time>2026-04-26T16:35:01Z</time></trkpt><trkpt lat="43.39869839433607" lon="10.85229591921798"><ele>403.0</ele><time>2026-04-26T16:35:02Z</time></trkpt><trkpt lat="43.39878353936532" lon="10.852480512979866"><ele>405.33333333333337</ele><time>2026-04-26T16:35:03Z</time></trkpt><trkpt lat="43.39890030710187" lon="10.852646027953101"><ele>407.66666666666663</ele><time>2026-04-26T16:35:04Z</time></trkpt><trkpt lat="43.39905433546829" lon="10.852809256018734"><ele>410.0</ele><time>2026-04-26T16:35:05.001Z</time></trkpt><trkpt lat="43.39919346999975" lon="10.852964410662432"><ele>410.0</ele><time>2026-04-26T16:35:06.001Z</time></trkpt><trkpt lat="43.399309242927636" lon="10.853096406229245"><ele>410.0</ele><time>2026-04-26T16:35:07.001Z</time></trkpt><trkpt lat="43.39942283677581" lon="10.853172085327426"><ele>410.0</ele><time>2026-04-26T16:35:08.001Z</time></trkpt><trkpt lat="43.39953559382337" lon="10.853182544168416"><ele>410.0</ele><time>2026-04-26T16:35:09.001Z</time></trkpt><trkpt lat="43.39964314645697" lon="10.853124432134265"><ele>410.25</ele><time>2026-04-26T16:35:10.001Z</time></trkpt><trkpt lat="43.39973498824221" lon="10.85300688855478"><ele>410.5</ele><time>2026-04-26T16:35:11.001Z</time></trkpt><trkpt lat="43.39981587880482" lon="10.852838249715866"><ele>410.75</ele><time>2026-04-26T16:35:12.001Z</time></trkpt><trkpt lat="43.39989584834091" lon="10.852637376931447"><ele>411.0</ele><time>2026-04-26T16:35:13.001Z</time></trkpt><trkpt lat="43.400003516918424" lon="10.852464728458624"><ele>411.0</ele><time>2026-04-26T16:35:14.001Z</time></trkpt><trkpt lat="43.40015096180592" lon="10.85234974218193"><ele>411.0</ele><time>2026-04-26T16:35:15.001Z</time></trkpt><trkpt lat="43.40031214770267" lon="10.852195864720073"><ele>411.0</ele><time>2026-04-26T16:35:16.001Z</time></trkpt><trkpt lat="43.40048095582733" lon="10.85205593192146"><ele>411.66666666666663</ele><time>2026-04-26T16:35:17.001Z</time></trkpt><trkpt lat="43.40063016531692" lon="10.851926547126435"><ele>412.3333333333333</ele><time>2026-04-26T16:35:18.001Z</time></trkpt><trkpt lat="43.40076054704942" lon="10.851806235266729"><ele>413.0</ele><time>2026-04-26T16:35:19.001Z</time></trkpt><trkpt lat="43.40087879317331" lon="10.851698414790409"><ele>413.0</ele><time>2026-04-26T16:35:20.001Z</time></trkpt><trkpt lat="43.401018758672" lon="10.85161501506762"><ele>413.0</ele><time>2026-04-26T16:35:21.001Z</time></trkpt><trkpt lat="43.401190592048906" lon="10.851556496197826"><ele>413.0</ele><time>2026-04-26T16:35:22.001Z</time></trkpt><trkpt lat="43.40137915914089" lon="10.851493711660938"><ele>416.25</ele><time>2026-04-26T16:35:23.001Z</time></trkpt><trkpt lat="43.40153917264618" lon="10.851441779821345"><ele>419.5</ele><time>2026-04-26T16:35:24.001Z</time></trkpt><trkpt lat="43.40168047000407" lon="10.851377587682858"><ele>422.75</ele><time>2026-04-26T16:35:25.001Z</time></trkpt><trkpt lat="43.40180811275004" lon="10.851323082123042"><ele>426.0</ele><time>2026-04-26T16:35:26.001Z</time></trkpt><trkpt lat="43.401924486288074" lon="10.851296263243865"><ele>426.0</ele><time>2026-04-26T16:35:27.001Z</time></trkpt><trkpt lat="43.402006772673076" lon="10.85133267429332"><ele>426.0</ele><time>2026-04-26T16:35:28.001Z</time></trkpt><trkpt lat="43.402024235585955" lon="10.851518484938072"><ele>426.0</ele><time>2026-04-26T16:35:30.001Z</time></trkpt><trkpt lat="43.401967013458055" lon="10.85160149058794"><ele>426.0</ele><time>2026-04-26T16:35:31.001Z</time></trkpt><trkpt lat="43.401863872460005" lon="10.851636497011688"><ele>426.0</ele><time>2026-04-26T16:35:32.001Z</time></trkpt><trkpt lat="43.40174593150625" lon="10.851700644797955"><ele>428.5</ele><time>2026-04-26T16:35:33.001Z</time></trkpt><trkpt lat="43.401626620149536" lon="10.85179326663816"><ele>431.0</ele><time>2026-04-26T16:35:34.001Z</time></trkpt><trkpt lat="43.401523397975815" lon="10.851867052603486"><ele>433.5</ele><time>2026-04-26T16:35:35.001Z</time></trkpt><trkpt lat="43.40143408961009" lon="10.851925917062221"><ele>436.0</ele><time>2026-04-26T16:35:36.001Z</time></trkpt><trkpt lat="43.401346698905925" lon="10.852007712494947"><ele>433.4</ele><time>2026-04-26T16:35:37.001Z</time></trkpt><trkpt lat="43.40126503015207" lon="10.852129354744838"><ele>430.8</ele><time>2026-04-26T16:35:38.001Z</time></trkpt><trkpt lat="43.401185193179494" lon="10.852246168013071"><ele>428.2</ele><time>2026-04-26T16:35:39.001Z</time></trkpt><trkpt lat="43.40111063335734" lon="10.852340049453003"><ele>425.59999999999997</ele><time>2026-04-26T16:35:40.001Z</time></trkpt><trkpt lat="43.40105592732616" lon="10.852446683948177"><ele>423.0</ele><time>2026-04-26T16:35:41.001Z</time></trkpt><trkpt lat="43.401012654991625" lon="10.85256760003762"><ele>425.0</ele><time>2026-04-26T16:35:42.001Z</time></trkpt><trkpt lat="43.40098912542088" lon="10.852720642819495"><ele>427.0</ele><time>2026-04-26T16:35:43.001Z</time></trkpt><trkpt lat="43.40098882864355" lon="10.852897425088903"><ele>429.0</ele><time>2026-04-26T16:35:44.001Z</time></trkpt><trkpt lat="43.40098429915423" lon="10.853065566543945"><ele>431.0</ele><time>2026-04-26T16:35:45.001Z</time></trkpt><trkpt lat="43.40094283032924" lon="10.85320399461581"><ele>431.0</ele><time>2026-04-26T16:35:46.001Z</time></trkpt><trkpt lat="43.40089130789134" lon="10.853359617235009"><ele>431.0</ele><time>2026-04-26T16:35:47.001Z</time></trkpt><trkpt lat="43.400848381729695" lon="10.85351002772752"><ele>431.0</ele><time>2026-04-26T16:35:48.002Z</time></trkpt><trkpt lat="43.40079330586159" lon="10.853630128908774"><ele>431.0</ele><time>2026-04-26T16:35:49.002Z</time></trkpt><trkpt lat="43.4007489168409" lon="10.853735562337725"><ele>431.0</ele><time>2026-04-26T16:35:50.002Z</time></trkpt><trkpt lat="43.400703811128366" lon="10.853869041616566"><ele>432.6</ele><time>2026-04-26T16:35:51.002Z</time></trkpt><trkpt lat="43.40067515717376" lon="10.854032320202299"><ele>434.20000000000005</ele><time>2026-04-26T16:35:52.002Z</time></trkpt><trkpt lat="43.40067088012677" lon="10.854181302662068"><ele>435.79999999999995</ele><time>2026-04-26T16:35:53.002Z</time></trkpt><trkpt lat="43.400648431658965" lon="10.854312616766988"><ele>437.4</ele><time>2026-04-26T16:35:54.002Z</time></trkpt><trkpt lat="43.40062485362816" lon="10.854453670699245"><ele>439.0</ele><time>2026-04-26T16:35:54.998Z</time></trkpt><trkpt lat="43.400584232558714" lon="10.854607158270705"><ele>439.25</ele><time>2026-04-26T16:35:55.998Z</time></trkpt><trkpt lat="43.40049125113087" lon="10.85474948213658"><ele>439.5</ele><time>2026-04-26T16:35:56.998Z</time></trkpt><trkpt lat="43.400393888694204" lon="10.85485754397674"><ele>439.75</ele><time>2026-04-26T16:35:57.998Z</time></trkpt><trkpt lat="43.40028736801339" lon="10.854918895600726"><ele>440.0</ele><time>2026-04-26T16:35:58.998Z</time></trkpt><trkpt lat="43.400188390769145" lon="10.854994524616574"><ele>440.0</ele><time>2026-04-26T16:35:59.998Z</time></trkpt><trkpt lat="43.40008807633677" lon="10.855093568954779"><ele>440.0</ele><time>2026-04-26T16:36:00.998Z</time></trkpt><trkpt lat="43.399964745181194" lon="10.855181282422919"><ele>440.0</ele><time>2026-04-26T16:36:01.999Z</time></trkpt><trkpt lat="43.39983023586992" lon="10.855284088080776"><ele>440.0</ele><time>2026-04-26T16:36:02.999Z</time></trkpt><trkpt lat="43.39969224261594" lon="10.855384438957657"><ele>443.0</ele><time>2026-04-26T16:36:03.999Z</time></trkpt><trkpt lat="43.399566930418366" lon="10.855455613528239"><ele>446.0</ele><time>2026-04-26T16:36:04.999Z</time></trkpt><trkpt lat="43.39943637234263" lon="10.855471446883449"><ele>449.0</ele><time>2026-04-26T16:36:05.999Z</time></trkpt><trkpt lat="43.39931261240218" lon="10.855513621059764"><ele>452.0</ele><time>2026-04-26T16:36:06.999Z</time></trkpt><trkpt lat="43.39918240129017" lon="10.855522186765997"><ele>452.0</ele><time>2026-04-26T16:36:07.999Z</time></trkpt><trkpt lat="43.39906462543391" lon="10.855534504838193"><ele>452.00000000000006</ele><time>2026-04-26T16:36:08.999Z</time></trkpt><trkpt lat="43.398963517483736" lon="10.855573574193372"><ele>452.00000000000006</ele><time>2026-04-26T16:36:09.999Z</time></trkpt><trkpt lat="43.39888362388674" lon="10.855651153339943"><ele>452.0</ele><time>2026-04-26T16:36:10.999Z</time></trkpt><trkpt lat="43.398827634553584" lon="10.855773462062484"><ele>452.0</ele><time>2026-04-26T16:36:11.999Z</time></trkpt><trkpt lat="43.39880357618423" lon="10.855921613174305"><ele>451.0</ele><time>2026-04-26T16:36:12.999Z</time></trkpt><trkpt lat="43.39880558259061" lon="10.856094096901561"><ele>450.0</ele><time>2026-04-26T16:36:13.999Z</time></trkpt><trkpt lat="43.39878595608227" lon="10.856280270843591"><ele>449.0</ele><time>2026-04-26T16:36:14.999Z</time></trkpt><trkpt lat="43.39876968110439" lon="10.856466554907108"><ele>448.0</ele><time>2026-04-26T16:36:15.999Z</time></trkpt><trkpt lat="43.39876315003408" lon="10.856632020449835"><ele>449.5</ele><time>2026-04-26T16:36:16.999Z</time></trkpt><trkpt lat="43.398781772958436" lon="10.8568067450054"><ele>451.0</ele><time>2026-04-26T16:36:17.999Z</time></trkpt><trkpt lat="43.39877953092628" lon="10.856991734916063"><ele>452.5</ele><time>2026-04-26T16:36:18.999Z</time></trkpt><trkpt lat="43.39878195715856" lon="10.85714985765328"><ele>454.0</ele><time>2026-04-26T16:36:19.999Z</time></trkpt><trkpt lat="43.39875014889785" lon="10.857299610247676"><ele>454.0</ele><time>2026-04-26T16:36:20.999Z</time></trkpt><trkpt lat="43.398703572185056" lon="10.857451257749476"><ele>454.0</ele><time>2026-04-26T16:36:22Z</time></trkpt><trkpt lat="43.39866856479742" lon="10.857603520160657"><ele>454.0</ele><time>2026-04-26T16:36:23Z</time></trkpt><trkpt lat="43.39861911052495" lon="10.85773815407836"><ele>454.0</ele><time>2026-04-26T16:36:24Z</time></trkpt><trkpt lat="43.398568377495906" lon="10.857886354480005"><ele>454.4</ele><time>2026-04-26T16:36:25Z</time></trkpt><trkpt lat="43.398524911511224" lon="10.858013724645353"><ele>454.79999999999995</ele><time>2026-04-26T16:36:26Z</time></trkpt><trkpt lat="43.39850710823481" lon="10.858152419457399"><ele>455.20000000000005</ele><time>2026-04-26T16:36:27Z</time></trkpt><trkpt lat="43.39850601504461" lon="10.858305649144693"><ele>455.6</ele><time>2026-04-26T16:36:28Z</time></trkpt><trkpt lat="43.398544052633554" lon="10.858470716907247"><ele>456.0</ele><time>2026-04-26T16:36:29Z</time></trkpt><trkpt lat="43.3985693417335" lon="10.858629720255161"><ele>456.20000000000005</ele><time>2026-04-26T16:36:30Z</time></trkpt><trkpt lat="43.398587192218514" lon="10.858773192356823"><ele>456.40000000000003</ele><time>2026-04-26T16:36:31Z</time></trkpt><trkpt lat="43.39859791565334" lon="10.858901126802012"><ele>456.6</ele><time>2026-04-26T16:36:32Z</time></trkpt><trkpt lat="43.398598289973606" lon="10.859034054188287"><ele>456.8</ele><time>2026-04-26T16:36:33Z</time></trkpt><trkpt lat="43.39859347031612" lon="10.859146276264621"><ele>457.0</ele><time>2026-04-26T16:36:34Z</time></trkpt><trkpt lat="43.398602768519794" lon="10.85929940817654"><ele>457.6</ele><time>2026-04-26T16:36:36Z</time></trkpt><trkpt lat="43.398685478217054" lon="10.859403882269287"><ele>458.20000000000005</ele><time>2026-04-26T16:36:38Z</time></trkpt><trkpt lat="43.39880488606183" lon="10.859338723305694"><ele>458.8</ele><time>2026-04-26T16:36:40Z</time></trkpt><trkpt lat="43.398844730953876" lon="10.85924259090881"><ele>459.4</ele><time>2026-04-26T16:36:41Z</time></trkpt><trkpt lat="43.39887617478526" lon="10.859137728543109"><ele>460.0</ele><time>2026-04-26T16:36:42Z</time></trkpt><trkpt lat="43.39891293759492" lon="10.85903243683383"><ele>463.33333333333337</ele><time>2026-04-26T16:36:43Z</time></trkpt><trkpt lat="43.39895090754169" lon="10.858944327107752"><ele>466.6666666666667</ele><time>2026-04-26T16:36:44Z</time></trkpt><trkpt lat="43.39899401319749" lon="10.858862733563852"><ele>470.0</ele><time>2026-04-26T16:36:45Z</time></trkpt><trkpt lat="43.399045873676364" lon="10.85877999108459"><ele>473.33333333333337</ele><time>2026-04-26T16:36:46Z</time></trkpt><trkpt lat="43.39910655098153" lon="10.85868928438427"><ele>476.6666666666667</ele><time>2026-04-26T16:36:47Z</time></trkpt><trkpt lat="43.39917828632096" lon="10.858602019388423"><ele>480.0</ele><time>2026-04-26T16:36:48Z</time></trkpt><trkpt lat="43.39926182870929" lon="10.858521864601526"><ele>481.0</ele><time>2026-04-26T16:36:49Z</time></trkpt><trkpt lat="43.39934789746707" lon="10.858446832562805"><ele>482.0</ele><time>2026-04-26T16:36:50.001Z</time></trkpt><trkpt lat="43.39942125826347" lon="10.858393303738819"><ele>483.0</ele><time>2026-04-26T16:36:51.001Z</time></trkpt><trkpt lat="43.399505736613264" lon="10.85836638750817"><ele>484.0</ele><time>2026-04-26T16:36:52.001Z</time></trkpt><trkpt lat="43.39959020182754" lon="10.858334779140925"><ele>485.0</ele><time>2026-04-26T16:36:53.001Z</time></trkpt><trkpt lat="43.39966724307751" lon="10.858308919023546"><ele>486.0</ele><time>2026-04-26T16:36:54.001Z</time></trkpt><trkpt lat="43.39973209469179" lon="10.858285050492293"><ele>486.0</ele><time>2026-04-26T16:36:55.001Z</time></trkpt><trkpt lat="43.399844618100644" lon="10.858262611792272"><ele>486.0</ele><time>2026-04-26T16:36:57.001Z</time></trkpt><trkpt lat="43.39994727016428" lon="10.858207964842796"><ele>486.0</ele><time>2026-04-26T16:36:59.001Z</time></trkpt><trkpt lat="43.40001430159853" lon="10.858183094988533"><ele>486.0</ele><time>2026-04-26T16:37:00.001Z</time></trkpt><trkpt lat="43.400076618580314" lon="10.858164448815607"><ele>486.0</ele><time>2026-04-26T16:37:01.001Z</time></trkpt><trkpt lat="43.400137258321905" lon="10.858141148488347"><ele>486.0</ele><time>2026-04-26T16:37:04.001Z</time></trkpt><trkpt lat="43.4002040165823" lon="10.858107537211355"><ele>486.0</ele><time>2026-04-26T16:37:07.001Z</time></trkpt><trkpt lat="43.400273409744244" lon="10.858085841615718"><ele>486.0</ele><time>2026-04-26T16:37:11.001Z</time></trkpt><trkpt lat="43.40034913318244" lon="10.85806724163838"><ele>486.0</ele><time>2026-04-26T16:37:13.001Z</time></trkpt><trkpt lat="43.400427982426194" lon="10.858144427144607"><ele>486.0</ele><time>2026-04-26T16:37:15.001Z</time></trkpt><trkpt lat="43.400400698479956" lon="10.858289785997417"><ele>486.0</ele><time>2026-04-26T16:37:17.001Z</time></trkpt><trkpt lat="43.40033454336997" lon="10.858345254314262"><ele>486.0</ele><time>2026-04-26T16:37:18.001Z</time></trkpt><trkpt lat="43.40028030668589" lon="10.858422263374088"><ele>488.6</ele><time>2026-04-26T16:37:19.001Z</time></trkpt><trkpt lat="43.40021725194116" lon="10.858509725307844"><ele>491.20000000000005</ele><time>2026-04-26T16:37:20.001Z</time></trkpt><trkpt lat="43.40016271544545" lon="10.858584596629012"><ele>493.79999999999995</ele><time>2026-04-26T16:37:21.001Z</time></trkpt><trkpt lat="43.40010247856412" lon="10.858666123853268"><ele>496.4</ele><time>2026-04-26T16:37:22.001Z</time></trkpt><trkpt lat="43.40002973109292" lon="10.858764583086584"><ele>499.0</ele><time>2026-04-26T16:37:23.001Z</time></trkpt><trkpt lat="43.399960962995486" lon="10.858858766551279"><ele>499.00000000000006</ele><time>2026-04-26T16:37:24.001Z</time></trkpt><trkpt lat="43.399901567431094" lon="10.858940546141838"><ele>499.0</ele><time>2026-04-26T16:37:25.001Z</time></trkpt><trkpt lat="43.39984416210991" lon="10.859022293542193"><ele>499.0</ele><time>2026-04-26T16:37:26.002Z</time></trkpt><trkpt lat="43.39979686838536" lon="10.859111572404103"><ele>499.0</ele><time>2026-04-26T16:37:27.002Z</time></trkpt><trkpt lat="43.399731855971915" lon="10.859193346311924"><ele>499.00000000000006</ele><time>2026-04-26T16:37:28.002Z</time></trkpt><trkpt lat="43.39965433402779" lon="10.859293559185922"><ele>499.0</ele><time>2026-04-26T16:37:29.002Z</time></trkpt><trkpt lat="43.39958827089104" lon="10.859417846271143"><ele>497.2</ele><time>2026-04-26T16:37:30.002Z</time></trkpt><trkpt lat="43.39954421229492" lon="10.859560305922965"><ele>495.4</ele><time>2026-04-26T16:37:31.002Z</time></trkpt><trkpt lat="43.399529318386556" lon="10.859708432202991"><ele>493.6</ele><time>2026-04-26T16:37:32.002Z</time></trkpt><trkpt lat="43.399507149854934" lon="10.85985231513194"><ele>491.8</ele><time>2026-04-26T16:37:33.002Z</time></trkpt><trkpt lat="43.399498393665255" lon="10.859992823588161"><ele>490.0</ele><time>2026-04-26T16:37:34.002Z</time></trkpt><trkpt lat="43.39948982338089" lon="10.860130347587305"><ele>490.0</ele><time>2026-04-26T16:37:35.002Z</time></trkpt><trkpt lat="43.399481300067684" lon="10.860265536415515"><ele>490.0</ele><time>2026-04-26T16:37:36.002Z</time></trkpt><trkpt lat="43.39948815555671" lon="10.860406373537154"><ele>490.0</ele><time>2026-04-26T16:37:37.002Z</time></trkpt><trkpt lat="43.399476026321636" lon="10.860590924902946"><ele>490.0</ele><time>2026-04-26T16:37:38.002Z</time></trkpt><trkpt lat="43.399445158145745" lon="10.860805431540951"><ele>491.6666666666667</ele><time>2026-04-26T16:37:39.002Z</time></trkpt><trkpt lat="43.39942861646799" lon="10.861053894685458"><ele>493.33333333333337</ele><time>2026-04-26T16:37:40.002Z</time></trkpt><trkpt lat="43.39941263199194" lon="10.861291430505295"><ele>495.0</ele><time>2026-04-26T16:37:41.002Z</time></trkpt><trkpt lat="43.399397274368255" lon="10.861509792822341"><ele>495.0</ele><time>2026-04-26T16:37:42.002Z</time></trkpt><trkpt lat="43.399381430508924" lon="10.861735068228148"><ele>495.0</ele><time>2026-04-26T16:37:43.002Z</time></trkpt><trkpt lat="43.399365977619645" lon="10.861954784909232"><ele>495.0</ele><time>2026-04-26T16:37:44.002Z</time></trkpt><trkpt lat="43.3993475396802" lon="10.86221694032726"><ele>497.66666666666663</ele><time>2026-04-26T16:37:45.002Z</time></trkpt><trkpt lat="43.39933051743592" lon="10.862458219181782"><ele>500.3333333333333</ele><time>2026-04-26T16:37:46.002Z</time></trkpt><trkpt lat="43.39931463678247" lon="10.862683316679737"><ele>503.0</ele><time>2026-04-26T16:37:47.002Z</time></trkpt><trkpt lat="43.39929968906706" lon="10.862895190594436"><ele>505.3333333333333</ele><time>2026-04-26T16:37:48.002Z</time></trkpt><trkpt lat="43.399284300182416" lon="10.863113317609134"><ele>507.66666666666663</ele><time>2026-04-26T16:37:49.002Z</time></trkpt><trkpt lat="43.39926743122228" lon="10.86335241822877"><ele>510.0</ele><time>2026-04-26T16:37:50.002Z</time></trkpt><trkpt lat="43.3992493772551" lon="10.863605247856695"><ele>511.25</ele><time>2026-04-26T16:37:51.002Z</time></trkpt><trkpt lat="43.399234079756134" lon="10.863817880423623"><ele>512.5</ele><time>2026-04-26T16:37:52.002Z</time></trkpt><trkpt lat="43.399218744242624" lon="10.864011084783844"><ele>513.75</ele><time>2026-04-26T16:37:53.002Z</time></trkpt><trkpt lat="43.39920483387972" lon="10.86418633100709"><ele>515.0</ele><time>2026-04-26T16:37:54.002Z</time></trkpt><trkpt lat="43.39919183607264" lon="10.864345193882356"><ele>515.4</ele><time>2026-04-26T16:37:55.002Z</time></trkpt><trkpt lat="43.39918007261416" lon="10.864490090193456"><ele>515.8</ele><time>2026-04-26T16:37:56.002Z</time></trkpt><trkpt lat="43.399169293044096" lon="10.864622867635429"><ele>516.2</ele><time>2026-04-26T16:37:57.002Z</time></trkpt><trkpt lat="43.39915831632194" lon="10.864758073218368"><ele>516.6</ele><time>2026-04-26T16:37:58.002Z</time></trkpt><trkpt lat="43.3991509429864" lon="10.86488709560826"><ele>517.0</ele><time>2026-04-26T16:37:59.002Z</time></trkpt><trkpt lat="43.399144422173926" lon="10.865011325290677"><ele>517.1666666666667</ele><time>2026-04-26T16:38:00.002Z</time></trkpt><trkpt lat="43.399138228445864" lon="10.865129323881185"><ele>517.3333333333334</ele><time>2026-04-26T16:38:00.999Z</time></trkpt><trkpt lat="43.3991344021809" lon="10.865235364420077"><ele>517.5</ele><time>2026-04-26T16:38:01.999Z</time></trkpt><trkpt lat="43.39913414976396" lon="10.865335800139007"><ele>517.6666666666666</ele><time>2026-04-26T16:38:02.999Z</time></trkpt><trkpt lat="43.39914976745743" lon="10.86544075401604"><ele>517.8333333333333</ele><time>2026-04-26T16:38:04.999Z</time></trkpt><trkpt lat="43.39916782010246" lon="10.86552951938477"><ele>518.0</ele><time>2026-04-26T16:38:06.999Z</time></trkpt><trkpt lat="43.39921614049813" lon="10.865708583320373"><ele>518.0</ele><time>2026-04-26T16:38:08.999Z</time></trkpt><trkpt lat="43.399246823039924" lon="10.865819948461699"><ele>518.0</ele><time>2026-04-26T16:38:09.999Z</time></trkpt><trkpt lat="43.39922541680896" lon="10.865973600190484"><ele>518.0</ele><time>2026-04-26T16:38:10.999Z</time></trkpt><trkpt lat="43.39921545637208" lon="10.86614939395279"><ele>518.0</ele><time>2026-04-26T16:38:11.999Z</time></trkpt><trkpt lat="43.399205834670994" lon="10.866378706019804"><ele>516.6666666666666</ele><time>2026-04-26T16:38:12.999Z</time></trkpt><trkpt lat="43.39919935262701" lon="10.866601665717845"><ele>515.3333333333334</ele><time>2026-04-26T16:38:13.999Z</time></trkpt><trkpt lat="43.39919600022193" lon="10.86682955135221"><ele>514.0</ele><time>2026-04-26T16:38:14.999Z</time></trkpt><trkpt lat="43.39922186958517" lon="10.867047250212522"><ele>511.6666666666667</ele><time>2026-04-26T16:38:16Z</time></trkpt><trkpt lat="43.39921935904131" lon="10.867256770589485"><ele>509.33333333333337</ele><time>2026-04-26T16:38:17Z</time></trkpt><trkpt lat="43.39922386418139" lon="10.867463623973022"><ele>507.0</ele><time>2026-04-26T16:38:18Z</time></trkpt><trkpt lat="43.39924888635917" lon="10.86768423013574"><ele>506.0</ele><time>2026-04-26T16:38:19Z</time></trkpt><trkpt lat="43.39928018197254" lon="10.867875212785219"><ele>505.0</ele><time>2026-04-26T16:38:20Z</time></trkpt><trkpt lat="43.39930237291582" lon="10.868001494884535"><ele>504.0</ele><time>2026-04-26T16:38:21Z</time></trkpt><trkpt lat="43.39932363796389" lon="10.86810089920662"><ele>503.0</ele><time>2026-04-26T16:38:22Z</time></trkpt><trkpt lat="43.39934601441398" lon="10.868191489817976"><ele>502.0</ele><time>2026-04-26T16:38:23Z</time></trkpt><trkpt lat="43.39936426501277" lon="10.868277722178334"><ele>501.0</ele><time>2026-04-26T16:38:24Z</time></trkpt><trkpt lat="43.399381008404326" lon="10.868370679460961"><ele>501.0</ele><time>2026-04-26T16:38:25Z</time></trkpt><trkpt lat="43.399402685497456" lon="10.868483158382723"><ele>501.0</ele><time>2026-04-26T16:38:26Z</time></trkpt><trkpt lat="43.39942834021051" lon="10.86861751475267"><ele>501.0</ele><time>2026-04-26T16:38:27Z</time></trkpt><trkpt lat="43.39946172750916" lon="10.86877454490794"><ele>501.0</ele><time>2026-04-26T16:38:28Z</time></trkpt><trkpt lat="43.39950182064592" lon="10.86894731431755"><ele>501.0</ele><time>2026-04-26T16:38:29Z</time></trkpt><trkpt lat="43.399541146638654" lon="10.86913005010971"><ele>500.75</ele><time>2026-04-26T16:38:30Z</time></trkpt><trkpt lat="43.3995480822806" lon="10.869307803420595"><ele>500.5</ele><time>2026-04-26T16:38:31Z</time></trkpt><trkpt lat="43.39957627314316" lon="10.86947774845432"><ele>500.25</ele><time>2026-04-26T16:38:32Z</time></trkpt><trkpt lat="43.39959266902064" lon="10.869659834850934"><ele>500.0</ele><time>2026-04-26T16:38:33Z</time></trkpt><trkpt lat="43.39960699656053" lon="10.869848911020062"><ele>500.0</ele><time>2026-04-26T16:38:34Z</time></trkpt><trkpt lat="43.3996216598575" lon="10.87003265782535"><ele>500.0</ele><time>2026-04-26T16:38:35Z</time></trkpt><trkpt lat="43.399637059868475" lon="10.870208013211151"><ele>500.0</ele><time>2026-04-26T16:38:36Z</time></trkpt><trkpt lat="43.39965204694338" lon="10.870378664541928"><ele>500.0</ele><time>2026-04-26T16:38:37Z</time></trkpt><trkpt lat="43.39968035828808" lon="10.870542544143845"><ele>499.4</ele><time>2026-04-26T16:38:38Z</time></trkpt><trkpt lat="43.39968556017906" lon="10.870708415808497"><ele>498.8</ele><time>2026-04-26T16:38:39Z</time></trkpt><trkpt lat="43.39967939672756" lon="10.870862290204977"><ele>498.20000000000005</ele><time>2026-04-26T16:38:40Z</time></trkpt><trkpt lat="43.399666306419896" lon="10.870997870139757"><ele>497.6</ele><time>2026-04-26T16:38:41Z</time></trkpt><trkpt lat="43.399645503654256" lon="10.87111298889442"><ele>497.0</ele><time>2026-04-26T16:38:42Z</time></trkpt><trkpt lat="43.39961685025445" lon="10.871228135925605"><ele>496.16666666666663</ele><time>2026-04-26T16:38:43.001Z</time></trkpt><trkpt lat="43.39958400200208" lon="10.871335002348818"><ele>495.3333333333333</ele><time>2026-04-26T16:38:44.001Z</time></trkpt><trkpt lat="43.39954825749509" lon="10.87143932997644"><ele>494.5</ele><time>2026-04-26T16:38:45.001Z</time></trkpt><trkpt lat="43.399507653635126" lon="10.871536696713475"><ele>493.66666666666663</ele><time>2026-04-26T16:38:46.001Z</time></trkpt><trkpt lat="43.39946531048047" lon="10.871633290671868"><ele>492.8333333333333</ele><time>2026-04-26T16:38:47.001Z</time></trkpt><trkpt lat="43.39942682569804" lon="10.871734171159142"><ele>492.0</ele><time>2026-04-26T16:38:48.001Z</time></trkpt><trkpt lat="43.399376109291865" lon="10.871818233821578"><ele>491.6</ele><time>2026-04-26T16:38:49.001Z</time></trkpt><trkpt lat="43.39932451862857" lon="10.871901645011631"><ele>491.20000000000005</ele><time>2026-04-26T16:38:50.001Z</time></trkpt><trkpt lat="43.39927567891887" lon="10.87199773711486"><ele>490.8</ele><time>2026-04-26T16:38:51.001Z</time></trkpt><trkpt lat="43.39921271963036" lon="10.872090712099611"><ele>490.4</ele><time>2026-04-26T16:38:52.001Z</time></trkpt><trkpt lat="43.399142565599064" lon="10.872185764979413"><ele>490.0</ele><time>2026-04-26T16:38:53.001Z</time></trkpt><trkpt lat="43.399072188782675" lon="10.872287508839275"><ele>490.0</ele><time>2026-04-26T16:38:54.001Z</time></trkpt><trkpt lat="43.399000694316754" lon="10.87239946651521"><ele>490.0</ele><time>2026-04-26T16:38:55.001Z</time></trkpt><trkpt lat="43.398935432393074" lon="10.872521262441387"><ele>490.0</ele><time>2026-04-26T16:38:56.001Z</time></trkpt><trkpt lat="43.39886649569667" lon="10.87264879550567"><ele>490.0</ele><time>2026-04-26T16:38:57.001Z</time></trkpt><trkpt lat="43.39879785371916" lon="10.872782832922777"><ele>487.0</ele><time>2026-04-26T16:38:58.001Z</time></trkpt><trkpt lat="43.39873163327056" lon="10.872921415099965"><ele>484.0</ele><time>2026-04-26T16:38:59.001Z</time></trkpt><trkpt lat="43.398651704217684" lon="10.873053597901547"><ele>481.0</ele><time>2026-04-26T16:39:00.001Z</time></trkpt><trkpt lat="43.39858287756835" lon="10.873193764453674"><ele>478.0</ele><time>2026-04-26T16:39:01.001Z</time></trkpt><trkpt lat="43.39851122244045" lon="10.873341044588923"><ele>478.75</ele><time>2026-04-26T16:39:02.001Z</time></trkpt><trkpt lat="43.3984426476935" lon="10.873495093760171"><ele>479.5</ele><time>2026-04-26T16:39:03.001Z</time></trkpt><trkpt lat="43.398375869462065" lon="10.873642021576767"><ele>480.25</ele><time>2026-04-26T16:39:04.001Z</time></trkpt><trkpt lat="43.39830215106999" lon="10.873765725367802"><ele>481.0</ele><time>2026-04-26T16:39:05.001Z</time></trkpt><trkpt lat="43.398224671572066" lon="10.87387569157096"><ele>481.0</ele><time>2026-04-26T16:39:06.001Z</time></trkpt><trkpt lat="43.398150225108125" lon="10.873988815495078"><ele>481.0</ele><time>2026-04-26T16:39:07.001Z</time></trkpt><trkpt lat="43.398056915507944" lon="10.874115096892623"><ele>481.0</ele><time>2026-04-26T16:39:08.001Z</time></trkpt><trkpt lat="43.39796821083969" lon="10.874240799568312"><ele>481.0</ele><time>2026-04-26T16:39:09.001Z</time></trkpt><trkpt lat="43.397888494096605" lon="10.874352598566613"><ele>476.75</ele><time>2026-04-26T16:39:10.001Z</time></trkpt><trkpt lat="43.39781314369639" lon="10.874465161425531"><ele>472.5</ele><time>2026-04-26T16:39:11.001Z</time></trkpt><trkpt lat="43.39773332076123" lon="10.8745756173637"><ele>468.25</ele><time>2026-04-26T16:39:12.001Z</time></trkpt><trkpt lat="43.397691241857025" lon="10.87472343244029"><ele>464.0</ele><time>2026-04-26T16:39:13.001Z</time></trkpt><trkpt lat="43.3976419495728" lon="10.874865816369438"><ele>464.0</ele><time>2026-04-26T16:39:14.001Z</time></trkpt><trkpt lat="43.39758965789636" lon="10.875026624075637"><ele>464.0</ele><time>2026-04-26T16:39:15.001Z</time></trkpt><trkpt lat="43.39753774046688" lon="10.875197585608852"><ele>464.0</ele><time>2026-04-26T16:39:16.002Z</time></trkpt><trkpt lat="43.39748228132219" lon="10.875381798694935"><ele>464.0</ele><time>2026-04-26T16:39:17.002Z</time></trkpt><trkpt lat="43.397419490449096" lon="10.875553334925858"><ele>464.75</ele><time>2026-04-26T16:39:18.002Z</time></trkpt><trkpt lat="43.39735481989984" lon="10.875716374097273"><ele>465.5</ele><time>2026-04-26T16:39:19.002Z</time></trkpt><trkpt lat="43.397292512288615" lon="10.875872501910989"><ele>466.25</ele><time>2026-04-26T16:39:20.002Z</time></trkpt><trkpt lat="43.397233605992106" lon="10.876028790866993"><ele>467.0</ele><time>2026-04-26T16:39:21.002Z</time></trkpt><trkpt lat="43.39717997633219" lon="10.876191447532287"><ele>459.3333333333333</ele><time>2026-04-26T16:39:22.002Z</time></trkpt><trkpt lat="43.39713357313421" lon="10.876381606176587"><ele>451.66666666666663</ele><time>2026-04-26T16:39:23.002Z</time></trkpt><trkpt lat="43.39709913659728" lon="10.876604949347024"><ele>444.0</ele><time>2026-04-26T16:39:24.002Z</time></trkpt><trkpt lat="43.397072287867616" lon="10.876840163079617"><ele>442.33333333333337</ele><time>2026-04-26T16:39:25.002Z</time></trkpt><trkpt lat="43.39705133182211" lon="10.877068113207896"><ele>440.6666666666667</ele><time>2026-04-26T16:39:26.002Z</time></trkpt><trkpt lat="43.39702788782448" lon="10.877292041381486"><ele>439.0</ele><time>2026-04-26T16:39:27.002Z</time></trkpt><trkpt lat="43.396997226277485" lon="10.877513670441926"><ele>439.0</ele><time>2026-04-26T16:39:28.002Z</time></trkpt><trkpt lat="43.39696056207242" lon="10.877734637540021"><ele>439.0</ele><time>2026-04-26T16:39:29.002Z</time></trkpt><trkpt lat="43.39692103554545" lon="10.877948316888252"><ele>439.0</ele><time>2026-04-26T16:39:30.002Z</time></trkpt><trkpt lat="43.39687920663314" lon="10.878144073148192"><ele>439.0</ele><time>2026-04-26T16:39:31.002Z</time></trkpt><trkpt lat="43.396826996212894" lon="10.878310024485698"><ele>439.0</ele><time>2026-04-26T16:39:32.002Z</time></trkpt><trkpt lat="43.396766381948005" lon="10.878435948571862"><ele>439.0</ele><time>2026-04-26T16:39:33.002Z</time></trkpt><trkpt lat="43.39671142989167" lon="10.878560385945178"><ele>439.0</ele><time>2026-04-26T16:39:34.002Z</time></trkpt><trkpt lat="43.39667403734714" lon="10.87871141275394"><ele>439.25</ele><time>2026-04-26T16:39:35.002Z</time></trkpt><trkpt lat="43.39665489212753" lon="10.878880611719389"><ele>439.5</ele><time>2026-04-26T16:39:36.002Z</time></trkpt><trkpt lat="43.396643125638434" lon="10.879051549983409"><ele>439.75</ele><time>2026-04-26T16:39:37.002Z</time></trkpt><trkpt lat="43.39664198181659" lon="10.879218133415822"><ele>440.0</ele><time>2026-04-26T16:39:38.002Z</time></trkpt><trkpt lat="43.39663488888093" lon="10.879381234745377"><ele>438.25</ele><time>2026-04-26T16:39:39.002Z</time></trkpt><trkpt lat="43.396670329909774" lon="10.879545752425383"><ele>436.5</ele><time>2026-04-26T16:39:40.002Z</time></trkpt><trkpt lat="43.396697108653065" lon="10.879718646376357"><ele>434.75</ele><time>2026-04-26T16:39:41.002Z</time></trkpt><trkpt lat="43.39672651620045" lon="10.8798842262592"><ele>433.0</ele><time>2026-04-26T16:39:42.002Z</time></trkpt><trkpt lat="43.396748068661786" lon="10.880048220388034"><ele>430.75</ele><time>2026-04-26T16:39:43.002Z</time></trkpt><trkpt lat="43.39676751026169" lon="10.880207215538233"><ele>428.5</ele><time>2026-04-26T16:39:44.002Z</time></trkpt><trkpt lat="43.39678001249004" lon="10.88038915556557"><ele>426.25</ele><time>2026-04-26T16:39:45.002Z</time></trkpt><trkpt lat="43.396789823456274" lon="10.880592952960244"><ele>424.0</ele><time>2026-04-26T16:39:46.002Z</time></trkpt><trkpt lat="43.396822863104155" lon="10.880814050517802"><ele>420.6666666666667</ele><time>2026-04-26T16:39:47.002Z</time></trkpt><trkpt lat="43.39685796318899" lon="10.881024594697111"><ele>417.33333333333337</ele><time>2026-04-26T16:39:48.002Z</time></trkpt><trkpt lat="43.39689365708213" lon="10.881234386510325"><ele>414.0</ele><time>2026-04-26T16:39:49.002Z</time></trkpt><trkpt lat="43.39693935075389" lon="10.881435596291782"><ele>414.0</ele><time>2026-04-26T16:39:50.003Z</time></trkpt><trkpt lat="43.396977466941735" lon="10.88163809797887"><ele>414.0</ele><time>2026-04-26T16:39:51.003Z</time></trkpt><trkpt lat="43.39701786212721" lon="10.881839018100855"><ele>414.0</ele><time>2026-04-26T16:39:52.003Z</time></trkpt><trkpt lat="43.39705925698792" lon="10.882038820357053"><ele>410.0</ele><time>2026-04-26T16:39:53.003Z</time></trkpt><trkpt lat="43.39709012045713" lon="10.882248226982686"><ele>406.0</ele><time>2026-04-26T16:39:54.003Z</time></trkpt><trkpt lat="43.397102723133955" lon="10.882456973415682"><ele>402.0</ele><time>2026-04-26T16:39:55.003Z</time></trkpt><trkpt lat="43.39709759633884" lon="10.882671568686506"><ele>400.0</ele><time>2026-04-26T16:39:56.003Z</time></trkpt><trkpt lat="43.39710026720707" lon="10.882885064886404"><ele>398.0</ele><time>2026-04-26T16:39:57.003Z</time></trkpt><trkpt lat="43.39711296240557" lon="10.88309757320454"><ele>396.0</ele><time>2026-04-26T16:39:58.003Z</time></trkpt><trkpt lat="43.39714102966239" lon="10.883296233624767"><ele>399.25</ele><time>2026-04-26T16:39:59.003Z</time></trkpt><trkpt lat="43.3971739504665" lon="10.8834898569193"><ele>402.5</ele><time>2026-04-26T16:40:00.003Z</time></trkpt><trkpt lat="43.39719782209136" lon="10.883677083028026"><ele>405.75</ele><time>2026-04-26T16:40:01.003Z</time></trkpt><trkpt lat="43.39721433916649" lon="10.883850777157338"><ele>409.0</ele><time>2026-04-26T16:40:02.003Z</time></trkpt><trkpt lat="43.397211969083" lon="10.884012821334052"><ele>409.0</ele><time>2026-04-26T16:40:03.003Z</time></trkpt><trkpt lat="43.39718361084114" lon="10.884176963402933"><ele>409.0</ele><time>2026-04-26T16:40:04.003Z</time></trkpt><trkpt lat="43.39712686300474" lon="10.8843298597774"><ele>409.0</ele><time>2026-04-26T16:40:05.003Z</time></trkpt><trkpt lat="43.39704947537214" lon="10.884477163721883"><ele>409.0</ele><time>2026-04-26T16:40:06.003Z</time></trkpt><trkpt lat="43.39696047595159" lon="10.884626001384193"><ele>409.0</ele><time>2026-04-26T16:40:07Z</time></trkpt><trkpt lat="43.3968698051027" lon="10.88478133864833"><ele>409.0</ele><time>2026-04-26T16:40:08Z</time></trkpt><trkpt lat="43.3967826770878" lon="10.88493013544286"><ele>409.0</ele><time>2026-04-26T16:40:09Z</time></trkpt><trkpt lat="43.396698213277304" lon="10.885064392245347"><ele>409.0</ele><time>2026-04-26T16:40:10Z</time></trkpt><trkpt lat="43.3966175985959" lon="10.885196499057114"><ele>409.0</ele><time>2026-04-26T16:40:11Z</time></trkpt><trkpt lat="43.39653664726354" lon="10.885324546836943"><ele>409.0</ele><time>2026-04-26T16:40:12Z</time></trkpt><trkpt lat="43.396453229408706" lon="10.885458969401112"><ele>409.0</ele><time>2026-04-26T16:40:13Z</time></trkpt><trkpt lat="43.396379994603045" lon="10.885586071846545"><ele>409.0</ele><time>2026-04-26T16:40:14Z</time></trkpt><trkpt lat="43.396310410788885" lon="10.885706541120847"><ele>407.2</ele><time>2026-04-26T16:40:15Z</time></trkpt><trkpt lat="43.39624231498545" lon="10.885822695804617"><ele>405.4</ele><time>2026-04-26T16:40:16Z</time></trkpt><trkpt lat="43.396162159646025" lon="10.885919371368889"><ele>403.6</ele><time>2026-04-26T16:40:17Z</time></trkpt><trkpt lat="43.39610937654381" lon="10.88603995732666"><ele>401.8</ele><time>2026-04-26T16:40:18Z</time></trkpt><trkpt lat="43.396043475253876" lon="10.88614619628185"><ele>400.0</ele><time>2026-04-26T16:40:19Z</time></trkpt><trkpt lat="43.39598324319719" lon="10.886268803962581"><ele>400.0</ele><time>2026-04-26T16:40:20Z</time></trkpt><trkpt lat="43.395941645995094" lon="10.886402128943297"><ele>400.0</ele><time>2026-04-26T16:40:21Z</time></trkpt><trkpt lat="43.395914853803255" lon="10.88653658048518"><ele>400.0</ele><time>2026-04-26T16:40:22Z</time></trkpt><trkpt lat="43.395887548845025" lon="10.886672557263381"><ele>400.0</ele><time>2026-04-26T16:40:23Z</time></trkpt><trkpt lat="43.39588433008922" lon="10.886820108289767"><ele>400.0</ele><time>2026-04-26T16:40:24Z</time></trkpt><trkpt lat="43.39592413918083" lon="10.886977405680172"><ele>399.4</ele><time>2026-04-26T16:40:25Z</time></trkpt><trkpt lat="43.395953814341645" lon="10.887121840057288"><ele>398.8</ele><time>2026-04-26T16:40:26Z</time></trkpt><trkpt lat="43.39598899732956" lon="10.887259791304515"><ele>398.20000000000005</ele><time>2026-04-26T16:40:27Z</time></trkpt><trkpt lat="43.39602242176862" lon="10.887387736287296"><ele>397.6</ele><time>2026-04-26T16:40:28Z</time></trkpt><trkpt lat="43.39603963550403" lon="10.887509394341508"><ele>397.0</ele><time>2026-04-26T16:40:29Z</time></trkpt><trkpt lat="43.39603669241132" lon="10.88763058594876"><ele>395.8</ele><time>2026-04-26T16:40:30Z</time></trkpt><trkpt lat="43.396009349644515" lon="10.887741669932117"><ele>394.6</ele><time>2026-04-26T16:40:31Z</time></trkpt><trkpt lat="43.39595871165511" lon="10.887837996136284"><ele>393.40000000000003</ele><time>2026-04-26T16:40:32Z</time></trkpt><trkpt lat="43.39588361809893" lon="10.887911945381582"><ele>392.20000000000005</ele><time>2026-04-26T16:40:33Z</time></trkpt><trkpt lat="43.395797581155826" lon="10.887968918391001"><ele>391.0</ele><time>2026-04-26T16:40:34Z</time></trkpt><trkpt lat="43.395714767417616" lon="10.888028290295322"><ele>391.0</ele><time>2026-04-26T16:40:35Z</time></trkpt><trkpt lat="43.395632518161676" lon="10.888120345032076"><ele>391.0</ele><time>2026-04-26T16:40:36.001Z</time></trkpt><trkpt lat="43.3955747072745" lon="10.888236166766879"><ele>391.0</ele><time>2026-04-26T16:40:37.001Z</time></trkpt><trkpt lat="43.39549822774224" lon="10.888389709435272"><ele>391.0</ele><time>2026-04-26T16:40:38.001Z</time></trkpt><trkpt lat="43.395428766896615" lon="10.888571249745569"><ele>389.25</ele><time>2026-04-26T16:40:39.001Z</time></trkpt><trkpt lat="43.39536201118638" lon="10.888732219816976"><ele>387.5</ele><time>2026-04-26T16:40:40.001Z</time></trkpt><trkpt lat="43.39529727094855" lon="10.888889876002924"><ele>385.75</ele><time>2026-04-26T16:40:41.001Z</time></trkpt><trkpt lat="43.395238984111124" lon="10.889030260758423"><ele>384.0</ele><time>2026-04-26T16:40:42.001Z</time></trkpt><trkpt lat="43.39518752933365" lon="10.889148729226626"><ele>383.99999999999994</ele><time>2026-04-26T16:40:43.001Z</time></trkpt><trkpt lat="43.39513872367848" lon="10.889232418747392"><ele>384.0</ele><time>2026-04-26T16:40:44.001Z</time></trkpt><trkpt lat="43.39508829913164" lon="10.889292437260275"><ele>384.0</ele><time>2026-04-26T16:40:45.001Z</time></trkpt><trkpt lat="43.395029959304814" lon="10.889331274368267"><ele>384.0</ele><time>2026-04-26T16:40:46.001Z</time></trkpt><trkpt lat="43.39496182325142" lon="10.889298668324608"><ele>384.0</ele><time>2026-04-26T16:40:47.001Z</time></trkpt><trkpt lat="43.39491070443573" lon="10.889222491146953"><ele>383.99999999999994</ele><time>2026-04-26T16:40:48.001Z</time></trkpt><trkpt lat="43.39488092405731" lon="10.889114700507667"><ele>384.0</ele><time>2026-04-26T16:40:49.001Z</time></trkpt><trkpt lat="43.39485816544708" lon="10.888999003043617"><ele>384.0</ele><time>2026-04-26T16:40:50.001Z</time></trkpt><trkpt lat="43.394856421911875" lon="10.88888389502111"><ele>384.0</ele><time>2026-04-26T16:40:51.001Z</time></trkpt><trkpt lat="43.39487380201245" lon="10.888738826309305"><ele>384.0</ele><time>2026-04-26T16:40:52.001Z</time></trkpt><trkpt lat="43.39489591962869" lon="10.888587512712508"><ele>384.0</ele><time>2026-04-26T16:40:53.001Z</time></trkpt><trkpt lat="43.394908002344366" lon="10.888444335625934"><ele>384.0</ele><time>2026-04-26T16:40:54.001Z</time></trkpt><trkpt lat="43.39489233136118" lon="10.888323561751037"><ele>383.5</ele><time>2026-04-26T16:40:55.001Z</time></trkpt><trkpt lat="43.39486123563659" lon="10.88821505721062"><ele>383.0</ele><time>2026-04-26T16:40:56.001Z</time></trkpt><trkpt lat="43.39481792194765" lon="10.88813214197187"><ele>382.5</ele><time>2026-04-26T16:40:57.001Z</time></trkpt><trkpt lat="43.39476298433167" lon="10.888080451599555"><ele>382.0</ele><time>2026-04-26T16:40:58.001Z</time></trkpt><trkpt lat="43.39469662196399" lon="10.888068069160989"><ele>381.5</ele><time>2026-04-26T16:40:59.001Z</time></trkpt><trkpt lat="43.39462706011666" lon="10.888092338472564"><ele>381.0</ele><time>2026-04-26T16:41:00.001Z</time></trkpt><trkpt lat="43.394549257847025" lon="10.888194327776027"><ele>379.75</ele><time>2026-04-26T16:41:01.001Z</time></trkpt><trkpt lat="43.394498122800464" lon="10.888361187359632"><ele>378.5</ele><time>2026-04-26T16:41:02.001Z</time></trkpt><trkpt lat="43.394448728765674" lon="10.888519298413835"><ele>377.25</ele><time>2026-04-26T16:41:03.001Z</time></trkpt><trkpt lat="43.394384836387815" lon="10.888661270963176"><ele>376.0</ele><time>2026-04-26T16:41:04.001Z</time></trkpt><trkpt lat="43.39429653381222" lon="10.888787273994774"><ele>376.0</ele><time>2026-04-26T16:41:05.001Z</time></trkpt><trkpt lat="43.3941755844902" lon="10.888881888952223"><ele>376.0</ele><time>2026-04-26T16:41:06.001Z</time></trkpt><trkpt lat="43.39403625779331" lon="10.888985061789448"><ele>376.0</ele><time>2026-04-26T16:41:07.001Z</time></trkpt><trkpt lat="43.39390880321762" lon="10.8890784454721"><ele>376.0</ele><time>2026-04-26T16:41:08.001Z</time></trkpt><trkpt lat="43.39378701811031" lon="10.889166816555141"><ele>372.3333333333333</ele><time>2026-04-26T16:41:09.001Z</time></trkpt><trkpt lat="43.393690019192476" lon="10.889270734546997"><ele>368.6666666666667</ele><time>2026-04-26T16:41:10.002Z</time></trkpt><trkpt lat="43.39358869180817" lon="10.889355585086786"><ele>365.0</ele><time>2026-04-26T16:41:11.002Z</time></trkpt><trkpt lat="43.393333933380276" lon="10.889907851283962"><ele>365.0</ele><time>2026-04-26T16:41:14.002Z</time></trkpt><trkpt lat="43.39325631432968" lon="10.890087049667622"><ele>365.0</ele><time>2026-04-26T16:41:15.002Z</time></trkpt><trkpt lat="43.39318247835807" lon="10.890257984014326"><ele>365.0</ele><time>2026-04-26T16:41:16.002Z</time></trkpt><trkpt lat="43.3931200262728" lon="10.89040913077299"><ele>365.0</ele><time>2026-04-26T16:41:17.002Z</time></trkpt><trkpt lat="43.39308015627186" lon="10.890563076832755"><ele>365.5</ele><time>2026-04-26T16:41:18.002Z</time></trkpt><trkpt lat="43.39302695600435" lon="10.890696732915146"><ele>366.0</ele><time>2026-04-26T16:41:19.002Z</time></trkpt><trkpt lat="43.393019913140904" lon="10.890839538777643"><ele>366.5</ele><time>2026-04-26T16:41:20.002Z</time></trkpt><trkpt lat="43.393079396068735" lon="10.890996945265984"><ele>367.0</ele><time>2026-04-26T16:41:21.002Z</time></trkpt><trkpt lat="43.393149758624794" lon="10.891195072519483"><ele>362.3333333333333</ele><time>2026-04-26T16:41:22.002Z</time></trkpt><trkpt lat="43.39324419079298" lon="10.891423716939242"><ele>357.6666666666667</ele><time>2026-04-26T16:41:23.002Z</time></trkpt><trkpt lat="43.39335184606442" lon="10.891630309454372"><ele>353.0</ele><time>2026-04-26T16:41:24.002Z</time></trkpt><trkpt lat="43.39339100587867" lon="10.891744108707305"><ele>348.33333333333337</ele><time>2026-04-26T16:41:25.002Z</time></trkpt><trkpt lat="43.39349009931047" lon="10.891912642077179"><ele>343.6666666666667</ele><time>2026-04-26T16:41:26.002Z</time></trkpt><trkpt lat="43.3936276867501" lon="10.89207379906623"><ele>339.0</ele><time>2026-04-26T16:41:27.002Z</time></trkpt><trkpt lat="43.39375298805845" lon="10.892211957676135"><ele>339.5</ele><time>2026-04-26T16:41:28.002Z</time></trkpt><trkpt lat="43.393842780416165" lon="10.892326789254527"><ele>340.0</ele><time>2026-04-26T16:41:29.002Z</time></trkpt><trkpt lat="43.39390770858734" lon="10.892451327637612"><ele>340.5</ele><time>2026-04-26T16:41:30.002Z</time></trkpt><trkpt lat="43.39391792341331" lon="10.89262071315846"><ele>341.0</ele><time>2026-04-26T16:41:31.002Z</time></trkpt><trkpt lat="43.39390576202955" lon="10.892773864659551"><ele>341.0</ele><time>2026-04-26T16:41:32.002Z</time></trkpt><trkpt lat="43.39385953210258" lon="10.892931608115784"><ele>341.0</ele><time>2026-04-26T16:41:33.002Z</time></trkpt><trkpt lat="43.39377938488499" lon="10.893106675894156"><ele>341.0</ele><time>2026-04-26T16:41:34.002Z</time></trkpt><trkpt lat="43.3936743517863" lon="10.893328839436474"><ele>343.33333333333337</ele><time>2026-04-26T16:41:35.002Z</time></trkpt><trkpt lat="43.39357256163701" lon="10.89351283458689"><ele>345.6666666666667</ele><time>2026-04-26T16:41:36.002Z</time></trkpt><trkpt lat="43.3934514291223" lon="10.893667577650142"><ele>348.0</ele><time>2026-04-26T16:41:37.002Z</time></trkpt><trkpt lat="43.3933289555441" lon="10.89383284350253"><ele>348.0</ele><time>2026-04-26T16:41:38.002Z</time></trkpt><trkpt lat="43.39318223304836" lon="10.893918572182692"><ele>348.0</ele><time>2026-04-26T16:41:39.002Z</time></trkpt><trkpt lat="43.39304252160697" lon="10.894004129991588"><ele>348.0</ele><time>2026-04-26T16:41:40.002Z</time></trkpt><trkpt lat="43.39290010062972" lon="10.894120135055374"><ele>345.25</ele><time>2026-04-26T16:41:41.002Z</time></trkpt><trkpt lat="43.39278027540213" lon="10.894250033816041"><ele>342.5</ele><time>2026-04-26T16:41:42.002Z</time></trkpt><trkpt lat="43.392669266563345" lon="10.894382731033621"><ele>339.75</ele><time>2026-04-26T16:41:43.002Z</time></trkpt><trkpt lat="43.39256805545946" lon="10.894523673675016"><ele>337.0</ele><time>2026-04-26T16:41:44.002Z</time></trkpt><trkpt lat="43.3924849748894" lon="10.894671830915414"><ele>337.0</ele><time>2026-04-26T16:41:45.003Z</time></trkpt><trkpt lat="43.39243369428453" lon="10.894827278227819"><ele>337.0</ele><time>2026-04-26T16:41:46.003Z</time></trkpt><trkpt lat="43.392421531061636" lon="10.89501040206914"><ele>337.0</ele><time>2026-04-26T16:41:47.003Z</time></trkpt><trkpt lat="43.39245679384969" lon="10.895231473745536"><ele>337.0</ele><time>2026-04-26T16:41:48.003Z</time></trkpt><trkpt lat="43.392438040822334" lon="10.895421662317052"><ele>336.20000000000005</ele><time>2026-04-26T16:41:49.003Z</time></trkpt><trkpt lat="43.39241673753012" lon="10.895570099067571"><ele>335.4</ele><time>2026-04-26T16:41:50.003Z</time></trkpt><trkpt lat="43.39239695131197" lon="10.895684853581244"><ele>334.6</ele><time>2026-04-26T16:41:51.003Z</time></trkpt><trkpt lat="43.39238055011087" lon="10.895774292988632"><ele>333.79999999999995</ele><time>2026-04-26T16:41:52.003Z</time></trkpt><trkpt lat="43.39252004311997" lon="10.89590431051329"><ele>333.0</ele><time>2026-04-26T16:41:54.003Z</time></trkpt><trkpt lat="43.39261988524658" lon="10.895929901842061"><ele>333.0</ele><time>2026-04-26T16:41:55.003Z</time></trkpt><trkpt lat="43.39276968533023" lon="10.895938683199276"><ele>333.0</ele><time>2026-04-26T16:41:56.003Z</time></trkpt><trkpt lat="43.39293138922733" lon="10.89593267490815"><ele>333.0</ele><time>2026-04-26T16:41:57.003Z</time></trkpt><trkpt lat="43.393108377962605" lon="10.895910773111144"><ele>333.0</ele><time>2026-04-26T16:41:58.003Z</time></trkpt><trkpt lat="43.393298398913736" lon="10.895880783672256"><ele>333.0</ele><time>2026-04-26T16:41:59.003Z</time></trkpt><trkpt lat="43.39348667401179" lon="10.89583691269791"><ele>333.0</ele><time>2026-04-26T16:42:00.003Z</time></trkpt><trkpt lat="43.39366654681835" lon="10.895767308633776"><ele>330.0</ele><time>2026-04-26T16:42:01.003Z</time></trkpt><trkpt lat="43.39384599913737" lon="10.89566798455593"><ele>327.0</ele><time>2026-04-26T16:42:02.003Z</time></trkpt><trkpt lat="43.39403743033125" lon="10.895534448411112"><ele>324.0</ele><time>2026-04-26T16:42:03.003Z</time></trkpt><trkpt lat="43.39423176283381" lon="10.895380449131483"><ele>324.0</ele><time>2026-04-26T16:42:04.003Z</time></trkpt><trkpt lat="43.39440093005171" lon="10.89522562555255"><ele>324.0</ele><time>2026-04-26T16:42:05.003Z</time></trkpt><trkpt lat="43.39455892250226" lon="10.895061391583736"><ele>324.0</ele><time>2026-04-26T16:42:06.003Z</time></trkpt><trkpt lat="43.39470748090401" lon="10.894889942296706"><ele>321.3333333333333</ele><time>2026-04-26T16:42:07.003Z</time></trkpt><trkpt lat="43.39485112600803" lon="10.89472811096362"><ele>318.66666666666663</ele><time>2026-04-26T16:42:08.003Z</time></trkpt><trkpt lat="43.39500755346934" lon="10.894577553924666"><ele>316.0</ele><time>2026-04-26T16:42:09.003Z</time></trkpt><trkpt lat="43.39518353829072" lon="10.894440222064722"><ele>316.0</ele><time>2026-04-26T16:42:10.003Z</time></trkpt><trkpt lat="43.395374314350526" lon="10.894320813454046"><ele>316.0</ele><time>2026-04-26T16:42:11.003Z</time></trkpt><trkpt lat="43.39557427923938" lon="10.894202579402315"><ele>316.0</ele><time>2026-04-26T16:42:12.003Z</time></trkpt><trkpt lat="43.39576622262854" lon="10.89408613819467"><ele>314.3333333333333</ele><time>2026-04-26T16:42:13.001Z</time></trkpt><trkpt lat="43.395946382565434" lon="10.893972397572126"><ele>312.6666666666667</ele><time>2026-04-26T16:42:14.001Z</time></trkpt><trkpt lat="43.396123977671046" lon="10.893858777497618"><ele>311.0</ele><time>2026-04-26T16:42:15.001Z</time></trkpt><trkpt lat="43.396297035781814" lon="10.89375022118359"><ele>306.33333333333337</ele><time>2026-04-26T16:42:16.001Z</time></trkpt><trkpt lat="43.396467571978185" lon="10.893641764422593"><ele>301.6666666666667</ele><time>2026-04-26T16:42:17.001Z</time></trkpt><trkpt lat="43.396637946521984" lon="10.893533588157847"><ele>297.0</ele><time>2026-04-26T16:42:18.001Z</time></trkpt><trkpt lat="43.39680817897131" lon="10.893440503639743"><ele>299.0</ele><time>2026-04-26T16:42:19.001Z</time></trkpt><trkpt lat="43.39697652158166" lon="10.89336900262285"><ele>301.0</ele><time>2026-04-26T16:42:20.001Z</time></trkpt><trkpt lat="43.397152888400335" lon="10.89333149825909"><ele>303.0</ele><time>2026-04-26T16:42:21.001Z</time></trkpt><trkpt lat="43.39733487297108" lon="10.893320431332496"><ele>303.0</ele><time>2026-04-26T16:42:22.001Z</time></trkpt><trkpt lat="43.39752117962237" lon="10.893336182598041"><ele>303.0</ele><time>2026-04-26T16:42:23.001Z</time></trkpt><trkpt lat="43.397704146175734" lon="10.893352526382564"><ele>303.0</ele><time>2026-04-26T16:42:24.001Z</time></trkpt><trkpt lat="43.39788597485183" lon="10.893351888133811"><ele>300.0</ele><time>2026-04-26T16:42:25.001Z</time></trkpt><trkpt lat="43.39805730595289" lon="10.893319429190234"><ele>297.0</ele><time>2026-04-26T16:42:26Z</time></trkpt><trkpt lat="43.398214276367945" lon="10.893264311946565"><ele>294.0</ele><time>2026-04-26T16:42:27Z</time></trkpt><trkpt lat="43.39836900032421" lon="10.893202939836494"><ele>294.0</ele><time>2026-04-26T16:42:28.001Z</time></trkpt><trkpt lat="43.39851487585461" lon="10.893139677226882"><ele>294.0</ele><time>2026-04-26T16:42:29.001Z</time></trkpt><trkpt lat="43.39865433395976" lon="10.893082224897828"><ele>294.0</ele><time>2026-04-26T16:42:30.001Z</time></trkpt><trkpt lat="43.39879447764509" lon="10.893041397374853"><ele>294.0</ele><time>2026-04-26T16:42:31.001Z</time></trkpt><trkpt lat="43.39894655512479" lon="10.893022747714301"><ele>290.5</ele><time>2026-04-26T16:42:32.001Z</time></trkpt><trkpt lat="43.399089413691975" lon="10.893016036629172"><ele>287.0</ele><time>2026-04-26T16:42:33.001Z</time></trkpt><trkpt lat="43.39921581183129" lon="10.893009722678293"><ele>283.5</ele><time>2026-04-26T16:42:34.001Z</time></trkpt><trkpt lat="43.39932891459645" lon="10.89300299897984"><ele>280.0</ele><time>2026-04-26T16:42:35.001Z</time></trkpt><trkpt lat="43.39942673104516" lon="10.892994966739332"><ele>280.0</ele><time>2026-04-26T16:42:36.001Z</time></trkpt><trkpt lat="43.39951003749545" lon="10.892957042502399"><ele>280.0</ele><time>2026-04-26T16:42:37.001Z</time></trkpt><trkpt lat="43.399575803944224" lon="10.892879978820202"><ele>280.0</ele><time>2026-04-26T16:42:38.001Z</time></trkpt><trkpt lat="43.39961444813366" lon="10.892801297172426"><ele>280.0</ele><time>2026-04-26T16:42:39.001Z</time></trkpt><trkpt lat="43.39967783144111" lon="10.892798858891211"><ele>280.0</ele><time>2026-04-26T16:42:42.001Z</time></trkpt><trkpt lat="43.39964382320694" lon="10.892897478414"><ele>280.0</ele><time>2026-04-26T16:42:45.001Z</time></trkpt><trkpt lat="43.399597845008714" lon="10.893057101349978"><ele>280.0</ele><time>2026-04-26T16:42:54.001Z</time></trkpt><trkpt lat="43.399545382209034" lon="10.893166271437675"><ele>280.0</ele><time>2026-04-26T16:42:55.001Z</time></trkpt><trkpt lat="43.399492415093455" lon="10.893234780980965"><ele>280.0</ele><time>2026-04-26T16:42:56.001Z</time></trkpt><trkpt lat="43.399426815955245" lon="10.893264473562377"><ele>280.0</ele><time>2026-04-26T16:42:57.001Z</time></trkpt><trkpt lat="43.39935586621369" lon="10.893207284790932"><ele>280.0</ele><time>2026-04-26T16:42:58.001Z</time></trkpt><trkpt lat="43.399265215969635" lon="10.893198464881685"><ele>280.0</ele><time>2026-04-26T16:42:59.001Z</time></trkpt><trkpt lat="43.39915605553238" lon="10.893209481958221"><ele>280.0</ele><time>2026-04-26T16:43:00.001Z</time></trkpt><trkpt lat="43.399052957136" lon="10.89327023408227"><ele>280.0</ele><time>2026-04-26T16:43:01.001Z</time></trkpt><trkpt lat="43.398960037664594" lon="10.893310941884332"><ele>280.0</ele><time>2026-04-26T16:43:02.001Z</time></trkpt><trkpt lat="43.39887118866392" lon="10.893364750144286"><ele>280.0</ele><time>2026-04-26T16:43:03.001Z</time></trkpt><trkpt lat="43.39878954378126" lon="10.893457929271577"><ele>280.0</ele><time>2026-04-26T16:43:04.001Z</time></trkpt><trkpt lat="43.39869791574462" lon="10.893578882365327"><ele>278.5</ele><time>2026-04-26T16:43:05.001Z</time></trkpt><trkpt lat="43.39859939428142" lon="10.893712073016768"><ele>277.0</ele><time>2026-04-26T16:43:06.001Z</time></trkpt><trkpt lat="43.39851114515213" lon="10.89382961971047"><ele>275.5</ele><time>2026-04-26T16:43:07.001Z</time></trkpt><trkpt lat="43.39842733626516" lon="10.893934618244506"><ele>274.0</ele><time>2026-04-26T16:43:08.001Z</time></trkpt><trkpt lat="43.39835219196246" lon="10.894040879090237"><ele>274.0</ele><time>2026-04-26T16:43:09.001Z</time></trkpt><trkpt lat="43.39830449746768" lon="10.894166905726204"><ele>274.0</ele><time>2026-04-26T16:43:10.001Z</time></trkpt><trkpt lat="43.39825098289314" lon="10.894278898958962"><ele>274.0</ele><time>2026-04-26T16:43:11.001Z</time></trkpt><trkpt lat="43.39817422197089" lon="10.89437719820054"><ele>274.0</ele><time>2026-04-26T16:43:12.001Z</time></trkpt><trkpt lat="43.3980900210435" lon="10.894479501023847"><ele>274.0</ele><time>2026-04-26T16:43:13.001Z</time></trkpt><trkpt lat="43.39800049723997" lon="10.89456803166092"><ele>273.0</ele><time>2026-04-26T16:43:14.002Z</time></trkpt><trkpt lat="43.397893708923796" lon="10.894646440143786"><ele>272.0</ele><time>2026-04-26T16:43:15.002Z</time></trkpt><trkpt lat="43.3977904014762" lon="10.894720686369267"><ele>271.0</ele><time>2026-04-26T16:43:16.002Z</time></trkpt><trkpt lat="43.39769102842625" lon="10.89479079404762"><ele>270.0</ele><time>2026-04-26T16:43:17.002Z</time></trkpt><trkpt lat="43.39759333851449" lon="10.894864586912723"><ele>270.0</ele><time>2026-04-26T16:43:18.002Z</time></trkpt><trkpt lat="43.39750250666702" lon="10.894965483168951"><ele>270.0</ele><time>2026-04-26T16:43:19.002Z</time></trkpt><trkpt lat="43.39745465126637" lon="10.895135780253664"><ele>270.0</ele><time>2026-04-26T16:43:20.002Z</time></trkpt><trkpt lat="43.39736683091215" lon="10.895282553918113"><ele>270.0</ele><time>2026-04-26T16:43:21.002Z</time></trkpt><trkpt lat="43.397288323073965" lon="10.895440096382638"><ele>267.75</ele><time>2026-04-26T16:43:22.002Z</time></trkpt><trkpt lat="43.397261633466016" lon="10.895601576362905"><ele>265.5</ele><time>2026-04-26T16:43:23.002Z</time></trkpt><trkpt lat="43.39724564285978" lon="10.895750298673423"><ele>263.25</ele><time>2026-04-26T16:43:24.002Z</time></trkpt><trkpt lat="43.39723315236981" lon="10.895903217458192"><ele>261.0</ele><time>2026-04-26T16:43:25.002Z</time></trkpt><trkpt lat="43.39717754530582" lon="10.896040117904546"><ele>262.5</ele><time>2026-04-26T16:43:26.002Z</time></trkpt><trkpt lat="43.39709058099424" lon="10.896193495952138"><ele>264.0</ele><time>2026-04-26T16:43:27.002Z</time></trkpt><trkpt lat="43.397029102069844" lon="10.896393195434088"><ele>265.5</ele><time>2026-04-26T16:43:28.002Z</time></trkpt><trkpt lat="43.39700790079651" lon="10.89656307844879"><ele>267.0</ele><time>2026-04-26T16:43:29.002Z</time></trkpt><trkpt lat="43.39697731444147" lon="10.896712041776414"><ele>264.8</ele><time>2026-04-26T16:43:30.002Z</time></trkpt><trkpt lat="43.396919590818506" lon="10.896842936945848"><ele>262.6</ele><time>2026-04-26T16:43:31.002Z</time></trkpt><trkpt lat="43.39687337092073" lon="10.896952848665567"><ele>260.40000000000003</ele><time>2026-04-26T16:43:32.002Z</time></trkpt><trkpt lat="43.39682371237441" lon="10.897067417702301"><ele>258.2</ele><time>2026-04-26T16:43:33.002Z</time></trkpt><trkpt lat="43.396792236273825" lon="10.897205348322313"><ele>256.0</ele><time>2026-04-26T16:43:34.002Z</time></trkpt><trkpt lat="43.39679236854861" lon="10.897337505251434"><ele>256.0</ele><time>2026-04-26T16:43:35.002Z</time></trkpt><trkpt lat="43.396759313724736" lon="10.897447480317423"><ele>256.0</ele><time>2026-04-26T16:43:36.002Z</time></trkpt><trkpt lat="43.39672776393531" lon="10.897551340820806"><ele>256.0</ele><time>2026-04-26T16:43:37.002Z</time></trkpt><trkpt lat="43.396677212656435" lon="10.897627858732188"><ele>256.0</ele><time>2026-04-26T16:43:38.002Z</time></trkpt><trkpt lat="43.396604813276454" lon="10.897735906135749"><ele>256.0</ele><time>2026-04-26T16:43:39.002Z</time></trkpt><trkpt lat="43.39651174186197" lon="10.897824962451867"><ele>255.25</ele><time>2026-04-26T16:43:40.002Z</time></trkpt><trkpt lat="43.396409456421516" lon="10.897916771468436"><ele>254.5</ele><time>2026-04-26T16:43:41.002Z</time></trkpt><trkpt lat="43.396297147948715" lon="10.898008015326141"><ele>253.75</ele><time>2026-04-26T16:43:42.002Z</time></trkpt><trkpt lat="43.39618910315837" lon="10.89805463509486"><ele>253.0</ele><time>2026-04-26T16:43:43.002Z</time></trkpt><trkpt lat="43.39611265885487" lon="10.898127441177403"><ele>253.0</ele><time>2026-04-26T16:43:44.002Z</time></trkpt><trkpt lat="43.3960497776934" lon="10.898217376972182"><ele>253.0</ele><time>2026-04-26T16:43:45.002Z</time></trkpt><trkpt lat="43.3960102892752" lon="10.898359394600087"><ele>253.0</ele><time>2026-04-26T16:43:46.002Z</time></trkpt><trkpt lat="43.39599561096692" lon="10.89850756543654"><ele>253.0</ele><time>2026-04-26T16:43:47.002Z</time></trkpt><trkpt lat="43.39596352203943" lon="10.898636526002543"><ele>253.0</ele><time>2026-04-26T16:43:48.002Z</time></trkpt><trkpt lat="43.395897323917346" lon="10.898723865895644"><ele>250.0</ele><time>2026-04-26T16:43:49.002Z</time></trkpt><trkpt lat="43.39582014479073" lon="10.898829075012593"><ele>247.0</ele><time>2026-04-26T16:43:50.002Z</time></trkpt><trkpt lat="43.39573304169075" lon="10.898933040607936"><ele>244.0</ele><time>2026-04-26T16:43:51.003Z</time></trkpt><trkpt lat="43.39565574325505" lon="10.899064434551093"><ele>241.0</ele><time>2026-04-26T16:43:52.003Z</time></trkpt><trkpt lat="43.39557269971482" lon="10.899188186613737"><ele>242.20000000000002</ele><time>2026-04-26T16:43:53.003Z</time></trkpt><trkpt lat="43.39549258040553" lon="10.899308006603052"><ele>243.40000000000003</ele><time>2026-04-26T16:43:54.003Z</time></trkpt><trkpt lat="43.39543297132141" lon="10.89941593005021"><ele>244.6</ele><time>2026-04-26T16:43:55.003Z</time></trkpt><trkpt lat="43.39539984766458" lon="10.899535571213807"><ele>245.8</ele><time>2026-04-26T16:43:56.003Z</time></trkpt><trkpt lat="43.395414614048846" lon="10.899669076235556"><ele>247.0</ele><time>2026-04-26T16:43:57.003Z</time></trkpt><trkpt lat="43.39539289019643" lon="10.89982445849941"><ele>247.0</ele><time>2026-04-26T16:43:58.003Z</time></trkpt><trkpt lat="43.39532832803068" lon="10.89998083563478"><ele>247.0</ele><time>2026-04-26T16:43:59.003Z</time></trkpt><trkpt lat="43.3953023345905" lon="10.900152604146427"><ele>247.0</ele><time>2026-04-26T16:44:00.003Z</time></trkpt><trkpt lat="43.39527168335072" lon="10.900312123411245"><ele>247.0</ele><time>2026-04-26T16:44:01.003Z</time></trkpt><trkpt lat="43.39523505954808" lon="10.900492828173364"><ele>245.0</ele><time>2026-04-26T16:44:02.003Z</time></trkpt><trkpt lat="43.39518061386539" lon="10.900635028741325"><ele>243.0</ele><time>2026-04-26T16:44:03.003Z</time></trkpt><trkpt lat="43.39515879173517" lon="10.900755710721208"><ele>241.0</ele><time>2026-04-26T16:44:04.003Z</time></trkpt><trkpt lat="43.39517472094519" lon="10.900881341161986"><ele>239.0</ele><time>2026-04-26T16:44:05.003Z</time></trkpt><trkpt lat="43.39519202117161" lon="10.9009967762197"><ele>237.0</ele><time>2026-04-26T16:44:06.003Z</time></trkpt><trkpt lat="43.395207942930725" lon="10.90113881495974"><ele>235.6</ele><time>2026-04-26T16:44:07.003Z</time></trkpt><trkpt lat="43.395213500085724" lon="10.901284128514881"><ele>234.2</ele><time>2026-04-26T16:44:08.003Z</time></trkpt><trkpt lat="43.395171432802584" lon="10.901406814478747"><ele>232.8</ele><time>2026-04-26T16:44:09.003Z</time></trkpt><trkpt lat="43.3951286647011" lon="10.901532438304379"><ele>231.4</ele><time>2026-04-26T16:44:10.003Z</time></trkpt><trkpt lat="43.39507090102851" lon="10.901688343053081"><ele>230.0</ele><time>2026-04-26T16:44:11.003Z</time></trkpt><trkpt lat="43.39499871506291" lon="10.901857098748964"><ele>229.8</ele><time>2026-04-26T16:44:12.003Z</time></trkpt><trkpt lat="43.394930991901056" lon="10.902012369480591"><ele>229.6</ele><time>2026-04-26T16:44:13.003Z</time></trkpt><trkpt lat="43.39485803700098" lon="10.902142418026449"><ele>229.39999999999998</ele><time>2026-04-26T16:44:14.003Z</time></trkpt><trkpt lat="43.394790296233204" lon="10.90223201380609"><ele>229.2</ele><time>2026-04-26T16:44:15.003Z</time></trkpt><trkpt lat="43.394750556524" lon="10.902320598671892"><ele>229.0</ele><time>2026-04-26T16:44:16.003Z</time></trkpt><trkpt lat="43.394746074183026" lon="10.902481403063197"><ele>229.0</ele><time>2026-04-26T16:44:18.003Z</time></trkpt><trkpt lat="43.39480009679334" lon="10.902555392776517"><ele>228.99999999999997</ele><time>2026-04-26T16:44:19.001Z</time></trkpt><trkpt lat="43.39488512264704" lon="10.902592730528088"><ele>228.99999999999997</ele><time>2026-04-26T16:44:20.001Z</time></trkpt><trkpt lat="43.39497285942701" lon="10.902619021510798"><ele>229.0</ele><time>2026-04-26T16:44:21.001Z</time></trkpt><trkpt lat="43.39510371307381" lon="10.902628311063323"><ele>229.0</ele><time>2026-04-26T16:44:22.001Z</time></trkpt><trkpt lat="43.395238422301176" lon="10.902614461778063"><ele>229.0</ele><time>2026-04-26T16:44:23.001Z</time></trkpt><trkpt lat="43.39534992660649" lon="10.902582711424458"><ele>228.99999999999997</ele><time>2026-04-26T16:44:24.001Z</time></trkpt><trkpt lat="43.39542710884059" lon="10.902575003387025"><ele>228.99999999999997</ele><time>2026-04-26T16:44:25.001Z</time></trkpt><trkpt lat="43.39550793232655" lon="10.902667468354016"><ele>229.0</ele><time>2026-04-26T16:44:27.001Z</time></trkpt><trkpt lat="43.39549161171305" lon="10.902772239760557"><ele>229.0</ele><time>2026-04-26T16:44:28.001Z</time></trkpt><trkpt lat="43.395476163651324" lon="10.90287973656572"><ele>229.75</ele><time>2026-04-26T16:44:29.001Z</time></trkpt><trkpt lat="43.395473596598116" lon="10.903062346314407"><ele>230.5</ele><time>2026-04-26T16:44:30.001Z</time></trkpt><trkpt lat="43.395489059411375" lon="10.903269396793128"><ele>231.25</ele><time>2026-04-26T16:44:31.001Z</time></trkpt><trkpt lat="43.39553210416164" lon="10.903479371737733"><ele>232.0</ele><time>2026-04-26T16:44:32.001Z</time></trkpt><trkpt lat="43.39554606937366" lon="10.903666164350449"><ele>233.33333333333331</ele><time>2026-04-26T16:44:33.001Z</time></trkpt><trkpt lat="43.395558742720674" lon="10.903793625593382"><ele>234.66666666666666</ele><time>2026-04-26T16:44:34.001Z</time></trkpt><trkpt lat="43.39560869185582" lon="10.903928283511922"><ele>236.0</ele><time>2026-04-26T16:44:36.001Z</time></trkpt><trkpt lat="43.39567402793114" lon="10.903947950567902"><ele>237.33333333333331</ele><time>2026-04-26T16:44:37.001Z</time></trkpt><trkpt lat="43.395741884421426" lon="10.903903521785894"><ele>238.66666666666666</ele><time>2026-04-26T16:44:38.001Z</time></trkpt><trkpt lat="43.395787585460134" lon="10.903828987629007"><ele>240.0</ele><time>2026-04-26T16:44:39.001Z</time></trkpt><trkpt lat="43.395782701416024" lon="10.903687221818013"><ele>240.0</ele><time>2026-04-26T16:44:40.001Z</time></trkpt><trkpt lat="43.39578528578173" lon="10.903548227671184"><ele>240.0</ele><time>2026-04-26T16:44:41.001Z</time></trkpt><trkpt lat="43.395771731215866" lon="10.903387479680333"><ele>240.0</ele><time>2026-04-26T16:44:42.001Z</time></trkpt><trkpt lat="43.3957868005452" lon="10.90326065904012"><ele>240.0</ele><time>2026-04-26T16:44:43.001Z</time></trkpt><trkpt lat="43.39584619559978" lon="10.903154657497767"><ele>240.0</ele><time>2026-04-26T16:44:44.001Z</time></trkpt><trkpt lat="43.39591618601729" lon="10.903058687258504"><ele>238.75</ele><time>2026-04-26T16:44:45.001Z</time></trkpt><trkpt lat="43.39599591179172" lon="10.902929952441163"><ele>237.5</ele><time>2026-04-26T16:44:46.001Z</time></trkpt><trkpt lat="43.39607258008496" lon="10.902769485983255"><ele>236.25</ele><time>2026-04-26T16:44:47.001Z</time></trkpt><trkpt lat="43.39614723394631" lon="10.902644354003701"><ele>235.0</ele><time>2026-04-26T16:44:48.001Z</time></trkpt><trkpt lat="43.39621922721988" lon="10.902548170894594"><ele>235.83333333333331</ele><time>2026-04-26T16:44:49.001Z</time></trkpt><trkpt lat="43.39631563392945" lon="10.902516032797827"><ele>236.66666666666666</ele><time>2026-04-26T16:44:50.001Z</time></trkpt><trkpt lat="43.39639997874925" lon="10.902487574032884"><ele>237.5</ele><time>2026-04-26T16:44:51.001Z</time></trkpt><trkpt lat="43.3964851257455" lon="10.902483141150867"><ele>238.33333333333331</ele><time>2026-04-26T16:44:52.001Z</time></trkpt><trkpt lat="43.39655735971976" lon="10.902515770163992"><ele>239.16666666666666</ele><time>2026-04-26T16:44:53.001Z</time></trkpt><trkpt lat="43.39661944880729" lon="10.902561998113006"><ele>240.0</ele><time>2026-04-26T16:44:54.001Z</time></trkpt><trkpt lat="43.39664068616921" lon="10.902710100175419"><ele>239.0</ele><time>2026-04-26T16:44:56.001Z</time></trkpt><trkpt lat="43.396559060379104" lon="10.90281610432419"><ele>238.0</ele><time>2026-04-26T16:44:58.001Z</time></trkpt><trkpt lat="43.39643086735111" lon="10.9028743389966"><ele>237.0</ele><time>2026-04-26T16:45:00.001Z</time></trkpt><trkpt lat="43.396373487704125" lon="10.902925134876513"><ele>236.0</ele><time>2026-04-26T16:45:01.001Z</time></trkpt><trkpt lat="43.39631646520269" lon="10.903011630267626"><ele>235.0</ele><time>2026-04-26T16:45:02.001Z</time></trkpt><trkpt lat="43.39631445590602" lon="10.903154020794304"><ele>235.0</ele><time>2026-04-26T16:45:03.001Z</time></trkpt><trkpt lat="43.39628481203341" lon="10.903284251400438"><ele>235.0</ele><time>2026-04-26T16:45:04.001Z</time></trkpt><trkpt lat="43.3962762173591" lon="10.903446435378505"><ele>235.0</ele><time>2026-04-26T16:45:05.001Z</time></trkpt><trkpt lat="43.39627836618745" lon="10.903619064423106"><ele>235.0</ele><time>2026-04-26T16:45:06.001Z</time></trkpt><trkpt lat="43.39629101268834" lon="10.903774115938646"><ele>236.25</ele><time>2026-04-26T16:45:07.001Z</time></trkpt><trkpt lat="43.39632514242349" lon="10.903926905566495"><ele>237.5</ele><time>2026-04-26T16:45:08.001Z</time></trkpt><trkpt lat="43.39638676379458" lon="10.904092572086228"><ele>238.75</ele><time>2026-04-26T16:45:09.001Z</time></trkpt><trkpt lat="43.39644047559116" lon="10.904281299683635"><ele>240.0</ele><time>2026-04-26T16:45:10.001Z</time></trkpt><trkpt lat="43.39648100589434" lon="10.904445368122287"><ele>246.25</ele><time>2026-04-26T16:45:11.001Z</time></trkpt><trkpt lat="43.39651267138091" lon="10.904608862197673"><ele>252.5</ele><time>2026-04-26T16:45:12.001Z</time></trkpt><trkpt lat="43.39649984908988" lon="10.904757184550487"><ele>258.75</ele><time>2026-04-26T16:45:13.001Z</time></trkpt><trkpt lat="43.39648136184135" lon="10.90488422592839"><ele>265.0</ele><time>2026-04-26T16:45:14.001Z</time></trkpt><trkpt lat="43.39644153990219" lon="10.90505520382458"><ele>264.8</ele><time>2026-04-26T16:45:15.001Z</time></trkpt><trkpt lat="43.39639610497219" lon="10.90521265848007"><ele>264.6</ele><time>2026-04-26T16:45:16.002Z</time></trkpt><trkpt lat="43.39636196482338" lon="10.905345147407829"><ele>264.4</ele><time>2026-04-26T16:45:17.002Z</time></trkpt><trkpt lat="43.396340075773146" lon="10.90545650369351"><ele>264.2</ele><time>2026-04-26T16:45:18.002Z</time></trkpt><trkpt lat="43.396345839887864" lon="10.905563127770725"><ele>264.0</ele><time>2026-04-26T16:45:19.002Z</time></trkpt><trkpt lat="43.39637437363438" lon="10.9056616251749"><ele>264.0</ele><time>2026-04-26T16:45:20.002Z</time></trkpt><trkpt lat="43.39643492011381" lon="10.90573762243104"><ele>264.0</ele><time>2026-04-26T16:45:21.002Z</time></trkpt><trkpt lat="43.396484429414755" lon="10.90580902175866"><ele>264.0</ele><time>2026-04-26T16:45:22.002Z</time></trkpt><trkpt lat="43.39656623793949" lon="10.905810333273056"><ele>264.0</ele><time>2026-04-26T16:45:23.002Z</time></trkpt><trkpt lat="43.396648052664304" lon="10.905747709420469"><ele>264.0</ele><time>2026-04-26T16:45:24.002Z</time></trkpt><trkpt lat="43.396711703972215" lon="10.9056679528813"><ele>264.0</ele><time>2026-04-26T16:45:25.002Z</time></trkpt><trkpt lat="43.39675728877984" lon="10.905568328126757"><ele>264.0</ele><time>2026-04-26T16:45:26.002Z</time></trkpt><trkpt lat="43.39680190454931" lon="10.905420629847534"><ele>264.0</ele><time>2026-04-26T16:45:27.002Z</time></trkpt><trkpt lat="43.39684197019475" lon="10.905291213084821"><ele>264.0</ele><time>2026-04-26T16:45:28.002Z</time></trkpt><trkpt lat="43.39689277859954" lon="10.905222911451437"><ele>264.0</ele><time>2026-04-26T16:45:29.002Z</time></trkpt><trkpt lat="43.39699622417808" lon="10.905228671452894"><ele>264.0</ele><time>2026-04-26T16:45:31.002Z</time></trkpt><trkpt lat="43.397036449568866" lon="10.905354402997249"><ele>264.0</ele><time>2026-04-26T16:45:33.002Z</time></trkpt><trkpt lat="43.39704991684895" lon="10.905441269759535"><ele>264.0</ele><time>2026-04-26T16:45:34.002Z</time></trkpt><trkpt lat="43.39709098292719" lon="10.905576839330335"><ele>264.0</ele><time>2026-04-26T16:45:35.002Z</time></trkpt><trkpt lat="43.397146120136725" lon="10.905739110134661"><ele>264.0</ele><time>2026-04-26T16:45:36.002Z</time></trkpt><trkpt lat="43.39720388911737" lon="10.9058493880113"><ele>264.0</ele><time>2026-04-26T16:45:37.002Z</time></trkpt><trkpt lat="43.39725194601271" lon="10.905913106806135"><ele>266.8</ele><time>2026-04-26T16:45:38.002Z</time></trkpt><trkpt lat="43.39733956297104" lon="10.905959786593883"><ele>269.59999999999997</ele><time>2026-04-26T16:45:40.002Z</time></trkpt><trkpt lat="43.39741607294466" lon="10.90581601447494"><ele>272.4</ele><time>2026-04-26T16:45:42.002Z</time></trkpt><trkpt lat="43.39744343065411" lon="10.905691386961696"><ele>275.2</ele><time>2026-04-26T16:45:43.002Z</time></trkpt><trkpt lat="43.39748172069408" lon="10.905541187333469"><ele>278.0</ele><time>2026-04-26T16:45:44.002Z</time></trkpt><trkpt lat="43.39755908608377" lon="10.905394676742903"><ele>277.75</ele><time>2026-04-26T16:45:45.002Z</time></trkpt><trkpt lat="43.397609747251316" lon="10.905227883859272"><ele>277.5</ele><time>2026-04-26T16:45:46.002Z</time></trkpt><trkpt lat="43.39767887734786" lon="10.905076863194287"><ele>277.25</ele><time>2026-04-26T16:45:47.002Z</time></trkpt><trkpt lat="43.3977373250461" lon="10.9049238200419"><ele>277.0</ele><time>2026-04-26T16:45:48.002Z</time></trkpt><trkpt lat="43.397791326888765" lon="10.904778494830794"><ele>277.0</ele><time>2026-04-26T16:45:49.002Z</time></trkpt><trkpt lat="43.3978394413391" lon="10.904647362170193"><ele>277.0</ele><time>2026-04-26T16:45:50.002Z</time></trkpt><trkpt lat="43.39787941358112" lon="10.904535366086645"><ele>277.0</ele><time>2026-04-26T16:45:51.002Z</time></trkpt><trkpt lat="43.397920731812455" lon="10.904440763775563"><ele>277.0</ele><time>2026-04-26T16:45:52.002Z</time></trkpt><trkpt lat="43.397963564596445" lon="10.90436713181116"><ele>277.0</ele><time>2026-04-26T16:45:53.002Z</time></trkpt><trkpt lat="43.39802637569218" lon="10.904284358433351"><ele>277.0</ele><time>2026-04-26T16:45:54.002Z</time></trkpt><trkpt lat="43.398115537961324" lon="10.904209007229788"><ele>279.6</ele><time>2026-04-26T16:45:55.002Z</time></trkpt><trkpt lat="43.39816744891803" lon="10.904128340790772"><ele>282.2</ele><time>2026-04-26T16:45:56.003Z</time></trkpt><trkpt lat="43.3982616147477" lon="10.904121909249643"><ele>284.8</ele><time>2026-04-26T16:45:58.003Z</time></trkpt><trkpt lat="43.39831711142458" lon="10.904228497575199"><ele>287.4</ele><time>2026-04-26T16:46:00.003Z</time></trkpt><trkpt lat="43.39827996488477" lon="10.904303666154023"><ele>290.0</ele><time>2026-04-26T16:46:01.003Z</time></trkpt><trkpt lat="43.39820438740984" lon="10.904487447818731"><ele>290.8</ele><time>2026-04-26T16:46:03.003Z</time></trkpt><trkpt lat="43.398167227560094" lon="10.904621605840417"><ele>291.6</ele><time>2026-04-26T16:46:04.003Z</time></trkpt><trkpt lat="43.39813747064853" lon="10.904744711717989"><ele>292.4</ele><time>2026-04-26T16:46:05.003Z</time></trkpt><trkpt lat="43.398152977730945" lon="10.904876896779086"><ele>293.2</ele><time>2026-04-26T16:46:06.003Z</time></trkpt><trkpt lat="43.398172584750384" lon="10.905004703634566"><ele>294.0</ele><time>2026-04-26T16:46:07.003Z</time></trkpt><trkpt lat="43.39818836020025" lon="10.90516203423829"><ele>294.59999999999997</ele><time>2026-04-26T16:46:08.003Z</time></trkpt><trkpt lat="43.39822069575735" lon="10.905333089495361"><ele>295.2</ele><time>2026-04-26T16:46:09.003Z</time></trkpt><trkpt lat="43.398251795808235" lon="10.905486752156907"><ele>295.79999999999995</ele><time>2026-04-26T16:46:10.003Z</time></trkpt><trkpt lat="43.39829829831768" lon="10.905611332391322"><ele>296.4</ele><time>2026-04-26T16:46:11.003Z</time></trkpt><trkpt lat="43.398350122660865" lon="10.905689394972825"><ele>297.0</ele><time>2026-04-26T16:46:12.003Z</time></trkpt><trkpt lat="43.39842312752415" lon="10.905729430189199"><ele>297.0</ele><time>2026-04-26T16:46:13.003Z</time></trkpt><trkpt lat="43.398499286703434" lon="10.905737762567208"><ele>297.0</ele><time>2026-04-26T16:46:14.003Z</time></trkpt><trkpt lat="43.39857726980171" lon="10.905683914742209"><ele>297.0</ele><time>2026-04-26T16:46:15.003Z</time></trkpt><trkpt lat="43.39861553686733" lon="10.905562342342101"><ele>297.0</ele><time>2026-04-26T16:46:16.003Z</time></trkpt><trkpt lat="43.398656610939234" lon="10.905445990169191"><ele>297.0</ele><time>2026-04-26T16:46:17.003Z</time></trkpt><trkpt lat="43.39870807707092" lon="10.90529483044099"><ele>297.0</ele><time>2026-04-26T16:46:18.003Z</time></trkpt><trkpt lat="43.398791873808406" lon="10.905133155003256"><ele>297.0</ele><time>2026-04-26T16:46:19.003Z</time></trkpt><trkpt lat="43.39886240006719" lon="10.904965239409664"><ele>297.0</ele><time>2026-04-26T16:46:20.003Z</time></trkpt><trkpt lat="43.398906743097875" lon="10.904801667542513"><ele>297.0</ele><time>2026-04-26T16:46:21.003Z</time></trkpt><trkpt lat="43.398940958268945" lon="10.904662849799525"><ele>299.3333333333333</ele><time>2026-04-26T16:46:22.003Z</time></trkpt><trkpt lat="43.39898819246227" lon="10.904556231880678"><ele>301.6666666666667</ele><time>2026-04-26T16:46:23.003Z</time></trkpt><trkpt lat="43.399025530664495" lon="10.904466474613297"><ele>304.0</ele><time>2026-04-26T16:46:24.003Z</time></trkpt><trkpt lat="43.39908523281447" lon="10.90439083789331"><ele>306.33333333333337</ele><time>2026-04-26T16:46:25.001Z</time></trkpt><trkpt lat="43.399150444445134" lon="10.904308580343045"><ele>308.6666666666667</ele><time>2026-04-26T16:46:26.001Z</time></trkpt><trkpt lat="43.399229057630485" lon="10.904213225494257"><ele>311.0</ele><time>2026-04-26T16:46:27.001Z</time></trkpt><trkpt lat="43.39931292328437" lon="10.904117153318934"><ele>311.0</ele><time>2026-04-26T16:46:28.001Z</time></trkpt><trkpt lat="43.39938573034168" lon="10.90405535988713"><ele>311.0</ele><time>2026-04-26T16:46:29.001Z</time></trkpt><trkpt lat="43.39948149503677" lon="10.904019934172617"><ele>311.0</ele><time>2026-04-26T16:46:31.001Z</time></trkpt><trkpt lat="43.39952320755703" lon="10.904110786595151"><ele>311.0</ele><time>2026-04-26T16:46:33.001Z</time></trkpt><trkpt lat="43.39950830687084" lon="10.904219279071492"><ele>311.0</ele><time>2026-04-26T16:46:35.001Z</time></trkpt><trkpt lat="43.39942417493743" lon="10.904363617067997"><ele>311.83333333333337</ele><time>2026-04-26T16:46:37.001Z</time></trkpt><trkpt lat="43.39935240117758" lon="10.904447007542478"><ele>312.6666666666667</ele><time>2026-04-26T16:46:38.001Z</time></trkpt><trkpt lat="43.39927244445215" lon="10.904545671943684"><ele>313.5</ele><time>2026-04-26T16:46:39.001Z</time></trkpt><trkpt lat="43.399232617551974" lon="10.904640570310942"><ele>314.3333333333333</ele><time>2026-04-26T16:46:40.001Z</time></trkpt><trkpt lat="43.39921718553558" lon="10.904731264479997"><ele>315.16666666666663</ele><time>2026-04-26T16:46:41.001Z</time></trkpt><trkpt lat="43.399239086977296" lon="10.904838238432479"><ele>316.0</ele><time>2026-04-26T16:46:42.001Z</time></trkpt><trkpt lat="43.39928890010095" lon="10.90495502992374"><ele>315.6</ele><time>2026-04-26T16:46:43.001Z</time></trkpt><trkpt lat="43.39934289880056" lon="10.905085420160484"><ele>315.20000000000005</ele><time>2026-04-26T16:46:44.001Z</time></trkpt><trkpt lat="43.39938229612554" lon="10.905236919727066"><ele>314.79999999999995</ele><time>2026-04-26T16:46:45.001Z</time></trkpt><trkpt lat="43.399428210204675" lon="10.905363490986783"><ele>314.4</ele><time>2026-04-26T16:46:46.001Z</time></trkpt><trkpt lat="43.399445733812904" lon="10.90547091646358"><ele>314.0</ele><time>2026-04-26T16:46:47.001Z</time></trkpt><trkpt lat="43.399509543358185" lon="10.90556866759694"><ele>314.0</ele><time>2026-04-26T16:46:48.001Z</time></trkpt><trkpt lat="43.399602818772216" lon="10.90562593972469"><ele>314.0</ele><time>2026-04-26T16:46:49.001Z</time></trkpt><trkpt lat="43.39966883315228" lon="10.905656484627706"><ele>314.0</ele><time>2026-04-26T16:46:50.001Z</time></trkpt><trkpt lat="43.39976345429161" lon="10.905561632299118"><ele>314.0</ele><time>2026-04-26T16:46:52.001Z</time></trkpt><trkpt lat="43.39976594861155" lon="10.905471514800825"><ele>314.0</ele><time>2026-04-26T16:46:53.001Z</time></trkpt><trkpt lat="43.3997182780513" lon="10.905389102569575"><ele>314.0</ele><time>2026-04-26T16:46:54.001Z</time></trkpt><trkpt lat="43.399675898408326" lon="10.905282169618125"><ele>314.0</ele><time>2026-04-26T16:46:55.001Z</time></trkpt><trkpt lat="43.39966305658309" lon="10.905159709316884"><ele>314.0</ele><time>2026-04-26T16:46:56.001Z</time></trkpt><trkpt lat="43.399665280125504" lon="10.90506050953436"><ele>314.0</ele><time>2026-04-26T16:46:57.001Z</time></trkpt><trkpt lat="43.399694220407746" lon="10.904982280380425"><ele>314.0</ele><time>2026-04-26T16:46:58.001Z</time></trkpt><trkpt lat="43.39977894040515" lon="10.904924621454166"><ele>314.0</ele><time>2026-04-26T16:47:00.001Z</time></trkpt><trkpt lat="43.399816990109294" lon="10.905067072112475"><ele>314.0</ele><time>2026-04-26T16:47:02.001Z</time></trkpt><trkpt lat="43.39985751269977" lon="10.90526925956447"><ele>320.75</ele><time>2026-04-26T16:47:04.001Z</time></trkpt><trkpt lat="43.39989439766331" lon="10.90539594290933"><ele>327.5</ele><time>2026-04-26T16:47:05.001Z</time></trkpt><trkpt lat="43.399977550875484" lon="10.905524450910654"><ele>334.25</ele><time>2026-04-26T16:47:06.001Z</time></trkpt><trkpt lat="43.400049640091005" lon="10.905683292899194"><ele>341.0</ele><time>2026-04-26T16:47:07.001Z</time></trkpt><trkpt lat="43.4001380749247" lon="10.905838490436203"><ele>340.6</ele><time>2026-04-26T16:47:08.001Z</time></trkpt><trkpt lat="43.400187296851904" lon="10.905994892055695"><ele>340.20000000000005</ele><time>2026-04-26T16:47:09.001Z</time></trkpt><trkpt lat="43.40021433254402" lon="10.906129244840212"><ele>339.79999999999995</ele><time>2026-04-26T16:47:10.001Z</time></trkpt><trkpt lat="43.40023049171632" lon="10.90625211955738"><ele>339.4</ele><time>2026-04-26T16:47:11.001Z</time></trkpt><trkpt lat="43.400237895233616" lon="10.906388037046712"><ele>339.0</ele><time>2026-04-26T16:47:12.001Z</time></trkpt><trkpt lat="43.4002231039474" lon="10.906528698394313"><ele>339.0</ele><time>2026-04-26T16:47:13.001Z</time></trkpt><trkpt lat="43.400193750727176" lon="10.90668517093263"><ele>339.0</ele><time>2026-04-26T16:47:14.001Z</time></trkpt><trkpt lat="43.400157079330775" lon="10.906838326683655"><ele>339.0</ele><time>2026-04-26T16:47:15.001Z</time></trkpt><trkpt lat="43.400108917717134" lon="10.907026753211566"><ele>339.0</ele><time>2026-04-26T16:47:16.001Z</time></trkpt><trkpt lat="43.40005789151987" lon="10.907237718816669"><ele>340.25</ele><time>2026-04-26T16:47:17.001Z</time></trkpt><trkpt lat="43.40001452524006" lon="10.907428909487802"><ele>341.5</ele><time>2026-04-26T16:47:18.001Z</time></trkpt><trkpt lat="43.399999487350925" lon="10.90759278566287"><ele>342.75</ele><time>2026-04-26T16:47:19.001Z</time></trkpt><trkpt lat="43.3999696065534" lon="10.907739364725177"><ele>344.0</ele><time>2026-04-26T16:47:20.001Z</time></trkpt><trkpt lat="43.39993793660008" lon="10.907847280265996"><ele>345.4</ele><time>2026-04-26T16:47:21.001Z</time></trkpt><trkpt lat="43.399928560631565" lon="10.907949514785269"><ele>346.79999999999995</ele><time>2026-04-26T16:47:22.001Z</time></trkpt><trkpt lat="43.39995159425835" lon="10.908055322270659"><ele>348.20000000000005</ele><time>2026-04-26T16:47:23.001Z</time></trkpt><trkpt lat="43.400009490587884" lon="10.90816855618894"><ele>349.6</ele><time>2026-04-26T16:47:24.002Z</time></trkpt><trkpt lat="43.40008699785188" lon="10.908275998912249"><ele>351.0</ele><time>2026-04-26T16:47:25.002Z</time></trkpt><trkpt lat="43.40011384312761" lon="10.908391237221982"><ele>350.4</ele><time>2026-04-26T16:47:26.002Z</time></trkpt><trkpt lat="43.40013461359237" lon="10.908473084800548"><ele>349.8</ele><time>2026-04-26T16:47:27.002Z</time></trkpt><trkpt lat="43.400175657069624" lon="10.908613368055066"><ele>349.2</ele><time>2026-04-26T16:47:29.002Z</time></trkpt><trkpt lat="43.400285571172766" lon="10.908690885792973"><ele>348.59999999999997</ele><time>2026-04-26T16:47:31.002Z</time></trkpt><trkpt lat="43.40037357221543" lon="10.908656393428272"><ele>348.0</ele><time>2026-04-26T16:47:32.002Z</time></trkpt><trkpt lat="43.400478669285555" lon="10.908655382675429"><ele>347.5</ele><time>2026-04-26T16:47:33.002Z</time></trkpt><trkpt lat="43.4005980977095" lon="10.908636127599356"><ele>347.0</ele><time>2026-04-26T16:47:34.002Z</time></trkpt><trkpt lat="43.400742304219385" lon="10.908629516284561"><ele>346.5</ele><time>2026-04-26T16:47:35.002Z</time></trkpt><trkpt lat="43.40088136079467" lon="10.908613081126425"><ele>346.0</ele><time>2026-04-26T16:47:36.002Z</time></trkpt><trkpt lat="43.40100645198792" lon="10.908575894493515"><ele>346.0</ele><time>2026-04-26T16:47:37.002Z</time></trkpt><trkpt lat="43.401138591143074" lon="10.908585189972694"><ele>346.0</ele><time>2026-04-26T16:47:38.002Z</time></trkpt><trkpt lat="43.40127990567517" lon="10.90857718662054"><ele>346.0</ele><time>2026-04-26T16:47:39.002Z</time></trkpt><trkpt lat="43.401399798086786" lon="10.908561694137584"><ele>346.0</ele><time>2026-04-26T16:47:40.002Z</time></trkpt><trkpt lat="43.4015140267341" lon="10.908525891602842"><ele>346.0</ele><time>2026-04-26T16:47:41.002Z</time></trkpt><trkpt lat="43.40161633080296" lon="10.908509309493912"><ele>346.0</ele><time>2026-04-26T16:47:42.002Z</time></trkpt><trkpt lat="43.4017099162533" lon="10.908505452705974"><ele>346.0</ele><time>2026-04-26T16:47:43.002Z</time></trkpt><trkpt lat="43.401819318469066" lon="10.908517759823393"><ele>346.0</ele><time>2026-04-26T16:47:45.002Z</time></trkpt><trkpt lat="43.40191817377261" lon="10.90861494952641"><ele>346.0</ele><time>2026-04-26T16:47:47.002Z</time></trkpt><trkpt lat="43.401959769304945" lon="10.908727037422503"><ele>346.0</ele><time>2026-04-26T16:47:48.002Z</time></trkpt><trkpt lat="43.40200139883886" lon="10.90884346718302"><ele>346.0</ele><time>2026-04-26T16:47:49.002Z</time></trkpt><trkpt lat="43.40204778167018" lon="10.908964701169529"><ele>346.0</ele><time>2026-04-26T16:47:50.002Z</time></trkpt><trkpt lat="43.4021068114989" lon="10.909076407615117"><ele>346.0</ele><time>2026-04-26T16:47:51.002Z</time></trkpt><trkpt lat="43.402151667212635" lon="10.909207868280268"><ele>346.0</ele><time>2026-04-26T16:47:52.002Z</time></trkpt><trkpt lat="43.402197319405886" lon="10.909321836943398"><ele>345.57142857142856</ele><time>2026-04-26T16:47:53.002Z</time></trkpt><trkpt lat="43.40222920131081" lon="10.909420410466817"><ele>345.14285714285717</ele><time>2026-04-26T16:47:54.002Z</time></trkpt><trkpt lat="43.40225029796023" lon="10.909514192248288"><ele>344.7142857142857</ele><time>2026-04-26T16:47:55.002Z</time></trkpt><trkpt lat="43.402296333224534" lon="10.90959365260696"><ele>344.2857142857143</ele><time>2026-04-26T16:47:56.002Z</time></trkpt><trkpt lat="43.40232868753086" lon="10.909681186727028"><ele>343.8571428571429</ele><time>2026-04-26T16:47:57.002Z</time></trkpt><trkpt lat="43.402354760319945" lon="10.90976356128283"><ele>343.42857142857144</ele><time>2026-04-26T16:47:58.002Z</time></trkpt><trkpt lat="43.402388298970095" lon="10.909841281199505"><ele>343.0</ele><time>2026-04-26T16:47:59.002Z</time></trkpt><trkpt lat="43.40241674010865" lon="10.909924510873976"><ele>341.66666666666663</ele><time>2026-04-26T16:48:00.002Z</time></trkpt><trkpt lat="43.402475318339455" lon="10.910075026512274"><ele>340.3333333333333</ele><time>2026-04-26T16:48:02.002Z</time></trkpt><trkpt lat="43.40250367511992" lon="10.910156728028992"><ele>339.0</ele><time>2026-04-26T16:48:03.002Z</time></trkpt><trkpt lat="43.40253681678178" lon="10.910238009521523"><ele>337.6666666666667</ele><time>2026-04-26T16:48:04.002Z</time></trkpt><trkpt lat="43.40256853415899" lon="10.91032552233691"><ele>336.33333333333337</ele><time>2026-04-26T16:48:05.002Z</time></trkpt><trkpt lat="43.40260813325127" lon="10.910413047946045"><ele>335.0</ele><time>2026-04-26T16:48:06.002Z</time></trkpt><trkpt lat="43.402648202399" lon="10.910512670934954"><ele>335.0</ele><time>2026-04-26T16:48:07.002Z</time></trkpt><trkpt lat="43.402685319754" lon="10.91061773818334"><ele>335.0</ele><time>2026-04-26T16:48:08.002Z</time></trkpt><trkpt lat="43.40271922608847" lon="10.91072999736917"><ele>335.0</ele><time>2026-04-26T16:48:09.003Z</time></trkpt><trkpt lat="43.402744478362806" lon="10.910844073196678"><ele>335.0</ele><time>2026-04-26T16:48:10.003Z</time></trkpt><trkpt lat="43.4027587947223" lon="10.91096783364783"><ele>335.0</ele><time>2026-04-26T16:48:11.003Z</time></trkpt><trkpt lat="43.40277824951005" lon="10.911090239720881"><ele>335.0</ele><time>2026-04-26T16:48:12.003Z</time></trkpt><trkpt lat="43.402793970786774" lon="10.911222558881848"><ele>333.8</ele><time>2026-04-26T16:48:13.003Z</time></trkpt><trkpt lat="43.40281121105482" lon="10.911362315016223"><ele>332.6</ele><time>2026-04-26T16:48:14.003Z</time></trkpt><trkpt lat="43.40282736701669" lon="10.911497866069022"><ele>331.4</ele><time>2026-04-26T16:48:15.003Z</time></trkpt><trkpt lat="43.402837827287215" lon="10.911626783360617"><ele>330.2</ele><time>2026-04-26T16:48:16.003Z</time></trkpt><trkpt lat="43.40285517676911" lon="10.911753960512906"><ele>329.0</ele><time>2026-04-26T16:48:17.003Z</time></trkpt><trkpt lat="43.40286970146043" lon="10.911882087895746"><ele>328.0</ele><time>2026-04-26T16:48:18.003Z</time></trkpt><trkpt lat="43.40288483554109" lon="10.912008069755585"><ele>327.0</ele><time>2026-04-26T16:48:19.003Z</time></trkpt><trkpt lat="43.402898520500955" lon="10.912132482886415"><ele>326.0</ele><time>2026-04-26T16:48:20.003Z</time></trkpt><trkpt lat="43.402911331214405" lon="10.912251933816737"><ele>325.0</ele><time>2026-04-26T16:48:21.003Z</time></trkpt><trkpt lat="43.40292434099566" lon="10.912360961725305"><ele>324.0</ele><time>2026-04-26T16:48:22.003Z</time></trkpt><trkpt lat="43.40293481841164" lon="10.912471394327"><ele>323.0</ele><time>2026-04-26T16:48:23.003Z</time></trkpt><trkpt lat="43.40294045312292" lon="10.912575028003122"><ele>322.25</ele><time>2026-04-26T16:48:24.003Z</time></trkpt><trkpt lat="43.40295032208638" lon="10.912684923715041"><ele>321.5</ele><time>2026-04-26T16:48:25.003Z</time></trkpt><trkpt lat="43.40296185554906" lon="10.91282328073333"><ele>320.75</ele><time>2026-04-26T16:48:26.003Z</time></trkpt><trkpt lat="43.402981092302255" lon="10.913009759697585"><ele>320.0</ele><time>2026-04-26T16:48:27.003Z</time></trkpt><trkpt lat="43.40299839144605" lon="10.91321729386341"><ele>320.0</ele><time>2026-04-26T16:48:28.003Z</time></trkpt><trkpt lat="43.403002971769254" lon="10.913423111378117"><ele>320.0</ele><time>2026-04-26T16:48:29.003Z</time></trkpt><trkpt lat="43.4029961737382" lon="10.913635709991828"><ele>320.0</ele><time>2026-04-26T16:48:30.003Z</time></trkpt><trkpt lat="43.4029771439044" lon="10.913835062909934"><ele>320.0</ele><time>2026-04-26T16:48:31.001Z</time></trkpt><trkpt lat="43.40295159531677" lon="10.914026194578717"><ele>320.0</ele><time>2026-04-26T16:48:32.001Z</time></trkpt><trkpt lat="43.4029203926207" lon="10.914220096904405"><ele>320.0</ele><time>2026-04-26T16:48:33.001Z</time></trkpt><trkpt lat="43.402880819771056" lon="10.914434802539262"><ele>320.0</ele><time>2026-04-26T16:48:34.001Z</time></trkpt><trkpt lat="43.402839289817095" lon="10.914638320180085"><ele>322.0</ele><time>2026-04-26T16:48:35.001Z</time></trkpt><trkpt lat="43.40280175324201" lon="10.91481329898154"><ele>324.0</ele><time>2026-04-26T16:48:36.001Z</time></trkpt><trkpt lat="43.40276474582575" lon="10.914969582770208"><ele>326.0</ele><time>2026-04-26T16:48:37.001Z</time></trkpt><trkpt lat="43.40271277883658" lon="10.91509699673541"><ele>328.0</ele><time>2026-04-26T16:48:38.001Z</time></trkpt><trkpt lat="43.402666707940575" lon="10.91520907672842"><ele>330.0</ele><time>2026-04-26T16:48:39.001Z</time></trkpt><trkpt lat="43.40261009598945" lon="10.91530460115514"><ele>332.0</ele><time>2026-04-26T16:48:40.001Z</time></trkpt><trkpt lat="43.40253882275754" lon="10.915344909563606"><ele>334.0</ele><time>2026-04-26T16:48:41.001Z</time></trkpt><trkpt lat="43.402458752434825" lon="10.915390256545585"><ele>336.0</ele><time>2026-04-26T16:48:42.001Z</time></trkpt><trkpt lat="43.4023596007925" lon="10.91546292595457"><ele>338.0</ele><time>2026-04-26T16:48:43.001Z</time></trkpt><trkpt lat="43.40225726284001" lon="10.915500732011186"><ele>338.0</ele><time>2026-04-26T16:48:44.001Z</time></trkpt><trkpt lat="43.402181587641614" lon="10.915523623154137"><ele>338.0</ele><time>2026-04-26T16:48:45.001Z</time></trkpt><trkpt lat="43.40215651028471" lon="10.915673648909145"><ele>338.0</ele><time>2026-04-26T16:48:47.001Z</time></trkpt><trkpt lat="43.40221381892665" lon="10.915752174157522"><ele>338.0</ele><time>2026-04-26T16:48:48.001Z</time></trkpt><trkpt lat="43.40227818415506" lon="10.915815577759655"><ele>338.0</ele><time>2026-04-26T16:48:49.001Z</time></trkpt><trkpt lat="43.402361316598416" lon="10.915883677137483"><ele>338.0</ele><time>2026-04-26T16:48:50.001Z</time></trkpt><trkpt lat="43.40246499321149" lon="10.91596557969719"><ele>341.33333333333337</ele><time>2026-04-26T16:48:51.001Z</time></trkpt><trkpt lat="43.40259959322216" lon="10.916081874476337"><ele>344.6666666666667</ele><time>2026-04-26T16:48:52.001Z</time></trkpt><trkpt lat="43.40274071464672" lon="10.916221493574504"><ele>348.0</ele><time>2026-04-26T16:48:53.001Z</time></trkpt><trkpt lat="43.40288079951765" lon="10.916370930101863"><ele>348.0</ele><time>2026-04-26T16:48:54.001Z</time></trkpt><trkpt lat="43.40299485160569" lon="10.916512131898623"><ele>348.0</ele><time>2026-04-26T16:48:55.001Z</time></trkpt><trkpt lat="43.40309639048631" lon="10.916639409154552"><ele>348.0</ele><time>2026-04-26T16:48:56.001Z</time></trkpt><trkpt lat="43.40318564834014" lon="10.91675229668732"><ele>348.0</ele><time>2026-04-26T16:48:57.001Z</time></trkpt><trkpt lat="43.40323917801148" lon="10.91688253532604"><ele>348.25</ele><time>2026-04-26T16:48:58.001Z</time></trkpt><trkpt lat="43.40328537672761" lon="10.916998301417479"><ele>348.5</ele><time>2026-04-26T16:48:59.001Z</time></trkpt><trkpt lat="43.40331233613352" lon="10.917135105596193"><ele>348.75</ele><time>2026-04-26T16:49:00.001Z</time></trkpt><trkpt lat="43.40333190324432" lon="10.91730588882356"><ele>349.0</ele><time>2026-04-26T16:49:01.001Z</time></trkpt><trkpt lat="43.40337899065717" lon="10.917476489933645"><ele>350.75</ele><time>2026-04-26T16:49:02.001Z</time></trkpt><trkpt lat="43.40342561845769" lon="10.91764860897617"><ele>352.5</ele><time>2026-04-26T16:49:03.001Z</time></trkpt><trkpt lat="43.403492395152384" lon="10.917813524094035"><ele>354.25</ele><time>2026-04-26T16:49:04.001Z</time></trkpt><trkpt lat="43.40357430154917" lon="10.917960283334535"><ele>356.0</ele><time>2026-04-26T16:49:05.001Z</time></trkpt><trkpt lat="43.403649235769215" lon="10.918091994141118"><ele>356.0</ele><time>2026-04-26T16:49:06.001Z</time></trkpt><trkpt lat="43.40370453847599" lon="10.918218358233036"><ele>356.0</ele><time>2026-04-26T16:49:07.001Z</time></trkpt><trkpt lat="43.40372848663525" lon="10.918368145192417"><ele>356.0</ele><time>2026-04-26T16:49:08.001Z</time></trkpt><trkpt lat="43.403749647081575" lon="10.918523242981404"><ele>356.0</ele><time>2026-04-26T16:49:09.001Z</time></trkpt><trkpt lat="43.40374944937409" lon="10.918689982577211"><ele>357.5</ele><time>2026-04-26T16:49:10.001Z</time></trkpt><trkpt lat="43.40372951312984" lon="10.918857266270622"><ele>359.0</ele><time>2026-04-26T16:49:11.001Z</time></trkpt><trkpt lat="43.40371537532423" lon="10.919052036554824"><ele>360.5</ele><time>2026-04-26T16:49:12.001Z</time></trkpt><trkpt lat="43.40365906440088" lon="10.91923398377426"><ele>362.0</ele><time>2026-04-26T16:49:13.001Z</time></trkpt><trkpt lat="43.40362655385688" lon="10.919435096087549"><ele>363.0</ele><time>2026-04-26T16:49:14.001Z</time></trkpt><trkpt lat="43.40357723136683" lon="10.919623058901342"><ele>364.0</ele><time>2026-04-26T16:49:15.001Z</time></trkpt><trkpt lat="43.40352254218441" lon="10.91979804588744"><ele>365.0</ele><time>2026-04-26T16:49:16.001Z</time></trkpt><trkpt lat="43.4034639154257" lon="10.919964900383329"><ele>366.0</ele><time>2026-04-26T16:49:17.001Z</time></trkpt><trkpt lat="43.40340100576662" lon="10.92014663613157"><ele>366.5</ele><time>2026-04-26T16:49:18.001Z</time></trkpt><trkpt lat="43.40333578930669" lon="10.920334228650276"><ele>367.0</ele><time>2026-04-26T16:49:19.001Z</time></trkpt><trkpt lat="43.40327254092406" lon="10.920497170097873"><ele>367.5</ele><time>2026-04-26T16:49:20.001Z</time></trkpt><trkpt lat="43.40321229511256" lon="10.920650465685926"><ele>368.0</ele><time>2026-04-26T16:49:21.001Z</time></trkpt><trkpt lat="43.40313312254888" lon="10.920795552744467"><ele>368.79999999999995</ele><time>2026-04-26T16:49:22.001Z</time></trkpt><trkpt lat="43.40308208101452" lon="10.920951423084144"><ele>369.6</ele><time>2026-04-26T16:49:23.001Z</time></trkpt><trkpt lat="43.40304649886857" lon="10.92108621856523"><ele>370.4</ele><time>2026-04-26T16:49:24.001Z</time></trkpt><trkpt lat="43.403054757510205" lon="10.921239520290587"><ele>371.20000000000005</ele><time>2026-04-26T16:49:25.001Z</time></trkpt><trkpt lat="43.40305406584139" lon="10.921387313327449"><ele>372.0</ele><time>2026-04-26T16:49:26.001Z</time></trkpt><trkpt lat="43.40307198941558" lon="10.921545500474872"><ele>372.0</ele><time>2026-04-26T16:49:27.001Z</time></trkpt><trkpt lat="43.40310830041553" lon="10.921712588644741"><ele>372.0</ele><time>2026-04-26T16:49:28.001Z</time></trkpt><trkpt lat="43.40315805940503" lon="10.921889422008274"><ele>372.0</ele><time>2026-04-26T16:49:29.001Z</time></trkpt><trkpt lat="43.40320823367752" lon="10.922074806423446"><ele>372.0</ele><time>2026-04-26T16:49:30.001Z</time></trkpt><trkpt lat="43.40325083417816" lon="10.922269730333808"><ele>373.3333333333333</ele><time>2026-04-26T16:49:31.001Z</time></trkpt><trkpt lat="43.403308120822565" lon="10.922474073525766"><ele>374.66666666666663</ele><time>2026-04-26T16:49:32.001Z</time></trkpt><trkpt lat="43.4033666297158" lon="10.922675621402655"><ele>376.0</ele><time>2026-04-26T16:49:33.001Z</time></trkpt><trkpt lat="43.4034236814981" lon="10.922855971919615"><ele>375.25</ele><time>2026-04-26T16:49:34.001Z</time></trkpt><trkpt lat="43.403470525887485" lon="10.923025258489364"><ele>374.5</ele><time>2026-04-26T16:49:35.001Z</time></trkpt><trkpt lat="43.40351003505265" lon="10.92318725392972"><ele>373.75</ele><time>2026-04-26T16:49:36.001Z</time></trkpt><trkpt lat="43.403543510006145" lon="10.923349910972963"><ele>373.0</ele><time>2026-04-26T16:49:37.001Z</time></trkpt><trkpt lat="43.403584506396655" lon="10.923500935222467"><ele>373.0</ele><time>2026-04-26T16:49:38.002Z</time></trkpt><trkpt lat="43.4036457031008" lon="10.923647069811228"><ele>373.0</ele><time>2026-04-26T16:49:39.002Z</time></trkpt><trkpt lat="43.4037271468431" lon="10.923785411135073"><ele>373.0</ele><time>2026-04-26T16:49:40.002Z</time></trkpt><trkpt lat="43.403829698751665" lon="10.923921033083964"><ele>373.0</ele><time>2026-04-26T16:49:41.002Z</time></trkpt><trkpt lat="43.40394019720601" lon="10.924051670736908"><ele>374.0</ele><time>2026-04-26T16:49:42.002Z</time></trkpt><trkpt lat="43.40405017099679" lon="10.924177660109935"><ele>375.0</ele><time>2026-04-26T16:49:43.002Z</time></trkpt><trkpt lat="43.404169917510586" lon="10.924312234475764"><ele>376.0</ele><time>2026-04-26T16:49:44.002Z</time></trkpt><trkpt lat="43.40429245266469" lon="10.924442538282124"><ele>376.0</ele><time>2026-04-26T16:49:45.002Z</time></trkpt><trkpt lat="43.40441023200794" lon="10.92456591088689"><ele>376.0</ele><time>2026-04-26T16:49:46.002Z</time></trkpt><trkpt lat="43.40452782032172" lon="10.924673524523573"><ele>376.0</ele><time>2026-04-26T16:49:47.002Z</time></trkpt><trkpt lat="43.404639643873175" lon="10.924784958126693"><ele>376.0</ele><time>2026-04-26T16:49:48.002Z</time></trkpt><trkpt lat="43.404762903853026" lon="10.924893025396075"><ele>375.66666666666663</ele><time>2026-04-26T16:49:49.002Z</time></trkpt><trkpt lat="43.40490500449526" lon="10.92501106369022"><ele>375.3333333333333</ele><time>2026-04-26T16:49:50.002Z</time></trkpt><trkpt lat="43.40503497997339" lon="10.925121214119505"><ele>375.0</ele><time>2026-04-26T16:49:51.002Z</time></trkpt><trkpt lat="43.405159156671616" lon="10.925225858004847"><ele>375.0</ele><time>2026-04-26T16:49:52.002Z</time></trkpt><trkpt lat="43.40528074895759" lon="10.925344170415151"><ele>375.0</ele><time>2026-04-26T16:49:53.002Z</time></trkpt><trkpt lat="43.40538370525204" lon="10.92550857509683"><ele>375.0</ele><time>2026-04-26T16:49:54.002Z</time></trkpt><trkpt lat="43.40550536211442" lon="10.925652838484298"><ele>375.75</ele><time>2026-04-26T16:49:55.002Z</time></trkpt><trkpt lat="43.40560384054349" lon="10.925808203815539"><ele>376.5</ele><time>2026-04-26T16:49:56.002Z</time></trkpt><trkpt lat="43.40569211744158" lon="10.925936643867674"><ele>377.25</ele><time>2026-04-26T16:49:57.002Z</time></trkpt><trkpt lat="43.40578225368289" lon="10.92605831989621"><ele>378.0</ele><time>2026-04-26T16:49:58.002Z</time></trkpt><trkpt lat="43.40586528325905" lon="10.926170842702954"><ele>378.0</ele><time>2026-04-26T16:49:59.002Z</time></trkpt><trkpt lat="43.40595203409497" lon="10.926273837644873"><ele>378.0</ele><time>2026-04-26T16:50:00.002Z</time></trkpt><trkpt lat="43.40603584311206" lon="10.9263729035613"><ele>378.0</ele><time>2026-04-26T16:50:01.002Z</time></trkpt><trkpt lat="43.40612194774782" lon="10.92647183831072"><ele>378.0</ele><time>2026-04-26T16:50:02.002Z</time></trkpt><trkpt lat="43.406206245801606" lon="10.92657550375001"><ele>378.0</ele><time>2026-04-26T16:50:03.002Z</time></trkpt><trkpt lat="43.40629142466842" lon="10.926688688239496"><ele>378.0</ele><time>2026-04-26T16:50:04.002Z</time></trkpt><trkpt lat="43.406374542011946" lon="10.926815524986726"><ele>378.0</ele><time>2026-04-26T16:50:05.002Z</time></trkpt><trkpt lat="43.40643378184136" lon="10.92695037054407"><ele>378.0</ele><time>2026-04-26T16:50:06.002Z</time></trkpt><trkpt lat="43.406482218523145" lon="10.927102227067948"><ele>377.59999999999997</ele><time>2026-04-26T16:50:07.002Z</time></trkpt><trkpt lat="43.40652246791631" lon="10.92725456041161"><ele>377.2</ele><time>2026-04-26T16:50:08.002Z</time></trkpt><trkpt lat="43.406557834684214" lon="10.927397400120286"><ele>376.8</ele><time>2026-04-26T16:50:09.002Z</time></trkpt><trkpt lat="43.40658839568235" lon="10.927528830159158"><ele>376.4</ele><time>2026-04-26T16:50:10.002Z</time></trkpt><trkpt lat="43.406624064740846" lon="10.927656048898559"><ele>376.0</ele><time>2026-04-26T16:50:11.002Z</time></trkpt><trkpt lat="43.40667804825129" lon="10.927758179137243"><ele>373.5</ele><time>2026-04-26T16:50:12.002Z</time></trkpt><trkpt lat="43.40674439442977" lon="10.92788709601299"><ele>371.0</ele><time>2026-04-26T16:50:13.002Z</time></trkpt><trkpt lat="43.40684184759571" lon="10.92798852643197"><ele>368.5</ele><time>2026-04-26T16:50:14.002Z</time></trkpt><trkpt lat="43.40693457096831" lon="10.928089999494903"><ele>366.0</ele><time>2026-04-26T16:50:15.002Z</time></trkpt><trkpt lat="43.407025847270106" lon="10.928163457994795"><ele>366.0</ele><time>2026-04-26T16:50:16.002Z</time></trkpt><trkpt lat="43.40710110922448" lon="10.928266887235793"><ele>366.0</ele><time>2026-04-26T16:50:17.002Z</time></trkpt><trkpt lat="43.407177356869276" lon="10.9283540831013"><ele>366.0</ele><time>2026-04-26T16:50:18.002Z</time></trkpt><trkpt lat="43.40724007752458" lon="10.928462535297445"><ele>366.0</ele><time>2026-04-26T16:50:19.002Z</time></trkpt><trkpt lat="43.40728622012415" lon="10.928582484872306"><ele>366.0</ele><time>2026-04-26T16:50:20.002Z</time></trkpt><trkpt lat="43.40729288902462" lon="10.928727221694066"><ele>366.75</ele><time>2026-04-26T16:50:21.002Z</time></trkpt><trkpt lat="43.4073058832434" lon="10.928871735902863"><ele>367.5</ele><time>2026-04-26T16:50:22.002Z</time></trkpt><trkpt lat="43.40732505098888" lon="10.92901958757732"><ele>368.25</ele><time>2026-04-26T16:50:23.002Z</time></trkpt><trkpt lat="43.40731407788128" lon="10.92918052122182"><ele>369.0</ele><time>2026-04-26T16:50:24.002Z</time></trkpt><trkpt lat="43.407317324612414" lon="10.929356693857663"><ele>369.5</ele><time>2026-04-26T16:50:25.002Z</time></trkpt><trkpt lat="43.40732064911953" lon="10.929537085934648"><ele>370.0</ele><time>2026-04-26T16:50:26.002Z</time></trkpt><trkpt lat="43.40732658741675" lon="10.929721450737665"><ele>370.5</ele><time>2026-04-26T16:50:27.003Z</time></trkpt><trkpt lat="43.40734857931701" lon="10.929903029200341"><ele>371.0</ele><time>2026-04-26T16:50:28.003Z</time></trkpt><trkpt lat="43.407340210983904" lon="10.93005832361729"><ele>371.0</ele><time>2026-04-26T16:50:29.003Z</time></trkpt><trkpt lat="43.407334203451285" lon="10.93020164387251"><ele>371.0</ele><time>2026-04-26T16:50:30.003Z</time></trkpt><trkpt lat="43.40732917674546" lon="10.930331726848822"><ele>371.0</ele><time>2026-04-26T16:50:31.003Z</time></trkpt><trkpt lat="43.407341445243034" lon="10.930456332920244"><ele>371.0</ele><time>2026-04-26T16:50:32.003Z</time></trkpt><trkpt lat="43.407361566533744" lon="10.93058303758545"><ele>371.0</ele><time>2026-04-26T16:50:33.003Z</time></trkpt><trkpt lat="43.407420442842714" lon="10.930683203917178"><ele>371.0</ele><time>2026-04-26T16:50:34.003Z</time></trkpt><trkpt lat="43.407486017029974" lon="10.930793986120932"><ele>371.0</ele><time>2026-04-26T16:50:35.003Z</time></trkpt><trkpt lat="43.40754928728676" lon="10.930936938085475"><ele>371.0</ele><time>2026-04-26T16:50:36.003Z</time></trkpt><trkpt lat="43.40763363416165" lon="10.931077945938682"><ele>371.0</ele><time>2026-04-26T16:50:37.001Z</time></trkpt><trkpt lat="43.40770684668722" lon="10.931227267928668"><ele>369.75</ele><time>2026-04-26T16:50:38Z</time></trkpt><trkpt lat="43.407764753472975" lon="10.931369269415391"><ele>368.5</ele><time>2026-04-26T16:50:39.001Z</time></trkpt><trkpt lat="43.40783237925596" lon="10.931493351366054"><ele>367.25</ele><time>2026-04-26T16:50:40Z</time></trkpt><trkpt lat="43.40789269937614" lon="10.931625875540458"><ele>366.0</ele><time>2026-04-26T16:50:41Z</time></trkpt><trkpt lat="43.40794371895466" lon="10.93175411654137"><ele>365.75</ele><time>2026-04-26T16:50:42Z</time></trkpt><trkpt lat="43.40798783172038" lon="10.931882091457188"><ele>365.5</ele><time>2026-04-26T16:50:43Z</time></trkpt><trkpt lat="43.40802976866735" lon="10.932029030587826"><ele>365.25</ele><time>2026-04-26T16:50:44Z</time></trkpt><trkpt lat="43.40806759781012" lon="10.932177833804955"><ele>365.0</ele><time>2026-04-26T16:50:45Z</time></trkpt><trkpt lat="43.408126816749714" lon="10.932323180714627"><ele>365.0</ele><time>2026-04-26T16:50:46Z</time></trkpt><trkpt lat="43.408191386568674" lon="10.932485876863884"><ele>365.0</ele><time>2026-04-26T16:50:47Z</time></trkpt><trkpt lat="43.40826687114675" lon="10.932656008331046"><ele>365.0</ele><time>2026-04-26T16:50:48Z</time></trkpt><trkpt lat="43.408338628196084" lon="10.93280707037621"><ele>365.0</ele><time>2026-04-26T16:50:49Z</time></trkpt><trkpt lat="43.40839859327499" lon="10.932955490238276"><ele>365.5</ele><time>2026-04-26T16:50:50Z</time></trkpt><trkpt lat="43.40843170272119" lon="10.93310537940985"><ele>366.0</ele><time>2026-04-26T16:50:51Z</time></trkpt><trkpt lat="43.40846099400442" lon="10.933251184266004"><ele>366.5</ele><time>2026-04-26T16:50:52Z</time></trkpt><trkpt lat="43.40850115815855" lon="10.933418039710615"><ele>367.0</ele><time>2026-04-26T16:50:53Z</time></trkpt><trkpt lat="43.40852668364293" lon="10.933607660950097"><ele>367.0</ele><time>2026-04-26T16:50:54Z</time></trkpt><trkpt lat="43.408548982464815" lon="10.933804831344787"><ele>367.0</ele><time>2026-04-26T16:50:55Z</time></trkpt><trkpt lat="43.408572900505284" lon="10.933979819056843"><ele>367.0</ele><time>2026-04-26T16:50:56Z</time></trkpt><trkpt lat="43.40859342807528" lon="10.934161055097222"><ele>367.0</ele><time>2026-04-26T16:50:57Z</time></trkpt><trkpt lat="43.40860983029433" lon="10.934341752662034"><ele>367.0</ele><time>2026-04-26T16:50:58Z</time></trkpt><trkpt lat="43.408621091374364" lon="10.934513633687619"><ele>367.0</ele><time>2026-04-26T16:50:59Z</time></trkpt><trkpt lat="43.40861977112046" lon="10.934656615827445"><ele>367.0</ele><time>2026-04-26T16:51:00Z</time></trkpt><trkpt lat="43.40864121966664" lon="10.934805336876254"><ele>367.0</ele><time>2026-04-26T16:51:01Z</time></trkpt><trkpt lat="43.40867844167392" lon="10.93495531202375"><ele>366.0</ele><time>2026-04-26T16:51:02.001Z</time></trkpt><trkpt lat="43.40871069084057" lon="10.935100094117182"><ele>365.0</ele><time>2026-04-26T16:51:03.001Z</time></trkpt><trkpt lat="43.40875141547004" lon="10.935236439151113"><ele>364.0</ele><time>2026-04-26T16:51:04.001Z</time></trkpt><trkpt lat="43.40880886166516" lon="10.935354038396788"><ele>363.0</ele><time>2026-04-26T16:51:05.001Z</time></trkpt><trkpt lat="43.408886786691156" lon="10.9354392910969"><ele>362.0</ele><time>2026-04-26T16:51:06.001Z</time></trkpt><trkpt lat="43.408973990752465" lon="10.935519523567894"><ele>365.0</ele><time>2026-04-26T16:51:07.001Z</time></trkpt><trkpt lat="43.40906812544112" lon="10.935637102532512"><ele>368.0</ele><time>2026-04-26T16:51:08.001Z</time></trkpt><trkpt lat="43.40919298906748" lon="10.935735466942695"><ele>371.0</ele><time>2026-04-26T16:51:09.001Z</time></trkpt><trkpt lat="43.40930319825317" lon="10.935862370389343"><ele>374.0</ele><time>2026-04-26T16:51:10.001Z</time></trkpt><trkpt lat="43.40940480436308" lon="10.935978448507493"><ele>374.2</ele><time>2026-04-26T16:51:11.001Z</time></trkpt><trkpt lat="43.40949091477284" lon="10.936063506590388"><ele>374.4</ele><time>2026-04-26T16:51:12.001Z</time></trkpt><trkpt lat="43.40957518776775" lon="10.93615466915402"><ele>374.6</ele><time>2026-04-26T16:51:13.001Z</time></trkpt><trkpt lat="43.409657319112334" lon="10.93625900484687"><ele>374.8</ele><time>2026-04-26T16:51:14.001Z</time></trkpt><trkpt lat="43.40973542295567" lon="10.936367724736606"><ele>375.0</ele><time>2026-04-26T16:51:15.001Z</time></trkpt><trkpt lat="43.40979892059022" lon="10.936462766633477"><ele>375.2</ele><time>2026-04-26T16:51:16.001Z</time></trkpt><trkpt lat="43.409828086099914" lon="10.936548840092891"><ele>375.4</ele><time>2026-04-26T16:51:17.001Z</time></trkpt><trkpt lat="43.40980686356017" lon="10.936728405834932"><ele>375.6</ele><time>2026-04-26T16:51:19.001Z</time></trkpt><trkpt lat="43.409792969237266" lon="10.936841780540627"><ele>375.8</ele><time>2026-04-26T16:51:20.001Z</time></trkpt><trkpt lat="43.409778140415284" lon="10.936974409555049"><ele>376.0</ele><time>2026-04-26T16:51:21.001Z</time></trkpt><trkpt lat="43.40977488191826" lon="10.937133644905197"><ele>377.75</ele><time>2026-04-26T16:51:22.001Z</time></trkpt><trkpt lat="43.40978050305411" lon="10.93732696047805"><ele>379.5</ele><time>2026-04-26T16:51:23.001Z</time></trkpt><trkpt lat="43.409788257837576" lon="10.937527604202678"><ele>381.25</ele><time>2026-04-26T16:51:24.001Z</time></trkpt><trkpt lat="43.409778781304055" lon="10.93767778668903"><ele>383.0</ele><time>2026-04-26T16:51:25.001Z</time></trkpt><trkpt lat="43.40980007608997" lon="10.937795592223997"><ele>383.6666666666667</ele><time>2026-04-26T16:51:26.001Z</time></trkpt><trkpt lat="43.4097994048751" lon="10.937892468593894"><ele>384.33333333333337</ele><time>2026-04-26T16:51:27.001Z</time></trkpt><trkpt lat="43.409877830340875" lon="10.937963366930914"><ele>385.0</ele><time>2026-04-26T16:51:28.001Z</time></trkpt><trkpt lat="43.40994806380014" lon="10.938005657714193"><ele>385.6666666666667</ele><time>2026-04-26T16:51:29.001Z</time></trkpt><trkpt lat="43.410033608376324" lon="10.938048802481191"><ele>386.3333333333333</ele><time>2026-04-26T16:51:30.001Z</time></trkpt><trkpt lat="43.41014445258295" lon="10.938067368049348"><ele>387.0</ele><time>2026-04-26T16:51:31.001Z</time></trkpt><trkpt lat="43.41026372814473" lon="10.938096428449827"><ele>387.0</ele><time>2026-04-26T16:51:32.001Z</time></trkpt><trkpt lat="43.41034881486812" lon="10.938162327624655"><ele>387.0</ele><time>2026-04-26T16:51:33.001Z</time></trkpt><trkpt lat="43.41040929030685" lon="10.938219793946761"><ele>387.0</ele><time>2026-04-26T16:51:34.001Z</time></trkpt><trkpt lat="43.410453498236905" lon="10.93829597227359"><ele>387.0</ele><time>2026-04-26T16:51:35.001Z</time></trkpt><trkpt lat="43.410497525056236" lon="10.938416433012128"><ele>387.0</ele><time>2026-04-26T16:51:36.001Z</time></trkpt><trkpt lat="43.41055773271775" lon="10.938564322401684"><ele>388.0</ele><time>2026-04-26T16:51:37.001Z</time></trkpt><trkpt lat="43.41059956590216" lon="10.938715449607017"><ele>389.0</ele><time>2026-04-26T16:51:38.001Z</time></trkpt><trkpt lat="43.41062757595261" lon="10.938853681719147"><ele>390.0</ele><time>2026-04-26T16:51:39.001Z</time></trkpt><trkpt lat="43.41062099556505" lon="10.938987544052752"><ele>391.0</ele><time>2026-04-26T16:51:40.001Z</time></trkpt><trkpt lat="43.41062608079461" lon="10.939129813132894"><ele>392.0</ele><time>2026-04-26T16:51:41.001Z</time></trkpt><trkpt lat="43.41059777899217" lon="10.93929268543489"><ele>393.25</ele><time>2026-04-26T16:51:42.001Z</time></trkpt><trkpt lat="43.41058350187564" lon="10.939438963455832"><ele>394.5</ele><time>2026-04-26T16:51:43.001Z</time></trkpt><trkpt lat="43.410595106599196" lon="10.939593854321377"><ele>395.75</ele><time>2026-04-26T16:51:44.001Z</time></trkpt><trkpt lat="43.41060894005779" lon="10.939771999151008"><ele>397.0</ele><time>2026-04-26T16:51:45.001Z</time></trkpt><trkpt lat="43.41062154825814" lon="10.939964810704115"><ele>398.00000000000006</ele><time>2026-04-26T16:51:46.001Z</time></trkpt><trkpt lat="43.410635938519256" lon="10.940134882372085"><ele>399.0</ele><time>2026-04-26T16:51:47.001Z</time></trkpt><trkpt lat="43.410656073421144" lon="10.940262921060816"><ele>400.0</ele><time>2026-04-26T16:51:48.001Z</time></trkpt><trkpt lat="43.41066990106365" lon="10.940371190117476"><ele>401.0</ele><time>2026-04-26T16:51:49.001Z</time></trkpt><trkpt lat="43.410667801368014" lon="10.940471632223037"><ele>402.00000000000006</ele><time>2026-04-26T16:51:50.001Z</time></trkpt><trkpt lat="43.41062650667414" lon="10.940545126252715"><ele>403.0</ele><time>2026-04-26T16:51:51.001Z</time></trkpt><trkpt lat="43.410519039336336" lon="10.940591601858054"><ele>403.00000000000006</ele><time>2026-04-26T16:51:53.001Z</time></trkpt><trkpt lat="43.41045381664668" lon="10.940626262067848"><ele>403.0</ele><time>2026-04-26T16:51:54.001Z</time></trkpt><trkpt lat="43.41038014192198" lon="10.94062879339936"><ele>403.0</ele><time>2026-04-26T16:51:55.001Z</time></trkpt><trkpt lat="43.410317048380946" lon="10.940672954224395"><ele>403.0</ele><time>2026-04-26T16:51:56.001Z</time></trkpt><trkpt lat="43.41026457795348" lon="10.940747575471292"><ele>403.00000000000006</ele><time>2026-04-26T16:51:57.001Z</time></trkpt><trkpt lat="43.410209102044554" lon="10.940817187102017"><ele>403.0</ele><time>2026-04-26T16:51:58.002Z</time></trkpt><trkpt lat="43.4102119303965" lon="10.940944191939824"><ele>403.5</ele><time>2026-04-26T16:51:59.002Z</time></trkpt><trkpt lat="43.41025954188199" lon="10.941054920112217"><ele>404.0</ele><time>2026-04-26T16:52:00.002Z</time></trkpt><trkpt lat="43.41029992161137" lon="10.941184221711497"><ele>404.5</ele><time>2026-04-26T16:52:01.002Z</time></trkpt><trkpt lat="43.410347232205226" lon="10.941343496978835"><ele>405.0</ele><time>2026-04-26T16:52:02.002Z</time></trkpt><trkpt lat="43.41039685423753" lon="10.941554875786528"><ele>405.0</ele><time>2026-04-26T16:52:03.002Z</time></trkpt><trkpt lat="43.4104604165906" lon="10.94177887852076"><ele>405.0</ele><time>2026-04-26T16:52:04.002Z</time></trkpt><trkpt lat="43.410522057239305" lon="10.94198171022254"><ele>405.0</ele><time>2026-04-26T16:52:05.002Z</time></trkpt><trkpt lat="43.41059106769903" lon="10.942172614932836"><ele>408.25</ele><time>2026-04-26T16:52:06.002Z</time></trkpt><trkpt lat="43.41063661802003" lon="10.94234481028117"><ele>411.5</ele><time>2026-04-26T16:52:07.002Z</time></trkpt><trkpt lat="43.41066413482797" lon="10.942503162564122"><ele>414.75</ele><time>2026-04-26T16:52:08.002Z</time></trkpt><trkpt lat="43.41068899720768" lon="10.942669403091546"><ele>418.0</ele><time>2026-04-26T16:52:09.002Z</time></trkpt><trkpt lat="43.410712821492375" lon="10.94285903710012"><ele>419.25</ele><time>2026-04-26T16:52:10.002Z</time></trkpt><trkpt lat="43.41073247842929" lon="10.943031465223148"><ele>420.5</ele><time>2026-04-26T16:52:11.002Z</time></trkpt><trkpt lat="43.41074885586807" lon="10.94319385406502"><ele>421.75</ele><time>2026-04-26T16:52:12.002Z</time></trkpt><trkpt lat="43.410763227180766" lon="10.943339793299476"><ele>423.0</ele><time>2026-04-26T16:52:13.002Z</time></trkpt><trkpt lat="43.41077786304343" lon="10.943491578989645"><ele>423.0</ele><time>2026-04-26T16:52:14.002Z</time></trkpt><trkpt lat="43.41079283523093" lon="10.943646852662495"><ele>423.0</ele><time>2026-04-26T16:52:15.002Z</time></trkpt><trkpt lat="43.41080798503028" lon="10.943803827429846"><ele>423.0</ele><time>2026-04-26T16:52:16.002Z</time></trkpt><trkpt lat="43.41083739503615" lon="10.943981888599472"><ele>423.0</ele><time>2026-04-26T16:52:17.002Z</time></trkpt><trkpt lat="43.4108528808671" lon="10.944155523193574"><ele>423.75</ele><time>2026-04-26T16:52:18.002Z</time></trkpt><trkpt lat="43.41086903415788" lon="10.944353645329489"><ele>424.5</ele><time>2026-04-26T16:52:19.002Z</time></trkpt><trkpt lat="43.41089179944068" lon="10.944534038377514"><ele>425.25</ele><time>2026-04-26T16:52:20.002Z</time></trkpt><trkpt lat="43.41089964805283" lon="10.944711067113285"><ele>426.0</ele><time>2026-04-26T16:52:21.002Z</time></trkpt><trkpt lat="43.41091757522067" lon="10.944876642478567"><ele>426.0</ele><time>2026-04-26T16:52:22.002Z</time></trkpt><trkpt lat="43.410918700041364" lon="10.945035576663923"><ele>426.0</ele><time>2026-04-26T16:52:23.002Z</time></trkpt><trkpt lat="43.41092955154245" lon="10.94515836588285"><ele>426.0</ele><time>2026-04-26T16:52:24.002Z</time></trkpt><trkpt lat="43.41094386752787" lon="10.945312824121595"><ele>426.0</ele><time>2026-04-26T16:52:25.002Z</time></trkpt><trkpt lat="43.41095637101315" lon="10.945436747593595"><ele>426.0</ele><time>2026-04-26T16:52:26.002Z</time></trkpt><trkpt lat="43.410970940887815" lon="10.945581151206103"><ele>426.0</ele><time>2026-04-26T16:52:27.002Z</time></trkpt><trkpt lat="43.41098414143643" lon="10.945721499851238"><ele>426.0</ele><time>2026-04-26T16:52:28.002Z</time></trkpt><trkpt lat="43.410995200435934" lon="10.9458672849123"><ele>426.0</ele><time>2026-04-26T16:52:29.002Z</time></trkpt><trkpt lat="43.41100214645254" lon="10.946020871775996"><ele>426.0</ele><time>2026-04-26T16:52:30.002Z</time></trkpt><trkpt lat="43.41101097038347" lon="10.946197954838958"><ele>426.0</ele><time>2026-04-26T16:52:31.002Z</time></trkpt><trkpt lat="43.41097529886865" lon="10.946349870551243"><ele>426.0</ele><time>2026-04-26T16:52:32.002Z</time></trkpt><trkpt lat="43.41097464209674" lon="10.9465319603026"><ele>426.0</ele><time>2026-04-26T16:52:33.002Z</time></trkpt><trkpt lat="43.41096694667187" lon="10.946676763795974"><ele>426.0</ele><time>2026-04-26T16:52:34.002Z</time></trkpt><trkpt lat="43.41096535618004" lon="10.946804945913561"><ele>426.0</ele><time>2026-04-26T16:52:35.002Z</time></trkpt><trkpt lat="43.41094396660831" lon="10.94692418062187"><ele>425.0</ele><time>2026-04-26T16:52:36.002Z</time></trkpt><trkpt lat="43.410947401171406" lon="10.947070467482062"><ele>424.0</ele><time>2026-04-26T16:52:37.002Z</time></trkpt><trkpt lat="43.41092269378748" lon="10.94726478975422"><ele>423.0</ele><time>2026-04-26T16:52:38.002Z</time></trkpt><trkpt lat="43.41089770210079" lon="10.947430199500948"><ele>422.0</ele><time>2026-04-26T16:52:39.002Z</time></trkpt><trkpt lat="43.4108790866432" lon="10.94758881980264"><ele>421.20000000000005</ele><time>2026-04-26T16:52:40.002Z</time></trkpt><trkpt lat="43.41085754335018" lon="10.947732194181045"><ele>420.4</ele><time>2026-04-26T16:52:41.002Z</time></trkpt><trkpt lat="43.410840356717856" lon="10.947867135248579"><ele>419.6</ele><time>2026-04-26T16:52:42.002Z</time></trkpt><trkpt lat="43.41084557590264" lon="10.94800478513557"><ele>418.79999999999995</ele><time>2026-04-26T16:52:43Z</time></trkpt><trkpt lat="43.41084720537684" lon="10.94816606612983"><ele>418.0</ele><time>2026-04-26T16:52:44Z</time></trkpt><trkpt lat="43.41085862631855" lon="10.948329755569503"><ele>418.4</ele><time>2026-04-26T16:52:45Z</time></trkpt><trkpt lat="43.41088089233118" lon="10.94849454979051"><ele>418.79999999999995</ele><time>2026-04-26T16:52:46Z</time></trkpt><trkpt lat="43.41092445741914" lon="10.94862957607535"><ele>419.2</ele><time>2026-04-26T16:52:47Z</time></trkpt><trkpt lat="43.41095163234983" lon="10.948752450031003"><ele>419.6</ele><time>2026-04-26T16:52:48Z</time></trkpt><trkpt lat="43.41099732660129" lon="10.948854409929687"><ele>420.0</ele><time>2026-04-26T16:52:49Z</time></trkpt><trkpt lat="43.41105777933062" lon="10.948931080958523"><ele>420.0</ele><time>2026-04-26T16:52:50Z</time></trkpt><trkpt lat="43.411123777163496" lon="10.949015328200167"><ele>420.0</ele><time>2026-04-26T16:52:51Z</time></trkpt><trkpt lat="43.411210287018505" lon="10.949115194973409"><ele>420.0</ele><time>2026-04-26T16:52:52Z</time></trkpt><trkpt lat="43.41128258656317" lon="10.949235139665573"><ele>420.0</ele><time>2026-04-26T16:52:53Z</time></trkpt><trkpt lat="43.411346491879115" lon="10.949343530449704"><ele>420.0</ele><time>2026-04-26T16:52:54Z</time></trkpt><trkpt lat="43.41141224901065" lon="10.94947150509049"><ele>420.0</ele><time>2026-04-26T16:52:55Z</time></trkpt><trkpt lat="43.4114615122434" lon="10.94960847799966"><ele>420.0</ele><time>2026-04-26T16:52:56Z</time></trkpt><trkpt lat="43.41149893738458" lon="10.949746719267836"><ele>420.0</ele><time>2026-04-26T16:52:57Z</time></trkpt><trkpt lat="43.41153361958806" lon="10.949909308732945"><ele>420.0</ele><time>2026-04-26T16:52:58Z</time></trkpt><trkpt lat="43.411566045945115" lon="10.950087953782146"><ele>420.0</ele><time>2026-04-26T16:52:59Z</time></trkpt><trkpt lat="43.41159648070777" lon="10.950273908475365"><ele>420.0</ele><time>2026-04-26T16:53:00Z</time></trkpt><trkpt lat="43.41162240735766" lon="10.950439061433993"><ele>420.0</ele><time>2026-04-26T16:53:01Z</time></trkpt><trkpt lat="43.411641700659224" lon="10.950593990013138"><ele>420.0</ele><time>2026-04-26T16:53:02Z</time></trkpt><trkpt lat="43.41165642247926" lon="10.950750786284251"><ele>419.0</ele><time>2026-04-26T16:53:03Z</time></trkpt><trkpt lat="43.411669014442516" lon="10.95090837074249"><ele>418.0</ele><time>2026-04-26T16:53:04Z</time></trkpt><trkpt lat="43.41169584850449" lon="10.951062868751189"><ele>417.0</ele><time>2026-04-26T16:53:05Z</time></trkpt><trkpt lat="43.41170093963969" lon="10.951228414704081"><ele>416.0</ele><time>2026-04-26T16:53:06Z</time></trkpt><trkpt lat="43.411717631173474" lon="10.951416119182898"><ele>416.0</ele><time>2026-04-26T16:53:07Z</time></trkpt><trkpt lat="43.41172789446621" lon="10.951598437716086"><ele>416.0</ele><time>2026-04-26T16:53:08Z</time></trkpt><trkpt lat="43.41174492272313" lon="10.951767032080904"><ele>416.0</ele><time>2026-04-26T16:53:09Z</time></trkpt><trkpt lat="43.411750607013346" lon="10.951932653964159"><ele>416.0</ele><time>2026-04-26T16:53:10.001Z</time></trkpt><trkpt lat="43.4117509398691" lon="10.952100392880826"><ele>415.0</ele><time>2026-04-26T16:53:11.001Z</time></trkpt><trkpt lat="43.4117610231301" lon="10.952270178068817"><ele>414.0</ele><time>2026-04-26T16:53:12.001Z</time></trkpt><trkpt lat="43.41178653180546" lon="10.952455018942"><ele>413.0</ele><time>2026-04-26T16:53:13.001Z</time></trkpt><trkpt lat="43.41178256833995" lon="10.952644364978498"><ele>412.0</ele><time>2026-04-26T16:53:14.001Z</time></trkpt><trkpt lat="43.41180250093152" lon="10.95283188268888"><ele>410.5</ele><time>2026-04-26T16:53:15.001Z</time></trkpt><trkpt lat="43.411813423887466" lon="10.953018521535846"><ele>409.0</ele><time>2026-04-26T16:53:16.001Z</time></trkpt><trkpt lat="43.41182664531644" lon="10.953191557203787"><ele>407.5</ele><time>2026-04-26T16:53:17.001Z</time></trkpt><trkpt lat="43.41184048125381" lon="10.953362564955507"><ele>406.0</ele><time>2026-04-26T16:53:18.001Z</time></trkpt><trkpt lat="43.41183380834049" lon="10.953522329941762"><ele>404.8</ele><time>2026-04-26T16:53:19.001Z</time></trkpt><trkpt lat="43.41184325299804" lon="10.953669689719039"><ele>403.6</ele><time>2026-04-26T16:53:20.001Z</time></trkpt><trkpt lat="43.41185337219189" lon="10.953812335858409"><ele>402.4</ele><time>2026-04-26T16:53:21.001Z</time></trkpt><trkpt lat="43.41186381166471" lon="10.953955237253531"><ele>401.2</ele><time>2026-04-26T16:53:22.001Z</time></trkpt><trkpt lat="43.411874887972274" lon="10.95409303596337"><ele>400.0</ele><time>2026-04-26T16:53:23.001Z</time></trkpt><trkpt lat="43.41189475111641" lon="10.954224140534661"><ele>399.6666666666667</ele><time>2026-04-26T16:53:24.001Z</time></trkpt><trkpt lat="43.411898404149625" lon="10.95434392188259"><ele>399.33333333333337</ele><time>2026-04-26T16:53:25.001Z</time></trkpt><trkpt lat="43.411905368314876" lon="10.954451759678376"><ele>399.0</ele><time>2026-04-26T16:53:26.001Z</time></trkpt><trkpt lat="43.41192597313596" lon="10.954551700430468"><ele>398.66666666666663</ele><time>2026-04-26T16:53:27.001Z</time></trkpt><trkpt lat="43.41196142927679" lon="10.954661654877778"><ele>398.3333333333333</ele><time>2026-04-26T16:53:28.001Z</time></trkpt><trkpt lat="43.412016085906274" lon="10.954781768244791"><ele>398.0</ele><time>2026-04-26T16:53:29.001Z</time></trkpt><trkpt lat="43.41206674086617" lon="10.95488777490609"><ele>397.99999999999994</ele><time>2026-04-26T16:53:30.001Z</time></trkpt><trkpt lat="43.41210245117799" lon="10.955004240726849"><ele>398.0</ele><time>2026-04-26T16:53:31.001Z</time></trkpt><trkpt lat="43.412091853543544" lon="10.955138826093485"><ele>398.0</ele><time>2026-04-26T16:53:32.001Z</time></trkpt><trkpt lat="43.41209279309208" lon="10.955258643364276"><ele>398.0</ele><time>2026-04-26T16:53:33.001Z</time></trkpt><trkpt lat="43.41209849031233" lon="10.955379336146127"><ele>397.99999999999994</ele><time>2026-04-26T16:53:34.001Z</time></trkpt><trkpt lat="43.41207485258476" lon="10.95548157224773"><ele>398.0</ele><time>2026-04-26T16:53:35.001Z</time></trkpt><trkpt lat="43.41208489669413" lon="10.955609807979267"><ele>396.2</ele><time>2026-04-26T16:53:37.001Z</time></trkpt><trkpt lat="43.41211385494247" lon="10.955757854850118"><ele>394.4</ele><time>2026-04-26T16:53:39.001Z</time></trkpt><trkpt lat="43.412133808112145" lon="10.95586825453702"><ele>392.59999999999997</ele><time>2026-04-26T16:53:40.001Z</time></trkpt><trkpt lat="43.412159537201866" lon="10.956001562459871"><ele>390.79999999999995</ele><time>2026-04-26T16:53:41.001Z</time></trkpt><trkpt lat="43.412188958739186" lon="10.956135653813263"><ele>389.0</ele><time>2026-04-26T16:53:42.001Z</time></trkpt><trkpt lat="43.4122139041482" lon="10.956238592907674"><ele>388.99999999999994</ele><time>2026-04-26T16:53:43.001Z</time></trkpt><trkpt lat="43.41223613367432" lon="10.956330326690145"><ele>389.0</ele><time>2026-04-26T16:53:44.001Z</time></trkpt><trkpt lat="43.41226045598619" lon="10.956430696651573"><ele>389.0</ele><time>2026-04-26T16:53:45.001Z</time></trkpt><trkpt lat="43.41228539895241" lon="10.95653362522025"><ele>389.0</ele><time>2026-04-26T16:53:46.001Z</time></trkpt><trkpt lat="43.41231007594487" lon="10.956625120383432"><ele>388.99999999999994</ele><time>2026-04-26T16:53:47.001Z</time></trkpt><trkpt lat="43.41233734215539" lon="10.956722158499836"><ele>389.0</ele><time>2026-04-26T16:53:48.001Z</time></trkpt><trkpt lat="43.41238283944801" lon="10.956844969698274"><ele>390.25</ele><time>2026-04-26T16:53:49.001Z</time></trkpt><trkpt lat="43.41241827761338" lon="10.956997820053175"><ele>391.5</ele><time>2026-04-26T16:53:50.001Z</time></trkpt><trkpt lat="43.412471147115184" lon="10.957169581507417"><ele>392.75</ele><time>2026-04-26T16:53:51.001Z</time></trkpt><trkpt lat="43.412524154022634" lon="10.957351792310028"><ele>394.0</ele><time>2026-04-26T16:53:52.001Z</time></trkpt><trkpt lat="43.412580486741525" lon="10.957551299093323"><ele>397.33333333333337</ele><time>2026-04-26T16:53:53.001Z</time></trkpt><trkpt lat="43.41264192122518" lon="10.95777565699648"><ele>400.66666666666663</ele><time>2026-04-26T16:53:54.001Z</time></trkpt><trkpt lat="43.41270574033952" lon="10.958009927162335"><ele>404.0</ele><time>2026-04-26T16:53:55.001Z</time></trkpt><trkpt lat="43.412755845557264" lon="10.958263490943859"><ele>406.0</ele><time>2026-04-26T16:53:56.001Z</time></trkpt><trkpt lat="43.41280632578915" lon="10.958474209079975"><ele>408.0</ele><time>2026-04-26T16:53:57.001Z</time></trkpt><trkpt lat="43.41284874403127" lon="10.958655542846726"><ele>410.0</ele><time>2026-04-26T16:53:58.001Z</time></trkpt><trkpt lat="43.41289073184904" lon="10.958835036549656"><ele>412.0</ele><time>2026-04-26T16:53:59.001Z</time></trkpt><trkpt lat="43.41291851298984" lon="10.958978256025459"><ele>412.0</ele><time>2026-04-26T16:54:00.001Z</time></trkpt><trkpt lat="43.41293386683879" lon="10.959083110191616"><ele>412.0</ele><time>2026-04-26T16:54:01.001Z</time></trkpt><trkpt lat="43.41293214954728" lon="10.959180392887788"><ele>412.0</ele><time>2026-04-26T16:54:02.001Z</time></trkpt><trkpt lat="43.41292965821876" lon="10.95930128516505"><ele>412.0</ele><time>2026-04-26T16:54:03.001Z</time></trkpt><trkpt lat="43.41289100981032" lon="10.959455008421422"><ele>412.0</ele><time>2026-04-26T16:54:04.001Z</time></trkpt><trkpt lat="43.412843346694444" lon="10.959630854198746"><ele>414.5</ele><time>2026-04-26T16:54:05.001Z</time></trkpt><trkpt lat="43.412800846081545" lon="10.959825354039852"><ele>417.0</ele><time>2026-04-26T16:54:06.002Z</time></trkpt><trkpt lat="43.41276445858416" lon="10.960006990365267"><ele>419.5</ele><time>2026-04-26T16:54:07.002Z</time></trkpt><trkpt lat="43.41274393117772" lon="10.96018236448464"><ele>422.0</ele><time>2026-04-26T16:54:08.002Z</time></trkpt><trkpt lat="43.41273244062732" lon="10.960341742845047"><ele>424.5</ele><time>2026-04-26T16:54:09.002Z</time></trkpt><trkpt lat="43.41272342546822" lon="10.960494311981288"><ele>427.0</ele><time>2026-04-26T16:54:10.002Z</time></trkpt><trkpt lat="43.41272086642909" lon="10.960648247168901"><ele>429.5</ele><time>2026-04-26T16:54:11.002Z</time></trkpt><trkpt lat="43.412760678504526" lon="10.960803388215506"><ele>432.0</ele><time>2026-04-26T16:54:12.002Z</time></trkpt><trkpt lat="43.41279080655751" lon="10.960975838510862"><ele>434.6</ele><time>2026-04-26T16:54:13.002Z</time></trkpt><trkpt lat="43.41280939245504" lon="10.961139701144399"><ele>437.20000000000005</ele><time>2026-04-26T16:54:14.002Z</time></trkpt><trkpt lat="43.412814827210354" lon="10.96127842327678"><ele>439.8</ele><time>2026-04-26T16:54:15.002Z</time></trkpt><trkpt lat="43.41280456592527" lon="10.961415090236901"><ele>442.4</ele><time>2026-04-26T16:54:16.002Z</time></trkpt><trkpt lat="43.412773999716855" lon="10.961556301634404"><ele>445.0</ele><time>2026-04-26T16:54:17.002Z</time></trkpt><trkpt lat="43.412728044078484" lon="10.96172383904908"><ele>446.0</ele><time>2026-04-26T16:54:18.002Z</time></trkpt><trkpt lat="43.412694799737146" lon="10.961892881060066"><ele>447.0</ele><time>2026-04-26T16:54:19.002Z</time></trkpt><trkpt lat="43.41265445620245" lon="10.962039220924899"><ele>448.0</ele><time>2026-04-26T16:54:20.002Z</time></trkpt><trkpt lat="43.4126313878214" lon="10.962164607465164"><ele>449.0</ele><time>2026-04-26T16:54:21.002Z</time></trkpt><trkpt lat="43.412623963014504" lon="10.962268031776857"><ele>450.0</ele><time>2026-04-26T16:54:22.002Z</time></trkpt><trkpt lat="43.41266648576709" lon="10.962445557988882"><ele>450.0</ele><time>2026-04-26T16:54:24.002Z</time></trkpt><trkpt lat="43.41271829115423" lon="10.962507379334191"><ele>450.0</ele><time>2026-04-26T16:54:25.002Z</time></trkpt><trkpt lat="43.41278341132529" lon="10.962584496987843"><ele>450.0</ele><time>2026-04-26T16:54:26.002Z</time></trkpt><trkpt lat="43.41286531832655" lon="10.962679306147761"><ele>450.0</ele><time>2026-04-26T16:54:27.002Z</time></trkpt><trkpt lat="43.41296261761201" lon="10.962811520857878"><ele>450.0</ele><time>2026-04-26T16:54:28.002Z</time></trkpt><trkpt lat="43.41307626314179" lon="10.962946294781158"><ele>453.6</ele><time>2026-04-26T16:54:29.002Z</time></trkpt><trkpt lat="43.41316691008047" lon="10.963059946461877"><ele>457.2</ele><time>2026-04-26T16:54:30.002Z</time></trkpt><trkpt lat="43.41325295779952" lon="10.96313334539461"><ele>460.79999999999995</ele><time>2026-04-26T16:54:31.002Z</time></trkpt><trkpt lat="43.41333117052795" lon="10.963172794649092"><ele>464.4</ele><time>2026-04-26T16:54:32.002Z</time></trkpt><trkpt lat="43.413414931614525" lon="10.963177177618368"><ele>468.0</ele><time>2026-04-26T16:54:33.002Z</time></trkpt><trkpt lat="43.413494810188745" lon="10.96315618516292"><ele>468.0</ele><time>2026-04-26T16:54:34.002Z</time></trkpt><trkpt lat="43.41357671881926" lon="10.963105139386226"><ele>467.99999999999994</ele><time>2026-04-26T16:54:35.002Z</time></trkpt><trkpt lat="43.41365705561134" lon="10.963038696587715"><ele>467.99999999999994</ele><time>2026-04-26T16:54:36.002Z</time></trkpt><trkpt lat="43.413764421111466" lon="10.962969411112375"><ele>468.0</ele><time>2026-04-26T16:54:37.002Z</time></trkpt><trkpt lat="43.41384555118015" lon="10.96288954325398"><ele>468.0</ele><time>2026-04-26T16:54:38.002Z</time></trkpt><trkpt lat="43.413920164513726" lon="10.962863188014714"><ele>470.2</ele><time>2026-04-26T16:54:40.002Z</time></trkpt><trkpt lat="43.41397821168072" lon="10.962994666926162"><ele>472.4</ele><time>2026-04-26T16:54:42.002Z</time></trkpt><trkpt lat="43.41400403479857" lon="10.963104606673886"><ele>474.59999999999997</ele><time>2026-04-26T16:54:43.002Z</time></trkpt><trkpt lat="43.41405289553649" lon="10.963224882322596"><ele>476.79999999999995</ele><time>2026-04-26T16:54:44.002Z</time></trkpt><trkpt lat="43.4141039886987" lon="10.963343387286107"><ele>479.0</ele><time>2026-04-26T16:54:45.002Z</time></trkpt><trkpt lat="43.41416250032006" lon="10.963409581730565"><ele>479.0</ele><time>2026-04-26T16:54:46.002Z</time></trkpt><trkpt lat="43.41423231340867" lon="10.963441518124771"><ele>479.0</ele><time>2026-04-26T16:54:47.002Z</time></trkpt><trkpt lat="43.41431899737439" lon="10.96350141647677"><ele>479.0</ele><time>2026-04-26T16:54:48.002Z</time></trkpt><trkpt lat="43.41441874631024" lon="10.963526960380978"><ele>479.0</ele><time>2026-04-26T16:54:49Z</time></trkpt><trkpt lat="43.41452985110274" lon="10.963548854581207"><ele>479.0</ele><time>2026-04-26T16:54:50Z</time></trkpt><trkpt lat="43.414630611630706" lon="10.96355504301819"><ele>481.16666666666663</ele><time>2026-04-26T16:54:51Z</time></trkpt><trkpt lat="43.41472061744505" lon="10.963590802555212"><ele>483.3333333333333</ele><time>2026-04-26T16:54:52Z</time></trkpt><trkpt lat="43.41480492753321" lon="10.963619143240019"><ele>485.5</ele><time>2026-04-26T16:54:53Z</time></trkpt><trkpt lat="43.414873775775646" lon="10.963675374853054"><ele>487.66666666666663</ele><time>2026-04-26T16:54:54Z</time></trkpt><trkpt lat="43.41492954767809" lon="10.96373685560392"><ele>489.8333333333333</ele><time>2026-04-26T16:54:55Z</time></trkpt><trkpt lat="43.41498368813734" lon="10.963794424301383"><ele>492.0</ele><time>2026-04-26T16:54:56Z</time></trkpt><trkpt lat="43.41503895417171" lon="10.963849490825389"><ele>492.0</ele><time>2026-04-26T16:54:57Z</time></trkpt><trkpt lat="43.41509940554746" lon="10.963908635688197"><ele>492.0</ele><time>2026-04-26T16:54:58Z</time></trkpt><trkpt lat="43.41519953169304" lon="10.963927981436917"><ele>492.0</ele><time>2026-04-26T16:54:59Z</time></trkpt><trkpt lat="43.41528755635331" lon="10.96397059767877"><ele>492.0</ele><time>2026-04-26T16:55:00Z</time></trkpt><trkpt lat="43.4153629343533" lon="10.964034102427886"><ele>492.0</ele><time>2026-04-26T16:55:01Z</time></trkpt><trkpt lat="43.415427485449264" lon="10.964112416729664"><ele>492.0</ele><time>2026-04-26T16:55:02Z</time></trkpt><trkpt lat="43.41549341746994" lon="10.964217724725366"><ele>493.0</ele><time>2026-04-26T16:55:03Z</time></trkpt><trkpt lat="43.41556443517963" lon="10.964335691136359"><ele>494.00000000000006</ele><time>2026-04-26T16:55:04Z</time></trkpt><trkpt lat="43.41560561791163" lon="10.964450703845769"><ele>495.00000000000006</ele><time>2026-04-26T16:55:05Z</time></trkpt><trkpt lat="43.415658379568754" lon="10.96452435302095"><ele>496.0</ele><time>2026-04-26T16:55:06Z</time></trkpt><trkpt lat="43.415677281760175" lon="10.96464445080333"><ele>497.0</ele><time>2026-04-26T16:55:08Z</time></trkpt><trkpt lat="43.41565772339031" lon="10.96479272144875"><ele>497.0</ele><time>2026-04-26T16:55:10Z</time></trkpt><trkpt lat="43.41563317167771" lon="10.964915797931349"><ele>497.00000000000006</ele><time>2026-04-26T16:55:11Z</time></trkpt><trkpt lat="43.41560805948161" lon="10.965034645367387"><ele>497.00000000000006</ele><time>2026-04-26T16:55:12Z</time></trkpt><trkpt lat="43.41559073612117" lon="10.965147667439203"><ele>497.0</ele><time>2026-04-26T16:55:13Z</time></trkpt><trkpt lat="43.41558973847003" lon="10.96527876674362"><ele>497.0</ele><time>2026-04-26T16:55:14Z</time></trkpt><trkpt lat="43.41557268091745" lon="10.965424591851859"><ele>496.25</ele><time>2026-04-26T16:55:15Z</time></trkpt><trkpt lat="43.41556994126105" lon="10.965576717658179"><ele>495.5</ele><time>2026-04-26T16:55:16.001Z</time></trkpt><trkpt lat="43.41560143968423" lon="10.965727443303358"><ele>494.75</ele><time>2026-04-26T16:55:17.001Z</time></trkpt><trkpt lat="43.4156329528181" lon="10.965872987372215"><ele>494.0</ele><time>2026-04-26T16:55:18.001Z</time></trkpt><trkpt lat="43.4156641543278" lon="10.966026637566307"><ele>493.4</ele><time>2026-04-26T16:55:19.001Z</time></trkpt><trkpt lat="43.41567894609337" lon="10.966165948418682"><ele>492.79999999999995</ele><time>2026-04-26T16:55:20.001Z</time></trkpt><trkpt lat="43.41570837512428" lon="10.966292246400744"><ele>492.20000000000005</ele><time>2026-04-26T16:55:21.001Z</time></trkpt><trkpt lat="43.41570396075009" lon="10.966427562068771"><ele>491.6</ele><time>2026-04-26T16:55:22.001Z</time></trkpt><trkpt lat="43.415701302649765" lon="10.966569050764521"><ele>491.0</ele><time>2026-04-26T16:55:23.001Z</time></trkpt><trkpt lat="43.41566656432978" lon="10.966699169044"><ele>489.6</ele><time>2026-04-26T16:55:24.001Z</time></trkpt><trkpt lat="43.41564568617974" lon="10.966843626463772"><ele>488.20000000000005</ele><time>2026-04-26T16:55:25.001Z</time></trkpt><trkpt lat="43.41562514491279" lon="10.966985752987464"><ele>486.79999999999995</ele><time>2026-04-26T16:55:26.001Z</time></trkpt><trkpt lat="43.415604877691145" lon="10.96713384177626"><ele>485.4</ele><time>2026-04-26T16:55:27.001Z</time></trkpt><trkpt lat="43.41558520981419" lon="10.96729008540149"><ele>484.0</ele><time>2026-04-26T16:55:28.001Z</time></trkpt><trkpt lat="43.41558002384501" lon="10.967448965411467"><ele>482.0</ele><time>2026-04-26T16:55:29.001Z</time></trkpt><trkpt lat="43.41555658056283" lon="10.967629581109364"><ele>480.0</ele><time>2026-04-26T16:55:30.001Z</time></trkpt><trkpt lat="43.41552982352493" lon="10.967809573093282"><ele>478.0</ele><time>2026-04-26T16:55:31.001Z</time></trkpt><trkpt lat="43.415516254580105" lon="10.967977561182021"><ele>476.0</ele><time>2026-04-26T16:55:32.001Z</time></trkpt><trkpt lat="43.41551178473419" lon="10.96814394817797"><ele>476.0</ele><time>2026-04-26T16:55:33.001Z</time></trkpt><trkpt lat="43.41550356678656" lon="10.968323635863376"><ele>476.0</ele><time>2026-04-26T16:55:34.001Z</time></trkpt><trkpt lat="43.415487732149124" lon="10.968487159384969"><ele>476.0</ele><time>2026-04-26T16:55:35.001Z</time></trkpt><trkpt lat="43.41548116670202" lon="10.96864967262976"><ele>476.0</ele><time>2026-04-26T16:55:36.001Z</time></trkpt><trkpt lat="43.4154880870927" lon="10.968803484956021"><ele>475.8</ele><time>2026-04-26T16:55:37.001Z</time></trkpt><trkpt lat="43.41547731266848" lon="10.968949947355421"><ele>475.6</ele><time>2026-04-26T16:55:38.001Z</time></trkpt><trkpt lat="43.41547939225641" lon="10.969087914843815"><ele>475.4</ele><time>2026-04-26T16:55:39.001Z</time></trkpt><trkpt lat="43.415487588821414" lon="10.96922405563359"><ele>475.2</ele><time>2026-04-26T16:55:40.001Z</time></trkpt><trkpt lat="43.41551864723843" lon="10.969344553951474"><ele>475.0</ele><time>2026-04-26T16:55:41.001Z</time></trkpt><trkpt lat="43.415578286831646" lon="10.969476147715548"><ele>476.25</ele><time>2026-04-26T16:55:42.001Z</time></trkpt><trkpt lat="43.415634826958275" lon="10.969629885927374"><ele>477.5</ele><time>2026-04-26T16:55:43.001Z</time></trkpt><trkpt lat="43.415720528714104" lon="10.969793581395326"><ele>478.75</ele><time>2026-04-26T16:55:44.001Z</time></trkpt><trkpt lat="43.41581474289653" lon="10.969963918982959"><ele>480.0</ele><time>2026-04-26T16:55:45.001Z</time></trkpt><trkpt lat="43.41591673390351" lon="10.970147280200187"><ele>480.66666666666663</ele><time>2026-04-26T16:55:46.001Z</time></trkpt><trkpt lat="43.416023430690245" lon="10.970339101588443"><ele>481.3333333333333</ele><time>2026-04-26T16:55:47.001Z</time></trkpt><trkpt lat="43.41612998320367" lon="10.970507035326689"><ele>482.0</ele><time>2026-04-26T16:55:48.001Z</time></trkpt><trkpt lat="43.416208072880806" lon="10.970663396470986"><ele>482.0</ele><time>2026-04-26T16:55:49.001Z</time></trkpt><trkpt lat="43.41629477192193" lon="10.97081267714668"><ele>482.0</ele><time>2026-04-26T16:55:50.001Z</time></trkpt><trkpt lat="43.41637612911846" lon="10.97097086618907"><ele>482.0</ele><time>2026-04-26T16:55:51.001Z</time></trkpt><trkpt lat="43.41645290698567" lon="10.971120874234643"><ele>482.0</ele><time>2026-04-26T16:55:52.001Z</time></trkpt><trkpt lat="43.416528084714855" lon="10.971280582103324"><ele>481.0</ele><time>2026-04-26T16:55:53.001Z</time></trkpt><trkpt lat="43.41659636902507" lon="10.971439366052213"><ele>480.0</ele><time>2026-04-26T16:55:54.001Z</time></trkpt><trkpt lat="43.41666059848699" lon="10.971600579906463"><ele>479.0</ele><time>2026-04-26T16:55:55.001Z</time></trkpt><trkpt lat="43.416724517476915" lon="10.971795661952697"><ele>478.0</ele><time>2026-04-26T16:55:56.001Z</time></trkpt><trkpt lat="43.416788728673126" lon="10.97200383326652"><ele>477.5</ele><time>2026-04-26T16:55:57.001Z</time></trkpt><trkpt lat="43.416838542248115" lon="10.972203352804987"><ele>477.0</ele><time>2026-04-26T16:55:58.001Z</time></trkpt><trkpt lat="43.416878026164866" lon="10.972393400652196"><ele>476.5</ele><time>2026-04-26T16:55:59.001Z</time></trkpt><trkpt lat="43.416934081001756" lon="10.972561413611993"><ele>476.0</ele><time>2026-04-26T16:56:00.001Z</time></trkpt><trkpt lat="43.41697268701581" lon="10.97272344460276"><ele>476.0</ele><time>2026-04-26T16:56:01.001Z</time></trkpt><trkpt lat="43.41701858536245" lon="10.972886050151601"><ele>476.0</ele><time>2026-04-26T16:56:02.001Z</time></trkpt><trkpt lat="43.417065147795704" lon="10.973028471090432"><ele>476.0</ele><time>2026-04-26T16:56:03.001Z</time></trkpt><trkpt lat="43.41711990417566" lon="10.973177979199608"><ele>476.0</ele><time>2026-04-26T16:56:04.001Z</time></trkpt><trkpt lat="43.41719762026235" lon="10.973369584802464"><ele>479.3333333333333</ele><time>2026-04-26T16:56:05.001Z</time></trkpt><trkpt lat="43.417291891829066" lon="10.973568398295418"><ele>482.66666666666663</ele><time>2026-04-26T16:56:06.001Z</time></trkpt><trkpt lat="43.417389105222185" lon="10.973774588133232"><ele>486.0</ele><time>2026-04-26T16:56:07.001Z</time></trkpt><trkpt lat="43.41746512325104" lon="10.973954526454614"><ele>486.0</ele><time>2026-04-26T16:56:08.001Z</time></trkpt><trkpt lat="43.41754403537275" lon="10.974124311489211"><ele>486.0</ele><time>2026-04-26T16:56:09.001Z</time></trkpt><trkpt lat="43.417610537060085" lon="10.97427168582156"><ele>486.0</ele><time>2026-04-26T16:56:10.001Z</time></trkpt><trkpt lat="43.417674619027665" lon="10.974400163486193"><ele>486.0</ele><time>2026-04-26T16:56:11.001Z</time></trkpt><trkpt lat="43.41771939833169" lon="10.974504411706354"><ele>488.0</ele><time>2026-04-26T16:56:12.001Z</time></trkpt><trkpt lat="43.41773388573349" lon="10.974600838593203"><ele>490.0</ele><time>2026-04-26T16:56:13.001Z</time></trkpt><trkpt lat="43.4177237470959" lon="10.974707096947215"><ele>492.0</ele><time>2026-04-26T16:56:14.001Z</time></trkpt><trkpt lat="43.41767425977074" lon="10.974789489921184"><ele>494.0</ele><time>2026-04-26T16:56:15.002Z</time></trkpt><trkpt lat="43.417607299511545" lon="10.974869386627343"><ele>496.0</ele><time>2026-04-26T16:56:16.002Z</time></trkpt><trkpt lat="43.41753455458458" lon="10.97496005300182"><ele>498.0</ele><time>2026-04-26T16:56:17.002Z</time></trkpt><trkpt lat="43.41745052156797" lon="10.975065906751011"><ele>500.79999999999995</ele><time>2026-04-26T16:56:18.002Z</time></trkpt><trkpt lat="43.41738928791826" lon="10.975152887849683"><ele>503.59999999999997</ele><time>2026-04-26T16:56:19.002Z</time></trkpt><trkpt lat="43.41732927087942" lon="10.975228638923793"><ele>506.40000000000003</ele><time>2026-04-26T16:56:20.002Z</time></trkpt><trkpt lat="43.417279699754374" lon="10.975292809156304"><ele>509.20000000000005</ele><time>2026-04-26T16:56:21.002Z</time></trkpt><trkpt lat="43.41735245728072" lon="10.975486083806826"><ele>512.0</ele><time>2026-04-26T16:56:26.002Z</time></trkpt><trkpt lat="43.41746520677625" lon="10.975489990176884"><ele>512.0</ele><time>2026-04-26T16:56:28.002Z</time></trkpt><trkpt lat="43.41757211160859" lon="10.975486674528238"><ele>512.0</ele><time>2026-04-26T16:56:29.002Z</time></trkpt><trkpt lat="43.41769522556112" lon="10.97546886850415"><ele>512.0</ele><time>2026-04-26T16:56:30.002Z</time></trkpt><trkpt lat="43.41782796595445" lon="10.975494769329133"><ele>512.0</ele><time>2026-04-26T16:56:31.002Z</time></trkpt><trkpt lat="43.41793609574679" lon="10.975507395821566"><ele>511.8</ele><time>2026-04-26T16:56:32.002Z</time></trkpt><trkpt lat="43.41802991680201" lon="10.975540131094837"><ele>511.6</ele><time>2026-04-26T16:56:33.002Z</time></trkpt><trkpt lat="43.41811540327783" lon="10.975575096101085"><ele>511.40000000000003</ele><time>2026-04-26T16:56:34.002Z</time></trkpt><trkpt lat="43.418208082887325" lon="10.975616767435405"><ele>511.20000000000005</ele><time>2026-04-26T16:56:35.002Z</time></trkpt><trkpt lat="43.41830138736292" lon="10.975649191457885"><ele>511.0</ele><time>2026-04-26T16:56:36.002Z</time></trkpt><trkpt lat="43.418387808565" lon="10.975725012351"><ele>511.0</ele><time>2026-04-26T16:56:37.002Z</time></trkpt><trkpt lat="43.41848690382207" lon="10.975805790732219"><ele>511.0</ele><time>2026-04-26T16:56:38.002Z</time></trkpt><trkpt lat="43.41860293697528" lon="10.975879021581472"><ele>511.0</ele><time>2026-04-26T16:56:39.002Z</time></trkpt><trkpt lat="43.41872270552523" lon="10.97592573691019"><ele>511.0</ele><time>2026-04-26T16:56:40.002Z</time></trkpt><trkpt lat="43.41881850283467" lon="10.976012926825597"><ele>512.6</ele><time>2026-04-26T16:56:41.002Z</time></trkpt><trkpt lat="43.41889842216497" lon="10.976086530588988"><ele>514.2</ele><time>2026-04-26T16:56:42.002Z</time></trkpt><trkpt lat="43.418957323803724" lon="10.976153634532546"><ele>515.8</ele><time>2026-04-26T16:56:43.002Z</time></trkpt><trkpt lat="43.41901065513137" lon="10.976222638957365"><ele>517.4</ele><time>2026-04-26T16:56:45.002Z</time></trkpt><trkpt lat="43.41914552718661" lon="10.97620204059687"><ele>519.0</ele><time>2026-04-26T16:56:48.002Z</time></trkpt><trkpt lat="43.41925654459279" lon="10.976155255717376"><ele>519.0</ele><time>2026-04-26T16:56:49.002Z</time></trkpt><trkpt lat="43.41937830250515" lon="10.97608940569972"><ele>519.0</ele><time>2026-04-26T16:56:50.002Z</time></trkpt><trkpt lat="43.419491102677405" lon="10.976021058099498"><ele>519.0</ele><time>2026-04-26T16:56:51.002Z</time></trkpt><trkpt lat="43.419604386437925" lon="10.975960178648322"><ele>519.0</ele><time>2026-04-26T16:56:52.002Z</time></trkpt><trkpt lat="43.419738152372624" lon="10.975891588848729"><ele>518.5</ele><time>2026-04-26T16:56:53.002Z</time></trkpt><trkpt lat="43.419866045239054" lon="10.975835834453544"><ele>518.0</ele><time>2026-04-26T16:56:54.002Z</time></trkpt><trkpt lat="43.41999422206455" lon="10.975790782110925"><ele>517.5</ele><time>2026-04-26T16:56:55.001Z</time></trkpt><trkpt lat="43.42013587415495" lon="10.97576279973551"><ele>517.0</ele><time>2026-04-26T16:56:56.001Z</time></trkpt><trkpt lat="43.42027173928003" lon="10.975744871733262"><ele>517.0</ele><time>2026-04-26T16:56:57.001Z</time></trkpt><trkpt lat="43.42039690937306" lon="10.975746897376265"><ele>517.0</ele><time>2026-04-26T16:56:58.001Z</time></trkpt><trkpt lat="43.42052318387614" lon="10.975746116068928"><ele>517.0</ele><time>2026-04-26T16:56:59.001Z</time></trkpt><trkpt lat="43.42064666206136" lon="10.975759270912981"><ele>517.0</ele><time>2026-04-26T16:57:00.001Z</time></trkpt><trkpt lat="43.42076701617915" lon="10.975785247334215"><ele>517.75</ele><time>2026-04-26T16:57:01.001Z</time></trkpt><trkpt lat="43.420899095552386" lon="10.975836854628382"><ele>518.5</ele><time>2026-04-26T16:57:02.001Z</time></trkpt><trkpt lat="43.421031829554245" lon="10.975894485279019"><ele>519.25</ele><time>2026-04-26T16:57:03Z</time></trkpt><trkpt lat="43.42116427590467" lon="10.975935450736449"><ele>520.0</ele><time>2026-04-26T16:57:04Z</time></trkpt><trkpt lat="43.42131284821091" lon="10.97593148978223"><ele>516.75</ele><time>2026-04-26T16:57:05Z</time></trkpt><trkpt lat="43.421447232374895" lon="10.97589984145554"><ele>513.5</ele><time>2026-04-26T16:57:06Z</time></trkpt><trkpt lat="43.42158324867708" lon="10.975856077942458"><ele>510.25</ele><time>2026-04-26T16:57:07Z</time></trkpt><trkpt lat="43.421715057463004" lon="10.975812123651487"><ele>507.0</ele><time>2026-04-26T16:57:08Z</time></trkpt><trkpt lat="43.421839744555996" lon="10.975790092118958"><ele>507.0</ele><time>2026-04-26T16:57:09Z</time></trkpt><trkpt lat="43.421958146781996" lon="10.9758056888792"><ele>507.0</ele><time>2026-04-26T16:57:10Z</time></trkpt><trkpt lat="43.42206293700855" lon="10.975878923549796"><ele>507.0</ele><time>2026-04-26T16:57:11Z</time></trkpt><trkpt lat="43.42214782065288" lon="10.97601237426872"><ele>507.0</ele><time>2026-04-26T16:57:12Z</time></trkpt><trkpt lat="43.4222457305516" lon="10.976133592161318"><ele>504.25</ele><time>2026-04-26T16:57:13Z</time></trkpt><trkpt lat="43.422342697542895" lon="10.976231420218475"><ele>501.5</ele><time>2026-04-26T16:57:14Z</time></trkpt><trkpt lat="43.422459278181066" lon="10.976298023045544"><ele>498.75</ele><time>2026-04-26T16:57:15Z</time></trkpt><trkpt lat="43.42258507944202" lon="10.976306100277478"><ele>496.0</ele><time>2026-04-26T16:57:16Z</time></trkpt><trkpt lat="43.42270432318667" lon="10.97630267927146"><ele>496.0</ele><time>2026-04-26T16:57:17.001Z</time></trkpt><trkpt lat="43.42282944307619" lon="10.976265429212539"><ele>496.0</ele><time>2026-04-26T16:57:18.001Z</time></trkpt><trkpt lat="43.42298171702041" lon="10.976194225835622"><ele>496.0</ele><time>2026-04-26T16:57:19.001Z</time></trkpt><trkpt lat="43.423148792925865" lon="10.976090879157411"><ele>495.33333333333337</ele><time>2026-04-26T16:57:20.001Z</time></trkpt><trkpt lat="43.423311686482734" lon="10.975969745479645"><ele>494.66666666666663</ele><time>2026-04-26T16:57:21.001Z</time></trkpt><trkpt lat="43.42345734443333" lon="10.975847637684671"><ele>494.0</ele><time>2026-04-26T16:57:22.001Z</time></trkpt><trkpt lat="43.42359948679911" lon="10.975734941963848"><ele>494.0</ele><time>2026-04-26T16:57:23.001Z</time></trkpt><trkpt lat="43.42377175212691" lon="10.975624810087389"><ele>494.0</ele><time>2026-04-26T16:57:24.001Z</time></trkpt><trkpt lat="43.423956408359366" lon="10.975526881909028"><ele>494.0</ele><time>2026-04-26T16:57:25.001Z</time></trkpt><trkpt lat="43.42412716125898" lon="10.975446144901396"><ele>493.66666666666663</ele><time>2026-04-26T16:57:26.001Z</time></trkpt><trkpt lat="43.42428982722535" lon="10.975363549499239"><ele>493.33333333333337</ele><time>2026-04-26T16:57:27.001Z</time></trkpt><trkpt lat="43.42443754338098" lon="10.975284499521221"><ele>493.0</ele><time>2026-04-26T16:57:28.001Z</time></trkpt><trkpt lat="43.42455484631625" lon="10.975209214958996"><ele>493.25</ele><time>2026-04-26T16:57:29.001Z</time></trkpt><trkpt lat="43.424652665722064" lon="10.975102325276168"><ele>493.5</ele><time>2026-04-26T16:57:30.001Z</time></trkpt><trkpt lat="43.42474380466026" lon="10.974942743074388"><ele>493.75</ele><time>2026-04-26T16:57:31.001Z</time></trkpt><trkpt lat="43.42482840318639" lon="10.974745895773093"><ele>494.0</ele><time>2026-04-26T16:57:32.001Z</time></trkpt><trkpt lat="43.42491005599596" lon="10.974543155696582"><ele>494.0</ele><time>2026-04-26T16:57:33.001Z</time></trkpt><trkpt lat="43.42497139466906" lon="10.97436658115116"><ele>494.0</ele><time>2026-04-26T16:57:34.001Z</time></trkpt><trkpt lat="43.42501983483945" lon="10.974161596167471"><ele>494.0</ele><time>2026-04-26T16:57:35.001Z</time></trkpt><trkpt lat="43.42504005942409" lon="10.97397046188155"><ele>494.0</ele><time>2026-04-26T16:57:36.001Z</time></trkpt><trkpt lat="43.4250697094042" lon="10.973794247651252"><ele>494.79999999999995</ele><time>2026-04-26T16:57:37.001Z</time></trkpt><trkpt lat="43.42507052585818" lon="10.97363559607455"><ele>495.59999999999997</ele><time>2026-04-26T16:57:38.001Z</time></trkpt><trkpt lat="43.42510940300749" lon="10.973506159056011"><ele>496.4</ele><time>2026-04-26T16:57:39.001Z</time></trkpt><trkpt lat="43.425171733252675" lon="10.973409179091377"><ele>497.2</ele><time>2026-04-26T16:57:40.001Z</time></trkpt><trkpt lat="43.4252602412525" lon="10.973344009867576"><ele>498.0</ele><time>2026-04-26T16:57:41.001Z</time></trkpt><trkpt lat="43.42536592831834" lon="10.973317187429892"><ele>500.0</ele><time>2026-04-26T16:57:42.001Z</time></trkpt><trkpt lat="43.4254887868116" lon="10.973324243023201"><ele>502.0</ele><time>2026-04-26T16:57:43.001Z</time></trkpt><trkpt lat="43.42561291713676" lon="10.973374010469852"><ele>504.0</ele><time>2026-04-26T16:57:44.001Z</time></trkpt><trkpt lat="43.425732720318145" lon="10.973457339559323"><ele>506.0</ele><time>2026-04-26T16:57:45.001Z</time></trkpt><trkpt lat="43.42583406535802" lon="10.973569401885836"><ele>506.5</ele><time>2026-04-26T16:57:46.001Z</time></trkpt><trkpt lat="43.42591542483607" lon="10.97368569196245"><ele>507.0</ele><time>2026-04-26T16:57:47.001Z</time></trkpt><trkpt lat="43.426011364922566" lon="10.973767525079626"><ele>507.5</ele><time>2026-04-26T16:57:48.001Z</time></trkpt><trkpt lat="43.426136694412534" lon="10.97381545848098"><ele>508.0</ele><time>2026-04-26T16:57:49.001Z</time></trkpt><trkpt lat="43.42628381688095" lon="10.973791493080004"><ele>508.6666666666667</ele><time>2026-04-26T16:57:50.001Z</time></trkpt><trkpt lat="43.42644448312181" lon="10.973749663380856"><ele>509.33333333333337</ele><time>2026-04-26T16:57:51.001Z</time></trkpt><trkpt lat="43.42660124779939" lon="10.973693940194838"><ele>510.0</ele><time>2026-04-26T16:57:52.001Z</time></trkpt><trkpt lat="43.426737400378165" lon="10.973616755709742"><ele>510.0</ele><time>2026-04-26T16:57:53.001Z</time></trkpt><trkpt lat="43.42686813503594" lon="10.97350229087131"><ele>510.0</ele><time>2026-04-26T16:57:54.001Z</time></trkpt><trkpt lat="43.427002472108235" lon="10.973359816919206"><ele>510.0</ele><time>2026-04-26T16:57:55.001Z</time></trkpt><trkpt lat="43.427135877964915" lon="10.973201514281836"><ele>510.66666666666663</ele><time>2026-04-26T16:57:56.001Z</time></trkpt><trkpt lat="43.42726257572175" lon="10.973035274839159"><ele>511.3333333333333</ele><time>2026-04-26T16:57:57.001Z</time></trkpt><trkpt lat="43.42740261761408" lon="10.972842682326608"><ele>512.0</ele><time>2026-04-26T16:57:58.001Z</time></trkpt><trkpt lat="43.42754884523965" lon="10.972631627459895"><ele>512.3333333333333</ele><time>2026-04-26T16:57:59.001Z</time></trkpt><trkpt lat="43.42769117940391" lon="10.972415765896132"><ele>512.6666666666666</ele><time>2026-04-26T16:58:00.001Z</time></trkpt><trkpt lat="43.42781240487279" lon="10.97220834074747"><ele>513.0</ele><time>2026-04-26T16:58:01.001Z</time></trkpt><trkpt lat="43.427916285156414" lon="10.972014093239897"><ele>515.5</ele><time>2026-04-26T16:58:02.001Z</time></trkpt><trkpt lat="43.42800211383314" lon="10.971840950011114"><ele>518.0</ele><time>2026-04-26T16:58:03.001Z</time></trkpt><trkpt lat="43.42806241506195" lon="10.971683562530195"><ele>520.5</ele><time>2026-04-26T16:58:04.001Z</time></trkpt><trkpt lat="43.42810870808984" lon="10.971515667157805"><ele>523.0</ele><time>2026-04-26T16:58:05.001Z</time></trkpt><trkpt lat="43.42811104094298" lon="10.971309070979022"><ele>523.25</ele><time>2026-04-26T16:58:06.001Z</time></trkpt><trkpt lat="43.4280861393365" lon="10.971078601571868"><ele>523.5</ele><time>2026-04-26T16:58:07.001Z</time></trkpt><trkpt lat="43.428090787905795" lon="10.97089020784427"><ele>523.75</ele><time>2026-04-26T16:58:08.001Z</time></trkpt><trkpt lat="43.428090832186136" lon="10.97073562548283"><ele>524.0</ele><time>2026-04-26T16:58:09.001Z</time></trkpt><trkpt lat="43.428089619383044" lon="10.97061875398157"><ele>524.75</ele><time>2026-04-26T16:58:10.001Z</time></trkpt><trkpt lat="43.42813162998483" lon="10.970523039505437"><ele>525.5</ele><time>2026-04-26T16:58:11.001Z</time></trkpt><trkpt lat="43.4282089754651" lon="10.97042799343896"><ele>526.25</ele><time>2026-04-26T16:58:12.001Z</time></trkpt><trkpt lat="43.42833096092812" lon="10.970385451565965"><ele>527.0</ele><time>2026-04-26T16:58:13.001Z</time></trkpt><trkpt lat="43.42847340212591" lon="10.970362699464301"><ele>527.0</ele><time>2026-04-26T16:58:14.001Z</time></trkpt><trkpt lat="43.42862421739125" lon="10.970309188014959"><ele>527.0</ele><time>2026-04-26T16:58:15.001Z</time></trkpt><trkpt lat="43.42880386668928" lon="10.970285771321278"><ele>527.0</ele><time>2026-04-26T16:58:16.001Z</time></trkpt><trkpt lat="43.428961125996565" lon="10.970241711415639"><ele>528.0</ele><time>2026-04-26T16:58:17.001Z</time></trkpt><trkpt lat="43.429088830103275" lon="10.970166374878984"><ele>529.0</ele><time>2026-04-26T16:58:18.001Z</time></trkpt><trkpt lat="43.42919616709343" lon="10.97005211185192"><ele>530.0</ele><time>2026-04-26T16:58:19.001Z</time></trkpt><trkpt lat="43.42929539889894" lon="10.96986999403337"><ele>531.0</ele><time>2026-04-26T16:58:20.001Z</time></trkpt><trkpt lat="43.42939777854868" lon="10.969647154857121"><ele>531.0</ele><time>2026-04-26T16:58:21.001Z</time></trkpt><trkpt lat="43.42950417696689" lon="10.969392400350886"><ele>531.0</ele><time>2026-04-26T16:58:22.001Z</time></trkpt><trkpt lat="43.42962355294462" lon="10.969178773510102"><ele>531.0</ele><time>2026-04-26T16:58:23.001Z</time></trkpt><trkpt lat="43.42971000561483" lon="10.968975368500939"><ele>533.3333333333334</ele><time>2026-04-26T16:58:24.002Z</time></trkpt><trkpt lat="43.42982503315139" lon="10.968813722958698"><ele>535.6666666666667</ele><time>2026-04-26T16:58:25.002Z</time></trkpt><trkpt lat="43.42996193094781" lon="10.968657687317693"><ele>538.0</ele><time>2026-04-26T16:58:26.002Z</time></trkpt><trkpt lat="43.43010274038622" lon="10.968509133423435"><ele>538.0</ele><time>2026-04-26T16:58:27.002Z</time></trkpt><trkpt lat="43.43022662388994" lon="10.968373952839125"><ele>538.0</ele><time>2026-04-26T16:58:28.002Z</time></trkpt><trkpt lat="43.430341156117635" lon="10.968262088260447"><ele>538.0</ele><time>2026-04-26T16:58:29.002Z</time></trkpt><trkpt lat="43.430457556272046" lon="10.968165469471272"><ele>538.0</ele><time>2026-04-26T16:58:30.002Z</time></trkpt><trkpt lat="43.430586715003464" lon="10.9681115227466"><ele>540.5</ele><time>2026-04-26T16:58:31.002Z</time></trkpt><trkpt lat="43.43072172644148" lon="10.9681231455459"><ele>543.0</ele><time>2026-04-26T16:58:32.002Z</time></trkpt><trkpt lat="43.43086742365997" lon="10.968149475231575"><ele>545.5</ele><time>2026-04-26T16:58:33.002Z</time></trkpt><trkpt lat="43.431031299880075" lon="10.968193537067123"><ele>548.0</ele><time>2026-04-26T16:58:34.002Z</time></trkpt><trkpt lat="43.43121449175914" lon="10.968275158653848"><ele>548.6666666666666</ele><time>2026-04-26T16:58:35.002Z</time></trkpt><trkpt lat="43.431388737448025" lon="10.968389812521306"><ele>549.3333333333334</ele><time>2026-04-26T16:58:36.002Z</time></trkpt><trkpt lat="43.43155199588045" lon="10.968456855230535"><ele>550.0</ele><time>2026-04-26T16:58:37.002Z</time></trkpt><trkpt lat="43.43172658320725" lon="10.968510047930451"><ele>550.0</ele><time>2026-04-26T16:58:38.002Z</time></trkpt><trkpt lat="43.431904416662334" lon="10.968547417850333"><ele>550.0</ele><time>2026-04-26T16:58:39.002Z</time></trkpt><trkpt lat="43.4320543991829" lon="10.968552722768548"><ele>550.0</ele><time>2026-04-26T16:58:40.002Z</time></trkpt><trkpt lat="43.432173076247665" lon="10.968510656389935"><ele>549.75</ele><time>2026-04-26T16:58:41.002Z</time></trkpt><trkpt lat="43.43227721465384" lon="10.968430229977281"><ele>549.5</ele><time>2026-04-26T16:58:42.002Z</time></trkpt><trkpt lat="43.43237339638101" lon="10.96830440558794"><ele>549.25</ele><time>2026-04-26T16:58:43.002Z</time></trkpt><trkpt lat="43.432461495812845" lon="10.968110695042604"><ele>549.0</ele><time>2026-04-26T16:58:44.002Z</time></trkpt><trkpt lat="43.43255464938949" lon="10.967991161502747"><ele>552.0</ele><time>2026-04-26T16:58:45.002Z</time></trkpt><trkpt lat="43.43269478623883" lon="10.967935278040366"><ele>555.0</ele><time>2026-04-26T16:58:46.002Z</time></trkpt><trkpt lat="43.43285331173415" lon="10.967869358990633"><ele>558.0</ele><time>2026-04-26T16:58:47.002Z</time></trkpt><trkpt lat="43.43301945046098" lon="10.96778183631483"><ele>558.0</ele><time>2026-04-26T16:58:48.002Z</time></trkpt><trkpt lat="43.43319319134132" lon="10.967676987759443"><ele>558.0</ele><time>2026-04-26T16:58:49.002Z</time></trkpt><trkpt lat="43.433389046393415" lon="10.967544325985623"><ele>558.0</ele><time>2026-04-26T16:58:50.002Z</time></trkpt><trkpt lat="43.43359314280046" lon="10.967401188489355"><ele>559.0</ele><time>2026-04-26T16:58:51.002Z</time></trkpt><trkpt lat="43.43377043130628" lon="10.967272163546667"><ele>560.0</ele><time>2026-04-26T16:58:52.002Z</time></trkpt><trkpt lat="43.43394754735667" lon="10.967145904652462"><ele>561.0</ele><time>2026-04-26T16:58:53.002Z</time></trkpt><trkpt lat="43.43411739176376" lon="10.96702472510844"><ele>561.6666666666666</ele><time>2026-04-26T16:58:54.002Z</time></trkpt><trkpt lat="43.43425836096929" lon="10.96686076013912"><ele>562.3333333333333</ele><time>2026-04-26T16:58:55.002Z</time></trkpt><trkpt lat="43.434359688605525" lon="10.966654607605708"><ele>563.0</ele><time>2026-04-26T16:58:56.002Z</time></trkpt><trkpt lat="43.43446444163392" lon="10.966453587482718"><ele>563.6666666666666</ele><time>2026-04-26T16:58:57.002Z</time></trkpt><trkpt lat="43.43456813891231" lon="10.966261653573198"><ele>564.3333333333334</ele><time>2026-04-26T16:58:58.002Z</time></trkpt><trkpt lat="43.43471081312949" lon="10.966121556100392"><ele>565.0</ele><time>2026-04-26T16:58:59.002Z</time></trkpt><trkpt lat="43.434836459813404" lon="10.965985368472275"><ele>568.6666666666667</ele><time>2026-04-26T16:59:00.002Z</time></trkpt><trkpt lat="43.43495945013945" lon="10.965829387466613"><ele>572.3333333333334</ele><time>2026-04-26T16:59:01Z</time></trkpt><trkpt lat="43.43504838848529" lon="10.965591689291301"><ele>576.0</ele><time>2026-04-26T16:59:02Z</time></trkpt><trkpt lat="43.43515968881453" lon="10.965373845733932"><ele>576.0</ele><time>2026-04-26T16:59:03Z</time></trkpt><trkpt lat="43.43526425263624" lon="10.965139967239493"><ele>576.0</ele><time>2026-04-26T16:59:04Z</time></trkpt><trkpt lat="43.43538041511899" lon="10.964892883050368"><ele>576.0</ele><time>2026-04-26T16:59:05Z</time></trkpt><trkpt lat="43.43551316126749" lon="10.964691549416614"><ele>575.3333333333334</ele><time>2026-04-26T16:59:06Z</time></trkpt><trkpt lat="43.43562205521243" lon="10.964480030397134"><ele>574.6666666666667</ele><time>2026-04-26T16:59:07Z</time></trkpt><trkpt lat="43.435704477156406" lon="10.964266489829448"><ele>574.0</ele><time>2026-04-26T16:59:08Z</time></trkpt><trkpt lat="43.43576726081808" lon="10.96401797318351"><ele>578.0</ele><time>2026-04-26T16:59:09Z</time></trkpt><trkpt lat="43.435847877686435" lon="10.963808371359464"><ele>582.0</ele><time>2026-04-26T16:59:10Z</time></trkpt><trkpt lat="43.43594553399494" lon="10.963619359562049"><ele>586.0</ele><time>2026-04-26T16:59:11Z</time></trkpt><trkpt lat="43.43603917013762" lon="10.963435969764575"><ele>586.25</ele><time>2026-04-26T16:59:12Z</time></trkpt><trkpt lat="43.43614890957258" lon="10.963292222930331"><ele>586.5</ele><time>2026-04-26T16:59:13Z</time></trkpt><trkpt lat="43.436261445102254" lon="10.963166096901656"><ele>586.75</ele><time>2026-04-26T16:59:14Z</time></trkpt><trkpt lat="43.43638006380417" lon="10.963060491756838"><ele>587.0</ele><time>2026-04-26T16:59:15Z</time></trkpt><trkpt lat="43.436492083083834" lon="10.962969091852386"><ele>587.0</ele><time>2026-04-26T16:59:16Z</time></trkpt><trkpt lat="43.43658955287095" lon="10.962865666358168"><ele>587.0</ele><time>2026-04-26T16:59:17Z</time></trkpt><trkpt lat="43.436669600981325" lon="10.962744195467147"><ele>587.0</ele><time>2026-04-26T16:59:18Z</time></trkpt><trkpt lat="43.43674273367519" lon="10.962580426921292"><ele>587.0</ele><time>2026-04-26T16:59:19Z</time></trkpt><trkpt lat="43.436796412438085" lon="10.962379032415166"><ele>586.6666666666666</ele><time>2026-04-26T16:59:20Z</time></trkpt><trkpt lat="43.43683708921863" lon="10.962145266366495"><ele>586.3333333333334</ele><time>2026-04-26T16:59:21Z</time></trkpt><trkpt lat="43.436868952275866" lon="10.961921589173391"><ele>586.0</ele><time>2026-04-26T16:59:22Z</time></trkpt><trkpt lat="43.436933606977576" lon="10.961745394571466"><ele>585.25</ele><time>2026-04-26T16:59:23Z</time></trkpt><trkpt lat="43.43699598228976" lon="10.961565163603249"><ele>584.5</ele><time>2026-04-26T16:59:24Z</time></trkpt><trkpt lat="43.437067149276984" lon="10.961386252409627"><ele>583.75</ele><time>2026-04-26T16:59:25Z</time></trkpt><trkpt lat="43.43717512619668" lon="10.961237256925495"><ele>583.0</ele><time>2026-04-26T16:59:26Z</time></trkpt><trkpt lat="43.43729969974682" lon="10.961110421756306"><ele>585.0</ele><time>2026-04-26T16:59:27Z</time></trkpt><trkpt lat="43.43746554741185" lon="10.961031869146833"><ele>587.0</ele><time>2026-04-26T16:59:28Z</time></trkpt><trkpt lat="43.437646295064916" lon="10.960910982605666"><ele>589.0</ele><time>2026-04-26T16:59:29Z</time></trkpt><trkpt lat="43.43784247712557" lon="10.960793883062875"><ele>590.0</ele><time>2026-04-26T16:59:30Z</time></trkpt><trkpt lat="43.43805142700415" lon="10.960639572910088"><ele>591.0</ele><time>2026-04-26T16:59:31Z</time></trkpt><trkpt lat="43.438262641823044" lon="10.96047361978086"><ele>591.0</ele><time>2026-04-26T16:59:32Z</time></trkpt><trkpt lat="43.43845434723642" lon="10.96032175820434"><ele>591.0</ele><time>2026-04-26T16:59:33Z</time></trkpt><trkpt lat="43.438628829951796" lon="10.96017532032236"><ele>591.0</ele><time>2026-04-26T16:59:34.001Z</time></trkpt><trkpt lat="43.438797229198244" lon="10.960019897361573"><ele>590.6666666666666</ele><time>2026-04-26T16:59:35.001Z</time></trkpt><trkpt lat="43.438953976839" lon="10.959876735047041"><ele>590.3333333333333</ele><time>2026-04-26T16:59:36.001Z</time></trkpt><trkpt lat="43.439092202392075" lon="10.959731645460714"><ele>590.0</ele><time>2026-04-26T16:59:37.001Z</time></trkpt><trkpt lat="43.43922586993638" lon="10.95955382162972"><ele>590.0</ele><time>2026-04-26T16:59:38.001Z</time></trkpt><trkpt lat="43.439358534076355" lon="10.959325783179553"><ele>590.0</ele><time>2026-04-26T16:59:39.001Z</time></trkpt><trkpt lat="43.43950196019866" lon="10.95908119263987"><ele>590.0</ele><time>2026-04-26T16:59:40.001Z</time></trkpt><trkpt lat="43.43963523792122" lon="10.958854676373145"><ele>590.6666666666666</ele><time>2026-04-26T16:59:41.001Z</time></trkpt><trkpt lat="43.439770056339505" lon="10.95862656601828"><ele>591.3333333333334</ele><time>2026-04-26T16:59:42.001Z</time></trkpt><trkpt lat="43.439912442148724" lon="10.958376302052553"><ele>592.0</ele><time>2026-04-26T16:59:43.001Z</time></trkpt><trkpt lat="43.44006143811819" lon="10.95811462324064"><ele>595.0</ele><time>2026-04-26T16:59:44.001Z</time></trkpt><trkpt lat="43.44021622658427" lon="10.957853919794749"><ele>598.0</ele><time>2026-04-26T16:59:45.001Z</time></trkpt><trkpt lat="43.44036864980678" lon="10.957602719299524"><ele>599.3333333333334</ele><time>2026-04-26T16:59:46.001Z</time></trkpt><trkpt lat="43.44050699452025" lon="10.957383571428307"><ele>600.6666666666666</ele><time>2026-04-26T16:59:47.001Z</time></trkpt><trkpt lat="43.440641223800604" lon="10.95717733289078"><ele>602.0</ele><time>2026-04-26T16:59:48.001Z</time></trkpt><trkpt lat="43.44077183403305" lon="10.95698068394375"><ele>602.0</ele><time>2026-04-26T16:59:49.001Z</time></trkpt><trkpt lat="43.440897795646634" lon="10.95679306404886"><ele>602.0</ele><time>2026-04-26T16:59:50.001Z</time></trkpt><trkpt lat="43.44101139175581" lon="10.956618522963542"><ele>602.0</ele><time>2026-04-26T16:59:51.001Z</time></trkpt><trkpt lat="43.44111760999762" lon="10.956449758319161"><ele>601.0</ele><time>2026-04-26T16:59:52.001Z</time></trkpt><trkpt lat="43.44122858867217" lon="10.95627870319429"><ele>600.0</ele><time>2026-04-26T16:59:53.001Z</time></trkpt><trkpt lat="43.44133118130778" lon="10.956096250718504"><ele>599.0</ele><time>2026-04-26T16:59:54.001Z</time></trkpt><trkpt lat="43.441412213052665" lon="10.955910213351089"><ele>599.5</ele><time>2026-04-26T16:59:55.001Z</time></trkpt><trkpt lat="43.44147778688713" lon="10.955731590246828"><ele>600.0</ele><time>2026-04-26T16:59:56.001Z</time></trkpt><trkpt lat="43.44153124093061" lon="10.95555825184049"><ele>600.5</ele><time>2026-04-26T16:59:57.001Z</time></trkpt><trkpt lat="43.44156250459936" lon="10.955388822607366"><ele>601.0</ele><time>2026-04-26T16:59:58.001Z</time></trkpt><trkpt lat="43.44160183950684" lon="10.95519535979622"><ele>601.5</ele><time>2026-04-26T16:59:59.001Z</time></trkpt><trkpt lat="43.44163512925038" lon="10.955011287803616"><ele>602.0</ele><time>2026-04-26T17:00:00.001Z</time></trkpt><trkpt lat="43.4416655596024" lon="10.95481748996271"><ele>602.5</ele><time>2026-04-26T17:00:01.001Z</time></trkpt><trkpt lat="43.441700431172556" lon="10.954608316554781"><ele>603.0</ele><time>2026-04-26T17:00:02.001Z</time></trkpt><trkpt lat="43.441732408840835" lon="10.954373757379582"><ele>603.3333333333334</ele><time>2026-04-26T17:00:03.001Z</time></trkpt><trkpt lat="43.441746947093385" lon="10.954133684607942"><ele>603.6666666666667</ele><time>2026-04-26T17:00:04.001Z</time></trkpt><trkpt lat="43.44174063275292" lon="10.953885631790987"><ele>604.0</ele><time>2026-04-26T17:00:05.001Z</time></trkpt><trkpt lat="43.44171987584995" lon="10.95365125702943"><ele>604.0</ele><time>2026-04-26T17:00:06.001Z</time></trkpt><trkpt lat="43.441701943007594" lon="10.95342829888844"><ele>604.0</ele><time>2026-04-26T17:00:07.001Z</time></trkpt><trkpt lat="43.4416805781564" lon="10.953213947592362"><ele>604.0</ele><time>2026-04-26T17:00:08.001Z</time></trkpt><trkpt lat="43.441665869207434" lon="10.953012208650422"><ele>604.0</ele><time>2026-04-26T17:00:09.001Z</time></trkpt><trkpt lat="43.4416645748736" lon="10.952826687817094"><ele>604.0</ele><time>2026-04-26T17:00:10.001Z</time></trkpt><trkpt lat="43.44168775121728" lon="10.952693492458959"><ele>604.0</ele><time>2026-04-26T17:00:11.001Z</time></trkpt><trkpt lat="43.44173653575671" lon="10.952573767663534"><ele>604.0</ele><time>2026-04-26T17:00:12.001Z</time></trkpt><trkpt lat="43.44180561505324" lon="10.952475995805"><ele>604.0</ele><time>2026-04-26T17:00:13.001Z</time></trkpt><trkpt lat="43.44189522725174" lon="10.95240530544652"><ele>603.0</ele><time>2026-04-26T17:00:14.001Z</time></trkpt><trkpt lat="43.44201626944321" lon="10.95236594288391"><ele>602.0</ele><time>2026-04-26T17:00:15.001Z</time></trkpt><trkpt lat="43.44217003782338" lon="10.952342065636458"><ele>601.0</ele><time>2026-04-26T17:00:16.001Z</time></trkpt><trkpt lat="43.442344088093144" lon="10.952326518457435"><ele>601.0</ele><time>2026-04-26T17:00:17.001Z</time></trkpt><trkpt lat="43.442537202499466" lon="10.952295961085298"><ele>601.0</ele><time>2026-04-26T17:00:18.001Z</time></trkpt><trkpt lat="43.44274151178708" lon="10.952233049542741"><ele>601.0</ele><time>2026-04-26T17:00:19.001Z</time></trkpt><trkpt lat="43.44293141957911" lon="10.952164365006421"><ele>599.0</ele><time>2026-04-26T17:00:20.001Z</time></trkpt><trkpt lat="43.443106868308085" lon="10.95211295922657"><ele>597.0</ele><time>2026-04-26T17:00:21.001Z</time></trkpt><trkpt lat="43.44328744753403" lon="10.952090443360628"><ele>595.0</ele><time>2026-04-26T17:00:22.001Z</time></trkpt><trkpt lat="43.44346608489931" lon="10.95212062542499"><ele>595.0</ele><time>2026-04-26T17:00:23.001Z</time></trkpt><trkpt lat="43.44363641462653" lon="10.952143986045838"><ele>595.0</ele><time>2026-04-26T17:00:24.001Z</time></trkpt><trkpt lat="43.44380524693195" lon="10.95212219464718"><ele>595.0</ele><time>2026-04-26T17:00:25.001Z</time></trkpt><trkpt lat="43.44397846827368" lon="10.952097652079376"><ele>594.3333333333334</ele><time>2026-04-26T17:00:26.001Z</time></trkpt><trkpt lat="43.44415032466235" lon="10.95205421690658"><ele>593.6666666666666</ele><time>2026-04-26T17:00:27.001Z</time></trkpt><trkpt lat="43.44432625429271" lon="10.952021401177555"><ele>593.0</ele><time>2026-04-26T17:00:28.001Z</time></trkpt><trkpt lat="43.444511297291726" lon="10.952049498387497"><ele>592.6666666666666</ele><time>2026-04-26T17:00:29.001Z</time></trkpt><trkpt lat="43.44470098750163" lon="10.952086876721138"><ele>592.3333333333334</ele><time>2026-04-26T17:00:30.001Z</time></trkpt><trkpt lat="43.444905420011" lon="10.952130883857686"><ele>592.0</ele><time>2026-04-26T17:00:31.001Z</time></trkpt><trkpt lat="43.445106553852845" lon="10.952151521667517"><ele>592.0</ele><time>2026-04-26T17:00:32.001Z</time></trkpt><trkpt lat="43.44530788942186" lon="10.952202853211153"><ele>592.0</ele><time>2026-04-26T17:00:33.001Z</time></trkpt><trkpt lat="43.44550862220196" lon="10.952270705438773"><ele>592.0</ele><time>2026-04-26T17:00:34.001Z</time></trkpt><trkpt lat="43.445684921338504" lon="10.952389844056018"><ele>591.6666666666667</ele><time>2026-04-26T17:00:35.001Z</time></trkpt><trkpt lat="43.44585684933077" lon="10.952489130855398"><ele>591.3333333333334</ele><time>2026-04-26T17:00:36.001Z</time></trkpt><trkpt lat="43.44602643245878" lon="10.952562114115617"><ele>591.0</ele><time>2026-04-26T17:00:37.001Z</time></trkpt><trkpt lat="43.446189971264964" lon="10.952631800021354"><ele>589.0</ele><time>2026-04-26T17:00:38.002Z</time></trkpt><trkpt lat="43.4463547004366" lon="10.952677195503854"><ele>587.0</ele><time>2026-04-26T17:00:39.002Z</time></trkpt><trkpt lat="43.44651788152451" lon="10.952687388345971"><ele>585.0</ele><time>2026-04-26T17:00:40.002Z</time></trkpt><trkpt lat="43.4466895590758" lon="10.952656434371677"><ele>585.0</ele><time>2026-04-26T17:00:41.002Z</time></trkpt><trkpt lat="43.446868923531056" lon="10.952608766916109"><ele>585.0</ele><time>2026-04-26T17:00:42.002Z</time></trkpt><trkpt lat="43.44705256579493" lon="10.952572741219809"><ele>585.0</ele><time>2026-04-26T17:00:43.002Z</time></trkpt><trkpt lat="43.447211078587834" lon="10.952543683613529"><ele>587.5</ele><time>2026-04-26T17:00:44.002Z</time></trkpt><trkpt lat="43.447324438124525" lon="10.952495274231788"><ele>590.0</ele><time>2026-04-26T17:00:45.002Z</time></trkpt><trkpt lat="43.44742066767656" lon="10.952420943749301"><ele>592.5</ele><time>2026-04-26T17:00:46.002Z</time></trkpt><trkpt lat="43.447518993545124" lon="10.9522923713165"><ele>595.0</ele><time>2026-04-26T17:00:47.002Z</time></trkpt><trkpt lat="43.44761242473759" lon="10.952117277418676"><ele>595.0</ele><time>2026-04-26T17:00:48.002Z</time></trkpt><trkpt lat="43.44769107880216" lon="10.95189817828958"><ele>595.0</ele><time>2026-04-26T17:00:49.002Z</time></trkpt><trkpt lat="43.44777984197779" lon="10.951660210174127"><ele>595.0</ele><time>2026-04-26T17:00:50.002Z</time></trkpt><trkpt lat="43.44789514341785" lon="10.9514050373449"><ele>597.0</ele><time>2026-04-26T17:00:51.002Z</time></trkpt><trkpt lat="43.448022187536644" lon="10.951158132930033"><ele>599.0</ele><time>2026-04-26T17:00:52.002Z</time></trkpt><trkpt lat="43.448169065846955" lon="10.950908331457487"><ele>600.6666666666666</ele><time>2026-04-26T17:00:53.002Z</time></trkpt><trkpt lat="43.448304286931126" lon="10.950689860991186"><ele>602.3333333333334</ele><time>2026-04-26T17:00:54.002Z</time></trkpt><trkpt lat="43.44843251443167" lon="10.950486526917391"><ele>604.0</ele><time>2026-04-26T17:00:55.002Z</time></trkpt><trkpt lat="43.44855292503158" lon="10.950305556131639"><ele>604.0</ele><time>2026-04-26T17:00:56.002Z</time></trkpt><trkpt lat="43.44867130334016" lon="10.950156152288308"><ele>604.0</ele><time>2026-04-26T17:00:57.002Z</time></trkpt><trkpt lat="43.448793938734426" lon="10.950051275387215"><ele>604.0</ele><time>2026-04-26T17:00:58.002Z</time></trkpt><trkpt lat="43.44891520803373" lon="10.950046106481746"><ele>604.0</ele><time>2026-04-26T17:00:59.002Z</time></trkpt><trkpt lat="43.44903440839631" lon="10.950059861926102"><ele>606.0</ele><time>2026-04-26T17:01:00.002Z</time></trkpt><trkpt lat="43.44916571339507" lon="10.950123052346322"><ele>608.0</ele><time>2026-04-26T17:01:01.002Z</time></trkpt><trkpt lat="43.449297525540125" lon="10.950182197760679"><ele>610.0</ele><time>2026-04-26T17:01:02.002Z</time></trkpt><trkpt lat="43.449432863443626" lon="10.950195495129641"><ele>612.0</ele><time>2026-04-26T17:01:03.002Z</time></trkpt><trkpt lat="43.449568004461845" lon="10.95015591631023"><ele>612.0</ele><time>2026-04-26T17:01:04.002Z</time></trkpt><trkpt lat="43.44971914857067" lon="10.950045710018953"><ele>612.0</ele><time>2026-04-26T17:01:05.002Z</time></trkpt><trkpt lat="43.44987360094763" lon="10.949929375224336"><ele>612.0</ele><time>2026-04-26T17:01:06.002Z</time></trkpt><trkpt lat="43.44998778906134" lon="10.949860326739149"><ele>612.0</ele><time>2026-04-26T17:01:07Z</time></trkpt><trkpt lat="43.45008651944236" lon="10.94983286820092"><ele>612.0</ele><time>2026-04-26T17:01:08Z</time></trkpt><trkpt lat="43.45018435669762" lon="10.94984557413552"><ele>612.0</ele><time>2026-04-26T17:01:09Z</time></trkpt><trkpt lat="43.45027803264514" lon="10.949942693496052"><ele>612.0</ele><time>2026-04-26T17:01:10Z</time></trkpt><trkpt lat="43.45036766024171" lon="10.95006526534406"><ele>612.0</ele><time>2026-04-26T17:01:11Z</time></trkpt><trkpt lat="43.45046727116027" lon="10.95015045502174"><ele>614.0</ele><time>2026-04-26T17:01:12Z</time></trkpt><trkpt lat="43.45055452961033" lon="10.950207983617561"><ele>616.0</ele><time>2026-04-26T17:01:13Z</time></trkpt><trkpt lat="43.45066501249102" lon="10.950216722665504"><ele>618.0</ele><time>2026-04-26T17:01:14Z</time></trkpt><trkpt lat="43.45080024910766" lon="10.950160192391978"><ele>620.0</ele><time>2026-04-26T17:01:15Z</time></trkpt><trkpt lat="43.450957076158716" lon="10.950058733733364"><ele>616.3333333333333</ele><time>2026-04-26T17:01:16Z</time></trkpt><trkpt lat="43.451154105770954" lon="10.949917228325875"><ele>612.6666666666666</ele><time>2026-04-26T17:01:17Z</time></trkpt><trkpt lat="43.45134339988931" lon="10.949793472331754"><ele>609.0</ele><time>2026-04-26T17:01:18Z</time></trkpt><trkpt lat="43.451508129895885" lon="10.949626490249608"><ele>609.0</ele><time>2026-04-26T17:01:19Z</time></trkpt><trkpt lat="43.45165627949188" lon="10.949500055114719"><ele>609.0</ele><time>2026-04-26T17:01:20Z</time></trkpt><trkpt lat="43.45179711967557" lon="10.949386787996833"><ele>609.0</ele><time>2026-04-26T17:01:21Z</time></trkpt><trkpt lat="43.451928187085805" lon="10.949300687670727"><ele>609.0</ele><time>2026-04-26T17:01:22Z</time></trkpt><trkpt lat="43.452070772648916" lon="10.949263130674582"><ele>609.0</ele><time>2026-04-26T17:01:23Z</time></trkpt><trkpt lat="43.452211088172966" lon="10.949244504324763"><ele>609.0</ele><time>2026-04-26T17:01:24Z</time></trkpt><trkpt lat="43.452325355494395" lon="10.949198960386777"><ele>609.0</ele><time>2026-04-26T17:01:25Z</time></trkpt><trkpt lat="43.45243638248484" lon="10.949160148177997"><ele>604.5</ele><time>2026-04-26T17:01:26Z</time></trkpt><trkpt lat="43.45253607268702" lon="10.949058584433466"><ele>600.0</ele><time>2026-04-26T17:01:27Z</time></trkpt><trkpt lat="43.45263515675836" lon="10.948890381207105"><ele>595.5</ele><time>2026-04-26T17:01:28Z</time></trkpt><trkpt lat="43.452730416126116" lon="10.948724115453059"><ele>591.0</ele><time>2026-04-26T17:01:29Z</time></trkpt><trkpt lat="43.45282823178455" lon="10.948594314269606"><ele>591.0</ele><time>2026-04-26T17:01:30Z</time></trkpt><trkpt lat="43.452918030396596" lon="10.948510679800908"><ele>591.0</ele><time>2026-04-26T17:01:31Z</time></trkpt><trkpt lat="43.4530080704189" lon="10.948458132357723"><ele>591.0</ele><time>2026-04-26T17:01:32Z</time></trkpt><trkpt lat="43.45308986216965" lon="10.948473492973982"><ele>591.0</ele><time>2026-04-26T17:01:33Z</time></trkpt><trkpt lat="43.453160978012455" lon="10.948552280018474"><ele>591.0</ele><time>2026-04-26T17:01:34Z</time></trkpt><trkpt lat="43.453186815359835" lon="10.948736207238333"><ele>589.0</ele><time>2026-04-26T17:01:35Z</time></trkpt><trkpt lat="43.453300286797514" lon="10.94888275522549"><ele>587.0</ele><time>2026-04-26T17:01:36Z</time></trkpt><trkpt lat="43.45344825042622" lon="10.948949966744143"><ele>585.0</ele><time>2026-04-26T17:01:37Z</time></trkpt><trkpt lat="43.45361405423002" lon="10.949025561019434"><ele>581.6666666666666</ele><time>2026-04-26T17:01:38Z</time></trkpt><trkpt lat="43.453802743197976" lon="10.94910523948211"><ele>578.3333333333333</ele><time>2026-04-26T17:01:39Z</time></trkpt><trkpt lat="43.453975198944306" lon="10.949196533410998"><ele>575.0</ele><time>2026-04-26T17:01:40Z</time></trkpt><trkpt lat="43.45412069563673" lon="10.949335566229324"><ele>575.0</ele><time>2026-04-26T17:01:41Z</time></trkpt><trkpt lat="43.45425203168794" lon="10.949412368517343"><ele>575.0</ele><time>2026-04-26T17:01:42Z</time></trkpt><trkpt lat="43.45437468627733" lon="10.949453386982764"><ele>575.0</ele><time>2026-04-26T17:01:43Z</time></trkpt><trkpt lat="43.45447931630238" lon="10.94948034088689"><ele>575.0</ele><time>2026-04-26T17:01:44Z</time></trkpt><trkpt lat="43.45455498719467" lon="10.94957378825134"><ele>575.0</ele><time>2026-04-26T17:01:45Z</time></trkpt><trkpt lat="43.454602221481565" lon="10.949698533776736"><ele>575.0</ele><time>2026-04-26T17:01:46Z</time></trkpt><trkpt lat="43.45459527417778" lon="10.949868412487431"><ele>575.0</ele><time>2026-04-26T17:01:47Z</time></trkpt><trkpt lat="43.45458905167272" lon="10.950070984799263"><ele>575.0</ele><time>2026-04-26T17:01:48Z</time></trkpt><trkpt lat="43.454573172400856" lon="10.950286364208258"><ele>575.2</ele><time>2026-04-26T17:01:49Z</time></trkpt><trkpt lat="43.454564158172666" lon="10.950464998387607"><ele>575.4</ele><time>2026-04-26T17:01:50Z</time></trkpt><trkpt lat="43.45456495149115" lon="10.950603125900992"><ele>575.6</ele><time>2026-04-26T17:01:51Z</time></trkpt><trkpt lat="43.454602044838474" lon="10.95072128950549"><ele>575.8</ele><time>2026-04-26T17:01:52Z</time></trkpt><trkpt lat="43.454686196523646" lon="10.950775277669532"><ele>576.0</ele><time>2026-04-26T17:01:53.001Z</time></trkpt><trkpt lat="43.45476576782478" lon="10.950789455540425"><ele>571.6</ele><time>2026-04-26T17:01:54.001Z</time></trkpt><trkpt lat="43.45484701948846" lon="10.950737885093286"><ele>567.2</ele><time>2026-04-26T17:01:55.001Z</time></trkpt><trkpt lat="43.45491107300632" lon="10.950625273647438"><ele>562.8</ele><time>2026-04-26T17:01:56.001Z</time></trkpt><trkpt lat="43.45497246582324" lon="10.950525944173542"><ele>558.4</ele><time>2026-04-26T17:01:57.001Z</time></trkpt><trkpt lat="43.455053022209455" lon="10.950471966176094"><ele>554.0</ele><time>2026-04-26T17:01:58.001Z</time></trkpt><trkpt lat="43.455145112837734" lon="10.950471665237759"><ele>554.0</ele><time>2026-04-26T17:01:59.001Z</time></trkpt><trkpt lat="43.45522672234497" lon="10.950567799772505"><ele>554.0</ele><time>2026-04-26T17:02:00.001Z</time></trkpt><trkpt lat="43.455317926069554" lon="10.950606925139173"><ele>554.0</ele><time>2026-04-26T17:02:01.001Z</time></trkpt><trkpt lat="43.45542022043452" lon="10.950639026860998"><ele>554.0</ele><time>2026-04-26T17:02:02.001Z</time></trkpt><trkpt lat="43.45556248467234" lon="10.950607782538652"><ele>549.6666666666666</ele><time>2026-04-26T17:02:03.001Z</time></trkpt><trkpt lat="43.455723207959714" lon="10.950518631235683"><ele>545.3333333333334</ele><time>2026-04-26T17:02:04.001Z</time></trkpt><trkpt lat="43.45589034087845" lon="10.950442839760695"><ele>541.0</ele><time>2026-04-26T17:02:05.001Z</time></trkpt><trkpt lat="43.45606478817331" lon="10.950345370470883"><ele>541.0</ele><time>2026-04-26T17:02:06.001Z</time></trkpt><trkpt lat="43.45626911751311" lon="10.950295257927435"><ele>541.0</ele><time>2026-04-26T17:02:07.001Z</time></trkpt><trkpt lat="43.45650180116187" lon="10.950298118807941"><ele>541.0</ele><time>2026-04-26T17:02:08.001Z</time></trkpt><trkpt lat="43.456760468653044" lon="10.950287686581838"><ele>538.5</ele><time>2026-04-26T17:02:09.001Z</time></trkpt><trkpt lat="43.457032840358" lon="10.950271908913958"><ele>536.0</ele><time>2026-04-26T17:02:10.001Z</time></trkpt><trkpt lat="43.45729473474396" lon="10.950258390786406"><ele>535.5</ele><time>2026-04-26T17:02:11.001Z</time></trkpt><trkpt lat="43.457527487005635" lon="10.95024947057828"><ele>535.0</ele><time>2026-04-26T17:02:12.001Z</time></trkpt><trkpt lat="43.45774912581109" lon="10.950236448632316"><ele>534.0</ele><time>2026-04-26T17:02:13.001Z</time></trkpt><trkpt lat="43.457965881283805" lon="10.950230646780705"><ele>533.0</ele><time>2026-04-26T17:02:14.001Z</time></trkpt><trkpt lat="43.45817401344695" lon="10.950202268858792"><ele>532.0</ele><time>2026-04-26T17:02:15.001Z</time></trkpt><trkpt lat="43.45837276510341" lon="10.950204505611142"><ele>532.0</ele><time>2026-04-26T17:02:16.001Z</time></trkpt><trkpt lat="43.45855907356789" lon="10.950219882539024"><ele>532.0</ele><time>2026-04-26T17:02:17.001Z</time></trkpt><trkpt lat="43.458748295749935" lon="10.95025941471939"><ele>532.0</ele><time>2026-04-26T17:02:18.001Z</time></trkpt><trkpt lat="43.45894260116596" lon="10.950300955771013"><ele>533.6666666666667</ele><time>2026-04-26T17:02:19.001Z</time></trkpt><trkpt lat="43.4591355758427" lon="10.950325788838601"><ele>535.3333333333334</ele><time>2026-04-26T17:02:20.001Z</time></trkpt><trkpt lat="43.45932753923402" lon="10.950338094705778"><ele>537.0</ele><time>2026-04-26T17:02:21.001Z</time></trkpt><trkpt lat="43.45951367889486" lon="10.950346156305711"><ele>537.0</ele><time>2026-04-26T17:02:22.001Z</time></trkpt><trkpt lat="43.45970073929078" lon="10.95035275526998"><ele>537.0</ele><time>2026-04-26T17:02:23.001Z</time></trkpt><trkpt lat="43.45988105283298" lon="10.950355506976956"><ele>537.0</ele><time>2026-04-26T17:02:24.001Z</time></trkpt><trkpt lat="43.460055324768504" lon="10.950361213137159"><ele>537.0</ele><time>2026-04-26T17:02:25.001Z</time></trkpt><trkpt lat="43.46023005375243" lon="10.950387126981733"><ele>537.0</ele><time>2026-04-26T17:02:26.001Z</time></trkpt><trkpt lat="43.46039730530632" lon="10.95044047395301"><ele>537.0</ele><time>2026-04-26T17:02:27.001Z</time></trkpt><trkpt lat="43.460553059503795" lon="10.950504023475379"><ele>535.0</ele><time>2026-04-26T17:02:28.001Z</time></trkpt><trkpt lat="43.46071150280125" lon="10.950558228939075"><ele>533.0</ele><time>2026-04-26T17:02:29.001Z</time></trkpt><trkpt lat="43.46087574333702" lon="10.950586948464322"><ele>531.0</ele><time>2026-04-26T17:02:30.001Z</time></trkpt><trkpt lat="43.461043642416534" lon="10.95058358596974"><ele>531.0</ele><time>2026-04-26T17:02:31.001Z</time></trkpt><trkpt lat="43.461200368631644" lon="10.950569738256087"><ele>531.0</ele><time>2026-04-26T17:02:32.001Z</time></trkpt><trkpt lat="43.461344039325404" lon="10.950519322865057"><ele>531.0</ele><time>2026-04-26T17:02:33.001Z</time></trkpt><trkpt lat="43.461471826094524" lon="10.950474601905102"><ele>531.0</ele><time>2026-04-26T17:02:34.001Z</time></trkpt><trkpt lat="43.4615877363732" lon="10.950493777650795"><ele>530.0</ele><time>2026-04-26T17:02:35.001Z</time></trkpt><trkpt lat="43.46170861916881" lon="10.950572917033208"><ele>529.0</ele><time>2026-04-26T17:02:36.001Z</time></trkpt><trkpt lat="43.461816683616576" lon="10.950713632440507"><ele>528.0</ele><time>2026-04-26T17:02:37.001Z</time></trkpt><trkpt lat="43.461916375715916" lon="10.950846570158252"><ele>527.0</ele><time>2026-04-26T17:02:38.001Z</time></trkpt><trkpt lat="43.46202933763432" lon="10.950965680699637"><ele>523.6666666666666</ele><time>2026-04-26T17:02:39.001Z</time></trkpt><trkpt lat="43.462183583872886" lon="10.951072448624515"><ele>520.3333333333334</ele><time>2026-04-26T17:02:40.001Z</time></trkpt><trkpt lat="43.46236472789017" lon="10.951154006306819"><ele>517.0</ele><time>2026-04-26T17:02:41.001Z</time></trkpt><trkpt lat="43.46253139705391" lon="10.951226813254626"><ele>517.0</ele><time>2026-04-26T17:02:42.001Z</time></trkpt><trkpt lat="43.46268834442549" lon="10.951296328313163"><ele>517.0</ele><time>2026-04-26T17:02:43.001Z</time></trkpt><trkpt lat="43.462829027968645" lon="10.951338105168066"><ele>517.0</ele><time>2026-04-26T17:02:44.001Z</time></trkpt><trkpt lat="43.46292795286216" lon="10.951426925033768"><ele>517.0</ele><time>2026-04-26T17:02:45.001Z</time></trkpt><trkpt lat="43.46301322281842" lon="10.951523905657437"><ele>517.25</ele><time>2026-04-26T17:02:46.001Z</time></trkpt><trkpt lat="43.46307496496212" lon="10.951669256150888"><ele>517.5</ele><time>2026-04-26T17:02:47.001Z</time></trkpt><trkpt lat="43.46314041526582" lon="10.951823969899086"><ele>517.75</ele><time>2026-04-26T17:02:48.001Z</time></trkpt><trkpt lat="43.46321294298764" lon="10.951958289825816"><ele>518.0</ele><time>2026-04-26T17:02:49.001Z</time></trkpt><trkpt lat="43.46332448578629" lon="10.952048197919025"><ele>514.3333333333333</ele><time>2026-04-26T17:02:50.001Z</time></trkpt><trkpt lat="43.46345266004581" lon="10.952134061884394"><ele>510.66666666666663</ele><time>2026-04-26T17:02:51.001Z</time></trkpt><trkpt lat="43.46360015733298" lon="10.952165068891382"><ele>507.0</ele><time>2026-04-26T17:02:52.001Z</time></trkpt><trkpt lat="43.463763926772806" lon="10.952139304150553"><ele>504.33333333333337</ele><time>2026-04-26T17:02:53.001Z</time></trkpt><trkpt lat="43.46395079739144" lon="10.952088047523858"><ele>501.6666666666667</ele><time>2026-04-26T17:02:54.001Z</time></trkpt><trkpt lat="43.46414624059646" lon="10.952005362469992"><ele>499.0</ele><time>2026-04-26T17:02:55.001Z</time></trkpt><trkpt lat="43.464377868963474" lon="10.95193422073242"><ele>496.5</ele><time>2026-04-26T17:02:56.002Z</time></trkpt><trkpt lat="43.46461934479626" lon="10.951853341864174"><ele>494.0</ele><time>2026-04-26T17:02:57.002Z</time></trkpt><trkpt lat="43.46485026535711" lon="10.951774561819704"><ele>494.0</ele><time>2026-04-26T17:02:58.002Z</time></trkpt><trkpt lat="43.465069016781825" lon="10.951726066241953"><ele>494.0</ele><time>2026-04-26T17:02:59.002Z</time></trkpt><trkpt lat="43.46527809687466" lon="10.951663959682856"><ele>494.0</ele><time>2026-04-26T17:03:00.002Z</time></trkpt><trkpt lat="43.465480849791646" lon="10.951598455949922"><ele>495.0</ele><time>2026-04-26T17:03:01.002Z</time></trkpt><trkpt lat="43.465673395700435" lon="10.951521553698425"><ele>496.0</ele><time>2026-04-26T17:03:02.002Z</time></trkpt><trkpt lat="43.46585625689653" lon="10.951469799312218"><ele>497.0</ele><time>2026-04-26T17:03:03.002Z</time></trkpt><trkpt lat="43.46602678155204" lon="10.951413689525857"><ele>497.0</ele><time>2026-04-26T17:03:04.002Z</time></trkpt><trkpt lat="43.46616490349643" lon="10.951341452922472"><ele>497.0</ele><time>2026-04-26T17:03:05.002Z</time></trkpt><trkpt lat="43.46629841120474" lon="10.951248942948391"><ele>497.0</ele><time>2026-04-26T17:03:06.002Z</time></trkpt><trkpt lat="43.46644903032893" lon="10.951111108037141"><ele>497.66666666666663</ele><time>2026-04-26T17:03:07.002Z</time></trkpt><trkpt lat="43.4666207671368" lon="10.950931754534533"><ele>498.33333333333337</ele><time>2026-04-26T17:03:08.002Z</time></trkpt><trkpt lat="43.46678787413163" lon="10.950765785666377"><ele>499.0</ele><time>2026-04-26T17:03:09.002Z</time></trkpt><trkpt lat="43.46694760219465" lon="10.950609525219573"><ele>494.0</ele><time>2026-04-26T17:03:10.002Z</time></trkpt><trkpt lat="43.467113031379306" lon="10.950458308813305"><ele>489.0</ele><time>2026-04-26T17:03:11.002Z</time></trkpt><trkpt lat="43.46728897294952" lon="10.95029711529806"><ele>484.0</ele><time>2026-04-26T17:03:12.002Z</time></trkpt><trkpt lat="43.467471144855764" lon="10.950158356432535"><ele>484.33333333333337</ele><time>2026-04-26T17:03:13Z</time></trkpt><trkpt lat="43.467651692409056" lon="10.950039672254558"><ele>484.66666666666663</ele><time>2026-04-26T17:03:14Z</time></trkpt><trkpt lat="43.46781356302797" lon="10.9499452485329"><ele>485.0</ele><time>2026-04-26T17:03:15Z</time></trkpt><trkpt lat="43.467954014310486" lon="10.949880194608127"><ele>485.0</ele><time>2026-04-26T17:03:16Z</time></trkpt><trkpt lat="43.468079204912215" lon="10.949843409745462"><ele>485.0</ele><time>2026-04-26T17:03:17Z</time></trkpt><trkpt lat="43.468217792749435" lon="10.949853315086667"><ele>485.0</ele><time>2026-04-26T17:03:18Z</time></trkpt><trkpt lat="43.46836629812384" lon="10.949849613381437"><ele>485.0</ele><time>2026-04-26T17:03:19Z</time></trkpt><trkpt lat="43.468507541398125" lon="10.949888190828709"><ele>485.0</ele><time>2026-04-26T17:03:20Z</time></trkpt><trkpt lat="43.46862175613929" lon="10.94998599774774"><ele>485.0</ele><time>2026-04-26T17:03:21Z</time></trkpt><trkpt lat="43.46871522752952" lon="10.950092656485353"><ele>485.0</ele><time>2026-04-26T17:03:22Z</time></trkpt><trkpt lat="43.46879117803317" lon="10.950242270332813"><ele>485.0</ele><time>2026-04-26T17:03:23Z</time></trkpt><trkpt lat="43.468883771663144" lon="10.950418365680479"><ele>483.5</ele><time>2026-04-26T17:03:24Z</time></trkpt><trkpt lat="43.46897130997015" lon="10.950588667626858"><ele>482.0</ele><time>2026-04-26T17:03:25Z</time></trkpt><trkpt lat="43.46905751473445" lon="10.950740854104072"><ele>480.5</ele><time>2026-04-26T17:03:26Z</time></trkpt><trkpt lat="43.46917200831199" lon="10.950849331027177"><ele>479.0</ele><time>2026-04-26T17:03:27Z</time></trkpt><trkpt lat="43.46928250159824" lon="10.950946072954164"><ele>474.66666666666663</ele><time>2026-04-26T17:03:28Z</time></trkpt><trkpt lat="43.46943412646404" lon="10.951012757631617"><ele>470.33333333333337</ele><time>2026-04-26T17:03:29Z</time></trkpt><trkpt lat="43.46961426368583" lon="10.951065554514718"><ele>466.0</ele><time>2026-04-26T17:03:30Z</time></trkpt><trkpt lat="43.46982493976037" lon="10.95108550262282"><ele>466.0</ele><time>2026-04-26T17:03:31Z</time></trkpt><trkpt lat="43.47002075522179" lon="10.951100376330874"><ele>466.0</ele><time>2026-04-26T17:03:32Z</time></trkpt><trkpt lat="43.47021308374835" lon="10.951109748119665"><ele>466.0</ele><time>2026-04-26T17:03:33Z</time></trkpt><trkpt lat="43.47039638224826" lon="10.951143382733203"><ele>464.0</ele><time>2026-04-26T17:03:34Z</time></trkpt><trkpt lat="43.47058043684056" lon="10.95121922568427"><ele>462.0</ele><time>2026-04-26T17:03:35Z</time></trkpt><trkpt lat="43.47075727293423" lon="10.951263868270045"><ele>460.0</ele><time>2026-04-26T17:03:36Z</time></trkpt><trkpt lat="43.47092819297704" lon="10.951325278197364"><ele>460.0</ele><time>2026-04-26T17:03:37Z</time></trkpt><trkpt lat="43.4710972441815" lon="10.95137580619304"><ele>460.0</ele><time>2026-04-26T17:03:38Z</time></trkpt><trkpt lat="43.471261942909756" lon="10.95140601429443"><ele>460.0</ele><time>2026-04-26T17:03:39Z</time></trkpt><trkpt lat="43.47142322445186" lon="10.95139380064405"><ele>460.0</ele><time>2026-04-26T17:03:40Z</time></trkpt><trkpt lat="43.47160728417042" lon="10.951322784250134"><ele>460.0</ele><time>2026-04-26T17:03:41Z</time></trkpt><trkpt lat="43.47177500293659" lon="10.951257446020163"><ele>460.0</ele><time>2026-04-26T17:03:42Z</time></trkpt><trkpt lat="43.471931314106385" lon="10.951234232462177"><ele>460.0</ele><time>2026-04-26T17:03:43Z</time></trkpt><trkpt lat="43.47207404048904" lon="10.951191244618173"><ele>460.0</ele><time>2026-04-26T17:03:44Z</time></trkpt><trkpt lat="43.472215928438814" lon="10.951228444583927"><ele>460.0</ele><time>2026-04-26T17:03:45Z</time></trkpt><trkpt lat="43.472359501247986" lon="10.951289302234924"><ele>460.0</ele><time>2026-04-26T17:03:46Z</time></trkpt><trkpt lat="43.47252878811117" lon="10.95137266834752"><ele>460.6666666666667</ele><time>2026-04-26T17:03:47Z</time></trkpt><trkpt lat="43.47267339731465" lon="10.951479770684346"><ele>461.33333333333337</ele><time>2026-04-26T17:03:48Z</time></trkpt><trkpt lat="43.47284086998062" lon="10.951554898508297"><ele>462.0</ele><time>2026-04-26T17:03:49Z</time></trkpt><trkpt lat="43.47301221430244" lon="10.951584520619358"><ele>464.0</ele><time>2026-04-26T17:03:50Z</time></trkpt><trkpt lat="43.47317151685938" lon="10.95159189988308"><ele>466.0</ele><time>2026-04-26T17:03:51Z</time></trkpt><trkpt lat="43.47331719125872" lon="10.951645461881062"><ele>468.0</ele><time>2026-04-26T17:03:52Z</time></trkpt><trkpt lat="43.473451382867566" lon="10.951723407988247"><ele>466.5</ele><time>2026-04-26T17:03:53Z</time></trkpt><trkpt lat="43.47357214774566" lon="10.951843183892134"><ele>465.0</ele><time>2026-04-26T17:03:54.001Z</time></trkpt><trkpt lat="43.473666623236234" lon="10.951975212875722"><ele>463.5</ele><time>2026-04-26T17:03:55.001Z</time></trkpt><trkpt lat="43.473754541286354" lon="10.952099400681568"><ele>462.0</ele><time>2026-04-26T17:03:56.001Z</time></trkpt><trkpt lat="43.4738511955845" lon="10.952211173406178"><ele>462.0</ele><time>2026-04-26T17:03:57.001Z</time></trkpt><trkpt lat="43.47395430429324" lon="10.95228750163996"><ele>462.0</ele><time>2026-04-26T17:03:58.001Z</time></trkpt><trkpt lat="43.474074584470465" lon="10.952315957694497"><ele>462.0</ele><time>2026-04-26T17:03:59.001Z</time></trkpt><trkpt lat="43.47421524318932" lon="10.952303613208784"><ele>462.0</ele><time>2026-04-26T17:04:00.001Z</time></trkpt><trkpt lat="43.474365476334704" lon="10.952302393640535"><ele>462.0</ele><time>2026-04-26T17:04:01.001Z</time></trkpt><trkpt lat="43.47449223639384" lon="10.952305808754893"><ele>462.0</ele><time>2026-04-26T17:04:02.001Z</time></trkpt><trkpt lat="43.474621314141395" lon="10.952355922619086"><ele>462.0</ele><time>2026-04-26T17:04:03.001Z</time></trkpt><trkpt lat="43.47477224528293" lon="10.952438046361172"><ele>462.0</ele><time>2026-04-26T17:04:04.001Z</time></trkpt><trkpt lat="43.474949193487895" lon="10.952537111525965"><ele>455.5</ele><time>2026-04-26T17:04:05.001Z</time></trkpt><trkpt lat="43.475152532635384" lon="10.952642423415865"><ele>449.0</ele><time>2026-04-26T17:04:06.001Z</time></trkpt><trkpt lat="43.475375783155364" lon="10.9527318476644"><ele>451.66666666666663</ele><time>2026-04-26T17:04:07.001Z</time></trkpt><trkpt lat="43.47557847797093" lon="10.952847146393076"><ele>454.33333333333337</ele><time>2026-04-26T17:04:08.001Z</time></trkpt><trkpt lat="43.475790724227416" lon="10.952921189060808"><ele>457.0</ele><time>2026-04-26T17:04:09.001Z</time></trkpt><trkpt lat="43.475977848490544" lon="10.953022701028328"><ele>457.0</ele><time>2026-04-26T17:04:10.001Z</time></trkpt><trkpt lat="43.47614012244267" lon="10.953127578366288"><ele>457.0</ele><time>2026-04-26T17:04:11.001Z</time></trkpt><trkpt lat="43.476282896979235" lon="10.953239991062052"><ele>457.0</ele><time>2026-04-26T17:04:12.001Z</time></trkpt><trkpt lat="43.4764310939265" lon="10.953360754776922"><ele>459.0</ele><time>2026-04-26T17:04:13.001Z</time></trkpt><trkpt lat="43.476597690296686" lon="10.953496799117486"><ele>461.0</ele><time>2026-04-26T17:04:14.001Z</time></trkpt><trkpt lat="43.47678810544834" lon="10.953646476859264"><ele>463.0</ele><time>2026-04-26T17:04:15.001Z</time></trkpt><trkpt lat="43.476985027385375" lon="10.953827587066344"><ele>462.33333333333337</ele><time>2026-04-26T17:04:16.001Z</time></trkpt><trkpt lat="43.4771767327575" lon="10.95398236094707"><ele>461.66666666666663</ele><time>2026-04-26T17:04:17.001Z</time></trkpt><trkpt lat="43.477356384506734" lon="10.95410315938435"><ele>461.0</ele><time>2026-04-26T17:04:18.001Z</time></trkpt><trkpt lat="43.47750200981636" lon="10.95422233015752"><ele>461.0</ele><time>2026-04-26T17:04:19.001Z</time></trkpt><trkpt lat="43.47763671820556" lon="10.954330792107555"><ele>461.0</ele><time>2026-04-26T17:04:20.001Z</time></trkpt><trkpt lat="43.47775029901082" lon="10.954406998479977"><ele>461.0</ele><time>2026-04-26T17:04:21.001Z</time></trkpt><trkpt lat="43.47787313870816" lon="10.954455801964725"><ele>461.0</ele><time>2026-04-26T17:04:22.001Z</time></trkpt><trkpt lat="43.478019558381156" lon="10.954455612469273"><ele>465.66666666666663</ele><time>2026-04-26T17:04:23.001Z</time></trkpt><trkpt lat="43.47818144544536" lon="10.9544363276166"><ele>470.33333333333337</ele><time>2026-04-26T17:04:24.001Z</time></trkpt><trkpt lat="43.478352673302275" lon="10.95443627615462"><ele>475.0</ele><time>2026-04-26T17:04:25.001Z</time></trkpt><trkpt lat="43.47854126768935" lon="10.954451849974692"><ele>475.0</ele><time>2026-04-26T17:04:26.001Z</time></trkpt><trkpt lat="43.47871738680878" lon="10.954441091780662"><ele>475.0</ele><time>2026-04-26T17:04:27.001Z</time></trkpt><trkpt lat="43.478889282656525" lon="10.954427013139275"><ele>475.0</ele><time>2026-04-26T17:04:28.001Z</time></trkpt><trkpt lat="43.47905752080579" lon="10.95439587245395"><ele>474.6666666666667</ele><time>2026-04-26T17:04:29.001Z</time></trkpt><trkpt lat="43.47924346657181" lon="10.954341524696469"><ele>474.33333333333337</ele><time>2026-04-26T17:04:30.001Z</time></trkpt><trkpt lat="43.47944791467336" lon="10.954257489058643"><ele>474.0</ele><time>2026-04-26T17:04:31.001Z</time></trkpt><trkpt lat="43.47965538218804" lon="10.95416433234292"><ele>472.33333333333337</ele><time>2026-04-26T17:04:32.001Z</time></trkpt><trkpt lat="43.479845659647445" lon="10.954082003570628"><ele>470.6666666666667</ele><time>2026-04-26T17:04:33.001Z</time></trkpt><trkpt lat="43.480029106294786" lon="10.954008993426624"><ele>469.0</ele><time>2026-04-26T17:04:34.001Z</time></trkpt><trkpt lat="43.48020597798705" lon="10.953935238567704"><ele>469.0</ele><time>2026-04-26T17:04:35.001Z</time></trkpt><trkpt lat="43.480378618190905" lon="10.953868060055864"><ele>469.0</ele><time>2026-04-26T17:04:36.001Z</time></trkpt><trkpt lat="43.48052260582745" lon="10.953803656283226"><ele>469.0</ele><time>2026-04-26T17:04:37.001Z</time></trkpt><trkpt lat="43.480641325719034" lon="10.953769479856396"><ele>469.0</ele><time>2026-04-26T17:04:38.001Z</time></trkpt><trkpt lat="43.48072419105738" lon="10.95375098304956"><ele>469.0</ele><time>2026-04-26T17:04:39.001Z</time></trkpt><trkpt lat="43.480822100003635" lon="10.953730752415018"><ele>469.0</ele><time>2026-04-26T17:04:40.001Z</time></trkpt><trkpt lat="43.48092546930949" lon="10.953538871333091"><ele>469.0</ele><time>2026-04-26T17:04:41.001Z</time></trkpt><trkpt lat="43.48105714309564" lon="10.953431673226703"><ele>469.0</ele><time>2026-04-26T17:04:42.001Z</time></trkpt><trkpt lat="43.48119656173671" lon="10.953325205395954"><ele>469.0</ele><time>2026-04-26T17:04:43.001Z</time></trkpt><trkpt lat="43.48132899893276" lon="10.95320782612285"><ele>469.0</ele><time>2026-04-26T17:04:44.001Z</time></trkpt><trkpt lat="43.48143983234114" lon="10.953064632454113"><ele>469.0</ele><time>2026-04-26T17:04:45.001Z</time></trkpt><trkpt lat="43.48153357881471" lon="10.95291271993699"><ele>469.0</ele><time>2026-04-26T17:04:46.001Z</time></trkpt><trkpt lat="43.48163043517813" lon="10.952779154147171"><ele>469.0</ele><time>2026-04-26T17:04:47.001Z</time></trkpt><trkpt lat="43.481722690869745" lon="10.95268051594345"><ele>469.0</ele><time>2026-04-26T17:04:48.001Z</time></trkpt><trkpt lat="43.481820587215644" lon="10.952625737067153"><ele>469.0</ele><time>2026-04-26T17:04:49.001Z</time></trkpt><trkpt lat="43.48192836498101" lon="10.952623104932863"><ele>469.0</ele><time>2026-04-26T17:04:50.001Z</time></trkpt><trkpt lat="43.482050988133956" lon="10.952698683203447"><ele>469.0</ele><time>2026-04-26T17:04:51.001Z</time></trkpt><trkpt lat="43.48215896766913" lon="10.95280230706875"><ele>469.0</ele><time>2026-04-26T17:04:52.001Z</time></trkpt><trkpt lat="43.482297564183035" lon="10.952866415472979"><ele>470.33333333333337</ele><time>2026-04-26T17:04:53.001Z</time></trkpt><trkpt lat="43.48242111971837" lon="10.952903581634917"><ele>471.66666666666663</ele><time>2026-04-26T17:04:54.001Z</time></trkpt><trkpt lat="43.48257463035991" lon="10.95292173953724"><ele>473.0</ele><time>2026-04-26T17:04:55.002Z</time></trkpt><trkpt lat="43.48275958230135" lon="10.952909308053561"><ele>470.66666666666663</ele><time>2026-04-26T17:04:56.002Z</time></trkpt><trkpt lat="43.48296585446455" lon="10.952874077146213"><ele>468.33333333333337</ele><time>2026-04-26T17:04:57.002Z</time></trkpt><trkpt lat="43.483183970768174" lon="10.952866573241913"><ele>466.0</ele><time>2026-04-26T17:04:58.002Z</time></trkpt><trkpt lat="43.483412959703124" lon="10.952831242598123"><ele>466.0</ele><time>2026-04-26T17:04:59.002Z</time></trkpt><trkpt lat="43.48360605354493" lon="10.952821397378392"><ele>466.0</ele><time>2026-04-26T17:05:00.002Z</time></trkpt><trkpt lat="43.48378239872214" lon="10.952810004081817"><ele>466.0</ele><time>2026-04-26T17:05:01.002Z</time></trkpt><trkpt lat="43.483951046277404" lon="10.952789465860793"><ele>466.5</ele><time>2026-04-26T17:05:02.002Z</time></trkpt><trkpt lat="43.48410252256802" lon="10.952771840255888"><ele>467.0</ele><time>2026-04-26T17:05:03.002Z</time></trkpt><trkpt lat="43.484226543373246" lon="10.95274739085571"><ele>467.5</ele><time>2026-04-26T17:05:04.002Z</time></trkpt><trkpt lat="43.48433070093947" lon="10.952712767826258"><ele>468.0</ele><time>2026-04-26T17:05:05.002Z</time></trkpt><trkpt lat="43.484425702116596" lon="10.952619126311827"><ele>466.66666666666663</ele><time>2026-04-26T17:05:06.002Z</time></trkpt><trkpt lat="43.48451548466863" lon="10.952471329823075"><ele>465.3333333333333</ele><time>2026-04-26T17:05:07.002Z</time></trkpt><trkpt lat="43.484610091858166" lon="10.952244915273496"><ele>464.0</ele><time>2026-04-26T17:05:08.002Z</time></trkpt><trkpt lat="43.48468678485881" lon="10.952042189498865"><ele>463.25</ele><time>2026-04-26T17:05:09.002Z</time></trkpt><trkpt lat="43.48476988334001" lon="10.951866634817774"><ele>462.5</ele><time>2026-04-26T17:05:10.002Z</time></trkpt><trkpt lat="43.484834432946904" lon="10.951711887584322"><ele>461.75</ele><time>2026-04-26T17:05:11.002Z</time></trkpt><trkpt lat="43.484872130483424" lon="10.951542098275095"><ele>461.0</ele><time>2026-04-26T17:05:12.002Z</time></trkpt><trkpt lat="43.48487404697292" lon="10.95134128188072"><ele>461.0</ele><time>2026-04-26T17:05:13.002Z</time></trkpt><trkpt lat="43.48485985820665" lon="10.951137242584148"><ele>461.0</ele><time>2026-04-26T17:05:14.002Z</time></trkpt><trkpt lat="43.4848588052338" lon="10.95095062241805"><ele>461.0</ele><time>2026-04-26T17:05:15.002Z</time></trkpt><trkpt lat="43.48484153520379" lon="10.95079507684514"><ele>461.0</ele><time>2026-04-26T17:05:16.002Z</time></trkpt><trkpt lat="43.48485011596838" lon="10.950671805866829"><ele>461.0</ele><time>2026-04-26T17:05:17.002Z</time></trkpt><trkpt lat="43.48487852559746" lon="10.950557361917824"><ele>461.0</ele><time>2026-04-26T17:05:18.002Z</time></trkpt><trkpt lat="43.48494364794775" lon="10.950466934220186"><ele>461.0</ele><time>2026-04-26T17:05:19Z</time></trkpt><trkpt lat="43.48502633609461" lon="10.950382576684706"><ele>461.0</ele><time>2026-04-26T17:05:20Z</time></trkpt><trkpt lat="43.485139476814346" lon="10.950332664551235"><ele>461.0</ele><time>2026-04-26T17:05:21Z</time></trkpt><trkpt lat="43.48523421526067" lon="10.95027761280021"><ele>461.0</ele><time>2026-04-26T17:05:22Z</time></trkpt><trkpt lat="43.48532090607309" lon="10.950180536506148"><ele>461.0</ele><time>2026-04-26T17:05:23Z</time></trkpt><trkpt lat="43.48538522751943" lon="10.950043397600624"><ele>461.0</ele><time>2026-04-26T17:05:24Z</time></trkpt><trkpt lat="43.485413171181094" lon="10.949859924748408"><ele>461.0</ele><time>2026-04-26T17:05:25Z</time></trkpt><trkpt lat="43.48541926631432" lon="10.949650155058318"><ele>456.0</ele><time>2026-04-26T17:05:26Z</time></trkpt><trkpt lat="43.48539938712255" lon="10.94942094685452"><ele>451.0</ele><time>2026-04-26T17:05:27Z</time></trkpt><trkpt lat="43.485376479913825" lon="10.949193519770398"><ele>446.0</ele><time>2026-04-26T17:05:28Z</time></trkpt><trkpt lat="43.48536456831958" lon="10.94894736492541"><ele>443.3333333333333</ele><time>2026-04-26T17:05:29Z</time></trkpt><trkpt lat="43.485369216768554" lon="10.948727990699304"><ele>440.66666666666663</ele><time>2026-04-26T17:05:30Z</time></trkpt><trkpt lat="43.48538675903875" lon="10.948507898367895"><ele>438.0</ele><time>2026-04-26T17:05:31Z</time></trkpt><trkpt lat="43.48541509125236" lon="10.948291901357548"><ele>440.0</ele><time>2026-04-26T17:05:32Z</time></trkpt><trkpt lat="43.48546157822624" lon="10.948057461167895"><ele>442.0</ele><time>2026-04-26T17:05:33Z</time></trkpt><trkpt lat="43.485521529018925" lon="10.947803897163213"><ele>444.0</ele><time>2026-04-26T17:05:34Z</time></trkpt><trkpt lat="43.48559371155568" lon="10.947518493522029"><ele>444.0</ele><time>2026-04-26T17:05:35Z</time></trkpt><trkpt lat="43.485665559436384" lon="10.94723581641012"><ele>444.0</ele><time>2026-04-26T17:05:36Z</time></trkpt><trkpt lat="43.48573304600012" lon="10.946981381301931"><ele>444.0</ele><time>2026-04-26T17:05:37Z</time></trkpt><trkpt lat="43.485797568169204" lon="10.946745884171287"><ele>443.75</ele><time>2026-04-26T17:05:38Z</time></trkpt><trkpt lat="43.4858579770444" lon="10.946534369554296"><ele>443.5</ele><time>2026-04-26T17:05:39Z</time></trkpt><trkpt lat="43.48591845593641" lon="10.946351856439879"><ele>443.25</ele><time>2026-04-26T17:05:40Z</time></trkpt><trkpt lat="43.48598062941601" lon="10.946196340082482"><ele>443.0</ele><time>2026-04-26T17:05:41Z</time></trkpt><trkpt lat="43.48608313568368" lon="10.946025303984847"><ele>443.3333333333333</ele><time>2026-04-26T17:05:42Z</time></trkpt><trkpt lat="43.4862166439815" lon="10.945832462763024"><ele>443.66666666666663</ele><time>2026-04-26T17:05:43Z</time></trkpt><trkpt lat="43.48635574011418" lon="10.945638633905338"><ele>444.0</ele><time>2026-04-26T17:05:44Z</time></trkpt><trkpt lat="43.486476614044605" lon="10.945459193169189"><ele>444.0</ele><time>2026-04-26T17:05:45Z</time></trkpt><trkpt lat="43.48658130200475" lon="10.94527408099354"><ele>444.0</ele><time>2026-04-26T17:05:46Z</time></trkpt><trkpt lat="43.48666857680437" lon="10.945062345887848"><ele>444.0</ele><time>2026-04-26T17:05:47Z</time></trkpt><trkpt lat="43.486743207741235" lon="10.94481180086908"><ele>443.66666666666663</ele><time>2026-04-26T17:05:48Z</time></trkpt><trkpt lat="43.48680621904422" lon="10.944554465290166"><ele>443.3333333333333</ele><time>2026-04-26T17:05:49Z</time></trkpt><trkpt lat="43.48686426041274" lon="10.94432719276836"><ele>443.0</ele><time>2026-04-26T17:05:50Z</time></trkpt><trkpt lat="43.486917012199406" lon="10.944113008660075"><ele>443.0</ele><time>2026-04-26T17:05:51Z</time></trkpt><trkpt lat="43.48696740564905" lon="10.943912236459393"><ele>443.0</ele><time>2026-04-26T17:05:52Z</time></trkpt><trkpt lat="43.487020061401125" lon="10.943734792533528"><ele>443.0</ele><time>2026-04-26T17:05:53Z</time></trkpt><trkpt lat="43.48707803183235" lon="10.943577019925009"><ele>443.0</ele><time>2026-04-26T17:05:54Z</time></trkpt><trkpt lat="43.48714609109222" lon="10.943425939584268"><ele>448.3333333333333</ele><time>2026-04-26T17:05:55Z</time></trkpt><trkpt lat="43.487248959930845" lon="10.943276131627535"><ele>453.66666666666663</ele><time>2026-04-26T17:05:56Z</time></trkpt><trkpt lat="43.48737521762335" lon="10.943115404737568"><ele>459.0</ele><time>2026-04-26T17:05:57Z</time></trkpt><trkpt lat="43.48751014326871" lon="10.94294679683433"><ele>459.0</ele><time>2026-04-26T17:05:58Z</time></trkpt><trkpt lat="43.487631674362326" lon="10.942796670401176"><ele>459.0</ele><time>2026-04-26T17:05:59.001Z</time></trkpt><trkpt lat="43.48775080092176" lon="10.94265695760243"><ele>459.0</ele><time>2026-04-26T17:06:00.001Z</time></trkpt><trkpt lat="43.487854926253874" lon="10.942514734305458"><ele>459.66666666666663</ele><time>2026-04-26T17:06:01.001Z</time></trkpt><trkpt lat="43.487940224434624" lon="10.942353812900382"><ele>460.3333333333333</ele><time>2026-04-26T17:06:02.001Z</time></trkpt><trkpt lat="43.48801210379887" lon="10.942147483939134"><ele>461.0</ele><time>2026-04-26T17:06:03.001Z</time></trkpt><trkpt lat="43.48807173371737" lon="10.941907384039137"><ele>459.3333333333333</ele><time>2026-04-26T17:06:04.001Z</time></trkpt><trkpt lat="43.48811372648885" lon="10.94167740710152"><ele>457.66666666666663</ele><time>2026-04-26T17:06:05.001Z</time></trkpt><trkpt lat="43.4881519593541" lon="10.941472372201137"><ele>456.0</ele><time>2026-04-26T17:06:06.001Z</time></trkpt><trkpt lat="43.48819590059079" lon="10.941285714899179"><ele>456.0</ele><time>2026-04-26T17:06:07.001Z</time></trkpt><trkpt lat="43.48825101092527" lon="10.94112479049992"><ele>456.0</ele><time>2026-04-26T17:06:08.001Z</time></trkpt><trkpt lat="43.488317968464855" lon="10.941003297836055"><ele>456.0</ele><time>2026-04-26T17:06:09.001Z</time></trkpt><trkpt lat="43.48842876236634" lon="10.940901687379215"><ele>456.0</ele><time>2026-04-26T17:06:10.001Z</time></trkpt><trkpt lat="43.48857788706154" lon="10.94081160327956"><ele>454.0</ele><time>2026-04-26T17:06:11.001Z</time></trkpt><trkpt lat="43.48874156240092" lon="10.940713711373554"><ele>452.0</ele><time>2026-04-26T17:06:12.001Z</time></trkpt><trkpt lat="43.488891821272965" lon="10.940620290970475"><ele>450.0</ele><time>2026-04-26T17:06:13.001Z</time></trkpt><trkpt lat="43.48902908140947" lon="10.94053321406228"><ele>450.0</ele><time>2026-04-26T17:06:14.001Z</time></trkpt><trkpt lat="43.48915371409752" lon="10.940448492296023"><ele>450.0</ele><time>2026-04-26T17:06:15.001Z</time></trkpt><trkpt lat="43.48925776806119" lon="10.940344639198782"><ele>450.0</ele><time>2026-04-26T17:06:16.001Z</time></trkpt><trkpt lat="43.48934112182222" lon="10.94021896412263"><ele>450.0</ele><time>2026-04-26T17:06:17.001Z</time></trkpt><trkpt lat="43.489397521170844" lon="10.940055360066893"><ele>451.66666666666663</ele><time>2026-04-26T17:06:18.001Z</time></trkpt><trkpt lat="43.48943288114373" lon="10.93985534550641"><ele>453.3333333333333</ele><time>2026-04-26T17:06:19.001Z</time></trkpt><trkpt lat="43.48945510264535" lon="10.939619235988667"><ele>455.0</ele><time>2026-04-26T17:06:20.001Z</time></trkpt><trkpt lat="43.48947705740575" lon="10.939342862701917"><ele>454.0</ele><time>2026-04-26T17:06:21.001Z</time></trkpt><trkpt lat="43.48949988857196" lon="10.939040820039352"><ele>453.0</ele><time>2026-04-26T17:06:22.001Z</time></trkpt><trkpt lat="43.489531159796165" lon="10.938719858995878"><ele>453.0</ele><time>2026-04-26T17:06:23.001Z</time></trkpt><trkpt lat="43.489562540555234" lon="10.938389748657341"><ele>453.0</ele><time>2026-04-26T17:06:24.001Z</time></trkpt><trkpt lat="43.489599721461026" lon="10.938047750501347"><ele>451.0</ele><time>2026-04-26T17:06:25.001Z</time></trkpt><trkpt lat="43.48963632815421" lon="10.937697644081025"><ele>449.0</ele><time>2026-04-26T17:06:26.001Z</time></trkpt><trkpt lat="43.48967185684412" lon="10.937348575445823"><ele>449.0</ele><time>2026-04-26T17:06:27.001Z</time></trkpt><trkpt lat="43.48971038650282" lon="10.936982588589393"><ele>449.0</ele><time>2026-04-26T17:06:28.001Z</time></trkpt><trkpt lat="43.48974797657663" lon="10.93661920944173"><ele>449.5</ele><time>2026-04-26T17:06:29.001Z</time></trkpt><trkpt lat="43.489782754770495" lon="10.936281715581433"><ele>450.0</ele><time>2026-04-26T17:06:30.001Z</time></trkpt><trkpt lat="43.48981745511649" lon="10.935966194966447"><ele>452.0</ele><time>2026-04-26T17:06:31.001Z</time></trkpt><trkpt lat="43.48984840133284" lon="10.935650058738974"><ele>454.0</ele><time>2026-04-26T17:06:32.001Z</time></trkpt><trkpt lat="43.489878532339006" lon="10.935334380998183"><ele>455.33333333333337</ele><time>2026-04-26T17:06:33.001Z</time></trkpt><trkpt lat="43.48991257714411" lon="10.935031869120342"><ele>456.66666666666663</ele><time>2026-04-26T17:06:34.001Z</time></trkpt><trkpt lat="43.489941298233326" lon="10.93474584403962"><ele>458.0</ele><time>2026-04-26T17:06:35.001Z</time></trkpt><trkpt lat="43.48996837016449" lon="10.934470420295002"><ele>458.0</ele><time>2026-04-26T17:06:36.001Z</time></trkpt><trkpt lat="43.490001447513386" lon="10.93417196487839"><ele>458.0</ele><time>2026-04-26T17:06:37.001Z</time></trkpt><trkpt lat="43.49002930235022" lon="10.93387495587813"><ele>458.0</ele><time>2026-04-26T17:06:38.001Z</time></trkpt><trkpt lat="43.49005491185618" lon="10.933603756467061"><ele>457.66666666666663</ele><time>2026-04-26T17:06:39.001Z</time></trkpt><trkpt lat="43.49007852004761" lon="10.933353622216673"><ele>457.33333333333337</ele><time>2026-04-26T17:06:40.001Z</time></trkpt><trkpt lat="43.49009641345551" lon="10.933107923758428"><ele>457.0</ele><time>2026-04-26T17:06:41.001Z</time></trkpt><trkpt lat="43.490103549710845" lon="10.932885497831984"><ele>457.0</ele><time>2026-04-26T17:06:42.001Z</time></trkpt><trkpt lat="43.490107199251234" lon="10.932686869068489"><ele>457.0</ele><time>2026-04-26T17:06:43.001Z</time></trkpt><trkpt lat="43.49010455001987" lon="10.93245081768481"><ele>457.0</ele><time>2026-04-26T17:06:44.001Z</time></trkpt><trkpt lat="43.490099890642675" lon="10.932187975984338"><ele>457.33333333333337</ele><time>2026-04-26T17:06:45.001Z</time></trkpt><trkpt lat="43.49010049134205" lon="10.931950701748983"><ele>457.66666666666663</ele><time>2026-04-26T17:06:46.001Z</time></trkpt><trkpt lat="43.49009883585384" lon="10.931735040463941"><ele>458.0</ele><time>2026-04-26T17:06:47.001Z</time></trkpt><trkpt lat="43.49009679557676" lon="10.931527773237239"><ele>459.0</ele><time>2026-04-26T17:06:48.001Z</time></trkpt><trkpt lat="43.49009709540142" lon="10.931326714907303"><ele>460.0</ele><time>2026-04-26T17:06:49.001Z</time></trkpt><trkpt lat="43.49011320105157" lon="10.931125165400472"><ele>461.0</ele><time>2026-04-26T17:06:50.001Z</time></trkpt><trkpt lat="43.490163830978204" lon="10.930920518566532"><ele>461.3333333333333</ele><time>2026-04-26T17:06:51.001Z</time></trkpt><trkpt lat="43.490227231251076" lon="10.930705635652073"><ele>461.66666666666663</ele><time>2026-04-26T17:06:52.001Z</time></trkpt><trkpt lat="43.490310712214466" lon="10.930472477376895"><ele>462.0</ele><time>2026-04-26T17:06:53.001Z</time></trkpt><trkpt lat="43.49040910037922" lon="10.930230414572508"><ele>468.0</ele><time>2026-04-26T17:06:54.001Z</time></trkpt><trkpt lat="43.49051006465955" lon="10.92998417675117"><ele>474.0</ele><time>2026-04-26T17:06:55.001Z</time></trkpt><trkpt lat="43.49061030573922" lon="10.929740786710791"><ele>480.0</ele><time>2026-04-26T17:06:56.001Z</time></trkpt><trkpt lat="43.4907050184636" lon="10.929507645341113"><ele>480.0</ele><time>2026-04-26T17:06:57.001Z</time></trkpt><trkpt lat="43.49079403825345" lon="10.929307454683794"><ele>480.0</ele><time>2026-04-26T17:06:58.001Z</time></trkpt><trkpt lat="43.49088103446239" lon="10.929115802189143"><ele>480.0</ele><time>2026-04-26T17:06:59.001Z</time></trkpt><trkpt lat="43.49095021982418" lon="10.928936752590758"><ele>478.75</ele><time>2026-04-26T17:07:00.001Z</time></trkpt><trkpt lat="43.491030739873416" lon="10.928790865046635"><ele>477.5</ele><time>2026-04-26T17:07:01.001Z</time></trkpt><trkpt lat="43.491117596853584" lon="10.92866924768215"><ele>476.25</ele><time>2026-04-26T17:07:02.001Z</time></trkpt><trkpt lat="43.49122000646817" lon="10.928580390532423"><ele>475.0</ele><time>2026-04-26T17:07:03.001Z</time></trkpt><trkpt lat="43.49133931566831" lon="10.92854809487525"><ele>477.75</ele><time>2026-04-26T17:07:04.002Z</time></trkpt><trkpt lat="43.491463120248625" lon="10.928548339323578"><ele>480.5</ele><time>2026-04-26T17:07:05.002Z</time></trkpt><trkpt lat="43.49158641571642" lon="10.928593628833932"><ele>483.25</ele><time>2026-04-26T17:07:06.002Z</time></trkpt><trkpt lat="43.49170474648849" lon="10.928683845140965"><ele>486.0</ele><time>2026-04-26T17:07:07.002Z</time></trkpt><trkpt lat="43.49182159947184" lon="10.92877469737327"><ele>486.0</ele><time>2026-04-26T17:07:08.002Z</time></trkpt><trkpt lat="43.49195133845946" lon="10.928830763036704"><ele>486.0</ele><time>2026-04-26T17:07:09.002Z</time></trkpt><trkpt lat="43.49209112514629" lon="10.928848961252655"><ele>486.0</ele><time>2026-04-26T17:07:10.002Z</time></trkpt><trkpt lat="43.49221666147236" lon="10.928830642969691"><ele>486.0</ele><time>2026-04-26T17:07:11.002Z</time></trkpt><trkpt lat="43.492337815871025" lon="10.928780999996604"><ele>485.66666666666663</ele><time>2026-04-26T17:07:12.002Z</time></trkpt><trkpt lat="43.492462065700586" lon="10.928688778141359"><ele>485.3333333333333</ele><time>2026-04-26T17:07:13.002Z</time></trkpt><trkpt lat="43.492586256531546" lon="10.928552415938919"><ele>485.0</ele><time>2026-04-26T17:07:14.002Z</time></trkpt><trkpt lat="43.49271948754618" lon="10.928380966628227"><ele>485.0</ele><time>2026-04-26T17:07:15.002Z</time></trkpt><trkpt lat="43.49285956725674" lon="10.928173145612927"><ele>485.0</ele><time>2026-04-26T17:07:16.002Z</time></trkpt><trkpt lat="43.49300910603875" lon="10.927950844607611"><ele>485.0</ele><time>2026-04-26T17:07:17.002Z</time></trkpt><trkpt lat="43.493157227926744" lon="10.927720445998009"><ele>489.3333333333333</ele><time>2026-04-26T17:07:18.002Z</time></trkpt><trkpt lat="43.493280995515214" lon="10.9275166931288"><ele>493.66666666666663</ele><time>2026-04-26T17:07:19.002Z</time></trkpt><trkpt lat="43.493402430625764" lon="10.927338890955156"><ele>498.0</ele><time>2026-04-26T17:07:20.002Z</time></trkpt><trkpt lat="43.49351218772509" lon="10.927174169093371"><ele>498.0</ele><time>2026-04-26T17:07:21.002Z</time></trkpt><trkpt lat="43.4936293871777" lon="10.927020590912075"><ele>498.0</ele><time>2026-04-26T17:07:22.002Z</time></trkpt><trkpt lat="43.4937715011431" lon="10.926863579003872"><ele>498.0</ele><time>2026-04-26T17:07:23.002Z</time></trkpt><trkpt lat="43.49393156141173" lon="10.926730991644655"><ele>498.0</ele><time>2026-04-26T17:07:24.002Z</time></trkpt><trkpt lat="43.494109240878615" lon="10.926595819558834"><ele>498.0</ele><time>2026-04-26T17:07:25Z</time></trkpt><trkpt lat="43.49427975676278" lon="10.926465492796932"><ele>498.0</ele><time>2026-04-26T17:07:26Z</time></trkpt><trkpt lat="43.49443400547274" lon="10.9263447080164"><ele>498.0</ele><time>2026-04-26T17:07:27Z</time></trkpt><trkpt lat="43.494572367014854" lon="10.92624641829068"><ele>498.0</ele><time>2026-04-26T17:07:28Z</time></trkpt><trkpt lat="43.49470295944877" lon="10.926161841745472"><ele>498.0</ele><time>2026-04-26T17:07:29Z</time></trkpt><trkpt lat="43.49481777998389" lon="10.926082532658404"><ele>498.0</ele><time>2026-04-26T17:07:30Z</time></trkpt><trkpt lat="43.49493782656428" lon="10.926024431568628"><ele>497.5</ele><time>2026-04-26T17:07:31Z</time></trkpt><trkpt lat="43.49506325625496" lon="10.926022444207112"><ele>497.0</ele><time>2026-04-26T17:07:32Z</time></trkpt><trkpt lat="43.49518458614682" lon="10.926099297251882"><ele>496.5</ele><time>2026-04-26T17:07:33Z</time></trkpt><trkpt lat="43.495329102177365" lon="10.926129342158498"><ele>496.0</ele><time>2026-04-26T17:07:34Z</time></trkpt><trkpt lat="43.49546767946742" lon="10.926127113452093"><ele>498.25</ele><time>2026-04-26T17:07:35Z</time></trkpt><trkpt lat="43.495588108835975" lon="10.926074846951531"><ele>500.5</ele><time>2026-04-26T17:07:36Z</time></trkpt><trkpt lat="43.49571419977251" lon="10.926047554624803"><ele>502.75</ele><time>2026-04-26T17:07:37Z</time></trkpt><trkpt lat="43.49582992371345" lon="10.926059776709355"><ele>505.0</ele><time>2026-04-26T17:07:38Z</time></trkpt><trkpt lat="43.495948124381655" lon="10.926111471567099"><ele>505.0</ele><time>2026-04-26T17:07:39Z</time></trkpt><trkpt lat="43.496032587531296" lon="10.926246158091908"><ele>505.0</ele><time>2026-04-26T17:07:40Z</time></trkpt><trkpt lat="43.49613140554552" lon="10.926402797907327"><ele>505.0</ele><time>2026-04-26T17:07:41Z</time></trkpt><trkpt lat="43.49623957322398" lon="10.926577062036618"><ele>505.0</ele><time>2026-04-26T17:07:42Z</time></trkpt><trkpt lat="43.496333256448885" lon="10.926724559943631"><ele>506.5</ele><time>2026-04-26T17:07:43Z</time></trkpt><trkpt lat="43.49643034950804" lon="10.926832264187215"><ele>508.0</ele><time>2026-04-26T17:07:44Z</time></trkpt><trkpt lat="43.496536828316955" lon="10.926938204052576"><ele>509.5</ele><time>2026-04-26T17:07:45Z</time></trkpt><trkpt lat="43.496665104097865" lon="10.927006047643511"><ele>511.0</ele><time>2026-04-26T17:07:46Z</time></trkpt><trkpt lat="43.4968140202308" lon="10.927047543078064"><ele>511.0</ele><time>2026-04-26T17:07:47Z</time></trkpt><trkpt lat="43.49698440366217" lon="10.927066991088306"><ele>511.0</ele><time>2026-04-26T17:07:48Z</time></trkpt><trkpt lat="43.49716950038749" lon="10.927119048548652"><ele>511.0</ele><time>2026-04-26T17:07:49Z</time></trkpt><trkpt lat="43.497375865434364" lon="10.927160666520097"><ele>510.6666666666667</ele><time>2026-04-26T17:07:50Z</time></trkpt><trkpt lat="43.49758531127913" lon="10.92718751642699"><ele>510.33333333333337</ele><time>2026-04-26T17:07:51Z</time></trkpt><trkpt lat="43.49780447501436" lon="10.92722712559612"><ele>510.0</ele><time>2026-04-26T17:07:52Z</time></trkpt><trkpt lat="43.497991467648276" lon="10.9272903290595"><ele>511.33333333333337</ele><time>2026-04-26T17:07:53Z</time></trkpt><trkpt lat="43.49818015895583" lon="10.92733938958617"><ele>512.6666666666667</ele><time>2026-04-26T17:07:54Z</time></trkpt><trkpt lat="43.49838826892081" lon="10.92740345478628"><ele>514.0</ele><time>2026-04-26T17:07:55Z</time></trkpt><trkpt lat="43.49862024293632" lon="10.927485570693564"><ele>514.5</ele><time>2026-04-26T17:07:56Z</time></trkpt><trkpt lat="43.49885320897076" lon="10.927546031851497"><ele>515.0</ele><time>2026-04-26T17:07:57Z</time></trkpt><trkpt lat="43.499079911284355" lon="10.927620487804331"><ele>512.0</ele><time>2026-04-26T17:07:58Z</time></trkpt><trkpt lat="43.499324375684466" lon="10.92769291117948"><ele>509.0</ele><time>2026-04-26T17:07:59Z</time></trkpt><trkpt lat="43.499599555255756" lon="10.927762869817458"><ele>509.0</ele><time>2026-04-26T17:08:00Z</time></trkpt><trkpt lat="43.49989126697047" lon="10.927827911308414"><ele>509.0</ele><time>2026-04-26T17:08:01Z</time></trkpt><trkpt lat="43.5001642064362" lon="10.927888998759915"><ele>509.5</ele><time>2026-04-26T17:08:02.001Z</time></trkpt><trkpt lat="43.50042198109867" lon="10.927958986897599"><ele>510.0</ele><time>2026-04-26T17:08:03.001Z</time></trkpt><trkpt lat="43.500686793008775" lon="10.928042001127825"><ele>510.0</ele><time>2026-04-26T17:08:04.001Z</time></trkpt><trkpt lat="43.50094448566444" lon="10.928136403083577"><ele>510.0</ele><time>2026-04-26T17:08:05.001Z</time></trkpt><trkpt lat="43.5011760574082" lon="10.928235509375574"><ele>510.0</ele><time>2026-04-26T17:08:06.001Z</time></trkpt><trkpt lat="43.50140807260467" lon="10.928326742254"><ele>510.0</ele><time>2026-04-26T17:08:07.001Z</time></trkpt><trkpt lat="43.50164369382994" lon="10.928419937696441"><ele>510.0</ele><time>2026-04-26T17:08:08.001Z</time></trkpt><trkpt lat="43.501857921021546" lon="10.92849654686159"><ele>510.0</ele><time>2026-04-26T17:08:09.001Z</time></trkpt><trkpt lat="43.5020800818514" lon="10.928588760249665"><ele>511.66666666666663</ele><time>2026-04-26T17:08:10.001Z</time></trkpt><trkpt lat="43.50228328792213" lon="10.928653646147502"><ele>513.3333333333333</ele><time>2026-04-26T17:08:11.001Z</time></trkpt><trkpt lat="43.5024804327675" lon="10.928724700581434"><ele>515.0</ele><time>2026-04-26T17:08:12.001Z</time></trkpt><trkpt lat="43.50267955564022" lon="10.928795992629649"><ele>515.0</ele><time>2026-04-26T17:08:13.001Z</time></trkpt><trkpt lat="43.50289323719011" lon="10.928894559162035"><ele>515.0</ele><time>2026-04-26T17:08:14.001Z</time></trkpt><trkpt lat="43.50312691731405" lon="10.928981783124604"><ele>516.3333333333333</ele><time>2026-04-26T17:08:15.001Z</time></trkpt><trkpt lat="43.50333112016014" lon="10.929057468702974"><ele>517.6666666666666</ele><time>2026-04-26T17:08:16.001Z</time></trkpt><trkpt lat="43.50352087126902" lon="10.92912854103377"><ele>519.0</ele><time>2026-04-26T17:08:17.001Z</time></trkpt><trkpt lat="43.503704103066205" lon="10.929198422623877"><ele>520.0</ele><time>2026-04-26T17:08:18.001Z</time></trkpt><trkpt lat="43.50389109659868" lon="10.929270834755792"><ele>521.0</ele><time>2026-04-26T17:08:19.001Z</time></trkpt><trkpt lat="43.50407045745734" lon="10.929338257174523"><ele>522.0</ele><time>2026-04-26T17:08:20.001Z</time></trkpt><trkpt lat="43.50423990152097" lon="10.929375418204577"><ele>522.0</ele><time>2026-04-26T17:08:21.001Z</time></trkpt><trkpt lat="43.504416010140666" lon="10.929427003300985"><ele>522.0</ele><time>2026-04-26T17:08:22.001Z</time></trkpt><trkpt lat="43.504588450322245" lon="10.929497123161278"><ele>522.0</ele><time>2026-04-26T17:08:23.001Z</time></trkpt><trkpt lat="43.504774166898876" lon="10.929540160551195"><ele>518.6666666666666</ele><time>2026-04-26T17:08:24.001Z</time></trkpt><trkpt lat="43.50497193602143" lon="10.929570477408065"><ele>515.3333333333333</ele><time>2026-04-26T17:08:25.001Z</time></trkpt><trkpt lat="43.5051676113084" lon="10.929566274724914"><ele>512.0</ele><time>2026-04-26T17:08:26.001Z</time></trkpt><trkpt lat="43.50535724355322" lon="10.929571292562715"><ele>509.0</ele><time>2026-04-26T17:08:27.001Z</time></trkpt><trkpt lat="43.505539366943985" lon="10.929579917295333"><ele>506.0</ele><time>2026-04-26T17:08:28.001Z</time></trkpt><trkpt lat="43.50571695947354" lon="10.929587435478732"><ele>503.0</ele><time>2026-04-26T17:08:29.001Z</time></trkpt><trkpt lat="43.50587358859204" lon="10.929594895063962"><ele>503.0</ele><time>2026-04-26T17:08:30.001Z</time></trkpt><trkpt lat="43.50600785317647" lon="10.929606888655252"><ele>503.0</ele><time>2026-04-26T17:08:31.001Z</time></trkpt><trkpt lat="43.50613299738875" lon="10.929616925868713"><ele>503.0</ele><time>2026-04-26T17:08:32.001Z</time></trkpt><trkpt lat="43.50624910603902" lon="10.929605369818226"><ele>503.0</ele><time>2026-04-26T17:08:33.001Z</time></trkpt><trkpt lat="43.5063488567715" lon="10.929556680453889"><ele>502.75</ele><time>2026-04-26T17:08:34.001Z</time></trkpt><trkpt lat="43.50643115625994" lon="10.9294436330609"><ele>502.5</ele><time>2026-04-26T17:08:35.001Z</time></trkpt><trkpt lat="43.506495016647186" lon="10.929296137281312"><ele>502.25</ele><time>2026-04-26T17:08:36.001Z</time></trkpt><trkpt lat="43.50654502313543" lon="10.929127163117215"><ele>502.0</ele><time>2026-04-26T17:08:37.001Z</time></trkpt><trkpt lat="43.50661312694363" lon="10.928984896008076"><ele>502.0</ele><time>2026-04-26T17:08:38.001Z</time></trkpt><trkpt lat="43.50670759585654" lon="10.92887598571829"><ele>502.0</ele><time>2026-04-26T17:08:39.001Z</time></trkpt><trkpt lat="43.50684328236585" lon="10.928839882505288"><ele>502.0</ele><time>2026-04-26T17:08:40.001Z</time></trkpt><trkpt lat="43.50700106203697" lon="10.928793096694767"><ele>502.0</ele><time>2026-04-26T17:08:41.001Z</time></trkpt><trkpt lat="43.50719362277421" lon="10.928745609377858"><ele>499.33333333333337</ele><time>2026-04-26T17:08:42.001Z</time></trkpt><trkpt lat="43.50739527206322" lon="10.928721803863164"><ele>496.66666666666663</ele><time>2026-04-26T17:08:43.001Z</time></trkpt><trkpt lat="43.50760880505192" lon="10.928696797078315"><ele>494.0</ele><time>2026-04-26T17:08:44.001Z</time></trkpt><trkpt lat="43.50783064345829" lon="10.92867421474915"><ele>492.66666666666663</ele><time>2026-04-26T17:08:45.001Z</time></trkpt><trkpt lat="43.508049540247285" lon="10.928660044443951"><ele>491.33333333333337</ele><time>2026-04-26T17:08:46.001Z</time></trkpt><trkpt lat="43.50825805893032" lon="10.928641803259897"><ele>490.0</ele><time>2026-04-26T17:08:47.001Z</time></trkpt><trkpt lat="43.50844792874348" lon="10.928628508310215"><ele>490.0</ele><time>2026-04-26T17:08:48.001Z</time></trkpt><trkpt lat="43.508633505621745" lon="10.928611441812892"><ele>490.0</ele><time>2026-04-26T17:08:49.001Z</time></trkpt><trkpt lat="43.50881129851716" lon="10.928594180298747"><ele>490.0</ele><time>2026-04-26T17:08:50.001Z</time></trkpt><trkpt lat="43.508978370675266" lon="10.92858276351644"><ele>488.0</ele><time>2026-04-26T17:08:51.001Z</time></trkpt><trkpt lat="43.50913458288688" lon="10.928583562684496"><ele>486.0</ele><time>2026-04-26T17:08:52.001Z</time></trkpt><trkpt lat="43.50928377778723" lon="10.928624325474326"><ele>484.0</ele><time>2026-04-26T17:08:53.001Z</time></trkpt><trkpt lat="43.509434187411934" lon="10.928672848407937"><ele>486.33333333333337</ele><time>2026-04-26T17:08:54.001Z</time></trkpt><trkpt lat="43.509600732492515" lon="10.92874702393294"><ele>488.66666666666663</ele><time>2026-04-26T17:08:55.001Z</time></trkpt><trkpt lat="43.50977045275227" lon="10.92883137322751"><ele>491.0</ele><time>2026-04-26T17:08:56.001Z</time></trkpt><trkpt lat="43.5099529262438" lon="10.928926669572713"><ele>491.0</ele><time>2026-04-26T17:08:57.001Z</time></trkpt><trkpt lat="43.51013953636899" lon="10.929027554234661"><ele>491.0</ele><time>2026-04-26T17:08:58.001Z</time></trkpt><trkpt lat="43.510305980557156" lon="10.929118346913683"><ele>491.0</ele><time>2026-04-26T17:08:59.001Z</time></trkpt><trkpt lat="43.51045258865921" lon="10.929205983043952"><ele>491.66666666666663</ele><time>2026-04-26T17:09:00.001Z</time></trkpt><trkpt lat="43.5106186525789" lon="10.929317735915776"><ele>492.33333333333337</ele><time>2026-04-26T17:09:01.001Z</time></trkpt><trkpt lat="43.51079519925351" lon="10.929440563421156"><ele>493.0</ele><time>2026-04-26T17:09:02.001Z</time></trkpt><trkpt lat="43.510989533396945" lon="10.929577035668697"><ele>493.0</ele><time>2026-04-26T17:09:03.001Z</time></trkpt><trkpt lat="43.51116774338678" lon="10.929702481427336"><ele>493.0</ele><time>2026-04-26T17:09:04.001Z</time></trkpt><trkpt lat="43.51133754305772" lon="10.929819711516917"><ele>493.0</ele><time>2026-04-26T17:09:05.001Z</time></trkpt><trkpt lat="43.511502347998096" lon="10.92992906654795"><ele>491.6666666666667</ele><time>2026-04-26T17:09:06.001Z</time></trkpt><trkpt lat="43.511683917365495" lon="10.93001795033363"><ele>490.33333333333337</ele><time>2026-04-26T17:09:07.001Z</time></trkpt><trkpt lat="43.511863488647066" lon="10.930083582360336"><ele>489.0</ele><time>2026-04-26T17:09:08.001Z</time></trkpt><trkpt lat="43.51203394066676" lon="10.930135682536534"><ele>487.33333333333337</ele><time>2026-04-26T17:09:09.001Z</time></trkpt><trkpt lat="43.51220081777616" lon="10.930179159235527"><ele>485.6666666666667</ele><time>2026-04-26T17:09:10.002Z</time></trkpt><trkpt lat="43.512369770875964" lon="10.930218929607456"><ele>484.0</ele><time>2026-04-26T17:09:11.002Z</time></trkpt><trkpt lat="43.5125315302198" lon="10.930252188931494"><ele>484.0</ele><time>2026-04-26T17:09:12.002Z</time></trkpt><trkpt lat="43.51269678269619" lon="10.93024785241165"><ele>484.0</ele><time>2026-04-26T17:09:13.002Z</time></trkpt><trkpt lat="43.51285244443043" lon="10.930232273076598"><ele>484.0</ele><time>2026-04-26T17:09:14.002Z</time></trkpt><trkpt lat="43.51300295869611" lon="10.930181348680845"><ele>483.5</ele><time>2026-04-26T17:09:15.002Z</time></trkpt><trkpt lat="43.51313473974549" lon="10.930086381882509"><ele>483.0</ele><time>2026-04-26T17:09:16.002Z</time></trkpt><trkpt lat="43.513256441204035" lon="10.929970633592204"><ele>482.5</ele><time>2026-04-26T17:09:17.002Z</time></trkpt><trkpt lat="43.51335290922178" lon="10.929825124239919"><ele>482.0</ele><time>2026-04-26T17:09:18.002Z</time></trkpt><trkpt lat="43.513434217902265" lon="10.929649066037477"><ele>481.75</ele><time>2026-04-26T17:09:19.002Z</time></trkpt><trkpt lat="43.513502022557624" lon="10.929466005897899"><ele>481.5</ele><time>2026-04-26T17:09:20.002Z</time></trkpt><trkpt lat="43.513569147476694" lon="10.929289579391309"><ele>481.25</ele><time>2026-04-26T17:09:21.002Z</time></trkpt><trkpt lat="43.51365680886376" lon="10.929138445956118"><ele>481.0</ele><time>2026-04-26T17:09:22.002Z</time></trkpt><trkpt lat="43.51376871917941" lon="10.929019698857656"><ele>479.75</ele><time>2026-04-26T17:09:23.002Z</time></trkpt><trkpt lat="43.513860403492764" lon="10.928888343528483"><ele>478.5</ele><time>2026-04-26T17:09:24.002Z</time></trkpt><trkpt lat="43.51397512131527" lon="10.928797397543416"><ele>477.25</ele><time>2026-04-26T17:09:25.002Z</time></trkpt><trkpt lat="43.51408968583749" lon="10.92871745784405"><ele>476.0</ele><time>2026-04-26T17:09:26.002Z</time></trkpt><trkpt lat="43.51421182009636" lon="10.928662138696117"><ele>476.0</ele><time>2026-04-26T17:09:27.002Z</time></trkpt><trkpt lat="43.51435111518312" lon="10.928658290444924"><ele>476.0</ele><time>2026-04-26T17:09:28.002Z</time></trkpt><trkpt lat="43.5145012806357" lon="10.928640990394976"><ele>476.0</ele><time>2026-04-26T17:09:29.002Z</time></trkpt><trkpt lat="43.514643682830645" lon="10.928605140717753"><ele>476.0</ele><time>2026-04-26T17:09:30.002Z</time></trkpt><trkpt lat="43.5147851431861" lon="10.928572482681874"><ele>473.25</ele><time>2026-04-26T17:09:31Z</time></trkpt><trkpt lat="43.51492395863165" lon="10.928505594968204"><ele>470.5</ele><time>2026-04-26T17:09:32Z</time></trkpt><trkpt lat="43.51504921913715" lon="10.928403985205213"><ele>467.75</ele><time>2026-04-26T17:09:33Z</time></trkpt><trkpt lat="43.51516313001737" lon="10.928290370513782"><ele>465.0</ele><time>2026-04-26T17:09:34Z</time></trkpt><trkpt lat="43.51527380077999" lon="10.92817355686989"><ele>464.5</ele><time>2026-04-26T17:09:35Z</time></trkpt><trkpt lat="43.51539195878515" lon="10.92806519054519"><ele>464.0</ele><time>2026-04-26T17:09:36Z</time></trkpt><trkpt lat="43.515506326134634" lon="10.927957349417685"><ele>463.5</ele><time>2026-04-26T17:09:37Z</time></trkpt><trkpt lat="43.51562632184002" lon="10.927852655428875"><ele>463.0</ele><time>2026-04-26T17:09:38Z</time></trkpt><trkpt lat="43.515715463721904" lon="10.927700920288398"><ele>460.5</ele><time>2026-04-26T17:09:39Z</time></trkpt><trkpt lat="43.51580481712787" lon="10.927550318746167"><ele>458.0</ele><time>2026-04-26T17:09:40Z</time></trkpt><trkpt lat="43.515883532961254" lon="10.927394453044744"><ele>455.5</ele><time>2026-04-26T17:09:41Z</time></trkpt><trkpt lat="43.51596544485066" lon="10.927245705007659"><ele>453.0</ele><time>2026-04-26T17:09:42Z</time></trkpt><trkpt lat="43.51605270376206" lon="10.927113935804254"><ele>453.0</ele><time>2026-04-26T17:09:43Z</time></trkpt><trkpt lat="43.51614713920336" lon="10.926999924717329"><ele>453.0</ele><time>2026-04-26T17:09:44Z</time></trkpt><trkpt lat="43.516262080533764" lon="10.926932105424914"><ele>453.0</ele><time>2026-04-26T17:09:45Z</time></trkpt><trkpt lat="43.51641612124144" lon="10.926915643970585"><ele>453.0</ele><time>2026-04-26T17:09:46Z</time></trkpt><trkpt lat="43.51659581464555" lon="10.926933423540936"><ele>449.0</ele><time>2026-04-26T17:09:47Z</time></trkpt><trkpt lat="43.516807599118444" lon="10.926952724442966"><ele>445.0</ele><time>2026-04-26T17:09:48Z</time></trkpt><trkpt lat="43.51704344806913" lon="10.926973515948978"><ele>441.0</ele><time>2026-04-26T17:09:49Z</time></trkpt><trkpt lat="43.51728600269319" lon="10.926994898613078"><ele>439.5</ele><time>2026-04-26T17:09:50Z</time></trkpt><trkpt lat="43.51751748283747" lon="10.92701530498339"><ele>438.0</ele><time>2026-04-26T17:09:51Z</time></trkpt><trkpt lat="43.51773783964015" lon="10.92703348432483"><ele>438.33333333333337</ele><time>2026-04-26T17:09:52Z</time></trkpt><trkpt lat="43.51794420928296" lon="10.927049576282629"><ele>438.6666666666667</ele><time>2026-04-26T17:09:53Z</time></trkpt><trkpt lat="43.518127992586436" lon="10.927064225917091"><ele>439.0</ele><time>2026-04-26T17:09:54Z</time></trkpt><trkpt lat="43.51831282703663" lon="10.92707958085312"><ele>439.0</ele><time>2026-04-26T17:09:55Z</time></trkpt><trkpt lat="43.51850820901833" lon="10.927096744378954"><ele>439.0</ele><time>2026-04-26T17:09:56Z</time></trkpt><trkpt lat="43.5186903917125" lon="10.927112748392968"><ele>439.0</ele><time>2026-04-26T17:09:57Z</time></trkpt><trkpt lat="43.518851446469796" lon="10.927126898214729"><ele>439.6666666666667</ele><time>2026-04-26T17:09:58Z</time></trkpt><trkpt lat="43.5189960462959" lon="10.927139600728363"><ele>440.33333333333337</ele><time>2026-04-26T17:09:59Z</time></trkpt><trkpt lat="43.51916583806531" lon="10.927154969058408"><ele>441.0</ele><time>2026-04-26T17:10:00Z</time></trkpt><trkpt lat="43.51935541215119" lon="10.92717712933045"><ele>441.0</ele><time>2026-04-26T17:10:01Z</time></trkpt><trkpt lat="43.51956672842447" lon="10.927218070917775"><ele>441.0</ele><time>2026-04-26T17:10:02Z</time></trkpt><trkpt lat="43.5197855139836" lon="10.927222615808065"><ele>441.0</ele><time>2026-04-26T17:10:03Z</time></trkpt><trkpt lat="43.52000745483007" lon="10.92728507702388"><ele>440.5</ele><time>2026-04-26T17:10:04Z</time></trkpt><trkpt lat="43.52025139698176" lon="10.927364487990632"><ele>440.0</ele><time>2026-04-26T17:10:05Z</time></trkpt><trkpt lat="43.5204929634942" lon="10.927427452562519"><ele>438.5</ele><time>2026-04-26T17:10:06Z</time></trkpt><trkpt lat="43.52071727731575" lon="10.92753034487489"><ele>437.0</ele><time>2026-04-26T17:10:07Z</time></trkpt><trkpt lat="43.5209579873363" lon="10.92759509891996"><ele>436.3333333333333</ele><time>2026-04-26T17:10:08.001Z</time></trkpt><trkpt lat="43.521183688640335" lon="10.92765581551119"><ele>435.66666666666663</ele><time>2026-04-26T17:10:09.001Z</time></trkpt><trkpt lat="43.52137901795513" lon="10.927708361596343"><ele>435.0</ele><time>2026-04-26T17:10:10.001Z</time></trkpt><trkpt lat="43.5216120694024" lon="10.927771054997763"><ele>434.0</ele><time>2026-04-26T17:10:11.001Z</time></trkpt><trkpt lat="43.52181278347015" lon="10.927829127887433"><ele>433.0</ele><time>2026-04-26T17:10:12.001Z</time></trkpt><trkpt lat="43.522008661158054" lon="10.927890849085262"><ele>432.0</ele><time>2026-04-26T17:10:13.001Z</time></trkpt><trkpt lat="43.522192636727056" lon="10.92796509617832"><ele>432.0</ele><time>2026-04-26T17:10:14.001Z</time></trkpt><trkpt lat="43.522372238301415" lon="10.92805671545255"><ele>432.0</ele><time>2026-04-26T17:10:15.001Z</time></trkpt><trkpt lat="43.5225466187435" lon="10.928151426394509"><ele>432.0</ele><time>2026-04-26T17:10:16.001Z</time></trkpt><trkpt lat="43.522704391586295" lon="10.928219900780451"><ele>432.0</ele><time>2026-04-26T17:10:17.001Z</time></trkpt><trkpt lat="43.52286239079664" lon="10.928304518956041"><ele>432.0</ele><time>2026-04-26T17:10:18.001Z</time></trkpt><trkpt lat="43.522999428932465" lon="10.92840678187645"><ele>432.0</ele><time>2026-04-26T17:10:19.001Z</time></trkpt><trkpt lat="43.52316350658616" lon="10.928501285111773"><ele>429.0</ele><time>2026-04-26T17:10:20.001Z</time></trkpt><trkpt lat="43.52334095641354" lon="10.928578798296002"><ele>426.0</ele><time>2026-04-26T17:10:21.001Z</time></trkpt><trkpt lat="43.52355754573585" lon="10.92863946938875"><ele>423.0</ele><time>2026-04-26T17:10:22.001Z</time></trkpt><trkpt lat="43.52377385805109" lon="10.92867384374982"><ele>422.33333333333337</ele><time>2026-04-26T17:10:23.001Z</time></trkpt><trkpt lat="43.52397021806301" lon="10.92871292925356"><ele>421.6666666666667</ele><time>2026-04-26T17:10:24.001Z</time></trkpt><trkpt lat="43.52415653434942" lon="10.928751721957633"><ele>421.0</ele><time>2026-04-26T17:10:25.001Z</time></trkpt><trkpt lat="43.52434016990549" lon="10.928790707378896"><ele>421.0</ele><time>2026-04-26T17:10:26.001Z</time></trkpt><trkpt lat="43.52452628943658" lon="10.92882570495468"><ele>421.0</ele><time>2026-04-26T17:10:27.001Z</time></trkpt><trkpt lat="43.52473839397857" lon="10.928863119026197"><ele>421.0</ele><time>2026-04-26T17:10:28.001Z</time></trkpt><trkpt lat="43.52497187638775" lon="10.928916734597095"><ele>420.6666666666667</ele><time>2026-04-26T17:10:29.001Z</time></trkpt><trkpt lat="43.52520394382919" lon="10.928895700413085"><ele>420.33333333333337</ele><time>2026-04-26T17:10:30.001Z</time></trkpt><trkpt lat="43.52539965606537" lon="10.928864419214982"><ele>420.0</ele><time>2026-04-26T17:10:31.001Z</time></trkpt><trkpt lat="43.52556685783273" lon="10.92883751073197"><ele>421.5</ele><time>2026-04-26T17:10:32.001Z</time></trkpt><trkpt lat="43.525714590806395" lon="10.928815135807614"><ele>423.0</ele><time>2026-04-26T17:10:33.001Z</time></trkpt><trkpt lat="43.52586110269009" lon="10.928794504929652"><ele>424.5</ele><time>2026-04-26T17:10:34.001Z</time></trkpt><trkpt lat="43.52600477249275" lon="10.928774274275321"><ele>426.0</ele><time>2026-04-26T17:10:35.001Z</time></trkpt><trkpt lat="43.52615860788339" lon="10.9287526085353"><ele>426.66666666666663</ele><time>2026-04-26T17:10:36.001Z</time></trkpt><trkpt lat="43.52632700670978" lon="10.928728840528576"><ele>427.3333333333333</ele><time>2026-04-26T17:10:37.001Z</time></trkpt><trkpt lat="43.526516878466765" lon="10.92870020293892"><ele>428.0</ele><time>2026-04-26T17:10:38.001Z</time></trkpt><trkpt lat="43.52670683415483" lon="10.928669993502059"><ele>428.0</ele><time>2026-04-26T17:10:39.001Z</time></trkpt><trkpt lat="43.52689108821268" lon="10.92864069082167"><ele>428.0</ele><time>2026-04-26T17:10:40.001Z</time></trkpt><trkpt lat="43.527071652540805" lon="10.928614194970603"><ele>428.0</ele><time>2026-04-26T17:10:41.001Z</time></trkpt><trkpt lat="43.527245139715575" lon="10.928592356144232"><ele>428.3333333333333</ele><time>2026-04-26T17:10:42.001Z</time></trkpt><trkpt lat="43.527424063734145" lon="10.928554631267907"><ele>428.66666666666663</ele><time>2026-04-26T17:10:43.001Z</time></trkpt><trkpt lat="43.52760299780419" lon="10.928545545505195"><ele>429.0</ele><time>2026-04-26T17:10:44.001Z</time></trkpt><trkpt lat="43.52777138079276" lon="10.928536516251857"><ele>429.33333333333337</ele><time>2026-04-26T17:10:45.001Z</time></trkpt><trkpt lat="43.52793051218288" lon="10.928529506549785"><ele>429.6666666666667</ele><time>2026-04-26T17:10:46.001Z</time></trkpt><trkpt lat="43.528084761580196" lon="10.928527419036095"><ele>430.0</ele><time>2026-04-26T17:10:47.001Z</time></trkpt><trkpt lat="43.52823514105837" lon="10.928539289461158"><ele>430.0</ele><time>2026-04-26T17:10:48.001Z</time></trkpt><trkpt lat="43.528394391647915" lon="10.928538583695824"><ele>430.0</ele><time>2026-04-26T17:10:49.001Z</time></trkpt><trkpt lat="43.528563707570704" lon="10.928550128379284"><ele>430.0</ele><time>2026-04-26T17:10:50.001Z</time></trkpt><trkpt lat="43.52872806321803" lon="10.928597367460279"><ele>431.0</ele><time>2026-04-26T17:10:51.001Z</time></trkpt><trkpt lat="43.52888425330595" lon="10.928674735077498"><ele>432.0</ele><time>2026-04-26T17:10:52.001Z</time></trkpt><trkpt lat="43.52904898769044" lon="10.92878033739576"><ele>433.0</ele><time>2026-04-26T17:10:53.001Z</time></trkpt><trkpt lat="43.52921425733804" lon="10.928915556163982"><ele>433.0</ele><time>2026-04-26T17:10:54.001Z</time></trkpt><trkpt lat="43.52937969661305" lon="10.929030339689376"><ele>433.0</ele><time>2026-04-26T17:10:55.001Z</time></trkpt><trkpt lat="43.5295247557177" lon="10.929149484989644"><ele>433.0</ele><time>2026-04-26T17:10:56.001Z</time></trkpt><trkpt lat="43.529652799345676" lon="10.929268270057237"><ele>433.0</ele><time>2026-04-26T17:10:57.001Z</time></trkpt><trkpt lat="43.52976159555724" lon="10.929403321228245"><ele>433.0</ele><time>2026-04-26T17:10:58.001Z</time></trkpt><trkpt lat="43.52982424426891" lon="10.92958227762471"><ele>433.0</ele><time>2026-04-26T17:10:59.001Z</time></trkpt><trkpt lat="43.529893170413786" lon="10.929777068503096"><ele>433.0</ele><time>2026-04-26T17:11:00.001Z</time></trkpt><trkpt lat="43.529973907903596" lon="10.930010250179093"><ele>431.33333333333337</ele><time>2026-04-26T17:11:01.001Z</time></trkpt><trkpt lat="43.530062682184116" lon="10.93026388052454"><ele>429.66666666666663</ele><time>2026-04-26T17:11:02.001Z</time></trkpt><trkpt lat="43.530160858794595" lon="10.930548513878293"><ele>428.0</ele><time>2026-04-26T17:11:03.001Z</time></trkpt><trkpt lat="43.53025854267494" lon="10.930827738562389"><ele>427.0</ele><time>2026-04-26T17:11:04.001Z</time></trkpt><trkpt lat="43.53035621163015" lon="10.931104003523611"><ele>426.0</ele><time>2026-04-26T17:11:05.001Z</time></trkpt><trkpt lat="43.530447147829676" lon="10.931361057183944"><ele>425.0</ele><time>2026-04-26T17:11:06.001Z</time></trkpt><trkpt lat="43.53053594368432" lon="10.931625690602282"><ele>423.66666666666663</ele><time>2026-04-26T17:11:07.001Z</time></trkpt><trkpt lat="43.53061489762817" lon="10.931905356096697"><ele>422.33333333333337</ele><time>2026-04-26T17:11:08.001Z</time></trkpt><trkpt lat="43.53067264133334" lon="10.9322041894017"><ele>421.0</ele><time>2026-04-26T17:11:09.001Z</time></trkpt><trkpt lat="43.53071680375501" lon="10.932500628664272"><ele>420.6666666666667</ele><time>2026-04-26T17:11:10.001Z</time></trkpt><trkpt lat="43.53075905838407" lon="10.93278426142743"><ele>420.33333333333337</ele><time>2026-04-26T17:11:11.001Z</time></trkpt><trkpt lat="43.53080130773999" lon="10.933072129531265"><ele>420.0</ele><time>2026-04-26T17:11:12.001Z</time></trkpt><trkpt lat="43.530842325130855" lon="10.933354110501341"><ele>419.33333333333337</ele><time>2026-04-26T17:11:13.001Z</time></trkpt><trkpt lat="43.530883229043496" lon="10.933637375185448"><ele>418.6666666666667</ele><time>2026-04-26T17:11:14.001Z</time></trkpt><trkpt lat="43.530921876519265" lon="10.933905866205524"><ele>418.0</ele><time>2026-04-26T17:11:15.001Z</time></trkpt><trkpt lat="43.530959950815905" lon="10.934170374706367"><ele>417.33333333333337</ele><time>2026-04-26T17:11:16.001Z</time></trkpt><trkpt lat="43.53099953878156" lon="10.934440711331433"><ele>416.66666666666663</ele><time>2026-04-26T17:11:17.001Z</time></trkpt><trkpt lat="43.53103793902491" lon="10.934702840928917"><ele>416.0</ele><time>2026-04-26T17:11:18.002Z</time></trkpt><trkpt lat="43.531074171719496" lon="10.934950971177296"><ele>415.3333333333333</ele><time>2026-04-26T17:11:19.002Z</time></trkpt><trkpt lat="43.53111098613191" lon="10.935206187895172"><ele>414.66666666666663</ele><time>2026-04-26T17:11:20.002Z</time></trkpt><trkpt lat="43.53114814418314" lon="10.935463786701554"><ele>414.0</ele><time>2026-04-26T17:11:21.002Z</time></trkpt><trkpt lat="43.5311983664936" lon="10.93571749362574"><ele>412.66666666666663</ele><time>2026-04-26T17:11:22.002Z</time></trkpt><trkpt lat="43.53123067176488" lon="10.935978307923747"><ele>411.3333333333333</ele><time>2026-04-26T17:11:23.002Z</time></trkpt><trkpt lat="43.53126876522236" lon="10.936225273033433"><ele>410.0</ele><time>2026-04-26T17:11:24.002Z</time></trkpt><trkpt lat="43.531321171502924" lon="10.936461394981984"><ele>410.0</ele><time>2026-04-26T17:11:25.002Z</time></trkpt><trkpt lat="43.531396469143516" lon="10.936692377762762"><ele>410.0</ele><time>2026-04-26T17:11:26.002Z</time></trkpt><trkpt lat="43.53148986127036" lon="10.936919251573425"><ele>410.0</ele><time>2026-04-26T17:11:27.002Z</time></trkpt><trkpt lat="43.53160223332795" lon="10.937153301731975"><ele>410.3333333333333</ele><time>2026-04-26T17:11:28.002Z</time></trkpt><trkpt lat="43.53172280518885" lon="10.937410496960739"><ele>410.66666666666663</ele><time>2026-04-26T17:11:29.002Z</time></trkpt><trkpt lat="43.53183370740343" lon="10.9376572358469"><ele>411.0</ele><time>2026-04-26T17:11:30.002Z</time></trkpt><trkpt lat="43.53193716196063" lon="10.937884975545392"><ele>410.66666666666663</ele><time>2026-04-26T17:11:31.002Z</time></trkpt><trkpt lat="43.532034273410495" lon="10.938097795204921"><ele>410.3333333333333</ele><time>2026-04-26T17:11:32.002Z</time></trkpt><trkpt lat="43.532127003860644" lon="10.938304785670365"><ele>410.0</ele><time>2026-04-26T17:11:33.002Z</time></trkpt><trkpt lat="43.53220728610518" lon="10.93851336985973"><ele>409.66666666666663</ele><time>2026-04-26T17:11:34.002Z</time></trkpt><trkpt lat="43.53229249962076" lon="10.938700423124732"><ele>409.33333333333337</ele><time>2026-04-26T17:11:35.002Z</time></trkpt><trkpt lat="43.53236602386052" lon="10.938881977982179"><ele>409.0</ele><time>2026-04-26T17:11:36.002Z</time></trkpt><trkpt lat="43.53243899482022" lon="10.93907648285902"><ele>409.0</ele><time>2026-04-26T17:11:37Z</time></trkpt><trkpt lat="43.53246557668852" lon="10.939314884516412"><ele>409.0</ele><time>2026-04-26T17:11:38Z</time></trkpt><trkpt lat="43.532511186456276" lon="10.93957668517106"><ele>409.0</ele><time>2026-04-26T17:11:39Z</time></trkpt><trkpt lat="43.53253849482401" lon="10.939857670134833"><ele>409.0</ele><time>2026-04-26T17:11:40Z</time></trkpt><trkpt lat="43.532548763498816" lon="10.940154451363878"><ele>409.0</ele><time>2026-04-26T17:11:41Z</time></trkpt><trkpt lat="43.532573501057165" lon="10.9404277924169"><ele>409.0</ele><time>2026-04-26T17:11:42Z</time></trkpt><trkpt lat="43.532597697964526" lon="10.940698257043376"><ele>410.0</ele><time>2026-04-26T17:11:43Z</time></trkpt><trkpt lat="43.532623547876845" lon="10.940978989863373"><ele>411.0</ele><time>2026-04-26T17:11:44Z</time></trkpt><trkpt lat="43.53264871503497" lon="10.941268213592013"><ele>412.0</ele><time>2026-04-26T17:11:45Z</time></trkpt><trkpt lat="43.53267576523909" lon="10.941564550811432"><ele>410.6666666666667</ele><time>2026-04-26T17:11:46Z</time></trkpt><trkpt lat="43.532701246120816" lon="10.941843696077973"><ele>409.33333333333337</ele><time>2026-04-26T17:11:47Z</time></trkpt><trkpt lat="43.532725925702835" lon="10.942114060310713"><ele>408.0</ele><time>2026-04-26T17:11:48Z</time></trkpt><trkpt lat="43.53274989508328" lon="10.942386968547696"><ele>406.66666666666663</ele><time>2026-04-26T17:11:49Z</time></trkpt><trkpt lat="43.53276313449799" lon="10.942645857943186"><ele>405.3333333333333</ele><time>2026-04-26T17:11:50Z</time></trkpt><trkpt lat="43.53277019246371" lon="10.942906646432705"><ele>404.0</ele><time>2026-04-26T17:11:51Z</time></trkpt><trkpt lat="43.532773069943694" lon="10.94317015035022"><ele>404.3333333333333</ele><time>2026-04-26T17:11:52Z</time></trkpt><trkpt lat="43.532771115274485" lon="10.943427837130967"><ele>404.66666666666663</ele><time>2026-04-26T17:11:53Z</time></trkpt><trkpt lat="43.53277220362871" lon="10.943675237678386"><ele>405.0</ele><time>2026-04-26T17:11:54Z</time></trkpt><trkpt lat="43.53277275436223" lon="10.943924004680426"><ele>405.0</ele><time>2026-04-26T17:11:55Z</time></trkpt><trkpt lat="43.532796086716075" lon="10.944155914023872"><ele>405.0</ele><time>2026-04-26T17:11:56Z</time></trkpt><trkpt lat="43.532798438582326" lon="10.944379687815559"><ele>405.0</ele><time>2026-04-26T17:11:57Z</time></trkpt><trkpt lat="43.53279931409482" lon="10.944598146238755"><ele>405.0</ele><time>2026-04-26T17:11:58Z</time></trkpt><trkpt lat="43.532798078766454" lon="10.944804942770766"><ele>405.0</ele><time>2026-04-26T17:11:59Z</time></trkpt><trkpt lat="43.532776651275576" lon="10.945007774551021"><ele>405.0</ele><time>2026-04-26T17:12:00Z</time></trkpt><trkpt lat="43.53277588360862" lon="10.945205448047425"><ele>405.0</ele><time>2026-04-26T17:12:01Z</time></trkpt><trkpt lat="43.53277794366445" lon="10.945394487670132"><ele>405.0</ele><time>2026-04-26T17:12:02Z</time></trkpt><trkpt lat="43.532793735136494" lon="10.945582810934187"><ele>405.0</ele><time>2026-04-26T17:12:03Z</time></trkpt><trkpt lat="43.53283245960211" lon="10.9457630328114"><ele>405.0</ele><time>2026-04-26T17:12:04Z</time></trkpt><trkpt lat="43.53291251125582" lon="10.945938202463468"><ele>405.0</ele><time>2026-04-26T17:12:05Z</time></trkpt><trkpt lat="43.53298842322083" lon="10.946130189421273"><ele>403.33333333333337</ele><time>2026-04-26T17:12:06Z</time></trkpt><trkpt lat="43.53304180701556" lon="10.946323425330055"><ele>401.6666666666667</ele><time>2026-04-26T17:12:07Z</time></trkpt><trkpt lat="43.53310934107528" lon="10.946510109839371"><ele>400.0</ele><time>2026-04-26T17:12:08Z</time></trkpt><trkpt lat="43.53317697946282" lon="10.94669225925019"><ele>399.5</ele><time>2026-04-26T17:12:09Z</time></trkpt><trkpt lat="43.53324386914144" lon="10.946868299300181"><ele>399.0</ele><time>2026-04-26T17:12:10Z</time></trkpt><trkpt lat="43.5333037389949" lon="10.94702586464901"><ele>398.5</ele><time>2026-04-26T17:12:11Z</time></trkpt><trkpt lat="43.533346244817345" lon="10.947155161074477"><ele>398.0</ele><time>2026-04-26T17:12:12Z</time></trkpt><trkpt lat="43.533374929248" lon="10.9472851759056"><ele>398.0</ele><time>2026-04-26T17:12:13Z</time></trkpt><trkpt lat="43.533390063228275" lon="10.947427061825573"><ele>398.0</ele><time>2026-04-26T17:12:14Z</time></trkpt><trkpt lat="43.53336830380038" lon="10.947594348637983"><ele>398.0</ele><time>2026-04-26T17:12:15Z</time></trkpt><trkpt lat="43.533349500644185" lon="10.947775320727295"><ele>398.0</ele><time>2026-04-26T17:12:16Z</time></trkpt><trkpt lat="43.533342815302156" lon="10.947946370949502"><ele>397.75</ele><time>2026-04-26T17:12:17Z</time></trkpt><trkpt lat="43.53336383946543" lon="10.948116969361688"><ele>397.5</ele><time>2026-04-26T17:12:18Z</time></trkpt><trkpt lat="43.53342659482246" lon="10.948282769407143"><ele>397.25</ele><time>2026-04-26T17:12:19Z</time></trkpt><trkpt lat="43.53351321682184" lon="10.948437388572952"><ele>397.0</ele><time>2026-04-26T17:12:20Z</time></trkpt><trkpt lat="43.53360590648393" lon="10.948568301838655"><ele>396.75</ele><time>2026-04-26T17:12:21.001Z</time></trkpt><trkpt lat="43.53369723989699" lon="10.948713070545312"><ele>396.5</ele><time>2026-04-26T17:12:22.001Z</time></trkpt><trkpt lat="43.53382098026391" lon="10.948813168951638"><ele>396.25</ele><time>2026-04-26T17:12:23.001Z</time></trkpt><trkpt lat="43.53393403960681" lon="10.948911875843084"><ele>396.0</ele><time>2026-04-26T17:12:24.001Z</time></trkpt><trkpt lat="43.534040901695796" lon="10.949002339291336"><ele>393.75</ele><time>2026-04-26T17:12:25.001Z</time></trkpt><trkpt lat="43.5341344340449" lon="10.949099293049233"><ele>391.5</ele><time>2026-04-26T17:12:26.001Z</time></trkpt><trkpt lat="43.534205423695845" lon="10.949213903552794"><ele>389.25</ele><time>2026-04-26T17:12:27.001Z</time></trkpt><trkpt lat="43.53425927928627" lon="10.949351036366453"><ele>387.0</ele><time>2026-04-26T17:12:28.001Z</time></trkpt><trkpt lat="43.53431589834701" lon="10.9494951412221"><ele>386.0</ele><time>2026-04-26T17:12:29.001Z</time></trkpt><trkpt lat="43.53438648977653" lon="10.949624552170032"><ele>385.0</ele><time>2026-04-26T17:12:30.001Z</time></trkpt><trkpt lat="43.53448109508142" lon="10.949736261489608"><ele>384.0</ele><time>2026-04-26T17:12:31.001Z</time></trkpt><trkpt lat="43.534618894983716" lon="10.949822867487237"><ele>383.0</ele><time>2026-04-26T17:12:32.001Z</time></trkpt><trkpt lat="43.53478700085211" lon="10.949891021207558"><ele>378.6666666666667</ele><time>2026-04-26T17:12:33.001Z</time></trkpt><trkpt lat="43.534961325282254" lon="10.949938234440623"><ele>374.3333333333333</ele><time>2026-04-26T17:12:34.001Z</time></trkpt><trkpt lat="43.53510663227615" lon="10.95001219358755"><ele>370.0</ele><time>2026-04-26T17:12:35.001Z</time></trkpt><trkpt lat="43.53524185523678" lon="10.950073516965737"><ele>370.0</ele><time>2026-04-26T17:12:36.001Z</time></trkpt><trkpt lat="43.5353802920706" lon="10.950163784513515"><ele>370.0</ele><time>2026-04-26T17:12:37.001Z</time></trkpt><trkpt lat="43.53550755389514" lon="10.950288711354546"><ele>370.0</ele><time>2026-04-26T17:12:38.001Z</time></trkpt><trkpt lat="43.535635738968296" lon="10.950416027197615"><ele>367.0</ele><time>2026-04-26T17:12:39.001Z</time></trkpt><trkpt lat="43.53576988387125" lon="10.950530299619228"><ele>364.0</ele><time>2026-04-26T17:12:40.001Z</time></trkpt><trkpt lat="43.53591079948052" lon="10.950590713276712"><ele>361.0</ele><time>2026-04-26T17:12:41.001Z</time></trkpt><trkpt lat="43.53604410268085" lon="10.95064910350274"><ele>358.0</ele><time>2026-04-26T17:12:42.001Z</time></trkpt><trkpt lat="43.53617348674696" lon="10.950691459462682"><ele>355.3333333333333</ele><time>2026-04-26T17:12:43.001Z</time></trkpt><trkpt lat="43.53632125850272" lon="10.95068728045115"><ele>352.6666666666667</ele><time>2026-04-26T17:12:44.001Z</time></trkpt><trkpt lat="43.53649446387232" lon="10.950647459001184"><ele>350.0</ele><time>2026-04-26T17:12:45.001Z</time></trkpt><trkpt lat="43.536682181156955" lon="10.950576878372175"><ele>350.0</ele><time>2026-04-26T17:12:46.001Z</time></trkpt><trkpt lat="43.53685805343909" lon="10.950494367872844"><ele>350.0</ele><time>2026-04-26T17:12:47.001Z</time></trkpt><trkpt lat="43.53703069465168" lon="10.950411988959367"><ele>350.0</ele><time>2026-04-26T17:12:48.001Z</time></trkpt><trkpt lat="43.53720352081243" lon="10.950346363323902"><ele>349.33333333333337</ele><time>2026-04-26T17:12:49.001Z</time></trkpt><trkpt lat="43.53738339313516" lon="10.950303488602076"><ele>348.6666666666667</ele><time>2026-04-26T17:12:50.001Z</time></trkpt><trkpt lat="43.537559870770814" lon="10.95027209000091"><ele>348.0</ele><time>2026-04-26T17:12:51.001Z</time></trkpt><trkpt lat="43.53772249885487" lon="10.950200869826952"><ele>348.0</ele><time>2026-04-26T17:12:52.001Z</time></trkpt><trkpt lat="43.537873676790795" lon="10.950125579360655"><ele>348.0</ele><time>2026-04-26T17:12:53.001Z</time></trkpt><trkpt lat="43.53801237188121" lon="10.950012147328401"><ele>348.0</ele><time>2026-04-26T17:12:54.001Z</time></trkpt><trkpt lat="43.53814981124502" lon="10.949909594382905"><ele>345.0</ele><time>2026-04-26T17:12:55.001Z</time></trkpt><trkpt lat="43.53825811680321" lon="10.949815094086548"><ele>342.0</ele><time>2026-04-26T17:12:56.001Z</time></trkpt><trkpt lat="43.538358069442324" lon="10.949726860726638"><ele>339.0</ele><time>2026-04-26T17:12:57.001Z</time></trkpt><trkpt lat="43.53846897947792" lon="10.949672035981486"><ele>336.0</ele><time>2026-04-26T17:12:58.001Z</time></trkpt><trkpt lat="43.538608527016905" lon="10.949659159219683"><ele>335.3333333333333</ele><time>2026-04-26T17:12:59.001Z</time></trkpt><trkpt lat="43.53877881375146" lon="10.949638026098345"><ele>334.66666666666663</ele><time>2026-04-26T17:13:00.001Z</time></trkpt><trkpt lat="43.53896184220045" lon="10.949614911840381"><ele>334.0</ele><time>2026-04-26T17:13:01.001Z</time></trkpt><trkpt lat="43.539129093966935" lon="10.949593790012313"><ele>334.0</ele><time>2026-04-26T17:13:02.001Z</time></trkpt><trkpt lat="43.539292258563464" lon="10.949552430768717"><ele>334.0</ele><time>2026-04-26T17:13:03.001Z</time></trkpt><trkpt lat="43.53945426221297" lon="10.949563356061207"><ele>334.0</ele><time>2026-04-26T17:13:04.001Z</time></trkpt><trkpt lat="43.53959345837681" lon="10.949602517334334"><ele>329.25</ele><time>2026-04-26T17:13:05.001Z</time></trkpt><trkpt lat="43.539710830550995" lon="10.949669833252546"><ele>324.5</ele><time>2026-04-26T17:13:06.001Z</time></trkpt><trkpt lat="43.53980467050925" lon="10.949767449767768"><ele>319.75</ele><time>2026-04-26T17:13:07.001Z</time></trkpt><trkpt lat="43.539874335903875" lon="10.949912044215665"><ele>315.0</ele><time>2026-04-26T17:13:08.001Z</time></trkpt><trkpt lat="43.539929683288" lon="10.95010082060378"><ele>315.0</ele><time>2026-04-26T17:13:09.001Z</time></trkpt><trkpt lat="43.53996397678967" lon="10.950310921339304"><ele>315.0</ele><time>2026-04-26T17:13:10.001Z</time></trkpt><trkpt lat="43.539978899436306" lon="10.950557689342618"><ele>315.0</ele><time>2026-04-26T17:13:11.001Z</time></trkpt><trkpt lat="43.539972376883114" lon="10.950829349934155"><ele>314.6666666666667</ele><time>2026-04-26T17:13:12.001Z</time></trkpt><trkpt lat="43.539974786497254" lon="10.951096199796858"><ele>314.33333333333337</ele><time>2026-04-26T17:13:13.001Z</time></trkpt><trkpt lat="43.53999236483524" lon="10.951371339973859"><ele>314.0</ele><time>2026-04-26T17:13:14.001Z</time></trkpt><trkpt lat="43.54002799875771" lon="10.951645653690615"><ele>313.33333333333337</ele><time>2026-04-26T17:13:15.001Z</time></trkpt><trkpt lat="43.54006962517234" lon="10.95195573489879"><ele>312.6666666666667</ele><time>2026-04-26T17:13:16.001Z</time></trkpt><trkpt lat="43.540105581349444" lon="10.952238884856229"><ele>312.0</ele><time>2026-04-26T17:13:17.001Z</time></trkpt><trkpt lat="43.54013383665109" lon="10.952512594078113"><ele>313.0</ele><time>2026-04-26T17:13:18.001Z</time></trkpt><trkpt lat="43.54016450946667" lon="10.95274863511983"><ele>314.0</ele><time>2026-04-26T17:13:19.001Z</time></trkpt><trkpt lat="43.54021923212509" lon="10.952947132010207"><ele>315.0</ele><time>2026-04-26T17:13:20.001Z</time></trkpt><trkpt lat="43.54030863204362" lon="10.95313188230507"><ele>313.3333333333333</ele><time>2026-04-26T17:13:21.001Z</time></trkpt><trkpt lat="43.540435083835185" lon="10.953295782186258"><ele>311.66666666666663</ele><time>2026-04-26T17:13:22.001Z</time></trkpt><trkpt lat="43.54060100681326" lon="10.953411377788115"><ele>310.0</ele><time>2026-04-26T17:13:23.001Z</time></trkpt><trkpt lat="43.540785508204536" lon="10.953535127008486"><ele>310.0</ele><time>2026-04-26T17:13:24.001Z</time></trkpt><trkpt lat="43.54099122390216" lon="10.953651810890126"><ele>310.0</ele><time>2026-04-26T17:13:25.001Z</time></trkpt><trkpt lat="43.54117445875437" lon="10.953761494882485"><ele>310.0</ele><time>2026-04-26T17:13:26.001Z</time></trkpt><trkpt lat="43.541344331554015" lon="10.953876672322611"><ele>308.0</ele><time>2026-04-26T17:13:27.001Z</time></trkpt><trkpt lat="43.54150746107499" lon="10.953996721036154"><ele>306.0</ele><time>2026-04-26T17:13:28.001Z</time></trkpt><trkpt lat="43.541653369545465" lon="10.954134475481519"><ele>304.0</ele><time>2026-04-26T17:13:29.001Z</time></trkpt><trkpt lat="43.54175820247538" lon="10.95432303955729"><ele>304.0</ele><time>2026-04-26T17:13:30.001Z</time></trkpt><trkpt lat="43.54187771253107" lon="10.954528395786333"><ele>304.0</ele><time>2026-04-26T17:13:31.001Z</time></trkpt><trkpt lat="43.54200176805242" lon="10.954706465683945"><ele>304.0</ele><time>2026-04-26T17:13:32.001Z</time></trkpt><trkpt lat="43.54209084834209" lon="10.95490153883561"><ele>298.3333333333333</ele><time>2026-04-26T17:13:33.001Z</time></trkpt><trkpt lat="43.54218889684763" lon="10.955059342163258"><ele>292.6666666666667</ele><time>2026-04-26T17:13:34.002Z</time></trkpt><trkpt lat="43.54231100359756" lon="10.955179468134988"><ele>287.0</ele><time>2026-04-26T17:13:35.002Z</time></trkpt><trkpt lat="43.54246422002885" lon="10.95525231746724"><ele>287.0</ele><time>2026-04-26T17:13:36.002Z</time></trkpt><trkpt lat="43.542623576406854" lon="10.95533879400197"><ele>287.0</ele><time>2026-04-26T17:13:37.002Z</time></trkpt><trkpt lat="43.54279509406343" lon="10.955422352264023"><ele>287.0</ele><time>2026-04-26T17:13:38.002Z</time></trkpt><trkpt lat="43.54296313193316" lon="10.955520154131847"><ele>285.33333333333337</ele><time>2026-04-26T17:13:39.002Z</time></trkpt><trkpt lat="43.54313110801051" lon="10.955662689411108"><ele>283.6666666666667</ele><time>2026-04-26T17:13:40.002Z</time></trkpt><trkpt lat="43.54330084943451" lon="10.955805165462756"><ele>282.0</ele><time>2026-04-26T17:13:41.002Z</time></trkpt><trkpt lat="43.54346321625887" lon="10.955940355823133"><ele>278.6666666666667</ele><time>2026-04-26T17:13:42.002Z</time></trkpt><trkpt lat="43.543617677741025" lon="10.95606896402436"><ele>275.33333333333337</ele><time>2026-04-26T17:13:43Z</time></trkpt><trkpt lat="43.54376090114975" lon="10.956188221416184"><ele>272.0</ele><time>2026-04-26T17:13:44Z</time></trkpt><trkpt lat="43.543910294758476" lon="10.956312874721089"><ele>271.33333333333337</ele><time>2026-04-26T17:13:45Z</time></trkpt><trkpt lat="43.5440844549287" lon="10.956455021767061"><ele>270.6666666666667</ele><time>2026-04-26T17:13:46Z</time></trkpt><trkpt lat="43.54425723446863" lon="10.956590269257637"><ele>270.0</ele><time>2026-04-26T17:13:47Z</time></trkpt><trkpt lat="43.544426656206085" lon="10.956719707760165"><ele>267.0</ele><time>2026-04-26T17:13:48Z</time></trkpt><trkpt lat="43.544609638502216" lon="10.95682920191482"><ele>264.0</ele><time>2026-04-26T17:13:49Z</time></trkpt><trkpt lat="43.54481043453446" lon="10.956957959864072"><ele>261.0</ele><time>2026-04-26T17:13:50Z</time></trkpt><trkpt lat="43.545016494986655" lon="10.957066559225973"><ele>261.0</ele><time>2026-04-26T17:13:51Z</time></trkpt><trkpt lat="43.545209267041336" lon="10.957159701020954"><ele>261.0</ele><time>2026-04-26T17:13:52Z</time></trkpt><trkpt lat="43.545403405228086" lon="10.957248331415798"><ele>261.0</ele><time>2026-04-26T17:13:53Z</time></trkpt><trkpt lat="43.545590310876165" lon="10.957332964643475"><ele>261.3333333333333</ele><time>2026-04-26T17:13:54Z</time></trkpt><trkpt lat="43.54575910040122" lon="10.957444457031118"><ele>261.66666666666663</ele><time>2026-04-26T17:13:55Z</time></trkpt><trkpt lat="43.54593296088503" lon="10.957491892935867"><ele>262.0</ele><time>2026-04-26T17:13:56Z</time></trkpt><trkpt lat="43.54609851284055" lon="10.957549138547098"><ele>262.0</ele><time>2026-04-26T17:13:57Z</time></trkpt><trkpt lat="43.54625892069352" lon="10.957576016060864"><ele>262.0</ele><time>2026-04-26T17:13:58Z</time></trkpt><trkpt lat="43.54641299316138" lon="10.957588653259467"><ele>262.0</ele><time>2026-04-26T17:13:59Z</time></trkpt><trkpt lat="43.54655478063498" lon="10.957581082432252"><ele>262.0</ele><time>2026-04-26T17:14:00Z</time></trkpt><trkpt lat="43.5467004510064" lon="10.957572681172554"><ele>262.0</ele><time>2026-04-26T17:14:01Z</time></trkpt><trkpt lat="43.546870481283904" lon="10.957422862384934"><ele>262.0</ele><time>2026-04-26T17:14:02Z</time></trkpt><trkpt lat="43.547061414173285" lon="10.957318460502417"><ele>262.3333333333333</ele><time>2026-04-26T17:14:03Z</time></trkpt><trkpt lat="43.54724868537862" lon="10.957212618380986"><ele>262.6666666666667</ele><time>2026-04-26T17:14:04Z</time></trkpt><trkpt lat="43.5474228162381" lon="10.957113540649475"><ele>263.0</ele><time>2026-04-26T17:14:05Z</time></trkpt><trkpt lat="43.54758745875693" lon="10.95702252527818"><ele>263.0</ele><time>2026-04-26T17:14:06Z</time></trkpt><trkpt lat="43.54773341175828" lon="10.95694933753183"><ele>263.0</ele><time>2026-04-26T17:14:07Z</time></trkpt><trkpt lat="43.547856082770735" lon="10.956931164389184"><ele>263.0</ele><time>2026-04-26T17:14:08Z</time></trkpt><trkpt lat="43.54797315841509" lon="10.956917633388278"><ele>263.0</ele><time>2026-04-26T17:14:09Z</time></trkpt><trkpt lat="43.54809739102325" lon="10.956989868685685"><ele>261.0</ele><time>2026-04-26T17:14:10Z</time></trkpt><trkpt lat="43.548225051369556" lon="10.957098368361612"><ele>259.0</ele><time>2026-04-26T17:14:11Z</time></trkpt><trkpt lat="43.54838723209672" lon="10.9572379877683"><ele>257.0</ele><time>2026-04-26T17:14:12Z</time></trkpt><trkpt lat="43.54854227437037" lon="10.957354918904969"><ele>257.0</ele><time>2026-04-26T17:14:13Z</time></trkpt><trkpt lat="43.548672315613764" lon="10.957473753029086"><ele>257.0</ele><time>2026-04-26T17:14:14Z</time></trkpt><trkpt lat="43.548787823390164" lon="10.957578996877817"><ele>257.0</ele><time>2026-04-26T17:14:15Z</time></trkpt><trkpt lat="43.54887562294044" lon="10.957663387273737"><ele>257.0</ele><time>2026-04-26T17:14:16Z</time></trkpt><trkpt lat="43.548969370430264" lon="10.957708235003185"><ele>256.0</ele><time>2026-04-26T17:14:17Z</time></trkpt><trkpt lat="43.54905577540969" lon="10.957707240163025"><ele>255.0</ele><time>2026-04-26T17:14:18Z</time></trkpt><trkpt lat="43.54913888284675" lon="10.957656287504838"><ele>254.0</ele><time>2026-04-26T17:14:19Z</time></trkpt><trkpt lat="43.549219936518256" lon="10.957550394340089"><ele>253.0</ele><time>2026-04-26T17:14:20Z</time></trkpt><trkpt lat="43.54929390971108" lon="10.957351382138402"><ele>251.33333333333331</ele><time>2026-04-26T17:14:21Z</time></trkpt><trkpt lat="43.549381861480896" lon="10.957141618323082"><ele>249.66666666666669</ele><time>2026-04-26T17:14:22Z</time></trkpt><trkpt lat="43.54948128593106" lon="10.956897149425586"><ele>248.0</ele><time>2026-04-26T17:14:23Z</time></trkpt><trkpt lat="43.549590501946426" lon="10.956627623335754"><ele>244.0</ele><time>2026-04-26T17:14:24Z</time></trkpt><trkpt lat="43.54969077326604" lon="10.956346395764664"><ele>240.0</ele><time>2026-04-26T17:14:25Z</time></trkpt><trkpt lat="43.5498008151415" lon="10.956091400074012"><ele>236.0</ele><time>2026-04-26T17:14:26Z</time></trkpt><trkpt lat="43.5499020359195" lon="10.955851948497639"><ele>236.0</ele><time>2026-04-26T17:14:27Z</time></trkpt><trkpt lat="43.54999785619218" lon="10.955624494434947"><ele>236.0</ele><time>2026-04-26T17:14:28Z</time></trkpt><trkpt lat="43.55009475833546" lon="10.955412688561307"><ele>236.0</ele><time>2026-04-26T17:14:29Z</time></trkpt><trkpt lat="43.550203077219585" lon="10.955224687426243"><ele>236.0</ele><time>2026-04-26T17:14:30Z</time></trkpt><trkpt lat="43.550321047377885" lon="10.955059259382528"><ele>236.0</ele><time>2026-04-26T17:14:31.001Z</time></trkpt><trkpt lat="43.55045649154409" lon="10.95491213188619"><ele>236.0</ele><time>2026-04-26T17:14:32.001Z</time></trkpt><trkpt lat="43.55061364384957" lon="10.954802263558731"><ele>234.33333333333334</ele><time>2026-04-26T17:14:33.001Z</time></trkpt><trkpt lat="43.55079068462808" lon="10.954697889859398"><ele>232.66666666666669</ele><time>2026-04-26T17:14:34.001Z</time></trkpt><trkpt lat="43.55099206848573" lon="10.954579318863416"><ele>231.0</ele><time>2026-04-26T17:14:35.001Z</time></trkpt><trkpt lat="43.55117222594456" lon="10.954456056552646"><ele>231.0</ele><time>2026-04-26T17:14:36.001Z</time></trkpt><trkpt lat="43.551331315764486" lon="10.954328678209187"><ele>231.0</ele><time>2026-04-26T17:14:37.001Z</time></trkpt><trkpt lat="43.551476192624484" lon="10.954197257295709"><ele>231.0</ele><time>2026-04-26T17:14:38.001Z</time></trkpt><trkpt lat="43.551612892305144" lon="10.954058626932829"><ele>231.0</ele><time>2026-04-26T17:14:39.001Z</time></trkpt><trkpt lat="43.55174078506108" lon="10.953907779166375"><ele>231.0</ele><time>2026-04-26T17:14:40.001Z</time></trkpt><trkpt lat="43.551875992914354" lon="10.953753951700541"><ele>231.0</ele><time>2026-04-26T17:14:41.001Z</time></trkpt><trkpt lat="43.55200194222691" lon="10.953609459713705"><ele>230.33333333333331</ele><time>2026-04-26T17:14:42.001Z</time></trkpt><trkpt lat="43.55213221423333" lon="10.953475001172372"><ele>229.66666666666666</ele><time>2026-04-26T17:14:43.001Z</time></trkpt><trkpt lat="43.552267156520934" lon="10.953363845773515"><ele>229.0</ele><time>2026-04-26T17:14:44.001Z</time></trkpt><trkpt lat="43.55241638229435" lon="10.953280041576328"><ele>229.0</ele><time>2026-04-26T17:14:45.001Z</time></trkpt><trkpt lat="43.55258987858375" lon="10.953225037506009"><ele>229.0</ele><time>2026-04-26T17:14:46.001Z</time></trkpt><trkpt lat="43.552793383015185" lon="10.953171444346191"><ele>229.0</ele><time>2026-04-26T17:14:47.001Z</time></trkpt><trkpt lat="43.55298426370616" lon="10.953111290248486"><ele>228.66666666666666</ele><time>2026-04-26T17:14:48.001Z</time></trkpt><trkpt lat="43.55315868006277" lon="10.953051339040123"><ele>228.33333333333331</ele><time>2026-04-26T17:14:49.001Z</time></trkpt><trkpt lat="43.55332422135607" lon="10.953007023757461"><ele>228.0</ele><time>2026-04-26T17:14:50.001Z</time></trkpt><trkpt lat="43.55348943941041" lon="10.952952413761261"><ele>228.0</ele><time>2026-04-26T17:14:51.001Z</time></trkpt><trkpt lat="43.553664686680484" lon="10.952895014050233"><ele>228.0</ele><time>2026-04-26T17:14:52.001Z</time></trkpt><trkpt lat="43.55384872083408" lon="10.952839959682905"><ele>228.0</ele><time>2026-04-26T17:14:53.001Z</time></trkpt><trkpt lat="43.55402793385531" lon="10.952789382021477"><ele>226.66666666666669</ele><time>2026-04-26T17:14:54.001Z</time></trkpt><trkpt lat="43.554200801369625" lon="10.952760460372025"><ele>225.33333333333334</ele><time>2026-04-26T17:14:55.001Z</time></trkpt><trkpt lat="43.55437382867607" lon="10.952732599466259"><ele>224.0</ele><time>2026-04-26T17:14:56.001Z</time></trkpt><trkpt lat="43.554541054112576" lon="10.952717449530548"><ele>222.66666666666669</ele><time>2026-04-26T17:14:57.001Z</time></trkpt><trkpt lat="43.55472717610777" lon="10.952657101871349"><ele>221.33333333333331</ele><time>2026-04-26T17:14:58.001Z</time></trkpt><trkpt lat="43.55491297557537" lon="10.952560489789125"><ele>220.0</ele><time>2026-04-26T17:14:59.001Z</time></trkpt><trkpt lat="43.555110840200285" lon="10.95244380434096"><ele>218.33333333333331</ele><time>2026-04-26T17:15:00.001Z</time></trkpt><trkpt lat="43.55529938369485" lon="10.952329280301361"><ele>216.66666666666669</ele><time>2026-04-26T17:15:01.001Z</time></trkpt><trkpt lat="43.55548018308493" lon="10.952217083225573"><ele>215.0</ele><time>2026-04-26T17:15:02.001Z</time></trkpt><trkpt lat="43.55565663693268" lon="10.952098837111862"><ele>211.66666666666669</ele><time>2026-04-26T17:15:03.001Z</time></trkpt><trkpt lat="43.55584405425939" lon="10.952035226953171"><ele>208.33333333333331</ele><time>2026-04-26T17:15:04.001Z</time></trkpt><trkpt lat="43.55602343907309" lon="10.951956705116507"><ele>205.0</ele><time>2026-04-26T17:15:05.001Z</time></trkpt><trkpt lat="43.55619391793076" lon="10.951887859750213"><ele>201.66666666666666</ele><time>2026-04-26T17:15:06.001Z</time></trkpt><trkpt lat="43.55636284056352" lon="10.951825198467654"><ele>198.33333333333331</ele><time>2026-04-26T17:15:07.001Z</time></trkpt><trkpt lat="43.556525899823555" lon="10.951768381395647"><ele>195.0</ele><time>2026-04-26T17:15:08.001Z</time></trkpt><trkpt lat="43.5566770894175" lon="10.951700108701468"><ele>195.0</ele><time>2026-04-26T17:15:09.001Z</time></trkpt><trkpt lat="43.556836838541635" lon="10.951645048457973"><ele>195.0</ele><time>2026-04-26T17:15:10.001Z</time></trkpt><trkpt lat="43.557000777058526" lon="10.951589928956714"><ele>195.0</ele><time>2026-04-26T17:15:11.001Z</time></trkpt><trkpt lat="43.55716560873291" lon="10.95155343285925"><ele>194.66666666666669</ele><time>2026-04-26T17:15:12.001Z</time></trkpt><trkpt lat="43.55731649119567" lon="10.951482327379534"><ele>194.33333333333334</ele><time>2026-04-26T17:15:13.001Z</time></trkpt><trkpt lat="43.557467682396954" lon="10.95143178184636"><ele>194.0</ele><time>2026-04-26T17:15:14.001Z</time></trkpt><trkpt lat="43.55761471911273" lon="10.951373479834727"><ele>194.0</ele><time>2026-04-26T17:15:15.001Z</time></trkpt><trkpt lat="43.557766074944425" lon="10.951296438341023"><ele>194.0</ele><time>2026-04-26T17:15:16.001Z</time></trkpt><trkpt lat="43.55790968411403" lon="10.951195252808136"><ele>194.0</ele><time>2026-04-26T17:15:17.001Z</time></trkpt><trkpt lat="43.55805202419124" lon="10.951095878181953"><ele>194.0</ele><time>2026-04-26T17:15:18.001Z</time></trkpt><trkpt lat="43.5581772913138" lon="10.951003552296482"><ele>194.0</ele><time>2026-04-26T17:15:19.001Z</time></trkpt><trkpt lat="43.55832642785849" lon="10.950941372203653"><ele>194.0</ele><time>2026-04-26T17:15:20.001Z</time></trkpt><trkpt lat="43.558487497512694" lon="10.950919482086697"><ele>194.0</ele><time>2026-04-26T17:15:21.001Z</time></trkpt><trkpt lat="43.55865862321435" lon="10.950927989082547"><ele>194.0</ele><time>2026-04-26T17:15:22.001Z</time></trkpt><trkpt lat="43.55884967826684" lon="10.950966538444861"><ele>194.0</ele><time>2026-04-26T17:15:23.001Z</time></trkpt><trkpt lat="43.55905971261424" lon="10.9510024989008"><ele>194.33333333333334</ele><time>2026-04-26T17:15:24.001Z</time></trkpt><trkpt lat="43.55928332413765" lon="10.951034651298444"><ele>194.66666666666669</ele><time>2026-04-26T17:15:25.001Z</time></trkpt><trkpt lat="43.55949053068423" lon="10.95105625587853"><ele>195.0</ele><time>2026-04-26T17:15:26.001Z</time></trkpt><trkpt lat="43.55968258671032" lon="10.95107009313028"><ele>194.0</ele><time>2026-04-26T17:15:27.001Z</time></trkpt><trkpt lat="43.55985938756254" lon="10.951078202603968"><ele>193.0</ele><time>2026-04-26T17:15:28.001Z</time></trkpt><trkpt lat="43.56005310996315" lon="10.951085720383615"><ele>192.0</ele><time>2026-04-26T17:15:29.001Z</time></trkpt><trkpt lat="43.56023218927137" lon="10.951085614882702"><ele>189.33333333333334</ele><time>2026-04-26T17:15:30.001Z</time></trkpt><trkpt lat="43.560412447601045" lon="10.951076312800142"><ele>186.66666666666669</ele><time>2026-04-26T17:15:31.001Z</time></trkpt><trkpt lat="43.56058791663732" lon="10.951065935059875"><ele>184.0</ele><time>2026-04-26T17:15:32.001Z</time></trkpt><trkpt lat="43.5607630647038" lon="10.951058496128661"><ele>184.0</ele><time>2026-04-26T17:15:33.001Z</time></trkpt><trkpt lat="43.56092577206262" lon="10.951056139710525"><ele>184.0</ele><time>2026-04-26T17:15:34.001Z</time></trkpt><trkpt lat="43.56107936906724" lon="10.951045597080823"><ele>184.0</ele><time>2026-04-26T17:15:35.001Z</time></trkpt><trkpt lat="43.56122785482609" lon="10.951038289018072"><ele>182.5</ele><time>2026-04-26T17:15:36.001Z</time></trkpt><trkpt lat="43.561370922406326" lon="10.951029192719167"><ele>181.0</ele><time>2026-04-26T17:15:37.001Z</time></trkpt><trkpt lat="43.5615042392658" lon="10.951024928578036"><ele>179.5</ele><time>2026-04-26T17:15:38.001Z</time></trkpt><trkpt lat="43.56163687912723" lon="10.951036941512665"><ele>178.0</ele><time>2026-04-26T17:15:39.001Z</time></trkpt><trkpt lat="43.561765097442084" lon="10.951077840794332"><ele>178.0</ele><time>2026-04-26T17:15:40.001Z</time></trkpt><trkpt lat="43.56188485620804" lon="10.951163388327556"><ele>178.0</ele><time>2026-04-26T17:15:41.001Z</time></trkpt><trkpt lat="43.56200884175379" lon="10.95129482068405"><ele>178.0</ele><time>2026-04-26T17:15:42.001Z</time></trkpt><trkpt lat="43.56213095373123" lon="10.95146781807398"><ele>179.0</ele><time>2026-04-26T17:15:43.001Z</time></trkpt><trkpt lat="43.562245065697795" lon="10.95165848839965"><ele>180.0</ele><time>2026-04-26T17:15:44.001Z</time></trkpt><trkpt lat="43.56235742814629" lon="10.951846800256865"><ele>181.0</ele><time>2026-04-26T17:15:45.002Z</time></trkpt><trkpt lat="43.56247003225223" lon="10.952027753866963"><ele>177.33333333333334</ele><time>2026-04-26T17:15:46.002Z</time></trkpt><trkpt lat="43.56258622056251" lon="10.952211832091084"><ele>173.66666666666666</ele><time>2026-04-26T17:15:47.002Z</time></trkpt><trkpt lat="43.56269626757361" lon="10.952398427790088"><ele>170.0</ele><time>2026-04-26T17:15:48.002Z</time></trkpt><trkpt lat="43.562782243488854" lon="10.952612818698055"><ele>168.66666666666666</ele><time>2026-04-26T17:15:49Z</time></trkpt><trkpt lat="43.56286040764767" lon="10.952824796468759"><ele>167.33333333333334</ele><time>2026-04-26T17:15:50Z</time></trkpt><trkpt lat="43.56293291354913" lon="10.953037623548871"><ele>166.0</ele><time>2026-04-26T17:15:51Z</time></trkpt><trkpt lat="43.56301410874237" lon="10.953236331469213"><ele>166.5</ele><time>2026-04-26T17:15:52Z</time></trkpt><trkpt lat="43.56307707733953" lon="10.953435271027681"><ele>167.0</ele><time>2026-04-26T17:15:53Z</time></trkpt><trkpt lat="43.56313410648946" lon="10.953610032605704"><ele>167.5</ele><time>2026-04-26T17:15:54Z</time></trkpt><trkpt lat="43.56318395479227" lon="10.95376129424037"><ele>168.0</ele><time>2026-04-26T17:15:55Z</time></trkpt><trkpt lat="43.563226033021444" lon="10.953903632094725"><ele>168.0</ele><time>2026-04-26T17:15:56Z</time></trkpt><trkpt lat="43.563272017492515" lon="10.95403568672913"><ele>168.0</ele><time>2026-04-26T17:15:57Z</time></trkpt><trkpt lat="43.56331368948717" lon="10.954169296382117"><ele>168.0</ele><time>2026-04-26T17:15:58Z</time></trkpt><trkpt lat="43.56335317299891" lon="10.954299888576204"><ele>168.0</ele><time>2026-04-26T17:15:59Z</time></trkpt><trkpt lat="43.56339121957267" lon="10.954426500644592"><ele>168.0</ele><time>2026-04-26T17:16:00Z</time></trkpt><trkpt lat="43.563433260231804" lon="10.95454833824223"><ele>168.0</ele><time>2026-04-26T17:16:01Z</time></trkpt><trkpt lat="43.56347248313319" lon="10.954668468294415"><ele>168.0</ele><time>2026-04-26T17:16:02Z</time></trkpt><trkpt lat="43.56351120541867" lon="10.954785278741898"><ele>168.0</ele><time>2026-04-26T17:16:03Z</time></trkpt><trkpt lat="43.5635489430962" lon="10.954905182268801"><ele>168.0</ele><time>2026-04-26T17:16:04Z</time></trkpt><trkpt lat="43.56359388164829" lon="10.955029538007505"><ele>168.0</ele><time>2026-04-26T17:16:05Z</time></trkpt><trkpt lat="43.56364564155511" lon="10.955171037060476"><ele>167.5</ele><time>2026-04-26T17:16:06Z</time></trkpt><trkpt lat="43.56370442503927" lon="10.95533351901853"><ele>167.0</ele><time>2026-04-26T17:16:07Z</time></trkpt><trkpt lat="43.56377782500825" lon="10.955502406945788"><ele>166.5</ele><time>2026-04-26T17:16:08Z</time></trkpt><trkpt lat="43.56385642809706" lon="10.955681554029015"><ele>166.0</ele><time>2026-04-26T17:16:09Z</time></trkpt><trkpt lat="43.563962151727544" lon="10.955843732512797"><ele>166.33333333333334</ele><time>2026-04-26T17:16:10Z</time></trkpt><trkpt lat="43.5640818341645" lon="10.95600518180169"><ele>166.66666666666666</ele><time>2026-04-26T17:16:11Z</time></trkpt><trkpt lat="43.56420959616944" lon="10.95613705337176"><ele>167.0</ele><time>2026-04-26T17:16:12Z</time></trkpt><trkpt lat="43.56431785209985" lon="10.956291210190553"><ele>167.0</ele><time>2026-04-26T17:16:13Z</time></trkpt><trkpt lat="43.564398227567146" lon="10.956438780324172"><ele>167.0</ele><time>2026-04-26T17:16:14Z</time></trkpt><trkpt lat="43.56447108463445" lon="10.956588872270746"><ele>167.0</ele><time>2026-04-26T17:16:15Z</time></trkpt><trkpt lat="43.56462561259717" lon="10.956806187822002"><ele>164.33333333333331</ele><time>2026-04-26T17:16:16Z</time></trkpt><trkpt lat="43.56472194857127" lon="10.956977323551715"><ele>161.66666666666666</ele><time>2026-04-26T17:16:17Z</time></trkpt><trkpt lat="43.564817842718" lon="10.95716458558487"><ele>159.0</ele><time>2026-04-26T17:16:18Z</time></trkpt><trkpt lat="43.564919417294654" lon="10.957347804147139"><ele>159.0</ele><time>2026-04-26T17:16:19Z</time></trkpt><trkpt lat="43.56501227336814" lon="10.957525122188107"><ele>159.0</ele><time>2026-04-26T17:16:20Z</time></trkpt><trkpt lat="43.565108161187105" lon="10.957697006220743"><ele>159.0</ele><time>2026-04-26T17:16:21Z</time></trkpt><trkpt lat="43.56522134276414" lon="10.957877138811863"><ele>157.33333333333334</ele><time>2026-04-26T17:16:22Z</time></trkpt><trkpt lat="43.56535814455702" lon="10.958062820752602"><ele>155.66666666666669</ele><time>2026-04-26T17:16:23Z</time></trkpt><trkpt lat="43.56550412559047" lon="10.958229889978993"><ele>154.0</ele><time>2026-04-26T17:16:24Z</time></trkpt><trkpt lat="43.56564475639847" lon="10.958376130177738"><ele>152.66666666666669</ele><time>2026-04-26T17:16:25Z</time></trkpt><trkpt lat="43.565786664378216" lon="10.95850630153538"><ele>151.33333333333334</ele><time>2026-04-26T17:16:26Z</time></trkpt><trkpt lat="43.56592140073358" lon="10.958627730382393"><ele>150.0</ele><time>2026-04-26T17:16:27Z</time></trkpt><trkpt lat="43.56604474238976" lon="10.958745860197384"><ele>150.0</ele><time>2026-04-26T17:16:28Z</time></trkpt><trkpt lat="43.56614381782312" lon="10.958880768858815"><ele>150.0</ele><time>2026-04-26T17:16:29Z</time></trkpt><trkpt lat="43.56623536588162" lon="10.958994438384913"><ele>150.0</ele><time>2026-04-26T17:16:30Z</time></trkpt><trkpt lat="43.56631718440831" lon="10.959107812444293"><ele>150.0</ele><time>2026-04-26T17:16:31Z</time></trkpt><trkpt lat="43.56639014361016" lon="10.959215315250528"><ele>147.75</ele><time>2026-04-26T17:16:32Z</time></trkpt><trkpt lat="43.56645998712356" lon="10.9593223185256"><ele>145.5</ele><time>2026-04-26T17:16:33Z</time></trkpt><trkpt lat="43.56654246059529" lon="10.959427461648483"><ele>143.25</ele><time>2026-04-26T17:16:34Z</time></trkpt><trkpt lat="43.56661433190793" lon="10.959554428147488"><ele>141.0</ele><time>2026-04-26T17:16:35Z</time></trkpt><trkpt lat="43.566688879072125" lon="10.959685244017404"><ele>141.0</ele><time>2026-04-26T17:16:36Z</time></trkpt><trkpt lat="43.566759245821615" lon="10.959824297106668"><ele>141.0</ele><time>2026-04-26T17:16:37Z</time></trkpt><trkpt lat="43.566852132669034" lon="10.959953496155773"><ele>141.0</ele><time>2026-04-26T17:16:38Z</time></trkpt><trkpt lat="43.56698112018942" lon="10.960080748071594"><ele>141.0</ele><time>2026-04-26T17:16:39Z</time></trkpt><trkpt lat="43.567132354822256" lon="10.960188742982265"><ele>140.0</ele><time>2026-04-26T17:16:40.001Z</time></trkpt><trkpt lat="43.56730003508693" lon="10.960280521540293"><ele>139.0</ele><time>2026-04-26T17:16:41.001Z</time></trkpt><trkpt lat="43.5674865388101" lon="10.960371544732723"><ele>138.0</ele><time>2026-04-26T17:16:42.001Z</time></trkpt><trkpt lat="43.567676298248216" lon="10.960457633366428"><ele>138.0</ele><time>2026-04-26T17:16:43.001Z</time></trkpt><trkpt lat="43.567843881646645" lon="10.960542828977568"><ele>138.0</ele><time>2026-04-26T17:16:44.001Z</time></trkpt><trkpt lat="43.56799924838807" lon="10.960631677094385"><ele>138.0</ele><time>2026-04-26T17:16:45.001Z</time></trkpt><trkpt lat="43.56816053820687" lon="10.96074658251178"><ele>137.0</ele><time>2026-04-26T17:16:46.001Z</time></trkpt><trkpt lat="43.568333398600785" lon="10.960894828913906"><ele>136.0</ele><time>2026-04-26T17:16:47.001Z</time></trkpt><trkpt lat="43.56853380440247" lon="10.96108432696954"><ele>135.0</ele><time>2026-04-26T17:16:48.001Z</time></trkpt><trkpt lat="43.56873260068999" lon="10.961264453625297"><ele>135.0</ele><time>2026-04-26T17:16:49.001Z</time></trkpt><trkpt lat="43.56892197271798" lon="10.961435219261087"><ele>135.0</ele><time>2026-04-26T17:16:50.001Z</time></trkpt><trkpt lat="43.56909355699684" lon="10.961598312704995"><ele>135.0</ele><time>2026-04-26T17:16:51.001Z</time></trkpt><trkpt lat="43.56925836105599" lon="10.961754462189845"><ele>135.66666666666666</ele><time>2026-04-26T17:16:52.001Z</time></trkpt><trkpt lat="43.56940759568588" lon="10.9619174290932"><ele>136.33333333333331</ele><time>2026-04-26T17:16:53.001Z</time></trkpt><trkpt lat="43.56950730527821" lon="10.962120125027838"><ele>137.0</ele><time>2026-04-26T17:16:54.001Z</time></trkpt><trkpt lat="43.56959271968863" lon="10.962329346264918"><ele>135.66666666666666</ele><time>2026-04-26T17:16:55.001Z</time></trkpt><trkpt lat="43.5696587591241" lon="10.962534109886382"><ele>134.33333333333334</ele><time>2026-04-26T17:16:56.001Z</time></trkpt><trkpt lat="43.56971790885172" lon="10.962739158706041"><ele>133.0</ele><time>2026-04-26T17:16:57.001Z</time></trkpt><trkpt lat="43.569774841567934" lon="10.962932901609246"><ele>133.0</ele><time>2026-04-26T17:16:58.001Z</time></trkpt><trkpt lat="43.56984647025014" lon="10.963120776674382"><ele>133.0</ele><time>2026-04-26T17:16:59.001Z</time></trkpt><trkpt lat="43.569917286809634" lon="10.963279602263649"><ele>133.0</ele><time>2026-04-26T17:17:00.001Z</time></trkpt><trkpt lat="43.57001056268099" lon="10.963408342035748"><ele>133.0</ele><time>2026-04-26T17:17:01.001Z</time></trkpt><trkpt lat="43.57012832072462" lon="10.963486134049393"><ele>129.0</ele><time>2026-04-26T17:17:02.001Z</time></trkpt><trkpt lat="43.57025785324303" lon="10.963522481006171"><ele>125.0</ele><time>2026-04-26T17:17:03.001Z</time></trkpt><trkpt lat="43.57038896565077" lon="10.963521849226327"><ele>121.0</ele><time>2026-04-26T17:17:04.001Z</time></trkpt><trkpt lat="43.57052902330566" lon="10.963480007426517"><ele>117.0</ele><time>2026-04-26T17:17:05.001Z</time></trkpt><trkpt lat="43.570679874270795" lon="10.963385740624737"><ele>117.33333333333334</ele><time>2026-04-26T17:17:06.001Z</time></trkpt><trkpt lat="43.5708550501781" lon="10.96325193655787"><ele>117.66666666666667</ele><time>2026-04-26T17:17:07.001Z</time></trkpt><trkpt lat="43.57104133895624" lon="10.963097970857921"><ele>118.0</ele><time>2026-04-26T17:17:08.001Z</time></trkpt><trkpt lat="43.57121642261917" lon="10.96297001203505"><ele>118.0</ele><time>2026-04-26T17:17:09.001Z</time></trkpt><trkpt lat="43.57138412944449" lon="10.962853772845085"><ele>118.0</ele><time>2026-04-26T17:17:10.001Z</time></trkpt><trkpt lat="43.57154789987738" lon="10.962755091721684"><ele>118.0</ele><time>2026-04-26T17:17:11.001Z</time></trkpt><trkpt lat="43.57172940429271" lon="10.96268225663492"><ele>118.0</ele><time>2026-04-26T17:17:12.001Z</time></trkpt><trkpt lat="43.57193465847515" lon="10.962655213313267"><ele>118.0</ele><time>2026-04-26T17:17:13.001Z</time></trkpt><trkpt lat="43.57214012496936" lon="10.962616644391014"><ele>118.0</ele><time>2026-04-26T17:17:14.001Z</time></trkpt><trkpt lat="43.57231879930038" lon="10.962587360431478"><ele>115.66666666666667</ele><time>2026-04-26T17:17:15.001Z</time></trkpt><trkpt lat="43.57248410264442" lon="10.962578505398183"><ele>113.33333333333334</ele><time>2026-04-26T17:17:16.001Z</time></trkpt><trkpt lat="43.57266419823855" lon="10.962601644368002"><ele>111.0</ele><time>2026-04-26T17:17:17.001Z</time></trkpt><trkpt lat="43.57288001408707" lon="10.96265073651178"><ele>109.33333333333334</ele><time>2026-04-26T17:17:18.001Z</time></trkpt><trkpt lat="43.573108369063455" lon="10.96270592571451"><ele>107.66666666666667</ele><time>2026-04-26T17:17:19.001Z</time></trkpt><trkpt lat="43.573318682995456" lon="10.962735506939607"><ele>106.0</ele><time>2026-04-26T17:17:20.001Z</time></trkpt><trkpt lat="43.57351745071905" lon="10.962785403485938"><ele>104.0</ele><time>2026-04-26T17:17:21.001Z</time></trkpt><trkpt lat="43.57371309773027" lon="10.962831199353367"><ele>102.0</ele><time>2026-04-26T17:17:22.001Z</time></trkpt><trkpt lat="43.57390452933648" lon="10.962874690947057"><ele>100.0</ele><time>2026-04-26T17:17:23.001Z</time></trkpt><trkpt lat="43.57409515702526" lon="10.962921801035478"><ele>100.0</ele><time>2026-04-26T17:17:24.001Z</time></trkpt><trkpt lat="43.57428245627053" lon="10.962966069698112"><ele>100.0</ele><time>2026-04-26T17:17:25.001Z</time></trkpt><trkpt lat="43.574464937141975" lon="10.963009494509551"><ele>100.0</ele><time>2026-04-26T17:17:26.001Z</time></trkpt><trkpt lat="43.574648018434175" lon="10.963053301078848"><ele>97.0</ele><time>2026-04-26T17:17:27.001Z</time></trkpt><trkpt lat="43.57482873039153" lon="10.963095598113052"><ele>94.0</ele><time>2026-04-26T17:17:28.001Z</time></trkpt><trkpt lat="43.575005431420436" lon="10.963138199388355"><ele>91.0</ele><time>2026-04-26T17:17:29.001Z</time></trkpt><trkpt lat="43.57518110554489" lon="10.96318057451629"><ele>91.0</ele><time>2026-04-26T17:17:30.001Z</time></trkpt><trkpt lat="43.575352599573414" lon="10.963223023247552"><ele>91.0</ele><time>2026-04-26T17:17:31.001Z</time></trkpt><trkpt lat="43.57552682114946" lon="10.96326457759492"><ele>91.0</ele><time>2026-04-26T17:17:32.001Z</time></trkpt><trkpt lat="43.57569597160901" lon="10.963300775312042"><ele>88.66666666666666</ele><time>2026-04-26T17:17:33.001Z</time></trkpt><trkpt lat="43.57586684890974" lon="10.963336384336813"><ele>86.33333333333333</ele><time>2026-04-26T17:17:34.001Z</time></trkpt><trkpt lat="43.57603578715887" lon="10.963378993278667"><ele>84.0</ele><time>2026-04-26T17:17:35.001Z</time></trkpt><trkpt lat="43.5762033361739" lon="10.963422577720204"><ele>80.66666666666667</ele><time>2026-04-26T17:17:36.001Z</time></trkpt><trkpt lat="43.57637063314788" lon="10.963463808574728"><ele>77.33333333333334</ele><time>2026-04-26T17:17:37.001Z</time></trkpt><trkpt lat="43.576539742784966" lon="10.963503215538342"><ele>74.0</ele><time>2026-04-26T17:17:38.001Z</time></trkpt><trkpt lat="43.57670801145124" lon="10.963540794216467"><ele>74.0</ele><time>2026-04-26T17:17:39.001Z</time></trkpt><trkpt lat="43.57688105334923" lon="10.96360461957137"><ele>74.0</ele><time>2026-04-26T17:17:40.001Z</time></trkpt><trkpt lat="43.57705431387011" lon="10.96362288768924"><ele>74.0</ele><time>2026-04-26T17:17:41.001Z</time></trkpt><trkpt lat="43.577228750737724" lon="10.963666461602386"><ele>71.33333333333334</ele><time>2026-04-26T17:17:42.001Z</time></trkpt><trkpt lat="43.57740773863041" lon="10.963711316594544"><ele>68.66666666666667</ele><time>2026-04-26T17:17:43.001Z</time></trkpt><trkpt lat="43.57759778950013" lon="10.963757812549503"><ele>66.0</ele><time>2026-04-26T17:17:44.001Z</time></trkpt><trkpt lat="43.577789674787276" lon="10.963806308389461"><ele>64.66666666666667</ele><time>2026-04-26T17:17:45.001Z</time></trkpt><trkpt lat="43.577974032198256" lon="10.96385497876845"><ele>63.333333333333336</ele><time>2026-04-26T17:17:46.001Z</time></trkpt><trkpt lat="43.578155633494596" lon="10.963909357321446"><ele>62.0</ele><time>2026-04-26T17:17:47.001Z</time></trkpt><trkpt lat="43.578337535891855" lon="10.96396910544489"><ele>62.0</ele><time>2026-04-26T17:17:48.001Z</time></trkpt><trkpt lat="43.57852127577536" lon="10.96403569629101"><ele>62.0</ele><time>2026-04-26T17:17:49.001Z</time></trkpt><trkpt lat="43.57870326653451" lon="10.96410807294326"><ele>62.0</ele><time>2026-04-26T17:17:50.001Z</time></trkpt><trkpt lat="43.578887623967645" lon="10.964180459589075"><ele>62.333333333333336</ele><time>2026-04-26T17:17:51.002Z</time></trkpt><trkpt lat="43.57907191172796" lon="10.964250830255246"><ele>62.66666666666667</ele><time>2026-04-26T17:17:52.002Z</time></trkpt><trkpt lat="43.57925537994318" lon="10.964319429850066"><ele>63.0</ele><time>2026-04-26T17:17:53.002Z</time></trkpt><trkpt lat="43.57943916503503" lon="10.964389905145635"><ele>62.66666666666667</ele><time>2026-04-26T17:17:54.002Z</time></trkpt><trkpt lat="43.579629010194274" lon="10.96446147775323"><ele>62.333333333333336</ele><time>2026-04-26T17:17:54.999Z</time></trkpt><trkpt lat="43.579822650527845" lon="10.964533306315131"><ele>62.0</ele><time>2026-04-26T17:17:55.999Z</time></trkpt><trkpt lat="43.58001524823735" lon="10.964607163766338"><ele>62.0</ele><time>2026-04-26T17:17:56.999Z</time></trkpt><trkpt lat="43.58021699435447" lon="10.964683766777659"><ele>62.0</ele><time>2026-04-26T17:17:57.999Z</time></trkpt><trkpt lat="43.58042441557639" lon="10.964762098487377"><ele>62.0</ele><time>2026-04-26T17:17:58.999Z</time></trkpt><trkpt lat="43.58063832272177" lon="10.964842572438453"><ele>61.333333333333336</ele><time>2026-04-26T17:17:59.999Z</time></trkpt><trkpt lat="43.58085432731923" lon="10.964921932370956"><ele>60.66666666666667</ele><time>2026-04-26T17:18:00.999Z</time></trkpt><trkpt lat="43.58106490866623" lon="10.965002218121096"><ele>60.0</ele><time>2026-04-26T17:18:01.999Z</time></trkpt><trkpt lat="43.58126819932675" lon="10.96508211698952"><ele>60.0</ele><time>2026-04-26T17:18:02.999Z</time></trkpt><trkpt lat="43.58146221759511" lon="10.965162625609766"><ele>60.0</ele><time>2026-04-26T17:18:03.999Z</time></trkpt><trkpt lat="43.581652837584535" lon="10.96523174822287"><ele>60.0</ele><time>2026-04-26T17:18:04.999Z</time></trkpt><trkpt lat="43.581832188816556" lon="10.965297693846539"><ele>60.0</ele><time>2026-04-26T17:18:05.999Z</time></trkpt><trkpt lat="43.58200570083553" lon="10.965367042744923"><ele>60.0</ele><time>2026-04-26T17:18:06.999Z</time></trkpt><trkpt lat="43.58217660718442" lon="10.965430293334308"><ele>60.0</ele><time>2026-04-26T17:18:07.999Z</time></trkpt><trkpt lat="43.58234793333547" lon="10.965490323311048"><ele>60.0</ele><time>2026-04-26T17:18:08.999Z</time></trkpt><trkpt lat="43.58252333662361" lon="10.965554274039194"><ele>60.0</ele><time>2026-04-26T17:18:09.999Z</time></trkpt><trkpt lat="43.58271206583337" lon="10.965628085277542"><ele>60.0</ele><time>2026-04-26T17:18:10.999Z</time></trkpt><trkpt lat="43.58290663069893" lon="10.965701912931587"><ele>60.0</ele><time>2026-04-26T17:18:11.999Z</time></trkpt><trkpt lat="43.583112319642524" lon="10.965783023766466"><ele>60.0</ele><time>2026-04-26T17:18:12.999Z</time></trkpt><trkpt lat="43.58331551843496" lon="10.965863762508032"><ele>60.0</ele><time>2026-04-26T17:18:13.999Z</time></trkpt><trkpt lat="43.583514733707986" lon="10.965944442043083"><ele>59.0</ele><time>2026-04-26T17:18:14.999Z</time></trkpt><trkpt lat="43.583710738140255" lon="10.9660288687173"><ele>58.0</ele><time>2026-04-26T17:18:15.999Z</time></trkpt><trkpt lat="43.583902742629924" lon="10.96613149473907"><ele>57.0</ele><time>2026-04-26T17:18:16.999Z</time></trkpt><trkpt lat="43.58408844860651" lon="10.966250095933136"><ele>57.0</ele><time>2026-04-26T17:18:18Z</time></trkpt><trkpt lat="43.58426350529454" lon="10.966385030926356"><ele>57.0</ele><time>2026-04-26T17:18:19Z</time></trkpt><trkpt lat="43.58442971122795" lon="10.96652008953186"><ele>57.0</ele><time>2026-04-26T17:18:20Z</time></trkpt><trkpt lat="43.584566692570384" lon="10.966679445377194"><ele>57.33333333333333</ele><time>2026-04-26T17:18:21Z</time></trkpt><trkpt lat="43.58470336188669" lon="10.966821551040024"><ele>57.666666666666664</ele><time>2026-04-26T17:18:22Z</time></trkpt><trkpt lat="43.58484985203305" lon="10.966946828934095"><ele>58.0</ele><time>2026-04-26T17:18:23Z</time></trkpt><trkpt lat="43.58499613578229" lon="10.967101638166291"><ele>58.0</ele><time>2026-04-26T17:18:24Z</time></trkpt><trkpt lat="43.585143577862276" lon="10.967260466873421"><ele>58.0</ele><time>2026-04-26T17:18:25Z</time></trkpt><trkpt lat="43.58528403074919" lon="10.967410481706832"><ele>58.0</ele><time>2026-04-26T17:18:26Z</time></trkpt><trkpt lat="43.585425790161935" lon="10.96756196106014"><ele>57.666666666666664</ele><time>2026-04-26T17:18:27Z</time></trkpt><trkpt lat="43.58557579514437" lon="10.967717123086805"><ele>57.33333333333333</ele><time>2026-04-26T17:18:28Z</time></trkpt><trkpt lat="43.585739189532326" lon="10.967888420168244"><ele>57.0</ele><time>2026-04-26T17:18:29Z</time></trkpt><trkpt lat="43.585919417608274" lon="10.968079274342031"><ele>57.0</ele><time>2026-04-26T17:18:30Z</time></trkpt><trkpt lat="43.58611373588848" lon="10.968285952766095"><ele>57.0</ele><time>2026-04-26T17:18:31Z</time></trkpt><trkpt lat="43.58631752428266" lon="10.968502185292117"><ele>55.5</ele><time>2026-04-26T17:18:32Z</time></trkpt><trkpt lat="43.58652057030935" lon="10.968722034273382"><ele>54.0</ele><time>2026-04-26T17:18:33Z</time></trkpt><trkpt lat="43.58671508012626" lon="10.968930618058435"><ele>54.0</ele><time>2026-04-26T17:18:34Z</time></trkpt><trkpt lat="43.58688380922544" lon="10.969148861170284"><ele>54.0</ele><time>2026-04-26T17:18:35Z</time></trkpt><trkpt lat="43.58705791962576" lon="10.969339854713544"><ele>55.33333333333333</ele><time>2026-04-26T17:18:36Z</time></trkpt><trkpt lat="43.587224657204416" lon="10.969521979726666"><ele>56.666666666666664</ele><time>2026-04-26T17:18:37Z</time></trkpt><trkpt lat="43.587386188935426" lon="10.969698418642226"><ele>58.0</ele><time>2026-04-26T17:18:38Z</time></trkpt><trkpt lat="43.58755110883899" lon="10.96987735645391"><ele>57.33333333333333</ele><time>2026-04-26T17:18:39Z</time></trkpt><trkpt lat="43.58772004118543" lon="10.970059896901263"><ele>56.66666666666667</ele><time>2026-04-26T17:18:40Z</time></trkpt><trkpt lat="43.58788987199813" lon="10.970243408145059"><ele>56.0</ele><time>2026-04-26T17:18:41Z</time></trkpt><trkpt lat="43.58806535977595" lon="10.970394346743939"><ele>55.333333333333336</ele><time>2026-04-26T17:18:42Z</time></trkpt><trkpt lat="43.58822065361406" lon="10.970564281583819"><ele>54.66666666666667</ele><time>2026-04-26T17:18:43Z</time></trkpt><trkpt lat="43.58837021291313" lon="10.970720126032212"><ele>54.0</ele><time>2026-04-26T17:18:44Z</time></trkpt><trkpt lat="43.58851115284183" lon="10.970865692367315"><ele>54.0</ele><time>2026-04-26T17:18:45Z</time></trkpt><trkpt lat="43.58865030270112" lon="10.97100619513175"><ele>54.0</ele><time>2026-04-26T17:18:46Z</time></trkpt><trkpt lat="43.58878072750419" lon="10.971135501850874"><ele>54.0</ele><time>2026-04-26T17:18:47Z</time></trkpt><trkpt lat="43.58890680327949" lon="10.971257657317068"><ele>53.75</ele><time>2026-04-26T17:18:48Z</time></trkpt><trkpt lat="43.58902286084178" lon="10.9713763005413"><ele>53.5</ele><time>2026-04-26T17:18:49Z</time></trkpt><trkpt lat="43.58911724551178" lon="10.97149425762321"><ele>53.25</ele><time>2026-04-26T17:18:50Z</time></trkpt><trkpt lat="43.58920590838257" lon="10.971626232788052"><ele>53.0</ele><time>2026-04-26T17:18:51Z</time></trkpt><trkpt lat="43.589289206782034" lon="10.97175232300144"><ele>52.75</ele><time>2026-04-26T17:18:52Z</time></trkpt><trkpt lat="43.589369176150605" lon="10.971866477170968"><ele>52.5</ele><time>2026-04-26T17:18:53Z</time></trkpt><trkpt lat="43.58946657791901" lon="10.971941739541252"><ele>52.25</ele><time>2026-04-26T17:18:54Z</time></trkpt><trkpt lat="43.589585482524974" lon="10.971971969546955"><ele>52.0</ele><time>2026-04-26T17:18:55Z</time></trkpt><trkpt lat="43.58972471956451" lon="10.971961724845675"><ele>52.0</ele><time>2026-04-26T17:18:56Z</time></trkpt><trkpt lat="43.5898896984057" lon="10.971927928827114"><ele>52.0</ele><time>2026-04-26T17:18:57Z</time></trkpt><trkpt lat="43.59009126616332" lon="10.971925154110165"><ele>52.0</ele><time>2026-04-26T17:18:58Z</time></trkpt><trkpt lat="43.59031851173676" lon="10.971974352199728"><ele>52.0</ele><time>2026-04-26T17:18:59Z</time></trkpt><trkpt lat="43.5905515640931" lon="10.972024086636628"><ele>52.0</ele><time>2026-04-26T17:19:00Z</time></trkpt><trkpt lat="43.59076042913532" lon="10.972068252696545"><ele>52.0</ele><time>2026-04-26T17:19:01Z</time></trkpt><trkpt lat="43.59096580992862" lon="10.972105592872262"><ele>52.0</ele><time>2026-04-26T17:19:02Z</time></trkpt><trkpt lat="43.591155005122346" lon="10.972134298217744"><ele>52.0</ele><time>2026-04-26T17:19:03Z</time></trkpt><trkpt lat="43.59134064820801" lon="10.97216464149909"><ele>52.0</ele><time>2026-04-26T17:19:04Z</time></trkpt><trkpt lat="43.59151233422716" lon="10.972193561025525"><ele>51.666666666666664</ele><time>2026-04-26T17:19:05Z</time></trkpt><trkpt lat="43.591675612160365" lon="10.972218578953399"><ele>51.33333333333333</ele><time>2026-04-26T17:19:06Z</time></trkpt><trkpt lat="43.59184006165697" lon="10.972241099231047"><ele>51.0</ele><time>2026-04-26T17:19:07Z</time></trkpt><trkpt lat="43.59200693812821" lon="10.972262239376832"><ele>51.0</ele><time>2026-04-26T17:19:08Z</time></trkpt><trkpt lat="43.592167537532674" lon="10.97228033641591"><ele>51.0</ele><time>2026-04-26T17:19:09.001Z</time></trkpt><trkpt lat="43.59231174981659" lon="10.972299593801571"><ele>51.0</ele><time>2026-04-26T17:19:10.001Z</time></trkpt><trkpt lat="43.59243694727713" lon="10.972325538340582"><ele>51.0</ele><time>2026-04-26T17:19:11.001Z</time></trkpt><trkpt lat="43.59253941787673" lon="10.972369217640011"><ele>51.0</ele><time>2026-04-26T17:19:12.001Z</time></trkpt><trkpt lat="43.59263298029716" lon="10.972437220588775"><ele>51.0</ele><time>2026-04-26T17:19:13.001Z</time></trkpt><trkpt lat="43.59273039660301" lon="10.972506032636751"><ele>51.0</ele><time>2026-04-26T17:19:14.001Z</time></trkpt><trkpt lat="43.5928253672958" lon="10.972533426175417"><ele>51.0</ele><time>2026-04-26T17:19:15.001Z</time></trkpt><trkpt lat="43.5929002715053" lon="10.9725104339392"><ele>51.0</ele><time>2026-04-26T17:19:16.001Z</time></trkpt><trkpt lat="43.592948907396426" lon="10.972449292870705"><ele>50.833333333333336</ele><time>2026-04-26T17:19:17.001Z</time></trkpt><trkpt lat="43.59298543841048" lon="10.972368485988108"><ele>50.66666666666667</ele><time>2026-04-26T17:19:18.001Z</time></trkpt><trkpt lat="43.59300309970583" lon="10.972270927451207"><ele>50.5</ele><time>2026-04-26T17:19:19.001Z</time></trkpt><trkpt lat="43.59298553726271" lon="10.972164491616846"><ele>50.333333333333336</ele><time>2026-04-26T17:19:20.001Z</time></trkpt><trkpt lat="43.592941538338174" lon="10.972061097722198"><ele>50.16666666666667</ele><time>2026-04-26T17:19:21.001Z</time></trkpt><trkpt lat="43.59289521683539" lon="10.971960832716059"><ele>50.0</ele><time>2026-04-26T17:19:22.001Z</time></trkpt><trkpt lat="43.592870210098305" lon="10.971838947607125"><ele>50.25</ele><time>2026-04-26T17:19:23.001Z</time></trkpt><trkpt lat="43.592867636321294" lon="10.971682973734138"><ele>50.5</ele><time>2026-04-26T17:19:24.001Z</time></trkpt><trkpt lat="43.59288893675915" lon="10.971479633943419"><ele>50.75</ele><time>2026-04-26T17:19:25.001Z</time></trkpt><trkpt lat="43.59292244652804" lon="10.971226448883698"><ele>51.0</ele><time>2026-04-26T17:19:26.001Z</time></trkpt><trkpt lat="43.59295695619157" lon="10.970953734989815"><ele>51.0</ele><time>2026-04-26T17:19:27.001Z</time></trkpt><trkpt lat="43.592990217551275" lon="10.970670454753959"><ele>51.0</ele><time>2026-04-26T17:19:28.001Z</time></trkpt><trkpt lat="43.593021078120415" lon="10.970393327828258"><ele>51.0</ele><time>2026-04-26T17:19:29.001Z</time></trkpt><trkpt lat="43.593050902541066" lon="10.970133135302888"><ele>51.0</ele><time>2026-04-26T17:19:30.001Z</time></trkpt><trkpt lat="43.59307977501075" lon="10.969884069896604"><ele>51.0</ele><time>2026-04-26T17:19:31.001Z</time></trkpt><trkpt lat="43.593112113446665" lon="10.969641778932568"><ele>51.0</ele><time>2026-04-26T17:19:32.001Z</time></trkpt><trkpt lat="43.593146828974966" lon="10.9694036937248"><ele>50.66666666666667</ele><time>2026-04-26T17:19:33.001Z</time></trkpt><trkpt lat="43.593188537716365" lon="10.969167004200251"><ele>50.333333333333336</ele><time>2026-04-26T17:19:34.001Z</time></trkpt><trkpt lat="43.59323845473504" lon="10.968926684859758"><ele>50.0</ele><time>2026-04-26T17:19:35.001Z</time></trkpt><trkpt lat="43.593296413127405" lon="10.96869800950105"><ele>50.0</ele><time>2026-04-26T17:19:36.001Z</time></trkpt><trkpt lat="43.59336328370593" lon="10.968474297590243"><ele>50.0</ele><time>2026-04-26T17:19:37.001Z</time></trkpt><trkpt lat="43.59343258010818" lon="10.968259493646038"><ele>50.0</ele><time>2026-04-26T17:19:38.001Z</time></trkpt><trkpt lat="43.59350422690827" lon="10.968045507988377"><ele>50.0</ele><time>2026-04-26T17:19:39.001Z</time></trkpt><trkpt lat="43.59357946741433" lon="10.967824132005832"><ele>50.0</ele><time>2026-04-26T17:19:40.001Z</time></trkpt><trkpt lat="43.593650941390266" lon="10.967613529101216"><ele>50.0</ele><time>2026-04-26T17:19:41.001Z</time></trkpt><trkpt lat="43.593718201524354" lon="10.967418858522553"><ele>50.25</ele><time>2026-04-26T17:19:42.001Z</time></trkpt><trkpt lat="43.59377626403619" lon="10.96723058913559"><ele>50.5</ele><time>2026-04-26T17:19:43.001Z</time></trkpt><trkpt lat="43.59383096698353" lon="10.967054653542224"><ele>50.75</ele><time>2026-04-26T17:19:44.001Z</time></trkpt><trkpt lat="43.59387725119427" lon="10.96690913178676"><ele>51.0</ele><time>2026-04-26T17:19:45.001Z</time></trkpt><trkpt lat="43.5939161121725" lon="10.966792846460063"><ele>51.25</ele><time>2026-04-26T17:19:46.001Z</time></trkpt><trkpt lat="43.59397287970428" lon="10.966628315498332"><ele>51.5</ele><time>2026-04-26T17:19:47.001Z</time></trkpt><trkpt lat="43.59401369498271" lon="10.966466362504125"><ele>51.75</ele><time>2026-04-26T17:19:48.001Z</time></trkpt><trkpt lat="43.59404762582687" lon="10.96629424475629"><ele>52.0</ele><time>2026-04-26T17:19:49.001Z</time></trkpt><trkpt lat="43.59409490758597" lon="10.966113811746151"><ele>52.0</ele><time>2026-04-26T17:19:50.001Z</time></trkpt><trkpt lat="43.594174145675936" lon="10.965913108031705"><ele>52.0</ele><time>2026-04-26T17:19:51.001Z</time></trkpt><trkpt lat="43.594272788587666" lon="10.965705800798554"><ele>52.0</ele><time>2026-04-26T17:19:52.001Z</time></trkpt><trkpt lat="43.59437298050399" lon="10.96547788994467"><ele>51.33333333333333</ele><time>2026-04-26T17:19:53.001Z</time></trkpt><trkpt lat="43.59446511409927" lon="10.965243434019062"><ele>50.66666666666667</ele><time>2026-04-26T17:19:54.001Z</time></trkpt><trkpt lat="43.594568165521395" lon="10.965021328747612"><ele>50.0</ele><time>2026-04-26T17:19:55.001Z</time></trkpt><trkpt lat="43.594694581364635" lon="10.96480516493185"><ele>50.0</ele><time>2026-04-26T17:19:56.001Z</time></trkpt><trkpt lat="43.59483644776075" lon="10.964579906483197"><ele>50.0</ele><time>2026-04-26T17:19:57.001Z</time></trkpt><trkpt lat="43.5949792087445" lon="10.964390071631174"><ele>50.0</ele><time>2026-04-26T17:19:58.001Z</time></trkpt><trkpt lat="43.59512834160012" lon="10.964216934123346"><ele>50.0</ele><time>2026-04-26T17:19:59.001Z</time></trkpt><trkpt lat="43.59528391461782" lon="10.964061673615143"><ele>50.0</ele><time>2026-04-26T17:20:00.001Z</time></trkpt><trkpt lat="43.59544706595941" lon="10.963934477723747"><ele>50.0</ele><time>2026-04-26T17:20:00.999Z</time></trkpt><trkpt lat="43.59562185168095" lon="10.963813192556291"><ele>50.0</ele><time>2026-04-26T17:20:01.999Z</time></trkpt><trkpt lat="43.59580969752776" lon="10.963699460394645"><ele>50.0</ele><time>2026-04-26T17:20:02.999Z</time></trkpt><trkpt lat="43.596001805193985" lon="10.96359633211758"><ele>50.0</ele><time>2026-04-26T17:20:03.999Z</time></trkpt><trkpt lat="43.596191997300124" lon="10.963503921175672"><ele>49.66666666666667</ele><time>2026-04-26T17:20:04.999Z</time></trkpt><trkpt lat="43.59638007903831" lon="10.96342076925713"><ele>49.33333333333333</ele><time>2026-04-26T17:20:05.999Z</time></trkpt><trkpt lat="43.596566922483696" lon="10.963337613135733"><ele>49.0</ele><time>2026-04-26T17:20:06.999Z</time></trkpt><trkpt lat="43.59675123213581" lon="10.96325109759161"><ele>49.0</ele><time>2026-04-26T17:20:07.999Z</time></trkpt><trkpt lat="43.59692877433112" lon="10.963167712675647"><ele>49.0</ele><time>2026-04-26T17:20:08.999Z</time></trkpt><trkpt lat="43.597113681502634" lon="10.963112554606468"><ele>49.0</ele><time>2026-04-26T17:20:09.999Z</time></trkpt><trkpt lat="43.597292377185774" lon="10.963035400236098"><ele>50.0</ele><time>2026-04-26T17:20:10.999Z</time></trkpt><trkpt lat="43.59746419854283" lon="10.962937161147963"><ele>51.0</ele><time>2026-04-26T17:20:11.999Z</time></trkpt><trkpt lat="43.59763531191363" lon="10.962864911628708"><ele>52.0</ele><time>2026-04-26T17:20:12.999Z</time></trkpt><trkpt lat="43.59780599984296" lon="10.962792082295525"><ele>51.666666666666664</ele><time>2026-04-26T17:20:14Z</time></trkpt><trkpt lat="43.59796466856099" lon="10.962725544422424"><ele>51.33333333333333</ele><time>2026-04-26T17:20:15Z</time></trkpt><trkpt lat="43.598112404746324" lon="10.962658081064722"><ele>51.0</ele><time>2026-04-26T17:20:16Z</time></trkpt><trkpt lat="43.598260955094545" lon="10.962617929793998"><ele>51.0</ele><time>2026-04-26T17:20:17Z</time></trkpt><trkpt lat="43.598411872847386" lon="10.96255388281702"><ele>51.0</ele><time>2026-04-26T17:20:18Z</time></trkpt><trkpt lat="43.59855380882437" lon="10.96249100996221"><ele>51.0</ele><time>2026-04-26T17:20:19Z</time></trkpt><trkpt lat="43.598682783086936" lon="10.962411438845615"><ele>51.0</ele><time>2026-04-26T17:20:20Z</time></trkpt><trkpt lat="43.59880402008019" lon="10.962361911309637"><ele>50.8</ele><time>2026-04-26T17:20:21Z</time></trkpt><trkpt lat="43.5989088800057" lon="10.962315139571214"><ele>50.599999999999994</ele><time>2026-04-26T17:20:22Z</time></trkpt><trkpt lat="43.599004734859136" lon="10.962278053422096"><ele>50.4</ele><time>2026-04-26T17:20:23Z</time></trkpt><trkpt lat="43.59909342459185" lon="10.962246287700857"><ele>50.2</ele><time>2026-04-26T17:20:24Z</time></trkpt><trkpt lat="43.59917122524662" lon="10.96222016299588"><ele>50.0</ele><time>2026-04-26T17:20:25Z</time></trkpt><trkpt lat="43.59923747779562" lon="10.962195000898026"><ele>50.00000000000001</ele><time>2026-04-26T17:20:26Z</time></trkpt><trkpt lat="43.599338111439494" lon="10.962150654125264"><ele>50.0</ele><time>2026-04-26T17:20:28Z</time></trkpt><trkpt lat="43.5994055578699" lon="10.962119806397677"><ele>50.0</ele><time>2026-04-26T17:20:30Z</time></trkpt><trkpt lat="43.59948228075386" lon="10.962082387660168"><ele>50.0</ele><time>2026-04-26T17:20:33Z</time></trkpt><trkpt lat="43.59954509963306" lon="10.962061475767731"><ele>50.00000000000001</ele><time>2026-04-26T17:20:36Z</time></trkpt><trkpt lat="43.59961531931445" lon="10.962034563052612"><ele>50.0</ele><time>2026-04-26T17:20:39Z</time></trkpt><trkpt lat="43.59969236242311" lon="10.962005035173236"><ele>50.2</ele><time>2026-04-26T17:20:40Z</time></trkpt><trkpt lat="43.5997621987616" lon="10.961978269386021"><ele>50.4</ele><time>2026-04-26T17:20:41Z</time></trkpt><trkpt lat="43.59985606653388" lon="10.961940219326582"><ele>50.599999999999994</ele><time>2026-04-26T17:20:42Z</time></trkpt><trkpt lat="43.59997058262683" lon="10.96187001406393"><ele>50.8</ele><time>2026-04-26T17:20:43Z</time></trkpt><trkpt lat="43.60010408858899" lon="10.961816077240757"><ele>51.0</ele><time>2026-04-26T17:20:44Z</time></trkpt><trkpt lat="43.600270025965116" lon="10.961746465026973"><ele>51.0</ele><time>2026-04-26T17:20:45Z</time></trkpt><trkpt lat="43.6004385319096" lon="10.961670133792385"><ele>51.0</ele><time>2026-04-26T17:20:46Z</time></trkpt><trkpt lat="43.60061538873574" lon="10.9615911904393"><ele>51.0</ele><time>2026-04-26T17:20:47Z</time></trkpt><trkpt lat="43.60079784006251" lon="10.961510472909923"><ele>51.0</ele><time>2026-04-26T17:20:48Z</time></trkpt><trkpt lat="43.600992974034604" lon="10.961421558126908"><ele>51.0</ele><time>2026-04-26T17:20:49Z</time></trkpt><trkpt lat="43.60120683032993" lon="10.961326346277508"><ele>51.0</ele><time>2026-04-26T17:20:50Z</time></trkpt><trkpt lat="43.60141883160715" lon="10.961233411645464"><ele>50.0</ele><time>2026-04-26T17:20:51Z</time></trkpt><trkpt lat="43.60163417679699" lon="10.961138681037108"><ele>49.0</ele><time>2026-04-26T17:20:52Z</time></trkpt><trkpt lat="43.601851614457864" lon="10.961044489849922"><ele>49.0</ele><time>2026-04-26T17:20:53Z</time></trkpt><trkpt lat="43.60206913563107" lon="10.960950805133862"><ele>49.0</ele><time>2026-04-26T17:20:54.001Z</time></trkpt><trkpt lat="43.60228854787895" lon="10.960855175895874"><ele>48.0</ele><time>2026-04-26T17:20:55.001Z</time></trkpt><trkpt lat="43.60250697044219" lon="10.960758143081168"><ele>47.0</ele><time>2026-04-26T17:20:56.001Z</time></trkpt><trkpt lat="43.602724720682666" lon="10.960663992193092"><ele>48.0</ele><time>2026-04-26T17:20:57.001Z</time></trkpt><trkpt lat="43.602946238917" lon="10.960576084922025"><ele>49.0</ele><time>2026-04-26T17:20:58.001Z</time></trkpt><trkpt lat="43.603166752374534" lon="10.960498879297853"><ele>49.0</ele><time>2026-04-26T17:20:59.001Z</time></trkpt><trkpt lat="43.60339655449056" lon="10.960428753789367"><ele>49.0</ele><time>2026-04-26T17:21:00.001Z</time></trkpt><trkpt lat="43.6036290783313" lon="10.960363698337888"><ele>48.5</ele><time>2026-04-26T17:21:01.001Z</time></trkpt><trkpt lat="43.603861445965855" lon="10.960304072328142"><ele>48.0</ele><time>2026-04-26T17:21:02.001Z</time></trkpt><trkpt lat="43.60409098124743" lon="10.96025615364013"><ele>48.0</ele><time>2026-04-26T17:21:03.001Z</time></trkpt><trkpt lat="43.60432106234139" lon="10.960215658685186"><ele>48.0</ele><time>2026-04-26T17:21:04.001Z</time></trkpt><trkpt lat="43.60454491726786" lon="10.960182891479139"><ele>48.0</ele><time>2026-04-26T17:21:05.001Z</time></trkpt><trkpt lat="43.60477134386635" lon="10.960182843143413"><ele>48.0</ele><time>2026-04-26T17:21:06.001Z</time></trkpt><trkpt lat="43.6049929727797" lon="10.960166054539528"><ele>48.0</ele><time>2026-04-26T17:21:07.001Z</time></trkpt><trkpt lat="43.605208397098664" lon="10.960153773620538"><ele>48.33333333333333</ele><time>2026-04-26T17:21:08.001Z</time></trkpt><trkpt lat="43.605418483582646" lon="10.960151195236735"><ele>48.666666666666664</ele><time>2026-04-26T17:21:09.001Z</time></trkpt><trkpt lat="43.60562777531344" lon="10.960158941755303"><ele>49.0</ele><time>2026-04-26T17:21:10.001Z</time></trkpt><trkpt lat="43.60583796829065" lon="10.960172582196911"><ele>49.0</ele><time>2026-04-26T17:21:11.001Z</time></trkpt><trkpt lat="43.60605330420823" lon="10.96019461866599"><ele>49.0</ele><time>2026-04-26T17:21:12.001Z</time></trkpt><trkpt lat="43.60625843200868" lon="10.960199014571815"><ele>49.0</ele><time>2026-04-26T17:21:13.001Z</time></trkpt><trkpt lat="43.60644551312961" lon="10.960230257924161"><ele>49.0</ele><time>2026-04-26T17:21:14.001Z</time></trkpt><trkpt lat="43.606622674634444" lon="10.960263196141918"><ele>49.0</ele><time>2026-04-26T17:21:15.001Z</time></trkpt><trkpt lat="43.6067890257553" lon="10.960318751717368"><ele>49.0</ele><time>2026-04-26T17:21:16.001Z</time></trkpt><trkpt lat="43.606952591844276" lon="10.960357079775656"><ele>48.75</ele><time>2026-04-26T17:21:17.001Z</time></trkpt><trkpt lat="43.607105816392924" lon="10.960373943223649"><ele>48.5</ele><time>2026-04-26T17:21:18.001Z</time></trkpt><trkpt lat="43.607231415200424" lon="10.960409497374966"><ele>48.25</ele><time>2026-04-26T17:21:19.001Z</time></trkpt><trkpt lat="43.60733844055294" lon="10.960442352408016"><ele>48.0</ele><time>2026-04-26T17:21:20.001Z</time></trkpt><trkpt lat="43.607423380483986" lon="10.96050234085798"><ele>48.0</ele><time>2026-04-26T17:21:21.001Z</time></trkpt><trkpt lat="43.60749335278071" lon="10.960586758844453"><ele>48.0</ele><time>2026-04-26T17:21:22.001Z</time></trkpt><trkpt lat="43.60756334397501" lon="10.960677989089184"><ele>48.0</ele><time>2026-04-26T17:21:23.001Z</time></trkpt><trkpt lat="43.60763978274165" lon="10.960727381489797"><ele>48.0</ele><time>2026-04-26T17:21:24.001Z</time></trkpt><trkpt lat="43.607709617758616" lon="10.960727011491345"><ele>48.0</ele><time>2026-04-26T17:21:25.001Z</time></trkpt><trkpt lat="43.607764024253335" lon="10.960683229740537"><ele>48.0</ele><time>2026-04-26T17:21:26.001Z</time></trkpt><trkpt lat="43.60780819010807" lon="10.96059572527722"><ele>48.0</ele><time>2026-04-26T17:21:27.001Z</time></trkpt><trkpt lat="43.60781630487313" lon="10.96048901141916"><ele>48.0</ele><time>2026-04-26T17:21:28.001Z</time></trkpt><trkpt lat="43.60778411102196" lon="10.96034954830971"><ele>48.0</ele><time>2026-04-26T17:21:29.001Z</time></trkpt><trkpt lat="43.60775309594671" lon="10.960271725839238"><ele>48.0</ele><time>2026-04-26T17:21:30.001Z</time></trkpt><trkpt lat="43.60785156803742" lon="10.96010294215263"><ele>48.0</ele><time>2026-04-26T17:21:31.001Z</time></trkpt><trkpt lat="43.60793019606134" lon="10.959951658658639"><ele>48.0</ele><time>2026-04-26T17:21:32.001Z</time></trkpt><trkpt lat="43.60800487314259" lon="10.959776178039714"><ele>48.0</ele><time>2026-04-26T17:21:33.001Z</time></trkpt><trkpt lat="43.6080564586344" lon="10.959598780212739"><ele>48.0</ele><time>2026-04-26T17:21:34.001Z</time></trkpt><trkpt lat="43.6080840101243" lon="10.959417659970837"><ele>48.0</ele><time>2026-04-26T17:21:35.001Z</time></trkpt><trkpt lat="43.60807959562097" lon="10.959227192363011"><ele>48.5</ele><time>2026-04-26T17:21:36.001Z</time></trkpt><trkpt lat="43.60804344197475" lon="10.959019469579788"><ele>49.0</ele><time>2026-04-26T17:21:37.001Z</time></trkpt><trkpt lat="43.608006610691966" lon="10.95881965312606"><ele>49.5</ele><time>2026-04-26T17:21:38.001Z</time></trkpt><trkpt lat="43.60798565904266" lon="10.958625336580841"><ele>50.0</ele><time>2026-04-26T17:21:39.001Z</time></trkpt><trkpt lat="43.607957774592066" lon="10.958424794875722"><ele>49.5</ele><time>2026-04-26T17:21:40.001Z</time></trkpt><trkpt lat="43.607942384287405" lon="10.958230813370145"><ele>49.0</ele><time>2026-04-26T17:21:41.001Z</time></trkpt><trkpt lat="43.60794432094986" lon="10.958030621764602"><ele>48.5</ele><time>2026-04-26T17:21:42.001Z</time></trkpt><trkpt lat="43.60797740971627" lon="10.957839599473214"><ele>48.0</ele><time>2026-04-26T17:21:43.001Z</time></trkpt><trkpt lat="43.60804447183792" lon="10.957668405498824"><ele>48.5</ele><time>2026-04-26T17:21:44.001Z</time></trkpt><trkpt lat="43.60814112601672" lon="10.957526569269444"><ele>49.0</ele><time>2026-04-26T17:21:45.001Z</time></trkpt><trkpt lat="43.60827417877072" lon="10.957427860428602"><ele>49.5</ele><time>2026-04-26T17:21:46.001Z</time></trkpt><trkpt lat="43.608407151971655" lon="10.957312250546359"><ele>50.0</ele><time>2026-04-26T17:21:47.001Z</time></trkpt><trkpt lat="43.60856075012171" lon="10.957176087213005"><ele>49.333333333333336</ele><time>2026-04-26T17:21:48.002Z</time></trkpt><trkpt lat="43.60871786208826" lon="10.957036888926398"><ele>48.66666666666667</ele><time>2026-04-26T17:21:49.002Z</time></trkpt><trkpt lat="43.608888640394476" lon="10.956879922945058"><ele>48.0</ele><time>2026-04-26T17:21:50.002Z</time></trkpt><trkpt lat="43.60906558564024" lon="10.956708963523164"><ele>48.33333333333333</ele><time>2026-04-26T17:21:51.002Z</time></trkpt><trkpt lat="43.60924261743397" lon="10.956531670964772"><ele>48.666666666666664</ele><time>2026-04-26T17:21:52.002Z</time></trkpt><trkpt lat="43.60939223006294" lon="10.956363474858733"><ele>49.0</ele><time>2026-04-26T17:21:53.002Z</time></trkpt><trkpt lat="43.609542209402484" lon="10.956222365507617"><ele>48.0</ele><time>2026-04-26T17:21:54.002Z</time></trkpt><trkpt lat="43.609691325228255" lon="10.956107153799989"><ele>47.0</ele><time>2026-04-26T17:21:55.002Z</time></trkpt><trkpt lat="43.60983368014852" lon="10.956031946215264"><ele>46.0</ele><time>2026-04-26T17:21:56.002Z</time></trkpt><trkpt lat="43.60999074492392" lon="10.955994193799025"><ele>46.0</ele><time>2026-04-26T17:21:57.002Z</time></trkpt><trkpt lat="43.610175262473774" lon="10.955975634607073"><ele>46.0</ele><time>2026-04-26T17:21:58.002Z</time></trkpt><trkpt lat="43.610347090098955" lon="10.955969972654664"><ele>46.0</ele><time>2026-04-26T17:21:59.002Z</time></trkpt><trkpt lat="43.61050910017637" lon="10.955956306785852"><ele>46.25</ele><time>2026-04-26T17:22:00.002Z</time></trkpt><trkpt lat="43.61065646712181" lon="10.955913969382978"><ele>46.5</ele><time>2026-04-26T17:22:01.002Z</time></trkpt><trkpt lat="43.61078977979043" lon="10.955831570753132"><ele>46.75</ele><time>2026-04-26T17:22:02.002Z</time></trkpt><trkpt lat="43.610906287391614" lon="10.955706115960268"><ele>47.0</ele><time>2026-04-26T17:22:03.002Z</time></trkpt><trkpt lat="43.61101494166282" lon="10.955528423062866"><ele>47.33333333333333</ele><time>2026-04-26T17:22:04.002Z</time></trkpt><trkpt lat="43.6111262958902" lon="10.955292551014898"><ele>47.666666666666664</ele><time>2026-04-26T17:22:05.002Z</time></trkpt><trkpt lat="43.61123696189463" lon="10.955029103534555"><ele>48.0</ele><time>2026-04-26T17:22:06.002Z</time></trkpt><trkpt lat="43.611342348113936" lon="10.954774741025096"><ele>48.0</ele><time>2026-04-26T17:22:07Z</time></trkpt><trkpt lat="43.611450957497624" lon="10.954535816862105"><ele>48.0</ele><time>2026-04-26T17:22:08Z</time></trkpt><trkpt lat="43.611573509357285" lon="10.954293327405352"><ele>48.0</ele><time>2026-04-26T17:22:09Z</time></trkpt><trkpt lat="43.61168357324509" lon="10.954071942640294"><ele>48.0</ele><time>2026-04-26T17:22:10Z</time></trkpt><trkpt lat="43.61179351905521" lon="10.953870590349911"><ele>48.0</ele><time>2026-04-26T17:22:11Z</time></trkpt><trkpt lat="43.61190122485559" lon="10.953683404746444"><ele>48.0</ele><time>2026-04-26T17:22:12Z</time></trkpt><trkpt lat="43.61200934790832" lon="10.953513331638522"><ele>48.0</ele><time>2026-04-26T17:22:13Z</time></trkpt><trkpt lat="43.61212974944482" lon="10.95337398421447"><ele>48.0</ele><time>2026-04-26T17:22:14Z</time></trkpt><trkpt lat="43.61226537464736" lon="10.953264769419084"><ele>48.0</ele><time>2026-04-26T17:22:15Z</time></trkpt><trkpt lat="43.612422533552866" lon="10.953179860971668"><ele>47.666666666666664</ele><time>2026-04-26T17:22:16Z</time></trkpt><trkpt lat="43.61257576400262" lon="10.953117680034628"><ele>47.33333333333333</ele><time>2026-04-26T17:22:17Z</time></trkpt><trkpt lat="43.61272640896463" lon="10.953043449660852"><ele>47.0</ele><time>2026-04-26T17:22:18Z</time></trkpt><trkpt lat="43.612880590779916" lon="10.952924993808299"><ele>47.0</ele><time>2026-04-26T17:22:19Z</time></trkpt><trkpt lat="43.61304520678339" lon="10.952752047585523"><ele>47.0</ele><time>2026-04-26T17:22:20Z</time></trkpt><trkpt lat="43.61320295649807" lon="10.952563831153501"><ele>47.0</ele><time>2026-04-26T17:22:21Z</time></trkpt><trkpt lat="43.61334848656562" lon="10.952388185791001"><ele>47.0</ele><time>2026-04-26T17:22:22Z</time></trkpt><trkpt lat="43.613477987420865" lon="10.952230945050381"><ele>47.0</ele><time>2026-04-26T17:22:23Z</time></trkpt><trkpt lat="43.6136074534583" lon="10.952075190422903"><ele>47.0</ele><time>2026-04-26T17:22:24Z</time></trkpt><trkpt lat="43.61373405435873" lon="10.951929180272625"><ele>47.0</ele><time>2026-04-26T17:22:25Z</time></trkpt><trkpt lat="43.613855975101956" lon="10.951790390687009"><ele>47.0</ele><time>2026-04-26T17:22:26Z</time></trkpt><trkpt lat="43.613986259884136" lon="10.951654921504844"><ele>47.0</ele><time>2026-04-26T17:22:27Z</time></trkpt><trkpt lat="43.61411613036689" lon="10.951515963953826"><ele>47.0</ele><time>2026-04-26T17:22:28Z</time></trkpt><trkpt lat="43.61424738411351" lon="10.951374086543217"><ele>47.0</ele><time>2026-04-26T17:22:29Z</time></trkpt><trkpt lat="43.614384580785305" lon="10.951227378231014"><ele>47.0</ele><time>2026-04-26T17:22:30Z</time></trkpt><trkpt lat="43.61451413062183" lon="10.95108327477629"><ele>47.0</ele><time>2026-04-26T17:22:31Z</time></trkpt><trkpt lat="43.61463854472161" lon="10.950944325797513"><ele>47.0</ele><time>2026-04-26T17:22:32Z</time></trkpt><trkpt lat="43.61476164744886" lon="10.950807894453565"><ele>47.0</ele><time>2026-04-26T17:22:33Z</time></trkpt><trkpt lat="43.61488973507516" lon="10.950660709853"><ele>48.666666666666664</ele><time>2026-04-26T17:22:34Z</time></trkpt><trkpt lat="43.61501403575684" lon="10.950514789238161"><ele>50.33333333333333</ele><time>2026-04-26T17:22:35Z</time></trkpt><trkpt lat="43.61513127278409" lon="10.950389494683217"><ele>52.0</ele><time>2026-04-26T17:22:36Z</time></trkpt><trkpt lat="43.61524957871397" lon="10.950289501245898"><ele>50.75</ele><time>2026-04-26T17:22:37Z</time></trkpt><trkpt lat="43.61536842044745" lon="10.950220321906308"><ele>49.5</ele><time>2026-04-26T17:22:38Z</time></trkpt><trkpt lat="43.61550057056862" lon="10.950189230655825"><ele>48.25</ele><time>2026-04-26T17:22:39Z</time></trkpt><trkpt lat="43.61565791780111" lon="10.950189083596031"><ele>47.0</ele><time>2026-04-26T17:22:40Z</time></trkpt><trkpt lat="43.615834491095434" lon="10.950207759890457"><ele>47.0</ele><time>2026-04-26T17:22:41Z</time></trkpt><trkpt lat="43.615997868604666" lon="10.950245855143693"><ele>47.0</ele><time>2026-04-26T17:22:42Z</time></trkpt><trkpt lat="43.61615496328137" lon="10.950234163020905"><ele>47.0</ele><time>2026-04-26T17:22:43Z</time></trkpt><trkpt lat="43.61631135150517" lon="10.950240928523169"><ele>47.25</ele><time>2026-04-26T17:22:44Z</time></trkpt><trkpt lat="43.61645792419974" lon="10.950219670220536"><ele>47.5</ele><time>2026-04-26T17:22:45Z</time></trkpt><trkpt lat="43.61659345911129" lon="10.950178628110592"><ele>47.75</ele><time>2026-04-26T17:22:46Z</time></trkpt><trkpt lat="43.616717500615195" lon="10.950118801884031"><ele>48.0</ele><time>2026-04-26T17:22:47.001Z</time></trkpt><trkpt lat="43.616814995963686" lon="10.95005243677846"><ele>48.0</ele><time>2026-04-26T17:22:48.001Z</time></trkpt><trkpt lat="43.616892993473265" lon="10.949974383856562"><ele>48.0</ele><time>2026-04-26T17:22:49.001Z</time></trkpt><trkpt lat="43.61697169290455" lon="10.949889455374308"><ele>48.0</ele><time>2026-04-26T17:22:50.001Z</time></trkpt><trkpt lat="43.61704409439857" lon="10.949808674536186"><ele>48.0</ele><time>2026-04-26T17:22:51.001Z</time></trkpt><trkpt lat="43.617127308952966" lon="10.949750476505539"><ele>48.0</ele><time>2026-04-26T17:22:52.001Z</time></trkpt><trkpt lat="43.61719489610297" lon="10.949655671415917"><ele>48.0</ele><time>2026-04-26T17:22:53.001Z</time></trkpt><trkpt lat="43.61728832918418" lon="10.949566381542933"><ele>48.0</ele><time>2026-04-26T17:22:54.001Z</time></trkpt><trkpt lat="43.6173890980726" lon="10.949463514273996"><ele>48.0</ele><time>2026-04-26T17:22:55.001Z</time></trkpt><trkpt lat="43.61749577318286" lon="10.949359214434855"><ele>48.0</ele><time>2026-04-26T17:22:56.001Z</time></trkpt><trkpt lat="43.61760777641653" lon="10.949255593859824"><ele>48.0</ele><time>2026-04-26T17:22:57.001Z</time></trkpt><trkpt lat="43.61771711892976" lon="10.949145234471683"><ele>48.0</ele><time>2026-04-26T17:22:58.001Z</time></trkpt><trkpt lat="43.61782915182911" lon="10.949033786808753"><ele>48.0</ele><time>2026-04-26T17:22:59.001Z</time></trkpt><trkpt lat="43.61795408723566" lon="10.94890745481259"><ele>48.0</ele><time>2026-04-26T17:23:00.001Z</time></trkpt><trkpt lat="43.618088225147545" lon="10.948770584639401"><ele>48.0</ele><time>2026-04-26T17:23:01.001Z</time></trkpt><trkpt lat="43.61820946644806" lon="10.948639393680761"><ele>48.0</ele><time>2026-04-26T17:23:02.001Z</time></trkpt><trkpt lat="43.6183217465392" lon="10.94852146802854"><ele>48.0</ele><time>2026-04-26T17:23:03.001Z</time></trkpt><trkpt lat="43.61843391390641" lon="10.948425895316547"><ele>48.0</ele><time>2026-04-26T17:23:04.001Z</time></trkpt><trkpt lat="43.61855050433668" lon="10.948363266473285"><ele>47.75</ele><time>2026-04-26T17:23:05.001Z</time></trkpt><trkpt lat="43.61865516069688" lon="10.948346901656151"><ele>47.5</ele><time>2026-04-26T17:23:06.001Z</time></trkpt><trkpt lat="43.61875284702321" lon="10.94838611471526"><ele>47.25</ele><time>2026-04-26T17:23:07.001Z</time></trkpt><trkpt lat="43.618845924679654" lon="10.94847118373268"><ele>47.0</ele><time>2026-04-26T17:23:08.001Z</time></trkpt><trkpt lat="43.61894111966575" lon="10.948626146426744"><ele>47.0</ele><time>2026-04-26T17:23:09.001Z</time></trkpt><trkpt lat="43.6190523869686" lon="10.948786942117795"><ele>47.0</ele><time>2026-04-26T17:23:10.001Z</time></trkpt><trkpt lat="43.619174445074" lon="10.948959262308618"><ele>47.0</ele><time>2026-04-26T17:23:11.001Z</time></trkpt><trkpt lat="43.619287696468135" lon="10.949115916675018"><ele>47.0</ele><time>2026-04-26T17:23:12.001Z</time></trkpt><trkpt lat="43.61938930604586" lon="10.949257480793255"><ele>47.0</ele><time>2026-04-26T17:23:13.001Z</time></trkpt><trkpt lat="43.61947867049323" lon="10.949382620165217"><ele>47.0</ele><time>2026-04-26T17:23:14.001Z</time></trkpt><trkpt lat="43.61956199345108" lon="10.949478873220318"><ele>47.0</ele><time>2026-04-26T17:23:15.001Z</time></trkpt><trkpt lat="43.61964905062352" lon="10.949540546282897"><ele>47.0</ele><time>2026-04-26T17:23:16.001Z</time></trkpt><trkpt lat="43.61973889582624" lon="10.949595464647281"><ele>47.0</ele><time>2026-04-26T17:23:17.001Z</time></trkpt><trkpt lat="43.61985911800266" lon="10.949566443663919"><ele>47.0</ele><time>2026-04-26T17:23:18.001Z</time></trkpt><trkpt lat="43.620002563698456" lon="10.949524810869212"><ele>47.0</ele><time>2026-04-26T17:23:19.001Z</time></trkpt><trkpt lat="43.62016082063109" lon="10.94945460015008"><ele>46.0</ele><time>2026-04-26T17:23:20.001Z</time></trkpt><trkpt lat="43.62033966482049" lon="10.949402198678811"><ele>45.0</ele><time>2026-04-26T17:23:21.001Z</time></trkpt><trkpt lat="43.62052152236364" lon="10.949349211646537"><ele>44.0</ele><time>2026-04-26T17:23:22.001Z</time></trkpt><trkpt lat="43.620706353506435" lon="10.949288143729602"><ele>44.0</ele><time>2026-04-26T17:23:23.001Z</time></trkpt><trkpt lat="43.62087309661248" lon="10.949242691333977"><ele>44.0</ele><time>2026-04-26T17:23:24.001Z</time></trkpt><trkpt lat="43.62103292774123" lon="10.949184356904578"><ele>44.0</ele><time>2026-04-26T17:23:25.001Z</time></trkpt><trkpt lat="43.62118170350342" lon="10.94913911873408"><ele>44.5</ele><time>2026-04-26T17:23:26.001Z</time></trkpt><trkpt lat="43.62130907636734" lon="10.949100984753136"><ele>45.0</ele><time>2026-04-26T17:23:27.001Z</time></trkpt><trkpt lat="43.621427074187004" lon="10.949066233468242"><ele>45.5</ele><time>2026-04-26T17:23:28.001Z</time></trkpt><trkpt lat="43.62153806332556" lon="10.949035435429272"><ele>46.0</ele><time>2026-04-26T17:23:29.001Z</time></trkpt><trkpt lat="43.621646698624154" lon="10.949015407119804"><ele>46.0</ele><time>2026-04-26T17:23:30.001Z</time></trkpt><trkpt lat="43.62178016267891" lon="10.949009492135938"><ele>46.0</ele><time>2026-04-26T17:23:31.001Z</time></trkpt><trkpt lat="43.62193263374433" lon="10.94903199014381"><ele>46.0</ele><time>2026-04-26T17:23:32.001Z</time></trkpt><trkpt lat="43.62208151901845" lon="10.949095481887587"><ele>46.0</ele><time>2026-04-26T17:23:33.001Z</time></trkpt><trkpt lat="43.62221710721291" lon="10.949187150598"><ele>45.75</ele><time>2026-04-26T17:23:34.001Z</time></trkpt><trkpt lat="43.62232625687225" lon="10.949299683033153"><ele>45.5</ele><time>2026-04-26T17:23:35.001Z</time></trkpt><trkpt lat="43.62242994491465" lon="10.949387247820923"><ele>45.25</ele><time>2026-04-26T17:23:36.001Z</time></trkpt><trkpt lat="43.62251699930966" lon="10.949447484511733"><ele>45.0</ele><time>2026-04-26T17:23:37.001Z</time></trkpt><trkpt lat="43.62262312326088" lon="10.949388165759867"><ele>45.0</ele><time>2026-04-26T17:23:38.001Z</time></trkpt><trkpt lat="43.62273477898867" lon="10.949326897095231"><ele>45.0</ele><time>2026-04-26T17:23:39.001Z</time></trkpt><trkpt lat="43.622882881609286" lon="10.949281542692699"><ele>45.0</ele><time>2026-04-26T17:23:40.002Z</time></trkpt><trkpt lat="43.62300963503737" lon="10.949233269660688"><ele>45.0</ele><time>2026-04-26T17:23:41.002Z</time></trkpt><trkpt lat="43.623111572819376" lon="10.949158726425866"><ele>45.0</ele><time>2026-04-26T17:23:42.002Z</time></trkpt><trkpt lat="43.623171742193314" lon="10.949057932721173"><ele>45.0</ele><time>2026-04-26T17:23:43.002Z</time></trkpt><trkpt lat="43.62319455286975" lon="10.948939934795806"><ele>45.0</ele><time>2026-04-26T17:23:44.002Z</time></trkpt><trkpt lat="43.62318403958798" lon="10.948798491163357"><ele>45.0</ele><time>2026-04-26T17:23:45.002Z</time></trkpt><trkpt lat="43.623160462184615" lon="10.948660343668417"><ele>45.0</ele><time>2026-04-26T17:23:46.002Z</time></trkpt><trkpt lat="43.623127560937135" lon="10.948578348488752"><ele>45.0</ele><time>2026-04-26T17:23:47.002Z</time></trkpt><trkpt lat="43.62321018214197" lon="10.948491212435513"><ele>45.0</ele><time>2026-04-26T17:23:48.002Z</time></trkpt><trkpt lat="43.6233201364562" lon="10.948448485281164"><ele>45.0</ele><time>2026-04-26T17:23:49.002Z</time></trkpt><trkpt lat="43.62344907613774" lon="10.948394302519604"><ele>45.0</ele><time>2026-04-26T17:23:50.002Z</time></trkpt><trkpt lat="43.62362181855505" lon="10.94833324481499"><ele>45.0</ele><time>2026-04-26T17:23:51.002Z</time></trkpt><trkpt lat="43.62379980975184" lon="10.948263670978662"><ele>45.0</ele><time>2026-04-26T17:23:52.002Z</time></trkpt><trkpt lat="43.62398523606945" lon="10.948192892284053"><ele>45.0</ele><time>2026-04-26T17:23:53.002Z</time></trkpt><trkpt lat="43.624189484545866" lon="10.948123861656732"><ele>45.0</ele><time>2026-04-26T17:23:54.002Z</time></trkpt><trkpt lat="43.624376921819135" lon="10.948061449872386"><ele>45.0</ele><time>2026-04-26T17:23:55.002Z</time></trkpt><trkpt lat="43.62457873260821" lon="10.947996336272125"><ele>45.0</ele><time>2026-04-26T17:23:56.002Z</time></trkpt><trkpt lat="43.62478259895208" lon="10.947931478039646"><ele>45.0</ele><time>2026-04-26T17:23:57.002Z</time></trkpt><trkpt lat="43.624989980938594" lon="10.947862386462331"><ele>45.0</ele><time>2026-04-26T17:23:58.002Z</time></trkpt><trkpt lat="43.62521308233373" lon="10.947783397398016"><ele>45.0</ele><time>2026-04-26T17:23:59.002Z</time></trkpt><trkpt lat="43.62543718588507" lon="10.947703996539861"><ele>45.333333333333336</ele><time>2026-04-26T17:24:00.002Z</time></trkpt><trkpt lat="43.62565126225837" lon="10.94765461416619"><ele>45.66666666666667</ele><time>2026-04-26T17:24:01.002Z</time></trkpt><trkpt lat="43.62585489459482" lon="10.94758682248574"><ele>46.0</ele><time>2026-04-26T17:24:02.002Z</time></trkpt><trkpt lat="43.62605075296673" lon="10.94752161889188"><ele>45.333333333333336</ele><time>2026-04-26T17:24:03.002Z</time></trkpt><trkpt lat="43.626245770986095" lon="10.947457145093217"><ele>44.666666666666664</ele><time>2026-04-26T17:24:04.002Z</time></trkpt><trkpt lat="43.62643502174565" lon="10.94739516140735"><ele>44.0</ele><time>2026-04-26T17:24:05.002Z</time></trkpt><trkpt lat="43.62663013561888" lon="10.947309240153963"><ele>44.0</ele><time>2026-04-26T17:24:06.002Z</time></trkpt><trkpt lat="43.626831266638725" lon="10.947249760022606"><ele>44.0</ele><time>2026-04-26T17:24:07.002Z</time></trkpt><trkpt lat="43.627020249631535" lon="10.947189581843324"><ele>44.0</ele><time>2026-04-26T17:24:08.002Z</time></trkpt><trkpt lat="43.627225664765874" lon="10.947119101750983"><ele>44.666666666666664</ele><time>2026-04-26T17:24:09.002Z</time></trkpt><trkpt lat="43.627418527217664" lon="10.947053048955095"><ele>45.333333333333336</ele><time>2026-04-26T17:24:10.002Z</time></trkpt><trkpt lat="43.627603371406806" lon="10.947016198905095"><ele>46.0</ele><time>2026-04-26T17:24:11.002Z</time></trkpt><trkpt lat="43.62777850260858" lon="10.946959044207585"><ele>45.66666666666667</ele><time>2026-04-26T17:24:12.002Z</time></trkpt><trkpt lat="43.62795977534812" lon="10.946900643504266"><ele>45.333333333333336</ele><time>2026-04-26T17:24:13Z</time></trkpt><trkpt lat="43.62813829679187" lon="10.94682154543289"><ele>45.0</ele><time>2026-04-26T17:24:14Z</time></trkpt><trkpt lat="43.628312440102874" lon="10.946766374147467"><ele>45.0</ele><time>2026-04-26T17:24:15Z</time></trkpt><trkpt lat="43.628482034072135" lon="10.94673469889409"><ele>45.0</ele><time>2026-04-26T17:24:16Z</time></trkpt><trkpt lat="43.628642854847556" lon="10.946683168713504"><ele>45.0</ele><time>2026-04-26T17:24:17Z</time></trkpt><trkpt lat="43.62881102264522" lon="10.94662928599493"><ele>45.333333333333336</ele><time>2026-04-26T17:24:18Z</time></trkpt><trkpt lat="43.62897689111294" lon="10.946574008203948"><ele>45.66666666666667</ele><time>2026-04-26T17:24:19Z</time></trkpt><trkpt lat="43.6291481804481" lon="10.946516780455344"><ele>46.0</ele><time>2026-04-26T17:24:20Z</time></trkpt><trkpt lat="43.62933083366585" lon="10.946446917424717"><ele>45.66666666666667</ele><time>2026-04-26T17:24:21Z</time></trkpt><trkpt lat="43.629512770920236" lon="10.946360464748663"><ele>45.333333333333336</ele><time>2026-04-26T17:24:22Z</time></trkpt><trkpt lat="43.62968078125338" lon="10.94626751313181"><ele>45.0</ele><time>2026-04-26T17:24:23Z</time></trkpt><trkpt lat="43.62983690250884" lon="10.946173521936204"><ele>45.0</ele><time>2026-04-26T17:24:24Z</time></trkpt><trkpt lat="43.62997454547474" lon="10.946089072753633"><ele>45.0</ele><time>2026-04-26T17:24:25Z</time></trkpt><trkpt lat="43.63008575595521" lon="10.946020840658873"><ele>45.0</ele><time>2026-04-26T17:24:26Z</time></trkpt><trkpt lat="43.63017882070255" lon="10.945941166528108"><ele>45.0</ele><time>2026-04-26T17:24:27Z</time></trkpt><trkpt lat="43.630278991544955" lon="10.94588908635082"><ele>45.6</ele><time>2026-04-26T17:24:28Z</time></trkpt><trkpt lat="43.63037877276775" lon="10.945831817386798"><ele>46.2</ele><time>2026-04-26T17:24:29Z</time></trkpt><trkpt lat="43.630480563475686" lon="10.945774916587089"><ele>46.8</ele><time>2026-04-26T17:24:30Z</time></trkpt><trkpt lat="43.630576709661035" lon="10.945719899596368"><ele>47.4</ele><time>2026-04-26T17:24:31Z</time></trkpt><trkpt lat="43.63067208154629" lon="10.94565934451071"><ele>48.0</ele><time>2026-04-26T17:24:32Z</time></trkpt><trkpt lat="43.63076892970035" lon="10.945598194165065"><ele>48.0</ele><time>2026-04-26T17:24:33Z</time></trkpt><trkpt lat="43.63087852807334" lon="10.945527437047799"><ele>48.0</ele><time>2026-04-26T17:24:34Z</time></trkpt><trkpt lat="43.63099270604967" lon="10.945455154798097"><ele>48.0</ele><time>2026-04-26T17:24:35Z</time></trkpt><trkpt lat="43.63111293533299" lon="10.945382748183674"><ele>48.0</ele><time>2026-04-26T17:24:36Z</time></trkpt><trkpt lat="43.63124667549127" lon="10.945304975317256"><ele>47.0</ele><time>2026-04-26T17:24:37Z</time></trkpt><trkpt lat="43.6313916081122" lon="10.945217617653709"><ele>46.0</ele><time>2026-04-26T17:24:38Z</time></trkpt><trkpt lat="43.631543818588376" lon="10.945142936140957"><ele>45.0</ele><time>2026-04-26T17:24:39Z</time></trkpt><trkpt lat="43.63168206871697" lon="10.94505907979022"><ele>45.0</ele><time>2026-04-26T17:24:40Z</time></trkpt><trkpt lat="43.63180901507184" lon="10.944950002745538"><ele>45.0</ele><time>2026-04-26T17:24:41Z</time></trkpt><trkpt lat="43.631941932122025" lon="10.944872926760285"><ele>45.0</ele><time>2026-04-26T17:24:42Z</time></trkpt><trkpt lat="43.63206645829914" lon="10.944785660768689"><ele>45.0</ele><time>2026-04-26T17:24:43Z</time></trkpt><trkpt lat="43.63218998910018" lon="10.944700656720606"><ele>45.0</ele><time>2026-04-26T17:24:44Z</time></trkpt><trkpt lat="43.632337576465765" lon="10.9446417959567"><ele>45.0</ele><time>2026-04-26T17:24:45Z</time></trkpt><trkpt lat="43.63246495315821" lon="10.94456054220592"><ele>45.0</ele><time>2026-04-26T17:24:46Z</time></trkpt><trkpt lat="43.63258462397921" lon="10.944496463695872"><ele>45.0</ele><time>2026-04-26T17:24:47Z</time></trkpt><trkpt lat="43.63269828996724" lon="10.944442425165423"><ele>45.0</ele><time>2026-04-26T17:24:48Z</time></trkpt><trkpt lat="43.63281139564898" lon="10.944388957639474"><ele>45.0</ele><time>2026-04-26T17:24:49Z</time></trkpt><trkpt lat="43.632937878852516" lon="10.94433011949667"><ele>45.0</ele><time>2026-04-26T17:24:50Z</time></trkpt><trkpt lat="43.63308289942545" lon="10.944262390219574"><ele>45.0</ele><time>2026-04-26T17:24:51Z</time></trkpt><trkpt lat="43.633248768802716" lon="10.944184923882768"><ele>45.0</ele><time>2026-04-26T17:24:52Z</time></trkpt><trkpt lat="43.63343163368402" lon="10.944099224048031"><ele>45.0</ele><time>2026-04-26T17:24:53Z</time></trkpt><trkpt lat="43.63362452696754" lon="10.944007747188216"><ele>45.0</ele><time>2026-04-26T17:24:54Z</time></trkpt><trkpt lat="43.63382786449932" lon="10.943909723543818"><ele>44.0</ele><time>2026-04-26T17:24:55Z</time></trkpt><trkpt lat="43.634036746973955" lon="10.943809018269844"><ele>43.0</ele><time>2026-04-26T17:24:56Z</time></trkpt><trkpt lat="43.63423962222419" lon="10.943711965060373"><ele>42.0</ele><time>2026-04-26T17:24:57.001Z</time></trkpt><trkpt lat="43.63444308115485" lon="10.943616535321844"><ele>42.333333333333336</ele><time>2026-04-26T17:24:58.001Z</time></trkpt><trkpt lat="43.634643467403045" lon="10.94352254681305"><ele>42.66666666666667</ele><time>2026-04-26T17:24:59.001Z</time></trkpt><trkpt lat="43.63483824042257" lon="10.943431191120041"><ele>43.0</ele><time>2026-04-26T17:25:00.001Z</time></trkpt><trkpt lat="43.63502985098124" lon="10.943341407332461"><ele>42.66666666666667</ele><time>2026-04-26T17:25:01.001Z</time></trkpt><trkpt lat="43.63522786831908" lon="10.943248638341322"><ele>42.333333333333336</ele><time>2026-04-26T17:25:02.001Z</time></trkpt><trkpt lat="43.63544649486597" lon="10.943145750668165"><ele>42.0</ele><time>2026-04-26T17:25:03.001Z</time></trkpt><trkpt lat="43.635655269569085" lon="10.943046500940492"><ele>42.0</ele><time>2026-04-26T17:25:04.001Z</time></trkpt><trkpt lat="43.635856695936894" lon="10.942950744539168"><ele>42.0</ele><time>2026-04-26T17:25:05.001Z</time></trkpt><trkpt lat="43.636051109213774" lon="10.942858322027837"><ele>42.0</ele><time>2026-04-26T17:25:06.001Z</time></trkpt><trkpt lat="43.63624013605206" lon="10.94277380855596"><ele>42.0</ele><time>2026-04-26T17:25:07.001Z</time></trkpt><trkpt lat="43.63643810600857" lon="10.942682795939737"><ele>42.0</ele><time>2026-04-26T17:25:08.001Z</time></trkpt><trkpt lat="43.636634115353054" lon="10.942594145294022"><ele>42.0</ele><time>2026-04-26T17:25:09.001Z</time></trkpt><trkpt lat="43.6368268418239" lon="10.94250736751896"><ele>42.0</ele><time>2026-04-26T17:25:10.001Z</time></trkpt><trkpt lat="43.637009678400446" lon="10.94242281018978"><ele>42.0</ele><time>2026-04-26T17:25:11.001Z</time></trkpt><trkpt lat="43.63718860091882" lon="10.942337174495417"><ele>42.0</ele><time>2026-04-26T17:25:12.001Z</time></trkpt><trkpt lat="43.63735558054961" lon="10.942257290410609"><ele>42.0</ele><time>2026-04-26T17:25:13.001Z</time></trkpt><trkpt lat="43.637511894132295" lon="10.942176236451404"><ele>42.0</ele><time>2026-04-26T17:25:14.001Z</time></trkpt><trkpt lat="43.63765708313721" lon="10.942096796527801"><ele>42.0</ele><time>2026-04-26T17:25:15.001Z</time></trkpt><trkpt lat="43.63780111473072" lon="10.942021905098299"><ele>42.0</ele><time>2026-04-26T17:25:16.001Z</time></trkpt><trkpt lat="43.63795241111505" lon="10.941944195177589"><ele>42.0</ele><time>2026-04-26T17:25:17.001Z</time></trkpt><trkpt lat="43.63811091156368" lon="10.941870415474556"><ele>42.0</ele><time>2026-04-26T17:25:18.001Z</time></trkpt><trkpt lat="43.638280654800084" lon="10.941792832800978"><ele>42.0</ele><time>2026-04-26T17:25:19.001Z</time></trkpt><trkpt lat="43.6384461985078" lon="10.941719343329963"><ele>42.0</ele><time>2026-04-26T17:25:20.001Z</time></trkpt><trkpt lat="43.63861448680854" lon="10.94164677084308"><ele>42.0</ele><time>2026-04-26T17:25:21.001Z</time></trkpt><trkpt lat="43.63878808443779" lon="10.941562329864702"><ele>41.666666666666664</ele><time>2026-04-26T17:25:22.001Z</time></trkpt><trkpt lat="43.63897496617836" lon="10.941453073049635"><ele>41.33333333333333</ele><time>2026-04-26T17:25:23.001Z</time></trkpt><trkpt lat="43.63915387933393" lon="10.941332644304604"><ele>41.0</ele><time>2026-04-26T17:25:24.001Z</time></trkpt><trkpt lat="43.63932405513402" lon="10.941218071434239"><ele>41.0</ele><time>2026-04-26T17:25:25.001Z</time></trkpt><trkpt lat="43.63948683696642" lon="10.941106155853094"><ele>41.0</ele><time>2026-04-26T17:25:26.001Z</time></trkpt><trkpt lat="43.639655142476855" lon="10.940990714581126"><ele>41.0</ele><time>2026-04-26T17:25:27.001Z</time></trkpt><trkpt lat="43.63982332956166" lon="10.940865763570772"><ele>41.33333333333333</ele><time>2026-04-26T17:25:28.001Z</time></trkpt><trkpt lat="43.6399834624274" lon="10.940733218961597"><ele>41.666666666666664</ele><time>2026-04-26T17:25:29.001Z</time></trkpt><trkpt lat="43.64013999037663" lon="10.940603546768711"><ele>42.0</ele><time>2026-04-26T17:25:30.001Z</time></trkpt><trkpt lat="43.6402965779352" lon="10.940473692834637"><ele>41.333333333333336</ele><time>2026-04-26T17:25:31.001Z</time></trkpt><trkpt lat="43.640457900415164" lon="10.940339912288156"><ele>40.66666666666667</ele><time>2026-04-26T17:25:32.001Z</time></trkpt><trkpt lat="43.6406166260431" lon="10.940200851238817"><ele>40.0</ele><time>2026-04-26T17:25:33.001Z</time></trkpt><trkpt lat="43.64076358023895" lon="10.940072445507381"><ele>39.66666666666667</ele><time>2026-04-26T17:25:34.001Z</time></trkpt><trkpt lat="43.64090287726072" lon="10.939953151854205"><ele>39.333333333333336</ele><time>2026-04-26T17:25:35.001Z</time></trkpt><trkpt lat="43.64103774348611" lon="10.939835073819813"><ele>39.0</ele><time>2026-04-26T17:25:36.001Z</time></trkpt><trkpt lat="43.641175636605446" lon="10.939714345686747"><ele>39.0</ele><time>2026-04-26T17:25:37.001Z</time></trkpt><trkpt lat="43.64132952222419" lon="10.939583792854382"><ele>39.0</ele><time>2026-04-26T17:25:38.001Z</time></trkpt><trkpt lat="43.64148948334017" lon="10.939442032967005"><ele>39.0</ele><time>2026-04-26T17:25:39.001Z</time></trkpt><trkpt lat="43.64165150324404" lon="10.939303613988727"><ele>40.0</ele><time>2026-04-26T17:25:40.001Z</time></trkpt><trkpt lat="43.64181435894102" lon="10.939158724077336"><ele>41.0</ele><time>2026-04-26T17:25:41.001Z</time></trkpt><trkpt lat="43.64197191140964" lon="10.939023009944398"><ele>42.0</ele><time>2026-04-26T17:25:42.001Z</time></trkpt><trkpt lat="43.64211812551557" lon="10.938895195913753"><ele>42.0</ele><time>2026-04-26T17:25:43.001Z</time></trkpt><trkpt lat="43.6422457728573" lon="10.938782602683078"><ele>42.0</ele><time>2026-04-26T17:25:44.001Z</time></trkpt><trkpt lat="43.64234727870086" lon="10.938692103317612"><ele>42.0</ele><time>2026-04-26T17:25:45.001Z</time></trkpt><trkpt lat="43.64243182485107" lon="10.938616725045947"><ele>42.0</ele><time>2026-04-26T17:25:46.001Z</time></trkpt><trkpt lat="43.642505233260295" lon="10.938554558707088"><ele>42.0</ele><time>2026-04-26T17:25:47.001Z</time></trkpt><trkpt lat="43.64259128669208" lon="10.938481512302777"><ele>42.0</ele><time>2026-04-26T17:25:49.001Z</time></trkpt><trkpt lat="43.642653325671425" lon="10.938428851762474"><ele>42.0</ele><time>2026-04-26T17:25:51.001Z</time></trkpt><trkpt lat="43.64274112457305" lon="10.938354326794256"><ele>42.0</ele><time>2026-04-26T17:25:53.001Z</time></trkpt><trkpt lat="43.64281116434133" lon="10.938287958773742"><ele>42.0</ele><time>2026-04-26T17:25:54.002Z</time></trkpt><trkpt lat="43.642894808848396" lon="10.93821106625389"><ele>42.25</ele><time>2026-04-26T17:25:55.002Z</time></trkpt><trkpt lat="43.64298170348459" lon="10.938107749274398"><ele>42.5</ele><time>2026-04-26T17:25:56.002Z</time></trkpt><trkpt lat="43.64308631476636" lon="10.938023682276093"><ele>42.75</ele><time>2026-04-26T17:25:57.002Z</time></trkpt><trkpt lat="43.64321117808932" lon="10.937926594654174"><ele>43.0</ele><time>2026-04-26T17:25:58.002Z</time></trkpt><trkpt lat="43.64333546659909" lon="10.93781891580737"><ele>43.0</ele><time>2026-04-26T17:25:59.002Z</time></trkpt><trkpt lat="43.643452879139915" lon="10.937713936275276"><ele>43.0</ele><time>2026-04-26T17:26:00.002Z</time></trkpt><trkpt lat="43.64357266338713" lon="10.937610479619147"><ele>43.0</ele><time>2026-04-26T17:26:01.002Z</time></trkpt><trkpt lat="43.64370735009516" lon="10.937495491246933"><ele>43.0</ele><time>2026-04-26T17:26:02.002Z</time></trkpt><trkpt lat="43.643870357298105" lon="10.937362266210883"><ele>42.0</ele><time>2026-04-26T17:26:03.002Z</time></trkpt><trkpt lat="43.644031327644775" lon="10.937226168779304"><ele>41.0</ele><time>2026-04-26T17:26:04.002Z</time></trkpt><trkpt lat="43.64419231906106" lon="10.937079640516425"><ele>40.0</ele><time>2026-04-26T17:26:05.002Z</time></trkpt><trkpt lat="43.64434936891991" lon="10.936934438474538"><ele>39.66666666666667</ele><time>2026-04-26T17:26:06.002Z</time></trkpt><trkpt lat="43.644514982850644" lon="10.936787241596392"><ele>39.333333333333336</ele><time>2026-04-26T17:26:07.002Z</time></trkpt><trkpt lat="43.64470472140883" lon="10.936649662371146"><ele>39.0</ele><time>2026-04-26T17:26:08.002Z</time></trkpt><trkpt lat="43.64488640935717" lon="10.936493315801606"><ele>39.0</ele><time>2026-04-26T17:26:09.002Z</time></trkpt><trkpt lat="43.645054218648994" lon="10.936349996893377"><ele>39.0</ele><time>2026-04-26T17:26:10.002Z</time></trkpt><trkpt lat="43.64521711359928" lon="10.936210873408417"><ele>39.0</ele><time>2026-04-26T17:26:11.002Z</time></trkpt><trkpt lat="43.64538702531277" lon="10.936060158211715"><ele>39.0</ele><time>2026-04-26T17:26:12.002Z</time></trkpt><trkpt lat="43.645552964112525" lon="10.93591414688417"><ele>39.0</ele><time>2026-04-26T17:26:13.002Z</time></trkpt><trkpt lat="43.64570573064121" lon="10.93578190023729"><ele>39.0</ele><time>2026-04-26T17:26:14.002Z</time></trkpt><trkpt lat="43.64585344332625" lon="10.935655924548275"><ele>39.333333333333336</ele><time>2026-04-26T17:26:15.002Z</time></trkpt><trkpt lat="43.646002590653296" lon="10.935532221570247"><ele>39.66666666666667</ele><time>2026-04-26T17:26:16.002Z</time></trkpt><trkpt lat="43.646157188209" lon="10.935399930439209"><ele>40.0</ele><time>2026-04-26T17:26:17.002Z</time></trkpt><trkpt lat="43.6463253952325" lon="10.935257676051117"><ele>39.333333333333336</ele><time>2026-04-26T17:26:18.002Z</time></trkpt><trkpt lat="43.64651024801042" lon="10.935102692854677"><ele>38.666666666666664</ele><time>2026-04-26T17:26:19Z</time></trkpt><trkpt lat="43.646691982168235" lon="10.93494512499899"><ele>38.0</ele><time>2026-04-26T17:26:20Z</time></trkpt><trkpt lat="43.64685288943404" lon="10.934803912166261"><ele>38.33333333333333</ele><time>2026-04-26T17:26:21Z</time></trkpt><trkpt lat="43.64700792050783" lon="10.93467077087206"><ele>38.666666666666664</ele><time>2026-04-26T17:26:22Z</time></trkpt><trkpt lat="43.64716181910873" lon="10.934540756446873"><ele>39.0</ele><time>2026-04-26T17:26:23Z</time></trkpt><trkpt lat="43.64732738174677" lon="10.93440088983412"><ele>39.0</ele><time>2026-04-26T17:26:24Z</time></trkpt><trkpt lat="43.64749567650227" lon="10.934236931140319"><ele>39.0</ele><time>2026-04-26T17:26:25Z</time></trkpt><trkpt lat="43.64766218519553" lon="10.934102050301751"><ele>39.0</ele><time>2026-04-26T17:26:26Z</time></trkpt><trkpt lat="43.64781695332136" lon="10.933977721232717"><ele>38.666666666666664</ele><time>2026-04-26T17:26:27Z</time></trkpt><trkpt lat="43.64796685295434" lon="10.933850261035815"><ele>38.33333333333333</ele><time>2026-04-26T17:26:28Z</time></trkpt><trkpt lat="43.64812707737437" lon="10.933735516690122"><ele>38.0</ele><time>2026-04-26T17:26:29Z</time></trkpt><trkpt lat="43.648286794240626" lon="10.933589206222512"><ele>38.0</ele><time>2026-04-26T17:26:30Z</time></trkpt><trkpt lat="43.64846000124759" lon="10.933424949800603"><ele>38.0</ele><time>2026-04-26T17:26:31Z</time></trkpt><trkpt lat="43.64864826581393" lon="10.933250789810572"><ele>38.0</ele><time>2026-04-26T17:26:32Z</time></trkpt><trkpt lat="43.64883071276161" lon="10.933090000588509"><ele>38.666666666666664</ele><time>2026-04-26T17:26:33Z</time></trkpt><trkpt lat="43.64900183427646" lon="10.932941826894561"><ele>39.333333333333336</ele><time>2026-04-26T17:26:34Z</time></trkpt><trkpt lat="43.64916850975717" lon="10.932808781984278"><ele>40.0</ele><time>2026-04-26T17:26:35Z</time></trkpt><trkpt lat="43.649327653396085" lon="10.932669883811919"><ele>39.66666666666667</ele><time>2026-04-26T17:26:36Z</time></trkpt><trkpt lat="43.64948134196357" lon="10.932507823864851"><ele>39.333333333333336</ele><time>2026-04-26T17:26:37Z</time></trkpt><trkpt lat="43.649629619995125" lon="10.932332070146108"><ele>39.0</ele><time>2026-04-26T17:26:38Z</time></trkpt><trkpt lat="43.64977505641858" lon="10.932141663267249"><ele>39.0</ele><time>2026-04-26T17:26:39Z</time></trkpt><trkpt lat="43.64990488893287" lon="10.93196910716427"><ele>39.0</ele><time>2026-04-26T17:26:40Z</time></trkpt><trkpt lat="43.65002838375595" lon="10.93180265300516"><ele>39.0</ele><time>2026-04-26T17:26:41Z</time></trkpt><trkpt lat="43.650140668866364" lon="10.931635684347851"><ele>39.666666666666664</ele><time>2026-04-26T17:26:42Z</time></trkpt><trkpt lat="43.650242751952895" lon="10.931463787725582"><ele>40.33333333333333</ele><time>2026-04-26T17:26:43Z</time></trkpt><trkpt lat="43.650342800156864" lon="10.931259200348412"><ele>41.0</ele><time>2026-04-26T17:26:44Z</time></trkpt><trkpt lat="43.650430734986536" lon="10.931019498602753"><ele>40.33333333333333</ele><time>2026-04-26T17:26:45Z</time></trkpt><trkpt lat="43.65053504388124" lon="10.930776838689646"><ele>39.666666666666664</ele><time>2026-04-26T17:26:46Z</time></trkpt><trkpt lat="43.65064050594726" lon="10.930532433601362"><ele>39.0</ele><time>2026-04-26T17:26:47Z</time></trkpt><trkpt lat="43.650737699300585" lon="10.93030118524066"><ele>39.0</ele><time>2026-04-26T17:26:48Z</time></trkpt><trkpt lat="43.65083137163805" lon="10.930081023626908"><ele>39.0</ele><time>2026-04-26T17:26:49Z</time></trkpt><trkpt lat="43.65092719890079" lon="10.9298600611426"><ele>39.0</ele><time>2026-04-26T17:26:50Z</time></trkpt><trkpt lat="43.6510251254739" lon="10.929634506357905"><ele>38.666666666666664</ele><time>2026-04-26T17:26:51Z</time></trkpt><trkpt lat="43.65112135557105" lon="10.929406258363002"><ele>38.33333333333333</ele><time>2026-04-26T17:26:52Z</time></trkpt><trkpt lat="43.65122005561505" lon="10.92917028007267"><ele>38.0</ele><time>2026-04-26T17:26:53Z</time></trkpt><trkpt lat="43.65132612899185" lon="10.928922779091208"><ele>38.0</ele><time>2026-04-26T17:26:54Z</time></trkpt><trkpt lat="43.651422545539894" lon="10.928702847362462"><ele>38.0</ele><time>2026-04-26T17:26:55Z</time></trkpt><trkpt lat="43.65151951258037" lon="10.928481282257568"><ele>38.0</ele><time>2026-04-26T17:26:56Z</time></trkpt><trkpt lat="43.65161374696406" lon="10.928260277842872"><ele>37.666666666666664</ele><time>2026-04-26T17:26:57Z</time></trkpt><trkpt lat="43.651705498236616" lon="10.928048572422725"><ele>37.333333333333336</ele><time>2026-04-26T17:26:58Z</time></trkpt><trkpt lat="43.65180702983665" lon="10.92781727568842"><ele>37.0</ele><time>2026-04-26T17:26:59Z</time></trkpt><trkpt lat="43.651909547830634" lon="10.92758023582217"><ele>38.0</ele><time>2026-04-26T17:27:00.001Z</time></trkpt><trkpt lat="43.65200691578659" lon="10.927355076829585"><ele>39.0</ele><time>2026-04-26T17:27:01.001Z</time></trkpt><trkpt lat="43.6521022086024" lon="10.927130090341457"><ele>40.0</ele><time>2026-04-26T17:27:02.001Z</time></trkpt><trkpt lat="43.6521981277164" lon="10.9269058627703"><ele>39.66666666666667</ele><time>2026-04-26T17:27:03.001Z</time></trkpt><trkpt lat="43.65229921151968" lon="10.926683345329202"><ele>39.333333333333336</ele><time>2026-04-26T17:27:04.001Z</time></trkpt><trkpt lat="43.65239937080782" lon="10.926474340163951"><ele>39.0</ele><time>2026-04-26T17:27:05.001Z</time></trkpt><trkpt lat="43.65249187466873" lon="10.926279669048322"><ele>39.0</ele><time>2026-04-26T17:27:06.001Z</time></trkpt><trkpt lat="43.65257630364736" lon="10.92609175192538"><ele>39.0</ele><time>2026-04-26T17:27:07.001Z</time></trkpt><trkpt lat="43.65264952215708" lon="10.925906298451029"><ele>39.0</ele><time>2026-04-26T17:27:08.001Z</time></trkpt><trkpt lat="43.65272294462817" lon="10.925730465140235"><ele>39.333333333333336</ele><time>2026-04-26T17:27:09.001Z</time></trkpt><trkpt lat="43.65276147086719" lon="10.925496885381909"><ele>39.66666666666667</ele><time>2026-04-26T17:27:10.001Z</time></trkpt><trkpt lat="43.65281152809043" lon="10.925258895744218"><ele>40.0</ele><time>2026-04-26T17:27:11.001Z</time></trkpt><trkpt lat="43.652855754412215" lon="10.925028147090508"><ele>41.66666666666667</ele><time>2026-04-26T17:27:12.001Z</time></trkpt><trkpt lat="43.65288999855575" lon="10.924809543988292"><ele>43.333333333333336</ele><time>2026-04-26T17:27:13.001Z</time></trkpt><trkpt lat="43.652912787251715" lon="10.924590268250647"><ele>45.0</ele><time>2026-04-26T17:27:14.001Z</time></trkpt><trkpt lat="43.65291406398927" lon="10.924361783243214"><ele>45.25</ele><time>2026-04-26T17:27:15.001Z</time></trkpt><trkpt lat="43.652895144318315" lon="10.924149002324736"><ele>45.5</ele><time>2026-04-26T17:27:16.001Z</time></trkpt><trkpt lat="43.65287625840982" lon="10.923954689626294"><ele>45.75</ele><time>2026-04-26T17:27:17.001Z</time></trkpt><trkpt lat="43.652854087016834" lon="10.923779132191711"><ele>46.0</ele><time>2026-04-26T17:27:18.001Z</time></trkpt><trkpt lat="43.652853681980446" lon="10.923615043089354"><ele>46.0</ele><time>2026-04-26T17:27:19.001Z</time></trkpt><trkpt lat="43.652881255775945" lon="10.923487122435061"><ele>46.0</ele><time>2026-04-26T17:27:20.001Z</time></trkpt><trkpt lat="43.65296743401866" lon="10.923402625469965"><ele>46.0</ele><time>2026-04-26T17:27:21.001Z</time></trkpt><trkpt lat="43.65307357876866" lon="10.923300894737954"><ele>46.0</ele><time>2026-04-26T17:27:22.001Z</time></trkpt><trkpt lat="43.65321702235176" lon="10.92315960225023"><ele>46.333333333333336</ele><time>2026-04-26T17:27:23.001Z</time></trkpt><trkpt lat="43.653380222781955" lon="10.9229992980314"><ele>46.666666666666664</ele><time>2026-04-26T17:27:24.001Z</time></trkpt><trkpt lat="43.65356774395762" lon="10.922824357132745"><ele>47.0</ele><time>2026-04-26T17:27:25.001Z</time></trkpt><trkpt lat="43.65375048239922" lon="10.92266713848525"><ele>46.0</ele><time>2026-04-26T17:27:26.001Z</time></trkpt><trkpt lat="43.65391655128002" lon="10.922542856149823"><ele>45.0</ele><time>2026-04-26T17:27:27.001Z</time></trkpt><trkpt lat="43.654078296146146" lon="10.922454666330148"><ele>44.0</ele><time>2026-04-26T17:27:28.001Z</time></trkpt><trkpt lat="43.65424224732759" lon="10.922381735667788"><ele>44.0</ele><time>2026-04-26T17:27:29.001Z</time></trkpt><trkpt lat="43.65440558657796" lon="10.922305503399405"><ele>44.0</ele><time>2026-04-26T17:27:30.001Z</time></trkpt><trkpt lat="43.65456951709921" lon="10.922225893073893"><ele>44.0</ele><time>2026-04-26T17:27:31.001Z</time></trkpt><trkpt lat="43.65471463800665" lon="10.92215016393594"><ele>44.0</ele><time>2026-04-26T17:27:32.001Z</time></trkpt><trkpt lat="43.65485008411133" lon="10.922076648867888"><ele>44.0</ele><time>2026-04-26T17:27:33.001Z</time></trkpt><trkpt lat="43.65497912255566" lon="10.922004892230063"><ele>44.0</ele><time>2026-04-26T17:27:34.001Z</time></trkpt><trkpt lat="43.65509926033419" lon="10.921910204639838"><ele>44.0</ele><time>2026-04-26T17:27:35.001Z</time></trkpt><trkpt lat="43.65522437687355" lon="10.921819139847077"><ele>43.666666666666664</ele><time>2026-04-26T17:27:36.001Z</time></trkpt><trkpt lat="43.65534928221506" lon="10.92170948892155"><ele>43.333333333333336</ele><time>2026-04-26T17:27:37.001Z</time></trkpt><trkpt lat="43.65547481090852" lon="10.921586863962391"><ele>43.0</ele><time>2026-04-26T17:27:38.001Z</time></trkpt><trkpt lat="43.65560006622888" lon="10.921456647449835"><ele>43.0</ele><time>2026-04-26T17:27:39.001Z</time></trkpt><trkpt lat="43.655721957823815" lon="10.921330974412982"><ele>43.0</ele><time>2026-04-26T17:27:40.001Z</time></trkpt><trkpt lat="43.6558340222811" lon="10.92120928861005"><ele>43.0</ele><time>2026-04-26T17:27:41.001Z</time></trkpt><trkpt lat="43.65592752320895" lon="10.92108310813459"><ele>43.0</ele><time>2026-04-26T17:27:42.001Z</time></trkpt><trkpt lat="43.656003794274895" lon="10.92095261316405"><ele>43.5</ele><time>2026-04-26T17:27:43.001Z</time></trkpt><trkpt lat="43.65607443076362" lon="10.920809026813256"><ele>44.0</ele><time>2026-04-26T17:27:44.001Z</time></trkpt><trkpt lat="43.6561400398748" lon="10.92064083589354"><ele>44.5</ele><time>2026-04-26T17:27:45.001Z</time></trkpt><trkpt lat="43.65619512581146" lon="10.920447752217155"><ele>45.0</ele><time>2026-04-26T17:27:46.001Z</time></trkpt><trkpt lat="43.65623405467072" lon="10.920247393067722"><ele>42.75</ele><time>2026-04-26T17:27:47.001Z</time></trkpt><trkpt lat="43.656270241707745" lon="10.920052672600129"><ele>40.5</ele><time>2026-04-26T17:27:48.001Z</time></trkpt><trkpt lat="43.65631328682465" lon="10.919873870744011"><ele>38.25</ele><time>2026-04-26T17:27:49.001Z</time></trkpt><trkpt lat="43.65639277348772" lon="10.91973886438038"><ele>36.0</ele><time>2026-04-26T17:27:50.001Z</time></trkpt><trkpt lat="43.65646547943656" lon="10.919640849502462"><ele>36.0</ele><time>2026-04-26T17:27:51.001Z</time></trkpt><trkpt lat="43.65653793760282" lon="10.919547487343548"><ele>36.0</ele><time>2026-04-26T17:27:52.001Z</time></trkpt><trkpt lat="43.656673803582144" lon="10.9195251887668"><ele>36.0</ele><time>2026-04-26T17:27:53.001Z</time></trkpt><trkpt lat="43.65683354819178" lon="10.919450080317496"><ele>36.0</ele><time>2026-04-26T17:27:54.001Z</time></trkpt><trkpt lat="43.65702268422331" lon="10.91936926755042"><ele>36.0</ele><time>2026-04-26T17:27:55.002Z</time></trkpt><trkpt lat="43.65722422679075" lon="10.91927448283011"><ele>36.0</ele><time>2026-04-26T17:27:56.002Z</time></trkpt><trkpt lat="43.6574002213741" lon="10.919196174990908"><ele>36.0</ele><time>2026-04-26T17:27:57.002Z</time></trkpt><trkpt lat="43.65756036998186" lon="10.919131618346832"><ele>36.0</ele><time>2026-04-26T17:27:58.002Z</time></trkpt><trkpt lat="43.65771496783269" lon="10.919089554813679"><ele>36.0</ele><time>2026-04-26T17:27:59.002Z</time></trkpt><trkpt lat="43.65786323404649" lon="10.919095652032036"><ele>36.0</ele><time>2026-04-26T17:28:00.002Z</time></trkpt><trkpt lat="43.65803218324509" lon="10.919122594391585"><ele>36.333333333333336</ele><time>2026-04-26T17:28:01.002Z</time></trkpt><trkpt lat="43.65821917480166" lon="10.919159017698354"><ele>36.66666666666667</ele><time>2026-04-26T17:28:02.002Z</time></trkpt><trkpt lat="43.65838696246167" lon="10.9191917004233"><ele>37.0</ele><time>2026-04-26T17:28:03.002Z</time></trkpt><trkpt lat="43.658538231983734" lon="10.919193927313295"><ele>36.5</ele><time>2026-04-26T17:28:04.002Z</time></trkpt><trkpt lat="43.65866539118397" lon="10.919198580854605"><ele>36.0</ele><time>2026-04-26T17:28:05.002Z</time></trkpt><trkpt lat="43.658765888254024" lon="10.919211609536418"><ele>35.5</ele><time>2026-04-26T17:28:06.002Z</time></trkpt><trkpt lat="43.65886494404608" lon="10.91915187290283"><ele>35.0</ele><time>2026-04-26T17:28:07.002Z</time></trkpt><trkpt lat="43.65896655199244" lon="10.919041558174419"><ele>35.0</ele><time>2026-04-26T17:28:08.002Z</time></trkpt><trkpt lat="43.65908109035231" lon="10.918915639818643"><ele>35.0</ele><time>2026-04-26T17:28:09.002Z</time></trkpt><trkpt lat="43.659223187729204" lon="10.918750806280306"><ele>35.0</ele><time>2026-04-26T17:28:10.002Z</time></trkpt><trkpt lat="43.659382193323076" lon="10.918555136717098"><ele>36.0</ele><time>2026-04-26T17:28:11.002Z</time></trkpt><trkpt lat="43.65955462103029" lon="10.918360164834834"><ele>37.0</ele><time>2026-04-26T17:28:12.002Z</time></trkpt><trkpt lat="43.65971773681124" lon="10.918177839510715"><ele>38.0</ele><time>2026-04-26T17:28:13.002Z</time></trkpt><trkpt lat="43.65987703971817" lon="10.918027963299814"><ele>38.0</ele><time>2026-04-26T17:28:14.002Z</time></trkpt><trkpt lat="43.66001765897968" lon="10.917881577407343"><ele>38.0</ele><time>2026-04-26T17:28:15.002Z</time></trkpt><trkpt lat="43.66016157226573" lon="10.917765328715861"><ele>38.0</ele><time>2026-04-26T17:28:16.002Z</time></trkpt><trkpt lat="43.660315925182005" lon="10.917684038183578"><ele>38.33333333333333</ele><time>2026-04-26T17:28:17.002Z</time></trkpt><trkpt lat="43.660492673947545" lon="10.917613178345544"><ele>38.666666666666664</ele><time>2026-04-26T17:28:18.002Z</time></trkpt><trkpt lat="43.66067581978082" lon="10.917538269959692"><ele>39.0</ele><time>2026-04-26T17:28:19.002Z</time></trkpt><trkpt lat="43.66084412595572" lon="10.91747222698272"><ele>39.0</ele><time>2026-04-26T17:28:20.002Z</time></trkpt><trkpt lat="43.66101162876867" lon="10.917420548688384"><ele>39.0</ele><time>2026-04-26T17:28:21.002Z</time></trkpt><trkpt lat="43.66116968887639" lon="10.917339470913502"><ele>39.0</ele><time>2026-04-26T17:28:22.002Z</time></trkpt><trkpt lat="43.6613179434159" lon="10.917280978163461"><ele>38.25</ele><time>2026-04-26T17:28:23.002Z</time></trkpt><trkpt lat="43.661461261353715" lon="10.917219217251455"><ele>37.5</ele><time>2026-04-26T17:28:24.002Z</time></trkpt><trkpt lat="43.661593592542616" lon="10.917164104860511"><ele>36.75</ele><time>2026-04-26T17:28:25Z</time></trkpt><trkpt lat="43.66171218984688" lon="10.9170931435972"><ele>36.0</ele><time>2026-04-26T17:28:26Z</time></trkpt><trkpt lat="43.66181732981832" lon="10.916990677304037"><ele>36.0</ele><time>2026-04-26T17:28:27Z</time></trkpt><trkpt lat="43.66191408330044" lon="10.916852173749934"><ele>36.0</ele><time>2026-04-26T17:28:28Z</time></trkpt><trkpt lat="43.66199231763889" lon="10.916678870411054"><ele>36.0</ele><time>2026-04-26T17:28:29Z</time></trkpt><trkpt lat="43.66206185022622" lon="10.916487657576273"><ele>36.0</ele><time>2026-04-26T17:28:30Z</time></trkpt><trkpt lat="43.662139646516366" lon="10.916283502115819"><ele>36.0</ele><time>2026-04-26T17:28:31Z</time></trkpt><trkpt lat="43.66222550399702" lon="10.91609301282753"><ele>36.0</ele><time>2026-04-26T17:28:32Z</time></trkpt><trkpt lat="43.662330665560084" lon="10.915911008653541"><ele>36.0</ele><time>2026-04-26T17:28:33Z</time></trkpt><trkpt lat="43.66243762875076" lon="10.9157458169146"><ele>36.0</ele><time>2026-04-26T17:28:34Z</time></trkpt><trkpt lat="43.66255825004604" lon="10.915580978807638"><ele>36.0</ele><time>2026-04-26T17:28:35Z</time></trkpt><trkpt lat="43.66269551429322" lon="10.915403465085971"><ele>36.0</ele><time>2026-04-26T17:28:36Z</time></trkpt><trkpt lat="43.66282380787318" lon="10.915245919986019"><ele>35.6</ele><time>2026-04-26T17:28:37Z</time></trkpt><trkpt lat="43.66293800599305" lon="10.915101645448859"><ele>35.2</ele><time>2026-04-26T17:28:38Z</time></trkpt><trkpt lat="43.663025950378064" lon="10.914996473310923"><ele>34.8</ele><time>2026-04-26T17:28:39Z</time></trkpt><trkpt lat="43.66309454973192" lon="10.914939518828893"><ele>34.4</ele><time>2026-04-26T17:28:40Z</time></trkpt><trkpt lat="43.66315781846147" lon="10.914899365268433"><ele>34.0</ele><time>2026-04-26T17:28:41Z</time></trkpt><trkpt lat="43.663229580250004" lon="10.914877570499748"><ele>33.8</ele><time>2026-04-26T17:28:43Z</time></trkpt><trkpt lat="43.66330518924895" lon="10.91508203613544"><ele>33.599999999999994</ele><time>2026-04-26T17:28:45Z</time></trkpt><trkpt lat="43.66336146433543" lon="10.915230011505502"><ele>33.4</ele><time>2026-04-26T17:28:47Z</time></trkpt><trkpt lat="43.663391202087475" lon="10.915308968296774"><ele>33.199999999999996</ele><time>2026-04-26T17:28:48Z</time></trkpt><trkpt lat="43.66342283678742" lon="10.915392520703664"><ele>33.0</ele><time>2026-04-26T17:28:49Z</time></trkpt><trkpt lat="43.663466936412824" lon="10.915506740801195"><ele>33.0</ele><time>2026-04-26T17:28:50Z</time></trkpt><trkpt lat="43.66350931095523" lon="10.915613940547173"><ele>33.0</ele><time>2026-04-26T17:28:51Z</time></trkpt><trkpt lat="43.663543269746" lon="10.915691827043855"><ele>33.0</ele><time>2026-04-26T17:28:52Z</time></trkpt><trkpt lat="43.663587646350976" lon="10.91576560054699"><ele>33.0</ele><time>2026-04-26T17:28:56Z</time></trkpt><trkpt lat="43.66378056625612" lon="10.915599804936317"><ele>33.166666666666664</ele><time>2026-04-26T17:29:35.001Z</time></trkpt><trkpt lat="43.66385049654226" lon="10.915545239118714"><ele>33.333333333333336</ele><time>2026-04-26T17:29:36.001Z</time></trkpt><trkpt lat="43.66393333289715" lon="10.91547932563898"><ele>33.5</ele><time>2026-04-26T17:29:37.001Z</time></trkpt><trkpt lat="43.664009425275694" lon="10.915418569305823"><ele>33.66666666666667</ele><time>2026-04-26T17:29:38.001Z</time></trkpt><trkpt lat="43.664083788317" lon="10.915365467821744"><ele>33.833333333333336</ele><time>2026-04-26T17:29:39.001Z</time></trkpt><trkpt lat="43.664160942418704" lon="10.915316364225053"><ele>34.0</ele><time>2026-04-26T17:29:40.001Z</time></trkpt><trkpt lat="43.664242025087994" lon="10.915267140670176"><ele>34.0</ele><time>2026-04-26T17:29:41.001Z</time></trkpt><trkpt lat="43.664334116313995" lon="10.915208613291055"><ele>34.0</ele><time>2026-04-26T17:29:42.001Z</time></trkpt><trkpt lat="43.66443325114054" lon="10.915150570339218"><ele>34.0</ele><time>2026-04-26T17:29:43.001Z</time></trkpt><trkpt lat="43.66452632108051" lon="10.91510403670103"><ele>34.0</ele><time>2026-04-26T17:29:44.001Z</time></trkpt><trkpt lat="43.664604246388045" lon="10.91506774602747"><ele>34.0</ele><time>2026-04-26T17:29:45.001Z</time></trkpt><trkpt lat="43.66468221050872" lon="10.915033626755509"><ele>34.4</ele><time>2026-04-26T17:29:46.001Z</time></trkpt><trkpt lat="43.6647680891772" lon="10.915001938455827"><ele>34.8</ele><time>2026-04-26T17:29:47.001Z</time></trkpt><trkpt lat="43.66486221207526" lon="10.914974008409196"><ele>35.2</ele><time>2026-04-26T17:29:48.001Z</time></trkpt><trkpt lat="43.66495542777447" lon="10.914949650045939"><ele>35.6</ele><time>2026-04-26T17:29:49.001Z</time></trkpt><trkpt lat="43.66505111448729" lon="10.914926744157906"><ele>36.0</ele><time>2026-04-26T17:29:50.001Z</time></trkpt><trkpt lat="43.66514360365534" lon="10.914909411022977"><ele>36.0</ele><time>2026-04-26T17:29:51.001Z</time></trkpt><trkpt lat="43.66522555913591" lon="10.91489694670037"><ele>36.0</ele><time>2026-04-26T17:29:52.001Z</time></trkpt><trkpt lat="43.66530647760229" lon="10.91488805996492"><ele>36.0</ele><time>2026-04-26T17:29:53.001Z</time></trkpt><trkpt lat="43.66539408989841" lon="10.914880193388628"><ele>36.0</ele><time>2026-04-26T17:29:54.001Z</time></trkpt><trkpt lat="43.665481452270804" lon="10.914874366621003"><ele>36.0</ele><time>2026-04-26T17:29:55.001Z</time></trkpt><trkpt lat="43.66556508838643" lon="10.91487291765601"><ele>36.0</ele><time>2026-04-26T17:29:56.001Z</time></trkpt><trkpt lat="43.66564820816235" lon="10.914877063820983"><ele>35.666666666666664</ele><time>2026-04-26T17:29:57.001Z</time></trkpt><trkpt lat="43.66573654153632" lon="10.914885122652244"><ele>35.333333333333336</ele><time>2026-04-26T17:29:58.001Z</time></trkpt><trkpt lat="43.66582094410071" lon="10.91489369012988"><ele>35.0</ele><time>2026-04-26T17:29:59.001Z</time></trkpt><trkpt lat="43.665911347501584" lon="10.91490595366547"><ele>34.66666666666667</ele><time>2026-04-26T17:30:00.001Z</time></trkpt><trkpt lat="43.66600099296953" lon="10.914921293036915"><ele>34.333333333333336</ele><time>2026-04-26T17:30:01.002Z</time></trkpt><trkpt lat="43.66608709514987" lon="10.914937592528759"><ele>34.0</ele><time>2026-04-26T17:30:02.002Z</time></trkpt><trkpt lat="43.666174386748345" lon="10.914960505468283"><ele>34.0</ele><time>2026-04-26T17:30:03.002Z</time></trkpt><trkpt lat="43.66625900715934" lon="10.914989927927234"><ele>34.0</ele><time>2026-04-26T17:30:04.002Z</time></trkpt><trkpt lat="43.666348740212634" lon="10.91502320157829"><ele>34.0</ele><time>2026-04-26T17:30:05.002Z</time></trkpt><trkpt lat="43.666436739137104" lon="10.915059644533569"><ele>34.0</ele><time>2026-04-26T17:30:06.002Z</time></trkpt><trkpt lat="43.66651506651339" lon="10.915091399403243"><ele>34.0</ele><time>2026-04-26T17:30:07.002Z</time></trkpt><trkpt lat="43.66658682050125" lon="10.915124165562432"><ele>34.0</ele><time>2026-04-26T17:30:08.002Z</time></trkpt><trkpt lat="43.666660779267076" lon="10.915157051548766"><ele>34.0</ele><time>2026-04-26T17:30:09.002Z</time></trkpt><trkpt lat="43.66674074704566" lon="10.91519527602255"><ele>34.0</ele><time>2026-04-26T17:30:10.002Z</time></trkpt><trkpt lat="43.66681649270508" lon="10.915239375134298"><ele>34.0</ele><time>2026-04-26T17:30:11.002Z</time></trkpt><trkpt lat="43.666886577767386" lon="10.915286295572672"><ele>34.0</ele><time>2026-04-26T17:30:12.002Z</time></trkpt><trkpt lat="43.666957249069334" lon="10.915333746630155"><ele>34.0</ele><time>2026-04-26T17:30:13.002Z</time></trkpt><trkpt lat="43.66702772591922" lon="10.915385083821704"><ele>34.0</ele><time>2026-04-26T17:30:14.002Z</time></trkpt><trkpt lat="43.66710101783262" lon="10.915440177433752"><ele>33.833333333333336</ele><time>2026-04-26T17:30:15.002Z</time></trkpt><trkpt lat="43.66717079499967" lon="10.91549618800188"><ele>33.66666666666667</ele><time>2026-04-26T17:30:16.002Z</time></trkpt><trkpt lat="43.667241179833965" lon="10.91555873498533"><ele>33.5</ele><time>2026-04-26T17:30:17.002Z</time></trkpt><trkpt lat="43.66731977559808" lon="10.915630681812488"><ele>33.333333333333336</ele><time>2026-04-26T17:30:18.002Z</time></trkpt><trkpt lat="43.667394803409984" lon="10.91570099260278"><ele>33.166666666666664</ele><time>2026-04-26T17:30:19.002Z</time></trkpt><trkpt lat="43.66746716830623" lon="10.915773027348258"><ele>33.0</ele><time>2026-04-26T17:30:20.002Z</time></trkpt><trkpt lat="43.66754594904591" lon="10.915856858055184"><ele>33.25</ele><time>2026-04-26T17:30:21.002Z</time></trkpt><trkpt lat="43.66762394137013" lon="10.91594866535538"><ele>33.5</ele><time>2026-04-26T17:30:22.002Z</time></trkpt><trkpt lat="43.66770445489426" lon="10.9160431286222"><ele>33.75</ele><time>2026-04-26T17:30:23.002Z</time></trkpt><trkpt lat="43.66779307545131" lon="10.91614984233563"><ele>34.0</ele><time>2026-04-26T17:30:24.002Z</time></trkpt><trkpt lat="43.667889435429146" lon="10.916268660107193"><ele>34.0</ele><time>2026-04-26T17:30:25.002Z</time></trkpt><trkpt lat="43.66797408847165" lon="10.916374745639857"><ele>34.0</ele><time>2026-04-26T17:30:26.002Z</time></trkpt><trkpt lat="43.66804646193493" lon="10.916466677942186"><ele>34.0</ele><time>2026-04-26T17:30:27.002Z</time></trkpt><trkpt lat="43.6681222629419" lon="10.916555349502687"><ele>34.0</ele><time>2026-04-26T17:30:28.002Z</time></trkpt><trkpt lat="43.668195836397494" lon="10.916634738512942"><ele>34.0</ele><time>2026-04-26T17:30:29.002Z</time></trkpt><trkpt lat="43.66827153420382" lon="10.916703999896127"><ele>34.0</ele><time>2026-04-26T17:30:30.002Z</time></trkpt><trkpt lat="43.66834957295957" lon="10.916760903986193"><ele>34.0</ele><time>2026-04-26T17:30:31Z</time></trkpt><trkpt lat="43.668439480136705" lon="10.916818160559538"><ele>34.0</ele><time>2026-04-26T17:30:32Z</time></trkpt><trkpt lat="43.668538131900526" lon="10.916877535439413"><ele>34.0</ele><time>2026-04-26T17:30:33Z</time></trkpt><trkpt lat="43.66864531923042" lon="10.916943421996107"><ele>34.0</ele><time>2026-04-26T17:30:34Z</time></trkpt><trkpt lat="43.66874599956179" lon="10.917006743361613"><ele>34.0</ele><time>2026-04-26T17:30:35Z</time></trkpt><trkpt lat="43.66883703187496" lon="10.917065358535819"><ele>34.0</ele><time>2026-04-26T17:30:36Z</time></trkpt><trkpt lat="43.66891526896814" lon="10.917114782797345"><ele>34.0</ele><time>2026-04-26T17:30:37Z</time></trkpt><trkpt lat="43.668977014476674" lon="10.917157065011068"><ele>34.0</ele><time>2026-04-26T17:30:38Z</time></trkpt><trkpt lat="43.66903482591491" lon="10.917222078582414"><ele>34.0</ele><time>2026-04-26T17:30:40Z</time></trkpt><trkpt lat="43.669107052903406" lon="10.917344696983582"><ele>34.0</ele><time>2026-04-26T17:30:43Z</time></trkpt><trkpt lat="43.66919454017959" lon="10.9174177902938"><ele>34.0</ele><time>2026-04-26T17:30:45Z</time></trkpt><trkpt lat="43.66930028458643" lon="10.917366861289551"><ele>34.0</ele><time>2026-04-26T17:30:47Z</time></trkpt><trkpt lat="43.66936587000275" lon="10.91733391276057"><ele>34.0</ele><time>2026-04-26T17:30:48Z</time></trkpt><trkpt lat="43.669443942245174" lon="10.917305527011417"><ele>34.0</ele><time>2026-04-26T17:30:49Z</time></trkpt><trkpt lat="43.66953544988759" lon="10.917273287963233"><ele>34.0</ele><time>2026-04-26T17:30:50Z</time></trkpt><trkpt lat="43.66960952605583" lon="10.917237844399319"><ele>34.0</ele><time>2026-04-26T17:30:51Z</time></trkpt><trkpt lat="43.66967969779914" lon="10.917198853351218"><ele>34.0</ele><time>2026-04-26T17:30:52Z</time></trkpt><trkpt lat="43.66974506706159" lon="10.917157043847777"><ele>34.0</ele><time>2026-04-26T17:30:53Z</time></trkpt><trkpt lat="43.6698124787287" lon="10.917118111310694"><ele>34.0</ele><time>2026-04-26T17:30:54Z</time></trkpt><trkpt lat="43.6698866418815" lon="10.917074754360137"><ele>34.0</ele><time>2026-04-26T17:30:55Z</time></trkpt><trkpt lat="43.66996625135503" lon="10.917028964809294"><ele>34.0</ele><time>2026-04-26T17:30:56Z</time></trkpt><trkpt lat="43.67005172252479" lon="10.916978883769525"><ele>34.0</ele><time>2026-04-26T17:30:57Z</time></trkpt><trkpt lat="43.670141061299816" lon="10.916927118347354"><ele>34.0</ele><time>2026-04-26T17:30:58Z</time></trkpt><trkpt lat="43.67022833678101" lon="10.916875918167415"><ele>34.0</ele><time>2026-04-26T17:30:59Z</time></trkpt><trkpt lat="43.670314391131214" lon="10.916826451299984"><ele>34.0</ele><time>2026-04-26T17:31:00Z</time></trkpt><trkpt lat="43.670388497661236" lon="10.916774510645038"><ele>34.0</ele><time>2026-04-26T17:31:01.001Z</time></trkpt><trkpt lat="43.670449401369495" lon="10.916719727513339"><ele>34.0</ele><time>2026-04-26T17:31:02.001Z</time></trkpt><trkpt lat="43.67050530332635" lon="10.916653423682202"><ele>34.0</ele><time>2026-04-26T17:31:03.001Z</time></trkpt><trkpt lat="43.670550068050765" lon="10.916578518410946"><ele>34.0</ele><time>2026-04-26T17:31:04.001Z</time></trkpt><trkpt lat="43.67059903949059" lon="10.91648751552288"><ele>34.0</ele><time>2026-04-26T17:31:05.001Z</time></trkpt><trkpt lat="43.670648302105384" lon="10.916391034347438"><ele>34.0</ele><time>2026-04-26T17:31:06.001Z</time></trkpt><trkpt lat="43.67069815050807" lon="10.916287348789462"><ele>34.0</ele><time>2026-04-26T17:31:07.001Z</time></trkpt><trkpt lat="43.670747296858764" lon="10.916186686551617"><ele>34.0</ele><time>2026-04-26T17:31:08.001Z</time></trkpt><trkpt lat="43.67079588149146" lon="10.916089925694758"><ele>34.0</ele><time>2026-04-26T17:31:09.001Z</time></trkpt><trkpt lat="43.67084819841051" lon="10.915987063243495"><ele>33.833333333333336</ele><time>2026-04-26T17:31:10.001Z</time></trkpt><trkpt lat="43.67090248675303" lon="10.915883045568249"><ele>33.66666666666667</ele><time>2026-04-26T17:31:11.001Z</time></trkpt><trkpt lat="43.67095251158976" lon="10.915787307799805"><ele>33.5</ele><time>2026-04-26T17:31:12.001Z</time></trkpt><trkpt lat="43.671000266706876" lon="10.915693851704779"><ele>33.333333333333336</ele><time>2026-04-26T17:31:13.001Z</time></trkpt><trkpt lat="43.671047059581085" lon="10.915605263119918"><ele>33.166666666666664</ele><time>2026-04-26T17:31:14.001Z</time></trkpt><trkpt lat="43.67109836125025" lon="10.915509460808563"><ele>33.0</ele><time>2026-04-26T17:31:15.001Z</time></trkpt><trkpt lat="43.671156810425934" lon="10.915396712794399"><ele>33.199999999999996</ele><time>2026-04-26T17:31:16.001Z</time></trkpt><trkpt lat="43.671220058546936" lon="10.915280148296223"><ele>33.4</ele><time>2026-04-26T17:31:17.001Z</time></trkpt><trkpt lat="43.671277203854125" lon="10.915169803778774"><ele>33.599999999999994</ele><time>2026-04-26T17:31:18.001Z</time></trkpt><trkpt lat="43.67132984424065" lon="10.915070754515195"><ele>33.8</ele><time>2026-04-26T17:31:19.001Z</time></trkpt><trkpt lat="43.671378171084584" lon="10.914982444806101"><ele>34.0</ele><time>2026-04-26T17:31:20.001Z</time></trkpt><trkpt lat="43.671424806186856" lon="10.914891731193393"><ele>34.0</ele><time>2026-04-26T17:31:21.001Z</time></trkpt><trkpt lat="43.671473167698466" lon="10.914801274836407"><ele>34.0</ele><time>2026-04-26T17:31:22.001Z</time></trkpt><trkpt lat="43.67152309459732" lon="10.914710604952061"><ele>34.0</ele><time>2026-04-26T17:31:23.001Z</time></trkpt><trkpt lat="43.671570522334676" lon="10.914621563371636"><ele>34.0</ele><time>2026-04-26T17:31:24.001Z</time></trkpt><trkpt lat="43.67161858864613" lon="10.91453579726292"><ele>34.0</ele><time>2026-04-26T17:31:25.001Z</time></trkpt><trkpt lat="43.67167018957611" lon="10.914442769165884"><ele>34.0</ele><time>2026-04-26T17:31:26.001Z</time></trkpt><trkpt lat="43.67172631734637" lon="10.91434127987596"><ele>34.0</ele><time>2026-04-26T17:31:27.001Z</time></trkpt><trkpt lat="43.67178722507615" lon="10.914237445199767"><ele>34.0</ele><time>2026-04-26T17:31:28.001Z</time></trkpt><trkpt lat="43.67185520723196" lon="10.914139933419975"><ele>34.0</ele><time>2026-04-26T17:31:29.001Z</time></trkpt><trkpt lat="43.671934131941335" lon="10.914036558987283"><ele>34.0</ele><time>2026-04-26T17:31:30.001Z</time></trkpt><trkpt lat="43.67201669616191" lon="10.913919432543183"><ele>34.0</ele><time>2026-04-26T17:31:31.001Z</time></trkpt><trkpt lat="43.67209717589317" lon="10.913802516510927"><ele>34.0</ele><time>2026-04-26T17:31:32.001Z</time></trkpt><trkpt lat="43.67217537154756" lon="10.913700678873786"><ele>34.0</ele><time>2026-04-26T17:31:33.001Z</time></trkpt><trkpt lat="43.6722432769721" lon="10.913611656790817"><ele>34.0</ele><time>2026-04-26T17:31:34.001Z</time></trkpt><trkpt lat="43.67230021566157" lon="10.913525835590345"><ele>34.0</ele><time>2026-04-26T17:31:35.001Z</time></trkpt><trkpt lat="43.67235614394559" lon="10.913447116880299"><ele>34.0</ele><time>2026-04-26T17:31:36.001Z</time></trkpt><trkpt lat="43.67241449155606" lon="10.913383508629677"><ele>34.0</ele><time>2026-04-26T17:31:37.001Z</time></trkpt><trkpt lat="43.6724862239986" lon="10.913311165145176"><ele>34.0</ele><time>2026-04-26T17:31:38.001Z</time></trkpt><trkpt lat="43.67255091738207" lon="10.913227667373329"><ele>34.0</ele><time>2026-04-26T17:31:39.001Z</time></trkpt><trkpt lat="43.672624714124794" lon="10.913126743033922"><ele>34.0</ele><time>2026-04-26T17:31:40.001Z</time></trkpt><trkpt lat="43.67270301030568" lon="10.913026700023872"><ele>34.0</ele><time>2026-04-26T17:31:41.001Z</time></trkpt><trkpt lat="43.67277342405405" lon="10.912934667355305"><ele>34.0</ele><time>2026-04-26T17:31:42.001Z</time></trkpt><trkpt lat="43.67285330618968" lon="10.912834487436916"><ele>34.0</ele><time>2026-04-26T17:31:43.001Z</time></trkpt><trkpt lat="43.67293594721185" lon="10.91272735053249"><ele>34.0</ele><time>2026-04-26T17:31:44.001Z</time></trkpt><trkpt lat="43.67301079874715" lon="10.912631398723754"><ele>34.0</ele><time>2026-04-26T17:31:45.001Z</time></trkpt><trkpt lat="43.67307901487451" lon="10.912543578381866"><ele>34.0</ele><time>2026-04-26T17:31:46.001Z</time></trkpt><trkpt lat="43.67314717832028" lon="10.912456138793953"><ele>34.0</ele><time>2026-04-26T17:31:47.001Z</time></trkpt><trkpt lat="43.673218183420694" lon="10.912363801166928"><ele>34.0</ele><time>2026-04-26T17:31:48.001Z</time></trkpt><trkpt lat="43.67328635028554" lon="10.91227447695547"><ele>34.0</ele><time>2026-04-26T17:31:49.001Z</time></trkpt><trkpt lat="43.67335196974816" lon="10.912190843807222"><ele>34.0</ele><time>2026-04-26T17:31:50.001Z</time></trkpt><trkpt lat="43.6734178129322" lon="10.91210570790085"><ele>34.0</ele><time>2026-04-26T17:31:51.001Z</time></trkpt><trkpt lat="43.67348257896512" lon="10.912023272145182"><ele>34.0</ele><time>2026-04-26T17:31:52.001Z</time></trkpt><trkpt lat="43.673548424989136" lon="10.911938933132298"><ele>34.0</ele><time>2026-04-26T17:31:53.001Z</time></trkpt><trkpt lat="43.673617862929525" lon="10.911849768855172"><ele>34.0</ele><time>2026-04-26T17:31:54.001Z</time></trkpt><trkpt lat="43.673689848691666" lon="10.911763840971156"><ele>34.0</ele><time>2026-04-26T17:31:55.001Z</time></trkpt><trkpt lat="43.673761333455346" lon="10.911701148549355"><ele>34.0</ele><time>2026-04-26T17:31:56.001Z</time></trkpt><trkpt lat="43.67383363878248" lon="10.911663310620616"><ele>34.0</ele><time>2026-04-26T17:31:57.001Z</time></trkpt><trkpt lat="43.673907639816505" lon="10.91164061734862"><ele>34.0</ele><time>2026-04-26T17:31:58.001Z</time></trkpt><trkpt lat="43.673994384435346" lon="10.911617337884378"><ele>34.0</ele><time>2026-04-26T17:31:59.001Z</time></trkpt><trkpt lat="43.6741003909995" lon="10.911584720579578"><ele>34.0</ele><time>2026-04-26T17:32:00.001Z</time></trkpt><trkpt lat="43.67420864975062" lon="10.911552544616136"><ele>34.0</ele><time>2026-04-26T17:32:01.001Z</time></trkpt><trkpt lat="43.67431522442015" lon="10.91151759637122"><ele>34.0</ele><time>2026-04-26T17:32:02.001Z</time></trkpt><trkpt lat="43.67441559608159" lon="10.911483340238918"><ele>34.0</ele><time>2026-04-26T17:32:03.002Z</time></trkpt><trkpt lat="43.674517922137866" lon="10.911448619231217"><ele>33.6</ele><time>2026-04-26T17:32:04.002Z</time></trkpt><trkpt lat="43.67462053341378" lon="10.911413826899079"><ele>33.2</ele><time>2026-04-26T17:32:05.002Z</time></trkpt><trkpt lat="43.674722499002264" lon="10.91137865736754"><ele>32.800000000000004</ele><time>2026-04-26T17:32:06.002Z</time></trkpt><trkpt lat="43.67482603426054" lon="10.911342943645543"><ele>32.4</ele><time>2026-04-26T17:32:07.002Z</time></trkpt><trkpt lat="43.674927241214895" lon="10.911309022933978"><ele>32.0</ele><time>2026-04-26T17:32:08.002Z</time></trkpt><trkpt lat="43.67501546448729" lon="10.911278646012736"><ele>32.0</ele><time>2026-04-26T17:32:09.002Z</time></trkpt><trkpt lat="43.675104210350966" lon="10.91124927195019"><ele>32.0</ele><time>2026-04-26T17:32:10.002Z</time></trkpt><trkpt lat="43.67519240259234" lon="10.911221404213927"><ele>32.0</ele><time>2026-04-26T17:32:11.002Z</time></trkpt><trkpt lat="43.675291600878445" lon="10.911186508576272"><ele>32.0</ele><time>2026-04-26T17:32:12.002Z</time></trkpt><trkpt lat="43.67539118970967" lon="10.911153218402669"><ele>32.0</ele><time>2026-04-26T17:32:13.002Z</time></trkpt><trkpt lat="43.67549317204753" lon="10.91112013029469"><ele>32.2</ele><time>2026-04-26T17:32:14.002Z</time></trkpt><trkpt lat="43.675591504581625" lon="10.911086790584292"><ele>32.400000000000006</ele><time>2026-04-26T17:32:15.002Z</time></trkpt><trkpt lat="43.675693779263476" lon="10.91105343345943"><ele>32.599999999999994</ele><time>2026-04-26T17:32:16.002Z</time></trkpt><trkpt lat="43.675799068673875" lon="10.911017055488903"><ele>32.8</ele><time>2026-04-26T17:32:17.002Z</time></trkpt><trkpt lat="43.67589727046492" lon="10.910983278574772"><ele>33.0</ele><time>2026-04-26T17:32:18.002Z</time></trkpt><trkpt lat="43.67599472995062" lon="10.910946688450064"><ele>32.75</ele><time>2026-04-26T17:32:19.002Z</time></trkpt><trkpt lat="43.6761144983733" lon="10.91089880503281"><ele>32.5</ele><time>2026-04-26T17:32:20.002Z</time></trkpt><trkpt lat="43.67623587474322" lon="10.910851631245022"><ele>32.25</ele><time>2026-04-26T17:32:21.002Z</time></trkpt><trkpt lat="43.676358218962854" lon="10.91080372069296"><ele>32.0</ele><time>2026-04-26T17:32:22.002Z</time></trkpt><trkpt lat="43.676474550702316" lon="10.910758326399804"><ele>32.0</ele><time>2026-04-26T17:32:23.002Z</time></trkpt><trkpt lat="43.676581529785075" lon="10.910719629425467"><ele>32.0</ele><time>2026-04-26T17:32:24.002Z</time></trkpt><trkpt lat="43.676678805205604" lon="10.910681986333977"><ele>32.0</ele><time>2026-04-26T17:32:25.002Z</time></trkpt><trkpt lat="43.67677453303049" lon="10.910645098294141"><ele>32.0</ele><time>2026-04-26T17:32:26.002Z</time></trkpt><trkpt lat="43.67687091846114" lon="10.910604629939902"><ele>32.0</ele><time>2026-04-26T17:32:27.002Z</time></trkpt><trkpt lat="43.67696982895719" lon="10.910567004286884"><ele>31.8</ele><time>2026-04-26T17:32:28.002Z</time></trkpt><trkpt lat="43.67706767217926" lon="10.910526951576472"><ele>31.6</ele><time>2026-04-26T17:32:29.002Z</time></trkpt><trkpt lat="43.67715963352477" lon="10.910488743244997"><ele>31.400000000000002</ele><time>2026-04-26T17:32:30.002Z</time></trkpt><trkpt lat="43.67725669917754" lon="10.910451049990451"><ele>31.200000000000003</ele><time>2026-04-26T17:32:31.002Z</time></trkpt><trkpt lat="43.67735379456234" lon="10.91041357871957"><ele>31.0</ele><time>2026-04-26T17:32:32.002Z</time></trkpt><trkpt lat="43.677453267498734" lon="10.910377118471208"><ele>31.0</ele><time>2026-04-26T17:32:33.002Z</time></trkpt><trkpt lat="43.67754925480786" lon="10.910340118851355"><ele>31.0</ele><time>2026-04-26T17:32:34.002Z</time></trkpt><trkpt lat="43.67763408890104" lon="10.910303774969979"><ele>31.0</ele><time>2026-04-26T17:32:35.002Z</time></trkpt><trkpt lat="43.67772792249677" lon="10.910266462927481"><ele>31.0</ele><time>2026-04-26T17:32:36.002Z</time></trkpt><trkpt lat="43.677831531394766" lon="10.91022678812221"><ele>31.0</ele><time>2026-04-26T17:32:37.001Z</time></trkpt><trkpt lat="43.67793548698949" lon="10.910187923846841"><ele>31.200000000000003</ele><time>2026-04-26T17:32:38.001Z</time></trkpt><trkpt lat="43.678040836096415" lon="10.910146397713989"><ele>31.400000000000002</ele><time>2026-04-26T17:32:39.001Z</time></trkpt><trkpt lat="43.678142534377095" lon="10.910104410725292"><ele>31.6</ele><time>2026-04-26T17:32:40.001Z</time></trkpt><trkpt lat="43.6782455018723" lon="10.91006859547045"><ele>31.8</ele><time>2026-04-26T17:32:41.001Z</time></trkpt><trkpt lat="43.678359251421114" lon="10.91003157017202"><ele>32.0</ele><time>2026-04-26T17:32:42.001Z</time></trkpt><trkpt lat="43.678483702334304" lon="10.90999107615468"><ele>32.0</ele><time>2026-04-26T17:32:43Z</time></trkpt><trkpt lat="43.67859904794775" lon="10.909954529406965"><ele>32.0</ele><time>2026-04-26T17:32:44Z</time></trkpt><trkpt lat="43.678711553294484" lon="10.909919672847717"><ele>32.0</ele><time>2026-04-26T17:32:45Z</time></trkpt><trkpt lat="43.67881820344109" lon="10.909889394859707"><ele>32.0</ele><time>2026-04-26T17:32:46Z</time></trkpt><trkpt lat="43.67892490546242" lon="10.909859406088849"><ele>31.75</ele><time>2026-04-26T17:32:47Z</time></trkpt><trkpt lat="43.67903610854704" lon="10.909825251874901"><ele>31.5</ele><time>2026-04-26T17:32:48Z</time></trkpt><trkpt lat="43.679147492017" lon="10.909785185152963"><ele>31.25</ele><time>2026-04-26T17:32:49Z</time></trkpt><trkpt lat="43.679257987834184" lon="10.909742738157407"><ele>31.0</ele><time>2026-04-26T17:32:50Z</time></trkpt><trkpt lat="43.679363957064986" lon="10.90969964897202"><ele>31.0</ele><time>2026-04-26T17:32:51Z</time></trkpt><trkpt lat="43.67946601338925" lon="10.909659597361582"><ele>31.0</ele><time>2026-04-26T17:32:52Z</time></trkpt><trkpt lat="43.679570388989205" lon="10.90961715367729"><ele>31.0</ele><time>2026-04-26T17:32:53Z</time></trkpt><trkpt lat="43.679673854838065" lon="10.909574007870962"><ele>31.0</ele><time>2026-04-26T17:32:54Z</time></trkpt><trkpt lat="43.6797770241219" lon="10.909535192566901"><ele>31.0</ele><time>2026-04-26T17:32:55Z</time></trkpt><trkpt lat="43.679884619331794" lon="10.909494686060897"><ele>31.0</ele><time>2026-04-26T17:32:56Z</time></trkpt><trkpt lat="43.679993250315206" lon="10.90945235728848"><ele>31.0</ele><time>2026-04-26T17:32:57Z</time></trkpt><trkpt lat="43.68011378388713" lon="10.909406469531039"><ele>31.0</ele><time>2026-04-26T17:32:58Z</time></trkpt><trkpt lat="43.680227043542814" lon="10.909359828312803"><ele>31.0</ele><time>2026-04-26T17:32:59.001Z</time></trkpt><trkpt lat="43.68032647559029" lon="10.909318747649698"><ele>31.0</ele><time>2026-04-26T17:33:00.001Z</time></trkpt><trkpt lat="43.68041753456297" lon="10.909277917150385"><ele>31.0</ele><time>2026-04-26T17:33:01.001Z</time></trkpt><trkpt lat="43.68050498255962" lon="10.909234328314064"><ele>31.0</ele><time>2026-04-26T17:33:02.001Z</time></trkpt><trkpt lat="43.68059836252266" lon="10.909185400582984"><ele>31.0</ele><time>2026-04-26T17:33:03.001Z</time></trkpt><trkpt lat="43.68069746394492" lon="10.909130308500151"><ele>31.0</ele><time>2026-04-26T17:33:04.001Z</time></trkpt><trkpt lat="43.68079280761705" lon="10.909070079623707"><ele>31.0</ele><time>2026-04-26T17:33:05.001Z</time></trkpt><trkpt lat="43.680890669023945" lon="10.909005075896"><ele>31.0</ele><time>2026-04-26T17:33:06.001Z</time></trkpt><trkpt lat="43.68099134413034" lon="10.908936993946242"><ele>31.0</ele><time>2026-04-26T17:33:07.001Z</time></trkpt><trkpt lat="43.68108565910882" lon="10.908875372141084"><ele>31.0</ele><time>2026-04-26T17:33:08.001Z</time></trkpt><trkpt lat="43.68117054912507" lon="10.908820933471672"><ele>31.0</ele><time>2026-04-26T17:33:09.001Z</time></trkpt><trkpt lat="43.681252155889716" lon="10.908767678552328"><ele>31.000000000000004</ele><time>2026-04-26T17:33:10.001Z</time></trkpt><trkpt lat="43.681335407426246" lon="10.908707565551149"><ele>31.0</ele><time>2026-04-26T17:33:11.001Z</time></trkpt><trkpt lat="43.68140892873526" lon="10.908652809128611"><ele>31.0</ele><time>2026-04-26T17:33:12.001Z</time></trkpt><trkpt lat="43.681470544782734" lon="10.90860344487791"><ele>31.0</ele><time>2026-04-26T17:33:13.001Z</time></trkpt><trkpt lat="43.68152622589018" lon="10.908553291226413"><ele>31.000000000000004</ele><time>2026-04-26T17:33:14.001Z</time></trkpt><trkpt lat="43.68157959205971" lon="10.90850216059282"><ele>31.0</ele><time>2026-04-26T17:33:15.001Z</time></trkpt><trkpt lat="43.68167580305323" lon="10.9084090669333"><ele>31.0</ele><time>2026-04-26T17:33:17.001Z</time></trkpt><trkpt lat="43.681741656312276" lon="10.908343636584002"><ele>31.0</ele><time>2026-04-26T17:33:19.001Z</time></trkpt><trkpt lat="43.68180307435975" lon="10.908278632045402"><ele>31.0</ele><time>2026-04-26T17:33:21.001Z</time></trkpt><trkpt lat="43.68187681910226" lon="10.908206507672745"><ele>31.0</ele><time>2026-04-26T17:33:23.001Z</time></trkpt><trkpt lat="43.68198543572715" lon="10.908102392878234"><ele>31.0</ele><time>2026-04-26T17:33:25.001Z</time></trkpt><trkpt lat="43.682046036922216" lon="10.908042716985777"><ele>31.333333333333336</ele><time>2026-04-26T17:33:26.001Z</time></trkpt><trkpt lat="43.68211242758031" lon="10.907980266134134"><ele>31.666666666666668</ele><time>2026-04-26T17:33:27.001Z</time></trkpt><trkpt lat="43.6821871248031" lon="10.907912234288471"><ele>32.0</ele><time>2026-04-26T17:33:28.001Z</time></trkpt><trkpt lat="43.682262283891276" lon="10.907841865903283"><ele>32.333333333333336</ele><time>2026-04-26T17:33:29.001Z</time></trkpt><trkpt lat="43.682338783999406" lon="10.907766720352283"><ele>32.666666666666664</ele><time>2026-04-26T17:33:30.001Z</time></trkpt><trkpt lat="43.6824081729028" lon="10.90768966906002"><ele>33.0</ele><time>2026-04-26T17:33:31.001Z</time></trkpt><trkpt lat="43.68247096524971" lon="10.907607401525421"><ele>33.0</ele><time>2026-04-26T17:33:32.001Z</time></trkpt><trkpt lat="43.68252061402364" lon="10.907513238150488"><ele>33.0</ele><time>2026-04-26T17:33:33.001Z</time></trkpt><trkpt lat="43.68255825557833" lon="10.907416711408223"><ele>33.0</ele><time>2026-04-26T17:33:34.001Z</time></trkpt><trkpt lat="43.68259620606686" lon="10.90731011524057"><ele>33.0</ele><time>2026-04-26T17:33:35.001Z</time></trkpt><trkpt lat="43.68263266254405" lon="10.907209792300296"><ele>33.0</ele><time>2026-04-26T17:33:36.001Z</time></trkpt><trkpt lat="43.68266582686439" lon="10.907123916320575"><ele>33.0</ele><time>2026-04-26T17:33:37.001Z</time></trkpt><trkpt lat="43.682701274705025" lon="10.907034099113222"><ele>33.0</ele><time>2026-04-26T17:33:38.001Z</time></trkpt><trkpt lat="43.682739427691274" lon="10.90695302051773"><ele>33.0</ele><time>2026-04-26T17:33:39.001Z</time></trkpt><trkpt lat="43.682790950645746" lon="10.906879350450067"><ele>33.0</ele><time>2026-04-26T17:33:40.001Z</time></trkpt><trkpt lat="43.682856286728125" lon="10.906818419167553"><ele>33.0</ele><time>2026-04-26T17:33:41.001Z</time></trkpt><trkpt lat="43.68292757839136" lon="10.906772168334248"><ele>33.0</ele><time>2026-04-26T17:33:42.001Z</time></trkpt><trkpt lat="43.68300050452433" lon="10.90672166392733"><ele>33.0</ele><time>2026-04-26T17:33:43.001Z</time></trkpt><trkpt lat="43.68305979148361" lon="10.906673583619542"><ele>32.666666666666664</ele><time>2026-04-26T17:33:44.001Z</time></trkpt><trkpt lat="43.683110804089175" lon="10.906614686149467"><ele>32.333333333333336</ele><time>2026-04-26T17:33:45.001Z</time></trkpt><trkpt lat="43.683145671185684" lon="10.90653663936871"><ele>32.0</ele><time>2026-04-26T17:33:46.001Z</time></trkpt><trkpt lat="43.68314202476788" lon="10.906391250587706"><ele>31.666666666666668</ele><time>2026-04-26T17:33:48.001Z</time></trkpt><trkpt lat="43.68311127125425" lon="10.906260005497288"><ele>31.333333333333336</ele><time>2026-04-26T17:33:50.001Z</time></trkpt><trkpt lat="43.68308541385697" lon="10.90615261126771"><ele>31.0</ele><time>2026-04-26T17:33:52.001Z</time></trkpt><trkpt lat="43.68304958878169" lon="10.906003787246998"><ele>31.0</ele><time>2026-04-26T17:33:54.001Z</time></trkpt><trkpt lat="43.68302923425581" lon="10.905912664705408"><ele>31.0</ele><time>2026-04-26T17:33:55.001Z</time></trkpt><trkpt lat="43.683009235760885" lon="10.905824644994121"><ele>31.0</ele><time>2026-04-26T17:33:56.001Z</time></trkpt><trkpt lat="43.682979628833706" lon="10.905677952609377"><ele>31.0</ele><time>2026-04-26T17:33:58.001Z</time></trkpt><trkpt lat="43.68295056330197" lon="10.905528735696377"><ele>31.0</ele><time>2026-04-26T17:34:00.001Z</time></trkpt><trkpt lat="43.68293538497113" lon="10.905389823843157"><ele>31.0</ele><time>2026-04-26T17:34:02.001Z</time></trkpt><trkpt lat="43.68292865862565" lon="10.905302132337331"><ele>31.0</ele><time>2026-04-26T17:34:03.001Z</time></trkpt><trkpt lat="43.68290099663109" lon="10.90514843868659"><ele>31.0</ele><time>2026-04-26T17:34:05.001Z</time></trkpt><trkpt lat="43.68287639630057" lon="10.905041275564209"><ele>31.0</ele><time>2026-04-26T17:34:07.002Z</time></trkpt><trkpt lat="43.68284475681833" lon="10.904889063178597"><ele>31.0</ele><time>2026-04-26T17:34:09.002Z</time></trkpt><trkpt lat="43.68282328036703" lon="10.904776864012518"><ele>31.000000000000004</ele><time>2026-04-26T17:34:10.002Z</time></trkpt><trkpt lat="43.682805530517854" lon="10.904676687619785"><ele>31.0</ele><time>2026-04-26T17:34:11.002Z</time></trkpt><trkpt lat="43.68278333883459" lon="10.904564247625553"><ele>31.0</ele><time>2026-04-26T17:34:13.002Z</time></trkpt><trkpt lat="43.682781072975196" lon="10.904474770276787"><ele>31.0</ele><time>2026-04-26T17:34:16.002Z</time></trkpt><trkpt lat="43.68283676380583" lon="10.90451827015801"><ele>31.000000000000004</ele><time>2026-04-26T17:34:22.002Z</time></trkpt><trkpt lat="43.682865666557284" lon="10.904637770502907"><ele>31.0</ele><time>2026-04-26T17:34:24.002Z</time></trkpt><trkpt lat="43.682907252798046" lon="10.904743828140655"><ele>31.0</ele><time>2026-04-26T17:34:25.002Z</time></trkpt><trkpt lat="43.682906401215405" lon="10.904865343939882"><ele>31.0</ele><time>2026-04-26T17:34:26.002Z</time></trkpt><trkpt lat="43.68293292602482" lon="10.904961775132554"><ele>31.0</ele><time>2026-04-26T17:34:27.002Z</time></trkpt><trkpt lat="43.683004729573284" lon="10.905084565253723"><ele>31.0</ele><time>2026-04-26T17:34:29.002Z</time></trkpt><trkpt lat="43.683079852318734" lon="10.905105724859213"><ele>31.0</ele><time>2026-04-26T17:34:30.002Z</time></trkpt><trkpt lat="43.68317640980178" lon="10.905089455104784"><ele>31.000000000000004</ele><time>2026-04-26T17:34:31.002Z</time></trkpt><trkpt lat="43.68325091249345" lon="10.905056980181373"><ele>31.0</ele><time>2026-04-26T17:34:32.002Z</time></trkpt><trkpt lat="43.68331359336668" lon="10.905029910353095"><ele>31.0</ele><time>2026-04-26T17:34:33.002Z</time></trkpt><trkpt lat="43.683415575614475" lon="10.904964243615543"><ele>31.0</ele><time>2026-04-26T17:34:35.002Z</time></trkpt><trkpt lat="43.68350840289824" lon="10.904945295685433"><ele>31.000000000000004</ele><time>2026-04-26T17:34:37.002Z</time></trkpt><trkpt lat="43.6835981260608" lon="10.904944390034785"><ele>31.0</ele><time>2026-04-26T17:34:39.002Z</time></trkpt><trkpt lat="43.68361001358491" lon="10.905030907298293"><ele>31.0</ele><time>2026-04-26T17:34:40.002Z</time></trkpt><trkpt lat="43.683676675615715" lon="10.905088301739639"><ele>31.000000000000004</ele><time>2026-04-26T17:34:42.002Z</time></trkpt><trkpt lat="43.68374055624611" lon="10.905143135917344"><ele>31.0</ele><time>2026-04-26T17:34:44Z</time></trkpt><trkpt lat="43.683803516386035" lon="10.90519844560838"><ele>31.0</ele><time>2026-04-26T17:34:46Z</time></trkpt><trkpt lat="43.68385813402079" lon="10.905247837944348"><ele>31.000000000000004</ele><time>2026-04-26T17:34:48Z</time></trkpt><trkpt lat="43.68391346109277" lon="10.90530023726051"><ele>31.0</ele><time>2026-04-26T17:34:50Z</time></trkpt><trkpt lat="43.683982047172904" lon="10.905372443106588"><ele>31.0</ele><time>2026-04-26T17:34:53Z</time></trkpt><trkpt lat="43.68404094788945" lon="10.905448608574282"><ele>31.0</ele><time>2026-04-26T17:34:56Z</time></trkpt><trkpt lat="43.68409983578639" lon="10.905533612981667"><ele>31.0</ele><time>2026-04-26T17:34:59Z</time></trkpt><trkpt lat="43.68415159968428" lon="10.905616535581222"><ele>31.0</ele><time>2026-04-26T17:35:01Z</time></trkpt><trkpt lat="43.68422657787737" lon="10.905752750778214"><ele>31.0</ele><time>2026-04-26T17:35:03Z</time></trkpt><trkpt lat="43.6842772987998" lon="10.905848804917737"><ele>31.0</ele><time>2026-04-26T17:35:04Z</time></trkpt><trkpt lat="43.68433476129896" lon="10.90596028998046"><ele>31.200000000000003</ele><time>2026-04-26T17:35:05Z</time></trkpt><trkpt lat="43.68439109485106" lon="10.906071006723952"><ele>31.400000000000002</ele><time>2026-04-26T17:35:06Z</time></trkpt><trkpt lat="43.684445545060804" lon="10.906178021987648"><ele>31.6</ele><time>2026-04-26T17:35:07Z</time></trkpt><trkpt lat="43.68450144412619" lon="10.906279543136948"><ele>31.8</ele><time>2026-04-26T17:35:08Z</time></trkpt><trkpt lat="43.68456753973416" lon="10.906391873097101"><ele>32.0</ele><time>2026-04-26T17:35:09Z</time></trkpt><trkpt lat="43.68463472283529" lon="10.906490640811437"><ele>31.999999999999996</ele><time>2026-04-26T17:35:10Z</time></trkpt><trkpt lat="43.68469917921514" lon="10.906579231350792"><ele>32.0</ele><time>2026-04-26T17:35:11Z</time></trkpt><trkpt lat="43.68476362255181" lon="10.906667176498106"><ele>32.0</ele><time>2026-04-26T17:35:12Z</time></trkpt><trkpt lat="43.68483138110071" lon="10.906758096344076"><ele>32.0</ele><time>2026-04-26T17:35:13Z</time></trkpt><trkpt lat="43.68489325166536" lon="10.906841623147672"><ele>31.999999999999996</ele><time>2026-04-26T17:35:14.001Z</time></trkpt><trkpt lat="43.68495014919704" lon="10.906919175393623"><ele>32.0</ele><time>2026-04-26T17:35:15.001Z</time></trkpt><trkpt lat="43.68500293901479" lon="10.906992156442012"><ele>31.833333333333332</ele><time>2026-04-26T17:35:16.001Z</time></trkpt><trkpt lat="43.685063083265746" lon="10.907043908255273"><ele>31.666666666666664</ele><time>2026-04-26T17:35:17.001Z</time></trkpt><trkpt lat="43.68509294679758" lon="10.907124446171203"><ele>31.5</ele><time>2026-04-26T17:35:18.001Z</time></trkpt><trkpt lat="43.685180366713666" lon="10.907255362301413"><ele>31.333333333333336</ele><time>2026-04-26T17:35:20.001Z</time></trkpt><trkpt lat="43.68522321514022" lon="10.907319530180194"><ele>31.166666666666668</ele><time>2026-04-26T17:35:21.001Z</time></trkpt><trkpt lat="43.68527204396003" lon="10.907392654019022"><ele>31.0</ele><time>2026-04-26T17:35:23.001Z</time></trkpt><trkpt lat="43.68542553556637" lon="10.907291056073891"><ele>31.0</ele><time>2026-04-26T17:35:27.001Z</time></trkpt><trkpt lat="43.68546665181144" lon="10.907166547434509"><ele>31.0</ele><time>2026-04-26T17:35:28.001Z</time></trkpt><trkpt lat="43.68551269333602" lon="10.907040511986631"><ele>31.0</ele><time>2026-04-26T17:35:29.001Z</time></trkpt><trkpt lat="43.68557407676023" lon="10.906895827717948"><ele>31.0</ele><time>2026-04-26T17:35:30.001Z</time></trkpt><trkpt lat="43.685652333519656" lon="10.906739671885834"><ele>31.25</ele><time>2026-04-26T17:35:31.001Z</time></trkpt><trkpt lat="43.685737798495545" lon="10.906593058607372"><ele>31.5</ele><time>2026-04-26T17:35:32.001Z</time></trkpt><trkpt lat="43.68583567569574" lon="10.906448289989054"><ele>31.75</ele><time>2026-04-26T17:35:33.001Z</time></trkpt><trkpt lat="43.685944375073994" lon="10.906306747414584"><ele>32.0</ele><time>2026-04-26T17:35:34.001Z</time></trkpt><trkpt lat="43.68606629645465" lon="10.906161856513817"><ele>32.0</ele><time>2026-04-26T17:35:35.001Z</time></trkpt><trkpt lat="43.68619883221551" lon="10.906007944189971"><ele>32.0</ele><time>2026-04-26T17:35:36.001Z</time></trkpt><trkpt lat="43.68633483002262" lon="10.905842213636706"><ele>32.0</ele><time>2026-04-26T17:35:37.001Z</time></trkpt><trkpt lat="43.68646658839543" lon="10.905678403418687"><ele>31.666666666666664</ele><time>2026-04-26T17:35:38.001Z</time></trkpt><trkpt lat="43.68659393052171" lon="10.905519643503903"><ele>31.333333333333336</ele><time>2026-04-26T17:35:39.001Z</time></trkpt><trkpt lat="43.686715103842566" lon="10.905360571051043"><ele>31.0</ele><time>2026-04-26T17:35:40.001Z</time></trkpt><trkpt lat="43.6868328407698" lon="10.905199396693853"><ele>30.666666666666668</ele><time>2026-04-26T17:35:41.001Z</time></trkpt><trkpt lat="43.686955460843286" lon="10.905031471971816"><ele>30.333333333333336</ele><time>2026-04-26T17:35:42.001Z</time></trkpt><trkpt lat="43.687067878778166" lon="10.904872887144021"><ele>30.0</ele><time>2026-04-26T17:35:43.001Z</time></trkpt><trkpt lat="43.68717589091793" lon="10.904717447436193"><ele>30.0</ele><time>2026-04-26T17:35:44.001Z</time></trkpt><trkpt lat="43.68729133439475" lon="10.90454524439276"><ele>30.0</ele><time>2026-04-26T17:35:45.001Z</time></trkpt><trkpt lat="43.68740586550111" lon="10.904366107826576"><ele>30.0</ele><time>2026-04-26T17:35:46.001Z</time></trkpt><trkpt lat="43.687523768853545" lon="10.904178016522252"><ele>30.333333333333336</ele><time>2026-04-26T17:35:47.001Z</time></trkpt><trkpt lat="43.68763819927492" lon="10.903999358830841"><ele>30.666666666666668</ele><time>2026-04-26T17:35:48.001Z</time></trkpt><trkpt lat="43.68775251143871" lon="10.903829675977928"><ele>31.0</ele><time>2026-04-26T17:35:49.001Z</time></trkpt><trkpt lat="43.68787031589542" lon="10.903669073096378"><ele>31.0</ele><time>2026-04-26T17:35:50.001Z</time></trkpt><trkpt lat="43.68799744382586" lon="10.90351698765497"><ele>31.0</ele><time>2026-04-26T17:35:51.001Z</time></trkpt><trkpt lat="43.68812542400034" lon="10.903361733723557"><ele>31.0</ele><time>2026-04-26T17:35:52.001Z</time></trkpt><trkpt lat="43.68826293762148" lon="10.903195428160759"><ele>31.0</ele><time>2026-04-26T17:35:53.001Z</time></trkpt><trkpt lat="43.68839125890665" lon="10.903035509226688"><ele>31.0</ele><time>2026-04-26T17:35:54.001Z</time></trkpt><trkpt lat="43.68851216105416" lon="10.902883699271015"><ele>31.0</ele><time>2026-04-26T17:35:55.001Z</time></trkpt><trkpt lat="43.68862977048325" lon="10.902741291480908"><ele>31.0</ele><time>2026-04-26T17:35:56.001Z</time></trkpt><trkpt lat="43.68874675915937" lon="10.902607139590842"><ele>31.0</ele><time>2026-04-26T17:35:57.001Z</time></trkpt><trkpt lat="43.68886956117296" lon="10.902481903452596"><ele>31.0</ele><time>2026-04-26T17:35:58.001Z</time></trkpt><trkpt lat="43.68900583582134" lon="10.90236517366611"><ele>31.333333333333336</ele><time>2026-04-26T17:35:59.001Z</time></trkpt><trkpt lat="43.68914492272833" lon="10.902251914750014"><ele>31.666666666666664</ele><time>2026-04-26T17:36:00.001Z</time></trkpt><trkpt lat="43.68928797838993" lon="10.90214294790907"><ele>32.0</ele><time>2026-04-26T17:36:01.001Z</time></trkpt><trkpt lat="43.68943851833953" lon="10.902030851028037"><ele>32.0</ele><time>2026-04-26T17:36:02.001Z</time></trkpt><trkpt lat="43.689588665425475" lon="10.901914441624843"><ele>32.0</ele><time>2026-04-26T17:36:03.001Z</time></trkpt><trkpt lat="43.689739576769426" lon="10.901798660993721"><ele>32.0</ele><time>2026-04-26T17:36:04.001Z</time></trkpt><trkpt lat="43.68989213629118" lon="10.901686141195068"><ele>32.0</ele><time>2026-04-26T17:36:05.001Z</time></trkpt><trkpt lat="43.690046449591975" lon="10.901568607331527"><ele>32.0</ele><time>2026-04-26T17:36:06.001Z</time></trkpt><trkpt lat="43.69019910285247" lon="10.901450157660673"><ele>32.0</ele><time>2026-04-26T17:36:07.001Z</time></trkpt><trkpt lat="43.690350591783755" lon="10.901330995782498"><ele>32.0</ele><time>2026-04-26T17:36:08.001Z</time></trkpt><trkpt lat="43.69050426137465" lon="10.90124119616334"><ele>32.0</ele><time>2026-04-26T17:36:09.001Z</time></trkpt><trkpt lat="43.690644074540906" lon="10.901134996601929"><ele>32.0</ele><time>2026-04-26T17:36:10.001Z</time></trkpt><trkpt lat="43.690779075234175" lon="10.901032404780999"><ele>32.0</ele><time>2026-04-26T17:36:11.001Z</time></trkpt><trkpt lat="43.69090479448571" lon="10.900936866322049"><ele>32.0</ele><time>2026-04-26T17:36:12.001Z</time></trkpt><trkpt lat="43.69102130800634" lon="10.900848285135178"><ele>32.0</ele><time>2026-04-26T17:36:13.001Z</time></trkpt><trkpt lat="43.691133468081055" lon="10.900763020052043"><ele>32.0</ele><time>2026-04-26T17:36:14.001Z</time></trkpt><trkpt lat="43.6912309667787" lon="10.900664134858875"><ele>31.75</ele><time>2026-04-26T17:36:15.001Z</time></trkpt><trkpt lat="43.69133600629957" lon="10.90059033117079"><ele>31.5</ele><time>2026-04-26T17:36:16.001Z</time></trkpt><trkpt lat="43.69144629718951" lon="10.900503960863906"><ele>31.25</ele><time>2026-04-26T17:36:17.001Z</time></trkpt><trkpt lat="43.691565790363775" lon="10.900417766527948"><ele>31.0</ele><time>2026-04-26T17:36:18.001Z</time></trkpt><trkpt lat="43.69167370778859" lon="10.900339896247672"><ele>31.0</ele><time>2026-04-26T17:36:19.001Z</time></trkpt><trkpt lat="43.691773517524005" lon="10.900260390779758"><ele>31.0</ele><time>2026-04-26T17:36:20.001Z</time></trkpt><trkpt lat="43.69186536149425" lon="10.900189870492964"><ele>31.0</ele><time>2026-04-26T17:36:21.001Z</time></trkpt><trkpt lat="43.69195172312353" lon="10.900123466302066"><ele>31.0</ele><time>2026-04-26T17:36:22.001Z</time></trkpt><trkpt lat="43.692023331403085" lon="10.90007173150236"><ele>31.0</ele><time>2026-04-26T17:36:23.001Z</time></trkpt><trkpt lat="43.6920925333945" lon="10.900022915390332"><ele>31.166666666666668</ele><time>2026-04-26T17:36:24.002Z</time></trkpt><trkpt lat="43.69215046320961" lon="10.899984096979091"><ele>31.333333333333336</ele><time>2026-04-26T17:36:25.002Z</time></trkpt><trkpt lat="43.69222614828858" lon="10.89993182344245"><ele>31.5</ele><time>2026-04-26T17:36:27.002Z</time></trkpt><trkpt lat="43.69229905219972" lon="10.899879450774504"><ele>31.666666666666664</ele><time>2026-04-26T17:37:23Z</time></trkpt><trkpt lat="43.69238562634802" lon="10.89982231536782"><ele>31.833333333333332</ele><time>2026-04-26T17:37:25Z</time></trkpt><trkpt lat="43.69245133054555" lon="10.899823489521463"><ele>32.0</ele><time>2026-04-26T17:37:27.001Z</time></trkpt><trkpt lat="43.69249636670826" lon="10.899884847538967"><ele>32.0</ele><time>2026-04-26T17:37:28.001Z</time></trkpt><trkpt lat="43.69261318385331" lon="10.89992427727765"><ele>32.0</ele><time>2026-04-26T17:37:30.001Z</time></trkpt><trkpt lat="43.692683689597565" lon="10.899985058516993"><ele>32.0</ele><time>2026-04-26T17:37:31.001Z</time></trkpt><trkpt lat="43.69277395805688" lon="10.900063410259714"><ele>32.0</ele><time>2026-04-26T17:37:32.001Z</time></trkpt><trkpt lat="43.6928585811032" lon="10.900139384211046"><ele>32.0</ele><time>2026-04-26T17:37:33.001Z</time></trkpt><trkpt lat="43.69295142716696" lon="10.90022455834371"><ele>31.5</ele><time>2026-04-26T17:37:34.001Z</time></trkpt><trkpt lat="43.693051570771836" lon="10.900314370731689"><ele>31.0</ele><time>2026-04-26T17:37:35.001Z</time></trkpt><trkpt lat="43.69315591640316" lon="10.900405964960504"><ele>30.5</ele><time>2026-04-26T17:37:36.001Z</time></trkpt><trkpt lat="43.69326657861293" lon="10.900495892028726"><ele>30.0</ele><time>2026-04-26T17:37:37.001Z</time></trkpt><trkpt lat="43.693386692706014" lon="10.900596470162276"><ele>30.0</ele><time>2026-04-26T17:37:38.001Z</time></trkpt><trkpt lat="43.693496124621106" lon="10.900688053279346"><ele>30.0</ele><time>2026-04-26T17:37:39.001Z</time></trkpt><trkpt lat="43.69360885779613" lon="10.90078425797184"><ele>30.0</ele><time>2026-04-26T17:37:40.001Z</time></trkpt><trkpt lat="43.69373405618636" lon="10.90089375833419"><ele>30.0</ele><time>2026-04-26T17:37:41.001Z</time></trkpt><trkpt lat="43.69386020215936" lon="10.901007310822706"><ele>30.666666666666664</ele><time>2026-04-26T17:37:42.001Z</time></trkpt><trkpt lat="43.693992792108084" lon="10.901127866275816"><ele>31.333333333333332</ele><time>2026-04-26T17:37:43.001Z</time></trkpt><trkpt lat="43.69412546057364" lon="10.901246468101577"><ele>32.0</ele><time>2026-04-26T17:37:44.001Z</time></trkpt><trkpt lat="43.69426795099517" lon="10.901366370562988"><ele>32.0</ele><time>2026-04-26T17:37:45.001Z</time></trkpt><trkpt lat="43.694418576771" lon="10.901493102961245"><ele>32.0</ele><time>2026-04-26T17:37:46.001Z</time></trkpt><trkpt lat="43.69457023180332" lon="10.901625607626833"><ele>32.0</ele><time>2026-04-26T17:37:47.001Z</time></trkpt><trkpt lat="43.69472051288298" lon="10.901759538028871"><ele>31.666666666666664</ele><time>2026-04-26T17:37:48.001Z</time></trkpt><trkpt lat="43.69487657515553" lon="10.90189400627721"><ele>31.333333333333336</ele><time>2026-04-26T17:37:49.001Z</time></trkpt><trkpt lat="43.69503286326862" lon="10.902027766675104"><ele>31.0</ele><time>2026-04-26T17:37:50.001Z</time></trkpt><trkpt lat="43.69518618422179" lon="10.902162834910389"><ele>30.333333333333336</ele><time>2026-04-26T17:37:51.001Z</time></trkpt><trkpt lat="43.695338009495536" lon="10.902297646204918"><ele>29.666666666666664</ele><time>2026-04-26T17:37:52.001Z</time></trkpt><trkpt lat="43.69549252585812" lon="10.902433774778984"><ele>29.0</ele><time>2026-04-26T17:37:53.001Z</time></trkpt><trkpt lat="43.695645585377754" lon="10.902564535382565"><ele>29.333333333333332</ele><time>2026-04-26T17:37:54.001Z</time></trkpt><trkpt lat="43.69579622803758" lon="10.902700966962946"><ele>29.666666666666664</ele><time>2026-04-26T17:37:55.001Z</time></trkpt><trkpt lat="43.695941772220934" lon="10.902838439396502"><ele>30.0</ele><time>2026-04-26T17:37:56.001Z</time></trkpt><trkpt lat="43.69608525321544" lon="10.902973398272879"><ele>29.666666666666664</ele><time>2026-04-26T17:37:57.001Z</time></trkpt><trkpt lat="43.69622656922022" lon="10.903097982901569"><ele>29.333333333333332</ele><time>2026-04-26T17:37:58.001Z</time></trkpt><trkpt lat="43.69636842256079" lon="10.903213159003032"><ele>29.0</ele><time>2026-04-26T17:37:59.001Z</time></trkpt><trkpt lat="43.69650962958838" lon="10.903323791127866"><ele>29.0</ele><time>2026-04-26T17:38:00.001Z</time></trkpt><trkpt lat="43.69665284226273" lon="10.903437527766442"><ele>29.0</ele><time>2026-04-26T17:38:01.001Z</time></trkpt><trkpt lat="43.696796652532754" lon="10.903551110106191"><ele>29.0</ele><time>2026-04-26T17:38:02.001Z</time></trkpt><trkpt lat="43.69693957275995" lon="10.903674504876246"><ele>28.333333333333332</ele><time>2026-04-26T17:38:03.001Z</time></trkpt><trkpt lat="43.697088031888974" lon="10.903799397841478"><ele>27.666666666666664</ele><time>2026-04-26T17:38:04.001Z</time></trkpt><trkpt lat="43.6972380996424" lon="10.90392665815126"><ele>27.0</ele><time>2026-04-26T17:38:05.001Z</time></trkpt><trkpt lat="43.69739274654445" lon="10.904059784070355"><ele>27.0</ele><time>2026-04-26T17:38:06.001Z</time></trkpt><trkpt lat="43.69755165710894" lon="10.904196184898838"><ele>27.0</ele><time>2026-04-26T17:38:07.001Z</time></trkpt><trkpt lat="43.6977113795712" lon="10.90433140325477"><ele>27.0</ele><time>2026-04-26T17:38:08.001Z</time></trkpt><trkpt lat="43.69787678580927" lon="10.904472969716778"><ele>27.0</ele><time>2026-04-26T17:38:09.001Z</time></trkpt><trkpt lat="43.69804312051992" lon="10.904617724651658"><ele>27.0</ele><time>2026-04-26T17:38:10.001Z</time></trkpt><trkpt lat="43.698211338633556" lon="10.904765905353786"><ele>27.0</ele><time>2026-04-26T17:38:11.001Z</time></trkpt><trkpt lat="43.69838120663601" lon="10.904915743343174"><ele>27.0</ele><time>2026-04-26T17:38:12.001Z</time></trkpt><trkpt lat="43.69854778328094" lon="10.905058367814528"><ele>27.0</ele><time>2026-04-26T17:38:13.001Z</time></trkpt><trkpt lat="43.698711456582714" lon="10.905195175910787"><ele>27.0</ele><time>2026-04-26T17:38:14.001Z</time></trkpt><trkpt lat="43.698874413248326" lon="10.905333343351607"><ele>26.333333333333336</ele><time>2026-04-26T17:38:15.001Z</time></trkpt><trkpt lat="43.69903855174386" lon="10.905471703255092"><ele>25.666666666666668</ele><time>2026-04-26T17:38:16.001Z</time></trkpt><trkpt lat="43.69919836585019" lon="10.905608575920144"><ele>25.0</ele><time>2026-04-26T17:38:17.001Z</time></trkpt><trkpt lat="43.69935671470821" lon="10.905743626032242"><ele>25.666666666666668</ele><time>2026-04-26T17:38:18.001Z</time></trkpt><trkpt lat="43.69951636086078" lon="10.905881423722063"><ele>26.333333333333336</ele><time>2026-04-26T17:38:19.001Z</time></trkpt><trkpt lat="43.6996696604072" lon="10.906016287535657"><ele>27.0</ele><time>2026-04-26T17:38:20.001Z</time></trkpt><trkpt lat="43.69982138574252" lon="10.906150081219062"><ele>27.0</ele><time>2026-04-26T17:38:21.001Z</time></trkpt><trkpt lat="43.69996860237724" lon="10.906276636708256"><ele>27.0</ele><time>2026-04-26T17:38:22.001Z</time></trkpt><trkpt lat="43.70011797084445" lon="10.906406951117392"><ele>27.0</ele><time>2026-04-26T17:38:23.001Z</time></trkpt><trkpt lat="43.70026715703579" lon="10.906540602353518"><ele>27.0</ele><time>2026-04-26T17:38:24.001Z</time></trkpt><trkpt lat="43.7004158695547" lon="10.90667094805519"><ele>27.0</ele><time>2026-04-26T17:38:25.001Z</time></trkpt><trkpt lat="43.70057139698022" lon="10.906799361898585"><ele>27.0</ele><time>2026-04-26T17:38:26.001Z</time></trkpt><trkpt lat="43.700726760654845" lon="10.906933083449129"><ele>27.0</ele><time>2026-04-26T17:38:27.001Z</time></trkpt><trkpt lat="43.70088480037332" lon="10.907072079133942"><ele>27.0</ele><time>2026-04-26T17:38:28.001Z</time></trkpt><trkpt lat="43.701041964849345" lon="10.907208137872622"><ele>27.0</ele><time>2026-04-26T17:38:29.001Z</time></trkpt><trkpt lat="43.70120070141692" lon="10.907344493366706"><ele>27.0</ele><time>2026-04-26T17:38:30.001Z</time></trkpt><trkpt lat="43.70136438702244" lon="10.90748501117796"><ele>27.0</ele><time>2026-04-26T17:38:31.001Z</time></trkpt><trkpt lat="43.701526581508375" lon="10.907622778087788"><ele>27.0</ele><time>2026-04-26T17:38:32.001Z</time></trkpt><trkpt lat="43.70167493848741" lon="10.907757897434957"><ele>27.0</ele><time>2026-04-26T17:38:33.001Z</time></trkpt><trkpt lat="43.70181509127083" lon="10.907877916118268"><ele>27.0</ele><time>2026-04-26T17:38:34.001Z</time></trkpt><trkpt lat="43.7019539210044" lon="10.907997157056343"><ele>27.0</ele><time>2026-04-26T17:38:35.001Z</time></trkpt><trkpt lat="43.702085863656094" lon="10.90811187924117"><ele>26.666666666666664</ele><time>2026-04-26T17:38:36.001Z</time></trkpt><trkpt lat="43.70221374422609" lon="10.908223921985055"><ele>26.333333333333332</ele><time>2026-04-26T17:38:37.001Z</time></trkpt><trkpt lat="43.70233815987768" lon="10.9083326709806"><ele>26.0</ele><time>2026-04-26T17:38:38.002Z</time></trkpt><trkpt lat="43.702471568424" lon="10.908447156458491"><ele>25.333333333333332</ele><time>2026-04-26T17:38:39.002Z</time></trkpt><trkpt lat="43.70260205090097" lon="10.908586014803857"><ele>24.666666666666664</ele><time>2026-04-26T17:38:40.002Z</time></trkpt><trkpt lat="43.702735726982326" lon="10.908706395100852"><ele>24.0</ele><time>2026-04-26T17:38:41.002Z</time></trkpt><trkpt lat="43.70288374400861" lon="10.908815028233771"><ele>24.0</ele><time>2026-04-26T17:38:42.002Z</time></trkpt><trkpt lat="43.703026333701246" lon="10.908954937733451"><ele>24.0</ele><time>2026-04-26T17:38:43.002Z</time></trkpt><trkpt lat="43.703172827310404" lon="10.909101909991511"><ele>24.0</ele><time>2026-04-26T17:38:44.002Z</time></trkpt><trkpt lat="43.70332075227443" lon="10.90925126028855"><ele>24.333333333333336</ele><time>2026-04-26T17:38:45.002Z</time></trkpt><trkpt lat="43.70347040881917" lon="10.90940448048659"><ele>24.666666666666668</ele><time>2026-04-26T17:38:46.002Z</time></trkpt><trkpt lat="43.703629550695645" lon="10.909567451200223"><ele>25.0</ele><time>2026-04-26T17:38:47.002Z</time></trkpt><trkpt lat="43.70379689036206" lon="10.909736968833453"><ele>25.0</ele><time>2026-04-26T17:38:48.002Z</time></trkpt><trkpt lat="43.70397275662383" lon="10.909916594914968"><ele>25.0</ele><time>2026-04-26T17:38:49.002Z</time></trkpt><trkpt lat="43.704153980614386" lon="10.910100519527635"><ele>25.0</ele><time>2026-04-26T17:38:50.002Z</time></trkpt><trkpt lat="43.70432343490315" lon="10.910268591034724"><ele>25.333333333333336</ele><time>2026-04-26T17:38:51.002Z</time></trkpt><trkpt lat="43.704482318581334" lon="10.910427508709535"><ele>25.666666666666664</ele><time>2026-04-26T17:38:52.002Z</time></trkpt><trkpt lat="43.704635282557184" lon="10.91057694595758"><ele>26.0</ele><time>2026-04-26T17:38:53.002Z</time></trkpt><trkpt lat="43.704780106183804" lon="10.910718701989666"><ele>26.0</ele><time>2026-04-26T17:38:54.002Z</time></trkpt><trkpt lat="43.70490953441886" lon="10.910876818307983"><ele>26.0</ele><time>2026-04-26T17:38:55Z</time></trkpt><trkpt lat="43.70505501748721" lon="10.91099503648153"><ele>26.0</ele><time>2026-04-26T17:38:56Z</time></trkpt><trkpt lat="43.70518496234863" lon="10.911127749858377"><ele>25.5</ele><time>2026-04-26T17:38:57Z</time></trkpt><trkpt lat="43.705312846732305" lon="10.911256264138455"><ele>25.0</ele><time>2026-04-26T17:38:58Z</time></trkpt><trkpt lat="43.70543221131003" lon="10.911373303005469"><ele>24.5</ele><time>2026-04-26T17:38:59Z</time></trkpt><trkpt lat="43.70554623089458" lon="10.911487297307072"><ele>24.0</ele><time>2026-04-26T17:39:00Z</time></trkpt><trkpt lat="43.705656946615136" lon="10.911599013755561"><ele>24.0</ele><time>2026-04-26T17:39:01Z</time></trkpt><trkpt lat="43.70576355292759" lon="10.911706515953268"><ele>24.0</ele><time>2026-04-26T17:39:02Z</time></trkpt><trkpt lat="43.70586475600081" lon="10.911806526246208"><ele>24.0</ele><time>2026-04-26T17:39:03Z</time></trkpt><trkpt lat="43.70596145211607" lon="10.911899997256802"><ele>24.0</ele><time>2026-04-26T17:39:04Z</time></trkpt><trkpt lat="43.706059049742194" lon="10.9119913981542"><ele>24.0</ele><time>2026-04-26T17:39:05Z</time></trkpt><trkpt lat="43.70615763592543" lon="10.912084396542333"><ele>24.0</ele><time>2026-04-26T17:39:06Z</time></trkpt><trkpt lat="43.706253452684216" lon="10.912174703083153"><ele>24.0</ele><time>2026-04-26T17:39:07Z</time></trkpt><trkpt lat="43.70634603708152" lon="10.912257005743502"><ele>24.0</ele><time>2026-04-26T17:39:08Z</time></trkpt><trkpt lat="43.70643084631063" lon="10.912333263051883"><ele>24.0</ele><time>2026-04-26T17:39:09Z</time></trkpt><trkpt lat="43.70650355747021" lon="10.912407556154589"><ele>24.0</ele><time>2026-04-26T17:39:10Z</time></trkpt><trkpt lat="43.70656246749824" lon="10.912492458144408"><ele>24.0</ele><time>2026-04-26T17:39:11Z</time></trkpt><trkpt lat="43.706616379093795" lon="10.91260249470704"><ele>24.0</ele><time>2026-04-26T17:39:12Z</time></trkpt><trkpt lat="43.70666175668615" lon="10.91271222866973"><ele>24.0</ele><time>2026-04-26T17:39:13Z</time></trkpt><trkpt lat="43.706733196242446" lon="10.912808781423049"><ele>24.0</ele><time>2026-04-26T17:39:14Z</time></trkpt><trkpt lat="43.70682639051363" lon="10.912882074652192"><ele>24.0</ele><time>2026-04-26T17:39:15Z</time></trkpt><trkpt lat="43.70692067606719" lon="10.912930345950048"><ele>24.0</ele><time>2026-04-26T17:39:16Z</time></trkpt><trkpt lat="43.707017117313384" lon="10.912964714276713"><ele>24.0</ele><time>2026-04-26T17:39:17Z</time></trkpt><trkpt lat="43.707098549285035" lon="10.912914820376823"><ele>24.0</ele><time>2026-04-26T17:39:18Z</time></trkpt><trkpt lat="43.70719533303294" lon="10.91315584858612"><ele>24.0</ele><time>2026-04-26T17:39:19Z</time></trkpt><trkpt lat="43.70731053522387" lon="10.913291871788791"><ele>24.0</ele><time>2026-04-26T17:39:20Z</time></trkpt><trkpt lat="43.70744751303327" lon="10.913424755179756"><ele>24.0</ele><time>2026-04-26T17:39:21Z</time></trkpt><trkpt lat="43.70759749923177" lon="10.913572686446525"><ele>24.666666666666664</ele><time>2026-04-26T17:39:22Z</time></trkpt><trkpt lat="43.70776083527134" lon="10.913737570945688"><ele>25.333333333333332</ele><time>2026-04-26T17:39:23Z</time></trkpt><trkpt lat="43.70791900240194" lon="10.913897237458158"><ele>26.0</ele><time>2026-04-26T17:39:24Z</time></trkpt><trkpt lat="43.70807874711628" lon="10.91405828317622"><ele>26.0</ele><time>2026-04-26T17:39:25Z</time></trkpt><trkpt lat="43.70823114725126" lon="10.914211906978414"><ele>26.0</ele><time>2026-04-26T17:39:26Z</time></trkpt><trkpt lat="43.70838080938841" lon="10.914362770691733"><ele>26.0</ele><time>2026-04-26T17:39:27Z</time></trkpt><trkpt lat="43.70854853615733" lon="10.914503714404413"><ele>26.0</ele><time>2026-04-26T17:39:28Z</time></trkpt><trkpt lat="43.70869947434827" lon="10.914683993978132"><ele>26.0</ele><time>2026-04-26T17:39:29Z</time></trkpt><trkpt lat="43.7088507998311" lon="10.914836637452126"><ele>26.0</ele><time>2026-04-26T17:39:30Z</time></trkpt><trkpt lat="43.708995150733834" lon="10.91498281555686"><ele>25.666666666666664</ele><time>2026-04-26T17:39:31Z</time></trkpt><trkpt lat="43.709129511996004" lon="10.915118461983534"><ele>25.333333333333336</ele><time>2026-04-26T17:39:32Z</time></trkpt><trkpt lat="43.70925722082029" lon="10.915247867962009"><ele>25.0</ele><time>2026-04-26T17:39:33.001Z</time></trkpt><trkpt lat="43.70940280445934" lon="10.915370745281122"><ele>24.333333333333336</ele><time>2026-04-26T17:39:34.001Z</time></trkpt><trkpt lat="43.70952745926039" lon="10.915519220619354"><ele>23.666666666666668</ele><time>2026-04-26T17:39:35.001Z</time></trkpt><trkpt lat="43.70965075734455" lon="10.91564309965877"><ele>23.0</ele><time>2026-04-26T17:39:36.001Z</time></trkpt><trkpt lat="43.709766256155916" lon="10.915758705914298"><ele>23.0</ele><time>2026-04-26T17:39:37.001Z</time></trkpt><trkpt lat="43.70987885088319" lon="10.9158672572486"><ele>23.0</ele><time>2026-04-26T17:39:38.001Z</time></trkpt><trkpt lat="43.709994811523934" lon="10.915949819499739"><ele>23.0</ele><time>2026-04-26T17:39:39.001Z</time></trkpt><trkpt lat="43.710112253758645" lon="10.916001939647865"><ele>23.0</ele><time>2026-04-26T17:39:40.001Z</time></trkpt><trkpt lat="43.7102217742302" lon="10.916061874365612"><ele>23.0</ele><time>2026-04-26T17:39:41.001Z</time></trkpt><trkpt lat="43.71033181105953" lon="10.91611630934503"><ele>23.0</ele><time>2026-04-26T17:39:42.001Z</time></trkpt><trkpt lat="43.71044551156483" lon="10.916161684338805"><ele>23.0</ele><time>2026-04-26T17:39:43.001Z</time></trkpt><trkpt lat="43.710575118330596" lon="10.91619256897462"><ele>23.0</ele><time>2026-04-26T17:39:44.001Z</time></trkpt><trkpt lat="43.710698960306445" lon="10.916205260806915"><ele>23.0</ele><time>2026-04-26T17:39:45.001Z</time></trkpt><trkpt lat="43.710828398760945" lon="10.916207878162485"><ele>23.0</ele><time>2026-04-26T17:39:46.001Z</time></trkpt><trkpt lat="43.71095814595003" lon="10.916194618395036"><ele>23.0</ele><time>2026-04-26T17:39:47.001Z</time></trkpt><trkpt lat="43.71107768013903" lon="10.916170233536793"><ele>23.0</ele><time>2026-04-26T17:39:48.001Z</time></trkpt><trkpt lat="43.71120111318155" lon="10.91612411278685"><ele>22.75</ele><time>2026-04-26T17:39:49.001Z</time></trkpt><trkpt lat="43.711336636467024" lon="10.916077820754749"><ele>22.5</ele><time>2026-04-26T17:39:50.001Z</time></trkpt><trkpt lat="43.7114790902783" lon="10.916023229856382"><ele>22.25</ele><time>2026-04-26T17:39:51.001Z</time></trkpt><trkpt lat="43.71161235661096" lon="10.9159582390585"><ele>22.0</ele><time>2026-04-26T17:39:52.001Z</time></trkpt><trkpt lat="43.71174283574462" lon="10.915886306743618"><ele>22.0</ele><time>2026-04-26T17:39:53.001Z</time></trkpt><trkpt lat="43.71187205641025" lon="10.915810421668525"><ele>22.0</ele><time>2026-04-26T17:39:54.001Z</time></trkpt><trkpt lat="43.71200563736703" lon="10.915777367796137"><ele>22.0</ele><time>2026-04-26T17:39:55.001Z</time></trkpt><trkpt lat="43.712099895349084" lon="10.91575073713368"><ele>22.0</ele><time>2026-04-26T17:39:56.001Z</time></trkpt><trkpt lat="43.71220964804591" lon="10.915707712097616"><ele>22.5</ele><time>2026-04-26T17:39:57.001Z</time></trkpt><trkpt lat="43.71233815617846" lon="10.915726375614375"><ele>23.0</ele><time>2026-04-26T17:39:58.001Z</time></trkpt><trkpt lat="43.712470975445484" lon="10.915728188186922"><ele>23.5</ele><time>2026-04-26T17:39:59.001Z</time></trkpt><trkpt lat="43.712599893571046" lon="10.915758279191047"><ele>24.0</ele><time>2026-04-26T17:40:00.001Z</time></trkpt><trkpt lat="43.7127259815537" lon="10.915810318593957"><ele>23.75</ele><time>2026-04-26T17:40:01.001Z</time></trkpt><trkpt lat="43.71285104540459" lon="10.915864643839553"><ele>23.5</ele><time>2026-04-26T17:40:02.001Z</time></trkpt><trkpt lat="43.71297733142627" lon="10.915940266963235"><ele>23.25</ele><time>2026-04-26T17:40:03.001Z</time></trkpt><trkpt lat="43.71310850990319" lon="10.916036529449306"><ele>23.0</ele><time>2026-04-26T17:40:04.001Z</time></trkpt><trkpt lat="43.7132422130569" lon="10.916166820621442"><ele>23.0</ele><time>2026-04-26T17:40:05.001Z</time></trkpt><trkpt lat="43.713387482758314" lon="10.91630583861141"><ele>23.0</ele><time>2026-04-26T17:40:06.001Z</time></trkpt><trkpt lat="43.7135446366129" lon="10.916462652703665"><ele>23.0</ele><time>2026-04-26T17:40:07.001Z</time></trkpt><trkpt lat="43.71371920046894" lon="10.91663934156903"><ele>23.0</ele><time>2026-04-26T17:40:08.001Z</time></trkpt><trkpt lat="43.713901163394254" lon="10.916823993943135"><ele>23.0</ele><time>2026-04-26T17:40:09.001Z</time></trkpt><trkpt lat="43.71406217698845" lon="10.916987592917994"><ele>23.0</ele><time>2026-04-26T17:40:10.001Z</time></trkpt><trkpt lat="43.71421024004511" lon="10.917139381342825"><ele>23.0</ele><time>2026-04-26T17:40:11.001Z</time></trkpt><trkpt lat="43.714349446634294" lon="10.917283322674905"><ele>23.0</ele><time>2026-04-26T17:40:12.001Z</time></trkpt><trkpt lat="43.71447670269818" lon="10.917418589496494"><ele>23.0</ele><time>2026-04-26T17:40:13.001Z</time></trkpt><trkpt lat="43.71459897153991" lon="10.917560609346028"><ele>23.0</ele><time>2026-04-26T17:40:14.001Z</time></trkpt><trkpt lat="43.71470916494142" lon="10.917709248787698"><ele>23.0</ele><time>2026-04-26T17:40:15.001Z</time></trkpt><trkpt lat="43.71481085118946" lon="10.917877196651048"><ele>23.0</ele><time>2026-04-26T17:40:16.001Z</time></trkpt><trkpt lat="43.714899042867245" lon="10.91806056149637"><ele>23.0</ele><time>2026-04-26T17:40:17.001Z</time></trkpt><trkpt lat="43.71496318145601" lon="10.918245006159449"><ele>23.0</ele><time>2026-04-26T17:40:18.001Z</time></trkpt><trkpt lat="43.71501410603175" lon="10.918427146927653"><ele>23.0</ele><time>2026-04-26T17:40:19.001Z</time></trkpt><trkpt lat="43.715046872136845" lon="10.918604002114236"><ele>23.0</ele><time>2026-04-26T17:40:20.001Z</time></trkpt><trkpt lat="43.71506447049737" lon="10.918784285806874"><ele>23.0</ele><time>2026-04-26T17:40:21.001Z</time></trkpt><trkpt lat="43.715073001429516" lon="10.918968700903758"><ele>23.0</ele><time>2026-04-26T17:40:22.001Z</time></trkpt><trkpt lat="43.71506660252549" lon="10.919147172056938"><ele>23.0</ele><time>2026-04-26T17:40:23.001Z</time></trkpt><trkpt lat="43.71504674283146" lon="10.919348722725713"><ele>23.0</ele><time>2026-04-26T17:40:24.001Z</time></trkpt><trkpt lat="43.715003444480374" lon="10.919548351631848"><ele>23.0</ele><time>2026-04-26T17:40:25.001Z</time></trkpt><trkpt lat="43.71496994517846" lon="10.919725281885233"><ele>23.0</ele><time>2026-04-26T17:40:26.001Z</time></trkpt><trkpt lat="43.714908445093535" lon="10.919878351638854"><ele>23.0</ele><time>2026-04-26T17:40:27.001Z</time></trkpt><trkpt lat="43.714843977575036" lon="10.92001738764753"><ele>23.0</ele><time>2026-04-26T17:40:28.001Z</time></trkpt><trkpt lat="43.714782073250156" lon="10.920139033730742"><ele>23.166666666666668</ele><time>2026-04-26T17:40:29.001Z</time></trkpt><trkpt lat="43.71472358186941" lon="10.92023630822005"><ele>23.333333333333336</ele><time>2026-04-26T17:40:30.001Z</time></trkpt><trkpt lat="43.714664187204924" lon="10.920296638796563"><ele>23.5</ele><time>2026-04-26T17:40:31.001Z</time></trkpt><trkpt lat="43.71460433950865" lon="10.920356139142614"><ele>23.666666666666668</ele><time>2026-04-26T17:40:32.001Z</time></trkpt><trkpt lat="43.71449061994708" lon="10.920371143229533"><ele>23.833333333333332</ele><time>2026-04-26T17:40:33.001Z</time></trkpt><trkpt lat="43.7144046903788" lon="10.920420011426524"><ele>24.0</ele><time>2026-04-26T17:40:34.001Z</time></trkpt><trkpt lat="43.71433909309472" lon="10.920486935584726"><ele>23.999999999999996</ele><time>2026-04-26T17:40:35.001Z</time></trkpt><trkpt lat="43.71429719356031" lon="10.920576103587702"><ele>24.0</ele><time>2026-04-26T17:40:36.001Z</time></trkpt><trkpt lat="43.714277154056155" lon="10.920680453947002"><ele>24.0</ele><time>2026-04-26T17:40:37.001Z</time></trkpt><trkpt lat="43.714274721802376" lon="10.920772878400888"><ele>24.0</ele><time>2026-04-26T17:40:38.001Z</time></trkpt><trkpt lat="43.714297494707125" lon="10.92086191245509"><ele>24.0</ele><time>2026-04-26T17:40:39.001Z</time></trkpt><trkpt lat="43.714340016101296" lon="10.920938145605088"><ele>23.999999999999996</ele><time>2026-04-26T17:40:40.001Z</time></trkpt><trkpt lat="43.71439653899055" lon="10.920999155347925"><ele>24.0</ele><time>2026-04-26T17:40:41.001Z</time></trkpt><trkpt lat="43.71445592032934" lon="10.921039625519917"><ele>24.0</ele><time>2026-04-26T17:40:42.001Z</time></trkpt><trkpt lat="43.71450719488039" lon="10.921096601195675"><ele>24.0</ele><time>2026-04-26T17:40:43.001Z</time></trkpt><trkpt lat="43.71466431285799" lon="10.921036807701148"><ele>24.0</ele><time>2026-04-26T17:40:45.001Z</time></trkpt><trkpt lat="43.71474464962264" lon="10.921009092674403"><ele>24.0</ele><time>2026-04-26T17:40:46.001Z</time></trkpt><trkpt lat="43.71482766890455" lon="10.92099200882059"><ele>24.0</ele><time>2026-04-26T17:40:47.001Z</time></trkpt><trkpt lat="43.714908226116094" lon="10.920997063179708"><ele>24.0</ele><time>2026-04-26T17:40:48.001Z</time></trkpt><trkpt lat="43.714989804756144" lon="10.921022334593431"><ele>24.0</ele><time>2026-04-26T17:40:49.002Z</time></trkpt><trkpt lat="43.71507281692923" lon="10.921067150258136"><ele>24.0</ele><time>2026-04-26T17:40:50.002Z</time></trkpt><trkpt lat="43.715147631687955" lon="10.921125637519252"><ele>24.0</ele><time>2026-04-26T17:40:51.002Z</time></trkpt><trkpt lat="43.71523236194682" lon="10.921202605451851"><ele>24.0</ele><time>2026-04-26T17:40:52.002Z</time></trkpt><trkpt lat="43.71529209529231" lon="10.921299907948812"><ele>24.2</ele><time>2026-04-26T17:40:53.002Z</time></trkpt><trkpt lat="43.71537547878583" lon="10.921343214206251"><ele>24.4</ele><time>2026-04-26T17:40:54.002Z</time></trkpt><trkpt lat="43.71546000947908" lon="10.921423559466188"><ele>24.6</ele><time>2026-04-26T17:40:55.002Z</time></trkpt><trkpt lat="43.715538696736715" lon="10.921497849299724"><ele>24.8</ele><time>2026-04-26T17:40:56.002Z</time></trkpt><trkpt lat="43.71560863631631" lon="10.921569739574467"><ele>25.0</ele><time>2026-04-26T17:40:57.002Z</time></trkpt><trkpt lat="43.715672178683874" lon="10.92163663673465"><ele>25.0</ele><time>2026-04-26T17:40:58.002Z</time></trkpt><trkpt lat="43.71572877549263" lon="10.921703230546091"><ele>25.0</ele><time>2026-04-26T17:40:59.002Z</time></trkpt><trkpt lat="43.71580340932632" lon="10.921826369380879"><ele>25.0</ele><time>2026-04-26T17:41:01Z</time></trkpt><trkpt lat="43.715840711048116" lon="10.921908874288082"><ele>25.0</ele><time>2026-04-26T17:41:02Z</time></trkpt><trkpt lat="43.71590169781808" lon="10.92201044809616"><ele>25.0</ele><time>2026-04-26T17:41:03Z</time></trkpt><trkpt lat="43.715990721485525" lon="10.922094519309887"><ele>24.25</ele><time>2026-04-26T17:41:04Z</time></trkpt><trkpt lat="43.71610483834289" lon="10.922154969659243"><ele>23.5</ele><time>2026-04-26T17:41:05Z</time></trkpt><trkpt lat="43.71622669104624" lon="10.922215713928288"><ele>22.75</ele><time>2026-04-26T17:41:06Z</time></trkpt><trkpt lat="43.71633959658532" lon="10.922314423368924"><ele>22.0</ele><time>2026-04-26T17:41:07Z</time></trkpt><trkpt lat="43.716482880434064" lon="10.922440541022171"><ele>22.333333333333332</ele><time>2026-04-26T17:41:08Z</time></trkpt><trkpt lat="43.71664702673584" lon="10.922568497036659"><ele>22.666666666666668</ele><time>2026-04-26T17:41:09Z</time></trkpt><trkpt lat="43.71681365166148" lon="10.922680381745433"><ele>23.0</ele><time>2026-04-26T17:41:10Z</time></trkpt><trkpt lat="43.71696293617265" lon="10.922775028658101"><ele>23.25</ele><time>2026-04-26T17:41:11Z</time></trkpt><trkpt lat="43.71709746743396" lon="10.922848896576026"><ele>23.5</ele><time>2026-04-26T17:41:12Z</time></trkpt><trkpt lat="43.71720630783076" lon="10.922908280477328"><ele>23.75</ele><time>2026-04-26T17:41:13Z</time></trkpt><trkpt lat="43.717300203134535" lon="10.922977059690702"><ele>24.0</ele><time>2026-04-26T17:41:14Z</time></trkpt><trkpt lat="43.717398334931715" lon="10.923089174956852"><ele>24.0</ele><time>2026-04-26T17:41:15Z</time></trkpt><trkpt lat="43.71748145281245" lon="10.923231714688434"><ele>24.0</ele><time>2026-04-26T17:41:16Z</time></trkpt><trkpt lat="43.717577060946994" lon="10.923306350412972"><ele>24.0</ele><time>2026-04-26T17:41:17Z</time></trkpt><trkpt lat="43.7176040702234" lon="10.923562614392443"><ele>24.0</ele><time>2026-04-26T17:41:18Z</time></trkpt><trkpt lat="43.71765087520338" lon="10.923748769887125"><ele>24.333333333333336</ele><time>2026-04-26T17:41:19Z</time></trkpt><trkpt lat="43.71770108421851" lon="10.923938636723204"><ele>24.666666666666668</ele><time>2026-04-26T17:41:20Z</time></trkpt><trkpt lat="43.71775107195104" lon="10.924147945471653"><ele>25.0</ele><time>2026-04-26T17:41:21Z</time></trkpt><trkpt lat="43.71779901035528" lon="10.92433997294827"><ele>25.0</ele><time>2026-04-26T17:41:22Z</time></trkpt><trkpt lat="43.71785939141226" lon="10.9245118666452"><ele>25.0</ele><time>2026-04-26T17:41:23Z</time></trkpt><trkpt lat="43.71793585092257" lon="10.924681026536604"><ele>25.0</ele><time>2026-04-26T17:41:24Z</time></trkpt><trkpt lat="43.718011142677284" lon="10.924845905176923"><ele>25.0</ele><time>2026-04-26T17:41:25Z</time></trkpt><trkpt lat="43.71807536313719" lon="10.925001872686703"><ele>25.0</ele><time>2026-04-26T17:41:26Z</time></trkpt><trkpt lat="43.718124365419" lon="10.925157683356773"><ele>25.0</ele><time>2026-04-26T17:41:27Z</time></trkpt><trkpt lat="43.71816887494931" lon="10.925307551304106"><ele>25.0</ele><time>2026-04-26T17:41:28Z</time></trkpt><trkpt lat="43.71821053010033" lon="10.925448893523525"><ele>25.0</ele><time>2026-04-26T17:41:29Z</time></trkpt><trkpt lat="43.718247295309894" lon="10.925582556127612"><ele>25.0</ele><time>2026-04-26T17:41:30Z</time></trkpt><trkpt lat="43.71827810699321" lon="10.9257133711285"><ele>25.0</ele><time>2026-04-26T17:41:31Z</time></trkpt><trkpt lat="43.71830753511184" lon="10.925810320667647"><ele>25.0</ele><time>2026-04-26T17:41:32Z</time></trkpt><trkpt lat="43.71837309402102" lon="10.925987685123687"><ele>25.0</ele><time>2026-04-26T17:41:34Z</time></trkpt><trkpt lat="43.71842119639002" lon="10.926126903952774"><ele>25.0</ele><time>2026-04-26T17:41:35Z</time></trkpt><trkpt lat="43.71847180574955" lon="10.926266679164824"><ele>25.000000000000004</ele><time>2026-04-26T17:41:36Z</time></trkpt><trkpt lat="43.71850962403115" lon="10.926391129723793"><ele>25.0</ele><time>2026-04-26T17:41:37Z</time></trkpt><trkpt lat="43.718546439378386" lon="10.926507473682204"><ele>25.0</ele><time>2026-04-26T17:41:38Z</time></trkpt><trkpt lat="43.71859656476251" lon="10.926610122727558"><ele>25.0</ele><time>2026-04-26T17:41:39Z</time></trkpt><trkpt lat="43.718630940644864" lon="10.926712334188492"><ele>25.000000000000004</ele><time>2026-04-26T17:41:40Z</time></trkpt><trkpt lat="43.71865583790965" lon="10.926802367096544"><ele>25.0</ele><time>2026-04-26T17:41:41Z</time></trkpt><trkpt lat="43.71870542724132" lon="10.92695985934911"><ele>25.0</ele><time>2026-04-26T17:41:43Z</time></trkpt><trkpt lat="43.71874510394567" lon="10.927060258071087"><ele>25.0</ele><time>2026-04-26T17:41:44Z</time></trkpt><trkpt lat="43.71880516390171" lon="10.927183793920996"><ele>25.0</ele><time>2026-04-26T17:41:45Z</time></trkpt><trkpt lat="43.7188726627599" lon="10.927346832795651"><ele>25.0</ele><time>2026-04-26T17:41:46Z</time></trkpt><trkpt lat="43.71893766885751" lon="10.927525003083094"><ele>25.0</ele><time>2026-04-26T17:41:47Z</time></trkpt><trkpt lat="43.718994309543525" lon="10.927708523046988"><ele>25.0</ele><time>2026-04-26T17:41:48Z</time></trkpt><trkpt lat="43.719069081014226" lon="10.927902683775407"><ele>25.0</ele><time>2026-04-26T17:41:49Z</time></trkpt><trkpt lat="43.71914626547235" lon="10.928092735797387"><ele>25.0</ele><time>2026-04-26T17:41:50Z</time></trkpt><trkpt lat="43.719216645083556" lon="10.928263426392899"><ele>25.0</ele><time>2026-04-26T17:41:51Z</time></trkpt><trkpt lat="43.71928238485222" lon="10.928422528131605"><ele>25.0</ele><time>2026-04-26T17:41:52Z</time></trkpt><trkpt lat="43.719340362285436" lon="10.928575209284626"><ele>25.0</ele><time>2026-04-26T17:41:53Z</time></trkpt><trkpt lat="43.719395325939566" lon="10.92871841841457"><ele>24.8</ele><time>2026-04-26T17:41:54Z</time></trkpt><trkpt lat="43.7194479287295" lon="10.928855232477446"><ele>24.6</ele><time>2026-04-26T17:41:55Z</time></trkpt><trkpt lat="43.71950063745712" lon="10.92897975033427"><ele>24.4</ele><time>2026-04-26T17:41:56.001Z</time></trkpt><trkpt lat="43.71955135201984" lon="10.929078348350965"><ele>24.2</ele><time>2026-04-26T17:41:57.001Z</time></trkpt><trkpt lat="43.71960659143612" lon="10.92922022202469"><ele>24.0</ele><time>2026-04-26T17:41:58.001Z</time></trkpt><trkpt lat="43.71966794135101" lon="10.929378060498667"><ele>24.0</ele><time>2026-04-26T17:41:59.001Z</time></trkpt><trkpt lat="43.71973325285362" lon="10.929542188777969"><ele>24.0</ele><time>2026-04-26T17:42:00.001Z</time></trkpt><trkpt lat="43.71979403351593" lon="10.929705230307047"><ele>24.0</ele><time>2026-04-26T17:42:01.001Z</time></trkpt><trkpt lat="43.719848162004254" lon="10.929864872845759"><ele>24.0</ele><time>2026-04-26T17:42:02.001Z</time></trkpt><trkpt lat="43.719898096236555" lon="10.930017009069017"><ele>24.25</ele><time>2026-04-26T17:42:03.001Z</time></trkpt><trkpt lat="43.71994386606189" lon="10.930163029713082"><ele>24.5</ele><time>2026-04-26T17:42:04.001Z</time></trkpt><trkpt lat="43.719977274600076" lon="10.930328587074635"><ele>24.75</ele><time>2026-04-26T17:42:05.001Z</time></trkpt><trkpt lat="43.72001790532995" lon="10.930506871541516"><ele>25.0</ele><time>2026-04-26T17:42:06.001Z</time></trkpt><trkpt lat="43.720050240960354" lon="10.930706189391225"><ele>25.0</ele><time>2026-04-26T17:42:07.001Z</time></trkpt><trkpt lat="43.72007734464902" lon="10.930879172910346"><ele>25.0</ele><time>2026-04-26T17:42:08.001Z</time></trkpt><trkpt lat="43.72009767887" lon="10.931058951361425"><ele>25.0</ele><time>2026-04-26T17:42:09.001Z</time></trkpt><trkpt lat="43.72011386722243" lon="10.931257988270882"><ele>25.0</ele><time>2026-04-26T17:42:10.001Z</time></trkpt><trkpt lat="43.720119288539536" lon="10.931445223275972"><ele>25.0</ele><time>2026-04-26T17:42:11.001Z</time></trkpt><trkpt lat="43.72009944298684" lon="10.931636297119207"><ele>25.0</ele><time>2026-04-26T17:42:12.001Z</time></trkpt><trkpt lat="43.72009146210411" lon="10.931815694705444"><ele>25.0</ele><time>2026-04-26T17:42:13.001Z</time></trkpt><trkpt lat="43.7200819438045" lon="10.932010520682836"><ele>25.0</ele><time>2026-04-26T17:42:14.001Z</time></trkpt><trkpt lat="43.720073453668185" lon="10.932216043404694"><ele>25.25</ele><time>2026-04-26T17:42:15.001Z</time></trkpt><trkpt lat="43.72006593388945" lon="10.93240125782143"><ele>25.5</ele><time>2026-04-26T17:42:16.001Z</time></trkpt><trkpt lat="43.72005914520166" lon="10.93259327692109"><ele>25.75</ele><time>2026-04-26T17:42:17.001Z</time></trkpt><trkpt lat="43.72005078781903" lon="10.932806900671716"><ele>26.0</ele><time>2026-04-26T17:42:18.001Z</time></trkpt><trkpt lat="43.720042093155065" lon="10.933028083041211"><ele>26.333333333333332</ele><time>2026-04-26T17:42:19.001Z</time></trkpt><trkpt lat="43.72003292169413" lon="10.933261394674592"><ele>26.666666666666664</ele><time>2026-04-26T17:42:20.001Z</time></trkpt><trkpt lat="43.720022875889896" lon="10.933516948679335"><ele>27.0</ele><time>2026-04-26T17:42:21.001Z</time></trkpt><trkpt lat="43.72001304457196" lon="10.93375633560865"><ele>27.0</ele><time>2026-04-26T17:42:22.001Z</time></trkpt><trkpt lat="43.7200036527508" lon="10.933985123098296"><ele>27.0</ele><time>2026-04-26T17:42:23.001Z</time></trkpt><trkpt lat="43.719995099837604" lon="10.934193474882543"><ele>27.0</ele><time>2026-04-26T17:42:24.001Z</time></trkpt><trkpt lat="43.71998710595412" lon="10.934390816251513"><ele>26.75</ele><time>2026-04-26T17:42:25.001Z</time></trkpt><trkpt lat="43.7199790427686" lon="10.934589663922806"><ele>26.5</ele><time>2026-04-26T17:42:26.001Z</time></trkpt><trkpt lat="43.71997163592823" lon="10.934772325018745"><ele>26.25</ele><time>2026-04-26T17:42:27.001Z</time></trkpt><trkpt lat="43.71996696299166" lon="10.934942949757614"><ele>26.0</ele><time>2026-04-26T17:42:28.001Z</time></trkpt><trkpt lat="43.71996318176844" lon="10.935081630259788"><ele>26.0</ele><time>2026-04-26T17:42:29.001Z</time></trkpt><trkpt lat="43.71996014942661" lon="10.935192781033775"><ele>26.0</ele><time>2026-04-26T17:42:30.001Z</time></trkpt><trkpt lat="43.71995675124988" lon="10.935317342223295"><ele>26.0</ele><time>2026-04-26T17:42:31.001Z</time></trkpt><trkpt lat="43.71995313097158" lon="10.93545004399141"><ele>26.0</ele><time>2026-04-26T17:42:32.001Z</time></trkpt><trkpt lat="43.71994631126719" lon="10.935608458844351"><ele>26.0</ele><time>2026-04-26T17:42:33.001Z</time></trkpt><trkpt lat="43.71993947114661" lon="10.935767842367916"><ele>26.0</ele><time>2026-04-26T17:42:34.001Z</time></trkpt><trkpt lat="43.719979883992316" lon="10.935933248072589"><ele>26.0</ele><time>2026-04-26T17:42:35.001Z</time></trkpt><trkpt lat="43.72002669390973" lon="10.936061612364382"><ele>26.0</ele><time>2026-04-26T17:42:36.001Z</time></trkpt><trkpt lat="43.72008544046044" lon="10.936222960041702"><ele>26.0</ele><time>2026-04-26T17:42:37.001Z</time></trkpt><trkpt lat="43.72015185819982" lon="10.936383554521058"><ele>26.25</ele><time>2026-04-26T17:42:38.001Z</time></trkpt><trkpt lat="43.72023487151074" lon="10.936531212392318"><ele>26.5</ele><time>2026-04-26T17:42:39.001Z</time></trkpt><trkpt lat="43.720320133681355" lon="10.93665557305458"><ele>26.75</ele><time>2026-04-26T17:42:40.001Z</time></trkpt><trkpt lat="43.72041892242856" lon="10.936770194899832"><ele>27.0</ele><time>2026-04-26T17:42:41.001Z</time></trkpt><trkpt lat="43.720527383948316" lon="10.936863764333095"><ele>27.333333333333336</ele><time>2026-04-26T17:42:42.001Z</time></trkpt><trkpt lat="43.72065600991331" lon="10.936945052228094"><ele>27.666666666666668</ele><time>2026-04-26T17:42:43.001Z</time></trkpt><trkpt lat="43.720838111377525" lon="10.937010722688177"><ele>28.0</ele><time>2026-04-26T17:42:44.001Z</time></trkpt><trkpt lat="43.72101560489096" lon="10.937066568297517"><ele>27.666666666666668</ele><time>2026-04-26T17:42:45.001Z</time></trkpt><trkpt lat="43.72119291701504" lon="10.937121586893548"><ele>27.333333333333336</ele><time>2026-04-26T17:42:46.001Z</time></trkpt><trkpt lat="43.721351066195936" lon="10.937185442929419"><ele>27.0</ele><time>2026-04-26T17:42:47.001Z</time></trkpt><trkpt lat="43.72150040788635" lon="10.93725595567022"><ele>27.0</ele><time>2026-04-26T17:42:48.001Z</time></trkpt><trkpt lat="43.72162736236079" lon="10.937376528463624"><ele>27.0</ele><time>2026-04-26T17:42:49.001Z</time></trkpt><trkpt lat="43.72173185706793" lon="10.937519486487576"><ele>27.0</ele><time>2026-04-26T17:42:50.001Z</time></trkpt><trkpt lat="43.721818063945015" lon="10.937677055511871"><ele>27.0</ele><time>2026-04-26T17:42:51.001Z</time></trkpt><trkpt lat="43.72188380220613" lon="10.937834944322168"><ele>26.0</ele><time>2026-04-26T17:42:52.001Z</time></trkpt><trkpt lat="43.72192705319529" lon="10.937997321083273"><ele>25.0</ele><time>2026-04-26T17:42:53.001Z</time></trkpt><trkpt lat="43.721955799834696" lon="10.938171276540837"><ele>24.0</ele><time>2026-04-26T17:42:54.001Z</time></trkpt><trkpt lat="43.72196562908718" lon="10.938364733757663"><ele>23.0</ele><time>2026-04-26T17:42:55.001Z</time></trkpt><trkpt lat="43.72194149206602" lon="10.938507498111033"><ele>22.0</ele><time>2026-04-26T17:42:56.001Z</time></trkpt><trkpt lat="43.72191565919396" lon="10.938720644871665"><ele>21.0</ele><time>2026-04-26T17:42:57.001Z</time></trkpt><trkpt lat="43.721887509649115" lon="10.93893072092419"><ele>20.0</ele><time>2026-04-26T17:42:58.001Z</time></trkpt><trkpt lat="43.72185048460494" lon="10.93914064105858"><ele>21.666666666666668</ele><time>2026-04-26T17:42:59.001Z</time></trkpt><trkpt lat="43.721809587420765" lon="10.9393644206771"><ele>23.333333333333336</ele><time>2026-04-26T17:43:00.001Z</time></trkpt><trkpt lat="43.72175459055404" lon="10.939595844619609"><ele>25.0</ele><time>2026-04-26T17:43:01.001Z</time></trkpt><trkpt lat="43.721696680860596" lon="10.939793655164943"><ele>25.0</ele><time>2026-04-26T17:43:02.001Z</time></trkpt><trkpt lat="43.72164110236538" lon="10.939988089489642"><ele>25.0</ele><time>2026-04-26T17:43:03.001Z</time></trkpt><trkpt lat="43.72159834649288" lon="10.940175953489794"><ele>25.0</ele><time>2026-04-26T17:43:04.001Z</time></trkpt><trkpt lat="43.72157037625242" lon="10.940351607314941"><ele>25.0</ele><time>2026-04-26T17:43:05.001Z</time></trkpt><trkpt lat="43.72157161508992" lon="10.940531715810112"><ele>24.666666666666668</ele><time>2026-04-26T17:43:06.002Z</time></trkpt><trkpt lat="43.72159780601048" lon="10.94074182222954"><ele>24.333333333333336</ele><time>2026-04-26T17:43:07Z</time></trkpt><trkpt lat="43.72164651342323" lon="10.940945791615448"><ele>24.0</ele><time>2026-04-26T17:43:08Z</time></trkpt><trkpt lat="43.72170177794877" lon="10.941167203116002"><ele>24.666666666666664</ele><time>2026-04-26T17:43:09Z</time></trkpt><trkpt lat="43.72174632623735" lon="10.941374671383828"><ele>25.333333333333332</ele><time>2026-04-26T17:43:10Z</time></trkpt><trkpt lat="43.721807321922846" lon="10.941616539613285"><ele>26.0</ele><time>2026-04-26T17:43:11Z</time></trkpt><trkpt lat="43.72186368567873" lon="10.941876647995578"><ele>25.0</ele><time>2026-04-26T17:43:12Z</time></trkpt><trkpt lat="43.72191418464018" lon="10.942098329758887"><ele>24.0</ele><time>2026-04-26T17:43:13Z</time></trkpt><trkpt lat="43.72196257647869" lon="10.942308860010671"><ele>23.0</ele><time>2026-04-26T17:43:14Z</time></trkpt><trkpt lat="43.722001795361024" lon="10.942515309637228"><ele>23.5</ele><time>2026-04-26T17:43:15Z</time></trkpt><trkpt lat="43.72202237816943" lon="10.94270291877109"><ele>24.0</ele><time>2026-04-26T17:43:16Z</time></trkpt><trkpt lat="43.72203895365489" lon="10.942887408721452"><ele>24.5</ele><time>2026-04-26T17:43:17Z</time></trkpt><trkpt lat="43.72203888306996" lon="10.94306013004259"><ele>25.0</ele><time>2026-04-26T17:43:18Z</time></trkpt><trkpt lat="43.72204312274399" lon="10.943180761413375"><ele>25.0</ele><time>2026-04-26T17:43:19Z</time></trkpt><trkpt lat="43.72203198713942" lon="10.943282451078435"><ele>25.0</ele><time>2026-04-26T17:43:20Z</time></trkpt><trkpt lat="43.72192862475827" lon="10.943424459199768"><ele>25.0</ele><time>2026-04-26T17:43:22Z</time></trkpt><trkpt lat="43.721845754502006" lon="10.943427892609117"><ele>25.0</ele><time>2026-04-26T17:43:23Z</time></trkpt><trkpt lat="43.721747911249686" lon="10.943440874739805"><ele>25.0</ele><time>2026-04-26T17:43:24Z</time></trkpt><trkpt lat="43.72162072472431" lon="10.94346265703616"><ele>26.0</ele><time>2026-04-26T17:43:25Z</time></trkpt><trkpt lat="43.721481940273115" lon="10.943488445942368"><ele>27.0</ele><time>2026-04-26T17:43:26Z</time></trkpt><trkpt lat="43.721359615974016" lon="10.943506424475531"><ele>28.0</ele><time>2026-04-26T17:43:27Z</time></trkpt><trkpt lat="43.721261324778155" lon="10.943531923889408"><ele>29.0</ele><time>2026-04-26T17:43:28Z</time></trkpt><trkpt lat="43.72117368618697" lon="10.943666186453125"><ele>28.999999999999996</ele><time>2026-04-26T17:43:30Z</time></trkpt><trkpt lat="43.721160774284556" lon="10.943781629607125"><ele>29.0</ele><time>2026-04-26T17:43:31Z</time></trkpt><trkpt lat="43.72116266232558" lon="10.943911719521884"><ele>29.0</ele><time>2026-04-26T17:43:32Z</time></trkpt><trkpt lat="43.721171851030746" lon="10.944024473373451"><ele>29.0</ele><time>2026-04-26T17:43:33Z</time></trkpt><trkpt lat="43.721171400532256" lon="10.944127439979727"><ele>28.999999999999996</ele><time>2026-04-26T17:43:34Z</time></trkpt><trkpt lat="43.72118224096295" lon="10.944214230382794"><ele>29.0</ele><time>2026-04-26T17:43:35Z</time></trkpt><trkpt lat="43.72118653400833" lon="10.94431317707361"><ele>29.2</ele><time>2026-04-26T17:43:36Z</time></trkpt><trkpt lat="43.72118287960585" lon="10.944422936361082"><ele>29.4</ele><time>2026-04-26T17:43:37Z</time></trkpt><trkpt lat="43.72118589232419" lon="10.944546355660412"><ele>29.6</ele><time>2026-04-26T17:43:38Z</time></trkpt><trkpt lat="43.72118971166252" lon="10.94469523200651"><ele>29.8</ele><time>2026-04-26T17:43:39Z</time></trkpt><trkpt lat="43.721198717611905" lon="10.944867206666943"><ele>30.0</ele><time>2026-04-26T17:43:40Z</time></trkpt><trkpt lat="43.72120928366474" lon="10.945063501577716"><ele>30.0</ele><time>2026-04-26T17:43:41Z</time></trkpt><trkpt lat="43.721213843591336" lon="10.945242630272492"><ele>30.0</ele><time>2026-04-26T17:43:42Z</time></trkpt><trkpt lat="43.72121924716739" lon="10.945398082110431"><ele>30.0</ele><time>2026-04-26T17:43:43Z</time></trkpt><trkpt lat="43.721210458990065" lon="10.945536204174092"><ele>30.0</ele><time>2026-04-26T17:43:44Z</time></trkpt><trkpt lat="43.72121128156139" lon="10.945635032739464"><ele>30.0</ele><time>2026-04-26T17:43:45Z</time></trkpt><trkpt lat="43.72122560292323" lon="10.945751835720062"><ele>30.0</ele><time>2026-04-26T17:43:47Z</time></trkpt><trkpt lat="43.72143070096436" lon="10.945756975156677"><ele>30.0</ele><time>2026-04-26T17:43:48Z</time></trkpt><trkpt lat="43.72152767646163" lon="10.94574110149984"><ele>30.0</ele><time>2026-04-26T17:43:49Z</time></trkpt><trkpt lat="43.72161823310791" lon="10.945723444305589"><ele>30.0</ele><time>2026-04-26T17:43:50Z</time></trkpt><trkpt lat="43.721693448842814" lon="10.945717050345523"><ele>30.0</ele><time>2026-04-26T17:43:51Z</time></trkpt><trkpt lat="43.72176394748865" lon="10.945731100384133"><ele>30.0</ele><time>2026-04-26T17:43:53Z</time></trkpt><trkpt lat="43.721757645608726" lon="10.945920566280284"><ele>30.0</ele><time>2026-04-26T17:43:54Z</time></trkpt><trkpt lat="43.72177202800591" lon="10.946039424554915"><ele>30.0</ele><time>2026-04-26T17:43:55Z</time></trkpt><trkpt lat="43.721775341624834" lon="10.946170979426773"><ele>30.0</ele><time>2026-04-26T17:43:56Z</time></trkpt><trkpt lat="43.7217825871515" lon="10.94628010614814"><ele>30.0</ele><time>2026-04-26T17:43:57Z</time></trkpt><trkpt lat="43.72178912672057" lon="10.946384700634791"><ele>30.0</ele><time>2026-04-26T17:43:58.001Z</time></trkpt><trkpt lat="43.721803390472665" lon="10.946474930527327"><ele>30.0</ele><time>2026-04-26T17:43:59.001Z</time></trkpt><trkpt lat="43.721805283578334" lon="10.946565925773756"><ele>30.0</ele><time>2026-04-26T17:44:00.001Z</time></trkpt><trkpt lat="43.721851477302174" lon="10.946633607327582"><ele>30.0</ele><time>2026-04-26T17:44:01.001Z</time></trkpt><trkpt lat="43.721909894796816" lon="10.946768112220575"><ele>30.0</ele><time>2026-04-26T17:44:03.001Z</time></trkpt><trkpt lat="43.72197470031393" lon="10.946874961755531"><ele>30.0</ele><time>2026-04-26T17:44:05.001Z</time></trkpt><trkpt lat="43.72203184983674" lon="10.946979964356608"><ele>30.0</ele><time>2026-04-26T17:44:07.001Z</time></trkpt><trkpt lat="43.72208536960417" lon="10.947083933851419"><ele>30.0</ele><time>2026-04-26T17:44:09.001Z</time></trkpt><trkpt lat="43.72215877136442" lon="10.94719289162817"><ele>30.0</ele><time>2026-04-26T17:44:11.001Z</time></trkpt><trkpt lat="43.72221715718226" lon="10.947310803824335"><ele>30.0</ele><time>2026-04-26T17:44:13.001Z</time></trkpt><trkpt lat="43.72228285104239" lon="10.947402412801766"><ele>30.0</ele><time>2026-04-26T17:44:15.001Z</time></trkpt><trkpt lat="43.722339463739914" lon="10.94748377919233"><ele>30.0</ele><time>2026-04-26T17:44:17.001Z</time></trkpt><trkpt lat="43.72240425104081" lon="10.947540154628847"><ele>30.0</ele><time>2026-04-26T17:44:19.001Z</time></trkpt><trkpt lat="43.72242854798493" lon="10.9476704715263"><ele>30.0</ele><time>2026-04-26T17:44:21.001Z</time></trkpt><trkpt lat="43.72240889709124" lon="10.947771559441241"><ele>30.0</ele><time>2026-04-26T17:44:22.001Z</time></trkpt><trkpt lat="43.72236372198843" lon="10.94787661270531"><ele>30.0</ele><time>2026-04-26T17:44:23.001Z</time></trkpt><trkpt lat="43.722287303422725" lon="10.947972936199909"><ele>30.0</ele><time>2026-04-26T17:44:24.001Z</time></trkpt><trkpt lat="43.72219855304295" lon="10.94807148190279"><ele>30.0</ele><time>2026-04-26T17:44:25.001Z</time></trkpt><trkpt lat="43.72210087037223" lon="10.94817993474254"><ele>30.0</ele><time>2026-04-26T17:44:26.001Z</time></trkpt><trkpt lat="43.72201276946434" lon="10.948272090743679"><ele>30.0</ele><time>2026-04-26T17:44:27.001Z</time></trkpt><trkpt lat="43.721934807195815" lon="10.948354149929965"><ele>30.0</ele><time>2026-04-26T17:44:28.001Z</time></trkpt><trkpt lat="43.72187311661025" lon="10.948424573465363"><ele>29.8</ele><time>2026-04-26T17:44:29.001Z</time></trkpt><trkpt lat="43.721817562051015" lon="10.948489596512127"><ele>29.6</ele><time>2026-04-26T17:44:30.001Z</time></trkpt><trkpt lat="43.72176583635008" lon="10.948548076074172"><ele>29.4</ele><time>2026-04-26T17:44:31.001Z</time></trkpt><trkpt lat="43.721665006493694" lon="10.94865361971196"><ele>29.2</ele><time>2026-04-26T17:44:33.001Z</time></trkpt><trkpt lat="43.721559797684705" lon="10.948741679657319"><ele>29.0</ele><time>2026-04-26T17:44:35.001Z</time></trkpt><trkpt lat="43.72149578025935" lon="10.948753805099981"><ele>28.999999999999996</ele><time>2026-04-26T17:44:36.001Z</time></trkpt><trkpt lat="43.72141790449931" lon="10.948759888571125"><ele>29.0</ele><time>2026-04-26T17:44:37.001Z</time></trkpt><trkpt lat="43.7213395387688" lon="10.948765875409462"><ele>29.0</ele><time>2026-04-26T17:44:38.001Z</time></trkpt><trkpt lat="43.72126886120985" lon="10.948791714543566"><ele>29.0</ele><time>2026-04-26T17:44:39.001Z</time></trkpt><trkpt lat="43.721201753965566" lon="10.948796518577531"><ele>28.999999999999996</ele><time>2026-04-26T17:44:40.001Z</time></trkpt><trkpt lat="43.72107618547433" lon="10.948792543661067"><ele>29.0</ele><time>2026-04-26T17:44:42.001Z</time></trkpt><trkpt lat="43.7209482982298" lon="10.948801377393973"><ele>29.333333333333332</ele><time>2026-04-26T17:44:44.001Z</time></trkpt><trkpt lat="43.72087547322784" lon="10.948802951533152"><ele>29.666666666666664</ele><time>2026-04-26T17:44:45.001Z</time></trkpt><trkpt lat="43.72080719795942" lon="10.948803087704144"><ele>30.0</ele><time>2026-04-26T17:44:46.001Z</time></trkpt><trkpt lat="43.720742631021956" lon="10.948807127298576"><ele>30.333333333333336</ele><time>2026-04-26T17:44:47.001Z</time></trkpt><trkpt lat="43.72062470107747" lon="10.948815703208364"><ele>30.666666666666668</ele><time>2026-04-26T17:44:49.001Z</time></trkpt><trkpt lat="43.72051526078675" lon="10.948822854329801"><ele>31.0</ele><time>2026-04-26T17:44:51.001Z</time></trkpt><trkpt lat="43.72044561106028" lon="10.948828787045244"><ele>31.000000000000004</ele><time>2026-04-26T17:44:53.001Z</time></trkpt><trkpt lat="43.72036691688703" lon="10.94884062083871"><ele>31.0</ele><time>2026-04-26T17:44:57.001Z</time></trkpt><trkpt lat="43.72028440904618" lon="10.948846645101343"><ele>31.0</ele><time>2026-04-26T17:44:59.001Z</time></trkpt><trkpt lat="43.72022541765806" lon="10.948877330478552"><ele>31.0</ele><time>2026-04-26T17:45:01.001Z</time></trkpt><trkpt lat="43.72022652861155" lon="10.949026071163551"><ele>31.000000000000004</ele><time>2026-04-26T17:45:02.001Z</time></trkpt><trkpt lat="43.72023384687836" lon="10.949184591582394"><ele>31.0</ele><time>2026-04-26T17:45:04.002Z</time></trkpt><trkpt lat="43.72024013911637" lon="10.949304446613404"><ele>30.833333333333336</ele><time>2026-04-26T17:45:06.002Z</time></trkpt><trkpt lat="43.72025010929619" lon="10.949400351867826"><ele>30.666666666666668</ele><time>2026-04-26T17:45:21Z</time></trkpt><trkpt lat="43.720242422022736" lon="10.94950254622577"><ele>30.5</ele><time>2026-04-26T17:45:24Z</time></trkpt><trkpt lat="43.720238151470554" lon="10.949626940512719"><ele>30.333333333333336</ele><time>2026-04-26T17:45:27Z</time></trkpt><trkpt lat="43.72024758339379" lon="10.949761357902403"><ele>30.166666666666668</ele><time>2026-04-26T17:45:29Z</time></trkpt><trkpt lat="43.72024795746844" lon="10.949852588525777"><ele>30.0</ele><time>2026-04-26T17:45:30Z</time></trkpt><trkpt lat="43.72024393798511" lon="10.949975563362687"><ele>29.6</ele><time>2026-04-26T17:45:31Z</time></trkpt><trkpt lat="43.72023765685312" lon="10.950064173194896"><ele>29.2</ele><time>2026-04-26T17:45:32Z</time></trkpt><trkpt lat="43.7202451522813" lon="10.950211888853937"><ele>28.799999999999997</ele><time>2026-04-26T17:45:34Z</time></trkpt><trkpt lat="43.7202238957277" lon="10.95037764389849"><ele>28.4</ele><time>2026-04-26T17:45:36Z</time></trkpt><trkpt lat="43.72022593422949" lon="10.950503912304312"><ele>28.0</ele><time>2026-04-26T17:45:37Z</time></trkpt><trkpt lat="43.72022823633323" lon="10.950624352249648"><ele>28.0</ele><time>2026-04-26T17:45:38Z</time></trkpt><trkpt lat="43.72023446198248" lon="10.950738632474181"><ele>27.999999999999996</ele><time>2026-04-26T17:45:39Z</time></trkpt><trkpt lat="43.72022750248909" lon="10.950883320585978"><ele>27.999999999999996</ele><time>2026-04-26T17:45:40Z</time></trkpt><trkpt lat="43.72022398421337" lon="10.951026818025024"><ele>28.0</ele><time>2026-04-26T17:45:41Z</time></trkpt><trkpt lat="43.720223652428984" lon="10.95118381243309"><ele>28.0</ele><time>2026-04-26T17:45:42Z</time></trkpt><trkpt lat="43.720228385716595" lon="10.951350501479405"><ele>28.0</ele><time>2026-04-26T17:45:43Z</time></trkpt><trkpt lat="43.72022358476604" lon="10.951514085171617"><ele>27.999999999999996</ele><time>2026-04-26T17:45:44Z</time></trkpt><trkpt lat="43.720219707043" lon="10.951663764116484"><ele>27.999999999999996</ele><time>2026-04-26T17:45:45Z</time></trkpt><trkpt lat="43.72021568951467" lon="10.951806015855045"><ele>28.0</ele><time>2026-04-26T17:45:46Z</time></trkpt><trkpt lat="43.720212782358914" lon="10.951960268413679"><ele>28.0</ele><time>2026-04-26T17:45:47Z</time></trkpt><trkpt lat="43.720206660608966" lon="10.95211867684534"><ele>28.0</ele><time>2026-04-26T17:45:48Z</time></trkpt><trkpt lat="43.72020227283846" lon="10.95227888598899"><ele>28.0</ele><time>2026-04-26T17:45:49Z</time></trkpt><trkpt lat="43.72019692616555" lon="10.952445387588982"><ele>28.0</ele><time>2026-04-26T17:45:50Z</time></trkpt><trkpt lat="43.72018963096539" lon="10.952597485348084"><ele>28.0</ele><time>2026-04-26T17:45:51Z</time></trkpt><trkpt lat="43.72018694301869" lon="10.952741435267233"><ele>28.0</ele><time>2026-04-26T17:45:52Z</time></trkpt><trkpt lat="43.72018528542085" lon="10.95288331667662"><ele>27.999999999999996</ele><time>2026-04-26T17:45:53Z</time></trkpt><trkpt lat="43.72018736262342" lon="10.953041860545694"><ele>27.999999999999996</ele><time>2026-04-26T17:45:54Z</time></trkpt><trkpt lat="43.72019623835469" lon="10.953209401803813"><ele>28.0</ele><time>2026-04-26T17:45:55Z</time></trkpt><trkpt lat="43.720206034328605" lon="10.953359214191517"><ele>28.0</ele><time>2026-04-26T17:45:56Z</time></trkpt><trkpt lat="43.72023111157333" lon="10.953493745111185"><ele>27.833333333333336</ele><time>2026-04-26T17:45:57Z</time></trkpt><trkpt lat="43.72025093823268" lon="10.95362356794129"><ele>27.666666666666668</ele><time>2026-04-26T17:45:58Z</time></trkpt><trkpt lat="43.7202675389391" lon="10.953740637907002"><ele>27.5</ele><time>2026-04-26T17:45:59Z</time></trkpt><trkpt lat="43.72028518277453" lon="10.95384735051816"><ele>27.333333333333336</ele><time>2026-04-26T17:46:00Z</time></trkpt><trkpt lat="43.720294908167645" lon="10.953938282846295"><ele>27.166666666666668</ele><time>2026-04-26T17:46:01Z</time></trkpt><trkpt lat="43.720310908391646" lon="10.954048680161454"><ele>27.0</ele><time>2026-04-26T17:46:03.001Z</time></trkpt><trkpt lat="43.72033065937813" lon="10.95414832560866"><ele>27.0</ele><time>2026-04-26T17:46:19.001Z</time></trkpt><trkpt lat="43.7203356343047" lon="10.95423538182328"><ele>27.000000000000004</ele><time>2026-04-26T17:46:21.001Z</time></trkpt><trkpt lat="43.720504235599165" lon="10.954200656701845"><ele>27.000000000000004</ele><time>2026-04-26T17:46:22.001Z</time></trkpt><trkpt lat="43.720594924466006" lon="10.95417574314703"><ele>27.0</ele><time>2026-04-26T17:46:23.001Z</time></trkpt><trkpt lat="43.72068768299138" lon="10.95414592295189"><ele>27.0</ele><time>2026-04-26T17:46:24.001Z</time></trkpt><trkpt lat="43.7207738746172" lon="10.954133013321005"><ele>27.0</ele><time>2026-04-26T17:46:25.001Z</time></trkpt><trkpt lat="43.72085553443263" lon="10.954108654797126"><ele>27.0</ele><time>2026-04-26T17:46:26.001Z</time></trkpt><trkpt lat="43.72093335452299" lon="10.954099595651064"><ele>27.0</ele><time>2026-04-26T17:46:27.001Z</time></trkpt><trkpt lat="43.721005584912035" lon="10.954083797723742"><ele>27.0</ele><time>2026-04-26T17:46:28.001Z</time></trkpt><trkpt lat="43.72107207336269" lon="10.954066466414373"><ele>27.0</ele><time>2026-04-26T17:46:29.001Z</time></trkpt><trkpt lat="43.72113951957696" lon="10.954047923845021"><ele>27.0</ele><time>2026-04-26T17:46:30.001Z</time></trkpt><trkpt lat="43.72121075545063" lon="10.95402969638518"><ele>27.0</ele><time>2026-04-26T17:46:31.001Z</time></trkpt><trkpt lat="43.72127942745795" lon="10.95403583436624"><ele>29.0</ele><time>2026-04-26T17:46:32.001Z</time></trkpt><trkpt lat="43.721372201291054" lon="10.95401490747854"><ele>29.0</ele><time>2026-04-26T17:46:34.001Z</time></trkpt><trkpt lat="43.72133565987557" lon="10.953779926610624"><ele>29.0</ele><time>2026-04-26T17:46:37.001Z</time></trkpt></trkseg></trk></gpx>